
Distance (Route):
Temperature : 19.9°C
Humidity : 47.8%
Pressure : 954.5hPa| Receiver | Frames | First received | Last received |
|---|---|---|---|
| DK7TD | 879 | 2026-09-01 10:47:14 | 2026-09-01 13:29:59 |
| DO3MHA-12 | 452 | 2026-09-01 11:46:48 | 2026-09-01 13:59:06 |
| DO3MHA-11 | 437 | 2026-09-01 11:46:38 | 2026-09-01 13:59:18 |
| HSKMA3-T | 273 | 2026-09-01 11:48:37 | 2026-09-01 12:50:31 |
| DM0DOS-11 | 218 | 2026-09-01 12:20:01 | 2026-09-01 13:10:41 |
| NBG1-10 | 153 | 2026-09-01 11:52:05 | 2026-09-01 13:58:57 |
| DB0NH | 150 | 2026-09-01 11:54:00 | 2026-09-01 13:58:15 |
| DL1NUX | 145 | 2026-09-01 11:51:01 | 2026-09-01 13:16:58 |
| DL6DJ-15 | 101 | 2026-09-01 11:18:46 | 2026-09-01 13:56:11 |
| DL1XH-west | 100 | 2026-09-01 12:15:24 | 2026-09-01 12:33:37 |
| DO9HM | 75 | 2026-09-01 11:46:37 | 2026-09-01 13:40:16 |
| DJ8HS-15 | 74 | 2026-09-01 11:47:17 | 2026-09-01 13:20:04 |
| DL9SK-14 | 67 | 2026-09-01 10:46:46 | 2026-09-01 13:40:43 |
| DB0ND-19 | 67 | 2026-09-01 10:53:46 | 2026-09-01 13:42:54 |
| IW2NTF | 67 | 2026-09-01 11:46:31 | 2026-09-01 12:40:13 |
| DK5PH-5 | 63 | 2026-09-01 11:47:16 | 2026-09-01 13:47:04 |
| DG9SBQ-11 | 62 | 2026-09-01 11:03:24 | 2026-09-01 12:37:23 |
| DB0UT-7 | 54 | 2026-09-01 11:57:22 | 2026-09-01 13:37:18 |
| DM7RM-13 | 49 | 2026-09-01 11:46:40 | 2026-09-01 13:35:41 |
| DF8AY | 49 | 2026-09-01 12:18:37 | 2026-09-01 12:28:59 |
| DL1ZP-14 | 46 | 2026-09-01 11:01:48 | 2026-09-01 13:16:25 |
| OE5DXL-15 | 43 | 2026-09-01 11:46:39 | 2026-09-01 13:10:15 |
| DL1XH1-15 | 41 | 2026-09-01 12:15:50 | 2026-09-01 12:32:50 |
| DN1GJH-1 | 38 | 2026-09-01 11:51:42 | 2026-09-01 13:16:45 |
| DF3TZ-5 | 33 | 2026-09-01 10:46:33 | 2026-09-01 13:41:59 |
| DL0LBS | 27 | 2026-09-01 13:29:02 | 2026-09-01 13:48:32 |
| PG1ADW-2 | 23 | 2026-09-01 11:51:49 | 2026-09-01 12:52:11 |
| SONDE2-11 | 19 | 2026-09-01 11:51:37 | 2026-09-01 12:34:34 |
| OE5DRO-10 | 16 | 2026-09-01 11:46:35 | 2026-09-01 12:34:13 |
| SONCRA | 16 | 2026-09-01 12:00:51 | 2026-09-01 12:55:13 |
| BIOWL1-15 | 14 | 2026-09-01 12:56:40 | 2026-09-01 13:13:21 |
| OE5WHR-10 | 13 | 2026-09-01 11:47:13 | 2026-09-01 12:42:13 |
| DH7VM-15 | 12 | 2026-09-01 11:47:04 | 2026-09-01 13:27:26 |
| DF7PN | 12 | 2026-09-01 13:19:47 | 2026-09-01 13:32:43 |
| DL8DAS-14 | 11 | 2026-09-01 12:08:14 | 2026-09-01 12:39:47 |
| DJTTGO | 11 | 2026-09-01 12:17:00 | 2026-09-01 13:11:37 |
| EDDB2-11 | 9 | 2026-09-01 12:11:15 | 2026-09-01 12:30:55 |
| OE9MKV-15 | 8 | 2026-09-01 11:47:07 | 2026-09-01 12:42:25 |
| DG1MJG | 7 | 2026-09-01 11:51:44 | 2026-09-01 13:29:04 |
| SO1NDE-10 | 7 | 2026-09-01 11:58:14 | 2026-09-01 12:29:51 |
| AZAK | 7 | 2026-09-01 12:56:53 | 2026-09-01 12:59:59 |
| DJ2DS-15 | 5 | 2026-09-01 12:17:11 | 2026-09-01 12:33:41 |
| DL8DAS-15 | 4 | 2026-09-01 12:07:14 | 2026-09-01 12:31:14 |
| OE3JTB-15 | 3 | 2026-09-01 13:05:21 | 2026-09-01 13:11:27 |
| DF1GD-15 | 2 | 2026-09-01 13:03:10 | 2026-09-01 13:03:33 |
| HEMX73-6 | 1 | 2026-09-01 11:59:54 | 2026-09-01 11:59:54 |
| KANTATE | 1 | 2026-09-01 12:00:04 | 2026-09-01 12:00:04 |
| S52SK | 1 | 2026-09-01 12:13:32 | 2026-09-01 12:13:32 |
| AU51GT2 | 1 | 2026-09-01 12:15:50 | 2026-09-01 12:15:50 |
| PETON7-10 | 1 | 2026-09-01 12:24:51 | 2026-09-01 12:24:51 |
| Receiver | Date | Latitude | Longitude | Direction | Speed | Altitude | Climb | Temperature | Humidity | Pressure | Voltage | Killtimer | Uptime | BKT | XDATA |
|---|---|---|---|---|---|---|---|---|---|---|---|---|---|---|---|
| DO3MHA-11 | 2026-09-01 13:59:18 | 49.02575 | 11.24378 | 122° | 24km/h | 616m | -3.5m/s | 19.9°C | 47.8% | 954.5hPa | 2.7V | 06:56:00 | 03:29:46 | 00:00:00 | |
| DO3MHA-11 | 2026-09-01 13:59:13 | 49.02592 | 11.24336 | 118° | 26km/h | 632m | -3.2m/s | 19.8°C | 48.3% | 952.6hPa | 2.7V | 00:00:00 | 03:29:41 | 00:00:00 | |
| DO3MHA-11 | 2026-09-01 13:59:11 | 49.02598 | 11.24319 | 118° | 24km/h | 639m | -3.6m/s | 19.7°C | 48.5% | 951.6hPa | 2.7V | 00:00:00 | 03:29:39 | 00:00:00 | |
| DO3MHA-11 | 2026-09-01 13:59:09 | 49.02603 | 11.24303 | 119° | 22km/h | 646m | -4.2m/s | 19.6°C | 48.8% | 950.8hPa | 2.7V | 00:00:00 | 03:29:37 | 00:00:00 | |
| DO3MHA-11 | 2026-09-01 13:59:07 | 49.02609 | 11.24288 | 121° | 22km/h | 654m | -3.8m/s | 19.6°C | 48.9% | 950.1hPa | 2.7V | 00:00:00 | 03:29:35 | 00:00:00 | |
| DO3MHA-12 | 2026-09-01 13:59:06 | 49.02612 | 11.24280 | 121° | 24km/h | 658m | -3.3m/s | 19.5°C | 49.0% | 949.9hPa | 2.7V | 00:00:00 | 03:29:34 | 00:00:00 | |
| DO3MHA-11 | 2026-09-01 13:59:05 | 49.02615 | 11.24272 | 120° | 26km/h | 662m | -3.4m/s | 19.5°C | 49.1% | 949.3hPa | 2.7V | 00:00:00 | 03:29:33 | 00:00:00 | |
| DO3MHA-12 | 2026-09-01 13:59:03 | 49.02622 | 11.24256 | 118° | 24km/h | 669m | -3.5m/s | 19.4°C | 49.2% | 948.8hPa | 2.7V | 00:00:00 | 03:29:31 | 00:00:00 | |
| DO3MHA-11 | 2026-09-01 13:59:03 | 49.02622 | 11.24256 | 118° | 24km/h | 669m | -3.5m/s | 19.4°C | 49.2% | 948.8hPa | 2.7V | 00:00:00 | 03:29:31 | 00:00:00 | |
| DO3MHA-11 | 2026-09-01 13:59:01 | 49.02628 | 11.24241 | 121° | 26km/h | 676m | -3.2m/s | 19.4°C | 49.4% | 947.8hPa | 2.7V | 06:56:00 | 03:29:29 | 00:00:00 | |
| DO3MHA-12 | 2026-09-01 13:59:01 | 49.02628 | 11.24241 | 121° | 26km/h | 676m | -3.2m/s | 19.4°C | 49.4% | 947.8hPa | 2.7V | 00:00:00 | 03:29:29 | 00:00:00 | |
| DO3MHA-11 | 2026-09-01 13:58:59 | 49.02635 | 11.24224 | 126° | 24km/h | 682m | -3.2m/s | 19.3°C | 49.6% | 947.1hPa | 2.7V | 00:00:00 | 03:29:27 | 00:00:00 | |
| DO3MHA-12 | 2026-09-01 13:58:59 | 49.02635 | 11.24224 | 126° | 24km/h | 682m | -3.2m/s | 19.3°C | 49.6% | 947.1hPa | 2.7V | 00:00:00 | 03:29:27 | 00:00:00 | |
| NBG1-10 | 2026-09-01 13:58:57 | 49.02643 | 11.24210 | 130° | 24km/h | 689m | -3.1m/s | 19.3°C | 49.7% | 946.2hPa | 2.7V | 06:56:00 | 03:29:25 | 00:00:00 | |
| DO3MHA-12 | 2026-09-01 13:58:57 | 49.02643 | 11.24210 | 130° | 24km/h | 689m | -3.1m/s | 19.3°C | 49.7% | 946.2hPa | 2.7V | 06:56:00 | 03:29:25 | 00:00:00 | |
| DO3MHA-11 | 2026-09-01 13:58:57 | 49.02643 | 11.24210 | 130° | 24km/h | 689m | -3.1m/s | 19.3°C | 49.7% | 946.2hPa | 2.7V | 00:00:00 | 03:29:25 | 00:00:00 | |
| DO3MHA-12 | 2026-09-01 13:58:55 | 49.02651 | 11.24196 | 134° | 26km/h | 695m | -3.0m/s | 19.2°C | 49.9% | 945.6hPa | 2.7V | 00:00:00 | 03:29:23 | 00:00:00 | |
| NBG1-10 | 2026-09-01 13:58:55 | 49.02651 | 11.24196 | 134° | 26km/h | 695m | -3.0m/s | 19.2°C | 49.9% | 945.6hPa | 2.7V | 00:00:00 | 03:29:23 | 00:00:00 | |
| DO3MHA-11 | 2026-09-01 13:58:55 | 49.02651 | 11.24196 | 134° | 26km/h | 695m | -3.0m/s | 19.2°C | 49.9% | 945.6hPa | 2.7V | 00:00:00 | 03:29:23 | 00:00:00 | |
| NBG1-10 | 2026-09-01 13:58:53 | 49.02660 | 11.24181 | 133° | 26km/h | 701m | -3.0m/s | 19.1°C | 50.0% | 944.8hPa | 2.7V | 00:00:00 | 03:29:21 | 00:00:00 | |
| DO3MHA-11 | 2026-09-01 13:58:53 | 49.02660 | 11.24181 | 133° | 26km/h | 701m | -3.0m/s | 19.1°C | 50.0% | 944.8hPa | 2.7V | 00:00:00 | 03:29:21 | 00:00:00 | |
| DO3MHA-12 | 2026-09-01 13:58:53 | 49.02660 | 11.24181 | 133° | 26km/h | 701m | -3.0m/s | 19.1°C | 50.0% | 944.8hPa | 2.7V | 00:00:00 | 03:29:21 | 00:00:00 | |
| NBG1-10 | 2026-09-01 13:58:51 | 49.02669 | 11.24167 | 133° | 27km/h | 705m | -3.4m/s | 19.1°C | 50.2% | 944.3hPa | 2.7V | 00:00:00 | 03:29:19 | 00:00:00 | |
| DO3MHA-11 | 2026-09-01 13:58:51 | 49.02669 | 11.24167 | 133° | 27km/h | 705m | -3.4m/s | 19.1°C | 50.2% | 944.3hPa | 2.7V | 00:00:00 | 03:29:19 | 00:00:00 | |
| DO3MHA-12 | 2026-09-01 13:58:51 | 49.02669 | 11.24167 | 133° | 27km/h | 705m | -3.4m/s | 19.1°C | 50.2% | 944.3hPa | 2.7V | 00:00:00 | 03:29:19 | 00:00:00 | |
| NBG1-10 | 2026-09-01 13:58:49 | 49.02677 | 11.24149 | 124° | 26km/h | 711m | -3.4m/s | 19.0°C | 50.3% | 943.6hPa | 2.7V | 00:00:00 | 03:29:17 | 00:00:00 | |
| DO3MHA-11 | 2026-09-01 13:58:49 | 49.02677 | 11.24149 | 124° | 26km/h | 711m | -3.4m/s | 19.0°C | 50.3% | 943.6hPa | 2.7V | 00:00:00 | 03:29:17 | 00:00:00 | |
| DO3MHA-12 | 2026-09-01 13:58:49 | 49.02677 | 11.24149 | 124° | 26km/h | 711m | -3.4m/s | 19.0°C | 50.3% | 943.6hPa | 2.7V | 00:00:00 | 03:29:17 | 00:00:00 | |
| DO3MHA-12 | 2026-09-01 13:58:47 | 49.02683 | 11.24132 | 113° | 26km/h | 718m | -2.8m/s | 18.9°C | 50.4% | 942.8hPa | 2.7V | 00:00:00 | 03:29:15 | 00:00:00 | |
| NBG1-10 | 2026-09-01 13:58:47 | 49.02683 | 11.24132 | 113° | 26km/h | 718m | -2.8m/s | 18.9°C | 50.4% | 942.8hPa | 2.7V | 00:00:00 | 03:29:15 | 00:00:00 | |
| DO3MHA-11 | 2026-09-01 13:58:47 | 49.02683 | 11.24132 | 113° | 26km/h | 718m | -2.8m/s | 18.9°C | 50.4% | 942.8hPa | 2.7V | 06:56:00 | 03:29:15 | 00:00:00 | |
| NBG1-10 | 2026-09-01 13:58:45 | 49.02688 | 11.24113 | 104° | 24km/h | 724m | -3.5m/s | 18.9°C | 50.6% | 942.1hPa | 2.7V | 00:00:00 | 03:29:13 | 00:00:00 | |
| DO3MHA-11 | 2026-09-01 13:58:45 | 49.02688 | 11.24113 | 104° | 24km/h | 724m | -3.5m/s | 18.9°C | 50.6% | 942.1hPa | 2.7V | 00:00:00 | 03:29:13 | 00:00:00 | |
| DO3MHA-12 | 2026-09-01 13:58:45 | 49.02688 | 11.24113 | 104° | 24km/h | 724m | -3.5m/s | 18.9°C | 50.6% | 942.1hPa | 2.7V | 00:00:00 | 03:29:13 | 00:00:00 | |
| NBG1-10 | 2026-09-01 13:58:43 | 49.02690 | 11.24096 | 102° | 18km/h | 731m | -3.4m/s | 18.8°C | 50.8% | 941.4hPa | 2.7V | 06:56:00 | 03:29:11 | 00:00:00 | |
| DO3MHA-11 | 2026-09-01 13:58:43 | 49.02690 | 11.24096 | 102° | 18km/h | 731m | -3.4m/s | 18.8°C | 50.8% | 941.4hPa | 2.7V | 00:00:00 | 03:29:11 | 00:00:00 | |
| DO3MHA-12 | 2026-09-01 13:58:43 | 49.02690 | 11.24096 | 102° | 18km/h | 731m | -3.4m/s | 18.8°C | 50.8% | 941.4hPa | 2.7V | 06:56:00 | 03:29:11 | 00:00:00 | |
| NBG1-10 | 2026-09-01 13:58:41 | 49.02691 | 11.24083 | 104° | 16km/h | 738m | -2.8m/s | 18.8°C | 51.1% | 940.8hPa | 2.7V | 00:00:00 | 03:29:09 | 00:00:00 | |
| DO3MHA-12 | 2026-09-01 13:58:41 | 49.02691 | 11.24083 | 104° | 16km/h | 738m | -2.8m/s | 18.8°C | 51.1% | 940.8hPa | 2.7V | 00:00:00 | 03:29:09 | 00:00:00 | |
| DO3MHA-11 | 2026-09-01 13:58:41 | 49.02691 | 11.24083 | 104° | 16km/h | 738m | -2.8m/s | 18.8°C | 51.1% | 940.8hPa | 2.7V | 00:00:00 | 03:29:09 | 00:00:00 | |
| DO3MHA-12 | 2026-09-01 13:58:39 | 49.02693 | 11.24071 | 108° | 15km/h | 743m | -3.0m/s | 18.7°C | 51.2% | 940.0hPa | 2.7V | 00:00:00 | 03:29:07 | 00:00:00 | |
| NBG1-10 | 2026-09-01 13:58:39 | 49.02693 | 11.24071 | 108° | 15km/h | 743m | -3.0m/s | 18.7°C | 51.2% | 940.0hPa | 2.7V | 00:00:00 | 03:29:07 | 00:00:00 | |
| DO3MHA-11 | 2026-09-01 13:58:39 | 49.02693 | 11.24071 | 108° | 15km/h | 743m | -3.0m/s | 18.7°C | 51.2% | 940.0hPa | 2.7V | 00:00:00 | 03:29:07 | 00:00:00 | |
| NBG1-10 | 2026-09-01 13:58:37 | 49.02696 | 11.24060 | 103° | 13km/h | 749m | -3.1m/s | 18.7°C | 51.4% | 939.5hPa | 2.7V | 00:00:00 | 03:29:05 | 00:00:00 | |
| DO3MHA-11 | 2026-09-01 13:58:37 | 49.02696 | 11.24060 | 103° | 13km/h | 749m | -3.1m/s | 18.7°C | 51.4% | 939.5hPa | 2.7V | 00:00:00 | 03:29:05 | 00:00:00 | |
| DO3MHA-12 | 2026-09-01 13:58:37 | 49.02696 | 11.24060 | 103° | 13km/h | 749m | -3.1m/s | 18.7°C | 51.4% | 939.5hPa | 2.7V | 00:00:00 | 03:29:05 | 00:00:00 | |
| NBG1-10 | 2026-09-01 13:58:35 | 49.02698 | 11.24050 | 112° | 15km/h | 755m | -3.6m/s | 18.6°C | 51.6% | 938.7hPa | 2.7V | 00:00:00 | 03:29:03 | 00:00:00 | |
| DO3MHA-11 | 2026-09-01 13:58:35 | 49.02698 | 11.24050 | 112° | 15km/h | 755m | -3.6m/s | 18.6°C | 51.6% | 938.7hPa | 2.7V | 00:00:00 | 03:29:03 | 00:00:00 | |
| DO3MHA-12 | 2026-09-01 13:58:35 | 49.02698 | 11.24050 | 112° | 15km/h | 755m | -3.6m/s | 18.6°C | 51.6% | 938.7hPa | 2.7V | 00:00:00 | 03:29:03 | 00:00:00 | |
| NBG1-10 | 2026-09-01 13:58:33 | 49.02701 | 11.24039 | 103° | 15km/h | 763m | -3.8m/s | 18.5°C | 51.7% | 937.9hPa | 2.7V | 00:00:00 | 03:29:01 | 00:00:00 | |
| DO3MHA-12 | 2026-09-01 13:58:33 | 49.02701 | 11.24039 | 103° | 15km/h | 763m | -3.8m/s | 18.5°C | 51.7% | 937.9hPa | 2.7V | 00:00:00 | 03:29:01 | 00:00:00 | |
| DO3MHA-11 | 2026-09-01 13:58:33 | 49.02701 | 11.24039 | 103° | 15km/h | 763m | -3.8m/s | 18.5°C | 51.7% | 937.9hPa | 2.7V | 06:56:00 | 03:29:01 | 00:00:00 | |
| DO3MHA-12 | 2026-09-01 13:58:31 | 49.02701 | 11.24028 | 91° | 15km/h | 770m | -3.7m/s | 18.4°C | 51.9% | 937.0hPa | 2.7V | 00:00:00 | 03:28:59 | 00:00:00 | |
| NBG1-10 | 2026-09-01 13:58:31 | 49.02701 | 11.24028 | 91° | 15km/h | 770m | -3.7m/s | 18.4°C | 51.9% | 937.0hPa | 2.7V | 00:00:00 | 03:28:59 | 00:00:00 | |
| DO3MHA-11 | 2026-09-01 13:58:31 | 49.02701 | 11.24028 | 91° | 15km/h | 770m | -3.7m/s | 18.4°C | 51.9% | 937.0hPa | 2.7V | 00:00:00 | 03:28:59 | 00:00:00 | |
| DO3MHA-11 | 2026-09-01 13:58:29 | 49.02702 | 11.24017 | 99° | 13km/h | 778m | -3.4m/s | 18.4°C | 52.2% | 936.3hPa | 2.7V | 00:00:00 | 03:28:57 | 00:00:00 | |
| DO3MHA-12 | 2026-09-01 13:58:29 | 49.02702 | 11.24017 | 99° | 13km/h | 778m | -3.4m/s | 18.4°C | 52.2% | 936.3hPa | 2.7V | 06:57:00 | 03:28:57 | 00:00:00 | |
| DO3MHA-11 | 2026-09-01 13:58:27 | 49.02703 | 11.24006 | 93° | 13km/h | 784m | -2.9m/s | 18.3°C | 52.4% | 935.6hPa | 2.7V | 00:00:00 | 03:28:55 | 00:00:00 | |
| DO3MHA-12 | 2026-09-01 13:58:27 | 49.02703 | 11.24006 | 93° | 13km/h | 784m | -2.9m/s | 18.3°C | 52.4% | 935.6hPa | 2.7V | 00:00:00 | 03:28:55 | 00:00:00 | |
| NBG1-10 | 2026-09-01 13:58:26 | 49.02703 | 11.24001 | 105° | 11km/h | 787m | -2.7m/s | 18.3°C | 52.4% | 935.2hPa | 2.7V | 06:57:00 | 03:28:54 | 00:00:00 | |
| DO3MHA-11 | 2026-09-01 13:58:25 | 49.02704 | 11.23997 | 93° | 11km/h | 790m | -2.8m/s | 18.3°C | 52.5% | 935.0hPa | 2.7V | 00:00:00 | 03:28:53 | 00:00:00 | |
| DO3MHA-12 | 2026-09-01 13:58:25 | 49.02704 | 11.23997 | 93° | 11km/h | 790m | -2.8m/s | 18.3°C | 52.5% | 935.0hPa | 2.7V | 00:00:00 | 03:28:53 | 00:00:00 | |
| NBG1-10 | 2026-09-01 13:58:24 | 49.02704 | 11.23993 | 104° | 9km/h | 793m | -2.5m/s | 18.2°C | 52.6% | 934.5hPa | 2.7V | 00:00:00 | 03:28:52 | 00:00:00 | |
| DO3MHA-12 | 2026-09-01 13:58:23 | 49.02705 | 11.23989 | 101° | 9km/h | 796m | -2.6m/s | 18.2°C | 52.6% | 934.3hPa | 2.7V | 00:00:00 | 03:28:51 | 00:00:00 | |
| DO3MHA-11 | 2026-09-01 13:58:23 | 49.02705 | 11.23989 | 101° | 9km/h | 796m | -2.6m/s | 18.2°C | 52.6% | 934.3hPa | 2.7V | 00:00:00 | 03:28:51 | 00:00:00 | |
| NBG1-10 | 2026-09-01 13:58:22 | 49.02706 | 11.23986 | 108° | 9km/h | 798m | -2.9m/s | 18.2°C | 52.8% | 933.8hPa | 2.7V | 00:00:00 | 03:28:50 | 00:00:00 | |
| DO3MHA-11 | 2026-09-01 13:58:21 | 49.02706 | 11.23982 | 109° | 9km/h | 801m | -3.1m/s | 18.1°C | 52.8% | 933.6hPa | 2.7V | 00:00:00 | 03:28:49 | 00:00:00 | |
| DO3MHA-12 | 2026-09-01 13:58:21 | 49.02706 | 11.23982 | 109° | 9km/h | 801m | -3.1m/s | 18.1°C | 52.8% | 933.6hPa | 2.7V | 00:00:00 | 03:28:49 | 00:00:00 | |
| NBG1-10 | 2026-09-01 13:58:20 | 49.02707 | 11.23979 | 107° | 11km/h | 805m | -3.3m/s | 18.1°C | 53.0% | 933.3hPa | 2.7V | 00:00:00 | 03:28:48 | 00:00:00 | |
| DO3MHA-11 | 2026-09-01 13:58:19 | 49.02708 | 11.23975 | 116° | 9km/h | 808m | -3.3m/s | 18.1°C | 53.0% | 932.7hPa | 2.7V | 06:57:00 | 03:28:47 | 00:00:00 | |
| DO3MHA-12 | 2026-09-01 13:58:19 | 49.02708 | 11.23975 | 116° | 9km/h | 808m | -3.3m/s | 18.1°C | 53.0% | 932.7hPa | 2.7V | 00:00:00 | 03:28:47 | 00:00:00 | |
| DO3MHA-11 | 2026-09-01 13:58:17 | 49.02709 | 11.23968 | 107° | 9km/h | 815m | -2.9m/s | 18.0°C | 53.2% | 932.3hPa | 2.7V | 00:00:00 | 03:28:45 | 00:00:00 | |
| DO3MHA-12 | 2026-09-01 13:58:17 | 49.02709 | 11.23968 | 107° | 9km/h | 815m | -2.9m/s | 18.0°C | 53.2% | 932.3hPa | 2.7V | 00:00:00 | 03:28:45 | 00:00:00 | |
| NBG1-10 | 2026-09-01 13:58:16 | 49.02710 | 11.23964 | 105° | 9km/h | 818m | -3.0m/s | 18.0°C | 53.2% | 931.9hPa | 2.7V | 00:00:00 | 03:28:44 | 00:00:00 | |
| DO3MHA-12 | 2026-09-01 13:58:15 | 49.02710 | 11.23960 | 114° | 9km/h | 821m | -3.1m/s | 17.9°C | 53.2% | 931.5hPa | 2.7V | 06:57:00 | 03:28:43 | 00:00:00 | |
| DB0NH | 2026-09-01 13:58:15 | 49.02710 | 11.23960 | 114° | 9km/h | 821m | -3.1m/s | 17.9°C | 53.2% | 931.5hPa | 2.7V | 00:00:00 | 03:28:43 | 00:00:00 | |
| DO3MHA-11 | 2026-09-01 13:58:15 | 49.02710 | 11.23960 | 114° | 9km/h | 821m | -3.1m/s | 17.9°C | 53.2% | 931.5hPa | 2.7V | 00:00:00 | 03:28:43 | 00:00:00 | |
| NBG1-10 | 2026-09-01 13:58:14 | 49.02712 | 11.23957 | 107° | 9km/h | 825m | -3.1m/s | 17.9°C | 53.4% | 931.3hPa | 2.7V | 00:00:00 | 03:28:42 | 00:00:00 | |
| DO3MHA-11 | 2026-09-01 13:58:13 | 49.02712 | 11.23954 | 131° | 9km/h | 828m | -3.1m/s | 17.9°C | 53.5% | 931.1hPa | 2.7V | 00:00:00 | 03:28:41 | 00:00:00 | |
| DO3MHA-12 | 2026-09-01 13:58:13 | 49.02712 | 11.23954 | 131° | 9km/h | 828m | -3.1m/s | 17.9°C | 53.5% | 931.1hPa | 2.7V | 00:00:00 | 03:28:41 | 00:00:00 | |
| NBG1-10 | 2026-09-01 13:58:12 | 49.02714 | 11.23951 | 114° | 9km/h | 831m | -2.9m/s | 17.8°C | 53.7% | 930.6hPa | 2.7V | 06:57:00 | 03:28:40 | 00:00:00 | |
| DO3MHA-11 | 2026-09-01 13:58:11 | 49.02715 | 11.23948 | 116° | 7km/h | 835m | -2.9m/s | 17.8°C | 53.3% | 930.2hPa | 2.7V | 00:00:00 | 03:28:39 | 00:00:00 | |
| DO3MHA-12 | 2026-09-01 13:58:11 | 49.02715 | 11.23948 | 116° | 7km/h | 835m | -2.9m/s | 17.8°C | 53.3% | 930.2hPa | 2.7V | 00:00:00 | 03:28:39 | 00:00:00 | |
| DB0NH | 2026-09-01 13:58:10 | 49.02716 | 11.23945 | 120° | 9km/h | 838m | -2.9m/s | 17.8°C | 53.3% | 929.8hPa | 2.7V | 00:00:00 | 03:28:38 | 00:00:00 | |
| NBG1-10 | 2026-09-01 13:58:10 | 49.02716 | 11.23945 | 120° | 7km/h | 838m | -2.9m/s | 17.8°C | 53.3% | 929.8hPa | 2.7V | 00:00:00 | 03:28:38 | 00:00:00 | |
| DO3MHA-12 | 2026-09-01 13:58:09 | 49.02717 | 11.23942 | 120° | 9km/h | 841m | -2.6m/s | 17.8°C | 53.4% | 929.6hPa | 2.7V | 00:00:00 | 03:28:37 | 00:00:00 | |
| DO3MHA-11 | 2026-09-01 13:58:09 | 49.02717 | 11.23942 | 120° | 9km/h | 841m | -2.6m/s | 17.8°C | 53.4% | 929.6hPa | 2.7V | 00:00:00 | 03:28:37 | 00:00:00 | |
| NBG1-10 | 2026-09-01 13:58:08 | 49.02718 | 11.23940 | 131° | 9km/h | 844m | -2.6m/s | 17.7°C | 53.4% | 929.4hPa | 2.7V | 00:00:00 | 03:28:36 | 00:00:00 | |
| DO3MHA-12 | 2026-09-01 13:58:07 | 49.02720 | 11.23937 | 137° | 11km/h | 846m | -2.7m/s | 17.7°C | 53.6% | 929.0hPa | 2.7V | 00:00:00 | 03:28:35 | 00:00:00 | |
| DO3MHA-11 | 2026-09-01 13:58:07 | 49.02720 | 11.23937 | 137° | 11km/h | 846m | -2.7m/s | 17.7°C | 53.6% | 929.0hPa | 2.7V | 00:00:00 | 03:28:35 | 00:00:00 | |
| NBG1-10 | 2026-09-01 13:58:06 | 49.02722 | 11.23934 | 142° | 11km/h | 849m | -2.2m/s | 17.7°C | 53.6% | 928.8hPa | 2.7V | 00:00:00 | 03:28:34 | 00:00:00 | |
| DB0NH | 2026-09-01 13:58:05 | 49.02724 | 11.23932 | 141° | 11km/h | 851m | -2.4m/s | 17.6°C | 53.7% | 928.4hPa | 2.7V | 06:57:00 | 03:28:33 | 00:00:00 | |
| DO3MHA-11 | 2026-09-01 13:58:05 | 49.02724 | 11.23932 | 141° | 11km/h | 851m | -2.4m/s | 17.6°C | 53.7% | 928.4hPa | 2.7V | 06:57:00 | 03:28:33 | 00:00:00 | |
| DO3MHA-12 | 2026-09-01 13:58:05 | 49.02724 | 11.23932 | 141° | 11km/h | 851m | -2.4m/s | 17.6°C | 53.7% | 928.4hPa | 2.7V | 00:00:00 | 03:28:33 | 00:00:00 | |
| NBG1-10 | 2026-09-01 13:58:04 | 49.02726 | 11.23929 | 143° | 11km/h | 854m | -2.6m/s | 17.6°C | 53.8% | 928.2hPa | 2.7V | 00:00:00 | 03:28:32 | 00:00:00 | |
| DO3MHA-11 | 2026-09-01 13:58:03 | 49.02728 | 11.23926 | 130° | 11km/h | 856m | -2.5m/s | 17.6°C | 53.9% | 927.7hPa | 2.7V | 00:00:00 | 03:28:31 | 00:00:00 | |
| DO3MHA-12 | 2026-09-01 13:58:03 | 49.02728 | 11.23926 | 130° | 11km/h | 856m | -2.5m/s | 17.6°C | 53.9% | 927.7hPa | 2.7V | 00:00:00 | 03:28:31 | 00:00:00 | |
| NBG1-10 | 2026-09-01 13:58:02 | 49.02730 | 11.23924 | 151° | 11km/h | 859m | -2.4m/s | 17.6°C | 53.9% | 927.6hPa | 2.7V | 00:00:00 | 03:28:30 | 00:00:00 | |
| NBG1-10 | 2026-09-01 13:58:00 | 49.02734 | 11.23919 | 150° | 11km/h | 864m | -2.5m/s | 17.5°C | 54.0% | 927.0hPa | 2.7V | 00:00:00 | 03:28:28 | 00:00:00 | |
| DB0NH | 2026-09-01 13:58:00 | 49.02734 | 11.23919 | 150° | 13km/h | 864m | -2.5m/s | 17.5°C | 54.0% | 927.0hPa | 2.7V | 00:00:00 | 03:28:28 | 00:00:00 | |
| DO3MHA-12 | 2026-09-01 13:57:59 | 49.02737 | 11.23916 | 136° | 13km/h | 867m | -2.2m/s | 17.5°C | 54.1% | 926.8hPa | 2.7V | 00:00:00 | 03:28:27 | 00:00:00 | |
| DO3MHA-11 | 2026-09-01 13:57:59 | 49.02737 | 11.23916 | 136° | 13km/h | 867m | -2.2m/s | 17.5°C | 54.1% | 926.8hPa | 2.7V | 00:00:00 | 03:28:27 | 00:00:00 | |
| NBG1-10 | 2026-09-01 13:57:58 | 49.02739 | 11.23913 | 139° | 15km/h | 869m | -2.1m/s | 17.5°C | 54.2% | 926.4hPa | 2.7V | 06:57:00 | 03:28:26 | 00:00:00 | |
| DO3MHA-11 | 2026-09-01 13:57:57 | 49.02742 | 11.23909 | 142° | 16km/h | 871m | -2.1m/s | 17.4°C | 54.1% | 926.3hPa | 2.7V | 00:00:00 | 03:28:25 | 00:00:00 | |
| DO3MHA-12 | 2026-09-01 13:57:57 | 49.02742 | 11.23909 | 142° | 16km/h | 871m | -2.1m/s | 17.4°C | 54.1% | 926.3hPa | 2.7V | 00:00:00 | 03:28:25 | 00:00:00 | |
| NBG1-10 | 2026-09-01 13:57:56 | 49.02745 | 11.23905 | 141° | 15km/h | 873m | -2.0m/s | 17.4°C | 54.2% | 926.0hPa | 2.7V | 00:00:00 | 03:28:24 | 00:00:00 | |
| DB0NH | 2026-09-01 13:57:55 | 49.02748 | 11.23901 | 142° | 13km/h | 875m | -2.1m/s | 17.4°C | 54.3% | 925.5hPa | 2.7V | 00:00:00 | 03:28:23 | 00:00:00 | |
| DO3MHA-11 | 2026-09-01 13:57:55 | 49.02748 | 11.23901 | 142° | 15km/h | 875m | -2.1m/s | 17.4°C | 54.3% | 925.5hPa | 2.7V | 00:00:00 | 03:28:23 | 00:00:00 | |
| DO3MHA-12 | 2026-09-01 13:57:55 | 49.02748 | 11.23901 | 142° | 15km/h | 875m | -2.1m/s | 17.4°C | 54.3% | 925.5hPa | 2.7V | 00:00:00 | 03:28:23 | 00:00:00 | |
| NBG1-10 | 2026-09-01 13:57:54 | 49.02751 | 11.23899 | 152° | 13km/h | 877m | -2.6m/s | 17.4°C | 54.4% | 925.6hPa | 2.7V | 00:00:00 | 03:28:22 | 00:00:00 | |
| DO3MHA-11 | 2026-09-01 13:57:53 | 49.02754 | 11.23896 | 138° | 13km/h | 880m | -2.0m/s | 17.4°C | 54.3% | 925.0hPa | 2.7V | 00:00:00 | 03:28:21 | 00:00:00 | |
| DO3MHA-12 | 2026-09-01 13:57:53 | 49.02754 | 11.23896 | 138° | 13km/h | 880m | -2.0m/s | 17.4°C | 54.3% | 925.0hPa | 2.7V | 00:00:00 | 03:28:21 | 00:00:00 | |
| NBG1-10 | 2026-09-01 13:57:52 | 49.02756 | 11.23892 | 129° | 11km/h | 882m | -2.2m/s | 17.4°C | 54.4% | 925.0hPa | 2.7V | 00:00:00 | 03:28:20 | 00:00:00 | |
| DO3MHA-12 | 2026-09-01 13:57:51 | 49.02758 | 11.23889 | 124° | 11km/h | 884m | -2.4m/s | 17.3°C | 54.4% | 924.8hPa | 2.7V | 00:00:00 | 03:28:19 | 00:00:00 | |
| DO3MHA-11 | 2026-09-01 13:57:51 | 49.02758 | 11.23889 | 124° | 11km/h | 884m | -2.4m/s | 17.3°C | 54.4% | 924.8hPa | 2.7V | 06:57:00 | 03:28:19 | 00:00:00 | |
| NBG1-10 | 2026-09-01 13:57:50 | 49.02759 | 11.23885 | 112° | 13km/h | 886m | -2.1m/s | 17.3°C | 54.6% | 924.6hPa | 2.7V | 00:00:00 | 03:28:18 | 00:00:00 | |
| DB0NH | 2026-09-01 13:57:50 | 49.02759 | 11.23885 | 112° | 16km/h | 886m | -2.1m/s | 17.3°C | 54.6% | 924.6hPa | 2.7V | 00:00:00 | 03:28:18 | 00:00:00 | |
| DO3MHA-11 | 2026-09-01 13:57:49 | 49.02760 | 11.23881 | 107° | 15km/h | 888m | -2.4m/s | 17.3°C | 54.5% | 924.2hPa | 2.7V | 00:00:00 | 03:28:17 | 00:00:00 | |
| DO3MHA-12 | 2026-09-01 13:57:49 | 49.02760 | 11.23881 | 107° | 15km/h | 888m | -2.4m/s | 17.3°C | 54.5% | 924.2hPa | 2.7V | 00:00:00 | 03:28:17 | 00:00:00 | |
| NBG1-10 | 2026-09-01 13:57:48 | 49.02761 | 11.23875 | 108° | 16km/h | 891m | -2.4m/s | 17.3°C | 54.6% | 923.9hPa | 2.7V | 00:00:00 | 03:28:16 | 00:00:00 | |
| DO3MHA-11 | 2026-09-01 13:57:47 | 49.02762 | 11.23869 | 110° | 20km/h | 893m | -1.6m/s | 17.3°C | 54.7% | 923.8hPa | 2.7V | 00:00:00 | 03:28:15 | 00:00:00 | |
| DO3MHA-12 | 2026-09-01 13:57:47 | 49.02762 | 11.23869 | 110° | 20km/h | 893m | -1.6m/s | 17.3°C | 54.7% | 923.8hPa | 2.7V | 06:57:00 | 03:28:15 | 00:00:00 | |
| NBG1-10 | 2026-09-01 13:57:46 | 49.02764 | 11.23862 | 119° | 20km/h | 895m | -1.9m/s | 17.2°C | 54.8% | 923.7hPa | 2.7V | 00:00:00 | 03:28:14 | 00:00:00 | |
| DB0NH | 2026-09-01 13:57:45 | 49.02767 | 11.23856 | 124° | 18km/h | 896m | -2.2m/s | 17.2°C | 54.9% | 923.4hPa | 2.7V | 00:00:00 | 03:28:13 | 00:00:00 | |
| DO3MHA-11 | 2026-09-01 13:57:45 | 49.02767 | 11.23856 | 124° | 20km/h | 896m | -2.2m/s | 17.2°C | 54.9% | 923.4hPa | 2.7V | 00:00:00 | 03:28:13 | 00:00:00 | |
| DO3MHA-12 | 2026-09-01 13:57:45 | 49.02767 | 11.23856 | 124° | 20km/h | 896m | -2.2m/s | 17.2°C | 54.9% | 923.4hPa | 2.7V | 00:00:00 | 03:28:13 | 00:00:00 | |
| NBG1-10 | 2026-09-01 13:57:44 | 49.02770 | 11.23850 | 135° | 15km/h | 899m | -2.3m/s | 17.2°C | 54.9% | 923.1hPa | 2.7V | 06:57:00 | 03:28:12 | 00:00:00 | |
| DO3MHA-11 | 2026-09-01 13:57:43 | 49.02774 | 11.23844 | 137° | 18km/h | 901m | -2.4m/s | 17.2°C | 55.0% | 922.8hPa | 2.7V | 00:00:00 | 03:28:11 | 00:00:00 | |
| DO3MHA-12 | 2026-09-01 13:57:43 | 49.02774 | 11.23844 | 137° | 18km/h | 901m | -2.4m/s | 17.2°C | 55.0% | 922.8hPa | 2.7V | 00:00:00 | 03:28:11 | 00:00:00 | |
| DO3MHA-12 | 2026-09-01 13:57:41 | 49.02780 | 11.23837 | 139° | 13km/h | 905m | -1.8m/s | 17.1°C | 55.1% | 922.4hPa | 2.7V | 00:00:00 | 03:28:09 | 00:00:00 | |
| DO3MHA-11 | 2026-09-01 13:57:41 | 49.02780 | 11.23837 | 139° | 13km/h | 905m | -1.8m/s | 17.1°C | 55.1% | 922.4hPa | 2.7V | 00:00:00 | 03:28:09 | 00:00:00 | |
| DB0NH | 2026-09-01 13:57:40 | 49.02782 | 11.23833 | 126° | 15km/h | 907m | -2.0m/s | 17.1°C | 55.1% | 922.2hPa | 2.7V | 00:00:00 | 03:28:08 | 00:00:00 | |
| DO3MHA-12 | 2026-09-01 13:57:39 | 49.02783 | 11.23829 | 111° | 13km/h | 909m | -1.9m/s | 17.1°C | 55.2% | 922.1hPa | 2.7V | 00:00:00 | 03:28:07 | 00:00:00 | |
| DO3MHA-11 | 2026-09-01 13:57:39 | 49.02783 | 11.23829 | 111° | 13km/h | 909m | -1.9m/s | 17.1°C | 55.2% | 922.1hPa | 2.7V | 00:00:00 | 03:28:07 | 00:00:00 | |
| NBG1-10 | 2026-09-01 13:57:38 | 49.02784 | 11.23825 | 103° | 16km/h | 911m | -2.1m/s | 17.1°C | 55.4% | 921.8hPa | 2.7V | 00:00:00 | 03:28:06 | 00:00:00 | |
| DO3MHA-12 | 2026-09-01 13:57:37 | 49.02785 | 11.23819 | 102° | 16km/h | 913m | -1.9m/s | 17.0°C | 55.4% | 921.8hPa | 2.7V | 00:00:00 | 03:28:05 | 00:00:00 | |
| DO3MHA-11 | 2026-09-01 13:57:37 | 49.02785 | 11.23819 | 102° | 16km/h | 913m | -1.9m/s | 17.0°C | 55.4% | 921.8hPa | 2.7V | 06:57:00 | 03:28:05 | 00:00:00 | |
| DB0NH | 2026-09-01 13:57:35 | 49.02787 | 11.23806 | 109° | 18km/h | 917m | -2.3m/s | 17.0°C | 55.5% | 921.0hPa | 2.7V | 00:00:00 | 03:28:03 | 00:00:00 | |
| DO3MHA-12 | 2026-09-01 13:57:35 | 49.02787 | 11.23806 | 109° | 18km/h | 917m | -2.3m/s | 17.0°C | 55.5% | 921.0hPa | 2.7V | 00:00:00 | 03:28:03 | 00:00:00 | |
| DO3MHA-11 | 2026-09-01 13:57:35 | 49.02787 | 11.23806 | 109° | 18km/h | 917m | -2.3m/s | 17.0°C | 55.5% | 921.0hPa | 2.7V | 00:00:00 | 03:28:03 | 00:00:00 | |
| DO3MHA-11 | 2026-09-01 13:57:33 | 49.02792 | 11.23793 | 125° | 18km/h | 921m | -2.0m/s | 17.0°C | 55.7% | 920.6hPa | 2.7V | 00:00:00 | 03:28:01 | 00:00:00 | |
| DO3MHA-12 | 2026-09-01 13:57:33 | 49.02792 | 11.23793 | 125° | 18km/h | 921m | -2.0m/s | 17.0°C | 55.7% | 920.6hPa | 2.7V | 06:57:00 | 03:28:01 | 00:00:00 | |
| DO3MHA-11 | 2026-09-01 13:57:31 | 49.02797 | 11.23784 | 138° | 13km/h | 925m | -1.9m/s | 16.9°C | 55.8% | 920.2hPa | 2.7V | 00:00:00 | 03:27:59 | 00:00:00 | |
| NBG1-10 | 2026-09-01 13:57:31 | 49.02797 | 11.23784 | 138° | 15km/h | 925m | -1.9m/s | 16.9°C | 55.8% | 920.2hPa | 2.7V | 00:00:00 | 03:27:59 | 00:00:00 | |
| DO3MHA-12 | 2026-09-01 13:57:31 | 49.02797 | 11.23784 | 138° | 13km/h | 925m | -1.9m/s | 16.9°C | 55.8% | 920.2hPa | 2.7V | 00:00:00 | 03:27:59 | 00:00:00 | |
| DB0NH | 2026-09-01 13:57:30 | 49.02800 | 11.23780 | 138° | 13km/h | 927m | -2.0m/s | 16.9°C | 55.8% | 920.1hPa | 2.7V | 06:58:00 | 03:27:58 | 00:00:00 | |
| DO3MHA-12 | 2026-09-01 13:57:29 | 49.02802 | 11.23777 | 130° | 11km/h | 929m | -1.8m/s | 16.9°C | 56.0% | 919.7hPa | 2.7V | 00:00:00 | 03:27:57 | 00:00:00 | |
| DO3MHA-11 | 2026-09-01 13:57:29 | 49.02802 | 11.23777 | 130° | 11km/h | 929m | -1.8m/s | 16.9°C | 56.0% | 919.7hPa | 2.7V | 00:00:00 | 03:27:57 | 00:00:00 | |
| DO3MHA-12 | 2026-09-01 13:57:27 | 49.02805 | 11.23768 | 113° | 15km/h | 933m | -1.7m/s | 16.9°C | 55.9% | 919.6hPa | 2.7V | 00:00:00 | 03:27:55 | 00:00:00 | |
| DO3MHA-11 | 2026-09-01 13:57:27 | 49.02805 | 11.23768 | 113° | 15km/h | 933m | -1.7m/s | 16.9°C | 55.9% | 919.6hPa | 2.7V | 00:00:00 | 03:27:55 | 00:00:00 | |
| DB0NH | 2026-09-01 13:57:25 | 49.02808 | 11.23758 | 122° | 16km/h | 936m | -1.7m/s | 16.8°C | 55.9% | 919.0hPa | 2.7V | 00:00:00 | 03:27:53 | 00:00:00 | |
| DO3MHA-11 | 2026-09-01 13:57:25 | 49.02808 | 11.23758 | 122° | 18km/h | 936m | -1.7m/s | 16.8°C | 55.9% | 919.0hPa | 2.7V | 00:00:00 | 03:27:53 | 00:00:00 | |
| DO3MHA-12 | 2026-09-01 13:57:25 | 49.02808 | 11.23758 | 122° | 18km/h | 936m | -1.7m/s | 16.8°C | 55.9% | 919.0hPa | 2.7V | 00:00:00 | 03:27:53 | 00:00:00 | |
| NBG1-10 | 2026-09-01 13:57:24 | 49.02811 | 11.23752 | 132° | 15km/h | 938m | -1.7m/s | 16.8°C | 55.9% | 918.8hPa | 2.7V | 00:00:00 | 03:27:52 | 00:00:00 | |
| DO3MHA-11 | 2026-09-01 13:57:23 | 49.02814 | 11.23747 | 139° | 18km/h | 940m | -1.7m/s | 16.8°C | 56.1% | 918.8hPa | 2.7V | 06:58:00 | 03:27:51 | 00:00:00 | |
| DO3MHA-12 | 2026-09-01 13:57:23 | 49.02814 | 11.23747 | 139° | 18km/h | 940m | -1.7m/s | 16.8°C | 56.1% | 918.8hPa | 2.7V | 00:00:00 | 03:27:51 | 00:00:00 | |
| DO3MHA-12 | 2026-09-01 13:57:21 | 49.02821 | 11.23738 | 142° | 13km/h | 944m | -1.9m/s | 16.8°C | 56.4% | 918.3hPa | 2.7V | 00:00:00 | 03:27:49 | 00:00:00 | |
| DO3MHA-11 | 2026-09-01 13:57:21 | 49.02821 | 11.23738 | 142° | 13km/h | 944m | -1.9m/s | 16.8°C | 56.4% | 918.3hPa | 2.7V | 00:00:00 | 03:27:49 | 00:00:00 | |
| DB0NH | 2026-09-01 13:57:20 | 49.02823 | 11.23735 | 136° | 15km/h | 945m | -1.8m/s | 16.7°C | 56.5% | 918.2hPa | 2.7V | 00:00:00 | 03:27:48 | 00:00:00 | |
| DO3MHA-12 | 2026-09-01 13:57:19 | 49.02825 | 11.23731 | 123° | 13km/h | 947m | -1.9m/s | 16.7°C | 56.6% | 917.8hPa | 2.7V | 06:58:00 | 03:27:47 | 00:00:00 | |
| DO3MHA-11 | 2026-09-01 13:57:19 | 49.02825 | 11.23731 | 123° | 13km/h | 947m | -1.9m/s | 16.7°C | 56.6% | 917.8hPa | 2.7V | 00:00:00 | 03:27:47 | 00:00:00 | |
| DB0NH | 2026-09-01 13:57:15 | 49.02832 | 11.23708 | 118° | 20km/h | 954m | -1.7m/s | 16.6°C | 56.9% | 917.2hPa | 2.7V | 00:00:00 | 03:27:43 | 00:00:00 | |
| DO3MHA-11 | 2026-09-01 13:57:15 | 49.02832 | 11.23708 | 118° | 22km/h | 954m | -1.7m/s | 16.6°C | 56.9% | 917.2hPa | 2.7V | 00:00:00 | 03:27:43 | 00:00:00 | |
| DO3MHA-12 | 2026-09-01 13:57:15 | 49.02832 | 11.23708 | 118° | 22km/h | 954m | -1.7m/s | 16.6°C | 56.9% | 917.2hPa | 2.7V | 00:00:00 | 03:27:43 | 00:00:00 | |
| DO3MHA-12 | 2026-09-01 13:57:13 | 49.02838 | 11.23694 | 129° | 20km/h | 958m | -1.9m/s | 16.6°C | 57.0% | 916.5hPa | 2.7V | 00:00:00 | 03:27:41 | 00:00:00 | |
| DO3MHA-11 | 2026-09-01 13:57:13 | 49.02838 | 11.23694 | 129° | 20km/h | 958m | -1.9m/s | 16.6°C | 57.0% | 916.5hPa | 2.7V | 00:00:00 | 03:27:41 | 00:00:00 | |
| DO3MHA-12 | 2026-09-01 13:57:11 | 49.02844 | 11.23683 | 132° | 15km/h | 962m | -2.1m/s | 16.6°C | 57.0% | 916.4hPa | 2.7V | 00:00:00 | 03:27:39 | 00:00:00 | |
| DO3MHA-11 | 2026-09-01 13:57:11 | 49.02844 | 11.23683 | 132° | 15km/h | 962m | -2.1m/s | 16.6°C | 57.0% | 916.4hPa | 2.7V | 00:00:00 | 03:27:39 | 00:00:00 | |
| DB0NH | 2026-09-01 13:57:10 | 49.02847 | 11.23678 | 125° | 15km/h | 964m | -1.7m/s | 16.6°C | 57.1% | 916.1hPa | 2.7V | 00:00:00 | 03:27:38 | 00:00:00 | |
| NBG1-10 | 2026-09-01 13:57:10 | 49.02847 | 11.23678 | 125° | 15km/h | 964m | -1.7m/s | 16.6°C | 57.1% | 916.1hPa | 2.7V | 00:00:00 | 03:27:38 | 00:00:00 | |
| DO3MHA-11 | 2026-09-01 13:57:09 | 49.02848 | 11.23674 | 116° | 13km/h | 966m | -2.0m/s | 16.5°C | 57.0% | 915.8hPa | 2.7V | 06:58:00 | 03:27:37 | 00:00:00 | |
| DO3MHA-12 | 2026-09-01 13:57:09 | 49.02848 | 11.23674 | 116° | 13km/h | 966m | -2.0m/s | 16.5°C | 57.0% | 915.8hPa | 2.7V | 00:00:00 | 03:27:37 | 00:00:00 | |
| DO3MHA-11 | 2026-09-01 13:57:07 | 49.02850 | 11.23664 | 101° | 15km/h | 971m | -2.4m/s | 16.5°C | 57.2% | 915.2hPa | 2.7V | 00:00:00 | 03:27:35 | 00:00:00 | |
| DO3MHA-12 | 2026-09-01 13:57:07 | 49.02850 | 11.23664 | 101° | 15km/h | 971m | -2.4m/s | 16.5°C | 57.2% | 915.2hPa | 2.7V | 00:00:00 | 03:27:35 | 00:00:00 | |
| DB0NH | 2026-09-01 13:57:05 | 49.02852 | 11.23652 | 109° | 16km/h | 976m | -2.5m/s | 16.5°C | 57.0% | 914.7hPa | 2.7V | 00:00:00 | 03:27:33 | 00:00:00 | |
| DO3MHA-12 | 2026-09-01 13:57:05 | 49.02852 | 11.23652 | 109° | 18km/h | 976m | -2.5m/s | 16.5°C | 57.0% | 914.7hPa | 2.7V | 06:58:00 | 03:27:33 | 00:00:00 | |
| DO3MHA-11 | 2026-09-01 13:57:05 | 49.02852 | 11.23652 | 109° | 18km/h | 976m | -2.5m/s | 16.5°C | 57.0% | 914.7hPa | 2.7V | 00:00:00 | 03:27:33 | 00:00:00 | |
| NBG1-10 | 2026-09-01 13:57:03 | 49.02856 | 11.23640 | 122° | 15km/h | 981m | -2.4m/s | 16.4°C | 57.1% | 914.3hPa | 2.7V | 00:00:00 | 03:27:31 | 00:00:00 | |
| DO3MHA-11 | 2026-09-01 13:57:03 | 49.02856 | 11.23640 | 122° | 16km/h | 981m | -2.4m/s | 16.4°C | 57.1% | 914.3hPa | 2.7V | 00:00:00 | 03:27:31 | 00:00:00 | |
| DO3MHA-12 | 2026-09-01 13:57:03 | 49.02856 | 11.23640 | 122° | 16km/h | 981m | -2.4m/s | 16.4°C | 57.1% | 914.3hPa | 2.7V | 00:00:00 | 03:27:31 | 00:00:00 | |
| DO3MHA-11 | 2026-09-01 13:57:01 | 49.02860 | 11.23630 | 123° | 13km/h | 985m | -2.0m/s | 16.4°C | 57.3% | 913.8hPa | 2.7V | 00:00:00 | 03:27:29 | 00:00:00 | |
| DO3MHA-12 | 2026-09-01 13:57:01 | 49.02860 | 11.23630 | 123° | 13km/h | 985m | -2.0m/s | 16.4°C | 57.3% | 913.8hPa | 2.7V | 00:00:00 | 03:27:29 | 00:00:00 | |
| DB0NH | 2026-09-01 13:57:00 | 49.02862 | 11.23626 | 115° | 15km/h | 987m | -2.1m/s | 16.4°C | 57.3% | 913.4hPa | 2.7V | 00:00:00 | 03:27:28 | 00:00:00 | |
| DO3MHA-11 | 2026-09-01 13:56:59 | 49.02863 | 11.23622 | 108° | 13km/h | 990m | -2.4m/s | 16.3°C | 57.5% | 913.2hPa | 2.7V | 00:00:00 | 03:27:27 | 00:00:00 | |
| DO3MHA-12 | 2026-09-01 13:56:59 | 49.02863 | 11.23622 | 108° | 13km/h | 990m | -2.4m/s | 16.3°C | 57.5% | 913.2hPa | 2.7V | 00:00:00 | 03:27:27 | 00:00:00 | |
| DO3MHA-12 | 2026-09-01 13:56:57 | 49.02865 | 11.23611 | 110° | 16km/h | 994m | -2.3m/s | 16.3°C | 57.6% | 912.9hPa | 2.7V | 00:00:00 | 03:27:25 | 00:00:00 | |
| DO3MHA-11 | 2026-09-01 13:56:57 | 49.02865 | 11.23611 | 110° | 16km/h | 994m | -2.3m/s | 16.3°C | 57.6% | 912.9hPa | 2.7V | 00:00:00 | 03:27:25 | 00:00:00 | |
| NBG1-10 | 2026-09-01 13:56:56 | 49.02867 | 11.23605 | 114° | 16km/h | 996m | -1.9m/s | 16.3°C | 57.7% | 912.7hPa | 2.7V | 06:58:00 | 03:27:24 | 00:00:00 | |
| DO3MHA-12 | 2026-09-01 13:56:55 | 49.02869 | 11.23599 | 122° | 18km/h | 998m | -2.1m/s | 16.2°C | 57.9% | 912.6hPa | 2.7V | 00:00:00 | 03:27:23 | 00:00:00 | |
| DB0NH | 2026-09-01 13:56:55 | 49.02869 | 11.23599 | 122° | 15km/h | 998m | -2.1m/s | 16.2°C | 57.9% | 912.6hPa | 2.7V | 06:58:00 | 03:27:23 | 00:00:00 | |
| DO3MHA-11 | 2026-09-01 13:56:55 | 49.02869 | 11.23599 | 122° | 18km/h | 998m | -2.1m/s | 16.2°C | 57.9% | 912.6hPa | 2.7V | 06:58:00 | 03:27:23 | 00:00:00 | |
| DO3MHA-11 | 2026-09-01 13:56:51 | 49.02880 | 11.23580 | 133° | 13km/h | 1007m | -2.1m/s | 16.1°C | 58.0% | 911.5hPa | 2.7V | 00:00:00 | 03:27:19 | 00:00:00 | |
| DO3MHA-12 | 2026-09-01 13:56:51 | 49.02880 | 11.23580 | 133° | 13km/h | 1007m | -2.1m/s | 16.1°C | 58.0% | 911.5hPa | 2.7V | 06:58:00 | 03:27:19 | 00:00:00 | |
| DO3MHA-12 | 2026-09-01 13:56:47 | 49.02885 | 11.23560 | 107° | 18km/h | 1015m | -2.1m/s | 16.1°C | 58.2% | 910.7hPa | 2.7V | 00:00:00 | 03:27:15 | 00:00:00 | |
| DB0NH | 2026-09-01 13:56:47 | 49.02885 | 11.23560 | 107° | 16km/h | 1015m | -2.1m/s | 16.1°C | 58.2% | 910.7hPa | 2.7V | 00:00:00 | 03:27:15 | 00:00:00 | |
| DO3MHA-11 | 2026-09-01 13:56:47 | 49.02885 | 11.23560 | 107° | 18km/h | 1015m | -2.1m/s | 16.1°C | 58.2% | 910.7hPa | 2.7V | 00:00:00 | 03:27:15 | 00:00:00 | |
| DO3MHA-11 | 2026-09-01 13:56:45 | 49.02888 | 11.23546 | 118° | 18km/h | 1019m | -1.9m/s | 16.0°C | 58.4% | 910.4hPa | 2.7V | 00:00:00 | 03:27:13 | 00:00:00 | |
| DO3MHA-12 | 2026-09-01 13:56:45 | 49.02888 | 11.23546 | 118° | 18km/h | 1019m | -1.9m/s | 16.0°C | 58.4% | 910.4hPa | 2.7V | 00:00:00 | 03:27:13 | 00:00:00 | |
| DO3MHA-11 | 2026-09-01 13:56:43 | 49.02893 | 11.23534 | 127° | 16km/h | 1023m | -1.9m/s | 16.0°C | 58.8% | 909.8hPa | 2.7V | 00:00:00 | 03:27:11 | 00:00:00 | |
| DO3MHA-12 | 2026-09-01 13:56:43 | 49.02893 | 11.23534 | 127° | 16km/h | 1023m | -1.9m/s | 16.0°C | 58.8% | 909.8hPa | 2.7V | 00:00:00 | 03:27:11 | 00:00:00 | |
| NBG1-10 | 2026-09-01 13:56:42 | 49.02896 | 11.23529 | 127° | 18km/h | 1025m | -1.6m/s | 16.0°C | 58.7% | 909.7hPa | 2.7V | 00:00:00 | 03:27:10 | 00:00:00 | |
| DO3MHA-12 | 2026-09-01 13:56:41 | 49.02898 | 11.23525 | 119° | 15km/h | 1027m | -1.9m/s | 16.0°C | 58.8% | 909.4hPa | 2.7V | 00:00:00 | 03:27:09 | 00:00:00 | |
| DO3MHA-11 | 2026-09-01 13:56:41 | 49.02898 | 11.23525 | 119° | 15km/h | 1027m | -1.9m/s | 16.0°C | 58.8% | 909.4hPa | 2.7V | 06:58:00 | 03:27:09 | 00:00:00 | |
| DO3MHA-11 | 2026-09-01 13:56:39 | 49.02901 | 11.23514 | 105° | 18km/h | 1031m | -2.0m/s | 15.9°C | 58.8% | 909.0hPa | 2.7V | 00:00:00 | 03:27:07 | 00:00:00 | |
| DO3MHA-12 | 2026-09-01 13:56:39 | 49.02901 | 11.23514 | 105° | 18km/h | 1031m | -2.0m/s | 15.9°C | 58.8% | 909.0hPa | 2.7V | 00:00:00 | 03:27:07 | 00:00:00 | |
| DB0NH | 2026-09-01 13:56:37 | 49.02903 | 11.23500 | 112° | 16km/h | 1035m | -2.4m/s | 15.9°C | 59.1% | 908.4hPa | 2.7V | 00:00:00 | 03:27:05 | 00:00:00 | |
| DO3MHA-11 | 2026-09-01 13:56:37 | 49.02903 | 11.23500 | 112° | 20km/h | 1035m | -2.4m/s | 15.9°C | 59.1% | 908.4hPa | 2.7V | 00:00:00 | 03:27:05 | 00:00:00 | |
| DO3MHA-12 | 2026-09-01 13:56:37 | 49.02903 | 11.23500 | 112° | 20km/h | 1035m | -2.4m/s | 15.9°C | 59.1% | 908.4hPa | 2.7V | 06:58:00 | 03:27:05 | 00:00:00 | |
| DO3MHA-11 | 2026-09-01 13:56:35 | 49.02908 | 11.23486 | 127° | 20km/h | 1040m | -2.3m/s | 15.9°C | 58.7% | 908.0hPa | 2.7V | 00:00:00 | 03:27:03 | 00:00:00 | |
| NBG1-10 | 2026-09-01 13:56:35 | 49.02908 | 11.23486 | 127° | 15km/h | 1040m | -2.3m/s | 15.9°C | 58.7% | 908.0hPa | 2.7V | 00:00:00 | 03:27:03 | 00:00:00 | |
| DO3MHA-12 | 2026-09-01 13:56:35 | 49.02908 | 11.23486 | 127° | 20km/h | 1040m | -2.3m/s | 15.9°C | 58.7% | 908.0hPa | 2.7V | 00:00:00 | 03:27:03 | 00:00:00 | |
| DO3MHA-12 | 2026-09-01 13:56:33 | 49.02914 | 11.23475 | 137° | 15km/h | 1045m | -2.0m/s | 15.9°C | 59.3% | 907.5hPa | 2.7V | 00:00:00 | 03:27:01 | 00:00:00 | |
| DO3MHA-11 | 2026-09-01 13:56:33 | 49.02914 | 11.23475 | 137° | 15km/h | 1045m | -2.0m/s | 15.9°C | 59.3% | 907.5hPa | 2.7V | 00:00:00 | 03:27:01 | 00:00:00 | |
| DO3MHA-12 | 2026-09-01 13:56:31 | 49.02919 | 11.23468 | 129° | 11km/h | 1049m | -2.0m/s | 15.8°C | 59.5% | 907.1hPa | 2.7V | 00:00:00 | 03:26:59 | 00:00:00 | |
| DO3MHA-11 | 2026-09-01 13:56:31 | 49.02919 | 11.23468 | 129° | 11km/h | 1049m | -2.0m/s | 15.8°C | 59.5% | 907.1hPa | 2.7V | 00:00:00 | 03:26:59 | 00:00:00 | |
| DO3MHA-11 | 2026-09-01 13:56:29 | 49.02922 | 11.23460 | 104° | 15km/h | 1052m | -2.1m/s | 15.7°C | 59.9% | 906.7hPa | 2.7V | 00:00:00 | 03:26:57 | 00:00:00 | |
| DO3MHA-12 | 2026-09-01 13:56:29 | 49.02922 | 11.23460 | 104° | 15km/h | 1052m | -2.1m/s | 15.7°C | 59.9% | 906.7hPa | 2.7V | 00:00:00 | 03:26:57 | 00:00:00 | |
| DB0NH | 2026-09-01 13:56:27 | 49.02923 | 11.23448 | 103° | 16km/h | 1057m | -2.3m/s | 15.6°C | 60.2% | 906.2hPa | 2.7V | 00:00:00 | 03:26:55 | 00:00:00 | |
| DO3MHA-11 | 2026-09-01 13:56:27 | 49.02923 | 11.23448 | 103° | 20km/h | 1057m | -2.3m/s | 15.6°C | 60.2% | 906.2hPa | 2.7V | 06:59:00 | 03:26:55 | 00:00:00 | |
| DO3MHA-12 | 2026-09-01 13:56:27 | 49.02923 | 11.23448 | 103° | 20km/h | 1057m | -2.3m/s | 15.6°C | 60.2% | 906.2hPa | 2.7V | 00:00:00 | 03:26:55 | 00:00:00 | |
| DO3MHA-12 | 2026-09-01 13:56:25 | 49.02926 | 11.23434 | 110° | 20km/h | 1061m | -2.1m/s | 15.6°C | 60.3% | 905.8hPa | 2.7V | 00:00:00 | 03:26:53 | 00:00:00 | |
| DO3MHA-11 | 2026-09-01 13:56:25 | 49.02926 | 11.23434 | 110° | 20km/h | 1061m | -2.1m/s | 15.6°C | 60.3% | 905.8hPa | 2.7V | 00:00:00 | 03:26:53 | 00:00:00 | |
| DO3MHA-11 | 2026-09-01 13:56:23 | 49.02930 | 11.23419 | 111° | 16km/h | 1065m | -1.7m/s | 15.7°C | 59.9% | 905.5hPa | 2.7V | 00:00:00 | 03:26:51 | 00:00:00 | |
| DO3MHA-12 | 2026-09-01 13:56:23 | 49.02930 | 11.23419 | 111° | 16km/h | 1065m | -1.7m/s | 15.7°C | 59.9% | 905.5hPa | 2.7V | 06:59:00 | 03:26:51 | 00:00:00 | |
| NBG1-10 | 2026-09-01 13:56:21 | 49.02932 | 11.23408 | 100° | 16km/h | 1068m | -1.4m/s | 15.6°C | 60.1% | 904.9hPa | 2.7V | 00:00:00 | 03:26:49 | 00:00:00 | |
| DO3MHA-11 | 2026-09-01 13:56:21 | 49.02932 | 11.23408 | 100° | 13km/h | 1068m | -1.4m/s | 15.6°C | 60.1% | 904.9hPa | 2.7V | 00:00:00 | 03:26:49 | 00:00:00 | |
| DO3MHA-12 | 2026-09-01 13:56:21 | 49.02932 | 11.23408 | 100° | 13km/h | 1068m | -1.4m/s | 15.6°C | 60.1% | 904.9hPa | 2.7V | 00:00:00 | 03:26:49 | 00:00:00 | |
| DO3MHA-11 | 2026-09-01 13:56:19 | 49.02932 | 11.23398 | 87° | 15km/h | 1072m | -1.9m/s | 15.5°C | 60.4% | 904.4hPa | 2.7V | 00:00:00 | 03:26:47 | 00:00:00 | |
| DO3MHA-12 | 2026-09-01 13:56:19 | 49.02932 | 11.23398 | 87° | 15km/h | 1072m | -1.9m/s | 15.5°C | 60.4% | 904.4hPa | 2.7V | 00:00:00 | 03:26:47 | 00:00:00 | |
| DO3MHA-12 | 2026-09-01 13:56:17 | 49.02932 | 11.23386 | 87° | 18km/h | 1077m | -2.2m/s | 15.4°C | 60.6% | 904.2hPa | 2.7V | 00:00:00 | 03:26:45 | 00:00:00 | |
| DB0NH | 2026-09-01 13:56:17 | 49.02932 | 11.23386 | 87° | 20km/h | 1077m | -2.2m/s | 15.4°C | 60.6% | 904.2hPa | 2.7V | 00:00:00 | 03:26:45 | 00:00:00 | |
| DO3MHA-11 | 2026-09-01 13:56:17 | 49.02932 | 11.23386 | 87° | 18km/h | 1077m | -2.2m/s | 15.4°C | 60.6% | 904.2hPa | 2.7V | 00:00:00 | 03:26:45 | 00:00:00 | |
| DO3MHA-12 | 2026-09-01 13:56:15 | 49.02931 | 11.23372 | 90° | 20km/h | 1081m | -2.1m/s | 15.4°C | 60.7% | 903.6hPa | 2.7V | 00:00:00 | 03:26:43 | 00:00:00 | |
| DO3MHA-11 | 2026-09-01 13:56:15 | 49.02931 | 11.23372 | 90° | 20km/h | 1081m | -2.1m/s | 15.4°C | 60.7% | 903.6hPa | 2.7V | 00:00:00 | 03:26:43 | 00:00:00 | |
| NBG1-10 | 2026-09-01 13:56:14 | 49.02931 | 11.23364 | 91° | 22km/h | 1084m | -2.2m/s | 15.4°C | 60.8% | 903.4hPa | 2.7V | 00:00:00 | 03:26:42 | 00:00:00 | |
| DO3MHA-11 | 2026-09-01 13:56:13 | 49.02931 | 11.23357 | 92° | 20km/h | 1086m | -2.3m/s | 15.4°C | 60.7% | 903.2hPa | 2.7V | 06:59:00 | 03:26:41 | 00:00:00 | |
| DO3MHA-12 | 2026-09-01 13:56:13 | 49.02931 | 11.23357 | 92° | 20km/h | 1086m | -2.3m/s | 15.4°C | 60.7% | 903.2hPa | 2.7V | 00:00:00 | 03:26:41 | 00:00:00 | |
| DO3MHA-11 | 2026-09-01 13:56:11 | 49.02932 | 11.23340 | 95° | 22km/h | 1091m | -2.3m/s | 15.4°C | 60.9% | 902.6hPa | 2.7V | 00:00:00 | 03:26:39 | 00:00:00 | |
| DO3MHA-12 | 2026-09-01 13:56:11 | 49.02932 | 11.23340 | 95° | 22km/h | 1091m | -2.3m/s | 15.4°C | 60.9% | 902.6hPa | 2.7V | 00:00:00 | 03:26:39 | 00:00:00 | |
| DL6DJ-15 | 2026-09-01 13:56:11 | 49.02932 | 11.23332 | 92° | 22km/h | 1093m | -2.5m/s | 15.4°C | 61.2% | 902.4hPa | 2.7V | 00:00:00 | 00:00:00 | 00:00:00 | |
| DO3MHA-12 | 2026-09-01 13:56:09 | 49.02932 | 11.23323 | 94° | 24km/h | 1095m | -2.1m/s | 15.4°C | 60.8% | 902.1hPa | 2.7V | 06:59:00 | 03:26:37 | 00:00:00 | |
| DO3MHA-11 | 2026-09-01 13:56:09 | 49.02932 | 11.23323 | 94° | 24km/h | 1095m | -2.1m/s | 15.4°C | 60.8% | 902.1hPa | 2.7V | 00:00:00 | 03:26:37 | 00:00:00 | |
| DO3MHA-11 | 2026-09-01 13:56:05 | 49.02935 | 11.23285 | 99° | 27km/h | 1105m | -2.3m/s | 15.3°C | 61.2% | 901.2hPa | 2.7V | 00:00:00 | 03:26:33 | 00:00:00 | |
| DO3MHA-12 | 2026-09-01 13:56:05 | 49.02935 | 11.23285 | 99° | 27km/h | 1105m | -2.3m/s | 15.3°C | 61.2% | 901.2hPa | 2.7V | 00:00:00 | 03:26:33 | 00:00:00 | |
| DO3MHA-11 | 2026-09-01 13:56:03 | 49.02937 | 11.23264 | 98° | 27km/h | 1109m | -1.9m/s | 15.3°C | 61.7% | 900.7hPa | 2.7V | 00:00:00 | 03:26:31 | 00:00:00 | |
| DO3MHA-12 | 2026-09-01 13:56:03 | 49.02937 | 11.23264 | 98° | 27km/h | 1109m | -1.9m/s | 15.3°C | 61.7% | 900.7hPa | 2.7V | 00:00:00 | 03:26:31 | 00:00:00 | |
| DO3MHA-12 | 2026-09-01 13:56:01 | 49.02939 | 11.23244 | 98° | 27km/h | 1113m | -2.6m/s | 15.3°C | 61.9% | 900.3hPa | 2.7V | 00:00:00 | 03:26:29 | 00:00:00 | |
| DO3MHA-11 | 2026-09-01 13:56:01 | 49.02939 | 11.23244 | 98° | 27km/h | 1113m | -2.6m/s | 15.3°C | 61.9% | 900.3hPa | 2.7V | 00:00:00 | 03:26:29 | 00:00:00 | |
| NBG1-10 | 2026-09-01 13:56:00 | 49.02940 | 11.23233 | 97° | 27km/h | 1116m | -2.5m/s | 15.2°C | 62.1% | 900.0hPa | 2.7V | 00:00:00 | 03:26:28 | 00:00:00 | |
| DO3MHA-12 | 2026-09-01 13:55:59 | 49.02940 | 11.23222 | 97° | 29km/h | 1119m | -2.5m/s | 15.2°C | 62.1% | 899.7hPa | 2.7V | 00:00:00 | 03:26:27 | 00:00:00 | |
| DO3MHA-11 | 2026-09-01 13:55:59 | 49.02940 | 11.23222 | 97° | 29km/h | 1119m | -2.5m/s | 15.2°C | 62.1% | 899.7hPa | 2.7V | 06:59:00 | 03:26:27 | 00:00:00 | |
| DB0NH | 2026-09-01 13:55:57 | 49.02942 | 11.23201 | 101° | 24km/h | 1123m | -2.0m/s | 15.2°C | 62.2% | 899.2hPa | 2.7V | 00:00:00 | 03:26:25 | 00:00:00 | |
| DO3MHA-11 | 2026-09-01 13:55:57 | 49.02942 | 11.23201 | 101° | 29km/h | 1123m | -2.0m/s | 15.2°C | 62.2% | 899.2hPa | 2.7V | 00:00:00 | 03:26:25 | 00:00:00 | |
| DO3MHA-12 | 2026-09-01 13:55:57 | 49.02942 | 11.23201 | 101° | 29km/h | 1123m | -2.0m/s | 15.2°C | 62.2% | 899.2hPa | 2.7V | 00:00:00 | 03:26:25 | 00:00:00 | |
| DO3MHA-11 | 2026-09-01 13:55:55 | 49.02945 | 11.23179 | 105° | 27km/h | 1127m | -1.9m/s | 15.1°C | 62.4% | 899.0hPa | 2.7V | 00:00:00 | 03:26:23 | 00:00:00 | |
| DO3MHA-12 | 2026-09-01 13:55:55 | 49.02945 | 11.23179 | 105° | 27km/h | 1127m | -1.9m/s | 15.1°C | 62.4% | 899.0hPa | 2.7V | 06:59:00 | 03:26:23 | 00:00:00 | |
| DO3MHA-12 | 2026-09-01 13:55:53 | 49.02950 | 11.23160 | 114° | 26km/h | 1131m | -1.1m/s | 15.1°C | 62.5% | 898.6hPa | 2.7V | 00:00:00 | 03:26:21 | 00:00:00 | |
| NBG1-10 | 2026-09-01 13:55:53 | 49.02950 | 11.23160 | 114° | 20km/h | 1131m | -1.1m/s | 15.1°C | 62.5% | 898.6hPa | 2.7V | 00:00:00 | 03:26:21 | 00:00:00 | |
| DO3MHA-11 | 2026-09-01 13:55:53 | 49.02950 | 11.23160 | 114° | 26km/h | 1131m | -1.1m/s | 15.1°C | 62.5% | 898.6hPa | 2.7V | 00:00:00 | 03:26:21 | 00:00:00 | |
| DO3MHA-12 | 2026-09-01 13:55:51 | 49.02955 | 11.23143 | 119° | 22km/h | 1133m | -1.0m/s | 15.1°C | 62.5% | 898.4hPa | 2.7V | 00:00:00 | 03:26:19 | 00:00:00 | |
| DO3MHA-11 | 2026-09-01 13:55:51 | 49.02955 | 11.23143 | 119° | 22km/h | 1133m | -1.0m/s | 15.1°C | 62.5% | 898.4hPa | 2.7V | 00:00:00 | 03:26:19 | 00:00:00 | |
| DO3MHA-11 | 2026-09-01 13:55:49 | 49.02960 | 11.23129 | 121° | 18km/h | 1135m | -1.3m/s | 15.1°C | 62.4% | 898.0hPa | 2.7V | 00:00:00 | 03:26:17 | 00:00:00 | |
| DO3MHA-12 | 2026-09-01 13:55:49 | 49.02960 | 11.23129 | 121° | 18km/h | 1135m | -1.3m/s | 15.1°C | 62.4% | 898.0hPa | 2.7V | 00:00:00 | 03:26:17 | 00:00:00 | |
| DB0NH | 2026-09-01 13:55:47 | 49.02965 | 11.23117 | 118° | 18km/h | 1138m | -2.1m/s | 15.1°C | 62.4% | 897.9hPa | 2.7V | 06:59:00 | 03:26:15 | 00:00:00 | |
| DO3MHA-11 | 2026-09-01 13:55:47 | 49.02965 | 11.23117 | 118° | 16km/h | 1138m | -2.1m/s | 15.1°C | 62.4% | 897.9hPa | 2.7V | 00:00:00 | 03:26:15 | 00:00:00 | |
| DO3MHA-12 | 2026-09-01 13:55:47 | 49.02965 | 11.23117 | 118° | 16km/h | 1138m | -2.1m/s | 15.1°C | 62.4% | 897.9hPa | 2.7V | 00:00:00 | 03:26:15 | 00:00:00 | |
| NBG1-10 | 2026-09-01 13:55:46 | 49.02967 | 11.23112 | 122° | 16km/h | 1140m | -1.8m/s | 15.1°C | 62.4% | 897.6hPa | 2.7V | 00:00:00 | 03:26:14 | 00:00:00 | |
| DO3MHA-12 | 2026-09-01 13:55:45 | 49.02969 | 11.23106 | 119° | 15km/h | 1142m | -1.9m/s | 15.1°C | 62.5% | 897.3hPa | 2.7V | 00:00:00 | 03:26:13 | 00:00:00 | |
| DO3MHA-11 | 2026-09-01 13:55:45 | 49.02969 | 11.23106 | 119° | 15km/h | 1142m | -1.9m/s | 15.1°C | 62.5% | 897.3hPa | 2.7V | 06:59:00 | 03:26:13 | 00:00:00 | |
| DO3MHA-12 | 2026-09-01 13:55:43 | 49.02972 | 11.23096 | 102° | 15km/h | 1146m | -1.6m/s | 15.0°C | 62.7% | 896.9hPa | 2.7V | 00:00:00 | 03:26:11 | 00:00:00 | |
| DO3MHA-11 | 2026-09-01 13:55:43 | 49.02972 | 11.23096 | 102° | 15km/h | 1146m | -1.6m/s | 15.0°C | 62.7% | 896.9hPa | 2.7V | 00:00:00 | 03:26:11 | 00:00:00 | |
| DO3MHA-11 | 2026-09-01 13:55:41 | 49.02972 | 11.23084 | 87° | 18km/h | 1151m | -2.1m/s | 14.9°C | 63.2% | 896.6hPa | 2.7V | 00:00:00 | 03:26:09 | 00:00:00 | |
| DO3MHA-12 | 2026-09-01 13:55:41 | 49.02972 | 11.23084 | 87° | 18km/h | 1151m | -2.1m/s | 14.9°C | 63.2% | 896.6hPa | 2.7V | 06:59:00 | 03:26:09 | 00:00:00 | |
| DL6DJ-15 | 2026-09-01 13:55:40 | 49.02971 | 11.23069 | 80° | 20km/h | 1155m | -2.5m/s | 14.9°C | 63.7% | 895.9hPa | 2.7V | 00:00:00 | 00:00:00 | 00:00:00 | |
| DO3MHA-11 | 2026-09-01 13:55:39 | 49.02971 | 11.23069 | 81° | 22km/h | 1155m | -2.5m/s | 14.8°C | 63.5% | 895.8hPa | 2.7V | 00:00:00 | 03:26:07 | 00:00:00 | |
| DO3MHA-12 | 2026-09-01 13:55:39 | 49.02971 | 11.23069 | 81° | 22km/h | 1155m | -2.5m/s | 14.8°C | 63.5% | 895.8hPa | 2.7V | 00:00:00 | 03:26:07 | 00:00:00 | |
| NBG1-10 | 2026-09-01 13:55:39 | 49.02971 | 11.23069 | 81° | 24km/h | 1155m | -2.5m/s | 14.8°C | 63.5% | 895.8hPa | 2.7V | 00:00:00 | 03:26:07 | 00:00:00 | |
| DO3MHA-12 | 2026-09-01 13:55:37 | 49.02969 | 11.23052 | 82° | 24km/h | 1161m | -2.4m/s | 14.8°C | 63.5% | 895.6hPa | 2.7V | 00:00:00 | 03:26:05 | 00:00:00 | |
| DB0NH | 2026-09-01 13:55:37 | 49.02969 | 11.23052 | 82° | 26km/h | 1161m | -2.4m/s | 14.8°C | 63.5% | 895.6hPa | 2.7V | 00:00:00 | 03:26:05 | 00:00:00 | |
| DO3MHA-11 | 2026-09-01 13:55:37 | 49.02969 | 11.23052 | 82° | 24km/h | 1161m | -2.4m/s | 14.8°C | 63.5% | 895.6hPa | 2.7V | 00:00:00 | 03:26:05 | 00:00:00 | |
| DO3MHA-12 | 2026-09-01 13:55:35 | 49.02967 | 11.23033 | 84° | 26km/h | 1165m | -1.4m/s | 14.7°C | 63.8% | 895.0hPa | 2.7V | 00:00:00 | 03:26:03 | 00:00:00 | |
| DO3MHA-11 | 2026-09-01 13:55:35 | 49.02967 | 11.23033 | 84° | 26km/h | 1165m | -1.4m/s | 14.7°C | 63.8% | 895.0hPa | 2.7V | 00:00:00 | 03:26:03 | 00:00:00 | |
| DO3MHA-11 | 2026-09-01 13:55:33 | 49.02966 | 11.23014 | 86° | 26km/h | 1170m | -2.4m/s | 14.7°C | 63.9% | 894.6hPa | 2.7V | 00:00:00 | 03:26:01 | 00:00:00 | |
| DO3MHA-12 | 2026-09-01 13:55:33 | 49.02966 | 11.23014 | 86° | 26km/h | 1170m | -2.4m/s | 14.7°C | 63.9% | 894.6hPa | 2.7V | 00:00:00 | 03:26:01 | 00:00:00 | |
| NBG1-10 | 2026-09-01 13:55:32 | 49.02966 | 11.23003 | 87° | 27km/h | 1172m | -2.4m/s | 14.7°C | 64.2% | 894.3hPa | 2.7V | 00:00:00 | 03:26:00 | 00:00:00 | |
| DO3MHA-11 | 2026-09-01 13:55:31 | 49.02965 | 11.22993 | 87° | 27km/h | 1175m | -2.6m/s | 14.6°C | 64.1% | 894.1hPa | 2.7V | 06:59:00 | 03:25:59 | 00:00:00 | |
| DO3MHA-12 | 2026-09-01 13:55:31 | 49.02965 | 11.22993 | 87° | 27km/h | 1175m | -2.6m/s | 14.6°C | 64.1% | 894.1hPa | 2.7V | 00:00:00 | 03:25:59 | 00:00:00 | |
| DO3MHA-12 | 2026-09-01 13:55:29 | 49.02964 | 11.22972 | 90° | 27km/h | 1180m | -2.4m/s | 14.6°C | 64.5% | 893.3hPa | 2.7V | 00:00:00 | 03:25:57 | 00:00:00 | |
| DO3MHA-11 | 2026-09-01 13:55:29 | 49.02964 | 11.22972 | 90° | 27km/h | 1180m | -2.4m/s | 14.6°C | 64.5% | 893.3hPa | 2.7V | 00:00:00 | 03:25:57 | 00:00:00 | |
| DO3MHA-12 | 2026-09-01 13:55:27 | 49.02965 | 11.22951 | 94° | 27km/h | 1186m | -2.9m/s | 14.5°C | 64.8% | 892.8hPa | 2.7V | 00:00:00 | 03:25:55 | 00:00:00 | |
| DB0NH | 2026-09-01 13:55:27 | 49.02965 | 11.22951 | 94° | 24km/h | 1186m | -2.9m/s | 14.5°C | 64.8% | 892.8hPa | 2.7V | 00:00:00 | 03:25:55 | 00:00:00 | |
| DO3MHA-11 | 2026-09-01 13:55:27 | 49.02965 | 11.22951 | 94° | 27km/h | 1186m | -2.9m/s | 14.5°C | 64.8% | 892.8hPa | 2.7V | 07:00:00 | 03:25:55 | 00:00:00 | |
| DO3MHA-11 | 2026-09-01 13:55:25 | 49.02967 | 11.22929 | 101° | 27km/h | 1192m | -3.2m/s | 14.4°C | 64.7% | 892.2hPa | 2.7V | 00:00:00 | 03:25:53 | 00:00:00 | |
| DO3MHA-12 | 2026-09-01 13:55:25 | 49.02967 | 11.22929 | 101° | 27km/h | 1192m | -3.2m/s | 14.4°C | 64.7% | 892.2hPa | 2.7V | 00:00:00 | 03:25:53 | 00:00:00 | |
| NBG1-10 | 2026-09-01 13:55:25 | 49.02967 | 11.22929 | 101° | 24km/h | 1192m | -3.2m/s | 14.4°C | 64.7% | 892.2hPa | 2.7V | 07:00:00 | 03:25:53 | 00:00:00 | |
| DO3MHA-11 | 2026-09-01 13:55:23 | 49.02969 | 11.22909 | 106° | 24km/h | 1198m | -2.9m/s | 14.4°C | 64.6% | 891.4hPa | 2.7V | 00:00:00 | 03:25:51 | 00:00:00 | |
| DO3MHA-12 | 2026-09-01 13:55:23 | 49.02969 | 11.22909 | 106° | 24km/h | 1198m | -2.9m/s | 14.4°C | 64.6% | 891.4hPa | 2.7V | 00:00:00 | 03:25:51 | 00:00:00 | |
| DO3MHA-12 | 2026-09-01 13:55:21 | 49.02973 | 11.22892 | 106° | 20km/h | 1205m | -3.1m/s | 14.4°C | 64.7% | 891.1hPa | 2.7V | 07:00:00 | 03:25:49 | 00:00:00 | |
| DO3MHA-11 | 2026-09-01 13:55:21 | 49.02973 | 11.22892 | 106° | 20km/h | 1205m | -3.1m/s | 14.4°C | 64.7% | 891.1hPa | 2.7V | 00:00:00 | 03:25:49 | 00:00:00 | |
| DO3MHA-12 | 2026-09-01 13:55:19 | 49.02975 | 11.22877 | 104° | 18km/h | 1211m | -3.1m/s | 14.3°C | 65.1% | 890.1hPa | 2.7V | 00:00:00 | 03:25:47 | 00:00:00 | |
| DO3MHA-11 | 2026-09-01 13:55:19 | 49.02975 | 11.22877 | 104° | 18km/h | 1211m | -3.1m/s | 14.3°C | 65.1% | 890.1hPa | 2.7V | 00:00:00 | 03:25:47 | 00:00:00 | |
| NBG1-10 | 2026-09-01 13:55:18 | 49.02977 | 11.22870 | 104° | 16km/h | 1214m | -2.5m/s | 14.3°C | 65.3% | 890.0hPa | 2.7V | 00:00:00 | 03:25:46 | 00:00:00 | |
| DB0NH | 2026-09-01 13:55:17 | 49.02977 | 11.22864 | 97° | 16km/h | 1216m | -2.6m/s | 14.3°C | 65.4% | 889.7hPa | 2.7V | 00:00:00 | 03:25:45 | 00:00:00 | |
| DO3MHA-11 | 2026-09-01 13:55:17 | 49.02977 | 11.22864 | 97° | 18km/h | 1216m | -2.6m/s | 14.3°C | 65.4% | 889.7hPa | 2.7V | 00:00:00 | 03:25:45 | 00:00:00 | |
| DO3MHA-12 | 2026-09-01 13:55:17 | 49.02977 | 11.22864 | 97° | 18km/h | 1216m | -2.6m/s | 14.3°C | 65.4% | 889.7hPa | 2.7V | 00:00:00 | 03:25:45 | 00:00:00 | |
| DO3MHA-11 | 2026-09-01 13:55:15 | 49.02978 | 11.22851 | 95° | 16km/h | 1222m | -3.0m/s | 14.2°C | 65.1% | 889.0hPa | 2.7V | 00:00:00 | 03:25:43 | 00:00:00 | |
| DO3MHA-12 | 2026-09-01 13:55:15 | 49.02978 | 11.22851 | 95° | 16km/h | 1222m | -3.0m/s | 14.2°C | 65.1% | 889.0hPa | 2.7V | 00:00:00 | 03:25:43 | 00:00:00 | |
| DO3MHA-12 | 2026-09-01 13:55:11 | 49.02979 | 11.22825 | 81° | 16km/h | 1234m | -3.1m/s | 14.0°C | 65.9% | 887.7hPa | 2.7V | 00:00:00 | 03:25:39 | 00:00:00 | |
| NBG1-10 | 2026-09-01 13:55:11 | 49.02979 | 11.22825 | 81° | 16km/h | 1234m | -3.1m/s | 14.0°C | 65.9% | 887.7hPa | 2.7V | 00:00:00 | 03:25:39 | 00:00:00 | |
| DO3MHA-11 | 2026-09-01 13:55:11 | 49.02979 | 11.22825 | 81° | 16km/h | 1234m | -3.1m/s | 14.0°C | 65.9% | 887.7hPa | 2.7V | 07:00:00 | 03:25:39 | 00:00:00 | |
| DO3MHA-11 | 2026-09-01 13:55:09 | 49.02977 | 11.22814 | 76° | 15km/h | 1241m | -3.2m/s | 13.9°C | 66.2% | 887.0hPa | 2.7V | 00:00:00 | 03:25:37 | 00:00:00 | |
| DO3MHA-12 | 2026-09-01 13:55:09 | 49.02977 | 11.22814 | 76° | 15km/h | 1241m | -3.2m/s | 13.9°C | 66.2% | 887.0hPa | 2.7V | 00:00:00 | 03:25:37 | 00:00:00 | |
| DL6DJ-15 | 2026-09-01 13:55:09 | 49.02976 | 11.22808 | 79° | 15km/h | 1244m | -2.9m/s | 14.0°C | 66.3% | 886.7hPa | 2.7V | 00:00:00 | 00:00:00 | 00:00:00 | |
| DB0NH | 2026-09-01 13:55:07 | 49.02975 | 11.22802 | 81° | 20km/h | 1248m | -2.8m/s | 13.9°C | 66.4% | 886.4hPa | 2.7V | 00:00:00 | 03:25:35 | 00:00:00 | |
| DO3MHA-11 | 2026-09-01 13:55:07 | 49.02975 | 11.22802 | 81° | 16km/h | 1248m | -2.8m/s | 13.9°C | 66.4% | 886.4hPa | 2.7V | 00:00:00 | 03:25:35 | 00:00:00 | |
| DO3MHA-12 | 2026-09-01 13:55:07 | 49.02975 | 11.22802 | 81° | 16km/h | 1248m | -2.8m/s | 13.9°C | 66.4% | 886.4hPa | 2.7V | 00:00:00 | 03:25:35 | 00:00:00 | |
| DO3MHA-12 | 2026-09-01 13:55:05 | 49.02974 | 11.22789 | 87° | 18km/h | 1253m | -2.6m/s | 13.8°C | 67.1% | 885.9hPa | 2.7V | 07:00:00 | 03:25:33 | 00:00:00 | |
| DO3MHA-11 | 2026-09-01 13:55:05 | 49.02974 | 11.22789 | 87° | 18km/h | 1253m | -2.6m/s | 13.8°C | 67.1% | 885.9hPa | 2.7V | 00:00:00 | 03:25:33 | 00:00:00 | |
| NBG1-10 | 2026-09-01 13:55:04 | 49.02974 | 11.22782 | 92° | 22km/h | 1255m | -2.7m/s | 13.8°C | 67.3% | 885.5hPa | 2.7V | 00:00:00 | 03:25:32 | 00:00:00 | |
| DO3MHA-12 | 2026-09-01 13:55:03 | 49.02974 | 11.22775 | 96° | 20km/h | 1258m | -2.2m/s | 13.8°C | 67.5% | 885.2hPa | 2.7V | 00:00:00 | 03:25:31 | 00:00:00 | |
| DO3MHA-11 | 2026-09-01 13:55:03 | 49.02974 | 11.22775 | 96° | 20km/h | 1258m | -2.2m/s | 13.8°C | 67.5% | 885.2hPa | 2.7V | 00:00:00 | 03:25:31 | 00:00:00 | |
| DO3MHA-11 | 2026-09-01 13:55:01 | 49.02976 | 11.22760 | 103° | 20km/h | 1262m | -2.5m/s | 13.7°C | 67.7% | 884.7hPa | 2.7V | 00:00:00 | 03:25:29 | 00:00:00 | |
| DO3MHA-12 | 2026-09-01 13:55:01 | 49.02976 | 11.22760 | 103° | 20km/h | 1262m | -2.5m/s | 13.7°C | 67.7% | 884.7hPa | 2.7V | 00:00:00 | 03:25:29 | 00:00:00 | |
| DO3MHA-11 | 2026-09-01 13:54:59 | 49.02977 | 11.22743 | 98° | 26km/h | 1268m | -2.6m/s | 13.7°C | 67.6% | 884.1hPa | 2.7V | 00:00:00 | 03:25:27 | 00:00:00 | |
| DO3MHA-12 | 2026-09-01 13:54:59 | 49.02977 | 11.22743 | 98° | 26km/h | 1268m | -2.6m/s | 13.7°C | 67.6% | 884.1hPa | 2.7V | 00:00:00 | 03:25:27 | 00:00:00 | |
| DB0NH | 2026-09-01 13:54:57 | 49.02979 | 11.22724 | 93° | 26km/h | 1273m | -2.2m/s | 13.6°C | 67.8% | 883.6hPa | 2.7V | 07:00:00 | 03:25:25 | 00:00:00 | |
| DO3MHA-12 | 2026-09-01 13:54:57 | 49.02979 | 11.22724 | 93° | 26km/h | 1273m | -2.2m/s | 13.6°C | 67.8% | 883.6hPa | 2.7V | 00:00:00 | 03:25:25 | 00:00:00 | |
| NBG1-10 | 2026-09-01 13:54:57 | 49.02979 | 11.22724 | 93° | 26km/h | 1273m | -2.2m/s | 13.6°C | 67.8% | 883.6hPa | 2.7V | 00:00:00 | 03:25:25 | 00:00:00 | |
| DO3MHA-11 | 2026-09-01 13:54:57 | 49.02979 | 11.22724 | 93° | 26km/h | 1273m | -2.2m/s | 13.6°C | 67.8% | 883.6hPa | 2.7V | 00:00:00 | 03:25:25 | 00:00:00 | |
| DO3MHA-12 | 2026-09-01 13:54:55 | 49.02980 | 11.22704 | 96° | 26km/h | 1277m | -2.5m/s | 13.6°C | 67.7% | 883.1hPa | 2.7V | 00:00:00 | 03:25:23 | 00:00:00 | |
| DO3MHA-11 | 2026-09-01 13:54:55 | 49.02980 | 11.22704 | 96° | 26km/h | 1277m | -2.5m/s | 13.6°C | 67.7% | 883.1hPa | 2.7V | 07:00:00 | 03:25:23 | 00:00:00 | |
| DO3MHA-11 | 2026-09-01 13:54:53 | 49.02980 | 11.22684 | 94° | 26km/h | 1281m | -2.0m/s | 13.5°C | 68.0% | 882.7hPa | 2.7V | 00:00:00 | 03:25:21 | 00:00:00 | |
| DO3MHA-12 | 2026-09-01 13:54:53 | 49.02980 | 11.22684 | 94° | 26km/h | 1281m | -2.0m/s | 13.5°C | 68.0% | 882.7hPa | 2.7V | 00:00:00 | 03:25:21 | 00:00:00 | |
| DO3MHA-11 | 2026-09-01 13:54:51 | 49.02980 | 11.22664 | 85° | 24km/h | 1286m | -2.4m/s | 13.5°C | 68.0% | 882.3hPa | 2.7V | 00:00:00 | 03:25:19 | 00:00:00 | |
| DO3MHA-12 | 2026-09-01 13:54:51 | 49.02980 | 11.22664 | 85° | 24km/h | 1286m | -2.4m/s | 13.5°C | 68.0% | 882.3hPa | 2.7V | 00:00:00 | 03:25:19 | 00:00:00 | |
| NBG1-10 | 2026-09-01 13:54:50 | 49.02980 | 11.22655 | 91° | 22km/h | 1288m | -2.0m/s | 13.4°C | 68.1% | 882.2hPa | 2.7V | 00:00:00 | 03:25:18 | 00:00:00 | |
| DO3MHA-12 | 2026-09-01 13:54:49 | 49.02980 | 11.22647 | 95° | 24km/h | 1290m | -1.7m/s | 13.4°C | 68.3% | 881.9hPa | 2.7V | 07:00:00 | 03:25:17 | 00:00:00 | |
| DO3MHA-11 | 2026-09-01 13:54:49 | 49.02980 | 11.22647 | 95° | 24km/h | 1290m | -1.7m/s | 13.4°C | 68.3% | 881.9hPa | 2.7V | 00:00:00 | 03:25:17 | 00:00:00 | |
| DO3MHA-12 | 2026-09-01 13:54:47 | 49.02981 | 11.22629 | 100° | 24km/h | 1293m | -1.4m/s | 13.4°C | 68.2% | 881.5hPa | 2.7V | 00:00:00 | 03:25:15 | 00:00:00 | |
| DB0NH | 2026-09-01 13:54:47 | 49.02981 | 11.22629 | 100° | 15km/h | 1293m | -1.4m/s | 13.4°C | 68.2% | 881.5hPa | 2.7V | 00:00:00 | 03:25:15 | 00:00:00 | |
| DO3MHA-11 | 2026-09-01 13:54:47 | 49.02981 | 11.22629 | 100° | 24km/h | 1293m | -1.4m/s | 13.4°C | 68.2% | 881.5hPa | 2.7V | 00:00:00 | 03:25:15 | 00:00:00 | |
| DO3MHA-11 | 2026-09-01 13:54:45 | 49.02983 | 11.22611 | 100° | 18km/h | 1296m | -1.4m/s | 13.4°C | 68.2% | 881.0hPa | 2.7V | 00:00:00 | 03:25:13 | 00:00:00 | |
| DO3MHA-12 | 2026-09-01 13:54:45 | 49.02983 | 11.22611 | 100° | 18km/h | 1296m | -1.4m/s | 13.4°C | 68.2% | 881.0hPa | 2.7V | 00:00:00 | 03:25:13 | 00:00:00 | |
| DO3MHA-11 | 2026-09-01 13:54:43 | 49.02984 | 11.22598 | 108° | 13km/h | 1298m | -1.3m/s | 13.4°C | 68.5% | 880.7hPa | 2.7V | 00:00:00 | 03:25:11 | 00:00:00 | |
| NBG1-10 | 2026-09-01 13:54:43 | 49.02984 | 11.22598 | 108° | 11km/h | 1298m | -1.3m/s | 13.4°C | 68.5% | 880.7hPa | 2.7V | 00:00:00 | 03:25:11 | 00:00:00 | |
| DO3MHA-12 | 2026-09-01 13:54:43 | 49.02984 | 11.22598 | 108° | 13km/h | 1298m | -1.3m/s | 13.4°C | 68.5% | 880.7hPa | 2.7V | 00:00:00 | 03:25:11 | 00:00:00 | |
| DO3MHA-12 | 2026-09-01 13:54:41 | 49.02986 | 11.22590 | 107° | 11km/h | 1301m | -2.4m/s | 13.3°C | 68.4% | 880.5hPa | 2.7V | 00:00:00 | 03:25:09 | 00:00:00 | |
| DO3MHA-11 | 2026-09-01 13:54:41 | 49.02986 | 11.22590 | 107° | 11km/h | 1301m | -2.4m/s | 13.3°C | 68.4% | 880.5hPa | 2.7V | 00:00:00 | 03:25:09 | 00:00:00 | |
| DO3MHA-12 | 2026-09-01 13:54:39 | 49.02987 | 11.22582 | 95° | 11km/h | 1306m | -2.1m/s | 13.3°C | 69.1% | 880.2hPa | 2.7V | 00:00:00 | 03:25:07 | 00:00:00 | |
| DO3MHA-11 | 2026-09-01 13:54:39 | 49.02987 | 11.22582 | 95° | 11km/h | 1306m | -2.1m/s | 13.3°C | 69.1% | 880.2hPa | 2.7V | 07:00:00 | 03:25:07 | 00:00:00 | |
| DL6DJ-15 | 2026-09-01 13:54:37 | 49.02987 | 11.22573 | 77° | 11km/h | 1310m | -1.9m/s | 13.3°C | 69.2% | 879.7hPa | 2.7V | 00:00:00 | 00:00:00 | 00:00:00 | |
| DB0NH | 2026-09-01 13:54:37 | 49.02987 | 11.22573 | 78° | 13km/h | 1310m | -1.8m/s | 13.2°C | 69.1% | 879.7hPa | 2.7V | 00:00:00 | 03:25:05 | 00:00:00 | |
| DO3MHA-11 | 2026-09-01 13:54:37 | 49.02987 | 11.22573 | 78° | 13km/h | 1310m | -1.8m/s | 13.2°C | 69.1% | 879.7hPa | 2.7V | 00:00:00 | 03:25:05 | 00:00:00 | |
| DO3MHA-12 | 2026-09-01 13:54:37 | 49.02987 | 11.22573 | 78° | 13km/h | 1310m | -1.8m/s | 13.2°C | 69.1% | 879.7hPa | 2.7V | 00:00:00 | 03:25:05 | 00:00:00 | |
| NBG1-10 | 2026-09-01 13:54:36 | 49.02986 | 11.22568 | 76° | 13km/h | 1312m | -1.5m/s | 0°C | 0% | 0hPa | 2.7V | 00:00:00 | 03:25:04 | 00:00:00 | |
| DO3MHA-11 | 2026-09-01 13:54:35 | 49.02985 | 11.22563 | 77° | 13km/h | 1313m | -1.3m/s | 13.2°C | 69.2% | 879.3hPa | 2.7V | 00:00:00 | 03:25:03 | 00:00:00 | |
| DO3MHA-12 | 2026-09-01 13:54:35 | 49.02985 | 11.22563 | 77° | 13km/h | 1313m | -1.3m/s | 13.2°C | 69.2% | 879.3hPa | 2.7V | 00:00:00 | 03:25:03 | 00:00:00 | |
| DO3MHA-12 | 2026-09-01 13:54:33 | 49.02983 | 11.22553 | 77° | 13km/h | 1316m | -1.9m/s | 13.2°C | 69.1% | 878.8hPa | 2.7V | 07:00:00 | 03:25:01 | 00:00:00 | |
| DO3MHA-11 | 2026-09-01 13:54:33 | 49.02983 | 11.22553 | 77° | 13km/h | 1316m | -1.9m/s | 13.2°C | 69.1% | 878.8hPa | 2.7V | 00:00:00 | 03:25:01 | 00:00:00 | |
| DO3MHA-12 | 2026-09-01 13:54:31 | 49.02981 | 11.22544 | 75° | 15km/h | 1320m | -1.6m/s | 13.1°C | 69.1% | 878.6hPa | 2.7V | 00:00:00 | 03:24:59 | 00:00:00 | |
| DO3MHA-11 | 2026-09-01 13:54:31 | 49.02981 | 11.22544 | 75° | 15km/h | 1320m | -1.6m/s | 13.1°C | 69.1% | 878.6hPa | 2.7V | 00:00:00 | 03:24:59 | 00:00:00 | |
| DO3MHA-11 | 2026-09-01 13:54:29 | 49.02979 | 11.22533 | 75° | 15km/h | 1323m | -1.3m/s | 13.1°C | 69.4% | 878.5hPa | 2.7V | 00:00:00 | 03:24:57 | 00:00:00 | |
| NBG1-10 | 2026-09-01 13:54:29 | 49.02979 | 11.22533 | 75° | 15km/h | 1323m | -1.3m/s | 13.1°C | 69.4% | 878.5hPa | 2.7V | 07:01:00 | 03:24:57 | 00:00:00 | |
| DO3MHA-12 | 2026-09-01 13:54:29 | 49.02979 | 11.22533 | 75° | 15km/h | 1323m | -1.3m/s | 13.1°C | 69.4% | 878.5hPa | 2.7V | 00:00:00 | 03:24:57 | 00:00:00 | |
| DB0NH | 2026-09-01 13:54:27 | 49.02977 | 11.22523 | 69° | 15km/h | 1325m | -1.8m/s | 13.1°C | 69.8% | 878.0hPa | 2.7V | 00:00:00 | 03:24:55 | 00:00:00 | |
| DO3MHA-11 | 2026-09-01 13:54:27 | 49.02977 | 11.22523 | 69° | 15km/h | 1325m | -1.8m/s | 13.1°C | 69.8% | 878.0hPa | 2.7V | 00:00:00 | 03:24:55 | 00:00:00 | |
| DO3MHA-12 | 2026-09-01 13:54:27 | 49.02977 | 11.22523 | 69° | 15km/h | 1325m | -1.8m/s | 13.1°C | 69.8% | 878.0hPa | 2.7V | 00:00:00 | 03:24:55 | 00:00:00 | |
| DO3MHA-12 | 2026-09-01 13:54:25 | 49.02975 | 11.22512 | 73° | 15km/h | 1329m | -1.5m/s | 13.0°C | 70.1% | 877.5hPa | 2.7V | 00:00:00 | 03:24:53 | 00:00:00 | |
| DO3MHA-11 | 2026-09-01 13:54:25 | 49.02975 | 11.22512 | 73° | 15km/h | 1329m | -1.5m/s | 13.0°C | 70.1% | 877.5hPa | 2.7V | 00:00:00 | 03:24:53 | 00:00:00 | |
| DO3MHA-12 | 2026-09-01 13:54:23 | 49.02973 | 11.22502 | 72° | 13km/h | 1332m | -2.0m/s | 13.0°C | 70.2% | 877.1hPa | 2.7V | 00:00:00 | 03:24:51 | 00:00:00 | |
| DO3MHA-11 | 2026-09-01 13:54:23 | 49.02973 | 11.22502 | 72° | 13km/h | 1332m | -2.0m/s | 13.0°C | 70.2% | 877.1hPa | 2.7V | 07:01:00 | 03:24:51 | 00:00:00 | |
| NBG1-10 | 2026-09-01 13:54:22 | 49.02972 | 11.22497 | 78° | 13km/h | 1334m | -2.0m/s | 13.0°C | 70.3% | 876.8hPa | 2.7V | 00:00:00 | 03:24:50 | 00:00:00 | |
| DO3MHA-11 | 2026-09-01 13:54:21 | 49.02971 | 11.22492 | 72° | 15km/h | 1337m | -2.5m/s | 13.0°C | 70.2% | 876.8hPa | 2.7V | 00:00:00 | 03:24:49 | 00:00:00 | |
| DO3MHA-12 | 2026-09-01 13:54:21 | 49.02971 | 11.22492 | 72° | 15km/h | 1337m | -2.5m/s | 13.0°C | 70.2% | 876.8hPa | 2.7V | 00:00:00 | 03:24:49 | 00:00:00 | |
| DO3MHA-11 | 2026-09-01 13:54:19 | 49.02969 | 11.22482 | 79° | 13km/h | 1341m | -2.2m/s | 12.9°C | 68.8% | 876.3hPa | 2.7V | 00:00:00 | 03:24:47 | 00:00:00 | |
| DO3MHA-12 | 2026-09-01 13:54:19 | 49.02969 | 11.22482 | 79° | 13km/h | 1341m | -2.2m/s | 12.9°C | 68.8% | 876.3hPa | 2.7V | 00:00:00 | 03:24:47 | 00:00:00 | |
| DB0NH | 2026-09-01 13:54:17 | 49.02968 | 11.22472 | 85° | 15km/h | 1346m | -2.6m/s | 12.9°C | 70.4% | 875.9hPa | 2.7V | 00:00:00 | 03:24:45 | 00:00:00 | |
| DO3MHA-12 | 2026-09-01 13:54:17 | 49.02968 | 11.22472 | 85° | 13km/h | 1346m | -2.6m/s | 12.9°C | 70.4% | 875.9hPa | 2.7V | 07:01:00 | 03:24:45 | 00:00:00 | |
| DO3MHA-11 | 2026-09-01 13:54:17 | 49.02968 | 11.22472 | 85° | 13km/h | 1346m | -2.6m/s | 12.9°C | 70.4% | 875.9hPa | 2.7V | 00:00:00 | 03:24:45 | 00:00:00 | |
| DO3MHA-12 | 2026-09-01 13:54:15 | 49.02968 | 11.22462 | 90° | 13km/h | 1351m | -2.4m/s | 12.8°C | 69.9% | 875.3hPa | 2.7V | 00:00:00 | 03:24:43 | 00:00:00 | |
| NBG1-10 | 2026-09-01 13:54:15 | 49.02968 | 11.22462 | 90° | 15km/h | 1351m | -2.4m/s | 12.8°C | 69.9% | 875.3hPa | 2.7V | 00:00:00 | 03:24:43 | 00:00:00 | |
| DO3MHA-11 | 2026-09-01 13:54:15 | 49.02968 | 11.22462 | 90° | 13km/h | 1351m | -2.4m/s | 12.8°C | 69.9% | 875.3hPa | 2.7V | 00:00:00 | 03:24:43 | 00:00:00 | |
| DO3MHA-11 | 2026-09-01 13:54:13 | 49.02968 | 11.22452 | 84° | 13km/h | 1355m | -2.5m/s | 12.8°C | 70.0% | 874.8hPa | 2.7V | 00:00:00 | 03:24:41 | 00:00:00 | |
| DO3MHA-12 | 2026-09-01 13:54:13 | 49.02968 | 11.22452 | 84° | 13km/h | 1355m | -2.5m/s | 12.8°C | 70.0% | 874.8hPa | 2.7V | 00:00:00 | 03:24:41 | 00:00:00 | |
| DO3MHA-11 | 2026-09-01 13:54:11 | 49.02966 | 11.22442 | 71° | 15km/h | 1361m | -2.8m/s | 12.7°C | 71.4% | 874.3hPa | 2.7V | 00:00:00 | 03:24:39 | 00:00:00 | |
| DO3MHA-12 | 2026-09-01 13:54:11 | 49.02966 | 11.22442 | 71° | 15km/h | 1361m | -2.8m/s | 12.7°C | 71.4% | 874.3hPa | 2.7V | 00:00:00 | 03:24:39 | 00:00:00 | |
| DO3MHA-12 | 2026-09-01 13:54:09 | 49.02963 | 11.22431 | 65° | 18km/h | 1366m | -2.7m/s | 12.7°C | 71.6% | 873.8hPa | 2.7V | 00:00:00 | 03:24:37 | 00:00:00 | |
| DO3MHA-11 | 2026-09-01 13:54:09 | 49.02963 | 11.22431 | 65° | 18km/h | 1366m | -2.7m/s | 12.7°C | 71.6% | 873.8hPa | 2.7V | 00:00:00 | 03:24:37 | 00:00:00 | |
| NBG1-10 | 2026-09-01 13:54:08 | 49.02961 | 11.22425 | 62° | 24km/h | 1369m | -2.5m/s | 12.6°C | 71.7% | 873.5hPa | 2.7V | 00:00:00 | 03:24:36 | 00:00:00 | |
| DO3MHA-12 | 2026-09-01 13:54:07 | 49.02959 | 11.22418 | 63° | 22km/h | 1371m | -2.7m/s | 12.6°C | 71.6% | 873.2hPa | 2.7V | 00:00:00 | 03:24:35 | 00:00:00 | |
| DO3MHA-11 | 2026-09-01 13:54:07 | 49.02959 | 11.22418 | 63° | 22km/h | 1371m | -2.7m/s | 12.6°C | 71.6% | 873.2hPa | 2.7V | 07:01:00 | 03:24:35 | 00:00:00 | |
| DB0NH | 2026-09-01 13:54:07 | 49.02959 | 11.22418 | 63° | 20km/h | 1371m | -2.7m/s | 12.6°C | 71.6% | 873.2hPa | 2.7V | 00:00:00 | 03:24:35 | 00:00:00 | |
| DL6DJ-15 | 2026-09-01 13:54:06 | 49.02956 | 11.22410 | 63° | 22km/h | 1374m | -2.6m/s | 12.6°C | 71.8% | 873.0hPa | 2.7V | 00:00:00 | 00:00:00 | 00:00:00 | |
| DO3MHA-11 | 2026-09-01 13:54:05 | 49.02954 | 11.22402 | 73° | 26km/h | 1376m | -2.2m/s | 12.6°C | 71.8% | 872.6hPa | 2.7V | 00:00:00 | 03:24:33 | 00:00:00 | |
| DO3MHA-12 | 2026-09-01 13:54:05 | 49.02954 | 11.22402 | 73° | 26km/h | 1376m | -2.2m/s | 12.6°C | 71.8% | 872.6hPa | 2.7V | 00:00:00 | 03:24:33 | 00:00:00 | |
| DO3MHA-11 | 2026-09-01 13:54:03 | 49.02951 | 11.22383 | 87° | 24km/h | 1380m | -2.2m/s | 12.5°C | 70.7% | 872.1hPa | 2.7V | 00:00:00 | 03:24:31 | 00:00:00 | |
| DO3MHA-12 | 2026-09-01 13:54:03 | 49.02951 | 11.22383 | 87° | 24km/h | 1380m | -2.2m/s | 12.5°C | 70.7% | 872.1hPa | 2.7V | 00:00:00 | 03:24:31 | 00:00:00 | |
| NBG1-10 | 2026-09-01 13:54:01 | 49.02951 | 11.22366 | 95° | 16km/h | 1385m | -2.2m/s | 12.5°C | 71.0% | 871.7hPa | 2.7V | 00:00:00 | 03:24:29 | 00:00:00 | |
| DO3MHA-12 | 2026-09-01 13:54:01 | 49.02951 | 11.22366 | 95° | 20km/h | 1385m | -2.2m/s | 12.5°C | 71.0% | 871.7hPa | 2.7V | 07:01:00 | 03:24:29 | 00:00:00 | |
| DO3MHA-11 | 2026-09-01 13:54:01 | 49.02951 | 11.22366 | 95° | 20km/h | 1385m | -2.2m/s | 12.5°C | 71.0% | 871.7hPa | 2.7V | 00:00:00 | 03:24:29 | 00:00:00 | |
| DO3MHA-12 | 2026-09-01 13:53:59 | 49.02953 | 11.22353 | 97° | 13km/h | 1389m | -2.2m/s | 12.5°C | 70.7% | 871.1hPa | 2.7V | 00:00:00 | 03:24:27 | 00:00:00 | |
| DO3MHA-11 | 2026-09-01 13:53:59 | 49.02953 | 11.22353 | 97° | 13km/h | 1389m | -2.2m/s | 12.5°C | 70.7% | 871.1hPa | 2.7V | 00:00:00 | 03:24:27 | 00:00:00 | |
| DO3MHA-11 | 2026-09-01 13:53:57 | 49.02951 | 11.22343 | 64° | 15km/h | 1394m | -2.2m/s | 12.4°C | 70.4% | 870.9hPa | 2.7V | 00:00:00 | 03:24:25 | 00:00:00 | |
| DB0NH | 2026-09-01 13:53:57 | 49.02951 | 11.22343 | 64° | 22km/h | 1394m | -2.2m/s | 12.4°C | 70.4% | 870.9hPa | 2.7V | 00:00:00 | 03:24:25 | 00:00:00 | |
| DO3MHA-12 | 2026-09-01 13:53:57 | 49.02951 | 11.22343 | 64° | 15km/h | 1394m | -2.2m/s | 12.4°C | 70.4% | 870.9hPa | 2.7V | 00:00:00 | 03:24:25 | 00:00:00 | |
| DO3MHA-11 | 2026-09-01 13:53:55 | 49.02947 | 11.22333 | 54° | 20km/h | 1398m | -2.2m/s | 12.4°C | 70.5% | 870.2hPa | 2.7V | 00:00:00 | 03:24:23 | 00:00:00 | |
| DO3MHA-12 | 2026-09-01 13:53:55 | 49.02947 | 11.22333 | 54° | 20km/h | 1398m | -2.2m/s | 12.4°C | 70.5% | 870.2hPa | 2.7V | 00:00:00 | 03:24:23 | 00:00:00 | |
| NBG1-10 | 2026-09-01 13:53:54 | 49.02944 | 11.22326 | 58° | 24km/h | 1400m | -2.1m/s | 12.4°C | 70.8% | 870.0hPa | 2.7V | 00:00:00 | 03:24:22 | 00:00:00 | |
| DO3MHA-12 | 2026-09-01 13:53:53 | 49.02941 | 11.22319 | 68° | 24km/h | 1403m | -2.5m/s | 12.4°C | 71.1% | 869.7hPa | 2.7V | 00:00:00 | 03:24:21 | 00:00:00 | |
| DO3MHA-11 | 2026-09-01 13:53:53 | 49.02941 | 11.22319 | 68° | 24km/h | 1403m | -2.5m/s | 12.4°C | 71.1% | 869.7hPa | 2.7V | 00:00:00 | 03:24:21 | 00:00:00 | |
| DO3MHA-12 | 2026-09-01 13:53:51 | 49.02938 | 11.22300 | 81° | 26km/h | 1407m | -2.1m/s | 12.4°C | 70.6% | 869.3hPa | 2.7V | 00:00:00 | 03:24:19 | 00:00:00 | |
| DO3MHA-11 | 2026-09-01 13:53:51 | 49.02938 | 11.22300 | 81° | 26km/h | 1407m | -2.1m/s | 12.4°C | 70.6% | 869.3hPa | 2.7V | 07:01:00 | 03:24:19 | 00:00:00 | |
| DO3MHA-11 | 2026-09-01 13:53:49 | 49.02937 | 11.22282 | 94° | 22km/h | 1412m | -2.1m/s | 12.3°C | 70.4% | 868.8hPa | 2.7V | 00:00:00 | 03:24:17 | 00:00:00 | |
| DO3MHA-12 | 2026-09-01 13:53:49 | 49.02937 | 11.22282 | 94° | 22km/h | 1412m | -2.1m/s | 12.3°C | 70.4% | 868.8hPa | 2.7V | 00:00:00 | 03:24:17 | 00:00:00 | |
| DB0NH | 2026-09-01 13:53:47 | 49.02938 | 11.22266 | 98° | 20km/h | 1415m | -2.0m/s | 12.3°C | 70.6% | 868.4hPa | 2.7V | 00:00:00 | 03:24:15 | 00:00:00 | |
| DO3MHA-11 | 2026-09-01 13:53:47 | 49.02938 | 11.22266 | 98° | 16km/h | 1415m | -2.0m/s | 12.3°C | 70.6% | 868.4hPa | 2.7V | 00:00:00 | 03:24:15 | 00:00:00 | |
| NBG1-10 | 2026-09-01 13:53:47 | 49.02938 | 11.22266 | 98° | 18km/h | 1415m | -2.0m/s | 12.3°C | 70.6% | 868.4hPa | 2.7V | 00:00:00 | 03:24:15 | 00:00:00 | |
| DO3MHA-12 | 2026-09-01 13:53:47 | 49.02938 | 11.22266 | 98° | 16km/h | 1415m | -2.0m/s | 12.3°C | 70.6% | 868.4hPa | 2.7V | 00:00:00 | 03:24:15 | 00:00:00 | |
| DO3MHA-12 | 2026-09-01 13:53:45 | 49.02938 | 11.22254 | 81° | 15km/h | 1419m | -2.0m/s | 12.3°C | 70.8% | 867.8hPa | 2.7V | 07:01:00 | 03:24:13 | 00:00:00 | |
| DO3MHA-11 | 2026-09-01 13:53:45 | 49.02938 | 11.22254 | 81° | 15km/h | 1419m | -2.0m/s | 12.3°C | 70.8% | 867.8hPa | 2.7V | 00:00:00 | 03:24:13 | 00:00:00 | |
| DO3MHA-12 | 2026-09-01 13:53:43 | 49.02936 | 11.22243 | 67° | 18km/h | 1424m | -2.3m/s | 12.2°C | 70.8% | 867.5hPa | 2.7V | 00:00:00 | 03:24:11 | 00:00:00 | |
| DO3MHA-11 | 2026-09-01 13:53:43 | 49.02936 | 11.22243 | 67° | 18km/h | 1424m | -2.3m/s | 12.2°C | 70.8% | 867.5hPa | 2.7V | 00:00:00 | 03:24:11 | 00:00:00 | |
| DO3MHA-11 | 2026-09-01 13:53:41 | 49.02931 | 11.22229 | 65° | 24km/h | 1428m | -2.3m/s | 12.2°C | 70.9% | 866.9hPa | 2.7V | 00:00:00 | 03:24:09 | 00:00:00 | |
| DO3MHA-12 | 2026-09-01 13:53:41 | 49.02931 | 11.22229 | 65° | 24km/h | 1428m | -2.3m/s | 12.2°C | 70.9% | 866.9hPa | 2.7V | 00:00:00 | 03:24:09 | 00:00:00 | |
| NBG1-10 | 2026-09-01 13:53:40 | 49.02929 | 11.22221 | 66° | 24km/h | 1430m | -2.1m/s | 12.2°C | 71.1% | 866.8hPa | 2.7V | 00:00:00 | 03:24:08 | 00:00:00 | |
| DO3MHA-11 | 2026-09-01 13:53:39 | 49.02926 | 11.22212 | 68° | 24km/h | 1432m | -2.0m/s | 12.2°C | 71.0% | 866.5hPa | 2.7V | 00:00:00 | 03:24:07 | 00:00:00 | |
| DO3MHA-12 | 2026-09-01 13:53:39 | 49.02926 | 11.22212 | 68° | 24km/h | 1432m | -2.0m/s | 12.2°C | 71.0% | 866.5hPa | 2.7V | 00:00:00 | 03:24:07 | 00:00:00 | |
| DB0NH | 2026-09-01 13:53:37 | 49.02922 | 11.22195 | 69° | 24km/h | 1436m | -2.1m/s | 12.1°C | 71.2% | 866.2hPa | 2.7V | 07:01:00 | 03:24:05 | 00:00:00 | |
| DO3MHA-12 | 2026-09-01 13:53:37 | 49.02922 | 11.22195 | 69° | 24km/h | 1436m | -2.1m/s | 12.1°C | 71.2% | 866.2hPa | 2.7V | 00:00:00 | 03:24:05 | 00:00:00 | |
| DO3MHA-11 | 2026-09-01 13:53:37 | 49.02922 | 11.22195 | 69° | 24km/h | 1436m | -2.1m/s | 12.1°C | 71.2% | 866.2hPa | 2.7V | 00:00:00 | 03:24:05 | 00:00:00 | |
| DL6DJ-15 | 2026-09-01 13:53:35 | 49.02918 | 11.22178 | 70° | 24km/h | 1441m | -2.6m/s | 12.1°C | 71.3% | 865.8hPa | 2.7V | 00:00:00 | 00:00:00 | 00:00:00 | |
| DO3MHA-11 | 2026-09-01 13:53:35 | 49.02918 | 11.22178 | 71° | 24km/h | 1441m | -2.5m/s | 12.0°C | 71.3% | 865.7hPa | 2.7V | 07:01:00 | 03:24:03 | 00:00:00 | |
| DO3MHA-12 | 2026-09-01 13:53:35 | 49.02918 | 11.22178 | 71° | 24km/h | 1441m | -2.5m/s | 12.0°C | 71.3% | 865.7hPa | 2.7V | 00:00:00 | 03:24:03 | 00:00:00 | |
| DO3MHA-11 | 2026-09-01 13:53:33 | 49.02914 | 11.22161 | 73° | 24km/h | 1446m | -2.3m/s | 12.0°C | 71.6% | 865.1hPa | 2.7V | 00:00:00 | 03:24:01 | 00:00:00 | |
| NBG1-10 | 2026-09-01 13:53:33 | 49.02914 | 11.22161 | 73° | 24km/h | 1446m | -2.3m/s | 12.0°C | 71.6% | 865.1hPa | 2.7V | 07:01:00 | 03:24:01 | 00:00:00 | |
| DO3MHA-12 | 2026-09-01 13:53:33 | 49.02914 | 11.22161 | 73° | 24km/h | 1446m | -2.3m/s | 12.0°C | 71.6% | 865.1hPa | 2.7V | 00:00:00 | 03:24:01 | 00:00:00 | |
| DO3MHA-11 | 2026-09-01 13:53:31 | 49.02910 | 11.22143 | 72° | 24km/h | 1450m | -2.1m/s | 12.0°C | 71.8% | 864.7hPa | 2.7V | 00:00:00 | 03:23:59 | 00:00:00 | |
| DO3MHA-12 | 2026-09-01 13:53:31 | 49.02910 | 11.22143 | 72° | 24km/h | 1450m | -2.1m/s | 12.0°C | 71.8% | 864.7hPa | 2.7V | 00:00:00 | 03:23:59 | 00:00:00 | |
| DO3MHA-12 | 2026-09-01 13:53:29 | 49.02906 | 11.22126 | 71° | 24km/h | 1454m | -2.2m/s | 11.9°C | 72.0% | 864.2hPa | 2.7V | 07:02:00 | 03:23:57 | 00:00:00 | |
| DO3MHA-11 | 2026-09-01 13:53:29 | 49.02906 | 11.22126 | 71° | 24km/h | 1454m | -2.2m/s | 11.9°C | 72.0% | 864.2hPa | 2.7V | 00:00:00 | 03:23:57 | 00:00:00 | |
| DB0NH | 2026-09-01 13:53:27 | 49.02902 | 11.22108 | 71° | 24km/h | 1459m | -2.4m/s | 11.9°C | 72.2% | 863.7hPa | 2.7V | 00:00:00 | 03:23:55 | 00:00:00 | |
| DO3MHA-12 | 2026-09-01 13:53:27 | 49.02902 | 11.22108 | 71° | 24km/h | 1459m | -2.4m/s | 11.9°C | 72.2% | 863.7hPa | 2.7V | 00:00:00 | 03:23:55 | 00:00:00 | |
| DO3MHA-11 | 2026-09-01 13:53:27 | 49.02902 | 11.22108 | 71° | 24km/h | 1459m | -2.4m/s | 11.9°C | 72.2% | 863.7hPa | 2.7V | 00:00:00 | 03:23:55 | 00:00:00 | |
| NBG1-10 | 2026-09-01 13:53:26 | 49.02900 | 11.22099 | 70° | 24km/h | 1461m | -2.3m/s | 11.8°C | 72.1% | 863.6hPa | 2.7V | 00:00:00 | 03:23:54 | 00:00:00 | |
| DO3MHA-11 | 2026-09-01 13:53:25 | 49.02898 | 11.22091 | 71° | 24km/h | 1463m | -2.4m/s | 11.8°C | 72.3% | 863.3hPa | 2.7V | 00:00:00 | 03:23:53 | 00:00:00 | |
| DO3MHA-12 | 2026-09-01 13:53:25 | 49.02898 | 11.22091 | 71° | 24km/h | 1463m | -2.4m/s | 11.8°C | 72.3% | 863.3hPa | 2.7V | 00:00:00 | 03:23:53 | 00:00:00 | |
| DO3MHA-11 | 2026-09-01 13:53:23 | 49.02894 | 11.22074 | 70° | 24km/h | 1468m | -2.3m/s | 11.8°C | 72.5% | 862.8hPa | 2.7V | 00:00:00 | 03:23:51 | 00:00:00 | |
| DO3MHA-12 | 2026-09-01 13:53:23 | 49.02894 | 11.22074 | 70° | 24km/h | 1468m | -2.3m/s | 11.8°C | 72.5% | 862.8hPa | 2.7V | 00:00:00 | 03:23:51 | 00:00:00 | |
| DO3MHA-12 | 2026-09-01 13:53:21 | 49.02890 | 11.22057 | 69° | 24km/h | 1472m | -2.2m/s | 11.7°C | 72.6% | 862.2hPa | 2.7V | 00:00:00 | 03:23:49 | 00:00:00 | |
| DO3MHA-11 | 2026-09-01 13:53:21 | 49.02890 | 11.22057 | 69° | 24km/h | 1472m | -2.2m/s | 11.7°C | 72.6% | 862.2hPa | 2.7V | 00:00:00 | 03:23:49 | 00:00:00 | |
| DO3MHA-12 | 2026-09-01 13:53:19 | 49.02886 | 11.22040 | 71° | 24km/h | 1477m | -2.5m/s | 11.7°C | 72.9% | 861.9hPa | 2.7V | 00:00:00 | 03:23:47 | 00:00:00 | |
| NBG1-10 | 2026-09-01 13:53:19 | 49.02886 | 11.22040 | 71° | 26km/h | 1477m | -2.5m/s | 11.7°C | 72.9% | 861.9hPa | 2.7V | 00:00:00 | 03:23:47 | 00:00:00 | |
| DO3MHA-11 | 2026-09-01 13:53:19 | 49.02886 | 11.22040 | 71° | 24km/h | 1477m | -2.5m/s | 11.7°C | 72.9% | 861.9hPa | 2.7V | 07:02:00 | 03:23:47 | 00:00:00 | |
| DB0NH | 2026-09-01 13:53:17 | 49.02882 | 11.22023 | 75° | 24km/h | 1482m | -2.6m/s | 11.6°C | 73.0% | 861.3hPa | 2.7V | 00:00:00 | 03:23:45 | 00:00:00 | |
| DO3MHA-11 | 2026-09-01 13:53:17 | 49.02882 | 11.22023 | 75° | 26km/h | 1482m | -2.6m/s | 11.6°C | 73.0% | 861.3hPa | 2.7V | 00:00:00 | 03:23:45 | 00:00:00 | |
| DO3MHA-12 | 2026-09-01 13:53:17 | 49.02882 | 11.22023 | 75° | 26km/h | 1482m | -2.6m/s | 11.6°C | 73.0% | 861.3hPa | 2.7V | 00:00:00 | 03:23:45 | 00:00:00 | |
| DO3MHA-11 | 2026-09-01 13:53:15 | 49.02879 | 11.22004 | 81° | 26km/h | 1487m | -2.5m/s | 11.6°C | 72.8% | 860.8hPa | 2.7V | 00:00:00 | 03:23:43 | 00:00:00 | |
| DO3MHA-12 | 2026-09-01 13:53:15 | 49.02879 | 11.22004 | 81° | 26km/h | 1487m | -2.5m/s | 11.6°C | 72.8% | 860.8hPa | 2.7V | 00:00:00 | 03:23:43 | 00:00:00 | |
| DO3MHA-12 | 2026-09-01 13:53:13 | 49.02878 | 11.21984 | 89° | 24km/h | 1491m | -2.4m/s | 11.5°C | 73.1% | 860.4hPa | 2.7V | 07:02:00 | 03:23:41 | 00:00:00 | |
| DO3MHA-11 | 2026-09-01 13:53:13 | 49.02878 | 11.21984 | 89° | 24km/h | 1491m | -2.4m/s | 11.5°C | 73.1% | 860.4hPa | 2.7V | 00:00:00 | 03:23:41 | 00:00:00 | |
| NBG1-10 | 2026-09-01 13:53:12 | 49.02878 | 11.21975 | 91° | 22km/h | 1494m | -2.1m/s | 11.5°C | 73.0% | 860.1hPa | 2.7V | 00:00:00 | 03:23:40 | 00:00:00 | |
| DO3MHA-11 | 2026-09-01 13:53:11 | 49.02878 | 11.21966 | 93° | 24km/h | 1496m | -2.2m/s | 11.5°C | 73.3% | 859.9hPa | 2.7V | 00:00:00 | 03:23:39 | 00:00:00 | |
| DO3MHA-12 | 2026-09-01 13:53:11 | 49.02878 | 11.21966 | 93° | 24km/h | 1496m | -2.2m/s | 11.5°C | 73.3% | 859.9hPa | 2.7V | 00:00:00 | 03:23:39 | 00:00:00 | |
| DO3MHA-11 | 2026-09-01 13:53:09 | 49.02879 | 11.21949 | 94° | 22km/h | 1500m | -1.9m/s | 11.5°C | 73.4% | 859.4hPa | 2.7V | 00:00:00 | 03:23:37 | 00:00:00 | |
| DO3MHA-12 | 2026-09-01 13:53:09 | 49.02879 | 11.21949 | 94° | 22km/h | 1500m | -1.9m/s | 11.5°C | 73.4% | 859.4hPa | 2.7V | 00:00:00 | 03:23:37 | 00:00:00 | |
| DB0NH | 2026-09-01 13:53:07 | 49.02880 | 11.21931 | 97° | 20km/h | 1504m | -2.0m/s | 11.4°C | 73.9% | 859.0hPa | 2.7V | 00:00:00 | 03:23:35 | 00:00:00 | |
| DO3MHA-12 | 2026-09-01 13:53:05 | 49.02882 | 11.21915 | 98° | 20km/h | 1508m | -2.1m/s | 11.3°C | 74.1% | 858.6hPa | 2.7V | 00:00:00 | 03:23:33 | 00:00:00 | |
| NBG1-10 | 2026-09-01 13:53:05 | 49.02882 | 11.21915 | 98° | 16km/h | 1508m | -2.1m/s | 11.3°C | 74.1% | 858.6hPa | 2.7V | 00:00:00 | 03:23:33 | 00:00:00 | |
| DO3MHA-11 | 2026-09-01 13:53:05 | 49.02882 | 11.21915 | 98° | 20km/h | 1508m | -2.1m/s | 11.3°C | 74.1% | 858.6hPa | 2.7V | 00:00:00 | 03:23:33 | 00:00:00 | |
| DL6DJ-15 | 2026-09-01 13:53:04 | 49.02883 | 11.21907 | 99° | 20km/h | 1510m | -2.4m/s | 11.4°C | 74.0% | 858.3hPa | 2.7V | 00:00:00 | 00:00:00 | 00:00:00 | |
| DO3MHA-12 | 2026-09-01 13:53:00 | 49.02886 | 11.21876 | 100° | 18km/h | 1519m | -2.4m/s | 11.2°C | 74.6% | 857.3hPa | 2.7V | 00:00:00 | 03:23:28 | 00:00:00 | |
| DO3MHA-11 | 2026-09-01 13:53:00 | 49.02886 | 11.21876 | 100° | 18km/h | 1519m | -2.4m/s | 11.2°C | 74.6% | 857.3hPa | 2.7V | 00:00:00 | 03:23:28 | 00:00:00 | |
| DB0NH | 2026-09-01 13:52:57 | 49.02888 | 11.21854 | 94° | 15km/h | 1526m | -2.5m/s | 11.2°C | 74.9% | 856.8hPa | 2.7V | 00:00:00 | 03:23:25 | 00:00:00 | |
| DO3MHA-11 | 2026-09-01 13:52:55 | 49.02888 | 11.21842 | 91° | 15km/h | 1531m | -2.6m/s | 11.1°C | 75.0% | 856.0hPa | 2.7V | 07:02:00 | 03:23:23 | 00:00:00 | |
| DO3MHA-12 | 2026-09-01 13:52:55 | 49.02888 | 11.21842 | 91° | 15km/h | 1531m | -2.6m/s | 11.1°C | 75.0% | 856.0hPa | 2.7V | 00:00:00 | 03:23:23 | 00:00:00 | |
| DO3MHA-11 | 2026-09-01 13:52:50 | 49.02885 | 11.21815 | 72° | 15km/h | 1544m | -2.4m/s | 11.0°C | 75.0% | 854.8hPa | 2.7V | 00:00:00 | 03:23:18 | 00:00:00 | |
| DO3MHA-12 | 2026-09-01 13:52:50 | 49.02885 | 11.21815 | 72° | 15km/h | 1544m | -2.4m/s | 11.0°C | 75.0% | 854.8hPa | 2.7V | 00:00:00 | 03:23:18 | 00:00:00 | |
| DB0NH | 2026-09-01 13:52:47 | 49.02881 | 11.21799 | 62° | 20km/h | 1551m | -2.4m/s | 10.9°C | 74.8% | 854.1hPa | 2.7V | 00:00:00 | 03:23:15 | 00:00:00 | |
| DO3MHA-11 | 2026-09-01 13:52:45 | 49.02877 | 11.21788 | 66° | 20km/h | 1556m | -2.8m/s | 10.9°C | 75.2% | 853.7hPa | 2.7V | 00:00:00 | 03:23:13 | 00:00:00 | |
| DO3MHA-12 | 2026-09-01 13:52:45 | 49.02877 | 11.21788 | 66° | 20km/h | 1556m | -2.8m/s | 10.9°C | 75.2% | 853.7hPa | 2.7V | 00:00:00 | 03:23:13 | 00:00:00 | |
| NBG1-10 | 2026-09-01 13:52:43 | 49.02873 | 11.21775 | 65° | 26km/h | 1562m | -2.4m/s | 10.8°C | 75.5% | 853.1hPa | 2.7V | 00:00:00 | 03:23:11 | 00:00:00 | |
| DO3MHA-11 | 2026-09-01 13:52:40 | 49.02865 | 11.21751 | 64° | 24km/h | 1568m | -2.3m/s | 10.8°C | 76.6% | 852.5hPa | 2.7V | 00:00:00 | 03:23:08 | 00:00:00 | |
| DO3MHA-12 | 2026-09-01 13:52:40 | 49.02865 | 11.21751 | 64° | 24km/h | 1568m | -2.3m/s | 10.8°C | 76.6% | 852.5hPa | 2.7V | 07:02:00 | 03:23:08 | 00:00:00 | |
| DB0NH | 2026-09-01 13:52:37 | 49.02856 | 11.21727 | 60° | 24km/h | 1575m | -2.1m/s | 10.7°C | 76.2% | 851.8hPa | 2.7V | 00:00:00 | 03:23:05 | 00:00:00 | |
| DO3MHA-12 | 2026-09-01 13:52:35 | 49.02850 | 11.21711 | 56° | 24km/h | 1580m | -2.4m/s | 10.7°C | 76.2% | 851.2hPa | 2.7V | 00:00:00 | 03:23:03 | 00:00:00 | |
| DO3MHA-11 | 2026-09-01 13:52:35 | 49.02850 | 11.21711 | 56° | 24km/h | 1580m | -2.4m/s | 10.7°C | 76.2% | 851.2hPa | 2.7V | 00:00:00 | 03:23:03 | 00:00:00 | |
| DL6DJ-15 | 2026-09-01 13:52:33 | 49.02843 | 11.21695 | 58° | 24km/h | 1585m | -3.0m/s | 10.6°C | 77.0% | 850.7hPa | 2.7V | 00:00:00 | 00:00:00 | 00:00:00 | |
| DO3MHA-11 | 2026-09-01 13:52:30 | 49.02833 | 11.21671 | 57° | 26km/h | 1593m | -3.1m/s | 10.5°C | 77.4% | 849.9hPa | 2.7V | 00:00:00 | 03:22:58 | 00:00:00 | |
| DO3MHA-12 | 2026-09-01 13:52:30 | 49.02833 | 11.21671 | 57° | 26km/h | 1593m | -3.1m/s | 10.5°C | 77.4% | 849.9hPa | 2.7V | 00:00:00 | 03:22:58 | 00:00:00 | |
| DB0NH | 2026-09-01 13:52:27 | 49.02823 | 11.21647 | 60° | 27km/h | 1602m | -3.1m/s | 10.4°C | 77.9% | 849.0hPa | 2.7V | 00:00:00 | 03:22:55 | 00:00:00 | |
| DO3MHA-12 | 2026-09-01 13:52:25 | 49.02816 | 11.21629 | 65° | 29km/h | 1608m | -3.1m/s | 10.5°C | 76.9% | 848.4hPa | 2.7V | 00:00:00 | 03:22:53 | 00:00:00 | |
| DO3MHA-11 | 2026-09-01 13:52:25 | 49.02816 | 11.21629 | 65° | 29km/h | 1608m | -3.1m/s | 10.5°C | 76.9% | 848.4hPa | 2.7V | 00:00:00 | 03:22:53 | 00:00:00 | |
| NBG1-10 | 2026-09-01 13:52:21 | 49.02808 | 11.21585 | 83° | 22km/h | 1620m | -2.2m/s | 10.4°C | 76.2% | 847.1hPa | 2.7V | 00:00:00 | 03:22:49 | 00:00:00 | |
| DO3MHA-12 | 2026-09-01 13:52:20 | 49.02807 | 11.21575 | 88° | 22km/h | 1622m | -2.8m/s | 10.4°C | 76.1% | 846.9hPa | 2.7V | 00:00:00 | 03:22:48 | 00:00:00 | |
| DO3MHA-11 | 2026-09-01 13:52:20 | 49.02807 | 11.21575 | 88° | 22km/h | 1622m | -2.8m/s | 10.4°C | 76.1% | 846.9hPa | 2.7V | 00:00:00 | 03:22:48 | 00:00:00 | |
| DB0NH | 2026-09-01 13:52:17 | 49.02807 | 11.21548 | 88° | 22km/h | 1630m | -2.7m/s | 10.4°C | 76.1% | 846.1hPa | 2.7V | 07:03:00 | 03:22:45 | 00:00:00 | |
| DO3MHA-12 | 2026-09-01 13:52:15 | 49.02806 | 11.21534 | 76° | 20km/h | 1636m | -2.9m/s | 10.3°C | 76.9% | 845.6hPa | 2.7V | 00:00:00 | 03:22:43 | 00:00:00 | |
| DO3MHA-11 | 2026-09-01 13:52:15 | 49.02806 | 11.21534 | 76° | 20km/h | 1636m | -2.9m/s | 10.3°C | 76.9% | 845.6hPa | 2.7V | 07:03:00 | 03:22:43 | 00:00:00 | |
| DO3MHA-11 | 2026-09-01 13:52:10 | 49.02793 | 11.21499 | 61° | 29km/h | 1650m | -3.0m/s | 10.2°C | 78.6% | 844.1hPa | 2.7V | 00:00:00 | 03:22:38 | 00:00:00 | |
| DO3MHA-12 | 2026-09-01 13:52:10 | 49.02793 | 11.21499 | 61° | 29km/h | 1650m | -3.0m/s | 10.2°C | 78.6% | 844.1hPa | 2.7V | 00:00:00 | 03:22:38 | 00:00:00 | |
| DB0NH | 2026-09-01 13:52:07 | 49.02784 | 11.21468 | 71° | 20km/h | 1659m | -3.0m/s | 10.1°C | 79.1% | 843.2hPa | 2.7V | 00:00:00 | 03:22:35 | 00:00:00 | |
| DO3MHA-11 | 2026-09-01 13:52:05 | 49.02781 | 11.21448 | 81° | 18km/h | 1665m | -3.0m/s | 10.0°C | 79.3% | 842.6hPa | 2.7V | 00:00:00 | 03:22:33 | 00:00:00 | |
| DO3MHA-12 | 2026-09-01 13:52:05 | 49.02781 | 11.21448 | 81° | 18km/h | 1665m | -3.0m/s | 10.0°C | 79.3% | 842.6hPa | 2.7V | 00:00:00 | 03:22:33 | 00:00:00 | |
| DL6DJ-15 | 2026-09-01 13:52:02 | 49.02779 | 11.21424 | 80° | 15km/h | 1673m | -2.6m/s | 10.0°C | 79.4% | 841.7hPa | 2.7V | 00:00:00 | 00:00:00 | 00:00:00 | |
| DO3MHA-11 | 2026-09-01 13:52:00 | 49.02775 | 11.21414 | 59° | 20km/h | 1679m | -3.0m/s | 9.9°C | 79.8% | 841.2hPa | 2.7V | 00:00:00 | 03:22:28 | 00:00:00 | |
| DO3MHA-12 | 2026-09-01 13:52:00 | 49.02775 | 11.21414 | 59° | 20km/h | 1679m | -3.0m/s | 9.9°C | 79.8% | 841.2hPa | 2.7V | 07:03:00 | 03:22:28 | 00:00:00 | |
| NBG1-10 | 2026-09-01 13:51:59 | 49.02773 | 11.21408 | 51° | 22km/h | 1682m | -2.9m/s | 9.8°C | 79.7% | 840.9hPa | 2.7V | 00:00:00 | 03:22:27 | 00:00:00 | |
| DB0NH | 2026-09-01 13:51:57 | 49.02767 | 11.21397 | 52° | 26km/h | 1687m | -3.0m/s | 9.8°C | 80.4% | 840.2hPa | 2.7V | 00:00:00 | 03:22:25 | 00:00:00 | |
| DO3MHA-11 | 2026-09-01 13:51:55 | 49.02759 | 11.21380 | 59° | 29km/h | 1693m | -3.1m/s | 9.7°C | 80.3% | 839.5hPa | 2.7V | 00:00:00 | 03:22:23 | 00:00:00 | |
| DO3MHA-12 | 2026-09-01 13:51:55 | 49.02759 | 11.21380 | 59° | 29km/h | 1693m | -3.1m/s | 9.7°C | 80.3% | 839.5hPa | 2.7V | 00:00:00 | 03:22:23 | 00:00:00 | |
| DO3MHA-12 | 2026-09-01 13:51:50 | 49.02746 | 11.21330 | 75° | 18km/h | 1709m | -3.2m/s | 9.6°C | 79.5% | 838.2hPa | 2.7V | 00:00:00 | 03:22:18 | 00:00:00 | |
| DO3MHA-11 | 2026-09-01 13:51:50 | 49.02746 | 11.21330 | 75° | 18km/h | 1709m | -3.2m/s | 9.6°C | 79.5% | 838.2hPa | 2.7V | 00:00:00 | 03:22:18 | 00:00:00 | |
| DB0NH | 2026-09-01 13:51:47 | 49.02742 | 11.21310 | 63° | 20km/h | 1718m | -3.7m/s | 9.5°C | 79.7% | 837.3hPa | 2.7V | 00:00:00 | 03:22:15 | 00:00:00 | |
| DO3MHA-12 | 2026-09-01 13:51:45 | 49.02738 | 11.21301 | 49° | 18km/h | 1725m | -3.2m/s | 9.5°C | 79.9% | 836.6hPa | 2.7V | 00:00:00 | 03:22:13 | 00:00:00 | |
| DO3MHA-11 | 2026-09-01 13:51:45 | 49.02738 | 11.21301 | 49° | 18km/h | 1725m | -3.2m/s | 9.5°C | 79.9% | 836.6hPa | 2.7V | 00:00:00 | 03:22:13 | 00:00:00 | |
| DO3MHA-12 | 2026-09-01 13:51:40 | 49.02720 | 11.21275 | 49° | 27km/h | 1741m | -3.4m/s | 9.3°C | 80.6% | 834.8hPa | 2.7V | 00:00:00 | 03:22:08 | 00:00:00 | |
| DO3MHA-11 | 2026-09-01 13:51:40 | 49.02720 | 11.21275 | 49° | 27km/h | 1741m | -3.4m/s | 9.3°C | 80.6% | 834.8hPa | 2.7V | 00:00:00 | 03:22:08 | 00:00:00 | |
| DB0NH | 2026-09-01 13:51:37 | 49.02709 | 11.21248 | 66° | 22km/h | 1752m | -3.4m/s | 9.2°C | 81.0% | 833.6hPa | 2.7V | 00:00:00 | 03:22:05 | 00:00:00 | |
| NBG1-10 | 2026-09-01 13:51:37 | 49.02709 | 11.21248 | 66° | 24km/h | 1752m | -3.4m/s | 9.2°C | 81.0% | 833.6hPa | 2.7V | 07:03:00 | 03:22:05 | 00:00:00 | |
| DO3MHA-11 | 2026-09-01 13:51:35 | 49.02705 | 11.21227 | 77° | 22km/h | 1759m | -4.2m/s | 9.1°C | 81.5% | 833.2hPa | 2.7V | 07:03:00 | 03:22:03 | 00:00:00 | |
| DO3MHA-12 | 2026-09-01 13:51:35 | 49.02705 | 11.21227 | 77° | 22km/h | 1759m | -4.2m/s | 9.1°C | 81.5% | 833.2hPa | 2.7V | 00:00:00 | 03:22:03 | 00:00:00 | |
| DL6DJ-15 | 2026-09-01 13:51:31 | 49.02700 | 11.21194 | 68° | 16km/h | 1773m | -2.9m/s | 9.1°C | 80.3% | 831.5hPa | 2.7V | 00:00:00 | 00:00:00 | 00:00:00 | |
| DO3MHA-11 | 2026-09-01 13:51:30 | 49.02699 | 11.21188 | 65° | 18km/h | 1776m | -2.8m/s | 9.1°C | 80.8% | 831.2hPa | 2.7V | 00:00:00 | 03:21:58 | 00:00:00 | |
| DO3MHA-12 | 2026-09-01 13:51:30 | 49.02699 | 11.21188 | 65° | 18km/h | 1776m | -2.8m/s | 9.1°C | 80.8% | 831.2hPa | 2.7V | 00:00:00 | 03:21:58 | 00:00:00 | |
| DB0NH | 2026-09-01 13:51:27 | 49.02691 | 11.21172 | 45° | 27km/h | 1786m | -3.4m/s | 8.9°C | 81.2% | 830.4hPa | 2.7V | 00:00:00 | 03:21:55 | 00:00:00 | |
| DO3MHA-11 | 2026-09-01 13:51:25 | 49.02683 | 11.21160 | 47° | 27km/h | 1793m | -3.2m/s | 8.9°C | 82.0% | 829.6hPa | 2.7V | 00:00:00 | 03:21:53 | 00:00:00 | |
| DO3MHA-12 | 2026-09-01 13:51:25 | 49.02683 | 11.21160 | 47° | 27km/h | 1793m | -3.2m/s | 8.9°C | 82.0% | 829.6hPa | 2.7V | 00:00:00 | 03:21:53 | 00:00:00 | |
| DO3MHA-11 | 2026-09-01 13:51:20 | 49.02660 | 11.21119 | 58° | 27km/h | 1811m | -3.8m/s | 8.7°C | 82.4% | 827.8hPa | 2.7V | 00:00:00 | 03:21:48 | 00:00:00 | |
| DO3MHA-12 | 2026-09-01 13:51:20 | 49.02660 | 11.21119 | 58° | 27km/h | 1811m | -3.8m/s | 8.7°C | 82.4% | 827.8hPa | 2.7V | 07:04:00 | 03:21:48 | 00:00:00 | |
| DO3MHA-12 | 2026-09-01 13:51:15 | 49.02650 | 11.21071 | 75° | 18km/h | 1828m | -3.3m/s | 8.5°C | 83.3% | 826.1hPa | 2.7V | 00:00:00 | 03:21:43 | 00:00:00 | |
| NBG1-10 | 2026-09-01 13:51:15 | 49.02650 | 11.21071 | 75° | 24km/h | 1828m | -3.3m/s | 8.5°C | 83.3% | 826.1hPa | 2.7V | 00:00:00 | 03:21:43 | 00:00:00 | |
| DO3MHA-11 | 2026-09-01 13:51:15 | 49.02650 | 11.21071 | 75° | 18km/h | 1828m | -3.3m/s | 8.5°C | 83.3% | 826.1hPa | 2.7V | 00:00:00 | 03:21:43 | 00:00:00 | |
| DO3MHA-11 | 2026-09-01 13:51:10 | 49.02638 | 11.21042 | 40° | 26km/h | 1846m | -3.9m/s | 8.3°C | 83.9% | 824.4hPa | 2.7V | 00:00:00 | 03:21:38 | 00:00:00 | |
| DO3MHA-12 | 2026-09-01 13:51:10 | 49.02638 | 11.21042 | 40° | 26km/h | 1846m | -3.9m/s | 8.3°C | 83.9% | 824.4hPa | 2.7V | 00:00:00 | 03:21:38 | 00:00:00 | |
| DB0NH | 2026-09-01 13:51:07 | 49.02625 | 11.21023 | 48° | 29km/h | 1857m | -3.4m/s | 8.3°C | 84.6% | 823.3hPa | 2.7V | 00:00:00 | 03:21:35 | 00:00:00 | |
| DO3MHA-12 | 2026-09-01 13:51:05 | 49.02616 | 11.21005 | 60° | 31km/h | 1864m | -3.8m/s | 8.2°C | 85.2% | 822.5hPa | 2.7V | 00:00:00 | 03:21:33 | 00:00:00 | |
| DO3MHA-11 | 2026-09-01 13:51:05 | 49.02616 | 11.21005 | 60° | 31km/h | 1864m | -3.8m/s | 8.2°C | 85.2% | 822.5hPa | 2.7V | 00:00:00 | 03:21:33 | 00:00:00 | |
| DL6DJ-15 | 2026-09-01 13:51:00 | 49.02602 | 11.20950 | 76° | 26km/h | 1880m | -3.3m/s | 8.3°C | 77.5% | 821.0hPa | 2.7V | 00:00:00 | 00:00:00 | 00:00:00 | |
| DO3MHA-12 | 2026-09-01 13:51:00 | 49.02602 | 11.20950 | 77° | 22km/h | 1880m | -3.3m/s | 8.3°C | 77.9% | 821.0hPa | 2.7V | 00:00:00 | 03:21:28 | 00:00:00 | |
| DO3MHA-11 | 2026-09-01 13:51:00 | 49.02602 | 11.20950 | 77° | 22km/h | 1880m | -3.3m/s | 8.3°C | 77.9% | 821.0hPa | 2.7V | 00:00:00 | 03:21:28 | 00:00:00 | |
| DB0NH | 2026-09-01 13:50:57 | 49.02597 | 11.20925 | 64° | 27km/h | 1889m | -3.0m/s | 8.1°C | 84.0% | 820.2hPa | 2.7V | 07:04:00 | 03:21:25 | 00:00:00 | |
| DO3MHA-12 | 2026-09-01 13:50:55 | 49.02591 | 11.20912 | 45° | 27km/h | 1896m | -2.9m/s | 8.0°C | 84.9% | 819.6hPa | 2.7V | 00:00:00 | 03:21:23 | 00:00:00 | |
| DO3MHA-11 | 2026-09-01 13:50:55 | 49.02591 | 11.20912 | 45° | 27km/h | 1896m | -2.9m/s | 8.0°C | 84.9% | 819.6hPa | 2.7V | 07:04:00 | 03:21:23 | 00:00:00 | |
| NBG1-10 | 2026-09-01 13:50:53 | 49.02581 | 11.20899 | 40° | 29km/h | 1902m | -2.9m/s | 7.9°C | 86.6% | 818.9hPa | 2.7V | 00:00:00 | 03:21:21 | 00:00:00 | |
| DO3MHA-11 | 2026-09-01 13:50:50 | 49.02566 | 11.20874 | 56° | 31km/h | 1910m | -3.0m/s | 7.9°C | 84.8% | 818.0hPa | 2.7V | 00:00:00 | 03:21:18 | 00:00:00 | |
| DO3MHA-12 | 2026-09-01 13:50:50 | 49.02566 | 11.20874 | 56° | 31km/h | 1910m | -3.0m/s | 7.9°C | 84.8% | 818.0hPa | 2.7V | 00:00:00 | 03:21:18 | 00:00:00 | |
| DB0NH | 2026-09-01 13:50:47 | 49.02555 | 11.20840 | 71° | 29km/h | 1919m | -3.3m/s | 8.0°C | 76.9% | 817.1hPa | 2.7V | 00:00:00 | 03:21:15 | 00:00:00 | |
| DO3MHA-11 | 2026-09-01 13:50:45 | 49.02550 | 11.20819 | 71° | 26km/h | 1925m | -3.4m/s | 8.0°C | 77.6% | 816.4hPa | 2.7V | 00:00:00 | 03:21:13 | 00:00:00 | |
| DO3MHA-12 | 2026-09-01 13:50:45 | 49.02550 | 11.20819 | 71° | 26km/h | 1925m | -3.4m/s | 8.0°C | 77.6% | 816.4hPa | 2.7V | 00:00:00 | 03:21:13 | 00:00:00 | |
| DO3MHA-11 | 2026-09-01 13:50:40 | 49.02532 | 11.20777 | 49° | 33km/h | 1940m | -2.9m/s | 7.8°C | 77.2% | 815.2hPa | 2.7V | 00:00:00 | 03:21:08 | 00:00:00 | |
| DO3MHA-12 | 2026-09-01 13:50:40 | 49.02532 | 11.20777 | 49° | 33km/h | 1940m | -2.9m/s | 7.8°C | 77.2% | 815.2hPa | 2.7V | 07:04:00 | 03:21:08 | 00:00:00 | |
| DB0NH | 2026-09-01 13:50:37 | 49.02518 | 11.20745 | 61° | 29km/h | 1950m | -2.9m/s | 7.8°C | 77.5% | 814.2hPa | 2.7V | 00:00:00 | 03:21:05 | 00:00:00 | |
| DO3MHA-11 | 2026-09-01 13:50:35 | 49.02512 | 11.20721 | 75° | 27km/h | 1955m | -3.0m/s | 7.8°C | 77.0% | 813.6hPa | 2.7V | 00:00:00 | 03:21:03 | 00:00:00 | |
| DO3MHA-12 | 2026-09-01 13:50:35 | 49.02512 | 11.20721 | 75° | 27km/h | 1955m | -3.0m/s | 7.8°C | 77.0% | 813.6hPa | 2.7V | 00:00:00 | 03:21:03 | 00:00:00 | |
| NBG1-10 | 2026-09-01 13:50:31 | 49.02504 | 11.20679 | 67° | 31km/h | 1967m | -3.1m/s | 7.6°C | 77.6% | 812.5hPa | 2.7V | 00:00:00 | 03:20:59 | 00:00:00 | |
| DL6DJ-15 | 2026-09-01 13:50:29 | 49.02493 | 11.20656 | 48° | 29km/h | 1975m | -2.8m/s | 7.6°C | 77.4% | 811.6hPa | 2.7V | 00:00:00 | 00:00:00 | 00:00:00 | |
| DB0NH | 2026-09-01 13:50:27 | 49.02488 | 11.20647 | 46° | 33km/h | 1978m | -2.8m/s | 7.5°C | 77.5% | 811.2hPa | 2.7V | 00:00:00 | 03:20:55 | 00:00:00 | |
| DO3MHA-12 | 2026-09-01 13:50:25 | 49.02477 | 11.20627 | 56° | 37km/h | 1984m | -2.7m/s | 7.5°C | 78.7% | 810.7hPa | 2.7V | 00:00:00 | 03:20:53 | 00:00:00 | |
| DO3MHA-11 | 2026-09-01 13:50:25 | 49.02477 | 11.20627 | 56° | 37km/h | 1984m | -2.7m/s | 7.5°C | 78.7% | 810.7hPa | 2.7V | 00:00:00 | 03:20:53 | 00:00:00 | |
| DO3MHA-12 | 2026-09-01 13:50:20 | 49.02458 | 11.20563 | 76° | 26km/h | 1998m | -3.0m/s | 7.4°C | 76.5% | 809.4hPa | 2.7V | 00:00:00 | 03:20:48 | 00:00:00 | |
| DO3MHA-11 | 2026-09-01 13:50:20 | 49.02458 | 11.20563 | 76° | 26km/h | 1998m | -3.0m/s | 7.4°C | 76.5% | 809.4hPa | 2.7V | 00:00:00 | 03:20:48 | 00:00:00 | |
| DB0NH | 2026-09-01 13:50:17 | 49.02453 | 11.20534 | 66° | 33km/h | 2007m | -3.3m/s | 7.3°C | 77.0% | 808.5hPa | 2.7V | 00:00:00 | 03:20:45 | 00:00:00 | |
| DO3MHA-11 | 2026-09-01 13:50:15 | 49.02446 | 11.20518 | 56° | 31km/h | 2013m | -3.1m/s | 7.3°C | 77.1% | 808.0hPa | 2.7V | 07:05:00 | 03:20:43 | 00:00:00 | |
| DO3MHA-12 | 2026-09-01 13:50:10 | 49.02423 | 11.20465 | 60° | 38km/h | 2028m | -3.2m/s | 7.1°C | 78.2% | 806.4hPa | 2.7V | 00:00:00 | 03:20:38 | 00:00:00 | |
| NBG1-10 | 2026-09-01 13:50:09 | 49.02418 | 11.20453 | 59° | 33km/h | 2032m | -3.5m/s | 7.1°C | 78.2% | 806.1hPa | 2.7V | 00:00:00 | 03:20:37 | 00:00:00 | |
| DO3MHA-12 | 2026-09-01 13:50:05 | 49.02401 | 11.20399 | 67° | 37km/h | 2045m | -3.6m/s | 6.8°C | 80.1% | 804.8hPa | 2.7V | 00:00:00 | 03:20:33 | 00:00:00 | |
| DL6DJ-15 | 2026-09-01 13:49:58 | 49.02385 | 11.20300 | 74° | 22km/h | 2071m | -3.7m/s | 6.7°C | 79.8% | 802.3hPa | 2.7V | 00:00:00 | 00:00:00 | 00:00:00 | |
| DB0NH | 2026-09-01 13:49:57 | 49.02385 | 11.20300 | 75° | 31km/h | 2071m | -3.6m/s | 6.6°C | 80.4% | 802.2hPa | 2.7V | 00:00:00 | 03:20:25 | 00:00:00 | |
| DO3MHA-12 | 2026-09-01 13:49:55 | 49.02381 | 11.20284 | 64° | 29km/h | 2077m | -2.6m/s | 6.6°C | 81.1% | 801.6hPa | 2.7V | 00:00:00 | 03:20:23 | 00:00:00 | |
| DO3MHA-12 | 2026-09-01 13:49:50 | 49.02362 | 11.20232 | 66° | 35km/h | 2093m | -3.1m/s | 6.4°C | 83.3% | 800.1hPa | 2.7V | 00:00:00 | 03:20:18 | 00:00:00 | |
| NBG1-10 | 2026-09-01 13:49:47 | 49.02355 | 11.20192 | 84° | 31km/h | 2102m | -3.0m/s | 6.3°C | 84.2% | 799.1hPa | 2.7V | 00:00:00 | 03:20:15 | 00:00:00 | |
| DO3MHA-11 | 2026-09-01 13:49:45 | 49.02354 | 11.20167 | 87° | 27km/h | 2109m | -3.8m/s | 6.2°C | 83.4% | 798.5hPa | 2.7V | 00:00:00 | 03:20:13 | 00:00:00 | |
| DO3MHA-11 | 2026-09-01 13:49:40 | 49.02345 | 11.20116 | 61° | 35km/h | 2125m | -3.5m/s | 6.1°C | 83.7% | 797.1hPa | 2.7V | 00:00:00 | 03:20:08 | 00:00:00 | |
| DB0NH | 2026-09-01 13:49:37 | 49.02332 | 11.20082 | 62° | 33km/h | 2135m | -3.6m/s | 5.9°C | 84.8% | 796.0hPa | 2.7V | 00:00:00 | 03:20:05 | 00:00:00 | |
| DO3MHA-11 | 2026-09-01 13:49:35 | 49.02323 | 11.20055 | 67° | 38km/h | 2143m | -3.7m/s | 5.9°C | 86.2% | 795.1hPa | 2.7V | 07:05:00 | 03:20:03 | 00:00:00 | |
| DO3MHA-11 | 2026-09-01 13:49:30 | 49.02311 | 11.19987 | 80° | 26km/h | 2161m | -3.0m/s | 5.6°C | 88.4% | 793.4hPa | 2.7V | 00:00:00 | 03:19:58 | 00:00:00 | |
| DL6DJ-15 | 2026-09-01 13:49:27 | 49.02304 | 11.19949 | 67° | 26km/h | 2175m | -2.9m/s | 5.6°C | 87.4% | 792.2hPa | 2.7V | 00:00:00 | 00:00:00 | 00:00:00 | |
| DO3MHA-12 | 2026-09-01 13:49:25 | 49.02301 | 11.19940 | 58° | 31km/h | 2178m | -3.5m/s | 5.5°C | 88.3% | 791.8hPa | 2.7V | 00:00:00 | 03:19:53 | 00:00:00 | |
| DO3MHA-12 | 2026-09-01 13:49:20 | 49.02281 | 11.19885 | 65° | 35km/h | 2194m | -3.4m/s | 5.3°C | 89.2% | 790.1hPa | 2.7V | 07:06:00 | 03:19:48 | 00:00:00 | |
| DB0NH | 2026-09-01 13:49:17 | 49.02273 | 11.19846 | 84° | 33km/h | 2202m | -2.3m/s | 5.3°C | 88.6% | 789.5hPa | 2.7V | 00:00:00 | 03:19:45 | 00:00:00 | |
| DO3MHA-12 | 2026-09-01 13:49:15 | 49.02271 | 11.19820 | 84° | 27km/h | 2207m | -2.9m/s | 5.3°C | 87.4% | 788.9hPa | 2.7V | 00:00:00 | 03:19:43 | 00:00:00 | |
| DO3MHA-12 | 2026-09-01 13:49:10 | 49.02260 | 11.19771 | 60° | 33km/h | 2224m | -3.1m/s | 5.2°C | 88.6% | 787.3hPa | 2.7V | 00:00:00 | 03:19:38 | 00:00:00 | |
| DO3MHA-11 | 2026-09-01 13:49:05 | 49.02239 | 11.19713 | 64° | 38km/h | 2239m | -3.8m/s | 5.0°C | 90.5% | 785.8hPa | 2.7V | 00:00:00 | 03:19:33 | 00:00:00 | |
| NBG1-10 | 2026-09-01 13:49:03 | 49.02231 | 11.19684 | 71° | 35km/h | 2246m | -3.6m/s | 4.9°C | 91.0% | 785.1hPa | 2.7V | 00:00:00 | 03:19:31 | 00:00:00 | |
| DO3MHA-11 | 2026-09-01 13:49:00 | 49.02223 | 11.19642 | 78° | 29km/h | 2257m | -3.9m/s | 4.8°C | 91.2% | 784.1hPa | 2.7V | 00:00:00 | 03:19:28 | 00:00:00 | |
| DB0NH | 2026-09-01 13:48:57 | 49.02219 | 11.19608 | 79° | 33km/h | 2269m | -3.2m/s | 4.8°C | 89.4% | 783.0hPa | 2.7V | 07:06:00 | 03:19:25 | 00:00:00 | |
| DO3MHA-11 | 2026-09-01 13:48:50 | 49.02195 | 11.19531 | 64° | 38km/h | 2291m | -3.1m/s | 4.5°C | 91.1% | 780.8hPa | 2.7V | 00:00:00 | 03:19:18 | 00:00:00 | |
| DO3MHA-12 | 2026-09-01 13:48:45 | 49.02181 | 11.19460 | 78° | 31km/h | 2310m | -3.6m/s | 4.3°C | 93.5% | 779.1hPa | 2.7V | 00:00:00 | 03:19:13 | 00:00:00 | |
| NBG1-10 | 2026-09-01 13:48:41 | 49.02172 | 11.19414 | 67° | 37km/h | 2324m | -3.6m/s | 4.2°C | 94.2% | 777.6hPa | 2.7V | 07:06:00 | 03:19:09 | 00:00:00 | |
| DO3MHA-12 | 2026-09-01 13:48:40 | 49.02169 | 11.19403 | 58° | 37km/h | 2328m | -3.6m/s | 4.1°C | 94.2% | 777.4hPa | 2.7V | 07:06:00 | 03:19:08 | 00:00:00 | |
| DB0NH | 2026-09-01 13:48:37 | 49.02154 | 11.19369 | 58° | 37km/h | 2338m | -3.3m/s | 4.0°C | 93.6% | 776.3hPa | 2.7V | 00:00:00 | 03:19:05 | 00:00:00 | |
| DO3MHA-12 | 2026-09-01 13:48:35 | 49.02145 | 11.19342 | 66° | 40km/h | 2345m | -3.5m/s | 3.9°C | 94.3% | 775.7hPa | 2.7V | 00:00:00 | 03:19:03 | 00:00:00 | |
| DL0LBS | 2026-09-01 13:48:32 | 49.02137 | 11.19312 | 73° | 40km/h | 2352m | -3.5m/s | 3.8°C | 93.8% | 775.1hPa | 2.7V | 07:07:00 | 00:00:00 | 00:00:00 | |
| DO3MHA-12 | 2026-09-01 13:48:30 | 49.02131 | 11.19270 | 82° | 29km/h | 2363m | -3.6m/s | 3.5°C | 97.6% | 774.1hPa | 2.7V | 00:00:00 | 03:18:58 | 00:00:00 | |
| DL6DJ-15 | 2026-09-01 13:48:25 | 49.02114 | 11.19207 | 57° | 33km/h | 2384m | -4.1m/s | 3.5°C | 99.6% | 772.2hPa | 2.7V | 00:00:00 | 00:00:00 | 00:00:00 | |
| DO3MHA-11 | 2026-09-01 13:48:20 | 49.02095 | 11.19153 | 69° | 40km/h | 2399m | -3.4m/s | 3.4°C | 0% | 770.8hPa | 2.7V | 00:00:00 | 03:18:48 | 00:00:00 | |
| NBG1-10 | 2026-09-01 13:48:19 | 49.02091 | 11.19137 | 71° | 37km/h | 2402m | -3.0m/s | 3.3°C | 0% | 770.6hPa | 2.7V | 00:00:00 | 03:18:47 | 00:00:00 | |
| DB0NH | 2026-09-01 13:48:17 | 49.02085 | 11.19106 | 78° | 37km/h | 2408m | -2.1m/s | 3.2°C | 0% | 770.1hPa | 2.7V | 00:00:00 | 03:18:45 | 00:00:00 | |
| DO3MHA-11 | 2026-09-01 13:48:15 | 49.02081 | 11.19080 | 74° | 31km/h | 2412m | -3.0m/s | 3.3°C | 0% | 769.7hPa | 2.7V | 07:07:00 | 03:18:43 | 00:00:00 | |
| DO3MHA-11 | 2026-09-01 13:48:10 | 49.02063 | 11.19028 | 53° | 38km/h | 2429m | -3.1m/s | 3.2°C | 0% | 768.2hPa | 2.7V | 00:00:00 | 03:18:38 | 00:00:00 | |
| DO3MHA-12 | 2026-09-01 13:48:05 | 49.02034 | 11.18965 | 61° | 40km/h | 2445m | -3.0m/s | 3.1°C | 93.0% | 766.6hPa | 2.7V | 00:00:00 | 03:18:33 | 00:00:00 | |
| DL6DJ-15 | 2026-09-01 13:47:54 | 49.01991 | 11.18822 | 52° | 37km/h | 2480m | -2.8m/s | 3.1°C | 98.7% | 763.2hPa | 2.7V | 00:00:00 | 00:00:00 | 00:00:00 | |
| DO3MHA-12 | 2026-09-01 13:47:50 | 49.01973 | 11.18783 | 60° | 42km/h | 2489m | -2.6m/s | 2.9°C | 0% | 762.5hPa | 2.7V | 00:00:00 | 03:18:18 | 00:00:00 | |
| DL0LBS | 2026-09-01 13:47:49 | 49.01973 | 11.18783 | 61° | 42km/h | 2489m | -2.7m/s | 2.9°C | 101.7% | 762.6hPa | 2.7V | 07:07:00 | 00:00:00 | 00:00:00 | |
| DO3MHA-11 | 2026-09-01 13:47:45 | 49.01953 | 11.18710 | 75° | 31km/h | 2502m | -2.7m/s | 3.2°C | 90.1% | 761.2hPa | 2.7V | 00:00:00 | 03:18:13 | 00:00:00 | |
| DO3MHA-11 | 2026-09-01 13:47:40 | 49.01938 | 11.18657 | 54° | 33km/h | 2516m | -2.6m/s | 3.1°C | 86.2% | 760.0hPa | 2.7V | 00:00:00 | 03:18:08 | 00:00:00 | |
| DB0NH | 2026-09-01 13:47:37 | 49.01922 | 11.18627 | 52° | 37km/h | 2523m | -2.8m/s | 2.9°C | 90.6% | 759.2hPa | 2.7V | 00:00:00 | 03:18:05 | 00:00:00 | |
| DO3MHA-11 | 2026-09-01 13:47:35 | 49.01911 | 11.18603 | 58° | 40km/h | 2529m | -2.7m/s | 2.9°C | 88.8% | 758.6hPa | 2.7V | 07:07:00 | 03:18:03 | 00:00:00 | |
| DO3MHA-12 | 2026-09-01 13:47:30 | 49.01891 | 11.18532 | 75° | 31km/h | 2542m | -2.5m/s | 2.9°C | 87.7% | 757.5hPa | 2.7V | 00:00:00 | 03:17:58 | 00:00:00 | |
| DL0LBS | 2026-09-01 13:47:28 | 49.01888 | 11.18519 | 76° | 33km/h | 2545m | -2.5m/s | 3.0°C | 86.7% | 757.2hPa | 2.7V | 00:00:00 | 00:00:00 | 00:00:00 | |
| DO3MHA-12 | 2026-09-01 13:47:25 | 49.01879 | 11.18476 | 63° | 31km/h | 2555m | -2.7m/s | 2.9°C | 86.1% | 756.2hPa | 2.7V | 00:00:00 | 03:17:53 | 00:00:00 | |
| DL6DJ-15 | 2026-09-01 13:47:22 | 49.01866 | 11.18447 | 53° | 33km/h | 2563m | -2.6m/s | 2.8°C | 85.5% | 755.5hPa | 2.7V | 00:00:00 | 00:00:00 | 00:00:00 | |
| DO3MHA-11 | 2026-09-01 13:47:20 | 49.01855 | 11.18424 | 58° | 42km/h | 2568m | -2.3m/s | 2.7°C | 86.3% | 755.1hPa | 2.7V | 00:00:00 | 03:17:48 | 00:00:00 | |
| DB0NH | 2026-09-01 13:47:17 | 49.01840 | 11.18381 | 67° | 37km/h | 2575m | -2.4m/s | 2.7°C | 86.4% | 754.3hPa | 2.7V | 00:00:00 | 03:17:45 | 00:00:00 | |
| DO3MHA-11 | 2026-09-01 13:47:15 | 49.01833 | 11.18351 | 73° | 38km/h | 2580m | -2.6m/s | 2.7°C | 86.7% | 753.9hPa | 2.7V | 00:00:00 | 03:17:43 | 00:00:00 | |
| NBG1-10 | 2026-09-01 13:47:13 | 49.01827 | 11.18321 | 77° | 35km/h | 2585m | -2.4m/s | 2.6°C | 86.5% | 753.5hPa | 2.7V | 00:00:00 | 03:17:41 | 00:00:00 | |
| DO3MHA-12 | 2026-09-01 13:47:10 | 49.01821 | 11.18282 | 77° | 29km/h | 2592m | -2.3m/s | 2.6°C | 86.7% | 752.8hPa | 2.7V | 00:00:00 | 03:17:38 | 00:00:00 | |
| DL0LBS | 2026-09-01 13:47:07 | 49.01817 | 11.18261 | 67° | 27km/h | 2597m | -2.2m/s | 2.7°C | 84.8% | 752.4hPa | 2.7V | 00:00:00 | 00:00:00 | 00:00:00 | |
| DO3MHA-11 | 2026-09-01 13:47:05 | 49.01805 | 11.18231 | 56° | 38km/h | 2603m | -2.0m/s | 2.4°C | 87.0% | 751.7hPa | 2.7V | 00:00:00 | 03:17:33 | 00:00:00 | |
| DK5PH-5 | 2026-09-01 13:47:04 | 49.01800 | 11.18219 | 58° | 38km/h | 2605m | -1.6m/s | 2.3°C | 88.9% | 751.5hPa | 2.7V | 00:00:00 | 03:17:32 | 00:00:00 | |
| DO3MHA-11 | 2026-09-01 13:47:00 | 49.01782 | 11.18163 | 72° | 38km/h | 2613m | -1.9m/s | 2.4°C | 87.7% | 750.8hPa | 2.7V | 00:00:00 | 03:17:28 | 00:00:00 | |
| DB0NH | 2026-09-01 13:46:57 | 49.01775 | 11.18119 | 79° | 35km/h | 2619m | -2.2m/s | 2.5°C | 84.4% | 750.4hPa | 2.7V | 00:00:00 | 03:17:25 | 00:00:00 | |
| DO3MHA-11 | 2026-09-01 13:46:55 | 49.01771 | 11.18093 | 79° | 29km/h | 2623m | -2.1m/s | 2.4°C | 84.7% | 749.8hPa | 2.7V | 07:08:00 | 03:17:23 | 00:00:00 | |
| NBG1-10 | 2026-09-01 13:46:51 | 49.01762 | 11.18052 | 64° | 35km/h | 2633m | -2.3m/s | 2.4°C | 81.1% | 749.2hPa | 2.7V | 00:00:00 | 03:17:19 | 00:00:00 | |
| DO3MHA-12 | 2026-09-01 13:46:50 | 49.01759 | 11.18043 | 58° | 35km/h | 2635m | -2.5m/s | 2.5°C | 79.4% | 748.8hPa | 2.7V | 00:00:00 | 03:17:18 | 00:00:00 | |
| DL0LBS | 2026-09-01 13:46:46 | 49.01744 | 11.18011 | 59° | 38km/h | 2642m | -2.2m/s | 2.6°C | 77.6% | 748.3hPa | 2.7V | 00:00:00 | 00:00:00 | 00:00:00 | |
| DO3MHA-12 | 2026-09-01 13:46:45 | 49.01735 | 11.17984 | 66° | 38km/h | 2647m | -2.4m/s | 2.6°C | 75.8% | 747.8hPa | 2.7V | 00:00:00 | 03:17:13 | 00:00:00 | |
| DO3MHA-12 | 2026-09-01 13:46:40 | 49.01722 | 11.17913 | 81° | 29km/h | 2660m | -2.3m/s | 2.8°C | 67.6% | 746.8hPa | 2.7V | 07:08:00 | 03:17:08 | 00:00:00 | |
| DB0NH | 2026-09-01 13:46:37 | 49.01717 | 11.17879 | 72° | 33km/h | 2666m | -1.8m/s | 2.8°C | 67.4% | 746.0hPa | 2.7V | 00:00:00 | 03:17:05 | 00:00:00 | |
| DO3MHA-12 | 2026-09-01 13:46:35 | 49.01711 | 11.17860 | 57° | 33km/h | 2670m | -2.0m/s | 2.7°C | 67.4% | 745.6hPa | 2.7V | 00:00:00 | 03:17:03 | 00:00:00 | |
| DO3MHA-12 | 2026-09-01 13:46:30 | 49.01687 | 11.17806 | 65° | 38km/h | 2680m | -2.2m/s | 2.5°C | 68.6% | 744.7hPa | 2.7V | 00:00:00 | 03:16:58 | 00:00:00 | |
| NBG1-10 | 2026-09-01 13:46:29 | 49.01683 | 11.17792 | 69° | 33km/h | 2682m | -2.1m/s | 2.6°C | 67.1% | 744.7hPa | 2.7V | 00:00:00 | 03:16:57 | 00:00:00 | |
| DO3MHA-11 | 2026-09-01 13:46:25 | 49.01674 | 11.17738 | 78° | 29km/h | 2690m | -2.0m/s | 2.5°C | 68.8% | 743.7hPa | 2.7V | 00:00:00 | 03:16:53 | 00:00:00 | |
| DK5PH-5 | 2026-09-01 13:46:23 | 49.01669 | 11.17717 | 68° | 33km/h | 2694m | -1.7m/s | 2.6°C | 65.9% | 743.4hPa | 2.7V | 00:00:00 | 03:16:51 | 00:00:00 | |
| DO3MHA-11 | 2026-09-01 13:46:20 | 49.01658 | 11.17687 | 57° | 38km/h | 2700m | -1.9m/s | 2.7°C | 60.5% | 742.9hPa | 2.7V | 00:00:00 | 03:16:48 | 00:00:00 | |
| DB0NH | 2026-09-01 13:46:17 | 49.01644 | 11.17649 | 66° | 35km/h | 2705m | -1.8m/s | 2.6°C | 60.7% | 742.3hPa | 2.7V | 07:09:00 | 03:16:45 | 00:00:00 | |
| DO3MHA-11 | 2026-09-01 13:46:15 | 49.01637 | 11.17621 | 74° | 33km/h | 2709m | -1.6m/s | 2.6°C | 60.3% | 742.0hPa | 2.7V | 07:09:00 | 03:16:43 | 00:00:00 | |
| DO3MHA-12 | 2026-09-01 13:46:10 | 49.01628 | 11.17560 | 73° | 29km/h | 2718m | -2.0m/s | 2.6°C | 61.2% | 741.1hPa | 2.7V | 00:00:00 | 03:16:38 | 00:00:00 | |
| NBG1-10 | 2026-09-01 13:46:07 | 49.01619 | 11.17532 | 58° | 37km/h | 2724m | -1.6m/s | 2.5°C | 61.9% | 740.6hPa | 2.7V | 00:00:00 | 03:16:35 | 00:00:00 | |
| DO3MHA-12 | 2026-09-01 13:46:05 | 49.01610 | 11.17510 | 59° | 40km/h | 2727m | -1.6m/s | 2.4°C | 62.8% | 740.2hPa | 2.7V | 00:00:00 | 03:16:33 | 00:00:00 | |
| DK5PH-5 | 2026-09-01 13:46:03 | 49.01601 | 11.17484 | 66° | 37km/h | 2731m | -1.9m/s | 2.4°C | 59.8% | 740.0hPa | 2.7V | 00:00:00 | 03:16:31 | 00:00:00 | |
| DL6DJ-15 | 2026-09-01 13:45:49 | 49.01563 | 11.17305 | 61° | 38km/h | 2757m | -2.1m/s | 2.3°C | 57.4% | 737.7hPa | 2.7V | 00:00:00 | 00:00:00 | 00:00:00 | |
| DO3MHA-11 | 2026-09-01 13:45:45 | 49.01548 | 11.17247 | 77° | 35km/h | 2765m | -1.8m/s | 2.6°C | 49.0% | 736.8hPa | 2.7V | 00:00:00 | 03:16:13 | 00:00:00 | |
| DK5PH-5 | 2026-09-01 13:45:43 | 49.01545 | 11.17218 | 85° | 35km/h | 2769m | -1.7m/s | 2.6°C | 48.7% | 736.4hPa | 2.7V | 00:00:00 | 03:16:11 | 00:00:00 | |
| DO3MHA-11 | 2026-09-01 13:45:40 | 49.01542 | 11.17182 | 77° | 31km/h | 2774m | -1.7m/s | 2.6°C | 49.0% | 736.1hPa | 2.7V | 00:00:00 | 03:16:08 | 00:00:00 | |
| DB0NH | 2026-09-01 13:45:37 | 49.01534 | 11.17151 | 63° | 37km/h | 2780m | -1.9m/s | 2.5°C | 48.9% | 735.6hPa | 2.7V | 00:00:00 | 03:16:05 | 00:00:00 | |
| DO3MHA-11 | 2026-09-01 13:45:35 | 49.01525 | 11.17126 | 65° | 42km/h | 2784m | -2.0m/s | 2.6°C | 47.3% | 735.1hPa | 2.7V | 07:09:00 | 03:16:03 | 00:00:00 | |
| DO3MHA-11 | 2026-09-01 13:45:30 | 49.01509 | 11.17050 | 81° | 37km/h | 2794m | -1.9m/s | 2.8°C | 42.3% | 734.2hPa | 2.7V | 00:00:00 | 03:15:58 | 00:00:00 | |
| DO3MHA-11 | 2026-09-01 13:45:25 | 49.01505 | 11.16982 | 81° | 31km/h | 2804m | -2.1m/s | 2.8°C | 42.3% | 733.4hPa | 2.7V | 00:00:00 | 03:15:53 | 00:00:00 | |
| DL0LBS | 2026-09-01 13:45:24 | 49.01505 | 11.16982 | 81° | 29km/h | 2804m | -2.1m/s | 2.8°C | 41.8% | 733.5hPa | 2.7V | 07:10:00 | 00:00:00 | 00:00:00 | |
| NBG1-10 | 2026-09-01 13:45:23 | 49.01501 | 11.16960 | 69° | 37km/h | 2808m | -2.2m/s | 2.7°C | 42.0% | 733.1hPa | 2.7V | 00:00:00 | 03:15:51 | 00:00:00 | |
| DO3MHA-12 | 2026-09-01 13:45:20 | 49.01490 | 11.16925 | 64° | 42km/h | 2815m | -2.0m/s | 2.6°C | 41.6% | 732.4hPa | 2.7V | 07:10:00 | 03:15:48 | 00:00:00 | |
| DL6DJ-15 | 2026-09-01 13:45:18 | 49.01481 | 11.16897 | 68° | 42km/h | 2819m | -2.2m/s | 2.6°C | 40.7% | 732.0hPa | 2.7V | 00:00:00 | 00:00:00 | 00:00:00 | |
| DB0NH | 2026-09-01 13:45:17 | 49.01477 | 11.16881 | 72° | 38km/h | 2821m | -2.1m/s | 2.6°C | 41.1% | 731.8hPa | 2.7V | 00:00:00 | 03:15:45 | 00:00:00 | |
| DO3MHA-12 | 2026-09-01 13:45:15 | 49.01472 | 11.16849 | 80° | 38km/h | 2825m | -2.2m/s | 2.6°C | 41.2% | 731.5hPa | 2.7V | 00:00:00 | 03:15:43 | 00:00:00 | |
| DO3MHA-12 | 2026-09-01 13:45:10 | 49.01467 | 11.16779 | 81° | 31km/h | 2835m | -1.7m/s | 2.6°C | 41.1% | 730.6hPa | 2.7V | 00:00:00 | 03:15:38 | 00:00:00 | |
| DO3MHA-12 | 2026-09-01 13:45:05 | 49.01452 | 11.16723 | 64° | 42km/h | 2845m | -1.8m/s | 2.6°C | 38.3% | 729.7hPa | 2.7V | 00:00:00 | 03:15:33 | 00:00:00 | |
| DL0LBS | 2026-09-01 13:45:04 | 49.01452 | 11.16723 | 65° | 38km/h | 2845m | -1.9m/s | 2.6°C | 37.8% | 729.7hPa | 2.7V | 07:10:00 | 00:00:00 | 00:00:00 | |
| DK5PH-5 | 2026-09-01 13:45:03 | 49.01443 | 11.16695 | 68° | 38km/h | 2849m | -1.8m/s | 2.5°C | 38.1% | 729.3hPa | 2.7V | 07:10:00 | 03:15:31 | 00:00:00 | |
| DL6DJ-15 | 2026-09-01 13:44:47 | 49.01400 | 11.16476 | 63° | 38km/h | 2873m | -1.2m/s | 2.4°C | 36.6% | 727.2hPa | 2.7V | 00:00:00 | 00:00:00 | 00:00:00 | |
| DO3MHA-12 | 2026-09-01 13:44:45 | 49.01391 | 11.16448 | 66° | 42km/h | 2875m | -1.0m/s | 2.4°C | 36.9% | 726.9hPa | 2.7V | 00:00:00 | 03:15:13 | 00:00:00 | |
| DK5PH-5 | 2026-09-01 13:44:43 | 49.01383 | 11.16419 | 72° | 37km/h | 2877m | -1.1m/s | 2.3°C | 37.4% | 726.7hPa | 2.7V | 00:00:00 | 03:15:11 | 00:00:00 | |
| DO3MHA-12 | 2026-09-01 13:44:40 | 49.01376 | 11.16370 | 80° | 42km/h | 2881m | -1.4m/s | 2.3°C | 37.4% | 726.4hPa | 2.7V | 07:10:00 | 03:15:08 | 00:00:00 | |
| NBG1-10 | 2026-09-01 13:44:39 | 49.01374 | 11.16354 | 82° | 37km/h | 2882m | -2.0m/s | 2.3°C | 37.5% | 726.3hPa | 2.7V | 00:00:00 | 03:15:07 | 00:00:00 | |
| DO3MHA-12 | 2026-09-01 13:44:35 | 49.01370 | 11.16290 | 88° | 35km/h | 2890m | -1.8m/s | 2.3°C | 37.0% | 725.7hPa | 2.7V | 00:00:00 | 03:15:03 | 00:00:00 | |
| DO3MHA-11 | 2026-09-01 13:44:30 | 49.01367 | 11.16226 | 80° | 31km/h | 2895m | -1.0m/s | 2.3°C | 36.8% | 725.2hPa | 2.7V | 00:00:00 | 03:14:58 | 00:00:00 | |
| DO3MHA-11 | 2026-09-01 13:44:25 | 49.01358 | 11.16166 | 78° | 38km/h | 2902m | -1.3m/s | 2.2°C | 36.6% | 724.5hPa | 2.7V | 00:00:00 | 03:14:53 | 00:00:00 | |
| DK5PH-5 | 2026-09-01 13:44:23 | 49.01354 | 11.16138 | 81° | 38km/h | 2905m | -1.7m/s | 2.1°C | 36.8% | 724.2hPa | 2.7V | 00:00:00 | 03:14:51 | 00:00:00 | |
| DL0LBS | 2026-09-01 13:44:22 | 49.01355 | 11.16138 | 81° | 38km/h | 2905m | -1.7m/s | 2.2°C | 36.3% | 724.3hPa | 2.7V | 07:11:00 | 00:00:00 | 00:00:00 | |
| DO3MHA-11 | 2026-09-01 13:44:20 | 49.01350 | 11.16092 | 85° | 40km/h | 2910m | -1.7m/s | 2.1°C | 37.1% | 723.7hPa | 2.7V | 00:00:00 | 03:14:48 | 00:00:00 | |
| NBG1-10 | 2026-09-01 13:44:17 | 49.01349 | 11.16045 | 91° | 37km/h | 2915m | -2.0m/s | 2.0°C | 37.2% | 723.2hPa | 2.7V | 00:00:00 | 03:14:45 | 00:00:00 | |
| DL6DJ-15 | 2026-09-01 13:44:16 | 49.01349 | 11.16029 | 91° | 38km/h | 2917m | -2.3m/s | 2.0°C | 36.9% | 723.0hPa | 2.7V | 00:00:00 | 00:00:00 | 00:00:00 | |
| DO3MHA-11 | 2026-09-01 13:44:15 | 49.01349 | 11.16015 | 93° | 33km/h | 2920m | -2.3m/s | 2.0°C | 37.4% | 722.8hPa | 2.7V | 07:11:00 | 03:14:43 | 00:00:00 | |
| DO3MHA-11 | 2026-09-01 13:44:10 | 49.01348 | 11.15953 | 81° | 38km/h | 2929m | -1.6m/s | 1.9°C | 37.5% | 721.9hPa | 2.7V | 00:00:00 | 03:14:38 | 00:00:00 | |
| DO3MHA-11 | 2026-09-01 13:44:05 | 49.01342 | 11.15877 | 89° | 42km/h | 2939m | -2.0m/s | 1.9°C | 37.1% | 721.0hPa | 2.7V | 00:00:00 | 03:14:33 | 00:00:00 | |
| DK5PH-5 | 2026-09-01 13:44:03 | 49.01343 | 11.15844 | 97° | 37km/h | 2944m | -2.4m/s | 2.4°C | 30.8% | 720.6hPa | 2.7V | 00:00:00 | 03:14:31 | 00:00:00 | |
| DL0LBS | 2026-09-01 13:44:02 | 49.01343 | 11.15844 | 98° | 42km/h | 2944m | -2.4m/s | 2.4°C | 30.4% | 720.7hPa | 2.7V | 00:00:00 | 00:00:00 | 00:00:00 | |
| DO3MHA-11 | 2026-09-01 13:44:00 | 49.01347 | 11.15800 | 101° | 33km/h | 2950m | -2.1m/s | 2.4°C | 30.9% | 720.1hPa | 2.7V | 00:00:00 | 03:14:28 | 00:00:00 | |
| DB0NH | 2026-09-01 13:43:57 | 49.01349 | 11.15763 | 85° | 37km/h | 2957m | -2.2m/s | 2.4°C | 32.9% | 719.5hPa | 2.7V | 00:00:00 | 03:14:25 | 00:00:00 | |
| DO3MHA-12 | 2026-09-01 13:43:50 | 49.01346 | 11.15660 | 99° | 35km/h | 2971m | -2.1m/s | 2.3°C | 34.6% | 718.3hPa | 2.7V | 00:00:00 | 03:14:18 | 00:00:00 | |
| DO3MHA-12 | 2026-09-01 13:43:45 | 49.01351 | 11.15595 | 86° | 35km/h | 2982m | -2.2m/s | 2.3°C | 35.2% | 717.2hPa | 2.7V | 00:00:00 | 03:14:13 | 00:00:00 | |
| DO3MHA-11 | 2026-09-01 13:43:40 | 49.01344 | 11.15528 | 85° | 42km/h | 2993m | -2.1m/s | 2.1°C | 37.6% | 716.3hPa | 2.7V | 00:00:00 | 03:14:08 | 00:00:00 | |
| DB0NH | 2026-09-01 13:43:37 | 49.01344 | 11.15479 | 97° | 38km/h | 3000m | -2.1m/s | 2.2°C | 37.7% | 715.8hPa | 2.7V | 07:11:00 | 03:14:05 | 00:00:00 | |
| DO3MHA-11 | 2026-09-01 13:43:35 | 49.01347 | 11.15450 | 99° | 31km/h | 3004m | -2.0m/s | 2.1°C | 37.9% | 715.4hPa | 2.7V | 07:11:00 | 03:14:03 | 00:00:00 | |
| NBG1-10 | 2026-09-01 13:43:33 | 49.01348 | 11.15425 | 90° | 38km/h | 3009m | -2.2m/s | 2.1°C | 38.3% | 715.0hPa | 2.7V | 00:00:00 | 03:14:01 | 00:00:00 | |
| DO3MHA-11 | 2026-09-01 13:43:30 | 49.01345 | 11.15389 | 78° | 40km/h | 3016m | -2.3m/s | 2.1°C | 38.8% | 714.4hPa | 2.7V | 00:00:00 | 03:13:58 | 00:00:00 | |
| DO3MHA-12 | 2026-09-01 13:43:25 | 49.01340 | 11.15312 | 94° | 37km/h | 3027m | -2.0m/s | 2.0°C | 39.0% | 713.4hPa | 2.7V | 00:00:00 | 03:13:53 | 00:00:00 | |
| DK5PH-5 | 2026-09-01 13:43:23 | 49.01342 | 11.15282 | 97° | 38km/h | 3031m | -2.3m/s | 1.9°C | 39.4% | 712.9hPa | 2.7V | 00:00:00 | 03:13:51 | 00:00:00 | |
| DO3MHA-12 | 2026-09-01 13:43:20 | 49.01342 | 11.15244 | 82° | 37km/h | 3038m | -2.2m/s | 1.9°C | 39.3% | 712.3hPa | 2.7V | 07:12:00 | 03:13:48 | 00:00:00 | |
| DO3MHA-12 | 2026-09-01 13:43:15 | 49.01332 | 11.15172 | 83° | 42km/h | 3050m | -2.5m/s | 1.8°C | 39.8% | 711.3hPa | 2.7V | 00:00:00 | 03:13:43 | 00:00:00 | |
| DL6DJ-15 | 2026-09-01 13:43:14 | 49.01331 | 11.15155 | 85° | 44km/h | 3053m | -2.4m/s | 1.9°C | 39.2% | 711.1hPa | 2.7V | 00:00:00 | 00:00:00 | 00:00:00 | |
| NBG1-10 | 2026-09-01 13:43:11 | 49.01332 | 11.15106 | 96° | 40km/h | 3060m | -2.5m/s | 1.8°C | 40.0% | 710.3hPa | 2.7V | 00:00:00 | 03:13:39 | 00:00:00 | |
| DO3MHA-12 | 2026-09-01 13:43:10 | 49.01333 | 11.15092 | 96° | 35km/h | 3063m | -2.3m/s | 1.8°C | 40.0% | 710.2hPa | 2.7V | 00:00:00 | 03:13:38 | 00:00:00 | |
| DB0NH | 2026-09-01 13:43:08 | 49.01334 | 11.15065 | 87° | 40km/h | 3068m | -2.4m/s | 1.8°C | 40.3% | 709.8hPa | 2.7V | 00:00:00 | 03:13:36 | 00:00:00 | |
| DO3MHA-11 | 2026-09-01 13:43:05 | 49.01329 | 11.15025 | 77° | 44km/h | 3075m | -2.4m/s | 1.7°C | 40.2% | 709.1hPa | 2.7V | 00:00:00 | 03:13:33 | 00:00:00 | |
| DB0ND-19 | 2026-09-01 13:42:54 | 49.01313 | 11.14782 | 83° | 47km/h | 3112m | -2.7m/s | 1.6°C | 39.8% | 705.8hPa | 2.7V | 00:00:00 | 00:00:00 | 00:00:00 | |
| DK5PH-5 | 2026-09-01 13:42:53 | 49.01319 | 11.14834 | 77° | 42km/h | 3105m | -2.6m/s | 1.5°C | 40.5% | 706.5hPa | 2.7V | 00:00:00 | 03:13:21 | 00:00:00 | |
| DO3MHA-11 | 2026-09-01 13:42:50 | 49.01312 | 11.14782 | 84° | 44km/h | 3113m | -2.6m/s | 1.5°C | 40.4% | 705.8hPa | 2.7V | 00:00:00 | 03:13:18 | 00:00:00 | |
| NBG1-10 | 2026-09-01 13:42:49 | 49.01311 | 11.14764 | 87° | 40km/h | 3115m | -2.6m/s | 1.5°C | 40.4% | 705.6hPa | 2.7V | 07:12:00 | 03:13:17 | 00:00:00 | |
| DO3MHA-12 | 2026-09-01 13:42:45 | 49.01311 | 11.14699 | 89° | 37km/h | 3125m | -2.5m/s | 1.4°C | 40.6% | 704.9hPa | 2.7V | 00:00:00 | 03:13:13 | 00:00:00 | |
| DL6DJ-15 | 2026-09-01 13:42:43 | 49.01308 | 11.14659 | 75° | 37km/h | 3133m | -2.6m/s | 1.5°C | 39.3% | 704.2hPa | 2.7V | 00:00:00 | 00:00:00 | 00:00:00 | |
| DO3MHA-12 | 2026-09-01 13:42:40 | 49.01302 | 11.14629 | 75° | 46km/h | 3138m | -2.6m/s | 1.4°C | 40.0% | 703.6hPa | 2.7V | 07:12:00 | 03:13:08 | 00:00:00 | |
| DB0NH | 2026-09-01 13:42:38 | 49.01297 | 11.14595 | 80° | 40km/h | 3143m | -2.5m/s | 1.3°C | 40.1% | 703.2hPa | 2.7V | 00:00:00 | 03:13:06 | 00:00:00 | |
| DO3MHA-12 | 2026-09-01 13:42:35 | 49.01294 | 11.14541 | 91° | 38km/h | 3151m | -2.6m/s | 1.3°C | 39.5% | 702.5hPa | 2.7V | 00:00:00 | 03:13:03 | 00:00:00 | |
| DO3MHA-12 | 2026-09-01 13:42:30 | 49.01293 | 11.14468 | 80° | 38km/h | 3165m | -2.7m/s | 1.4°C | 38.1% | 701.3hPa | 2.7V | 00:00:00 | 03:12:58 | 00:00:00 | |
| NBG1-10 | 2026-09-01 13:42:27 | 49.01286 | 11.14426 | 73° | 40km/h | 3173m | -2.7m/s | 1.3°C | 37.9% | 700.4hPa | 2.7V | 00:00:00 | 03:12:55 | 00:00:00 | |
| DO3MHA-11 | 2026-09-01 13:42:25 | 49.01280 | 11.14393 | 78° | 46km/h | 3179m | -2.8m/s | 1.2°C | 37.8% | 700.1hPa | 2.7V | 00:00:00 | 03:12:53 | 00:00:00 | |
| DB0ND-19 | 2026-09-01 13:42:23 | 49.01276 | 11.14341 | 89° | 42km/h | 3186m | -2.8m/s | 1.3°C | 36.7% | 699.5hPa | 2.7V | 00:00:00 | 00:00:00 | 00:00:00 | |
| DO3MHA-11 | 2026-09-01 13:42:20 | 49.01276 | 11.14309 | 92° | 35km/h | 3192m | -2.7m/s | 1.2°C | 37.2% | 699.0hPa | 2.7V | 00:00:00 | 03:12:48 | 00:00:00 | |
| DO3MHA-11 | 2026-09-01 13:42:15 | 49.01271 | 11.14242 | 73° | 42km/h | 3206m | -2.7m/s | 1.1°C | 36.7% | 697.7hPa | 2.7V | 07:13:00 | 03:12:43 | 00:00:00 | |
| DL6DJ-15 | 2026-09-01 13:42:12 | 49.01262 | 11.14179 | 84° | 44km/h | 3217m | -2.8m/s | 1.1°C | 34.5% | 696.9hPa | 2.7V | 00:00:00 | 00:00:00 | 00:00:00 | |
| DO3MHA-11 | 2026-09-01 13:42:10 | 49.01261 | 11.14162 | 88° | 38km/h | 3220m | -2.8m/s | 1.0°C | 34.9% | 696.6hPa | 2.7V | 00:00:00 | 03:12:38 | 00:00:00 | |
| DB0NH | 2026-09-01 13:42:08 | 49.01261 | 11.14130 | 92° | 38km/h | 3225m | -2.9m/s | 1.1°C | 33.9% | 696.0hPa | 2.7V | 00:00:00 | 03:12:36 | 00:00:00 | |
| DO3MHA-12 | 2026-09-01 13:42:05 | 49.01261 | 11.14090 | 85° | 37km/h | 3234m | -2.6m/s | 1.0°C | 33.7% | 695.3hPa | 2.7V | 00:00:00 | 03:12:33 | 00:00:00 | |
| DF3TZ-5 | 2026-09-01 13:41:59 | 49.01248 | 11.14004 | 81° | 44km/h | 3251m | -2.9m/s | 0°C | -1.0% | -1.0hPa | 2.7V | 00:00:00 | 00:00:00 | 00:00:00 | |
| DB0ND-19 | 2026-09-01 13:41:51 | 49.01246 | 11.13883 | 78° | 33km/h | 3274m | -2.9m/s | 0.8°C | 26.9% | 691.8hPa | 2.7V | 00:00:00 | 00:00:00 | 00:00:00 | |
| DO3MHA-12 | 2026-09-01 13:41:50 | 49.01244 | 11.13871 | 76° | 40km/h | 3277m | -2.8m/s | 0.7°C | 27.2% | 691.6hPa | 2.7V | 00:00:00 | 03:12:18 | 00:00:00 | |
| DO3MHA-12 | 2026-09-01 13:41:45 | 49.01233 | 11.13792 | 85° | 42km/h | 3292m | -3.0m/s | 0.7°C | 25.5% | 690.2hPa | 2.7V | 00:00:00 | 03:12:13 | 00:00:00 | |
| DL6DJ-15 | 2026-09-01 13:41:41 | 49.01235 | 11.13714 | 92° | 33km/h | 3307m | -3.0m/s | 0.8°C | 26.4% | 689.1hPa | 2.7V | 00:00:00 | 00:00:00 | 00:00:00 | |
| DO3MHA-11 | 2026-09-01 13:41:40 | 49.01234 | 11.13714 | 93° | 35km/h | 3307m | -2.9m/s | 0.8°C | 26.8% | 689.1hPa | 2.7V | 00:00:00 | 03:12:08 | 00:00:00 | |
| DB0NH | 2026-09-01 13:41:38 | 49.01234 | 11.13688 | 83° | 40km/h | 3313m | -2.9m/s | 0.7°C | 27.1% | 688.5hPa | 2.7V | 00:00:00 | 03:12:06 | 00:00:00 | |
| DO3MHA-11 | 2026-09-01 13:41:35 | 49.01228 | 11.13648 | 75° | 44km/h | 3322m | -3.0m/s | 0.6°C | 26.8% | 687.7hPa | 2.7V | 07:13:00 | 03:12:03 | 00:00:00 | |
| NBG1-10 | 2026-09-01 13:41:32 | 49.01221 | 11.13599 | 84° | 42km/h | 3331m | -3.0m/s | 0.6°C | 27.4% | 687.0hPa | 2.7V | 00:00:00 | 03:12:00 | 00:00:00 | |
| DO3MHA-11 | 2026-09-01 13:41:30 | 49.01220 | 11.13563 | 92° | 40km/h | 3337m | -3.0m/s | 0.6°C | 27.8% | 686.4hPa | 2.7V | 00:00:00 | 03:11:58 | 00:00:00 | |
| DO3MHA-11 | 2026-09-01 13:41:25 | 49.01221 | 11.13489 | 82° | 38km/h | 3352m | -3.1m/s | 0.5°C | 27.8% | 685.1hPa | 2.7V | 00:00:00 | 03:11:53 | 00:00:00 | |
| DK5PH-5 | 2026-09-01 13:41:23 | 49.01217 | 11.13462 | 75° | 42km/h | 3358m | -2.9m/s | 0.4°C | 27.8% | 684.7hPa | 2.7V | 00:00:00 | 03:11:51 | 00:00:00 | |
| DB0ND-19 | 2026-09-01 13:41:21 | 49.01210 | 11.13414 | 79° | 46km/h | 3367m | -3.0m/s | 0.4°C | 27.3% | 683.7hPa | 2.7V | 00:00:00 | 00:00:00 | 00:00:00 | |
| DO3MHA-12 | 2026-09-01 13:41:20 | 49.01210 | 11.13414 | 80° | 46km/h | 3367m | -3.0m/s | 0.3°C | 27.7% | 683.6hPa | 2.7V | 07:14:00 | 03:11:48 | 00:00:00 | |
| DL0LBS | 2026-09-01 13:41:18 | 49.01208 | 11.13396 | 85° | 47km/h | 3370m | -3.0m/s | 0.4°C | 27.3% | 683.5hPa | 2.7V | 00:00:00 | 00:00:00 | 00:00:00 | |
| DO3MHA-12 | 2026-09-01 13:41:15 | 49.01208 | 11.13327 | 94° | 37km/h | 3382m | -3.1m/s | 0.3°C | 27.3% | 682.4hPa | 2.7V | 00:00:00 | 03:11:43 | 00:00:00 | |
| DL6DJ-15 | 2026-09-01 13:41:10 | 49.01200 | 11.13241 | 75° | 44km/h | 3401m | -3.3m/s | 0.1°C | 27.1% | 680.9hPa | 2.7V | 00:00:00 | 00:00:00 | 00:00:00 | |
| DB0NH | 2026-09-01 13:41:08 | 49.01197 | 11.13224 | 78° | 42km/h | 3405m | -3.3m/s | 0.0°C | 27.6% | 680.6hPa | 2.7V | 00:00:00 | 03:11:36 | 00:00:00 | |
| DO3MHA-12 | 2026-09-01 13:41:05 | 49.01193 | 11.13170 | 89° | 42km/h | 3415m | -3.3m/s | 0.0°C | 27.8% | 679.8hPa | 2.7V | 00:00:00 | 03:11:33 | 00:00:00 | |
| DB0ND-19 | 2026-09-01 13:40:50 | 49.01184 | 11.12912 | 94° | 38km/h | 3466m | -3.4m/s | -0.4°C | 28.2% | 675.3hPa | 2.7V | 00:00:00 | 00:00:00 | 00:00:00 | |
| DO3MHA-12 | 2026-09-01 13:40:45 | 49.01182 | 11.12856 | 78° | 44km/h | 3480m | -3.3m/s | -0.5°C | 29.0% | 674.3hPa | 2.7V | 00:00:00 | 03:11:13 | 00:00:00 | |
| DL9SK-14 | 2026-09-01 13:40:43 | 49.01173 | 11.12770 | 89° | 46km/h | 3497m | -3.5m/s | -0.7°C | 28.4% | 672.9hPa | 2.7V | 00:00:00 | 00:00:00 | 00:00:00 | |
| DO3MHA-12 | 2026-09-01 13:40:40 | 49.01173 | 11.12770 | 90° | 42km/h | 3497m | -3.5m/s | -0.6°C | 28.9% | 672.9hPa | 2.7V | 07:14:00 | 03:11:08 | 00:00:00 | |
| DL6DJ-15 | 2026-09-01 13:40:39 | 49.01174 | 11.12735 | 95° | 42km/h | 3504m | -3.5m/s | -0.7°C | 28.3% | 672.3hPa | 2.7V | 00:00:00 | 00:00:00 | 00:00:00 | |
| DB0NH | 2026-09-01 13:40:38 | 49.01174 | 11.12735 | 96° | 40km/h | 3504m | -3.4m/s | -0.6°C | 28.9% | 672.2hPa | 2.7V | 00:00:00 | 03:11:06 | 00:00:00 | |
| DO3MHA-12 | 2026-09-01 13:40:35 | 49.01176 | 11.12692 | 89° | 37km/h | 3514m | -3.5m/s | -0.7°C | 29.4% | 671.2hPa | 2.7V | 00:00:00 | 03:11:03 | 00:00:00 | |
| DO3MHA-12 | 2026-09-01 13:40:30 | 49.01167 | 11.12620 | 78° | 46km/h | 3532m | -3.5m/s | -0.9°C | 30.3% | 669.9hPa | 2.7V | 00:00:00 | 03:10:58 | 00:00:00 | |
| DL0LBS | 2026-09-01 13:40:28 | 49.01165 | 11.12602 | 82° | 47km/h | 3535m | -3.7m/s | -1.0°C | 29.8% | 669.6hPa | 2.7V | 00:00:00 | 00:00:00 | 00:00:00 | |
| NBG1-10 | 2026-09-01 13:40:26 | 49.01163 | 11.12548 | 93° | 38km/h | 3546m | -3.5m/s | -1.0°C | 30.3% | 668.7hPa | 2.7V | 00:00:00 | 03:10:54 | 00:00:00 | |
| DO3MHA-12 | 2026-09-01 13:40:25 | 49.01164 | 11.12531 | 96° | 37km/h | 3550m | -3.5m/s | -1.0°C | 30.2% | 668.4hPa | 2.7V | 00:00:00 | 03:10:53 | 00:00:00 | |
| DK5PH-5 | 2026-09-01 13:40:23 | 49.01166 | 11.12501 | 93° | 37km/h | 3556m | -3.4m/s | -1.0°C | 30.2% | 667.7hPa | 2.7V | 00:00:00 | 03:10:51 | 00:00:00 | |
| DO3MHA-11 | 2026-09-01 13:40:20 | 49.01164 | 11.12462 | 80° | 38km/h | 3567m | -3.6m/s | -1.1°C | 30.2% | 666.9hPa | 2.7V | 00:00:00 | 03:10:48 | 00:00:00 | |
| DB0ND-19 | 2026-09-01 13:40:18 | 49.01160 | 11.12435 | 75° | 38km/h | 3574m | -3.5m/s | -1.2°C | 29.8% | 666.2hPa | 2.7V | 00:00:00 | 00:00:00 | 00:00:00 | |
| DO9HM | 2026-09-01 13:40:16 | 49.01157 | 11.12419 | 78° | 42km/h | 3578m | -3.5m/s | -1.3°C | 30.1% | 666.2hPa | 2.7V | 07:15:00 | 00:00:00 | 00:00:00 | |
| DO3MHA-11 | 2026-09-01 13:40:15 | 49.01154 | 11.12386 | 87° | 40km/h | 3585m | -3.4m/s | -1.3°C | 30.7% | 665.5hPa | 2.7V | 07:15:00 | 03:10:43 | 00:00:00 | |
| DO3MHA-11 | 2026-09-01 13:40:10 | 49.01156 | 11.12310 | 94° | 33km/h | 3603m | -3.6m/s | -1.4°C | 30.9% | 664.0hPa | 2.7V | 00:00:00 | 03:10:38 | 00:00:00 | |
| DB0NH | 2026-09-01 13:40:08 | 49.01156 | 11.12285 | 86° | 37km/h | 3610m | -3.6m/s | -1.5°C | 30.9% | 663.3hPa | 2.7V | 00:00:00 | 03:10:36 | 00:00:00 | |
| DL6DJ-15 | 2026-09-01 13:40:07 | 49.01156 | 11.12273 | 79° | 31km/h | 3613m | -3.8m/s | -1.5°C | 30.4% | 663.0hPa | 2.7V | 00:00:00 | 00:00:00 | 00:00:00 | |
| DO3MHA-12 | 2026-09-01 13:40:05 | 49.01151 | 11.12247 | 74° | 40km/h | 3621m | -3.5m/s | -1.5°C | 30.9% | 662.4hPa | 2.7V | 00:00:00 | 03:10:33 | 00:00:00 | |
| DO3MHA-12 | 2026-09-01 13:40:00 | 49.01142 | 11.12169 | 90° | 35km/h | 3639m | -3.6m/s | -1.6°C | 24.9% | 660.9hPa | 2.7V | 07:15:00 | 03:10:28 | 00:00:00 | |
| DO3MHA-12 | 2026-09-01 13:39:55 | 49.01142 | 11.12103 | 79° | 35km/h | 3657m | -4.1m/s | -1.6°C | 23.7% | 659.4hPa | 2.7V | 00:00:00 | 03:10:23 | 00:00:00 | |
| NBG1-10 | 2026-09-01 13:39:53 | 49.01137 | 11.12079 | 71° | 38km/h | 3665m | -3.9m/s | -1.6°C | 23.0% | 658.7hPa | 2.7V | 00:00:00 | 03:10:21 | 00:00:00 | |
| DO9HM | 2026-09-01 13:39:52 | 49.01137 | 11.12079 | 71° | 35km/h | 3665m | -3.9m/s | -1.7°C | 22.5% | 658.8hPa | 2.7V | 07:16:00 | 00:00:00 | 00:00:00 | |
| DO3MHA-12 | 2026-09-01 13:39:50 | 49.01128 | 11.12037 | 77° | 40km/h | 3677m | -4.0m/s | -1.7°C | 22.3% | 657.8hPa | 2.7V | 00:00:00 | 03:10:18 | 00:00:00 | |
| DO3MHA-11 | 2026-09-01 13:39:45 | 49.01125 | 11.11961 | 94° | 31km/h | 3696m | -3.7m/s | -1.8°C | 21.4% | 656.1hPa | 2.7V | 00:00:00 | 03:10:13 | 00:00:00 | |
| DL9SK-14 | 2026-09-01 13:39:41 | 49.01119 | 11.11902 | 72° | 35km/h | 3715m | -3.7m/s | -2.0°C | 20.4% | 654.7hPa | 2.7V | 00:00:00 | 00:00:00 | 00:00:00 | |
| DO3MHA-11 | 2026-09-01 13:39:40 | 49.01119 | 11.11902 | 73° | 40km/h | 3715m | -3.6m/s | -2.0°C | 20.9% | 654.7hPa | 2.7V | 00:00:00 | 03:10:08 | 00:00:00 | |
| DB0NH | 2026-09-01 13:39:38 | 49.01114 | 11.11873 | 77° | 38km/h | 3723m | -3.8m/s | -2.0°C | 20.8% | 654.1hPa | 2.7V | 07:15:00 | 03:10:06 | 00:00:00 | |
| DL6DJ-15 | 2026-09-01 13:39:36 | 49.01110 | 11.11840 | 84° | 42km/h | 3730m | -3.9m/s | -2.1°C | 20.1% | 653.5hPa | 2.7V | 00:00:00 | 00:00:00 | 00:00:00 | |
| DO3MHA-11 | 2026-09-01 13:39:35 | 49.01109 | 11.11824 | 89° | 38km/h | 3734m | -3.9m/s | -2.0°C | 20.5% | 653.0hPa | 2.7V | 07:15:00 | 03:10:03 | 00:00:00 | |
| DO9HM | 2026-09-01 13:39:31 | 49.01111 | 11.11778 | 95° | 35km/h | 3746m | -3.9m/s | -2.1°C | 19.8% | 652.1hPa | 2.7V | 07:16:00 | 00:00:00 | 00:00:00 | |
| DO3MHA-11 | 2026-09-01 13:39:30 | 49.01111 | 11.11754 | 85° | 35km/h | 3754m | -3.8m/s | -2.1°C | 19.4% | 651.5hPa | 2.7V | 00:00:00 | 03:09:58 | 00:00:00 | |
| DO3MHA-11 | 2026-09-01 13:39:25 | 49.01099 | 11.11686 | 76° | 44km/h | 3773m | -3.9m/s | -2.1°C | 18.5% | 649.8hPa | 2.7V | 00:00:00 | 03:09:53 | 00:00:00 | |
| DK5PH-5 | 2026-09-01 13:39:23 | 49.01095 | 11.11653 | 83° | 38km/h | 3781m | -3.9m/s | -2.1°C | 18.5% | 649.2hPa | 2.7V | 00:00:00 | 03:09:51 | 00:00:00 | |
| DL0LBS | 2026-09-01 13:39:21 | 49.01094 | 11.11636 | 87° | 46km/h | 3785m | -3.8m/s | -2.1°C | 18.0% | 648.9hPa | 2.7V | 07:16:00 | 00:00:00 | 00:00:00 | |
| DO3MHA-12 | 2026-09-01 13:39:20 | 49.01094 | 11.11603 | 93° | 35km/h | 3793m | -3.7m/s | -2.0°C | 18.2% | 648.3hPa | 2.7V | 07:16:00 | 03:09:48 | 00:00:00 | |
| DB0ND-19 | 2026-09-01 13:39:16 | 49.01095 | 11.11550 | 84° | 29km/h | 3807m | -3.7m/s | -2.2°C | 17.7% | 647.1hPa | 2.7V | 00:00:00 | 00:00:00 | 00:00:00 | |
| DO9HM | 2026-09-01 13:39:11 | 49.01088 | 11.11497 | 78° | 42km/h | 3821m | -3.2m/s | -2.3°C | 17.4% | 646.0hPa | 2.7V | 07:16:00 | 00:00:00 | 00:00:00 | |
| DO3MHA-12 | 2026-09-01 13:39:10 | 49.01084 | 11.11464 | 86° | 42km/h | 3828m | -3.3m/s | -2.2°C | 17.6% | 645.5hPa | 2.7V | 00:00:00 | 03:09:38 | 00:00:00 | |
| DB0NH | 2026-09-01 13:39:08 | 49.01084 | 11.11431 | 93° | 38km/h | 3835m | -3.3m/s | -2.2°C | 17.4% | 644.9hPa | 2.7V | 00:00:00 | 03:09:36 | 00:00:00 | |
| DO3MHA-12 | 2026-09-01 13:39:05 | 49.01086 | 11.11387 | 96° | 31km/h | 3845m | -3.3m/s | -2.1°C | 16.7% | 644.0hPa | 2.7V | 00:00:00 | 03:09:33 | 00:00:00 | |
| DO3MHA-11 | 2026-09-01 13:39:00 | 49.01082 | 11.11326 | 78° | 42km/h | 3861m | -2.9m/s | -2.2°C | 16.8% | 642.7hPa | 2.7V | 00:00:00 | 03:09:28 | 00:00:00 | |
| DO3MHA-11 | 2026-09-01 13:38:55 | 49.01078 | 11.11244 | 95° | 37km/h | 3875m | -2.8m/s | -2.3°C | 17.0% | 641.7hPa | 2.7V | 07:16:00 | 03:09:23 | 00:00:00 | |
| DK5PH-5 | 2026-09-01 13:38:53 | 49.01080 | 11.11214 | 99° | 37km/h | 3881m | -2.8m/s | -2.3°C | 17.0% | 641.1hPa | 2.7V | 00:00:00 | 03:09:21 | 00:00:00 | |
| DO3MHA-11 | 2026-09-01 13:38:50 | 49.01083 | 11.11176 | 89° | 35km/h | 3889m | -2.7m/s | -2.4°C | 17.1% | 640.4hPa | 2.7V | 00:00:00 | 03:09:18 | 00:00:00 | |
| DL0LBS | 2026-09-01 13:38:49 | 49.01082 | 11.11164 | 83° | 31km/h | 3892m | -2.6m/s | -2.4°C | 16.7% | 640.2hPa | 2.7V | 00:00:00 | 00:00:00 | 00:00:00 | |
| DO3MHA-12 | 2026-09-01 13:38:45 | 49.01077 | 11.11106 | 87° | 44km/h | 3903m | -2.7m/s | -2.5°C | 17.0% | 639.3hPa | 2.7V | 00:00:00 | 03:09:13 | 00:00:00 | |
| DO3MHA-12 | 2026-09-01 13:38:40 | 49.01082 | 11.11025 | 102° | 33km/h | 3916m | -2.6m/s | -2.4°C | 16.2% | 638.3hPa | 2.7V | 07:16:00 | 03:09:08 | 00:00:00 | |
| DL9SK-14 | 2026-09-01 13:38:39 | 49.01085 | 11.11000 | 98° | 29km/h | 3921m | -2.7m/s | -2.5°C | 14.8% | 637.9hPa | 2.7V | 00:00:00 | 00:00:00 | 00:00:00 | |
| DB0NH | 2026-09-01 13:38:38 | 49.01085 | 11.11000 | 99° | 38km/h | 3921m | -2.6m/s | -2.4°C | 15.2% | 637.8hPa | 2.7V | 00:00:00 | 03:09:06 | 00:00:00 | |
| DO3MHA-12 | 2026-09-01 13:38:35 | 49.01084 | 11.10964 | 82° | 40km/h | 3929m | -2.4m/s | -2.6°C | 15.3% | 637.1hPa | 2.7V | 00:00:00 | 03:09:03 | 00:00:00 | |
| DL6DJ-15 | 2026-09-01 13:38:34 | 49.01083 | 11.10951 | 80° | 37km/h | 3931m | -2.4m/s | -2.7°C | 15.1% | 637.0hPa | 2.7V | 00:00:00 | 00:00:00 | 00:00:00 | |
| DO3MHA-12 | 2026-09-01 13:38:30 | 49.01082 | 11.10885 | 96° | 40km/h | 3941m | -2.5m/s | -2.6°C | 15.5% | 636.2hPa | 2.7V | 00:00:00 | 03:08:58 | 00:00:00 | |
| DL0LBS | 2026-09-01 13:38:28 | 49.01083 | 11.10868 | 100° | 42km/h | 3944m | -2.4m/s | -2.7°C | 15.1% | 636.1hPa | 2.7V | 00:00:00 | 00:00:00 | 00:00:00 | |
| DO3MHA-12 | 2026-09-01 13:38:25 | 49.01090 | 11.10812 | 96° | 35km/h | 3953m | -2.2m/s | -2.8°C | 15.7% | 635.3hPa | 2.7V | 00:00:00 | 03:08:53 | 00:00:00 | |
| DO3MHA-11 | 2026-09-01 13:38:20 | 49.01085 | 11.10745 | 83° | 44km/h | 3965m | -2.2m/s | -2.9°C | 15.1% | 634.2hPa | 2.7V | 00:00:00 | 03:08:48 | 00:00:00 | |
| DO3MHA-11 | 2026-09-01 13:38:15 | 49.01088 | 11.10662 | 101° | 35km/h | 3977m | -2.4m/s | -2.9°C | 15.0% | 633.4hPa | 2.7V | 07:17:00 | 03:08:43 | 00:00:00 | |
| NBG1-10 | 2026-09-01 13:38:14 | 49.01089 | 11.10647 | 100° | 40km/h | 3979m | -2.3m/s | -2.9°C | 14.8% | 633.2hPa | 2.7V | 00:00:00 | 03:08:42 | 00:00:00 | |
| DO3MHA-11 | 2026-09-01 13:38:10 | 49.01089 | 11.10595 | 81° | 40km/h | 3988m | -2.3m/s | -3.0°C | 14.9% | 632.6hPa | 2.7V | 00:00:00 | 03:08:38 | 00:00:00 | |
| DB0NH | 2026-09-01 13:38:08 | 49.01086 | 11.10566 | 80° | 42km/h | 3993m | -2.4m/s | -3.1°C | 14.8% | 632.1hPa | 2.6V | 00:00:00 | 03:08:36 | 00:00:00 | |
| DL0LBS | 2026-09-01 13:38:07 | 49.01086 | 11.10566 | 80° | 40km/h | 3993m | -2.5m/s | -3.1°C | 14.4% | 632.1hPa | 2.7V | 00:00:00 | 00:00:00 | 00:00:00 | |
| DO3MHA-12 | 2026-09-01 13:38:05 | 49.01081 | 11.10516 | 89° | 44km/h | 4000m | -2.2m/s | -3.0°C | 14.6% | 631.6hPa | 2.7V | 00:00:00 | 03:08:33 | 00:00:00 | |
| DL6DJ-15 | 2026-09-01 13:38:03 | 49.01082 | 11.10480 | 96° | 44km/h | 4004m | -2.1m/s | -3.0°C | 14.3% | 631.3hPa | 2.7V | 00:00:00 | 00:00:00 | 00:00:00 | |
| DO3MHA-12 | 2026-09-01 13:38:00 | 49.01086 | 11.10436 | 95° | 37km/h | 4010m | -2.1m/s | -3.0°C | 14.6% | 630.7hPa | 2.7V | 07:17:00 | 03:08:28 | 00:00:00 | |
| DO3MHA-12 | 2026-09-01 13:37:55 | 49.01082 | 11.10365 | 83° | 47km/h | 4021m | -2.1m/s | -2.9°C | 13.5% | 629.8hPa | 2.7V | 00:00:00 | 03:08:23 | 00:00:00 | |
| DK5PH-5 | 2026-09-01 13:37:53 | 49.01080 | 11.10330 | 89° | 44km/h | 4025m | -2.1m/s | -2.9°C | 13.4% | 629.4hPa | 2.7V | 07:17:00 | 03:08:21 | 00:00:00 | |
| DO3MHA-12 | 2026-09-01 13:37:50 | 49.01083 | 11.10275 | 99° | 38km/h | 4032m | -2.1m/s | -2.9°C | 12.9% | 628.9hPa | 2.6V | 00:00:00 | 03:08:18 | 00:00:00 | |
| DO9HM | 2026-09-01 13:37:47 | 49.01086 | 11.10244 | 100° | 38km/h | 4036m | -2.3m/s | -2.9°C | 11.7% | 628.6hPa | 2.7V | 07:18:00 | 00:00:00 | 00:00:00 | |
| DO3MHA-12 | 2026-09-01 13:37:45 | 49.01087 | 11.10203 | 86° | 44km/h | 4042m | -2.0m/s | -3.0°C | 11.9% | 628.1hPa | 2.7V | 00:00:00 | 03:08:13 | 00:00:00 | |
| DB0ND-19 | 2026-09-01 13:37:43 | 49.01085 | 11.10172 | 82° | 42km/h | 4046m | -2.1m/s | -3.1°C | 11.1% | 627.9hPa | 2.7V | 00:00:00 | 00:00:00 | 00:00:00 | |
| DL0LBS | 2026-09-01 13:37:42 | 49.01085 | 11.10172 | 83° | 44km/h | 4046m | -2.1m/s | -3.1°C | 11.1% | 627.8hPa | 2.7V | 00:00:00 | 00:00:00 | 00:00:00 | |
| NBG1-10 | 2026-09-01 13:37:41 | 49.01083 | 11.10137 | 88° | 44km/h | 4050m | -2.2m/s | -3.0°C | 11.2% | 627.5hPa | 2.7V | 00:00:00 | 03:08:09 | 00:00:00 | |
| DO3MHA-11 | 2026-09-01 13:37:40 | 49.01082 | 11.10118 | 92° | 46km/h | 4053m | -2.3m/s | -3.0°C | 11.2% | 627.2hPa | 2.7V | 00:00:00 | 03:08:08 | 00:00:00 | |
| DB0NH | 2026-09-01 13:37:38 | 49.01085 | 11.10081 | 99° | 44km/h | 4057m | -2.1m/s | -2.9°C | 11.0% | 627.0hPa | 2.7V | 00:00:00 | 03:08:06 | 00:00:00 | |
| DL9SK-14 | 2026-09-01 13:37:37 | 49.01089 | 11.10048 | 101° | 40km/h | 4061m | -2.1m/s | -3.0°C | 10.7% | 626.6hPa | 2.7V | 00:00:00 | 00:00:00 | 00:00:00 | |
| DO3MHA-11 | 2026-09-01 13:37:35 | 49.01090 | 11.10032 | 101° | 38km/h | 4064m | -2.0m/s | -2.9°C | 11.0% | 626.3hPa | 2.7V | 07:17:00 | 03:08:03 | 00:00:00 | |
| DL6DJ-15 | 2026-09-01 13:37:32 | 49.01092 | 11.09991 | 86° | 37km/h | 4070m | -2.0m/s | -3.1°C | 10.6% | 626.0hPa | 2.7V | 00:00:00 | 00:00:00 | 00:00:00 | |
| DO3MHA-11 | 2026-09-01 13:37:30 | 49.01091 | 11.09958 | 86° | 47km/h | 4074m | -1.9m/s | -3.1°C | 10.9% | 625.6hPa | 2.7V | 00:00:00 | 03:07:58 | 00:00:00 | |
| DO9HM | 2026-09-01 13:37:26 | 49.01090 | 11.09903 | 96° | 49km/h | 4080m | -2.2m/s | -3.1°C | 10.7% | 625.2hPa | 2.7V | 07:18:00 | 00:00:00 | 00:00:00 | |
| DO3MHA-11 | 2026-09-01 13:37:25 | 49.01094 | 11.09867 | 102° | 40km/h | 4084m | -2.1m/s | -3.1°C | 11.1% | 624.8hPa | 2.7V | 00:00:00 | 03:07:53 | 00:00:00 | |
| DK5PH-5 | 2026-09-01 13:37:23 | 49.01099 | 11.09834 | 102° | 44km/h | 4088m | -1.9m/s | -3.1°C | 11.2% | 624.4hPa | 2.6V | 00:00:00 | 03:07:51 | 00:00:00 | |
| DO3MHA-12 | 2026-09-01 13:37:20 | 49.01101 | 11.09792 | 88° | 44km/h | 4094m | -2.2m/s | -3.2°C | 11.5% | 624.0hPa | 2.6V | 07:18:00 | 03:07:48 | 00:00:00 | |
| DB0UT-7 | 2026-09-01 13:37:18 | 49.01099 | 11.09760 | 86° | 46km/h | 4098m | -1.9m/s | -3.3°C | 11.6% | 623.8hPa | 2.7V | 00:00:00 | 00:00:00 | 00:00:00 | |
| DB0ND-19 | 2026-09-01 13:37:12 | 49.01105 | 11.09647 | 103° | 47km/h | 4111m | -2.1m/s | -3.3°C | 10.1% | 622.7hPa | 2.7V | 00:00:00 | 00:00:00 | 00:00:00 | |
| DO3MHA-12 | 2026-09-01 13:37:10 | 49.01110 | 11.09614 | 102° | 40km/h | 4115m | -1.8m/s | -3.3°C | 10.3% | 622.4hPa | 2.7V | 00:00:00 | 03:07:38 | 00:00:00 | |
| NBG1-10 | 2026-09-01 13:37:08 | 49.01112 | 11.09585 | 92° | 44km/h | 4119m | -1.9m/s | -3.3°C | 10.2% | 622.1hPa | 2.7V | 00:00:00 | 03:07:36 | 00:00:00 | |
| DO9HM | 2026-09-01 13:37:06 | 49.01112 | 11.09553 | 87° | 44km/h | 4123m | -2.2m/s | -3.4°C | 10.0% | 621.8hPa | 2.7V | 07:18:00 | 00:00:00 | 00:00:00 | |
| DO3MHA-12 | 2026-09-01 13:37:05 | 49.01111 | 11.09535 | 87° | 49km/h | 4125m | -2.0m/s | -3.4°C | 10.2% | 621.6hPa | 2.7V | 00:00:00 | 03:07:33 | 00:00:00 | |
| DL0LBS | 2026-09-01 13:37:02 | 49.01111 | 11.09497 | 93° | 51km/h | 4129m | -2.3m/s | -3.4°C | 9.8% | 621.2hPa | 2.6V | 00:00:00 | 00:00:00 | 00:00:00 | |
| DL6DJ-15 | 2026-09-01 13:37:01 | 49.01114 | 11.09459 | 100° | 47km/h | 4133m | -2.1m/s | -3.4°C | 9.7% | 620.9hPa | 2.6V | 00:00:00 | 00:00:00 | 00:00:00 | |
| DO3MHA-11 | 2026-09-01 13:37:00 | 49.01116 | 11.09441 | 104° | 40km/h | 4136m | -2.1m/s | -3.3°C | 9.9% | 620.8hPa | 2.6V | 00:00:00 | 03:07:28 | 00:00:00 | |
| DO3MHA-11 | 2026-09-01 13:36:55 | 49.01125 | 11.09366 | 93° | 42km/h | 4146m | -2.2m/s | -3.5°C | 9.9% | 620.0hPa | 2.6V | 07:18:00 | 03:07:23 | 00:00:00 | |
| DK5PH-5 | 2026-09-01 13:36:53 | 49.01125 | 11.09335 | 85° | 46km/h | 4150m | -2.0m/s | -3.5°C | 9.9% | 619.6hPa | 2.6V | 00:00:00 | 03:07:21 | 00:00:00 | |
| DO3MHA-11 | 2026-09-01 13:36:50 | 49.01122 | 11.09281 | 89° | 51km/h | 4157m | -1.9m/s | -3.5°C | 8.7% | 619.1hPa | 2.6V | 00:00:00 | 03:07:18 | 00:00:00 | |
| DB0UT-7 | 2026-09-01 13:36:48 | 49.01123 | 11.09240 | 96° | 49km/h | 4161m | -2.0m/s | -3.5°C | 8.4% | 618.8hPa | 2.6V | 00:00:00 | 03:07:16 | 00:00:00 | |
| DO9HM | 2026-09-01 13:36:46 | 49.01127 | 11.09202 | 103° | 47km/h | 4164m | -2.0m/s | -3.4°C | 7.8% | 618.5hPa | 2.7V | 07:18:00 | 00:00:00 | 00:00:00 | |
| DO3MHA-11 | 2026-09-01 13:36:45 | 49.01130 | 11.09185 | 104° | 40km/h | 4167m | -2.1m/s | -3.4°C | 7.7% | 618.3hPa | 2.7V | 00:00:00 | 03:07:13 | 00:00:00 | |
| DB0ND-19 | 2026-09-01 13:36:41 | 49.01135 | 11.09126 | 89° | 37km/h | 4175m | -2.2m/s | -3.5°C | 7.5% | 617.9hPa | 2.7V | 00:00:00 | 00:00:00 | 00:00:00 | |
| DO3MHA-12 | 2026-09-01 13:36:40 | 49.01135 | 11.09111 | 86° | 47km/h | 4177m | -2.1m/s | -3.5°C | 7.7% | 617.5hPa | 2.7V | 07:18:00 | 03:07:08 | 00:00:00 | |
| DB0NH | 2026-09-01 13:36:38 | 49.01133 | 11.09077 | 86° | 49km/h | 4181m | -2.2m/s | -3.6°C | 7.8% | 617.2hPa | 2.7V | 00:00:00 | 03:07:06 | 00:00:00 | |
| DL0LBS | 2026-09-01 13:36:37 | 49.01133 | 11.09077 | 87° | 47km/h | 4181m | -2.3m/s | -3.6°C | 7.6% | 617.3hPa | 2.6V | 00:00:00 | 00:00:00 | 00:00:00 | |
| DL9SK-14 | 2026-09-01 13:36:35 | 49.01135 | 11.08999 | 99° | 51km/h | 4189m | -2.1m/s | -3.7°C | 7.3% | 616.6hPa | 2.6V | 00:00:00 | 00:00:00 | 00:00:00 | |
| DO3MHA-12 | 2026-09-01 13:36:30 | 49.01143 | 11.08929 | 95° | 44km/h | 4197m | -1.9m/s | -3.6°C | 6.8% | 615.9hPa | 2.6V | 00:00:00 | 03:06:58 | 00:00:00 | |
| DO3MHA-12 | 2026-09-01 13:36:25 | 49.01139 | 11.08843 | 86° | 53km/h | 4207m | -2.0m/s | -3.5°C | 6.0% | 615.2hPa | 2.6V | 00:00:00 | 03:06:53 | 00:00:00 | |
| DK5PH-5 | 2026-09-01 13:36:23 | 49.01138 | 11.08803 | 91° | 49km/h | 4212m | -2.0m/s | -3.5°C | 5.8% | 614.7hPa | 2.6V | 00:00:00 | 03:06:51 | 00:00:00 | |
| DO3MHA-11 | 2026-09-01 13:36:20 | 49.01142 | 11.08742 | 102° | 44km/h | 4218m | -2.0m/s | -3.6°C | 5.3% | 614.3hPa | 2.7V | 00:00:00 | 03:06:48 | 00:00:00 | |
| DO3MHA-11 | 2026-09-01 13:36:15 | 49.01149 | 11.08659 | 88° | 49km/h | 4228m | -2.1m/s | -3.5°C | 4.5% | 613.6hPa | 2.7V | 07:19:00 | 03:06:43 | 00:00:00 | |
| DO3MHA-11 | 2026-09-01 13:36:10 | 49.01147 | 11.08561 | 95° | 51km/h | 4238m | -1.9m/s | -3.4°C | 3.9% | 612.8hPa | 2.7V | 00:00:00 | 03:06:38 | 00:00:00 | |
| DB0NH | 2026-09-01 13:36:08 | 49.01151 | 11.08521 | 101° | 49km/h | 4242m | -2.0m/s | -3.4°C | 3.7% | 612.5hPa | 2.7V | 00:00:00 | 03:06:36 | 00:00:00 | |
| DO3MHA-11 | 2026-09-01 13:36:05 | 49.01158 | 11.08467 | 100° | 44km/h | 4249m | -2.2m/s | -3.4°C | 3.6% | 612.0hPa | 2.7V | 00:00:00 | 03:06:33 | 00:00:00 | |
| DL9SK-14 | 2026-09-01 13:36:04 | 49.01160 | 11.08435 | 89° | 42km/h | 4253m | -2.2m/s | -3.5°C | 4.8% | 611.8hPa | 2.7V | 00:00:00 | 00:00:00 | 00:00:00 | |
| NBG1-10 | 2026-09-01 13:36:02 | 49.01160 | 11.08418 | 88° | 51km/h | 4256m | -2.0m/s | -3.5°C | 6.1% | 611.4hPa | 2.7V | 00:00:00 | 03:06:30 | 00:00:00 | |
| DL6DJ-15 | 2026-09-01 13:35:59 | 49.01158 | 11.08339 | 93° | 55km/h | 4264m | -2.3m/s | -3.5°C | 11.6% | 610.8hPa | 2.7V | 00:00:00 | 00:00:00 | 00:00:00 | |
| DO3MHA-12 | 2026-09-01 13:35:55 | 49.01164 | 11.08277 | 103° | 47km/h | 4271m | -2.3m/s | -3.4°C | 16.1% | 610.3hPa | 2.7V | 00:00:00 | 03:06:23 | 00:00:00 | |
| DK5PH-5 | 2026-09-01 13:35:53 | 49.01170 | 11.08240 | 104° | 49km/h | 4276m | -2.2m/s | -3.4°C | 18.9% | 609.9hPa | 2.7V | 00:00:00 | 03:06:21 | 00:00:00 | |
| DO3MHA-12 | 2026-09-01 13:35:50 | 49.01175 | 11.08190 | 92° | 49km/h | 4283m | -2.2m/s | -3.5°C | 19.9% | 609.3hPa | 2.7V | 00:00:00 | 03:06:18 | 00:00:00 | |
| DO3MHA-12 | 2026-09-01 13:35:45 | 49.01176 | 11.08092 | 97° | 53km/h | 4294m | -2.3m/s | -3.6°C | 22.0% | 608.5hPa | 2.7V | 00:00:00 | 03:06:13 | 00:00:00 | |
| DO9HM | 2026-09-01 13:35:42 | 49.01180 | 11.08050 | 104° | 53km/h | 4299m | -2.2m/s | -3.7°C | 22.3% | 608.1hPa | 2.7V | 00:00:00 | 00:00:00 | 00:00:00 | |
| DM7RM-13 | 2026-09-01 13:35:41 | 49.01184 | 11.08031 | 105° | 49km/h | 4301m | -2.4m/s | -3.7°C | 23.2% | 608.0hPa | 2.7V | 07:19:00 | 00:00:00 | 00:00:00 | |
| DO3MHA-11 | 2026-09-01 13:35:40 | 49.01189 | 11.07996 | 101° | 46km/h | 4306m | -2.3m/s | -3.7°C | 24.1% | 607.5hPa | 2.7V | 00:00:00 | 03:06:08 | 00:00:00 | |
| DB0ND-19 | 2026-09-01 13:35:39 | 49.01191 | 11.07979 | 95° | 42km/h | 4308m | -2.3m/s | -3.8°C | 24.3% | 607.5hPa | 2.7V | 00:00:00 | 00:00:00 | 00:00:00 | |
| DB0NH | 2026-09-01 13:35:38 | 49.01191 | 11.07962 | 92° | 51km/h | 4310m | -2.1m/s | -3.8°C | 26.0% | 607.2hPa | 2.7V | 07:19:00 | 03:06:06 | 00:00:00 | |
| DO3MHA-12 | 2026-09-01 13:35:35 | 49.01191 | 11.07905 | 92° | 55km/h | 4317m | -2.3m/s | -3.9°C | 26.6% | 606.7hPa | 2.7V | 00:00:00 | 03:06:03 | 00:00:00 | |
| DB0UT-7 | 2026-09-01 13:35:34 | 49.01192 | 11.07884 | 95° | 51km/h | 4320m | -2.2m/s | -3.9°C | 26.3% | 606.6hPa | 2.7V | 00:00:00 | 00:00:00 | 00:00:00 | |
| DL9SK-14 | 2026-09-01 13:35:33 | 49.01196 | 11.07841 | 101° | 55km/h | 4324m | -2.4m/s | -3.9°C | 26.3% | 606.3hPa | 2.7V | 00:00:00 | 00:00:00 | 00:00:00 | |
| DO3MHA-12 | 2026-09-01 13:35:30 | 49.01202 | 11.07802 | 106° | 46km/h | 4329m | -2.3m/s | -3.9°C | 28.8% | 605.8hPa | 2.7V | 00:00:00 | 03:05:58 | 00:00:00 | |
| NBG1-10 | 2026-09-01 13:35:29 | 49.01205 | 11.07784 | 105° | 51km/h | 4331m | -2.2m/s | -3.9°C | 28.5% | 605.6hPa | 2.7V | 00:00:00 | 03:05:57 | 00:00:00 | |
| DL6DJ-15 | 2026-09-01 13:35:28 | 49.01207 | 11.07767 | 100° | 42km/h | 4333m | -2.2m/s | -4.0°C | 27.9% | 605.5hPa | 2.7V | 00:00:00 | 00:00:00 | 00:00:00 | |
| DO3MHA-12 | 2026-09-01 13:35:25 | 49.01210 | 11.07717 | 90° | 53km/h | 4341m | -2.4m/s | -4.1°C | 29.9% | 604.8hPa | 2.7V | 00:00:00 | 03:05:53 | 00:00:00 | |
| DK5PH-5 | 2026-09-01 13:35:23 | 49.01210 | 11.07678 | 91° | 51km/h | 4346m | -2.3m/s | -4.2°C | 29.9% | 604.5hPa | 2.7V | 00:00:00 | 03:05:51 | 00:00:00 | |
| DO3MHA-12 | 2026-09-01 13:35:20 | 49.01213 | 11.07614 | 100° | 53km/h | 4353m | -2.3m/s | -4.2°C | 30.1% | 604.0hPa | 2.7V | 07:20:00 | 03:05:48 | 00:00:00 | |
| DO9HM | 2026-09-01 13:35:16 | 49.01222 | 11.07553 | 106° | 49km/h | 4360m | -2.3m/s | -4.3°C | 29.8% | 603.4hPa | 2.7V | 00:00:00 | 00:00:00 | 00:00:00 | |
| DO3MHA-12 | 2026-09-01 13:35:15 | 49.01227 | 11.07518 | 99° | 47km/h | 4365m | -2.3m/s | -4.3°C | 30.7% | 603.0hPa | 2.7V | 00:00:00 | 03:05:43 | 00:00:00 | |
| DL0LBS | 2026-09-01 13:35:14 | 49.01227 | 11.07518 | 100° | 44km/h | 4365m | -2.3m/s | -4.4°C | 29.8% | 603.1hPa | 2.7V | 07:20:00 | 00:00:00 | 00:00:00 | |
| DO3MHA-12 | 2026-09-01 13:35:10 | 49.01229 | 11.07424 | 93° | 57km/h | 4378m | -2.5m/s | -4.5°C | 31.2% | 602.0hPa | 2.7V | 00:00:00 | 03:05:38 | 00:00:00 | |
| DB0NH | 2026-09-01 13:35:08 | 49.01232 | 11.07380 | 100° | 51km/h | 4383m | -2.5m/s | -4.5°C | 31.2% | 601.7hPa | 2.7V | 00:00:00 | 03:05:36 | 00:00:00 | |
| DO3MHA-12 | 2026-09-01 13:35:05 | 49.01242 | 11.07319 | 107° | 46km/h | 4390m | -2.5m/s | -4.5°C | 31.6% | 601.1hPa | 2.7V | 00:00:00 | 03:05:33 | 00:00:00 | |
| DB0UT-7 | 2026-09-01 13:35:04 | 49.01245 | 11.07301 | 106° | 47km/h | 4393m | -2.5m/s | -4.5°C | 31.6% | 600.9hPa | 2.6V | 00:00:00 | 03:05:32 | 00:00:00 | |
| DL9SK-14 | 2026-09-01 13:35:02 | 49.01251 | 11.07251 | 93° | 44km/h | 4401m | -2.5m/s | -4.7°C | 30.9% | 600.4hPa | 2.6V | 00:00:00 | 00:00:00 | 00:00:00 | |
| DL6DJ-15 | 2026-09-01 13:34:57 | 49.01253 | 11.07150 | 96° | 57km/h | 4414m | -2.6m/s | -4.8°C | 31.3% | 599.4hPa | 2.6V | 00:00:00 | 00:00:00 | 00:00:00 | |
| NBG1-10 | 2026-09-01 13:34:56 | 49.01253 | 11.07150 | 97° | 51km/h | 4414m | -2.5m/s | -4.8°C | 32.2% | 599.3hPa | 2.6V | 00:00:00 | 03:05:24 | 00:00:00 | |
| DO3MHA-11 | 2026-09-01 13:34:55 | 49.01255 | 11.07128 | 101° | 53km/h | 4416m | -2.7m/s | -4.8°C | 32.4% | 599.1hPa | 2.6V | 07:20:00 | 03:05:23 | 00:00:00 | |
| DO9HM | 2026-09-01 13:34:54 | 49.01255 | 11.07128 | 102° | 58km/h | 4416m | -2.7m/s | -4.8°C | 31.4% | 599.2hPa | 2.7V | 00:00:00 | 00:00:00 | 00:00:00 | |
| DK5PH-5 | 2026-09-01 13:34:53 | 49.01261 | 11.07086 | 106° | 51km/h | 4421m | -2.4m/s | -4.8°C | 32.5% | 598.7hPa | 2.7V | 00:00:00 | 03:05:21 | 00:00:00 | |
| DO3MHA-11 | 2026-09-01 13:34:50 | 49.01271 | 11.07033 | 101° | 47km/h | 4429m | -2.6m/s | -4.8°C | 32.7% | 598.1hPa | 2.6V | 00:00:00 | 03:05:18 | 00:00:00 | |
| DL0LBS | 2026-09-01 13:34:49 | 49.01271 | 11.07033 | 102° | 44km/h | 4429m | -2.6m/s | -4.9°C | 31.8% | 598.2hPa | 2.6V | 07:20:00 | 00:00:00 | 00:00:00 | |
| DO3MHA-12 | 2026-09-01 13:34:45 | 49.01273 | 11.06940 | 92° | 58km/h | 4442m | -2.6m/s | -5.0°C | 33.8% | 597.1hPa | 2.6V | 00:00:00 | 03:05:13 | 00:00:00 | |
| DO3MHA-12 | 2026-09-01 13:34:40 | 49.01284 | 11.06831 | 106° | 47km/h | 4456m | -2.7m/s | -5.0°C | 33.4% | 596.1hPa | 2.6V | 07:20:00 | 03:05:08 | 00:00:00 | |
| DM7RM-13 | 2026-09-01 13:34:39 | 49.01284 | 11.06831 | 107° | 55km/h | 4456m | -2.7m/s | -5.1°C | 32.5% | 596.1hPa | 2.6V | 07:21:00 | 00:00:00 | 00:00:00 | |
| DB0NH | 2026-09-01 13:34:38 | 49.01292 | 11.06794 | 107° | 49km/h | 4461m | -2.7m/s | -5.1°C | 33.5% | 595.6hPa | 2.6V | 00:00:00 | 03:05:06 | 00:00:00 | |
| DB0ND-19 | 2026-09-01 13:34:37 | 49.01295 | 11.06777 | 103° | 44km/h | 4464m | -2.6m/s | -5.1°C | 32.4% | 595.5hPa | 2.6V | 00:00:00 | 00:00:00 | 00:00:00 | |
| DO9HM | 2026-09-01 13:34:35 | 49.01298 | 11.06744 | 95° | 44km/h | 4469m | -2.7m/s | -5.1°C | 31.9% | 595.2hPa | 2.6V | 07:21:00 | 00:00:00 | 00:00:00 | |
| DO3MHA-12 | 2026-09-01 13:34:30 | 49.01298 | 11.06647 | 93° | 57km/h | 4483m | -3.0m/s | -5.3°C | 32.5% | 594.1hPa | 2.6V | 00:00:00 | 03:04:58 | 00:00:00 | |
| DL0LBS | 2026-09-01 13:34:27 | 49.01301 | 11.06603 | 100° | 58km/h | 4489m | -2.9m/s | -5.4°C | 31.5% | 593.6hPa | 2.6V | 07:21:00 | 00:00:00 | 00:00:00 | |
| DL6DJ-15 | 2026-09-01 13:34:26 | 49.01310 | 11.06542 | 105° | 49km/h | 4497m | -2.7m/s | -5.4°C | 31.2% | 593.0hPa | 2.6V | 00:00:00 | 00:00:00 | 00:00:00 | |
| DO3MHA-12 | 2026-09-01 13:34:25 | 49.01310 | 11.06542 | 106° | 46km/h | 4497m | -2.7m/s | -5.3°C | 32.2% | 592.9hPa | 2.6V | 00:00:00 | 03:04:53 | 00:00:00 | |
| DK5PH-5 | 2026-09-01 13:34:23 | 49.01316 | 11.06508 | 103° | 49km/h | 4503m | -2.7m/s | -5.3°C | 30.8% | 592.6hPa | 2.6V | 00:00:00 | 03:04:51 | 00:00:00 | |
| DO3MHA-11 | 2026-09-01 13:34:20 | 49.01319 | 11.06458 | 90° | 51km/h | 4511m | -2.8m/s | -5.4°C | 30.4% | 591.9hPa | 2.6V | 00:00:00 | 03:04:48 | 00:00:00 | |
| DM7RM-13 | 2026-09-01 13:34:19 | 49.01319 | 11.06458 | 91° | 44km/h | 4511m | -2.8m/s | -5.5°C | 29.5% | 591.9hPa | 2.6V | 07:21:00 | 00:00:00 | 00:00:00 | |
| DO3MHA-11 | 2026-09-01 13:34:15 | 49.01321 | 11.06358 | 98° | 53km/h | 4525m | -2.4m/s | -5.6°C | 29.6% | 591.0hPa | 2.6V | 07:21:00 | 03:04:43 | 00:00:00 | |
| DO9HM | 2026-09-01 13:34:13 | 49.01323 | 11.06337 | 103° | 55km/h | 4527m | -2.7m/s | -5.7°C | 28.7% | 590.8hPa | 2.6V | 07:21:00 | 00:00:00 | 00:00:00 | |
| DO3MHA-11 | 2026-09-01 13:34:10 | 49.01335 | 11.06264 | 102° | 44km/h | 4538m | -2.7m/s | -5.6°C | 29.3% | 589.8hPa | 2.6V | 00:00:00 | 03:04:38 | 00:00:00 | |
| DB0NH | 2026-09-01 13:34:08 | 49.01338 | 11.06231 | 92° | 49km/h | 4544m | -2.6m/s | -5.6°C | 29.6% | 589.4hPa | 2.7V | 00:00:00 | 03:04:36 | 00:00:00 | |
| DB0ND-19 | 2026-09-01 13:34:06 | 49.01337 | 11.06196 | 88° | 47km/h | 4549m | -2.8m/s | -5.8°C | 28.5% | 589.0hPa | 2.7V | 00:00:00 | 00:00:00 | 00:00:00 | |
| DO3MHA-12 | 2026-09-01 13:34:05 | 49.01337 | 11.06176 | 90° | 55km/h | 4552m | -2.6m/s | -5.8°C | 29.6% | 588.8hPa | 2.7V | 00:00:00 | 03:04:33 | 00:00:00 | |
| DB0UT-7 | 2026-09-01 13:34:03 | 49.01338 | 11.06134 | 95° | 51km/h | 4558m | -2.6m/s | -5.8°C | 29.4% | 588.4hPa | 2.6V | 00:00:00 | 00:00:00 | 00:00:00 | |
| DL9SK-14 | 2026-09-01 13:33:59 | 49.01348 | 11.06052 | 104° | 47km/h | 4568m | -2.8m/s | -5.9°C | 28.0% | 587.7hPa | 2.6V | 00:00:00 | 00:00:00 | 00:00:00 | |
| DL6DJ-15 | 2026-09-01 13:33:55 | 49.01355 | 11.05968 | 87° | 46km/h | 4583m | -2.8m/s | -6.1°C | 29.2% | 586.6hPa | 2.6V | 00:00:00 | 00:00:00 | 00:00:00 | |
| DO9HM | 2026-09-01 13:33:53 | 49.01354 | 11.05949 | 89° | 51km/h | 4585m | -2.7m/s | -6.1°C | 29.4% | 586.3hPa | 2.6V | 07:22:00 | 00:00:00 | 00:00:00 | |
| DO3MHA-12 | 2026-09-01 13:33:50 | 49.01356 | 11.05886 | 97° | 51km/h | 4594m | -2.6m/s | -6.1°C | 30.1% | 585.7hPa | 2.6V | 00:00:00 | 03:04:18 | 00:00:00 | |
| DO3MHA-12 | 2026-09-01 13:33:45 | 49.01369 | 11.05792 | 100° | 46km/h | 4608m | -2.8m/s | -6.2°C | 30.4% | 584.6hPa | 2.7V | 00:00:00 | 03:04:13 | 00:00:00 | |
| DL0LBS | 2026-09-01 13:33:42 | 49.01370 | 11.05759 | 90° | 44km/h | 4613m | -2.8m/s | -6.3°C | 29.5% | 584.2hPa | 2.7V | 00:00:00 | 00:00:00 | 00:00:00 | |
| DO3MHA-11 | 2026-09-01 13:33:40 | 49.01368 | 11.05701 | 89° | 57km/h | 4622m | -2.8m/s | -6.4°C | 30.7% | 583.5hPa | 2.7V | 00:00:00 | 03:04:08 | 00:00:00 | |
| DB0NH | 2026-09-01 13:33:38 | 49.01369 | 11.05658 | 95° | 51km/h | 4628m | -2.8m/s | -6.4°C | 30.9% | 583.1hPa | 2.7V | 00:00:00 | 03:04:06 | 00:00:00 | |
| DO3MHA-11 | 2026-09-01 13:33:35 | 49.01376 | 11.05593 | 104° | 47km/h | 4636m | -2.9m/s | -6.5°C | 31.0% | 582.5hPa | 2.7V | 07:21:00 | 03:04:03 | 00:00:00 | |
| DB0UT-7 | 2026-09-01 13:33:33 | 49.01382 | 11.05556 | 104° | 51km/h | 4642m | -2.7m/s | -6.5°C | 31.0% | 582.1hPa | 2.7V | 00:00:00 | 03:04:01 | 00:00:00 | |
| DO9HM | 2026-09-01 13:33:32 | 49.01382 | 11.05556 | 104° | 46km/h | 4642m | -2.8m/s | -6.5°C | 30.0% | 582.1hPa | 2.7V | 07:22:00 | 00:00:00 | 00:00:00 | |
| DO3MHA-11 | 2026-09-01 13:33:30 | 49.01386 | 11.05507 | 92° | 47km/h | 4650m | -3.1m/s | -6.6°C | 31.5% | 581.4hPa | 2.7V | 00:00:00 | 03:03:58 | 00:00:00 | |
| DL9SK-14 | 2026-09-01 13:33:28 | 49.01386 | 11.05473 | 87° | 47km/h | 4656m | -3.0m/s | -6.7°C | 30.6% | 581.1hPa | 2.7V | 00:00:00 | 00:00:00 | 00:00:00 | |
| DO3MHA-11 | 2026-09-01 13:33:25 | 49.01384 | 11.05411 | 92° | 57km/h | 4665m | -2.8m/s | -6.7°C | 31.7% | 580.3hPa | 2.7V | 00:00:00 | 03:03:53 | 00:00:00 | |
| DK5PH-5 | 2026-09-01 13:33:23 | 49.01386 | 11.05367 | 98° | 51km/h | 4671m | -2.8m/s | -6.8°C | 31.2% | 579.8hPa | 2.7V | 00:00:00 | 03:03:51 | 00:00:00 | |
| DO3MHA-12 | 2026-09-01 13:33:20 | 49.01395 | 11.05305 | 104° | 44km/h | 4680m | -2.8m/s | -6.8°C | 30.6% | 579.3hPa | 2.7V | 07:22:00 | 03:03:48 | 00:00:00 | |
| NBG1-10 | 2026-09-01 13:33:17 | 49.01401 | 11.05254 | 96° | 51km/h | 4688m | -3.0m/s | -6.9°C | 30.8% | 578.6hPa | 2.7V | 00:00:00 | 03:03:45 | 00:00:00 | |
| DO9HM | 2026-09-01 13:33:11 | 49.01399 | 11.05163 | 89° | 55km/h | 4702m | -3.0m/s | -7.1°C | 29.8% | 577.6hPa | 2.7V | 07:22:00 | 00:00:00 | 00:00:00 | |
| DO3MHA-12 | 2026-09-01 13:33:10 | 49.01399 | 11.05119 | 95° | 53km/h | 4708m | -2.8m/s | -7.1°C | 30.9% | 577.2hPa | 2.7V | 00:00:00 | 03:03:38 | 00:00:00 | |
| DB0NH | 2026-09-01 13:33:08 | 49.01403 | 11.05077 | 102° | 49km/h | 4714m | -2.9m/s | -7.1°C | 30.9% | 576.7hPa | 2.7V | 00:00:00 | 03:03:36 | 00:00:00 | |
| DO3MHA-12 | 2026-09-01 13:33:05 | 49.01410 | 11.05023 | 98° | 46km/h | 4723m | -2.9m/s | -7.1°C | 30.9% | 576.1hPa | 2.7V | 00:00:00 | 03:03:33 | 00:00:00 | |
| DB0ND-19 | 2026-09-01 13:33:04 | 49.01411 | 11.05006 | 93° | 40km/h | 4726m | -2.9m/s | -7.2°C | 29.7% | 575.9hPa | 2.7V | 00:00:00 | 00:00:00 | 00:00:00 | |
| DB0UT-7 | 2026-09-01 13:33:03 | 49.01411 | 11.04990 | 89° | 51km/h | 4729m | -3.0m/s | -7.2°C | 30.8% | 575.6hPa | 2.7V | 00:00:00 | 00:00:00 | 00:00:00 | |
| DL9SK-14 | 2026-09-01 13:32:57 | 49.01409 | 11.04869 | 95° | 57km/h | 4747m | -3.0m/s | -7.4°C | 30.1% | 574.3hPa | 2.7V | 00:00:00 | 00:00:00 | 00:00:00 | |
| DL6DJ-15 | 2026-09-01 13:32:52 | 49.01420 | 11.04771 | 96° | 44km/h | 4762m | -3.0m/s | -7.5°C | 30.4% | 573.2hPa | 2.7V | 00:00:00 | 00:00:00 | 00:00:00 | |
| DL0LBS | 2026-09-01 13:32:51 | 49.01420 | 11.04771 | 98° | 44km/h | 4762m | -3.0m/s | -7.5°C | 0% | 0hPa | 2.7V | 00:00:00 | 00:00:00 | 00:00:00 | |
| DO3MHA-11 | 2026-09-01 13:32:50 | 49.01421 | 11.04737 | 88° | 51km/h | 4768m | -3.0m/s | -7.5°C | 31.5% | 572.8hPa | 2.7V | 00:00:00 | 03:03:18 | 00:00:00 | |
| DO3MHA-12 | 2026-09-01 13:32:45 | 49.01417 | 11.04636 | 94° | 53km/h | 4783m | -3.0m/s | -7.7°C | 31.5% | 571.6hPa | 2.7V | 00:00:00 | 03:03:13 | 00:00:00 | |
| NBG1-10 | 2026-09-01 13:32:44 | 49.01419 | 11.04614 | 97° | 49km/h | 4786m | -3.0m/s | -7.7°C | 31.5% | 571.4hPa | 2.7V | 00:00:00 | 03:03:12 | 00:00:00 | |
| DF7PN | 2026-09-01 13:32:43 | 49.01421 | 11.04593 | 99° | 53km/h | 4789m | -2.9m/s | -7.7°C | 30.3% | 571.3hPa | 2.7V | 00:00:00 | 00:00:00 | 00:00:00 | |
| DO3MHA-12 | 2026-09-01 13:32:40 | 49.01428 | 11.04537 | 100° | 44km/h | 4798m | -3.0m/s | -7.7°C | 31.5% | 570.6hPa | 2.7V | 07:22:00 | 03:03:08 | 00:00:00 | |
| DB0NH | 2026-09-01 13:32:38 | 49.01430 | 11.04504 | 92° | 49km/h | 4804m | -3.0m/s | -7.8°C | 31.6% | 570.0hPa | 2.7V | 00:00:00 | 03:03:06 | 00:00:00 | |
| DM7RM-13 | 2026-09-01 13:32:37 | 49.01430 | 11.04504 | 92° | 42km/h | 4804m | -3.0m/s | -7.8°C | 30.4% | 570.0hPa | 2.7V | 07:23:00 | 00:00:00 | 00:00:00 | |
| DO3MHA-12 | 2026-09-01 13:32:35 | 49.01428 | 11.04453 | 83° | 55km/h | 4814m | -3.0m/s | -7.9°C | 31.6% | 569.4hPa | 2.7V | 00:00:00 | 03:03:03 | 00:00:00 | |
| DB0ND-19 | 2026-09-01 13:32:33 | 49.01425 | 11.04412 | 86° | 55km/h | 4819m | -3.0m/s | -8.1°C | 30.5% | 569.0hPa | 2.7V | 00:00:00 | 00:00:00 | 00:00:00 | |
| DO9HM | 2026-09-01 13:32:31 | 49.01425 | 11.04390 | 91° | 57km/h | 4823m | -3.0m/s | -8.1°C | 30.3% | 568.8hPa | 2.7V | 07:23:00 | 00:00:00 | 00:00:00 | |
| DO3MHA-12 | 2026-09-01 13:32:30 | 49.01427 | 11.04347 | 98° | 49km/h | 4829m | -2.9m/s | -8.0°C | 31.5% | 568.3hPa | 2.7V | 00:00:00 | 03:02:58 | 00:00:00 | |
| DL9SK-14 | 2026-09-01 13:32:26 | 49.01435 | 11.04273 | 96° | 42km/h | 4841m | -3.1m/s | -8.2°C | 30.7% | 567.5hPa | 2.7V | 00:00:00 | 00:00:00 | 00:00:00 | |
| DO3MHA-12 | 2026-09-01 13:32:25 | 49.01436 | 11.04257 | 92° | 47km/h | 4844m | -3.1m/s | -8.2°C | 32.0% | 567.2hPa | 2.7V | 00:00:00 | 03:02:53 | 00:00:00 | |
| DK5PH-5 | 2026-09-01 13:32:23 | 49.01435 | 11.04223 | 86° | 49km/h | 4850m | -3.1m/s | -8.3°C | 32.2% | 566.7hPa | 2.7V | 00:00:00 | 03:02:51 | 00:00:00 | |
| DL6DJ-15 | 2026-09-01 13:32:21 | 49.01433 | 11.04184 | 85° | 53km/h | 4856m | -3.0m/s | -8.4°C | 31.0% | 566.4hPa | 2.7V | 00:00:00 | 00:00:00 | 00:00:00 | |
| DO3MHA-11 | 2026-09-01 13:32:20 | 49.01432 | 11.04163 | 89° | 55km/h | 4859m | -2.9m/s | -8.4°C | 32.2% | 566.0hPa | 2.7V | 00:00:00 | 03:02:48 | 00:00:00 | |
| DM7RM-13 | 2026-09-01 13:32:16 | 49.01435 | 11.04099 | 100° | 53km/h | 4868m | -3.3m/s | -8.4°C | 30.9% | 565.4hPa | 2.7V | 07:23:00 | 00:00:00 | 00:00:00 | |
| DO3MHA-11 | 2026-09-01 13:32:15 | 49.01439 | 11.04060 | 100° | 44km/h | 4874m | -3.0m/s | -8.4°C | 31.9% | 565.0hPa | 2.7V | 07:23:00 | 03:02:43 | 00:00:00 | |
| DF7PN | 2026-09-01 13:32:12 | 49.01441 | 11.04011 | 87° | 42km/h | 4884m | -3.1m/s | -8.5°C | 31.3% | 564.3hPa | 2.7V | 00:00:00 | 00:00:00 | 00:00:00 | |
| NBG1-10 | 2026-09-01 13:32:11 | 49.01440 | 11.03994 | 84° | 49km/h | 4887m | -3.1m/s | -8.5°C | 32.6% | 564.1hPa | 2.7V | 00:00:00 | 03:02:39 | 00:00:00 | |
| DO3MHA-11 | 2026-09-01 13:32:10 | 49.01439 | 11.03976 | 83° | 53km/h | 4890m | -3.2m/s | -8.6°C | 32.8% | 563.9hPa | 2.7V | 00:00:00 | 03:02:38 | 00:00:00 | |
| DB0NH | 2026-09-01 13:32:08 | 49.01436 | 11.03937 | 87° | 49km/h | 4896m | -3.0m/s | -8.7°C | 33.6% | 563.5hPa | 2.7V | 00:00:00 | 03:02:36 | 00:00:00 | |
| DO3MHA-11 | 2026-09-01 13:32:05 | 49.01438 | 11.03874 | 98° | 47km/h | 4905m | -3.0m/s | -8.7°C | 34.4% | 562.8hPa | 2.6V | 00:00:00 | 03:02:33 | 00:00:00 | |
| DB0ND-19 | 2026-09-01 13:32:02 | 49.01443 | 11.03819 | 96° | 42km/h | 4914m | -3.0m/s | -8.8°C | 33.3% | 562.1hPa | 2.6V | 00:00:00 | 00:00:00 | 00:00:00 | |
| DO3MHA-12 | 2026-09-01 13:32:00 | 49.01444 | 11.03786 | 88° | 47km/h | 4921m | -3.0m/s | -8.8°C | 34.4% | 561.6hPa | 2.6V | 07:23:00 | 03:02:28 | 00:00:00 | |
| DO3MHA-12 | 2026-09-01 13:31:55 | 49.01437 | 11.03693 | 88° | 53km/h | 4936m | -3.0m/s | -9.0°C | 33.9% | 560.5hPa | 2.6V | 00:00:00 | 03:02:23 | 00:00:00 | |
| DK5PH-5 | 2026-09-01 13:31:53 | 49.01438 | 11.03650 | 97° | 49km/h | 4942m | -3.0m/s | -9.0°C | 34.1% | 560.1hPa | 2.6V | 00:00:00 | 03:02:21 | 00:00:00 | |
| DO3MHA-12 | 2026-09-01 13:31:50 | 49.01444 | 11.03592 | 101° | 42km/h | 4952m | -3.1m/s | -9.0°C | 34.5% | 559.3hPa | 2.7V | 00:00:00 | 03:02:18 | 00:00:00 | |
| DO3MHA-12 | 2026-09-01 13:31:45 | 49.01445 | 11.03511 | 82° | 51km/h | 4968m | -3.2m/s | -9.2°C | 35.2% | 558.2hPa | 2.6V | 00:00:00 | 03:02:13 | 00:00:00 | |
| DF7PN | 2026-09-01 13:31:42 | 49.01441 | 11.03432 | 91° | 55km/h | 4980m | -3.1m/s | -9.3°C | 34.6% | 557.3hPa | 2.6V | 00:00:00 | 00:00:00 | 00:00:00 | |
| DO3MHA-11 | 2026-09-01 13:31:40 | 49.01442 | 11.03410 | 96° | 47km/h | 4983m | -3.0m/s | -9.3°C | 36.1% | 557.1hPa | 2.6V | 00:00:00 | 03:02:08 | 00:00:00 | |
| DO3MHA-11 | 2026-09-01 13:31:35 | 49.01449 | 11.03322 | 91° | 46km/h | 4999m | -2.9m/s | -9.4°C | 36.4% | 556.0hPa | 2.7V | 07:23:00 | 03:02:03 | 00:00:00 | |
| DB0ND-19 | 2026-09-01 13:31:31 | 49.01444 | 11.03254 | 81° | 51km/h | 5011m | -3.1m/s | -9.6°C | 35.1% | 555.2hPa | 2.7V | 00:00:00 | 00:00:00 | 00:00:00 | |
| DB0UT-7 | 2026-09-01 13:31:30 | 49.01442 | 11.03233 | 84° | 49km/h | 5015m | -3.1m/s | -9.6°C | 36.4% | 555.0hPa | 2.7V | 00:00:00 | 03:01:58 | 00:00:00 | |
| DO3MHA-11 | 2026-09-01 13:31:29 | 49.01441 | 11.03212 | 88° | 49km/h | 5018m | -2.9m/s | -9.6°C | 36.4% | 554.6hPa | 2.7V | 00:00:00 | 03:01:57 | 00:00:00 | |
| DO3MHA-12 | 2026-09-01 13:31:28 | 49.01440 | 11.03191 | 91° | 47km/h | 5021m | -3.1m/s | -9.6°C | 36.7% | 554.4hPa | 2.7V | 00:00:00 | 03:01:56 | 00:00:00 | |
| DL0LBS | 2026-09-01 13:31:26 | 49.01441 | 11.03169 | 96° | 55km/h | 5024m | -3.2m/s | -9.6°C | 0% | 0hPa | 2.7V | 07:24:00 | 00:00:00 | 00:00:00 | |
| DL9SK-14 | 2026-09-01 13:31:24 | 49.01448 | 11.03095 | 95° | 40km/h | 5036m | -3.1m/s | -9.7°C | 35.8% | 553.4hPa | 2.7V | 00:00:00 | 00:00:00 | 00:00:00 | |
| DK5PH-5 | 2026-09-01 13:31:23 | 49.01447 | 11.03095 | 96° | 49km/h | 5036m | -3.0m/s | -9.6°C | 37.3% | 553.3hPa | 2.7V | 00:00:00 | 03:01:51 | 00:00:00 | |
| DO3MHA-11 | 2026-09-01 13:31:19 | 49.01445 | 11.03028 | 82° | 51km/h | 5048m | -3.1m/s | -9.8°C | 37.2% | 552.4hPa | 2.7V | 00:00:00 | 03:01:47 | 00:00:00 | |
| DO3MHA-12 | 2026-09-01 13:31:18 | 49.01443 | 11.03009 | 83° | 51km/h | 5051m | -3.1m/s | -9.9°C | 36.9% | 552.1hPa | 2.6V | 00:00:00 | 03:01:46 | 00:00:00 | |
| DM7RM-13 | 2026-09-01 13:31:15 | 49.01441 | 11.02967 | 89° | 57km/h | 5058m | -3.2m/s | -9.9°C | 35.3% | 551.9hPa | 2.6V | 07:24:00 | 00:00:00 | 00:00:00 | |
| DF7PN | 2026-09-01 13:31:10 | 49.01449 | 11.02847 | 97° | 42km/h | 5077m | -3.1m/s | -10.0°C | 34.7% | 550.4hPa | 2.6V | 00:00:00 | 00:00:00 | 00:00:00 | |
| DO3MHA-11 | 2026-09-01 13:31:09 | 49.01450 | 11.02831 | 94° | 51km/h | 5080m | -3.0m/s | -10.0°C | 35.9% | 550.2hPa | 2.6V | 00:00:00 | 03:01:37 | 00:00:00 | |
| DO3MHA-12 | 2026-09-01 13:31:08 | 49.01450 | 11.02815 | 89° | 51km/h | 5083m | -3.1m/s | -10.0°C | 36.8% | 550.0hPa | 2.6V | 07:24:00 | 03:01:36 | 00:00:00 | |
| DL0LBS | 2026-09-01 13:31:06 | 49.01449 | 11.02798 | 86° | 46km/h | 5086m | -3.1m/s | -10.2°C | 0% | 0hPa | 2.6V | 07:24:00 | 00:00:00 | 00:00:00 | |
| NBG1-10 | 2026-09-01 13:31:05 | 49.01447 | 11.02761 | 85° | 51km/h | 5092m | -2.9m/s | -10.2°C | 42.9% | 549.3hPa | 2.6V | 00:00:00 | 03:01:33 | 00:00:00 | |
| DB0ND-19 | 2026-09-01 13:31:00 | 49.01450 | 11.02654 | 100° | 53km/h | 5107m | -3.3m/s | -10.3°C | 44.9% | 548.2hPa | 2.6V | 00:00:00 | 00:00:00 | 00:00:00 | |
| DO3MHA-11 | 2026-09-01 13:30:59 | 49.01452 | 11.02634 | 102° | 47km/h | 5111m | -3.1m/s | -10.2°C | 46.9% | 547.9hPa | 2.6V | 00:00:00 | 03:01:27 | 00:00:00 | |
| DO3MHA-12 | 2026-09-01 13:30:58 | 49.01455 | 11.02616 | 102° | 49km/h | 5114m | -3.2m/s | -10.3°C | 47.1% | 547.7hPa | 2.6V | 00:00:00 | 03:01:26 | 00:00:00 | |
| DM7RM-13 | 2026-09-01 13:30:55 | 49.01458 | 11.02582 | 96° | 42km/h | 5120m | -3.1m/s | -10.4°C | 45.4% | 547.4hPa | 2.6V | 07:24:00 | 00:00:00 | 00:00:00 | |
| DK5PH-5 | 2026-09-01 13:30:53 | 49.01457 | 11.02532 | 84° | 49km/h | 5129m | -3.1m/s | -10.5°C | 47.1% | 546.6hPa | 2.6V | 00:00:00 | 03:01:21 | 00:00:00 | |
| DO3MHA-11 | 2026-09-01 13:30:49 | 49.01455 | 11.02449 | 94° | 47km/h | 5142m | -2.9m/s | -10.6°C | 46.2% | 545.8hPa | 2.6V | 00:00:00 | 03:01:17 | 00:00:00 | |
| DO3MHA-12 | 2026-09-01 13:30:48 | 49.01456 | 11.02427 | 98° | 47km/h | 5145m | -3.1m/s | -10.6°C | 45.9% | 545.6hPa | 2.7V | 00:00:00 | 03:01:16 | 00:00:00 | |
| DO9HM | 2026-09-01 13:30:47 | 49.01456 | 11.02427 | 98° | 55km/h | 5145m | -3.2m/s | -10.7°C | 44.1% | 545.7hPa | 2.7V | 07:24:00 | 00:00:00 | 00:00:00 | |
| DF7PN | 2026-09-01 13:30:40 | 49.01465 | 11.02265 | 87° | 53km/h | 5172m | -3.0m/s | -10.9°C | 42.0% | 543.6hPa | 2.7V | 00:00:00 | 00:00:00 | 00:00:00 | |
| DO3MHA-11 | 2026-09-01 13:30:39 | 49.01465 | 11.02265 | 88° | 49km/h | 5172m | -2.9m/s | -10.9°C | 43.8% | 543.5hPa | 2.7V | 00:00:00 | 03:01:07 | 00:00:00 | |
| DO3MHA-12 | 2026-09-01 13:30:38 | 49.01465 | 11.02245 | 91° | 49km/h | 5176m | -2.9m/s | -10.9°C | 43.6% | 543.4hPa | 2.7V | 00:00:00 | 03:01:06 | 00:00:00 | |
| DL0LBS | 2026-09-01 13:30:35 | 49.01467 | 11.02202 | 99° | 55km/h | 5182m | -3.1m/s | -10.9°C | 0% | 0hPa | 2.7V | 07:24:00 | 00:00:00 | 00:00:00 | |
| DM7RM-13 | 2026-09-01 13:30:34 | 49.01469 | 11.02181 | 102° | 53km/h | 5185m | -3.1m/s | -10.9°C | 41.4% | 542.8hPa | 2.7V | 07:24:00 | 00:00:00 | 00:00:00 | |
| NBG1-10 | 2026-09-01 13:30:32 | 49.01477 | 11.02128 | 100° | 49km/h | 5194m | -3.0m/s | -10.9°C | 43.3% | 542.1hPa | 2.7V | 00:00:00 | 03:01:00 | 00:00:00 | |
| DO3MHA-11 | 2026-09-01 13:30:29 | 49.01479 | 11.02079 | 88° | 51km/h | 5203m | -3.0m/s | -11.0°C | 43.3% | 541.4hPa | 2.7V | 00:00:00 | 03:00:57 | 00:00:00 | |
| DO3MHA-12 | 2026-09-01 13:30:28 | 49.01478 | 11.02061 | 88° | 49km/h | 5206m | -2.9m/s | -11.1°C | 43.4% | 541.2hPa | 2.7V | 00:00:00 | 03:00:56 | 00:00:00 | |
| DO9HM | 2026-09-01 13:30:27 | 49.01478 | 11.02061 | 88° | 49km/h | 5206m | -3.0m/s | -11.1°C | 41.6% | 541.2hPa | 2.7V | 07:25:00 | 00:00:00 | 00:00:00 | |
| DB0UT-7 | 2026-09-01 13:30:24 | 49.01480 | 11.01977 | 100° | 49km/h | 5218m | -3.2m/s | -11.0°C | 42.7% | 540.4hPa | 2.7V | 00:00:00 | 00:00:00 | 00:00:00 | |
| DK5PH-5 | 2026-09-01 13:30:23 | 49.01483 | 11.01957 | 102° | 49km/h | 5222m | -3.0m/s | -11.0°C | 43.2% | 540.1hPa | 2.6V | 00:00:00 | 03:00:51 | 00:00:00 | |
| DL9SK-14 | 2026-09-01 13:30:22 | 49.01489 | 11.01920 | 103° | 44km/h | 5228m | -3.1m/s | -11.1°C | 42.5% | 539.7hPa | 2.7V | 00:00:00 | 00:00:00 | 00:00:00 | |
| DO3MHA-11 | 2026-09-01 13:30:19 | 49.01493 | 11.01888 | 97° | 49km/h | 5234m | -3.1m/s | -11.1°C | 44.4% | 539.3hPa | 2.7V | 07:25:00 | 03:00:47 | 00:00:00 | |
| DO3MHA-12 | 2026-09-01 13:30:18 | 49.01493 | 11.01872 | 92° | 51km/h | 5237m | -3.1m/s | -11.2°C | 44.5% | 539.0hPa | 2.7V | 00:00:00 | 03:00:46 | 00:00:00 | |
| DL6DJ-15 | 2026-09-01 13:30:17 | 49.01493 | 11.01856 | 87° | 44km/h | 5240m | -3.2m/s | -11.3°C | 43.0% | 538.8hPa | 2.7V | 00:00:00 | 00:00:00 | 00:00:00 | |
| DK7TD | 2026-09-01 13:29:59 | 49.01507 | 11.01515 | 96° | 57km/h | 5297m | -3.1m/s | -11.6°C | 44.2% | 534.9hPa | 2.7V | 07:27:28 | 03:00:27 | 00:00:00 | |
| DB0ND-19 | 2026-09-01 13:29:58 | 49.01512 | 11.01474 | 102° | 51km/h | 5303m | -3.1m/s | -11.6°C | 39.4% | 534.4hPa | 2.6V | 00:00:00 | 00:00:00 | 00:00:00 | |
| DL9SK-14 | 2026-09-01 13:29:51 | 49.01521 | 11.01354 | 87° | 49km/h | 5325m | -3.0m/s | -11.9°C | 38.5% | 532.9hPa | 2.6V | 00:00:00 | 00:00:00 | 00:00:00 | |
| DL6DJ-15 | 2026-09-01 13:29:46 | 49.01524 | 11.01273 | 101° | 51km/h | 5337m | -3.0m/s | -11.9°C | 38.7% | 532.1hPa | 2.6V | 00:00:00 | 00:00:00 | 00:00:00 | |
| DK7TD | 2026-09-01 13:29:34 | 49.01538 | 11.01062 | 95° | 57km/h | 5375m | -3.1m/s | -12.2°C | 42.4% | 529.4hPa | 2.6V | 07:27:28 | 03:00:02 | 00:00:00 | |
| DK7TD | 2026-09-01 13:29:24 | 49.01553 | 11.00884 | 87° | 49km/h | 5406m | -3.3m/s | -12.4°C | 41.9% | 527.2hPa | 2.7V | 07:27:28 | 02:59:52 | 00:00:00 | |
| DK5PH-5 | 2026-09-01 13:29:23 | 49.01553 | 11.00864 | 88° | 51km/h | 5409m | -3.1m/s | -12.3°C | 39.5% | 526.9hPa | 2.7V | 00:00:00 | 02:59:51 | 00:00:00 | |
| DB0UT-7 | 2026-09-01 13:29:21 | 49.01553 | 11.00822 | 95° | 51km/h | 5415m | -3.2m/s | -12.3°C | 39.4% | 526.5hPa | 2.7V | 00:00:00 | 00:00:00 | 00:00:00 | |
| DL9SK-14 | 2026-09-01 13:29:20 | 49.01557 | 11.00780 | 102° | 53km/h | 5421m | -3.2m/s | -12.4°C | 37.7% | 526.2hPa | 2.7V | 00:00:00 | 00:00:00 | 00:00:00 | |
| DO3MHA-11 | 2026-09-01 13:29:19 | 49.01557 | 11.00780 | 103° | 47km/h | 5421m | -3.2m/s | -12.4°C | 39.5% | 526.2hPa | 2.7V | 00:00:00 | 02:59:47 | 00:00:00 | |
| DO3MHA-12 | 2026-09-01 13:29:18 | 49.01560 | 11.00760 | 106° | 47km/h | 5425m | -3.2m/s | -12.4°C | 39.5% | 525.9hPa | 2.7V | 00:00:00 | 02:59:46 | 00:00:00 | |
| DL6DJ-15 | 2026-09-01 13:29:15 | 49.01569 | 11.00709 | 98° | 40km/h | 5434m | -3.1m/s | -12.6°C | 37.9% | 525.4hPa | 2.7V | 00:00:00 | 00:00:00 | 00:00:00 | |
| DM7RM-13 | 2026-09-01 13:29:13 | 49.01570 | 11.00692 | 93° | 42km/h | 5437m | -3.1m/s | -12.6°C | 38.2% | 525.2hPa | 2.7V | 07:26:00 | 00:00:00 | 00:00:00 | |
| DO3MHA-11 | 2026-09-01 13:29:09 | 49.01568 | 11.00597 | 91° | 51km/h | 5453m | -3.0m/s | -12.7°C | 40.6% | 523.9hPa | 2.7V | 00:00:00 | 02:59:37 | 00:00:00 | |
| DO3MHA-12 | 2026-09-01 13:29:08 | 49.01568 | 11.00575 | 95° | 49km/h | 5456m | -3.1m/s | -12.7°C | 40.6% | 523.7hPa | 2.7V | 00:00:00 | 02:59:36 | 00:00:00 | |
| DF7PN | 2026-09-01 13:29:06 | 49.01576 | 11.00510 | 103° | 53km/h | 5465m | -3.1m/s | -12.8°C | 39.2% | 523.1hPa | 2.6V | 00:00:00 | 00:00:00 | 00:00:00 | |
| DG1MJG | 2026-09-01 13:29:04 | 49.01575 | 11.00510 | 105° | 53km/h | 5465m | -3.1m/s | -12.8°C | 39.2% | 523.2hPa | 2.6V | 00:00:00 | 00:00:00 | 00:00:00 | |
| DL0LBS | 2026-09-01 13:29:02 | 49.01582 | 11.00473 | 104° | 46km/h | 5471m | -3.0m/s | -12.9°C | 0% | 0hPa | 2.6V | 00:00:00 | 00:00:00 | 00:00:00 | |
| DB0ND-19 | 2026-09-01 13:28:56 | 49.01583 | 11.00322 | 94° | 57km/h | 5496m | -2.9m/s | -13.1°C | 40.1% | 521.1hPa | 2.6V | 00:00:00 | 00:00:00 | 00:00:00 | |
| DL9SK-14 | 2026-09-01 13:28:49 | 49.01599 | 11.00187 | 91° | 44km/h | 5517m | -3.1m/s | -13.3°C | 40.6% | 519.6hPa | 2.6V | 00:00:00 | 00:00:00 | 00:00:00 | |
| DL6DJ-15 | 2026-09-01 13:28:44 | 49.01597 | 11.00109 | 89° | 57km/h | 5530m | -3.1m/s | -13.5°C | 40.5% | 518.6hPa | 2.6V | 00:00:00 | 00:00:00 | 00:00:00 | |
| DK7TD | 2026-09-01 13:28:39 | 49.01607 | 10.99999 | 103° | 51km/h | 5546m | -3.2m/s | -13.5°C | 44.4% | 517.6hPa | 2.6V | 07:27:28 | 02:59:07 | 00:00:00 | |
| DO3MHA-11 | 2026-09-01 13:28:39 | 49.01606 | 10.99999 | 104° | 51km/h | 5546m | -3.1m/s | -13.5°C | 42.3% | 517.6hPa | 2.7V | 00:00:00 | 02:59:07 | 00:00:00 | |
| DO3MHA-12 | 2026-09-01 13:28:38 | 49.01609 | 10.99980 | 103° | 51km/h | 5549m | -2.9m/s | -13.5°C | 42.2% | 517.5hPa | 2.7V | 00:00:00 | 02:59:06 | 00:00:00 | |
| DF7PN | 2026-09-01 13:28:35 | 49.01612 | 10.99911 | 85° | 47km/h | 5561m | -3.2m/s | -13.6°C | 40.2% | 516.6hPa | 2.6V | 00:00:00 | 00:00:00 | 00:00:00 | |
| DM7RM-13 | 2026-09-01 13:28:32 | 49.01611 | 10.99892 | 86° | 51km/h | 5564m | -3.2m/s | -13.7°C | 40.3% | 516.4hPa | 2.6V | 07:27:00 | 00:00:00 | 00:00:00 | |
| DO3MHA-11 | 2026-09-01 13:28:29 | 49.01609 | 10.99804 | 95° | 51km/h | 5577m | -3.2m/s | -13.8°C | 42.1% | 515.6hPa | 2.6V | 00:00:00 | 02:58:57 | 00:00:00 | |
| DO3MHA-12 | 2026-09-01 13:28:28 | 49.01611 | 10.99782 | 99° | 49km/h | 5580m | -3.0m/s | -13.8°C | 42.2% | 515.3hPa | 2.6V | 07:27:00 | 02:58:56 | 00:00:00 | |
| DK7TD | 2026-09-01 13:28:10 | 49.01629 | 10.99422 | 93° | 44km/h | 5635m | -3m/s | -14.2°C | 42.9% | 511.6hPa | 2.6V | 07:27:28 | 02:58:38 | 00:00:00 | |
| DK7TD | 2026-09-01 13:27:56 | 49.01634 | 10.99141 | 92° | 46km/h | 5678m | -3m/s | -14.6°C | 42.9% | 508.7hPa | 2.7V | 07:29:10 | 02:58:24 | 00:00:00 | |
| DK7TD | 2026-09-01 13:27:45 | 49.01636 | 10.98909 | 100° | 49km/h | 5711m | -3.1m/s | -14.8°C | 42.3% | 506.4hPa | 2.7V | 07:29:10 | 02:58:13 | 00:00:00 | |
| DK7TD | 2026-09-01 13:27:33 | 49.01637 | 10.98664 | 99° | 57km/h | 5749m | -3m/s | -15.1°C | 42.1% | 503.9hPa | 2.7V | 07:29:10 | 02:58:01 | 00:00:00 | |
| DF7PN | 2026-09-01 13:27:33 | 49.01639 | 10.98643 | 100° | 51km/h | 5752m | -3.1m/s | -15.1°C | 38.6% | 503.8hPa | 2.7V | 00:00:00 | 00:00:00 | 00:00:00 | |
| DM7RM-13 | 2026-09-01 13:27:31 | 49.01639 | 10.98643 | 102° | 53km/h | 5752m | -3.1m/s | -15.1°C | 38.6% | 503.8hPa | 2.7V | 07:28:00 | 00:00:00 | 00:00:00 | |
| DO3MHA-12 | 2026-09-01 13:27:28 | 49.01643 | 10.98570 | 86° | 57km/h | 5764m | -3.0m/s | -15.2°C | 40.9% | 503.0hPa | 2.7V | 00:00:00 | 02:57:56 | 00:00:00 | |
| DH7VM-15 | 2026-09-01 13:27:26 | 49.01642 | 10.98552 | 84° | 49km/h | 5767m | -3.3m/s | -15.3°C | 38.8% | 502.7hPa | 2.7V | 00:00:00 | 00:00:00 | 00:00:00 | |
| DK7TD | 2026-09-01 13:27:07 | 49.01647 | 10.98106 | 100° | 53km/h | 5831m | -2.9m/s | -15.7°C | 42.1% | 498.6hPa | 2.7V | 07:29:10 | 02:57:34 | 00:00:00 | |
| DK7TD | 2026-09-01 13:26:51 | 49.01659 | 10.97796 | 99° | 49km/h | 5877m | -3.1m/s | -16°C | 41% | 495.6hPa | 2.6V | 07:29:10 | 02:57:19 | 00:00:00 | |
| DL9SK-14 | 2026-09-01 13:26:44 | 49.01655 | 10.97660 | 88° | 58km/h | 5898m | -2.9m/s | -16.2°C | 38.6% | 494.1hPa | 2.7V | 00:00:00 | 00:00:00 | 00:00:00 | |
| DK7TD | 2026-09-01 13:26:40 | 49.01661 | 10.97570 | 102° | 55km/h | 5910m | -3.2m/s | -16.2°C | 41.7% | 493.4hPa | 2.7V | 07:29:10 | 02:57:08 | 00:00:00 | |
| DK7TD | 2026-09-01 13:26:29 | 49.01667 | 10.97352 | 96° | 60km/h | 5943m | -3m/s | -16.4°C | 39.7% | 491.1hPa | 2.7V | 07:29:10 | 02:56:57 | 00:00:00 | |
| DK7TD | 2026-09-01 13:26:19 | 49.01675 | 10.97157 | 85° | 57km/h | 5973m | -3.1m/s | -16.7°C | 40.9% | 489hPa | 2.7V | 07:30:01 | 02:56:47 | 00:00:00 | |
| DK7TD | 2026-09-01 13:26:08 | 49.01681 | 10.96930 | 83° | 51km/h | 6007m | -3.3m/s | -16.8°C | 40.8% | 487hPa | 2.7V | 07:30:01 | 02:56:36 | 00:00:00 | |
| DK7TD | 2026-09-01 13:25:57 | 49.01685 | 10.96688 | 91° | 49km/h | 6040m | -3m/s | -17.1°C | 36.1% | 484.9hPa | 2.7V | 07:30:01 | 02:56:25 | 00:00:00 | |
| DK7TD | 2026-09-01 13:25:47 | 49.01686 | 10.96463 | 98° | 53km/h | 6071m | -2.8m/s | -17.1°C | 40.5% | 482.8hPa | 2.7V | 07:30:01 | 02:56:15 | 00:00:00 | |
| DK7TD | 2026-09-01 13:25:36 | 49.01686 | 10.96211 | 99° | 62km/h | 6105m | -3m/s | -17.2°C | 29% | 480.7hPa | 2.7V | 07:30:01 | 02:56:04 | 00:00:00 | |
| DK7TD | 2026-09-01 13:25:25 | 49.01682 | 10.95953 | 94° | 69km/h | 6139m | -3.1m/s | -17.1°C | 33.5% | 478.5hPa | 2.7V | 07:31:43 | 02:55:53 | 00:00:00 | |
| DK7TD | 2026-09-01 13:25:14 | 49.01678 | 10.95689 | 87° | 71km/h | 6173m | -3.1m/s | -17.4°C | 34.6% | 476.3hPa | 2.7V | 07:31:43 | 02:55:42 | 00:00:00 | |
| DK7TD | 2026-09-01 13:25:03 | 49.01676 | 10.95420 | 80° | 68km/h | 6206m | -3.4m/s | -17.6°C | 34.7% | 474.2hPa | 2.7V | 07:31:43 | 02:55:31 | 00:00:00 | |
| DK7TD | 2026-09-01 13:24:52 | 49.01673 | 10.95130 | 85° | 60km/h | 6241m | -3.1m/s | -17.9°C | 34.8% | 472hPa | 2.7V | 07:31:43 | 02:55:20 | 00:00:00 | |
| DB0ND-19 | 2026-09-01 13:24:47 | 49.01661 | 10.95002 | 85° | 75km/h | 6257m | -3.1m/s | -18.1°C | 30.9% | 471.0hPa | 2.7V | 00:00:00 | 00:00:00 | 00:00:00 | |
| DK7TD | 2026-09-01 13:24:41 | 49.01664 | 10.94842 | 90° | 60km/h | 6275m | -3.2m/s | -18.1°C | 34.7% | 469.9hPa | 2.7V | 07:31:43 | 02:55:09 | 00:00:00 | |
| DK7TD | 2026-09-01 13:24:29 | 49.01653 | 10.94530 | 94° | 64km/h | 6313m | -3.2m/s | -18.3°C | 35.9% | 467.6hPa | 2.6V | 07:31:43 | 02:54:57 | 00:00:00 | |
| DK7TD | 2026-09-01 13:24:18 | 49.01644 | 10.94249 | 95° | 69km/h | 6347m | -3m/s | -18.6°C | 34.4% | 465.4hPa | 2.6V | 07:31:43 | 02:54:46 | 00:00:00 | |
| DK7TD | 2026-09-01 13:24:07 | 49.01638 | 10.93975 | 92° | 73km/h | 6381m | -3.2m/s | -18.8°C | 28% | 463.2hPa | 2.7V | 07:31:43 | 02:54:35 | 00:00:00 | |
| DK7TD | 2026-09-01 13:23:57 | 49.01638 | 10.93736 | 82° | 68km/h | 6413m | -3.2m/s | -19.1°C | 25.4% | 461.3hPa | 2.7V | 07:31:43 | 02:54:25 | 00:00:00 | |
| DK7TD | 2026-09-01 13:23:46 | 49.01642 | 10.93450 | 88° | 58km/h | 6448m | -3.2m/s | -19.2°C | 52.1% | 459.1hPa | 2.7V | 07:32:34 | 02:54:14 | 00:00:00 | |
| DK7TD | 2026-09-01 13:23:35 | 49.01620 | 10.93168 | 88° | 66km/h | 6483m | -3.1m/s | -19.4°C | 34.8% | 457hPa | 2.6V | 07:32:34 | 02:54:03 | 00:00:00 | |
| DK7TD | 2026-09-01 13:23:24 | 49.01608 | 10.92890 | 91° | 64km/h | 6518m | -3.3m/s | -19.6°C | 37.1% | 454.8hPa | 2.6V | 07:32:34 | 02:53:52 | 00:00:00 | |
| DK7TD | 2026-09-01 13:23:13 | 49.01595 | 10.92614 | 83° | 66km/h | 6553m | -3m/s | -19.8°C | 44.2% | 452.7hPa | 2.7V | 07:32:34 | 02:53:41 | 00:00:00 | |
| DK7TD | 2026-09-01 13:23:01 | 49.01581 | 10.92301 | 84° | 69km/h | 6592m | -3.3m/s | -20.1°C | 37.2% | 450.2hPa | 2.6V | 07:32:34 | 02:53:29 | 00:00:00 | |
| DK7TD | 2026-09-01 13:22:51 | 49.01570 | 10.92042 | 85° | 71km/h | 6624m | -3.2m/s | -20.4°C | 39.6% | 448.3hPa | 2.7V | 07:35:58 | 02:53:19 | 00:00:00 | |
| DK7TD | 2026-09-01 13:22:40 | 49.01562 | 10.91752 | 90° | 69km/h | 6660m | -3.5m/s | -20.7°C | 40.3% | 446.2hPa | 2.6V | 07:35:58 | 02:53:08 | 00:00:00 | |
| DO3MHA-11 | 2026-09-01 13:22:39 | 49.01562 | 10.91726 | 91° | 66km/h | 6664m | -3.1m/s | -20.6°C | 39.8% | 445.9hPa | 2.7V | 00:00:00 | 02:53:07 | 00:00:00 | |
| DO3MHA-12 | 2026-09-01 13:22:38 | 49.01562 | 10.91701 | 89° | 66km/h | 6667m | -3.1m/s | -20.7°C | 40.3% | 445.8hPa | 2.7V | 00:00:00 | 02:53:06 | 00:00:00 | |
| DL9SK-14 | 2026-09-01 13:22:36 | 49.01558 | 10.91627 | 84° | 66km/h | 6676m | -3.5m/s | -20.8°C | 39.1% | 445.3hPa | 2.6V | 00:00:00 | 00:00:00 | 00:00:00 | |
| DB0NH | 2026-09-01 13:22:35 | 49.01558 | 10.91627 | 85° | 68km/h | 6676m | -3.4m/s | -20.7°C | 41.9% | 445.2hPa | 2.6V | 00:00:00 | 02:53:03 | 00:00:00 | |
| DK7TD | 2026-09-01 13:22:15 | 49.01544 | 10.91110 | 89° | 73km/h | 6743m | -3.6m/s | -21.5°C | 79.6% | 441.3hPa | 2.6V | 07:35:58 | 02:52:43 | 00:00:00 | |
| DK7TD | 2026-09-01 13:22:04 | 49.01544 | 10.90808 | 92° | 73km/h | 6779m | -3.4m/s | -21.4°C | 81.6% | 439hPa | 2.6V | 07:35:58 | 02:52:32 | 00:00:00 | |
| DG1MJG | 2026-09-01 13:22:03 | 49.01544 | 10.90808 | 93° | 73km/h | 6779m | -3.4m/s | 0°C | 0% | 0hPa | 2.6V | 00:00:00 | 00:00:00 | 00:00:00 | |
| DL6DJ-15 | 2026-09-01 13:22:00 | 49.01546 | 10.90703 | 88° | 66km/h | 6792m | -3.1m/s | -21.5°C | 81.9% | 438.2hPa | 2.6V | 00:00:00 | 00:00:00 | 00:00:00 | |
| DF7PN | 2026-09-01 13:21:51 | 49.01552 | 10.90458 | 90° | 66km/h | 6823m | -3.4m/s | -21.5°C | 63.2% | 436.4hPa | 2.6V | 00:00:00 | 00:00:00 | 00:00:00 | |
| DO3MHA-12 | 2026-09-01 13:21:48 | 49.01551 | 10.90377 | 90° | 71km/h | 6833m | -3.2m/s | -21.5°C | 65.7% | 435.9hPa | 2.6V | 07:33:00 | 02:52:16 | 00:00:00 | |
| NBG1-10 | 2026-09-01 13:21:44 | 49.01555 | 10.90263 | 96° | 73km/h | 6846m | -3.4m/s | -21.6°C | 65.1% | 435.1hPa | 2.6V | 00:00:00 | 02:52:12 | 00:00:00 | |
| DO9HM | 2026-09-01 13:21:42 | 49.01556 | 10.90236 | 95° | 68km/h | 6849m | -3.5m/s | -21.6°C | 60.6% | 435.0hPa | 2.6V | 00:00:00 | 00:00:00 | 00:00:00 | |
| DB0ND-19 | 2026-09-01 13:21:41 | 49.01555 | 10.90130 | 86° | 75km/h | 6863m | -3.4m/s | -21.8°C | 60.6% | 434.1hPa | 2.6V | 00:00:00 | 00:00:00 | 00:00:00 | |
| DO3MHA-11 | 2026-09-01 13:21:39 | 49.01555 | 10.90130 | 87° | 73km/h | 6863m | -3.3m/s | -21.7°C | 64.7% | 434.1hPa | 2.6V | 00:00:00 | 02:52:07 | 00:00:00 | |
| DO3MHA-12 | 2026-09-01 13:21:38 | 49.01554 | 10.90101 | 88° | 73km/h | 6866m | -3.3m/s | -21.8°C | 64.8% | 433.9hPa | 2.6V | 00:00:00 | 02:52:06 | 00:00:00 | |
| DB0NH | 2026-09-01 13:21:35 | 49.01554 | 10.90009 | 93° | 75km/h | 6877m | -3.3m/s | -21.9°C | 65.8% | 433.3hPa | 2.6V | 00:00:00 | 02:52:03 | 00:00:00 | |
| DL9SK-14 | 2026-09-01 13:21:34 | 49.01557 | 10.89951 | 93° | 71km/h | 6883m | -3.3m/s | -21.9°C | 61.8% | 432.9hPa | 2.6V | 00:00:00 | 00:00:00 | 00:00:00 | |
| DL6DJ-15 | 2026-09-01 13:21:29 | 49.01552 | 10.89821 | 82° | 71km/h | 6900m | -3.7m/s | -22.0°C | 60.2% | 432.0hPa | 2.6V | 00:00:00 | 00:00:00 | 00:00:00 | |
| DK5PH-5 | 2026-09-01 13:21:23 | 49.01543 | 10.89671 | 91° | 75km/h | 6917m | -3.3m/s | -22.1°C | 63.6% | 430.9hPa | 2.6V | 00:00:00 | 02:51:51 | 00:00:00 | |
| DK7TD | 2026-09-01 13:21:03 | 49.01546 | 10.89094 | 94° | 68km/h | 6981m | -3.3m/s | -22.6°C | 61.8% | 427.2hPa | 2.6V | 07:35:58 | 02:51:31 | 00:00:00 | |
| DK7TD | 2026-09-01 13:20:52 | 49.01528 | 10.88778 | 91° | 86km/h | 7018m | -3.3m/s | -22.8°C | 60.7% | 425hPa | 2.6V | 07:35:58 | 02:51:20 | 00:00:00 | |
| DF7PN | 2026-09-01 13:20:49 | 49.01533 | 10.88655 | 93° | 71km/h | 7031m | -3.2m/s | -22.8°C | 57.9% | 424.3hPa | 2.5V | 00:00:00 | 00:00:00 | 00:00:00 | |
| DK7TD | 2026-09-01 13:20:42 | 49.01524 | 10.88490 | 82° | 80km/h | 7050m | -3.2m/s | -23.1°C | 59.6% | 423.2hPa | 2.5V | 07:35:58 | 02:51:10 | 00:00:00 | |
| DK7TD | 2026-09-01 13:20:32 | 49.01527 | 10.88178 | 93° | 69km/h | 7084m | -3.2m/s | -23.1°C | 53.1% | 421.2hPa | 2.6V | 07:35:58 | 02:51:00 | 00:00:00 | |
| DK7TD | 2026-09-01 13:20:22 | 49.01517 | 10.87875 | 93° | 89km/h | 7117m | -3.2m/s | -23.2°C | 50.1% | 419.2hPa | 2.6V | 07:35:58 | 02:50:50 | 00:00:00 | |
| DO9HM | 2026-09-01 13:20:22 | 49.01516 | 10.87909 | 91° | 89km/h | 7114m | -3.6m/s | -23.3°C | 47.3% | 419.5hPa | 2.6V | 07:35:00 | 00:00:00 | 00:00:00 | |
| DO3MHA-12 | 2026-09-01 13:20:19 | 49.01525 | 10.87747 | 97° | 82km/h | 7130m | -3.3m/s | -23.3°C | 49.5% | 418.5hPa | 2.6V | 00:00:00 | 02:50:46 | 00:00:00 | |
| DF7PN | 2026-09-01 13:20:18 | 49.01527 | 10.87717 | 94° | 75km/h | 7134m | -3.3m/s | -23.5°C | 46.2% | 418.4hPa | 2.6V | 00:00:00 | 00:00:00 | 00:00:00 | |
| DM7RM-13 | 2026-09-01 13:20:16 | 49.01527 | 10.87717 | 96° | 75km/h | 7134m | -3.3m/s | -23.5°C | 46.2% | 418.4hPa | 2.6V | 07:35:00 | 00:00:00 | 00:00:00 | |
| DG1MJG | 2026-09-01 13:20:12 | 49.01525 | 10.87600 | 85° | 80km/h | 7147m | -3.3m/s | -23.5°C | 0% | 0hPa | 2.6V | 00:00:00 | 00:00:00 | 00:00:00 | |
| DO3MHA-11 | 2026-09-01 13:20:09 | 49.01518 | 10.87467 | 89° | 86km/h | 7160m | -3.1m/s | -23.5°C | 50.2% | 416.8hPa | 2.6V | 00:00:00 | 02:50:37 | 00:00:00 | |
| DO3MHA-12 | 2026-09-01 13:20:08 | 49.01518 | 10.87432 | 92° | 86km/h | 7163m | -3.0m/s | -23.5°C | 50.3% | 416.7hPa | 2.6V | 00:00:00 | 02:50:36 | 00:00:00 | |
| NBG1-10 | 2026-09-01 13:20:05 | 49.01522 | 10.87330 | 96° | 84km/h | 7173m | -3.2m/s | -23.3°C | 49.1% | 416.0hPa | 2.6V | 00:00:00 | 02:50:33 | 00:00:00 | |
| DJ8HS-15 | 2026-09-01 13:20:04 | 49.01524 | 10.87298 | 95° | 86km/h | 7176m | -3.3m/s | -23.4°C | 50.2% | 415.9hPa | 2.6V | 07:35:00 | 02:50:32 | 00:00:00 | |
| DO9HM | 2026-09-01 13:20:02 | 49.01526 | 10.87234 | 91° | 82km/h | 7182m | -3.2m/s | -23.4°C | 48.2% | 415.5hPa | 2.6V | 07:35:00 | 00:00:00 | 00:00:00 | |
| DL9SK-14 | 2026-09-01 13:20:01 | 49.01525 | 10.87171 | 86° | 82km/h | 7189m | -3.2m/s | -23.4°C | 49.5% | 415.2hPa | 2.6V | 00:00:00 | 00:00:00 | 00:00:00 | |
| DL6DJ-15 | 2026-09-01 13:19:56 | 49.01521 | 10.87004 | 90° | 84km/h | 7206m | -3.4m/s | -23.4°C | 57.7% | 414.3hPa | 2.6V | 00:00:00 | 00:00:00 | 00:00:00 | |
| DF7PN | 2026-09-01 13:19:47 | 49.01514 | 10.86711 | 89° | 82km/h | 7236m | -3.4m/s | -23.6°C | 60.2% | 412.4hPa | 2.6V | 00:00:00 | 00:00:00 | 00:00:00 | |
| DK7TD | 2026-09-01 13:19:31 | 49.01492 | 10.86226 | 87° | 86km/h | 7287m | -3.3m/s | -24°C | 66.6% | 409.6hPa | 2.6V | 07:36:49 | 02:49:59 | 00:00:00 | |
| DK7TD | 2026-09-01 13:19:18 | 49.01476 | 10.85815 | 84° | 78km/h | 7331m | -3.6m/s | -24.4°C | 73.6% | 407.1hPa | 2.6V | 07:36:49 | 02:49:46 | 00:00:00 | |
| DK7TD | 2026-09-01 13:19:05 | 49.01449 | 10.85408 | 86° | 86km/h | 7376m | -3.5m/s | -24.8°C | 76.8% | 404.7hPa | 2.6V | 07:36:49 | 02:49:33 | 00:00:00 | |
| DK7TD | 2026-09-01 13:18:54 | 49.01424 | 10.85063 | 84° | 84km/h | 7413m | -3.4m/s | -25.1°C | 79.1% | 402.6hPa | 2.5V | 07:36:49 | 02:49:22 | 00:00:00 | |
| DL6DJ-15 | 2026-09-01 13:18:53 | 49.01422 | 10.85032 | 82° | 82km/h | 7417m | -3.5m/s | -25.2°C | 78.1% | 402.4hPa | 2.5V | 00:00:00 | 00:00:00 | 00:00:00 | |
| DK7TD | 2026-09-01 13:18:43 | 49.01399 | 10.84707 | 83° | 84km/h | 7450m | -3.2m/s | -25.4°C | 80% | 400.6hPa | 2.5V | 07:36:49 | 02:49:11 | 00:00:00 | |
| DK7TD | 2026-09-01 13:18:33 | 49.01373 | 10.84378 | 81° | 89km/h | 7483m | -3.5m/s | -25.4°C | 78.2% | 398.7hPa | 2.6V | 07:37:40 | 02:49:01 | 00:00:00 | |
| DK7TD | 2026-09-01 13:18:22 | 49.01346 | 10.84007 | 86° | 89km/h | 7520m | -3.2m/s | -25.7°C | 76.8% | 396.8hPa | 2.6V | 07:37:40 | 02:48:50 | 00:00:00 | |
| DK7TD | 2026-09-01 13:18:12 | 49.01324 | 10.83668 | 86° | 86km/h | 7554m | -3.3m/s | -25.9°C | 75.4% | 394.9hPa | 2.6V | 07:37:40 | 02:48:40 | 00:00:00 | |
| DK7TD | 2026-09-01 13:18:02 | 49.01302 | 10.83337 | 80° | 86km/h | 7589m | -3.5m/s | -26.3°C | 78.3% | 393hPa | 2.6V | 07:37:40 | 02:48:30 | 00:00:00 | |
| DK7TD | 2026-09-01 13:17:52 | 49.01280 | 10.82999 | 83° | 88km/h | 7623m | -3.4m/s | -26.6°C | 78.4% | 391.1hPa | 2.5V | 07:37:40 | 02:48:20 | 00:00:00 | |
| DL6DJ-15 | 2026-09-01 13:17:51 | 49.01277 | 10.82965 | 83° | 89km/h | 7626m | -3.3m/s | -26.6°C | 76.7% | 391.0hPa | 2.5V | 00:00:00 | 00:00:00 | 00:00:00 | |
| DK7TD | 2026-09-01 13:17:42 | 49.01259 | 10.82661 | 86° | 89km/h | 7657m | -3.4m/s | -27°C | 79.3% | 389.4hPa | 2.5V | 07:38:31 | 02:48:10 | 00:00:00 | |
| DK7TD | 2026-09-01 13:17:32 | 49.01239 | 10.82328 | 88° | 88km/h | 7691m | -3.5m/s | -27.1°C | 76.6% | 387.5hPa | 2.5V | 07:38:31 | 02:48:00 | 00:00:00 | |
| DK7TD | 2026-09-01 13:17:21 | 49.01221 | 10.81973 | 84° | 80km/h | 7729m | -3.7m/s | -27.3°C | 70.1% | 385.4hPa | 2.5V | 07:38:31 | 02:47:49 | 00:00:00 | |
| DK7TD | 2026-09-01 13:17:10 | 49.01196 | 10.81620 | 82° | 82km/h | 7768m | -3.6m/s | -27.7°C | 68.1% | 383.4hPa | 2.5V | 07:38:31 | 02:47:38 | 00:00:00 | |
| DK7TD | 2026-09-01 13:17:00 | 49.01174 | 10.81307 | 86° | 84km/h | 7802m | -3.5m/s | -27.9°C | 67.3% | 381.5hPa | 2.6V | 07:38:31 | 02:47:28 | 00:00:00 | |
| DO3MHA-11 | 2026-09-01 13:16:59 | 49.01173 | 10.81275 | 88° | 80km/h | 7806m | -3.6m/s | -27.8°C | 69.7% | 381.3hPa | 2.6V | 07:38:00 | 02:47:27 | 00:00:00 | |
| DL1NUX | 2026-09-01 13:16:58 | 49.01162 | 10.81092 | 84° | 82km/h | 7826m | -3.6m/s | -28°C | 63.4% | 380.2hPa | 2.6V | 07:38:37 | 02:47:21 | 00:00:00 | |
| DK7TD | 2026-09-01 13:16:49 | 49.01157 | 10.80970 | 86° | 77km/h | 7840m | -3.6m/s | -28°C | 57.5% | 379.5hPa | 2.6V | 07:39:22 | 02:47:17 | 00:00:00 | |
| DO3MHA-11 | 2026-09-01 13:16:49 | 49.01157 | 10.80970 | 86° | 78km/h | 7840m | -3.6m/s | -28.0°C | 59.2% | 379.4hPa | 2.6V | 00:00:00 | 02:47:17 | 00:00:00 | |
| DO3MHA-12 | 2026-09-01 13:16:48 | 49.01155 | 10.80940 | 85° | 80km/h | 7844m | -3.4m/s | -27.9°C | 57.7% | 379.2hPa | 2.6V | 00:00:00 | 02:47:16 | 00:00:00 | |
| NBG1-10 | 2026-09-01 13:16:47 | 49.01153 | 10.80910 | 85° | 82km/h | 7847m | -3.6m/s | -28.0°C | 55.6% | 379.0hPa | 2.6V | 07:38:00 | 02:47:15 | 00:00:00 | |
| DN1GJH-1 | 2026-09-01 13:16:45 | 49.01151 | 10.80879 | 87° | 82km/h | 7851m | -3.6m/s | -28.1°C | 49.3% | 378.9hPa | 2.6V | 07:39:00 | 00:00:00 | 00:00:00 | |
| DJ8HS-15 | 2026-09-01 13:16:43 | 49.01149 | 10.80784 | 90° | 80km/h | 7862m | -3.7m/s | -28.0°C | 50.2% | 378.3hPa | 2.6V | 00:00:00 | 02:47:11 | 00:00:00 | |
| DL1NUX | 2026-09-01 13:16:40 | 49.01138 | 10.80536 | 88° | 82km/h | 7892m | -3.8m/s | -28.2°C | 41.4% | 376.8hPa | 2.5V | 07:38:55 | 02:47:03 | 00:00:00 | |
| DK7TD | 2026-09-01 13:16:39 | 49.01144 | 10.80665 | 83° | 80km/h | 7877m | -3.8m/s | -28.2°C | 47.3% | 377.6hPa | 2.5V | 07:39:22 | 02:47:07 | 00:00:00 | |
| DO3MHA-11 | 2026-09-01 13:16:39 | 49.01144 | 10.80665 | 84° | 82km/h | 7877m | -3.7m/s | -28.1°C | 47.3% | 377.5hPa | 2.6V | 00:00:00 | 02:47:07 | 00:00:00 | |
| DO3MHA-12 | 2026-09-01 13:16:38 | 49.01142 | 10.80634 | 85° | 82km/h | 7881m | -3.7m/s | -28.1°C | 46.2% | 377.3hPa | 2.6V | 00:00:00 | 02:47:06 | 00:00:00 | |
| DO9HM | 2026-09-01 13:16:37 | 49.01142 | 10.80634 | 85° | 84km/h | 7881m | -3.8m/s | -28.2°C | 42.2% | 377.4hPa | 2.5V | 07:39:00 | 00:00:00 | 00:00:00 | |
| DB0NH | 2026-09-01 13:16:35 | 49.01138 | 10.80536 | 89° | 82km/h | 7892m | -3.8m/s | -28.2°C | 41.4% | 376.8hPa | 2.5V | 00:00:00 | 02:47:03 | 00:00:00 | |
| DB0UT-7 | 2026-09-01 13:16:34 | 49.01137 | 10.80505 | 89° | 82km/h | 7895m | -3.4m/s | -28.1°C | 36.9% | 376.6hPa | 2.5V | 00:00:00 | 02:47:02 | 00:00:00 | |
| DB0ND-19 | 2026-09-01 13:16:31 | 49.01133 | 10.80414 | 82° | 78km/h | 7906m | -3.7m/s | -28.2°C | 27.5% | 376.0hPa | 2.5V | 00:00:00 | 00:00:00 | 00:00:00 | |
| DL1NUX | 2026-09-01 13:16:30 | 49.01118 | 10.80222 | 84° | 80km/h | 7927m | -3.5m/s | -28.3°C | 29% | 374.9hPa | 2.5V | 07:39:05 | 02:46:53 | 00:00:00 | |
| DK7TD | 2026-09-01 13:16:28 | 49.01125 | 10.80318 | 84° | 86km/h | 7917m | -3.6m/s | -28.3°C | 30.6% | 375.5hPa | 2.6V | 07:39:22 | 02:46:56 | 00:00:00 | |
| DO3MHA-12 | 2026-09-01 13:16:28 | 49.01125 | 10.80318 | 84° | 82km/h | 7917m | -3.5m/s | -28.2°C | 29.1% | 375.4hPa | 2.5V | 07:39:00 | 02:46:56 | 00:00:00 | |
| DL1ZP-14 | 2026-09-01 13:16:25 | 49.01119 | 10.80222 | 84° | 78km/h | 7927m | -3.5m/s | -28.3°C | 26.1% | 374.9hPa | 2.5V | 00:00:00 | 00:00:00 | 00:00:00 | |
| DJ8HS-15 | 2026-09-01 13:16:23 | 49.01114 | 10.80162 | 82° | 84km/h | 7935m | -3.7m/s | -28.4°C | 29.1% | 374.5hPa | 2.6V | 00:00:00 | 02:46:51 | 00:00:00 | |
| DL1NUX | 2026-09-01 13:16:20 | 49.01096 | 10.79907 | 82° | 82km/h | 7964m | -3.6m/s | -28.6°C | 31.4% | 373.1hPa | 2.6V | 07:39:15 | 02:46:43 | 00:00:00 | |
| DK7TD | 2026-09-01 13:16:17 | 49.01100 | 10.79970 | 86° | 82km/h | 7956m | -3.7m/s | -28.6°C | 32.7% | 373.5hPa | 2.6V | 07:39:22 | 02:46:45 | 00:00:00 | |
| DK7TD | 2026-09-01 13:16:07 | 49.01079 | 10.79648 | 83° | 80km/h | 7993m | -3.7m/s | -28.8°C | 27.7% | 371.5hPa | 2.6V | 07:40:13 | 02:46:35 | 00:00:00 | |
| DK7TD | 2026-09-01 13:15:56 | 49.01057 | 10.79289 | 84° | 89km/h | 8034m | -3.7m/s | -28.9°C | 13.6% | 369.4hPa | 2.6V | 07:40:13 | 02:46:24 | 00:00:00 | |
| DK7TD | 2026-09-01 13:15:45 | 49.01036 | 10.78908 | 89° | 95km/h | 8075m | -3.9m/s | -29.1°C | 12% | 367.3hPa | 2.5V | 07:40:13 | 02:46:13 | 00:00:00 | |
| DK7TD | 2026-09-01 13:15:34 | 49.01013 | 10.78528 | 87° | 97km/h | 8116m | -3.6m/s | -29.3°C | 12% | 365.2hPa | 2.5V | 07:40:13 | 02:46:02 | 00:00:00 | |
| DK7TD | 2026-09-01 13:15:23 | 49.00989 | 10.78138 | 88° | 100km/h | 8157m | -4m/s | -29.6°C | 12.7% | 363.1hPa | 2.6V | 07:40:13 | 02:45:51 | 00:00:00 | |
| DK7TD | 2026-09-01 13:15:12 | 49.00958 | 10.77749 | 83° | 102km/h | 8198m | -3.8m/s | -30°C | 14.1% | 361hPa | 2.6V | 07:41:04 | 02:45:40 | 00:00:00 | |
| DK7TD | 2026-09-01 13:15:01 | 49.00925 | 10.77352 | 79° | 102km/h | 8238m | -3.7m/s | -30.4°C | 15.6% | 359hPa | 2.6V | 07:41:04 | 02:45:29 | 00:00:00 | |
| DL1NUX | 2026-09-01 13:15:00 | 49.00909 | 10.77128 | 83° | 88km/h | 8259m | -3.6m/s | -30.5°C | 15.2% | 357.9hPa | 2.6V | 07:40:35 | 02:45:23 | 00:00:00 | |
| DK7TD | 2026-09-01 13:14:51 | 49.00892 | 10.76994 | 76° | 95km/h | 8274m | -3.7m/s | -30.6°C | 17.3% | 357.1hPa | 2.5V | 07:41:04 | 02:45:19 | 00:00:00 | |
| DL9SK-14 | 2026-09-01 13:14:50 | 49.00886 | 10.76957 | 76° | 99km/h | 8277m | -3.6m/s | -30.7°C | 14.0% | 357.0hPa | 2.5V | 00:00:00 | 00:00:00 | 00:00:00 | |
| DL6DJ-15 | 2026-09-01 13:14:45 | 49.00863 | 10.76728 | 83° | 91km/h | 8298m | -3.4m/s | -30.8°C | 15.2% | 355.9hPa | 2.5V | 00:00:00 | 00:00:00 | 00:00:00 | |
| DK7TD | 2026-09-01 13:14:40 | 49.00846 | 10.76592 | 75° | 93km/h | 8312m | -3.6m/s | -31°C | 19.7% | 355.2hPa | 2.5V | 07:41:04 | 02:45:08 | 00:00:00 | |
| DK7TD | 2026-09-01 13:14:29 | 49.00796 | 10.76201 | 75° | 86km/h | 8350m | -3.7m/s | -31.3°C | 22.2% | 353.3hPa | 2.5V | 07:41:04 | 02:44:57 | 00:00:00 | |
| DK7TD | 2026-09-01 13:14:19 | 49.00745 | 10.75843 | 79° | 84km/h | 8385m | -3.6m/s | -31.7°C | 26.3% | 351.6hPa | 2.6V | 07:41:55 | 02:44:47 | 00:00:00 | |
| DK7TD | 2026-09-01 13:14:08 | 49.00690 | 10.75468 | 81° | 86km/h | 8423m | -3.6m/s | -31.9°C | 27.2% | 349.6hPa | 2.6V | 07:41:55 | 02:44:36 | 00:00:00 | |
| DK7TD | 2026-09-01 13:13:58 | 49.00640 | 10.75119 | 81° | 89km/h | 8458m | -3.6m/s | -32.2°C | 28% | 347.9hPa | 2.5V | 07:41:55 | 02:44:26 | 00:00:00 | |
| DK7TD | 2026-09-01 13:13:47 | 49.00592 | 10.74738 | 81° | 84km/h | 8498m | -3.4m/s | -32.6°C | 29.1% | 345.9hPa | 2.5V | 07:41:55 | 02:44:15 | 00:00:00 | |
| DK7TD | 2026-09-01 13:13:36 | 49.00536 | 10.74358 | 82° | 89km/h | 8537m | -3.4m/s | -32.9°C | 29.1% | 344hPa | 2.6V | 07:41:55 | 02:44:04 | 00:00:00 | |
| DK7TD | 2026-09-01 13:13:26 | 49.00489 | 10.74015 | 83° | 93km/h | 8570m | -3.8m/s | -33.3°C | 29.1% | 342.3hPa | 2.6V | 07:42:46 | 02:43:54 | 00:00:00 | |
| BIOWL1-15 | 2026-09-01 13:13:21 | 49.00466 | 10.73854 | 73° | 88km/h | 8588m | -3.6m/s | 0°C | 0% | 0hPa | 2.5V | 18:12:15 | 02:43:49 | 00:00:00 | |
| DK7TD | 2026-09-01 13:13:15 | 49.00432 | 10.73637 | 82° | 97km/h | 8610m | -3.7m/s | -33.6°C | 30.4% | 340.3hPa | 2.5V | 07:42:46 | 02:43:43 | 00:00:00 | |
| DK7TD | 2026-09-01 13:13:05 | 49.00382 | 10.73292 | 79° | 100km/h | 8645m | -3.4m/s | -34°C | 33.9% | 338.6hPa | 2.5V | 07:42:46 | 02:43:33 | 00:00:00 | |
| BIOWL1-15 | 2026-09-01 13:12:57 | 49.00335 | 10.72935 | 76° | 102km/h | 8681m | -3.5m/s | 0°C | 0% | 0hPa | 2.6V | 18:12:15 | 02:43:23 | 00:00:00 | |
| DK7TD | 2026-09-01 13:12:54 | 49.00329 | 10.72895 | 77° | 106km/h | 8684m | -3.9m/s | -34.3°C | 41.7% | 336.7hPa | 2.6V | 07:42:46 | 02:43:22 | 00:00:00 | |
| DB0ND-19 | 2026-09-01 13:12:54 | 49.00323 | 10.72856 | 79° | 104km/h | 8688m | -3.9m/s | -34.3°C | 37.2% | 336.5hPa | 2.5V | 00:00:00 | 00:00:00 | 00:00:00 | |
| DL1ZP-14 | 2026-09-01 13:12:48 | 49.00306 | 10.72672 | 78° | 88km/h | 8706m | -3.6m/s | -34.4°C | 41.3% | 335.8hPa | 2.5V | 00:00:00 | 00:00:00 | 00:00:00 | |
| DL9SK-14 | 2026-09-01 13:12:46 | 49.00289 | 10.72571 | 73° | 95km/h | 8717m | -3.2m/s | -34.5°C | 43.2% | 335.2hPa | 2.5V | 00:00:00 | 00:00:00 | 00:00:00 | |
| DL1NUX | 2026-09-01 13:12:46 | 49.00263 | 10.72419 | 79° | 106km/h | 8732m | -3.7m/s | -34.6°C | 49.5% | 334.5hPa | 2.6V | 07:42:49 | 02:43:09 | 00:00:00 | |
| DK7TD | 2026-09-01 13:12:43 | 49.00275 | 10.72498 | 75° | 104km/h | 8724m | -3.7m/s | -34.6°C | 49% | 334.8hPa | 2.5V | 07:43:37 | 02:43:11 | 00:00:00 | |
| BIOWL1-15 | 2026-09-01 13:12:38 | 49.00246 | 10.72236 | 79° | 88km/h | 8750m | -3.8m/s | 0°C | 0% | 0hPa | 2.6V | 18:12:15 | 02:43:04 | 00:00:00 | |
| DK7TD | 2026-09-01 13:12:33 | 49.00228 | 10.72134 | 73° | 95km/h | 8761m | -3.6m/s | -34.9°C | 51.1% | 333.2hPa | 2.5V | 07:43:37 | 02:43:01 | 00:00:00 | |
| BIOWL1-15 | 2026-09-01 13:12:28 | 49.00190 | 10.71866 | 82° | 97km/h | 8786m | -3.5m/s | 0°C | 0% | 0hPa | 2.5V | 18:12:15 | 02:42:54 | 00:00:00 | |
| DK7TD | 2026-09-01 13:12:22 | 49.00170 | 10.71727 | 73° | 95km/h | 8800m | -3.8m/s | -35.3°C | 53.5% | 331.3hPa | 2.5V | 07:43:37 | 02:42:50 | 00:00:00 | |
| DK7TD | 2026-09-01 13:12:11 | 49.00106 | 10.71320 | 74° | 100km/h | 8840m | -3.5m/s | -35.7°C | 55.5% | 329.4hPa | 2.6V | 07:43:37 | 02:42:39 | 00:00:00 | |
| DK7TD | 2026-09-01 13:12:01 | 49.00055 | 10.70947 | 73° | 95km/h | 8876m | -3.6m/s | -36°C | 58.3% | 327.8hPa | 2.5V | 07:43:37 | 02:42:29 | 00:00:00 | |
| DK7TD | 2026-09-01 13:11:50 | 48.99990 | 10.70540 | 74° | 97km/h | 8915m | -3.6m/s | -36.3°C | 63.6% | 325.9hPa | 2.6V | 07:44:28 | 02:42:18 | 00:00:00 | |
| NBG1-10 | 2026-09-01 13:11:50 | 48.99990 | 10.70540 | 74° | 99km/h | 8915m | -3.6m/s | -36.2°C | 66.4% | 325.9hPa | 2.6V | 00:00:00 | 02:42:18 | 00:00:00 | |
| DO3MHA-11 | 2026-09-01 13:11:49 | 48.99983 | 10.70503 | 75° | 100km/h | 8918m | -3.4m/s | -36.3°C | 67.2% | 325.6hPa | 2.6V | 00:00:00 | 02:42:17 | 00:00:00 | |
| DO3MHA-12 | 2026-09-01 13:11:48 | 48.99976 | 10.70465 | 75° | 100km/h | 8922m | -3.5m/s | -36.3°C | 68.2% | 325.5hPa | 2.5V | 00:00:00 | 02:42:16 | 00:00:00 | |
| DL1NUX | 2026-09-01 13:11:46 | 48.99939 | 10.70198 | 74° | 93km/h | 8947m | -3.5m/s | -36.6°C | 69% | 324.4hPa | 2.5V | 07:43:49 | 02:42:09 | 00:00:00 | |
| DL1ZP-14 | 2026-09-01 13:11:46 | 48.99964 | 10.70385 | 78° | 106km/h | 8929m | -3.9m/s | -36.5°C | 62.1% | 325.2hPa | 2.5V | 00:00:00 | 00:00:00 | 00:00:00 | |
| DK7TD | 2026-09-01 13:11:39 | 48.99924 | 10.70128 | 71° | 99km/h | 8954m | -3.8m/s | -36.6°C | 63.3% | 324.1hPa | 2.6V | 07:44:28 | 02:42:07 | 00:00:00 | |
| DO3MHA-11 | 2026-09-01 13:11:39 | 48.99924 | 10.70128 | 72° | 100km/h | 8954m | -3.7m/s | -36.6°C | 66.7% | 324.0hPa | 2.6V | 07:43:00 | 02:42:07 | 00:00:00 | |
| DO3MHA-12 | 2026-09-01 13:11:38 | 48.99916 | 10.70091 | 72° | 100km/h | 8958m | -3.4m/s | -36.6°C | 65.4% | 323.8hPa | 2.6V | 00:00:00 | 02:42:06 | 00:00:00 | |
| DJTTGO | 2026-09-01 13:11:37 | 48.99916 | 10.70091 | 73° | 102km/h | 8958m | -3.4m/s | -36.6°C | 58.5% | 323.9hPa | 2.5V | 00:00:00 | 00:00:00 | 00:00:00 | |
| DN1GJH-1 | 2026-09-01 13:11:36 | 48.99908 | 10.70053 | 75° | 106km/h | 8961m | -3.4m/s | -36.7°C | 57.2% | 323.7hPa | 2.5V | 07:44:00 | 00:00:00 | 00:00:00 | |
| DL1NUX | 2026-09-01 13:11:35 | 48.99871 | 10.69789 | 75° | 93km/h | 8986m | -3.6m/s | -36.8°C | 42% | 322.5hPa | 2.5V | 07:44:00 | 02:41:58 | 00:00:00 | |
| DK7TD | 2026-09-01 13:11:29 | 48.99864 | 10.69754 | 74° | 97km/h | 8989m | -3.7m/s | -36.8°C | 41.4% | 322.3hPa | 2.6V | 07:44:28 | 02:41:57 | 00:00:00 | |
| DO3MHA-11 | 2026-09-01 13:11:29 | 48.99864 | 10.69753 | 74° | 99km/h | 8989m | -3.7m/s | -36.8°C | 41.5% | 322.3hPa | 2.5V | 00:00:00 | 02:41:57 | 00:00:00 | |
| DO3MHA-12 | 2026-09-01 13:11:28 | 48.99857 | 10.69717 | 74° | 99km/h | 8993m | -3.4m/s | -36.8°C | 41.8% | 322.1hPa | 2.5V | 00:00:00 | 02:41:56 | 00:00:00 | |
| OE3JTB-15 | 2026-09-01 13:11:27 | 48.99850 | 10.69680 | 75° | 102km/h | 8996m | -3.9m/s | -36.8°C | 43.4% | 321.9hPa | 2.5V | 07:44:00 | 00:00:00 | 00:00:00 | |
| DL1NUX | 2026-09-01 13:11:25 | 48.99815 | 10.69420 | 76° | 89km/h | 9022m | -3.6m/s | -37°C | 36.9% | 320.8hPa | 2.5V | 07:44:10 | 02:41:48 | 00:00:00 | |
| DK7TD | 2026-09-01 13:11:18 | 48.99802 | 10.69352 | 73° | 95km/h | 9029m | -3.3m/s | -37.1°C | 37% | 320.5hPa | 2.6V | 07:44:28 | 02:41:46 | 00:00:00 | |
| DK7TD | 2026-09-01 13:11:05 | 48.99726 | 10.68870 | 77° | 104km/h | 9075m | -3.7m/s | -37.4°C | 38.6% | 318.4hPa | 2.5V | 07:44:28 | 02:41:33 | 00:00:00 | |
| DB0NH | 2026-09-01 13:11:05 | 48.99726 | 10.68870 | 77° | 97km/h | 9075m | -3.7m/s | -37.4°C | 38.4% | 318.3hPa | 2.5V | 00:00:00 | 02:41:33 | 00:00:00 | |
| DJ8HS-15 | 2026-09-01 13:11:03 | 48.99717 | 10.68793 | 81° | 97km/h | 9082m | -3.9m/s | -37.4°C | 38.5% | 317.9hPa | 2.5V | 00:00:00 | 02:41:31 | 00:00:00 | |
| DL1NUX | 2026-09-01 13:11:00 | 48.99674 | 10.68507 | 76° | 106km/h | 9111m | -3.5m/s | -37.7°C | 38.3% | 316.7hPa | 2.5V | 07:44:35 | 02:41:23 | 00:00:00 | |
| DK7TD | 2026-09-01 13:10:54 | 48.99668 | 10.68468 | 78° | 106km/h | 9115m | -3.6m/s | -37.7°C | 38.6% | 316.5hPa | 2.5V | 07:47:52 | 02:41:22 | 00:00:00 | |
| DK5PH-5 | 2026-09-01 13:10:53 | 48.99663 | 10.68427 | 81° | 99km/h | 9118m | -3.9m/s | -37.7°C | 38.6% | 316.3hPa | 2.6V | 00:00:00 | 02:41:21 | 00:00:00 | |
| DO3MHA-11 | 2026-09-01 13:10:49 | 48.99649 | 10.68275 | 82° | 99km/h | 9134m | -3.6m/s | -37.8°C | 39.2% | 315.6hPa | 2.5V | 00:00:00 | 02:41:17 | 00:00:00 | |
| DO3MHA-12 | 2026-09-01 13:10:48 | 48.99645 | 10.68241 | 80° | 99km/h | 9137m | -3.5m/s | -37.8°C | 39.5% | 315.5hPa | 2.5V | 00:00:00 | 02:41:16 | 00:00:00 | |
| DO9HM | 2026-09-01 13:10:47 | 48.99645 | 10.68241 | 80° | 91km/h | 9137m | -3.6m/s | -37.9°C | 34.4% | 315.5hPa | 2.5V | 07:45:00 | 00:00:00 | 00:00:00 | |
| DL1ZP-14 | 2026-09-01 13:10:44 | 48.99616 | 10.68060 | 77° | 102km/h | 9155m | -3.9m/s | -38.0°C | 35.2% | 314.6hPa | 2.5V | 00:00:00 | 00:00:00 | 00:00:00 | |
| DJ8HS-15 | 2026-09-01 13:10:43 | 48.99616 | 10.68060 | 78° | 99km/h | 9155m | -3.8m/s | -38.0°C | 40.3% | 314.6hPa | 2.5V | 00:00:00 | 02:41:11 | 00:00:00 | |
| DL9SK-14 | 2026-09-01 13:10:42 | 48.99606 | 10.67982 | 81° | 102km/h | 9162m | -4.0m/s | -38.1°C | 35.7% | 314.4hPa | 2.6V | 00:00:00 | 00:00:00 | 00:00:00 | |
| DM0DOS-11 | 2026-09-01 13:10:41 | 48.99597 | 10.67872 | 82° | 91km/h | 9173m | -3.6m/s | -38.2°C | 42.1% | 313.9hPa | 2.6V | 07:44:52 | 02:41:06 | 00:00:00 | |
| DO3MHA-11 | 2026-09-01 13:10:39 | 48.99600 | 10.67907 | 83° | 99km/h | 9170m | -3.5m/s | -38.1°C | 41.8% | 314.0hPa | 2.6V | 00:00:00 | 02:41:07 | 00:00:00 | |
| DO3MHA-12 | 2026-09-01 13:10:38 | 48.99597 | 10.67871 | 83° | 99km/h | 9173m | -3.5m/s | -38.1°C | 42.1% | 313.9hPa | 2.6V | 00:00:00 | 02:41:06 | 00:00:00 | |
| DL6DJ-15 | 2026-09-01 13:10:36 | 48.99588 | 10.67803 | 75° | 91km/h | 9180m | -3.9m/s | -38.3°C | 37.7% | 313.5hPa | 2.5V | 00:00:00 | 00:00:00 | 00:00:00 | |
| DB0NH | 2026-09-01 13:10:35 | 48.99582 | 10.67768 | 75° | 100km/h | 9184m | -3.7m/s | -38.3°C | 43.9% | 313.3hPa | 2.5V | 00:00:00 | 02:41:03 | 00:00:00 | |
| DN1GJH-1 | 2026-09-01 13:10:34 | 48.99582 | 10.67768 | 76° | 95km/h | 9184m | -3.8m/s | -38.3°C | 38.4% | 313.4hPa | 2.5V | 07:45:00 | 00:00:00 | 00:00:00 | |
| DM0DOS-11 | 2026-09-01 13:10:33 | 48.99547 | 10.67500 | 81° | 97km/h | 9210m | -3.9m/s | -38.5°C | 46.5% | 312.2hPa | 2.5V | 07:45:02 | 02:40:56 | 00:00:00 | |
| DO3MHA-12 | 2026-09-01 13:10:28 | 48.99547 | 10.67500 | 82° | 100km/h | 9210m | -3.9m/s | -38.5°C | 46.5% | 312.2hPa | 2.6V | 00:00:00 | 02:40:56 | 00:00:00 | |
| DO9HM | 2026-09-01 13:10:26 | 48.99543 | 10.67464 | 81° | 95km/h | 9213m | -3.9m/s | -38.6°C | 41.2% | 312.1hPa | 2.6V | 07:45:00 | 00:00:00 | 00:00:00 | |
| DM0DOS-11 | 2026-09-01 13:10:23 | 48.99503 | 10.67124 | 82° | 95km/h | 9246m | -4.2m/s | -38.9°C | 49% | 310.5hPa | 2.6V | 07:45:12 | 02:40:46 | 00:00:00 | |
| DK5PH-5 | 2026-09-01 13:10:23 | 48.99521 | 10.67317 | 78° | 100km/h | 9228m | -3.6m/s | -38.7°C | 47.8% | 311.3hPa | 2.5V | 00:00:00 | 02:40:51 | 00:00:00 | |
| DL1NUX | 2026-09-01 13:10:19 | 48.99483 | 10.66980 | 76° | 100km/h | 9261m | -3.5m/s | -39°C | 50.4% | 309.9hPa | 2.5V | 07:45:16 | 02:40:42 | 00:00:00 | |
| DB0ND-19 | 2026-09-01 13:10:19 | 48.99502 | 10.67124 | 82° | 93km/h | 9246m | -4.2m/s | -38.9°C | 42.9% | 310.5hPa | 2.5V | 00:00:00 | 00:00:00 | 00:00:00 | |
| DO3MHA-12 | 2026-09-01 13:10:18 | 48.99502 | 10.67123 | 83° | 100km/h | 9247m | -4.1m/s | -38.8°C | 49.0% | 310.5hPa | 2.5V | 00:00:00 | 02:40:46 | 00:00:00 | |
| OE5DXL-15 | 2026-09-01 13:10:15 | 48.99489 | 10.67017 | 77° | 99km/h | 9258m | -3.6m/s | -39.0°C | 50.0% | 310.0hPa | 2.5V | 00:00:00 | 00:00:00 | 00:00:00 | |
| DL1ZP-14 | 2026-09-01 13:10:13 | 48.99471 | 10.66901 | 78° | 106km/h | 9269m | -4.0m/s | -39.1°C | 44.6% | 309.5hPa | 2.6V | 00:00:00 | 00:00:00 | 00:00:00 | |
| NBG1-10 | 2026-09-01 13:10:11 | 48.99466 | 10.66860 | 81° | 100km/h | 9273m | -3.8m/s | -39.1°C | 51.5% | 309.3hPa | 2.5V | 00:00:00 | 02:40:39 | 00:00:00 | |
| DL9SK-14 | 2026-09-01 13:10:10 | 48.99462 | 10.66820 | 82° | 104km/h | 9277m | -3.6m/s | -39.2°C | 45.4% | 309.3hPa | 2.5V | 00:00:00 | 00:00:00 | 00:00:00 | |
| DO3MHA-11 | 2026-09-01 13:10:09 | 48.99459 | 10.66781 | 83° | 100km/h | 9281m | -3.9m/s | -39.2°C | 52.3% | 309.0hPa | 2.5V | 00:00:00 | 02:40:37 | 00:00:00 | |
| DO3MHA-12 | 2026-09-01 13:10:08 | 48.99456 | 10.66743 | 83° | 100km/h | 9284m | -3.4m/s | -39.2°C | 52.7% | 308.8hPa | 2.5V | 00:00:00 | 02:40:36 | 00:00:00 | |
| DM0DOS-11 | 2026-09-01 13:10:07 | 48.99437 | 10.66599 | 75° | 100km/h | 9298m | -3.4m/s | -39.4°C | 52.7% | 308.2hPa | 2.5V | 07:45:26 | 02:40:32 | 00:00:00 | |
| DB0NH | 2026-09-01 13:10:05 | 48.99443 | 10.66636 | 77° | 100km/h | 9295m | -3.4m/s | -39.3°C | 53.0% | 308.4hPa | 2.5V | 00:00:00 | 02:40:33 | 00:00:00 | |
| DJ8HS-15 | 2026-09-01 13:10:03 | 48.99430 | 10.66561 | 77° | 100km/h | 9302m | -3.4m/s | -39.4°C | 52.4% | 308.1hPa | 2.5V | 00:00:00 | 02:40:31 | 00:00:00 | |
| DO3MHA-11 | 2026-09-01 13:09:59 | 48.99410 | 10.66402 | 82° | 100km/h | 9316m | -3.5m/s | -39.5°C | 53.7% | 307.4hPa | 2.5V | 00:00:00 | 02:40:27 | 00:00:00 | |
| DM0DOS-11 | 2026-09-01 13:09:58 | 48.99387 | 10.66220 | 74° | 99km/h | 9333m | -3.9m/s | -39.7°C | 56.5% | 306.6hPa | 2.5V | 07:45:36 | 02:40:22 | 00:00:00 | |
| DK7TD | 2026-09-01 13:09:51 | 48.99368 | 10.66104 | 79° | 106km/h | 9344m | -3.9m/s | -39.8°C | 56.2% | 306.1hPa | 2.6V | 07:47:52 | 02:40:19 | 00:00:00 | |
| DB0ND-19 | 2026-09-01 13:09:47 | 48.99352 | 10.65950 | 80° | 95km/h | 9359m | -3.8m/s | -39.9°C | 52.4% | 305.4hPa | 2.5V | 00:00:00 | 00:00:00 | 00:00:00 | |
| DO9HM | 2026-09-01 13:09:45 | 48.99348 | 10.65914 | 80° | 93km/h | 9363m | -3.8m/s | -39.9°C | 52.7% | 305.4hPa | 2.5V | 07:46:00 | 00:00:00 | 00:00:00 | |
| OE5DXL-15 | 2026-09-01 13:09:44 | 48.99337 | 10.65842 | 76° | 100km/h | 9370m | -3.5m/s | -39.9°C | 59.7% | 305.0hPa | 2.5V | 00:00:00 | 00:00:00 | 00:00:00 | |
| DJ8HS-15 | 2026-09-01 13:09:43 | 48.99331 | 10.65805 | 76° | 102km/h | 9373m | -3.5m/s | -40.0°C | 59.7% | 304.9hPa | 2.5V | 00:00:00 | 02:40:11 | 00:00:00 | |
| DM0DOS-11 | 2026-09-01 13:09:41 | 48.99315 | 10.65686 | 81° | 106km/h | 9383m | -3.5m/s | -40.1°C | 59.4% | 304.4hPa | 2.6V | 07:45:50 | 02:40:08 | 00:00:00 | |
| DK7TD | 2026-09-01 13:09:40 | 48.99315 | 10.65686 | 81° | 106km/h | 9383m | -3.5m/s | -40.1°C | 56.6% | 304.4hPa | 2.6V | 07:47:52 | 02:40:08 | 00:00:00 | |
| DL9SK-14 | 2026-09-01 13:09:40 | 48.99311 | 10.65646 | 82° | 102km/h | 9387m | -3.6m/s | -40.1°C | 52.3% | 304.2hPa | 2.6V | 00:00:00 | 00:00:00 | 00:00:00 | |
| DO3MHA-11 | 2026-09-01 13:09:39 | 48.99311 | 10.65646 | 83° | 102km/h | 9387m | -3.6m/s | -40.1°C | 59.6% | 304.2hPa | 2.6V | 00:00:00 | 02:40:07 | 00:00:00 | |
| NBG1-10 | 2026-09-01 13:09:38 | 48.99308 | 10.65607 | 83° | 104km/h | 9391m | -3.8m/s | -40.1°C | 59.5% | 304.1hPa | 2.6V | 00:00:00 | 02:40:06 | 00:00:00 | |
| DM0DOS-11 | 2026-09-01 13:09:36 | 48.99271 | 10.65302 | 82° | 108km/h | 9420m | -3.9m/s | -40.4°C | 58.1% | 302.8hPa | 2.6V | 07:46:00 | 02:39:58 | 00:00:00 | |
| DK7TD | 2026-09-01 13:09:29 | 48.99267 | 10.65262 | 84° | 104km/h | 9424m | -3.7m/s | -40.4°C | 54.9% | 302.6hPa | 2.6V | 07:47:52 | 02:39:57 | 00:00:00 | |
| DO3MHA-11 | 2026-09-01 13:09:29 | 48.99267 | 10.65262 | 84° | 104km/h | 9424m | -3.6m/s | -40.4°C | 58.1% | 302.5hPa | 2.6V | 00:00:00 | 02:39:57 | 00:00:00 | |
| DO3MHA-12 | 2026-09-01 13:09:28 | 48.99264 | 10.65222 | 85° | 106km/h | 9428m | -3.7m/s | -40.4°C | 57.3% | 302.4hPa | 2.6V | 00:00:00 | 02:39:56 | 00:00:00 | |
| DO9HM | 2026-09-01 13:09:24 | 48.99254 | 10.65109 | 79° | 99km/h | 9439m | -3.7m/s | -40.5°C | 48.1% | 302.1hPa | 2.6V | 07:46:00 | 00:00:00 | 00:00:00 | |
| DM0DOS-11 | 2026-09-01 13:09:23 | 48.99220 | 10.64823 | 85° | 106km/h | 9464m | -3.8m/s | -40.8°C | 54.7% | 301hPa | 2.6V | 07:46:12 | 02:39:46 | 00:00:00 | |
| DK5PH-5 | 2026-09-01 13:09:23 | 48.99242 | 10.65032 | 77° | 106km/h | 9446m | -3.7m/s | -40.6°C | 54.0% | 301.6hPa | 2.6V | 00:00:00 | 02:39:51 | 00:00:00 | |
| DO3MHA-11 | 2026-09-01 13:09:19 | 48.99222 | 10.64864 | 84° | 104km/h | 9461m | -3.6m/s | -40.7°C | 54.5% | 301.0hPa | 2.6V | 00:00:00 | 02:39:47 | 00:00:00 | |
| DO3MHA-12 | 2026-09-01 13:09:18 | 48.99220 | 10.64823 | 86° | 104km/h | 9465m | -3.8m/s | -40.7°C | 54.7% | 300.9hPa | 2.5V | 00:00:00 | 02:39:46 | 00:00:00 | |
| DB0ND-19 | 2026-09-01 13:09:16 | 48.99215 | 10.64745 | 84° | 97km/h | 9472m | -3.5m/s | -40.8°C | 48.2% | 300.5hPa | 2.5V | 00:00:00 | 00:00:00 | 00:00:00 | |
| DB0UT-7 | 2026-09-01 13:09:14 | 48.99208 | 10.64671 | 80° | 108km/h | 9479m | -3.6m/s | -40.8°C | 55.9% | 300.3hPa | 2.5V | 00:00:00 | 02:39:42 | 00:00:00 | |
| DH7VM-15 | 2026-09-01 13:09:13 | 48.99209 | 10.64671 | 81° | 97km/h | 9479m | -3.6m/s | -40.9°C | 48.9% | 300.4hPa | 2.5V | 00:00:00 | 00:00:00 | 00:00:00 | |
| DN1GJH-1 | 2026-09-01 13:09:11 | 48.99199 | 10.64595 | 79° | 106km/h | 9486m | -3.4m/s | -40.9°C | 49.2% | 299.9hPa | 2.5V | 07:47:00 | 00:00:00 | 00:00:00 | |
| DM0DOS-11 | 2026-09-01 13:09:09 | 48.99168 | 10.64272 | 80° | 100km/h | 9515m | -3.5m/s | -41.1°C | 57.2% | 298.7hPa | 2.5V | 07:46:26 | 02:39:32 | 00:00:00 | |
| DO3MHA-11 | 2026-09-01 13:09:09 | 48.99183 | 10.64471 | 82° | 106km/h | 9497m | -3.6m/s | -41.0°C | 57.4% | 299.4hPa | 2.6V | 00:00:00 | 02:39:37 | 00:00:00 | |
| DO3MHA-12 | 2026-09-01 13:09:08 | 48.99180 | 10.64429 | 84° | 106km/h | 9501m | -3.5m/s | -41.0°C | 57.6% | 299.3hPa | 2.6V | 00:00:00 | 02:39:36 | 00:00:00 | |
| NBG1-10 | 2026-09-01 13:09:05 | 48.99171 | 10.64310 | 83° | 106km/h | 9511m | -3.4m/s | -41.0°C | 57.4% | 298.8hPa | 2.5V | 00:00:00 | 02:39:33 | 00:00:00 | |
| DO9HM | 2026-09-01 13:09:04 | 48.99171 | 10.64310 | 84° | 99km/h | 9511m | -3.5m/s | -41.1°C | 50.2% | 298.8hPa | 2.5V | 07:47:00 | 00:00:00 | 00:00:00 | |
| DJ8HS-15 | 2026-09-01 13:09:03 | 48.99163 | 10.64234 | 80° | 106km/h | 9518m | -3.5m/s | -41.1°C | 57.0% | 298.5hPa | 2.5V | 07:46:00 | 02:39:31 | 00:00:00 | |
| DO3MHA-11 | 2026-09-01 13:08:59 | 48.99145 | 10.64069 | 84° | 108km/h | 9533m | -3.6m/s | -41.3°C | 56.5% | 297.8hPa | 2.5V | 07:46:00 | 02:39:27 | 00:00:00 | |
| DM0DOS-11 | 2026-09-01 13:08:58 | 48.99131 | 10.63868 | 80° | 104km/h | 9552m | -3.6m/s | -41.5°C | 56.7% | 297.1hPa | 2.5V | 07:46:36 | 02:39:22 | 00:00:00 | |
| DK7TD | 2026-09-01 13:08:52 | 48.99122 | 10.63788 | 81° | 110km/h | 9559m | -3.4m/s | -41.5°C | 54.2% | 296.8hPa | 2.5V | 07:47:52 | 02:39:20 | 00:00:00 | |
| DN1GJH-1 | 2026-09-01 13:08:50 | 48.99118 | 10.63745 | 83° | 113km/h | 9562m | -3.9m/s | -41.6°C | 48.8% | 296.7hPa | 2.5V | 07:47:00 | 00:00:00 | 00:00:00 | |
| DO3MHA-11 | 2026-09-01 13:08:49 | 48.99111 | 10.63659 | 86° | 108km/h | 9570m | -3.5m/s | -41.6°C | 56.6% | 296.2hPa | 2.5V | 00:00:00 | 02:39:17 | 00:00:00 | |
| DM0DOS-11 | 2026-09-01 13:08:48 | 48.99099 | 10.63459 | 80° | 102km/h | 9588m | -3.6m/s | -41.8°C | 56.7% | 295.5hPa | 2.6V | 07:46:46 | 02:39:12 | 00:00:00 | |
| DB0ND-19 | 2026-09-01 13:08:45 | 48.99103 | 10.63498 | 82° | 100km/h | 9584m | -3.6m/s | -41.8°C | 49.6% | 295.7hPa | 2.5V | 00:00:00 | 00:00:00 | 00:00:00 | |
| DK7TD | 2026-09-01 13:08:42 | 48.99090 | 10.63379 | 81° | 110km/h | 9595m | -3.4m/s | -41.9°C | 54.6% | 295.1hPa | 2.5V | 07:47:52 | 02:39:10 | 00:00:00 | |
| DO3MHA-11 | 2026-09-01 13:08:39 | 48.99079 | 10.63251 | 86° | 108km/h | 9606m | -3.5m/s | -41.9°C | 56.7% | 294.7hPa | 2.6V | 00:00:00 | 02:39:07 | 00:00:00 | |
| DM0DOS-11 | 2026-09-01 13:08:38 | 48.99068 | 10.63053 | 80° | 102km/h | 9624m | -3.7m/s | -42.1°C | 57.2% | 293.9hPa | 2.6V | 07:46:56 | 02:39:02 | 00:00:00 | |
| DK7TD | 2026-09-01 13:08:31 | 48.99054 | 10.62930 | 81° | 113km/h | 9635m | -3.4m/s | -42.2°C | 54.9% | 293.4hPa | 2.5V | 07:47:52 | 02:38:59 | 00:00:00 | |
| DN1GJH-1 | 2026-09-01 13:08:30 | 48.99054 | 10.62930 | 82° | 113km/h | 9635m | -3.4m/s | -42.2°C | 49.4% | 293.5hPa | 2.5V | 07:47:00 | 00:00:00 | 00:00:00 | |
| DO3MHA-11 | 2026-09-01 13:08:29 | 48.99047 | 10.62843 | 86° | 108km/h | 9642m | -3.9m/s | -42.3°C | 57.1% | 293.1hPa | 2.5V | 00:00:00 | 02:38:57 | 00:00:00 | |
| DM0DOS-11 | 2026-09-01 13:08:28 | 48.99035 | 10.62641 | 81° | 104km/h | 9661m | -3.6m/s | -42.4°C | 57.6% | 292.4hPa | 2.5V | 07:47:06 | 02:38:52 | 00:00:00 | |
| DO3MHA-12 | 2026-09-01 13:08:28 | 48.99045 | 10.62801 | 86° | 108km/h | 9646m | -3.8m/s | -42.3°C | 57.2% | 293.0hPa | 2.5V | 07:47:00 | 02:38:56 | 00:00:00 | |
| DO9HM | 2026-09-01 13:08:23 | 48.99030 | 10.62601 | 81° | 106km/h | 9664m | -3.8m/s | -42.4°C | 50.1% | 292.2hPa | 2.5V | 07:47:00 | 00:00:00 | 00:00:00 | |
| DO3MHA-11 | 2026-09-01 13:08:19 | 48.99015 | 10.62432 | 86° | 106km/h | 9679m | -3.6m/s | -42.6°C | 59.2% | 291.6hPa | 2.5V | 00:00:00 | 02:38:47 | 00:00:00 | |
| DM0DOS-11 | 2026-09-01 13:08:18 | 48.99001 | 10.62235 | 79° | 104km/h | 9697m | -3.6m/s | -42.8°C | 61.1% | 290.8hPa | 2.5V | 07:47:16 | 02:38:42 | 00:00:00 | |
| DK7TD | 2026-09-01 13:08:17 | 48.99011 | 10.62351 | 86° | 102km/h | 9686m | -3.7m/s | -42.7°C | 57.1% | 0hPa | 2.6V | 07:47:52 | 02:38:45 | 00:00:00 | |
| DK7TD | 2026-09-01 13:08:07 | 48.98976 | 10.61945 | 84° | 104km/h | 9723m | -3.7m/s | -42.9°C | 58.8% | 0hPa | 2.5V | 07:47:52 | 02:38:35 | 00:00:00 | |
| DK7TD | 2026-09-01 13:07:57 | 48.98944 | 10.61530 | 84° | 102km/h | 9761m | -3.8m/s | -43.3°C | 58.8% | 0hPa | 2.6V | 07:47:52 | 02:38:25 | 00:00:00 | |
| DM7RM-13 | 2026-09-01 13:07:53 | 48.98931 | 10.61412 | 80° | 110km/h | 9772m | -3.6m/s | -43.4°C | 53.1% | 287.6hPa | 2.6V | 07:47:00 | 00:00:00 | 00:00:00 | |
| DM0DOS-11 | 2026-09-01 13:07:52 | 48.98920 | 10.61327 | 80° | 115km/h | 9779m | -3.8m/s | -43.5°C | 61.1% | 287.4hPa | 2.6V | 07:47:38 | 02:38:20 | 00:00:00 | |
| DK7TD | 2026-09-01 13:07:46 | 48.98904 | 10.61073 | 83° | 104km/h | 9801m | -3.7m/s | -43.7°C | 60.7% | 0hPa | 2.6V | 07:47:52 | 02:38:14 | 00:00:00 | |
| DH7VM-15 | 2026-09-01 13:07:44 | 48.98900 | 10.61032 | 82° | 106km/h | 9805m | -3.8m/s | -43.7°C | 56.2% | 286.2hPa | 2.5V | 00:00:00 | 00:00:00 | 00:00:00 | |
| DJ8HS-15 | 2026-09-01 13:07:43 | 48.98891 | 10.60949 | 81° | 113km/h | 9813m | -3.5m/s | -43.7°C | 65.8% | 285.9hPa | 2.5V | 00:00:00 | 02:38:11 | 00:00:00 | |
| DO9HM | 2026-09-01 13:07:42 | 48.98887 | 10.60905 | 83° | 117km/h | 9816m | -3.8m/s | -43.8°C | 58.0% | 285.8hPa | 2.5V | 07:47:00 | 00:00:00 | 00:00:00 | |
| DM0DOS-11 | 2026-09-01 13:07:41 | 48.98876 | 10.60726 | 85° | 111km/h | 9831m | -3.5m/s | -43.9°C | 70.6% | 285hPa | 2.5V | 07:47:52 | 02:38:06 | 00:00:00 | |
| DK7TD | 2026-09-01 13:07:35 | 48.98866 | 10.60602 | 80° | 108km/h | 9842m | -3.7m/s | 0°C | 0% | 0hPa | 2.5V | 18:12:15 | 02:38:03 | 00:00:00 | |
| DB0NH | 2026-09-01 13:07:35 | 48.98866 | 10.60602 | 81° | 113km/h | 9842m | -3.7m/s | -43.8°C | 72.1% | 284.6hPa | 2.5V | 07:47:00 | 02:38:03 | 00:00:00 | |
| DM7RM-13 | 2026-09-01 13:07:32 | 48.98856 | 10.60518 | 81° | 113km/h | 9850m | -3.9m/s | -44.0°C | 63.4% | 284.4hPa | 2.5V | 07:48:00 | 00:00:00 | 00:00:00 | |
| DM0DOS-11 | 2026-09-01 13:07:31 | 48.98837 | 10.60303 | 83° | 108km/h | 9868m | -3.7m/s | -44.1°C | 73.2% | 283.5hPa | 2.5V | 07:48:02 | 02:37:56 | 00:00:00 | |
| DK7TD | 2026-09-01 13:07:24 | 48.98818 | 10.60135 | 79° | 117km/h | 9883m | -3.6m/s | 0°C | 0% | 0hPa | 2.5V | 18:12:15 | 02:37:52 | 00:00:00 | |
| DK7TD | 2026-09-01 13:07:13 | 48.98776 | 10.59663 | 80° | 113km/h | 9923m | -3.7m/s | 0°C | 0% | 0hPa | 2.5V | 18:12:15 | 02:37:41 | 00:00:00 | |
| DB0ND-19 | 2026-09-01 13:07:12 | 48.98771 | 10.59620 | 81° | 113km/h | 9927m | -3.6m/s | -44.6°C | 63.7% | 281.1hPa | 2.5V | 00:00:00 | 00:00:00 | 00:00:00 | |
| DM7RM-13 | 2026-09-01 13:07:11 | 48.98771 | 10.59619 | 82° | 115km/h | 9927m | -3.6m/s | -44.6°C | 63.7% | 281.1hPa | 2.5V | 07:48:00 | 00:00:00 | 00:00:00 | |
| DO3MHA-11 | 2026-09-01 13:07:09 | 48.98760 | 10.59491 | 82° | 111km/h | 9938m | -3.7m/s | -44.6°C | 73.8% | 280.7hPa | 2.5V | 00:00:00 | 02:37:37 | 00:00:00 | |
| DB0UT-7 | 2026-09-01 13:07:08 | 48.98755 | 10.59449 | 81° | 110km/h | 9942m | -3.6m/s | -44.6°C | 73.6% | 280.5hPa | 2.5V | 00:00:00 | 00:00:00 | 00:00:00 | |
| DL1ZP-14 | 2026-09-01 13:07:06 | 48.98746 | 10.59362 | 81° | 115km/h | 9949m | -3.8m/s | -44.8°C | 62.7% | 280.2hPa | 2.5V | 00:00:00 | 00:00:00 | 00:00:00 | |
| DM0DOS-11 | 2026-09-01 13:07:05 | 48.98737 | 10.59230 | 86° | 111km/h | 9960m | -3.7m/s | -44.8°C | 73% | 279.7hPa | 2.5V | 07:48:27 | 02:37:31 | 00:00:00 | |
| DK7TD | 2026-09-01 13:07:02 | 48.98736 | 10.59188 | 86° | 108km/h | 9963m | -3.5m/s | 0°C | 0% | 0hPa | 2.6V | 18:12:15 | 02:37:30 | 00:00:00 | |
| DK7TD | 2026-09-01 13:06:52 | 48.98702 | 10.58765 | 88° | 110km/h | 9999m | -3.8m/s | 0°C | 0% | 0hPa | 2.5V | 18:12:15 | 02:37:20 | 00:00:00 | |
| DM7RM-13 | 2026-09-01 13:06:50 | 48.98701 | 10.58723 | 88° | 106km/h | 10003m | -3.5m/s | -45.1°C | 57.4% | 278.0hPa | 2.5V | 07:48:00 | 00:00:00 | 00:00:00 | |
| DM0DOS-11 | 2026-09-01 13:06:49 | 48.98682 | 10.58518 | 80° | 115km/h | 10021m | -3.5m/s | -45.5°C | 61.8% | 277.2hPa | 2.5V | 07:48:44 | 02:37:14 | 00:00:00 | |
| DO3MHA-11 | 2026-09-01 13:06:49 | 48.98695 | 10.58643 | 83° | 111km/h | 10010m | -3.4m/s | -45.2°C | 63.8% | 277.5hPa | 2.6V | 00:00:00 | 02:37:17 | 00:00:00 | |
| DO3MHA-12 | 2026-09-01 13:06:48 | 48.98692 | 10.58603 | 81° | 111km/h | 10013m | -3.7m/s | -45.3°C | 63.2% | 277.4hPa | 2.6V | 00:00:00 | 02:37:16 | 00:00:00 | |
| DJTTGO | 2026-09-01 13:06:44 | 48.98677 | 10.58474 | 83° | 117km/h | 10024m | -3.9m/s | -45.5°C | 52.7% | 277.0hPa | 2.6V | 07:49:00 | 00:00:00 | 00:00:00 | |
| DJ8HS-15 | 2026-09-01 13:06:43 | 48.98671 | 10.58386 | 86° | 110km/h | 10032m | -3.7m/s | -45.4°C | 60.8% | 276.7hPa | 2.6V | 00:00:00 | 02:37:11 | 00:00:00 | |
| DO9HM | 2026-09-01 13:06:41 | 48.98667 | 10.58301 | 86° | 108km/h | 10039m | -3.6m/s | -45.5°C | 52.2% | 276.5hPa | 2.5V | 07:49:00 | 00:00:00 | 00:00:00 | |
| DO3MHA-11 | 2026-09-01 13:06:39 | 48.98661 | 10.58221 | 83° | 108km/h | 10047m | -3.6m/s | -45.5°C | 59.4% | 276.1hPa | 2.5V | 00:00:00 | 02:37:07 | 00:00:00 | |
| DO3MHA-12 | 2026-09-01 13:06:38 | 48.98657 | 10.58180 | 82° | 108km/h | 10050m | -3.6m/s | -45.6°C | 59.1% | 275.9hPa | 2.5V | 00:00:00 | 02:37:06 | 00:00:00 | |
| DM0DOS-11 | 2026-09-01 13:06:37 | 48.98649 | 10.58095 | 83° | 113km/h | 10057m | -3.5m/s | -45.8°C | 59.2% | 275.7hPa | 2.6V | 07:48:54 | 02:37:04 | 00:00:00 | |
| DK7TD | 2026-09-01 13:06:34 | 48.98644 | 10.58009 | 86° | 110km/h | 10064m | -3.8m/s | 0°C | 0% | 0hPa | 2.5V | 18:12:15 | 02:37:02 | 00:00:00 | |
| DL9SK-14 | 2026-09-01 13:06:33 | 48.98641 | 10.57968 | 85° | 106km/h | 10068m | -3.7m/s | -45.8°C | 49.2% | 275.2hPa | 2.6V | 00:00:00 | 00:00:00 | 00:00:00 | |
| DM0DOS-11 | 2026-09-01 13:06:31 | 48.98616 | 10.57679 | 84° | 115km/h | 10094m | -3.6m/s | -46°C | 47.3% | 274.2hPa | 2.6V | 07:49:04 | 02:36:54 | 00:00:00 | |
| DB0UT-7 | 2026-09-01 13:06:30 | 48.98632 | 10.57848 | 81° | 111km/h | 10079m | -3.6m/s | -45.9°C | 54.2% | 274.8hPa | 2.6V | 00:00:00 | 02:36:58 | 00:00:00 | |
| DO3MHA-11 | 2026-09-01 13:06:29 | 48.98628 | 10.57807 | 81° | 110km/h | 10083m | -3.8m/s | -46.0°C | 53.1% | 274.6hPa | 2.5V | 00:00:00 | 02:36:57 | 00:00:00 | |
| DO3MHA-12 | 2026-09-01 13:06:28 | 48.98623 | 10.57765 | 82° | 110km/h | 10087m | -3.8m/s | -46.0°C | 51.5% | 274.5hPa | 2.5V | 00:00:00 | 02:36:56 | 00:00:00 | |
| DK5PH-5 | 2026-09-01 13:06:23 | 48.98611 | 10.57551 | 87° | 111km/h | 10105m | -3.6m/s | -46.0°C | 42.1% | 273.7hPa | 2.5V | 00:00:00 | 02:36:51 | 00:00:00 | |
| NBG1-10 | 2026-09-01 13:06:20 | 48.98602 | 10.57430 | 83° | 113km/h | 10117m | -3.7m/s | -46.0°C | 38.5% | 273.2hPa | 2.5V | 00:00:00 | 02:36:48 | 00:00:00 | |
| DM0DOS-11 | 2026-09-01 13:06:19 | 48.98590 | 10.57257 | 87° | 113km/h | 10131m | -3.6m/s | -46.1°C | 33.7% | 272.6hPa | 2.5V | 07:49:14 | 02:36:44 | 00:00:00 | |
| DK7TD | 2026-09-01 13:06:19 | 48.98598 | 10.57388 | 82° | 113km/h | 10120m | -3.7m/s | 0°C | 0% | 0hPa | 2.6V | 18:12:15 | 02:36:47 | 00:00:00 | |
| DK7TD | 2026-09-01 13:06:09 | 48.98574 | 10.56917 | 87° | 117km/h | 10161m | -3.8m/s | 0°C | 0% | 0hPa | 2.5V | 18:12:15 | 02:36:36 | 00:00:00 | |
| DO3MHA-12 | 2026-09-01 13:06:08 | 48.98573 | 10.56917 | 88° | 113km/h | 10161m | -3.8m/s | -46.0°C | 27.7% | 271.4hPa | 2.5V | 00:00:00 | 02:36:36 | 00:00:00 | |
| DM0DOS-11 | 2026-09-01 13:06:07 | 48.98572 | 10.56829 | 89° | 110km/h | 10168m | -3.8m/s | -46°C | 27% | 271.2hPa | 2.6V | 07:49:24 | 02:36:34 | 00:00:00 | |
| DB0NH | 2026-09-01 13:06:05 | 48.98572 | 10.56787 | 89° | 117km/h | 10172m | -3.6m/s | -46.1°C | 27.0% | 270.9hPa | 2.5V | 00:00:00 | 02:36:33 | 00:00:00 | |
| DL1ZP-14 | 2026-09-01 13:06:04 | 48.98571 | 10.56746 | 87° | 106km/h | 10175m | -3.7m/s | -46.2°C | 21.6% | 270.9hPa | 2.5V | 00:00:00 | 00:00:00 | 00:00:00 | |
| DL9SK-14 | 2026-09-01 13:06:02 | 48.98563 | 10.56619 | 84° | 115km/h | 10186m | -3.7m/s | -46.1°C | 20.9% | 270.4hPa | 2.5V | 00:00:00 | 00:00:00 | 00:00:00 | |
| DM0DOS-11 | 2026-09-01 13:06:01 | 48.98555 | 10.56393 | 87° | 115km/h | 10205m | -3.8m/s | -46.4°C | 25.7% | 269.7hPa | 2.5V | 07:49:34 | 02:36:24 | 00:00:00 | |
| DL6DJ-15 | 2026-09-01 13:05:57 | 48.98555 | 10.56393 | 87° | 115km/h | 10205m | -3.8m/s | -46.4°C | 20.7% | 269.7hPa | 2.6V | 00:00:00 | 00:00:00 | 00:00:00 | |
| DK5PH-5 | 2026-09-01 13:05:53 | 48.98550 | 10.56258 | 86° | 120km/h | 10216m | -3.7m/s | -46.4°C | 25.2% | 269.1hPa | 2.6V | 07:49:00 | 02:36:21 | 00:00:00 | |
| OE3JTB-15 | 2026-09-01 13:05:50 | 48.98546 | 10.56119 | 91° | 120km/h | 10228m | -3.7m/s | -46.3°C | 25.6% | 268.7hPa | 2.6V | 00:00:00 | 02:36:18 | 00:00:00 | |
| DM0DOS-11 | 2026-09-01 13:05:49 | 48.98545 | 10.55944 | 85° | 111km/h | 10242m | -3.6m/s | -46.6°C | 25.8% | 268.2hPa | 2.6V | 07:49:44 | 02:36:14 | 00:00:00 | |
| DO3MHA-11 | 2026-09-01 13:05:49 | 48.98547 | 10.56073 | 91° | 119km/h | 10231m | -3.7m/s | -46.3°C | 25.7% | 268.6hPa | 2.5V | 00:00:00 | 02:36:17 | 00:00:00 | |
| DO3MHA-12 | 2026-09-01 13:05:48 | 48.98547 | 10.56030 | 90° | 119km/h | 10235m | -3.8m/s | -46.4°C | 25.9% | 268.4hPa | 2.5V | 07:49:00 | 02:36:16 | 00:00:00 | |
| NBG1-10 | 2026-09-01 13:05:47 | 48.98546 | 10.55986 | 88° | 122km/h | 10239m | -3.6m/s | -46.4°C | 25.8% | 268.2hPa | 2.5V | 00:00:00 | 02:36:15 | 00:00:00 | |
| DJTTGO | 2026-09-01 13:05:43 | 48.98537 | 10.55809 | 86° | 124km/h | 10254m | -3.7m/s | -46.6°C | 20.0% | 267.7hPa | 2.6V | 00:00:00 | 00:00:00 | 00:00:00 | |
| DO3MHA-11 | 2026-09-01 13:05:39 | 48.98533 | 10.55619 | 91° | 120km/h | 10269m | -3.6m/s | -46.7°C | 24.7% | 267.0hPa | 2.6V | 00:00:00 | 02:36:07 | 00:00:00 | |
| DO3MHA-12 | 2026-09-01 13:05:38 | 48.98533 | 10.55573 | 90° | 120km/h | 10272m | -3.6m/s | -46.6°C | 24.7% | 266.9hPa | 2.6V | 00:00:00 | 02:36:06 | 00:00:00 | |
| DM0DOS-11 | 2026-09-01 13:05:37 | 48.98530 | 10.55484 | 86° | 117km/h | 10280m | -3.7m/s | -46.7°C | 24.5% | 266.6hPa | 2.5V | 07:49:54 | 02:36:04 | 00:00:00 | |
| DB0NH | 2026-09-01 13:05:35 | 48.98528 | 10.55439 | 86° | 124km/h | 10283m | -3.6m/s | -46.7°C | 24.4% | 266.4hPa | 2.5V | 00:00:00 | 02:36:03 | 00:00:00 | |
| DL1ZP-14 | 2026-09-01 13:05:33 | 48.98524 | 10.55345 | 87° | 124km/h | 10291m | -3.7m/s | -46.7°C | 19.6% | 266.2hPa | 2.5V | 00:00:00 | 00:00:00 | 00:00:00 | |
| DM0DOS-11 | 2026-09-01 13:05:31 | 48.98520 | 10.55015 | 87° | 126km/h | 10316m | -3.7m/s | -47°C | 25.3% | 265.2hPa | 2.5V | 07:50:04 | 02:35:54 | 00:00:00 | |
| DL9SK-14 | 2026-09-01 13:05:31 | 48.98523 | 10.55202 | 90° | 120km/h | 10301m | -3.7m/s | -46.8°C | 20.0% | 265.8hPa | 2.5V | 00:00:00 | 00:00:00 | 00:00:00 | |
| DB0UT-7 | 2026-09-01 13:05:30 | 48.98523 | 10.55202 | 91° | 124km/h | 10302m | -3.6m/s | -46.7°C | 24.9% | 265.7hPa | 2.5V | 00:00:00 | 02:35:58 | 00:00:00 | |
| DO3MHA-11 | 2026-09-01 13:05:29 | 48.98523 | 10.55156 | 90° | 124km/h | 10305m | -3.7m/s | -46.8°C | 25.2% | 265.6hPa | 2.5V | 00:00:00 | 02:35:57 | 00:00:00 | |
| DM7RM-13 | 2026-09-01 13:05:28 | 48.98523 | 10.55109 | 89° | 120km/h | 10309m | -3.6m/s | -46.9°C | 20.1% | 265.4hPa | 2.5V | 07:50:00 | 00:00:00 | 00:00:00 | |
| DN1GJH-1 | 2026-09-01 13:05:27 | 48.98523 | 10.55109 | 89° | 120km/h | 10309m | -3.6m/s | -46.9°C | 20.1% | 265.4hPa | 2.5V | 07:50:00 | 00:00:00 | 00:00:00 | |
| DL6DJ-15 | 2026-09-01 13:05:26 | 48.98519 | 10.54966 | 87° | 128km/h | 10320m | -3.7m/s | -47.0°C | 20.3% | 265.0hPa | 2.5V | 00:00:00 | 00:00:00 | 00:00:00 | |
| DK5PH-5 | 2026-09-01 13:05:23 | 48.98518 | 10.54866 | 91° | 124km/h | 10328m | -3.8m/s | -46.9°C | 25.6% | 264.7hPa | 2.5V | 00:00:00 | 02:35:51 | 00:00:00 | |
| OE3JTB-15 | 2026-09-01 13:05:21 | 48.98518 | 10.54771 | 91° | 62km/h | 10335m | -3.6m/s | -47.0°C | 25.5% | 264.3hPa | 2.5V | 00:00:00 | 00:00:00 | 00:00:00 | |
| DM0DOS-11 | 2026-09-01 13:05:19 | 48.98509 | 10.54536 | 86° | 130km/h | 10353m | -3.8m/s | -47.2°C | 25% | 263.7hPa | 2.6V | 07:50:14 | 02:35:44 | 00:00:00 | |
| DO3MHA-11 | 2026-09-01 13:05:19 | 48.98517 | 10.54679 | 87° | 124km/h | 10342m | -3.5m/s | -47.1°C | 25.3% | 264.1hPa | 2.5V | 00:00:00 | 02:35:47 | 00:00:00 | |
| DO3MHA-12 | 2026-09-01 13:05:18 | 48.98514 | 10.54632 | 86° | 124km/h | 10346m | -3.5m/s | -47.1°C | 25.1% | 263.9hPa | 2.5V | 00:00:00 | 02:35:46 | 00:00:00 | |
| NBG1-10 | 2026-09-01 13:05:14 | 48.98507 | 10.54436 | 90° | 122km/h | 10361m | -3.7m/s | -47.1°C | 24.9% | 263.3hPa | 2.5V | 00:00:00 | 02:35:42 | 00:00:00 | |
| DM0DOS-11 | 2026-09-01 13:05:09 | 48.98500 | 10.54058 | 86° | 130km/h | 10390m | -3.7m/s | -47.4°C | 25.2% | 262.2hPa | 2.5V | 07:50:24 | 02:35:34 | 00:00:00 | |
| DO3MHA-11 | 2026-09-01 13:05:09 | 48.98507 | 10.54201 | 87° | 122km/h | 10380m | -3.6m/s | -47.2°C | 24.7% | 262.6hPa | 2.5V | 00:00:00 | 02:35:37 | 00:00:00 | |
| DO3MHA-12 | 2026-09-01 13:05:08 | 48.98505 | 10.54154 | 86° | 122km/h | 10383m | -3.6m/s | -47.3°C | 25.0% | 262.4hPa | 2.5V | 00:00:00 | 02:35:36 | 00:00:00 | |
| DM7RM-13 | 2026-09-01 13:05:07 | 48.98505 | 10.54154 | 86° | 122km/h | 10383m | -3.7m/s | -47.3°C | 20.0% | 262.5hPa | 2.5V | 07:50:00 | 00:00:00 | 00:00:00 | |
| DN1GJH-1 | 2026-09-01 13:05:06 | 48.98502 | 10.54106 | 86° | 126km/h | 10387m | -3.6m/s | -47.3°C | 20.1% | 262.3hPa | 2.5V | 07:50:00 | 00:00:00 | 00:00:00 | |
| DB0NH | 2026-09-01 13:05:05 | 48.98498 | 10.54008 | 88° | 122km/h | 10394m | -3.9m/s | -47.3°C | 25.4% | 262.0hPa | 2.5V | 00:00:00 | 02:35:33 | 00:00:00 | |
| DL1ZP-14 | 2026-09-01 13:05:02 | 48.98496 | 10.53864 | 88° | 117km/h | 10405m | -3.7m/s | -47.4°C | 20.2% | 261.6hPa | 2.6V | 00:00:00 | 00:00:00 | 00:00:00 | |
| DB0UT-7 | 2026-09-01 13:05:00 | 48.98493 | 10.53774 | 86° | 122km/h | 10413m | -3.9m/s | -47.4°C | 25.6% | 261.3hPa | 2.5V | 00:00:00 | 00:00:00 | 00:00:00 | |
| DM0DOS-11 | 2026-09-01 13:04:59 | 48.98484 | 10.53584 | 88° | 128km/h | 10428m | -3.6m/s | -47.5°C | 25.4% | 260.7hPa | 2.6V | 07:50:34 | 02:35:24 | 00:00:00 | |
| DL6DJ-15 | 2026-09-01 13:04:55 | 48.98483 | 10.53486 | 89° | 124km/h | 10435m | -3.8m/s | -47.7°C | 20.7% | 260.4hPa | 2.5V | 00:00:00 | 00:00:00 | 00:00:00 | |
| DK5PH-5 | 2026-09-01 13:04:53 | 48.98482 | 10.53438 | 89° | 119km/h | 10439m | -3.8m/s | -47.6°C | 25.9% | 260.2hPa | 2.5V | 00:00:00 | 02:35:21 | 00:00:00 | |
| DM0DOS-11 | 2026-09-01 13:04:49 | 48.98465 | 10.53107 | 87° | 120km/h | 10466m | -3.7m/s | -47.8°C | 26.3% | 259.2hPa | 2.5V | 07:50:44 | 02:35:14 | 00:00:00 | |
| DO3MHA-12 | 2026-09-01 13:04:48 | 48.98469 | 10.53202 | 86° | 120km/h | 10459m | -3.9m/s | -47.7°C | 26.2% | 259.5hPa | 2.6V | 00:00:00 | 02:35:16 | 00:00:00 | |
| DJTTGO | 2026-09-01 13:04:47 | 48.98466 | 10.53154 | 88° | 124km/h | 10463m | -3.8m/s | -47.8°C | 20.9% | 259.4hPa | 2.6V | 07:51:00 | 00:00:00 | 00:00:00 | |
| DM7RM-13 | 2026-09-01 13:04:46 | 48.98466 | 10.53154 | 88° | 124km/h | 10463m | -3.8m/s | -47.8°C | 20.9% | 259.4hPa | 2.6V | 07:51:00 | 00:00:00 | 00:00:00 | |
| DN1GJH-1 | 2026-09-01 13:04:45 | 48.98465 | 10.53107 | 88° | 120km/h | 10466m | -3.7m/s | -47.8°C | 21.1% | 259.2hPa | 2.6V | 07:51:00 | 00:00:00 | 00:00:00 | |
| NBG1-10 | 2026-09-01 13:04:41 | 48.98453 | 10.52882 | 85° | 119km/h | 10486m | -3.8m/s | -47.9°C | 26.0% | 258.4hPa | 2.6V | 00:00:00 | 02:35:09 | 00:00:00 | |
| DM0DOS-11 | 2026-09-01 13:04:39 | 48.98444 | 10.52648 | 87° | 115km/h | 10504m | -3.9m/s | -48°C | 26.1% | 257.6hPa | 2.6V | 07:50:54 | 02:35:04 | 00:00:00 | |
| DO3MHA-11 | 2026-09-01 13:04:39 | 48.98448 | 10.52787 | 87° | 119km/h | 10493m | -3.7m/s | -47.9°C | 26.2% | 258.1hPa | 2.5V | 00:00:00 | 02:35:07 | 00:00:00 | |
| DO3MHA-12 | 2026-09-01 13:04:38 | 48.98447 | 10.52739 | 88° | 119km/h | 10497m | -3.7m/s | -48.0°C | 26.1% | 258.0hPa | 2.5V | 00:00:00 | 02:35:06 | 00:00:00 | |
| DB0ND-19 | 2026-09-01 13:04:37 | 48.98446 | 10.52693 | 88° | 117km/h | 10501m | -3.8m/s | -48.0°C | 20.8% | 257.9hPa | 2.6V | 00:00:00 | 00:00:00 | 00:00:00 | |
| DB0NH | 2026-09-01 13:04:35 | 48.98442 | 10.52604 | 86° | 117km/h | 10509m | -3.7m/s | -48.0°C | 26.2% | 257.5hPa | 2.6V | 00:00:00 | 02:35:03 | 00:00:00 | |
| DL1ZP-14 | 2026-09-01 13:04:31 | 48.98429 | 10.52424 | 84° | 122km/h | 10524m | -3.8m/s | -48.1°C | 20.9% | 256.9hPa | 2.6V | 00:00:00 | 00:00:00 | 00:00:00 | |
| DB0UT-7 | 2026-09-01 13:04:30 | 48.98427 | 10.52377 | 87° | 119km/h | 10528m | -3.8m/s | -48.1°C | 26.1% | 256.8hPa | 2.5V | 00:00:00 | 02:34:58 | 00:00:00 | |
| DM0DOS-11 | 2026-09-01 13:04:29 | 48.98423 | 10.52197 | 86° | 111km/h | 10543m | -4m/s | -48.2°C | 25.8% | 256.2hPa | 2.5V | 07:51:04 | 02:34:54 | 00:00:00 | |
| DO3MHA-11 | 2026-09-01 13:04:29 | 48.98425 | 10.52330 | 89° | 119km/h | 10532m | -3.7m/s | -48.1°C | 25.7% | 256.6hPa | 2.5V | 00:00:00 | 02:34:57 | 00:00:00 | |
| DO3MHA-12 | 2026-09-01 13:04:28 | 48.98425 | 10.52284 | 90° | 119km/h | 10536m | -3.8m/s | -48.1°C | 25.7% | 256.4hPa | 2.5V | 07:51:00 | 02:34:56 | 00:00:00 | |
| DJ8HS-15 | 2026-09-01 13:04:27 | 48.98424 | 10.52240 | 89° | 117km/h | 10540m | -3.9m/s | -48.1°C | 25.9% | 256.3hPa | 2.5V | 00:00:00 | 02:34:55 | 00:00:00 | |
| DM7RM-13 | 2026-09-01 13:04:25 | 48.98423 | 10.52197 | 88° | 111km/h | 10544m | -4.0m/s | -48.2°C | 20.5% | 256.2hPa | 2.5V | 07:51:00 | 00:00:00 | 00:00:00 | |
| DN1GJH-1 | 2026-09-01 13:04:24 | 48.98421 | 10.52153 | 86° | 111km/h | 10548m | -3.8m/s | -48.2°C | 20.6% | 256.0hPa | 2.5V | 07:51:00 | 00:00:00 | 00:00:00 | |
| DK5PH-5 | 2026-09-01 13:04:23 | 48.98415 | 10.52065 | 85° | 117km/h | 10555m | -3.9m/s | -48.3°C | 26.1% | 255.6hPa | 2.5V | 00:00:00 | 02:34:51 | 00:00:00 | |
| DM0DOS-11 | 2026-09-01 13:04:19 | 48.98409 | 10.51744 | 86° | 111km/h | 10583m | -3.9m/s | -48.5°C | 26.9% | 254.7hPa | 2.5V | 07:51:14 | 02:34:44 | 00:00:00 | |
| DO3MHA-11 | 2026-09-01 13:04:19 | 48.98410 | 10.51876 | 91° | 117km/h | 10571m | -3.9m/s | -48.3°C | 26.5% | 255.0hPa | 2.6V | 00:00:00 | 02:34:47 | 00:00:00 | |
| DO3MHA-12 | 2026-09-01 13:04:18 | 48.98410 | 10.51831 | 91° | 117km/h | 10575m | -3.9m/s | -48.4°C | 26.8% | 254.9hPa | 2.6V | 00:00:00 | 02:34:46 | 00:00:00 | |
| DH7VM-15 | 2026-09-01 13:04:16 | 48.98410 | 10.51787 | 90° | 113km/h | 10579m | -3.9m/s | -48.4°C | 21.3% | 254.8hPa | 2.6V | 00:00:00 | 00:00:00 | 00:00:00 | |
| DM0DOS-11 | 2026-09-01 13:04:11 | 48.98387 | 10.51257 | 83° | 113km/h | 10627m | -4.1m/s | -48.9°C | 27.3% | 253hPa | 2.6V | 07:51:25 | 02:34:33 | 00:00:00 | |
| OE5DXL-15 | 2026-09-01 13:04:10 | 48.98395 | 10.51473 | 89° | 117km/h | 10606m | -4.0m/s | -48.6°C | 27.0% | 253.7hPa | 2.6V | 00:00:00 | 00:00:00 | 00:00:00 | |
| DO3MHA-11 | 2026-09-01 13:04:09 | 48.98394 | 10.51428 | 89° | 115km/h | 10610m | -3.7m/s | -48.6°C | 27.1% | 253.5hPa | 2.5V | 00:00:00 | 02:34:37 | 00:00:00 | |
| DO3MHA-12 | 2026-09-01 13:04:08 | 48.98393 | 10.51384 | 89° | 115km/h | 10614m | -3.9m/s | -48.7°C | 27.1% | 253.4hPa | 2.5V | 00:00:00 | 02:34:36 | 00:00:00 | |
| DJ8HS-15 | 2026-09-01 13:04:07 | 48.98392 | 10.51342 | 87° | 113km/h | 10618m | -4.0m/s | -48.7°C | 27.1% | 253.2hPa | 2.5V | 00:00:00 | 02:34:35 | 00:00:00 | |
| DB0ND-19 | 2026-09-01 13:04:06 | 48.98390 | 10.51300 | 84° | 110km/h | 10622m | -4.2m/s | -48.8°C | 21.6% | 253.1hPa | 2.5V | 00:00:00 | 00:00:00 | 00:00:00 | |
| DB0NH | 2026-09-01 13:04:05 | 48.98387 | 10.51257 | 84° | 113km/h | 10627m | -4.1m/s | -48.8°C | 27.3% | 252.9hPa | 2.5V | 00:00:00 | 02:34:33 | 00:00:00 | |
| DN1GJH-1 | 2026-09-01 13:04:04 | 48.98387 | 10.51257 | 85° | 113km/h | 10627m | -4.1m/s | -48.9°C | 21.7% | 253.0hPa | 2.5V | 07:52:00 | 00:00:00 | 00:00:00 | |
| DB0UT-7 | 2026-09-01 13:04:00 | 48.98377 | 10.51029 | 89° | 111km/h | 10646m | -4.0m/s | -48.9°C | 27.2% | 252.2hPa | 2.5V | 00:00:00 | 00:00:00 | 00:00:00 | |
| DM0DOS-11 | 2026-09-01 13:03:59 | 48.98366 | 10.50815 | 82° | 113km/h | 10666m | -4.1m/s | -49.1°C | 27.2% | 251.4hPa | 2.5V | 07:51:35 | 02:34:23 | 00:00:00 | |
| DL9SK-14 | 2026-09-01 13:03:58 | 48.98372 | 10.50900 | 84° | 108km/h | 10658m | -3.9m/s | -49.2°C | 21.6% | 251.8hPa | 2.5V | 00:00:00 | 00:00:00 | 00:00:00 | |
| DL6DJ-15 | 2026-09-01 13:03:52 | 48.98358 | 10.50683 | 87° | 113km/h | 10677m | -3.7m/s | -49.3°C | 21.8% | 251.0hPa | 2.5V | 00:00:00 | 00:00:00 | 00:00:00 | |
| DM0DOS-11 | 2026-09-01 13:03:49 | 48.98347 | 10.50382 | 87° | 115km/h | 10705m | -4m/s | -49.4°C | 27.4% | 249.9hPa | 2.5V | 07:51:45 | 02:34:13 | 00:00:00 | |
| DK7TD | 2026-09-01 13:03:45 | 48.98347 | 10.50382 | 87° | 115km/h | 10705m | -4m/s | -49.4°C | 27.3% | 249.9hPa | 2.5V | 07:52:58 | 02:34:13 | 00:00:00 | |
| DM7RM-13 | 2026-09-01 13:03:44 | 48.98347 | 10.50382 | 88° | 117km/h | 10705m | -4.0m/s | -49.4°C | 21.7% | 249.9hPa | 2.6V | 07:52:00 | 00:00:00 | 00:00:00 | |
| DN1GJH-1 | 2026-09-01 13:03:43 | 48.98346 | 10.50338 | 89° | 115km/h | 10709m | -4.0m/s | -49.4°C | 21.6% | 249.8hPa | 2.6V | 07:52:00 | 00:00:00 | 00:00:00 | |
| DM0DOS-11 | 2026-09-01 13:03:39 | 48.98331 | 10.49947 | 90° | 113km/h | 10745m | -3.9m/s | -49.7°C | 28.1% | 248.4hPa | 2.6V | 07:51:55 | 02:34:03 | 00:00:00 | |
| DK7TD | 2026-09-01 13:03:35 | 48.98331 | 10.49947 | 90° | 113km/h | 10745m | -3.9m/s | -49.7°C | 28.1% | 248.4hPa | 2.6V | 07:52:58 | 02:34:03 | 00:00:00 | |
| DB0NH | 2026-09-01 13:03:35 | 48.98330 | 10.49947 | 91° | 111km/h | 10745m | -3.9m/s | -49.6°C | 28.1% | 248.3hPa | 2.6V | 07:51:00 | 02:34:03 | 00:00:00 | |
| DF1GD-15 | 2026-09-01 13:03:33 | 48.98331 | 10.49904 | 91° | 110km/h | 10749m | -4.0m/s | -49.6°C | 0% | 248.3hPa | 2.5V | 00:00:00 | 00:00:00 | 00:00:00 | |
| DB0UT-7 | 2026-09-01 13:03:30 | 48.98326 | 10.49739 | 85° | 110km/h | 10765m | -4.0m/s | -49.7°C | 28.6% | 247.6hPa | 2.5V | 07:52:00 | 02:33:58 | 00:00:00 | |
| DO3MHA-11 | 2026-09-01 13:03:29 | 48.98323 | 10.49696 | 85° | 111km/h | 10769m | -3.8m/s | -49.8°C | 28.5% | 247.5hPa | 2.5V | 00:00:00 | 02:33:57 | 00:00:00 | |
| DM0DOS-11 | 2026-09-01 13:03:28 | 48.98317 | 10.49518 | 89° | 111km/h | 10785m | -4.1m/s | -50°C | 29.4% | 246.9hPa | 2.5V | 07:52:05 | 02:33:53 | 00:00:00 | |
| DO3MHA-12 | 2026-09-01 13:03:28 | 48.98320 | 10.49652 | 86° | 111km/h | 10773m | -4.1m/s | -49.9°C | 28.8% | 247.3hPa | 2.6V | 00:00:00 | 02:33:56 | 00:00:00 | |
| DL9SK-14 | 2026-09-01 13:03:27 | 48.98318 | 10.49562 | 89° | 115km/h | 10781m | -4.1m/s | -49.9°C | 22.9% | 247.0hPa | 2.6V | 00:00:00 | 00:00:00 | 00:00:00 | |
| DM7RM-13 | 2026-09-01 13:03:24 | 48.98317 | 10.49518 | 91° | 111km/h | 10785m | -4.1m/s | -50.0°C | 23.3% | 246.9hPa | 2.6V | 07:52:00 | 00:00:00 | 00:00:00 | |
| DK5PH-5 | 2026-09-01 13:03:23 | 48.98316 | 10.49435 | 88° | 110km/h | 10794m | -4.0m/s | -49.9°C | 29.2% | 246.6hPa | 2.6V | 00:00:00 | 02:33:51 | 00:00:00 | |
| DL6DJ-15 | 2026-09-01 13:03:21 | 48.98312 | 10.49353 | 84° | 108km/h | 10802m | -4.1m/s | -50.0°C | 23.3% | 246.3hPa | 2.5V | 00:00:00 | 00:00:00 | 00:00:00 | |
| DO3MHA-11 | 2026-09-01 13:03:19 | 48.98307 | 10.49267 | 86° | 111km/h | 10810m | -4.0m/s | -50.1°C | 29.5% | 245.9hPa | 2.5V | 00:00:00 | 02:33:47 | 00:00:00 | |
| DM0DOS-11 | 2026-09-01 13:03:18 | 48.98306 | 10.49094 | 90° | 106km/h | 10826m | -4.1m/s | -50.1°C | 29.6% | 245.3hPa | 2.6V | 07:52:15 | 02:33:43 | 00:00:00 | |
| DK7TD | 2026-09-01 13:03:15 | 48.98306 | 10.49094 | 90° | 106km/h | 10826m | -4.1m/s | -50.2°C | 29.6% | 245.3hPa | 2.6V | 07:52:58 | 02:33:43 | 00:00:00 | |
| DF1GD-15 | 2026-09-01 13:03:10 | 48.98299 | 10.48931 | 85° | 111km/h | 10843m | -4.2m/s | -50.3°C | 0% | 244.8hPa | 2.6V | 07:52:00 | 00:00:00 | 00:00:00 | |
| DO3MHA-11 | 2026-09-01 13:03:09 | 48.98295 | 10.48843 | 87° | 110km/h | 10851m | -4.2m/s | -50.3°C | 29.2% | 244.4hPa | 2.6V | 00:00:00 | 02:33:37 | 00:00:00 | |
| DM0DOS-11 | 2026-09-01 13:03:08 | 48.98291 | 10.48590 | 84° | 104km/h | 10875m | -4.1m/s | -50.6°C | 29.6% | 243.5hPa | 2.6V | 07:52:27 | 02:33:31 | 00:00:00 | |
| DK7TD | 2026-09-01 13:03:05 | 48.98293 | 10.48670 | 89° | 106km/h | 10867m | -4.1m/s | -50.5°C | 29.9% | 243.8hPa | 2.6V | 07:52:58 | 02:33:33 | 00:00:00 | |
| DK7TD | 2026-09-01 13:02:53 | 48.98273 | 10.48167 | 85° | 110km/h | 10916m | -4m/s | -50.9°C | 30.8% | 242hPa | 2.6V | 07:52:58 | 02:33:21 | 00:00:00 | |
| DL6DJ-15 | 2026-09-01 13:02:50 | 48.98266 | 10.48040 | 86° | 108km/h | 10930m | -4.5m/s | -51.0°C | 24.9% | 241.5hPa | 2.6V | 00:00:00 | 00:00:00 | 00:00:00 | |
| DK7TD | 2026-09-01 13:02:42 | 48.98245 | 10.47719 | 85° | 106km/h | 10965m | -3.8m/s | -51.3°C | 30.6% | 240.2hPa | 2.6V | 07:52:58 | 02:33:10 | 00:00:00 | |
| DK7TD | 2026-09-01 13:02:28 | 48.98218 | 10.47153 | 84° | 108km/h | 11026m | -4.3m/s | -51.6°C | 30.2% | 238hPa | 2.5V | 07:53:49 | 02:32:56 | 00:00:00 | |
| BIOWL1-15 | 2026-09-01 13:02:21 | 48.98197 | 10.46792 | 88° | 113km/h | 11063m | -4.3m/s | 0°C | 0% | 0hPa | 2.6V | 18:12:15 | 02:32:47 | 00:00:00 | |
| DK7TD | 2026-09-01 13:02:18 | 48.98196 | 10.46749 | 90° | 111km/h | 11067m | -4.5m/s | -51.9°C | 29.8% | 236.4hPa | 2.6V | 07:53:49 | 02:32:46 | 00:00:00 | |
| BIOWL1-15 | 2026-09-01 13:02:10 | 48.98177 | 10.46349 | 88° | 111km/h | 11111m | -4.3m/s | 0°C | 0% | 0hPa | 2.6V | 18:12:15 | 02:32:36 | 00:00:00 | |
| DK7TD | 2026-09-01 13:02:07 | 48.98176 | 10.46307 | 89° | 108km/h | 11115m | -4.3m/s | -52°C | 29.6% | 234.7hPa | 2.6V | 07:53:49 | 02:32:35 | 00:00:00 | |
| DK7TD | 2026-09-01 13:01:57 | 48.98157 | 10.45914 | 88° | 108km/h | 11157m | -4.1m/s | -52.2°C | 29.3% | 233.2hPa | 2.5V | 07:53:49 | 02:32:25 | 00:00:00 | |
| BIOWL1-15 | 2026-09-01 13:01:52 | 48.98145 | 10.45683 | 80° | 102km/h | 11181m | -4.1m/s | 0°C | 0% | 0hPa | 2.6V | 18:12:15 | 02:32:19 | 00:00:00 | |
| DK7TD | 2026-09-01 13:01:47 | 48.98131 | 10.45522 | 85° | 104km/h | 11197m | -4.1m/s | -52.6°C | 29.7% | 231.8hPa | 2.5V | 07:53:49 | 02:32:15 | 00:00:00 | |
| DK7TD | 2026-09-01 13:01:36 | 48.98101 | 10.45087 | 89° | 102km/h | 11243m | -4.3m/s | -53.1°C | 30.2% | 230.1hPa | 2.5V | 07:54:40 | 02:32:04 | 00:00:00 | |
| DK7TD | 2026-09-01 13:01:25 | 48.98064 | 10.44649 | 86° | 100km/h | 11289m | -4.1m/s | -53.4°C | 30.5% | 228.4hPa | 2.5V | 07:54:40 | 02:31:53 | 00:00:00 | |
| DK7TD | 2026-09-01 13:01:15 | 48.98028 | 10.44256 | 87° | 106km/h | 11330m | -4.4m/s | -53.7°C | 30.9% | 227hPa | 2.5V | 07:54:40 | 02:31:43 | 00:00:00 | |
| DK7TD | 2026-09-01 13:01:04 | 48.97993 | 10.43816 | 87° | 102km/h | 11375m | -4.2m/s | -53.9°C | 31.2% | 225.4hPa | 2.5V | 07:54:40 | 02:31:32 | 00:00:00 | |
| DB0ND-19 | 2026-09-01 13:01:00 | 48.97981 | 10.43664 | 80° | 102km/h | 11392m | -4.2m/s | -54.1°C | 25.2% | 224.8hPa | 2.5V | 00:00:00 | 00:00:00 | 00:00:00 | |
| DM0DOS-11 | 2026-09-01 13:00:59 | 48.97973 | 10.43583 | 81° | 110km/h | 11400m | -4m/s | -54.1°C | 32.7% | 224.5hPa | 2.5V | 07:54:32 | 02:31:26 | 00:00:00 | |
| DK7TD | 2026-09-01 13:00:54 | 48.97963 | 10.43421 | 84° | 99km/h | 11417m | -4.4m/s | 0°C | 0% | 224hPa | 2.6V | 07:54:40 | 02:31:22 | 00:00:00 | |
| DL1ZP-14 | 2026-09-01 13:00:54 | 48.97960 | 10.43384 | 81° | 95km/h | 11421m | -3.9m/s | -54.2°C | 25.4% | 223.8hPa | 2.5V | 00:00:00 | 00:00:00 | 00:00:00 | |
| DL9SK-14 | 2026-09-01 13:00:51 | 48.97951 | 10.43310 | 76° | 99km/h | 11429m | -4.2m/s | -54.3°C | 25.2% | 223.5hPa | 2.6V | 00:00:00 | 00:00:00 | 00:00:00 | |
| NBG1-10 | 2026-09-01 13:00:50 | 48.97945 | 10.43272 | 77° | 102km/h | 11434m | -4.2m/s | -54.3°C | 32.8% | 223.4hPa | 2.6V | 00:00:00 | 02:31:18 | 00:00:00 | |
| DM0DOS-11 | 2026-09-01 13:00:49 | 48.97933 | 10.43192 | 79° | 111km/h | 11442m | -4.1m/s | -54.4°C | 32.8% | 223.1hPa | 2.5V | 07:54:42 | 02:31:16 | 00:00:00 | |
| DL6DJ-15 | 2026-09-01 13:00:46 | 48.97926 | 10.43108 | 85° | 108km/h | 11450m | -3.8m/s | -54.4°C | 25.2% | 222.8hPa | 2.6V | 00:00:00 | 00:00:00 | 00:00:00 | |
| DK7TD | 2026-09-01 13:00:43 | 48.97922 | 10.42990 | 87° | 97km/h | 11463m | -4.5m/s | 0°C | 0% | 222.4hPa | 2.6V | 18:12:15 | 02:31:11 | 00:00:00 | |
| OE5DXL-15 | 2026-09-01 13:00:40 | 48.97912 | 10.42880 | 79° | 102km/h | 11476m | -3.9m/s | -54.6°C | 33.0% | 221.9hPa | 2.5V | 00:00:00 | 00:00:00 | 00:00:00 | |
| DJTTGO | 2026-09-01 13:00:39 | 48.97912 | 10.42880 | 79° | 100km/h | 11476m | -3.9m/s | -54.6°C | 25.4% | 221.9hPa | 2.6V | 07:55:00 | 00:00:00 | 00:00:00 | |
| DM0DOS-11 | 2026-09-01 13:00:38 | 48.97901 | 10.42801 | 78° | 110km/h | 11484m | -4m/s | -54.6°C | 32.6% | 221.6hPa | 2.6V | 07:54:52 | 02:31:06 | 00:00:00 | |
| DK7TD | 2026-09-01 13:00:33 | 48.97885 | 10.42597 | 86° | 97km/h | 11505m | -4m/s | 0°C | 0% | 0hPa | 2.6V | 18:12:15 | 02:31:01 | 00:00:00 | |
| DM0DOS-11 | 2026-09-01 13:00:33 | 48.97866 | 10.42414 | 79° | 106km/h | 11526m | -4m/s | -55°C | 33.5% | 220.2hPa | 2.5V | 07:55:02 | 02:30:56 | 00:00:00 | |
| BIOWL1-15 | 2026-09-01 13:00:25 | 48.97855 | 10.42248 | 88° | 108km/h | 11542m | -4.3m/s | -54.9°C | 0% | 0hPa | 2.5V | 18:12:15 | 02:30:52 | 00:00:00 | |
| BIOWL1-15 | 2026-09-01 13:00:13 | 48.97807 | 10.41646 | 80° | 102km/h | 11609m | -4m/s | -55.5°C | 0% | 0hPa | 2.6V | 18:12:15 | 02:30:36 | 00:00:00 | |
| BIOWL1-15 | 2026-09-01 13:00:04 | 48.97792 | 10.41401 | 88° | 95km/h | 11634m | -4.1m/s | 0°C | 0% | 0hPa | 2.5V | 18:12:15 | 02:30:30 | 00:00:00 | |
| DF3TZ-5 | 2026-09-01 13:00:04 | 48.97793 | 10.41439 | 88° | 102km/h | 11630m | -4.2m/s | -55.5°C | 27.6% | 216.6hPa | 2.6V | 00:00:00 | 00:00:00 | 00:00:00 | |
| DM0DOS-11 | 2026-09-01 13:00:03 | 48.97778 | 10.41262 | 75° | 95km/h | 11651m | -4.6m/s | -55.7°C | 35.1% | 215.9hPa | 2.6V | 07:55:32 | 02:30:26 | 00:00:00 | |
| AZAK | 2026-09-01 12:59:59 | 48.97778 | 10.41262 | 77° | 95km/h | 11651m | -4.6m/s | -55.7°C | 26.9% | 215.9hPa | 2.5V | 07:56:00 | 00:00:00 | 00:00:00 | |
| DO3MHA-12 | 2026-09-01 12:59:58 | 48.97778 | 10.41262 | 76° | 106km/h | 11651m | -4.5m/s | -55.7°C | 35.1% | 215.9hPa | 2.5V | 00:00:00 | 02:30:26 | 00:00:00 | |
| DN1GJH-1 | 2026-09-01 12:59:56 | 48.97772 | 10.41226 | 76° | 100km/h | 11656m | -4.7m/s | -55.7°C | 26.6% | 215.7hPa | 2.5V | 07:56:00 | 00:00:00 | 00:00:00 | |
| DM0DOS-11 | 2026-09-01 12:59:53 | 48.97746 | 10.40860 | 86° | 93km/h | 11695m | -4.1m/s | -55.9°C | 36.7% | 214.4hPa | 2.5V | 07:55:42 | 02:30:16 | 00:00:00 | |
| BIOWL1-15 | 2026-09-01 12:59:52 | 48.97748 | 10.41018 | 87° | 113km/h | 11677m | -4.3m/s | 0°C | 0% | 0hPa | 2.6V | 18:12:15 | 02:30:20 | 00:00:00 | |
| DL1ZP-14 | 2026-09-01 12:59:52 | 48.97747 | 10.40976 | 88° | 108km/h | 11682m | -4.4m/s | -55.8°C | 27.4% | 214.8hPa | 2.6V | 00:00:00 | 00:00:00 | 00:00:00 | |
| DL9SK-14 | 2026-09-01 12:59:49 | 48.97747 | 10.40897 | 88° | 97km/h | 11691m | -4.3m/s | -55.8°C | 28.0% | 214.6hPa | 2.5V | 00:00:00 | 00:00:00 | 00:00:00 | |
| BIOWL1-15 | 2026-09-01 12:59:40 | 48.97712 | 10.40506 | 89° | 106km/h | 11732m | -4.2m/s | 0°C | 0% | 0hPa | 2.5V | 18:12:15 | 02:30:07 | 00:00:00 | |
| OE5DXL-15 | 2026-09-01 12:59:40 | 48.97713 | 10.40547 | 87° | 102km/h | 11728m | -4.2m/s | -56.2°C | 36.2% | 213.2hPa | 2.5V | 00:00:00 | 00:00:00 | 00:00:00 | |
| DM0DOS-11 | 2026-09-01 12:59:38 | 48.97711 | 10.40466 | 88° | 100km/h | 11737m | -4.5m/s | -56.3°C | 36.5% | 213hPa | 2.5V | 07:55:52 | 02:30:06 | 00:00:00 | |
| AZAK | 2026-09-01 12:59:38 | 48.97710 | 10.40428 | 87° | 95km/h | 11741m | -4.2m/s | -56.3°C | 28.2% | 212.9hPa | 2.5V | 07:56:00 | 00:00:00 | 00:00:00 | |
| DN1GJH-1 | 2026-09-01 12:59:36 | 48.97710 | 10.40428 | 87° | 95km/h | 11741m | -4.2m/s | -56.3°C | 28.2% | 212.9hPa | 2.5V | 07:56:00 | 00:00:00 | 00:00:00 | |
| DF3TZ-5 | 2026-09-01 12:59:33 | 48.97688 | 10.40239 | 78° | 110km/h | 11762m | -4.3m/s | -56.4°C | 28.4% | 212.2hPa | 2.5V | 00:00:00 | 00:00:00 | 00:00:00 | |
| DM0DOS-11 | 2026-09-01 12:59:32 | 48.97676 | 10.40071 | 87° | 102km/h | 11779m | -4.1m/s | -56.5°C | 37.1% | 211.6hPa | 2.5V | 07:56:02 | 02:29:56 | 00:00:00 | |
| BIOWL1-15 | 2026-09-01 12:59:30 | 48.97673 | 10.39996 | 85° | 93km/h | 11787m | -4.3m/s | 0°C | 0% | 0hPa | 2.5V | 18:12:15 | 02:29:54 | 00:00:00 | |
| DO3MHA-12 | 2026-09-01 12:59:30 | 48.97675 | 10.40071 | 88° | 102km/h | 11779m | -4.0m/s | -56.4°C | 37.1% | 211.6hPa | 2.5V | 00:00:00 | 02:29:56 | 00:00:00 | |
| DJ8HS-15 | 2026-09-01 12:59:28 | 48.97674 | 10.40033 | 87° | 102km/h | 11783m | -4.1m/s | -56.4°C | 37.1% | 211.5hPa | 2.5V | 00:00:00 | 02:29:55 | 00:00:00 | |
| DO9HM | 2026-09-01 12:59:27 | 48.97673 | 10.39996 | 86° | 93km/h | 11787m | -4.3m/s | -56.5°C | 28.6% | 211.3hPa | 2.6V | 07:56:00 | 00:00:00 | 00:00:00 | |
| DK5PH-5 | 2026-09-01 12:59:23 | 48.97661 | 10.39889 | 78° | 102km/h | 11800m | -4.5m/s | -56.4°C | 36.4% | 210.8hPa | 2.6V | 00:00:00 | 02:29:51 | 00:00:00 | |
| DM0DOS-11 | 2026-09-01 12:59:22 | 48.97639 | 10.39682 | 86° | 111km/h | 11821m | -4.1m/s | -56.7°C | 37.1% | 210.2hPa | 2.6V | 07:56:12 | 02:29:46 | 00:00:00 | |
| DL1ZP-14 | 2026-09-01 12:59:20 | 48.97645 | 10.39768 | 80° | 113km/h | 11813m | -4.3m/s | -56.6°C | 27.9% | 210.5hPa | 2.5V | 00:00:00 | 00:00:00 | 00:00:00 | |
| DO3MHA-11 | 2026-09-01 12:59:19 | 48.97641 | 10.39725 | 84° | 102km/h | 11817m | -4.3m/s | -56.6°C | 36.8% | 210.2hPa | 2.6V | 00:00:00 | 02:29:47 | 00:00:00 | |
| DO3MHA-12 | 2026-09-01 12:59:18 | 48.97638 | 10.39682 | 87° | 100km/h | 11821m | -4.0m/s | -56.6°C | 37.1% | 210.2hPa | 2.5V | 00:00:00 | 02:29:46 | 00:00:00 | |
| DM7RM-13 | 2026-09-01 12:59:17 | 48.97639 | 10.39682 | 87° | 111km/h | 11821m | -4.1m/s | -56.7°C | 28.4% | 210.2hPa | 2.5V | 07:56:00 | 00:00:00 | 00:00:00 | |
| DB0UT-7 | 2026-09-01 12:59:16 | 48.97636 | 10.39599 | 89° | 102km/h | 11830m | -4.2m/s | -56.7°C | 37.3% | 209.9hPa | 2.5V | 07:56:00 | 02:29:44 | 00:00:00 | |
| DJTTGO | 2026-09-01 12:59:15 | 48.97636 | 10.39599 | 89° | 102km/h | 11830m | -4.2m/s | -56.7°C | 28.5% | 209.9hPa | 2.5V | 07:56:00 | 00:00:00 | 00:00:00 | |
| DL6DJ-15 | 2026-09-01 12:59:13 | 48.97627 | 10.39453 | 79° | 95km/h | 11847m | -4.3m/s | -56.8°C | 27.4% | 209.3hPa | 2.5V | 00:00:00 | 00:00:00 | 00:00:00 | |
| NBG1-10 | 2026-09-01 12:59:11 | 48.97623 | 10.39416 | 79° | 100km/h | 11851m | -4.3m/s | -56.9°C | 35.9% | 209.2hPa | 2.5V | 07:56:00 | 02:29:39 | 00:00:00 | |
| DM0DOS-11 | 2026-09-01 12:59:10 | 48.97608 | 10.39297 | 82° | 110km/h | 11864m | -4.1m/s | -57°C | 36.4% | 208.8hPa | 2.5V | 07:56:22 | 02:29:36 | 00:00:00 | |
| OE5DXL-15 | 2026-09-01 12:59:10 | 48.97617 | 10.39378 | 79° | 102km/h | 11856m | -4.2m/s | -56.9°C | 36.1% | 209.1hPa | 2.5V | 00:00:00 | 00:00:00 | 00:00:00 | |
| DO3MHA-12 | 2026-09-01 12:59:08 | 48.97608 | 10.39297 | 83° | 100km/h | 11864m | -4.0m/s | -56.9°C | 36.4% | 208.8hPa | 2.5V | 07:56:00 | 02:29:36 | 00:00:00 | |
| DJ8HS-15 | 2026-09-01 12:59:07 | 48.97605 | 10.39255 | 85° | 100km/h | 11868m | -4.1m/s | -57.0°C | 36.9% | 208.6hPa | 2.6V | 00:00:00 | 02:29:35 | 00:00:00 | |
| DO9HM | 2026-09-01 12:59:05 | 48.97603 | 10.39215 | 87° | 104km/h | 11872m | -4.0m/s | -57.0°C | 28.2% | 208.5hPa | 2.6V | 07:57:00 | 00:00:00 | 00:00:00 | |
| DF3TZ-5 | 2026-09-01 12:59:02 | 48.97566 | 10.38879 | 82° | 106km/h | 11911m | -4.4m/s | -57.3°C | 27.1% | 207.3hPa | 2.6V | 00:00:00 | 00:00:00 | 00:00:00 | |
| DB0NH | 2026-09-01 12:59:01 | 48.97588 | 10.39034 | 77° | 102km/h | 11894m | -4.4m/s | -57.0°C | 35.2% | 207.8hPa | 2.6V | 00:00:00 | 02:29:29 | 00:00:00 | |
| DM0DOS-11 | 2026-09-01 12:59:00 | 48.97570 | 10.38919 | 79° | 108km/h | 11906m | -4.2m/s | -57.2°C | 35.6% | 207.4hPa | 2.5V | 07:56:32 | 02:29:26 | 00:00:00 | |
| DO3MHA-11 | 2026-09-01 12:58:59 | 48.97576 | 10.38959 | 78° | 100km/h | 11902m | -4.3m/s | -57.2°C | 35.3% | 207.5hPa | 2.6V | 00:00:00 | 02:29:27 | 00:00:00 | |
| DO3MHA-12 | 2026-09-01 12:58:58 | 48.97571 | 10.38919 | 80° | 100km/h | 11906m | -4.1m/s | -57.2°C | 35.6% | 207.3hPa | 2.6V | 00:00:00 | 02:29:26 | 00:00:00 | |
| AZAK | 2026-09-01 12:58:57 | 48.97563 | 10.38838 | 86° | 106km/h | 11915m | -4.2m/s | -57.2°C | 27.6% | 207.2hPa | 2.6V | 07:57:00 | 00:00:00 | 00:00:00 | |
| DM7RM-13 | 2026-09-01 12:58:56 | 48.97561 | 10.38798 | 87° | 102km/h | 11919m | -4.2m/s | -57.2°C | 28.2% | 207.0hPa | 2.6V | 07:57:00 | 00:00:00 | 00:00:00 | |
| DK5PH-5 | 2026-09-01 12:58:53 | 48.97558 | 10.38722 | 86° | 102km/h | 11928m | -4.5m/s | -57.2°C | 37.3% | 206.7hPa | 2.6V | 00:00:00 | 02:29:21 | 00:00:00 | |
| DM0DOS-11 | 2026-09-01 12:58:50 | 48.97535 | 10.38537 | 77° | 110km/h | 11949m | -4.5m/s | -57.5°C | 35.9% | 206hPa | 2.6V | 07:56:42 | 02:29:16 | 00:00:00 | |
| DO3MHA-11 | 2026-09-01 12:58:49 | 48.97540 | 10.38577 | 77° | 102km/h | 11945m | -4.1m/s | -57.5°C | 36.2% | 206.1hPa | 2.6V | 00:00:00 | 02:29:17 | 00:00:00 | |
| DO3MHA-12 | 2026-09-01 12:58:48 | 48.97534 | 10.38537 | 78° | 102km/h | 11949m | -4.4m/s | -57.5°C | 35.9% | 205.9hPa | 2.5V | 00:00:00 | 02:29:16 | 00:00:00 | |
| DJ8HS-15 | 2026-09-01 12:58:47 | 48.97529 | 10.38495 | 81° | 102km/h | 11954m | -4.6m/s | -57.5°C | 35.8% | 205.8hPa | 2.5V | 00:00:00 | 02:29:15 | 00:00:00 | |
| DB0UT-7 | 2026-09-01 12:58:46 | 48.97525 | 10.38453 | 83° | 104km/h | 11959m | -4.3m/s | -57.5°C | 35.6% | 205.6hPa | 2.5V | 00:00:00 | 00:00:00 | 00:00:00 | |
| DO9HM | 2026-09-01 12:58:44 | 48.97522 | 10.38410 | 86° | 110km/h | 11963m | -4.5m/s | -57.5°C | 26.9% | 205.6hPa | 2.5V | 07:57:00 | 00:00:00 | 00:00:00 | |
| DL6DJ-15 | 2026-09-01 12:58:42 | 48.97515 | 10.38257 | 83° | 91km/h | 11980m | -4.6m/s | -57.3°C | 25.6% | 205.0hPa | 2.5V | 00:00:00 | 00:00:00 | 00:00:00 | |
| DM0DOS-11 | 2026-09-01 12:58:40 | 48.97502 | 10.38149 | 76° | 102km/h | 11994m | -4.4m/s | -57.4°C | 33.6% | 204.5hPa | 2.5V | 07:56:52 | 02:29:06 | 00:00:00 | |
| OE5DXL-15 | 2026-09-01 12:58:40 | 48.97512 | 10.38222 | 80° | 100km/h | 11985m | -4.5m/s | -57.3°C | 33.7% | 204.8hPa | 2.5V | 00:00:00 | 00:00:00 | 00:00:00 | |
| DO3MHA-11 | 2026-09-01 12:58:39 | 48.97507 | 10.38186 | 78° | 104km/h | 11990m | -4.4m/s | -57.3°C | 33.6% | 204.6hPa | 2.5V | 00:00:00 | 02:29:07 | 00:00:00 | |
| NBG1-10 | 2026-09-01 12:58:38 | 48.97502 | 10.38149 | 77° | 100km/h | 11994m | -4.3m/s | -57.3°C | 33.6% | 204.5hPa | 2.5V | 00:00:00 | 02:29:06 | 00:00:00 | |
| AZAK | 2026-09-01 12:58:36 | 48.97491 | 10.38068 | 82° | 111km/h | 12003m | -4.5m/s | -57.3°C | 25.1% | 204.3hPa | 2.5V | 07:57:00 | 00:00:00 | 00:00:00 | |
| DN1GJH-1 | 2026-09-01 12:58:35 | 48.97491 | 10.38068 | 82° | 111km/h | 12003m | -4.5m/s | -57.3°C | 25.1% | 204.3hPa | 2.5V | 07:57:00 | 00:00:00 | 00:00:00 | |
| DM7RM-13 | 2026-09-01 12:58:33 | 48.97484 | 10.37982 | 88° | 111km/h | 12012m | -4.5m/s | -57.1°C | 25.2% | 204.0hPa | 2.5V | 07:57:00 | 00:00:00 | 00:00:00 | |
| DB0NH | 2026-09-01 12:58:31 | 48.97483 | 10.37862 | 91° | 99km/h | 12026m | -4.7m/s | -57.1°C | 34.1% | 203.4hPa | 2.5V | 00:00:00 | 02:28:59 | 00:00:00 | |
| DM0DOS-11 | 2026-09-01 12:58:30 | 48.97480 | 10.37756 | 82° | 91km/h | 12040m | -4.6m/s | -57.3°C | 34% | 203hPa | 2.5V | 07:57:02 | 02:28:56 | 00:00:00 | |
| DO3MHA-11 | 2026-09-01 12:58:29 | 48.97482 | 10.37791 | 87° | 104km/h | 12035m | -4.7m/s | -57.2°C | 33.8% | 203.1hPa | 2.5V | 00:00:00 | 02:28:57 | 00:00:00 | |
| DO3MHA-12 | 2026-09-01 12:58:28 | 48.97480 | 10.37756 | 83° | 104km/h | 12040m | -4.6m/s | -57.3°C | 34.0% | 203.0hPa | 2.5V | 00:00:00 | 02:28:56 | 00:00:00 | |
| DJ8HS-15 | 2026-09-01 12:58:27 | 48.97477 | 10.37721 | 81° | 100km/h | 12044m | -4.3m/s | -57.4°C | 34.2% | 202.8hPa | 2.5V | 00:00:00 | 02:28:55 | 00:00:00 | |
| DO9HM | 2026-09-01 12:58:24 | 48.97467 | 10.37644 | 81° | 108km/h | 12053m | -3.9m/s | -57.5°C | 25.9% | 202.7hPa | 2.6V | 07:57:00 | 00:00:00 | 00:00:00 | |
| DK5PH-5 | 2026-09-01 12:58:23 | 48.97460 | 10.37560 | 85° | 99km/h | 12061m | -4.5m/s | -57.3°C | 34.2% | 202.3hPa | 2.6V | 00:00:00 | 02:28:51 | 00:00:00 | |
| DM0DOS-11 | 2026-09-01 12:58:20 | 48.97458 | 10.37359 | 90° | 93km/h | 12084m | -4.6m/s | -57.5°C | 34% | 201.7hPa | 2.6V | 07:57:12 | 02:28:46 | 00:00:00 | |
| DO3MHA-11 | 2026-09-01 12:58:19 | 48.97458 | 10.37395 | 92° | 97km/h | 12080m | -4.6m/s | -57.4°C | 34.3% | 201.7hPa | 2.6V | 07:57:00 | 02:28:47 | 00:00:00 | |
| DO3MHA-12 | 2026-09-01 12:58:18 | 48.97458 | 10.37359 | 91° | 97km/h | 12084m | -4.5m/s | -57.4°C | 34.0% | 201.6hPa | 2.5V | 00:00:00 | 02:28:46 | 00:00:00 | |
| AZAK | 2026-09-01 12:58:16 | 48.97457 | 10.37290 | 86° | 88km/h | 12094m | -4.7m/s | -57.6°C | 25.2% | 201.3hPa | 2.5V | 07:58:00 | 00:00:00 | 00:00:00 | |
| DN1GJH-1 | 2026-09-01 12:58:14 | 48.97454 | 10.37256 | 83° | 89km/h | 12098m | -4.9m/s | -57.6°C | 25.2% | 201.2hPa | 2.5V | 07:58:00 | 00:00:00 | 00:00:00 | |
| DM7RM-13 | 2026-09-01 12:58:12 | 48.97445 | 10.37186 | 80° | 97km/h | 12108m | -4.4m/s | -57.7°C | 25.3% | 200.9hPa | 2.5V | 07:58:00 | 00:00:00 | 00:00:00 | |
| DM0DOS-11 | 2026-09-01 12:58:11 | 48.97427 | 10.36991 | 85° | 99km/h | 12129m | -4.2m/s | -57.5°C | 34.1% | 200.2hPa | 2.5V | 07:57:22 | 02:28:36 | 00:00:00 | |
| DL6DJ-15 | 2026-09-01 12:58:11 | 48.97432 | 10.37069 | 83° | 106km/h | 12121m | -4.2m/s | -57.5°C | 25.2% | 200.4hPa | 2.5V | 00:00:00 | 00:00:00 | 00:00:00 | |
| OE5DXL-15 | 2026-09-01 12:58:10 | 48.97432 | 10.37069 | 84° | 99km/h | 12121m | -4.1m/s | -57.5°C | 33.6% | 200.4hPa | 2.5V | 00:00:00 | 00:00:00 | 00:00:00 | |
| DO3MHA-11 | 2026-09-01 12:58:09 | 48.97430 | 10.37029 | 85° | 97km/h | 12125m | -4.0m/s | -57.4°C | 33.7% | 200.3hPa | 2.5V | 00:00:00 | 02:28:37 | 00:00:00 | |
| DO3MHA-12 | 2026-09-01 12:58:08 | 48.97427 | 10.36990 | 86° | 97km/h | 12129m | -4.2m/s | -57.5°C | 34.1% | 200.2hPa | 2.5V | 00:00:00 | 02:28:36 | 00:00:00 | |
| DJ8HS-15 | 2026-09-01 12:58:07 | 48.97425 | 10.36954 | 86° | 99km/h | 12133m | -4.5m/s | -57.4°C | 34.0% | 200.0hPa | 2.5V | 00:00:00 | 02:28:35 | 00:00:00 | |
| NBG1-10 | 2026-09-01 12:58:05 | 48.97420 | 10.36885 | 81° | 99km/h | 12142m | -4.5m/s | -57.5°C | 33.6% | 199.7hPa | 2.5V | 00:00:00 | 02:28:33 | 00:00:00 | |
| DO9HM | 2026-09-01 12:58:03 | 48.97416 | 10.36851 | 79° | 91km/h | 12147m | -4.7m/s | -57.6°C | 25.1% | 199.6hPa | 2.5V | 07:58:00 | 00:00:00 | 00:00:00 | |
| DB0NH | 2026-09-01 12:58:01 | 48.97401 | 10.36741 | 81° | 99km/h | 12161m | -4.4m/s | -57.8°C | 34.1% | 199.2hPa | 2.5V | 00:00:00 | 02:28:29 | 00:00:00 | |
| DM0DOS-11 | 2026-09-01 12:58:00 | 48.97392 | 10.36626 | 84° | 97km/h | 12174m | -4.6m/s | -57.8°C | 33.9% | 198.8hPa | 2.5V | 07:57:32 | 02:28:26 | 00:00:00 | |
| DF3TZ-5 | 2026-09-01 12:57:59 | 48.97377 | 10.36481 | 78° | 99km/h | 12193m | -4.6m/s | -58.1°C | 24.6% | 198.2hPa | 2.6V | 00:00:00 | 00:00:00 | 00:00:00 | |
| DB0ND-19 | 2026-09-01 12:57:54 | 48.97372 | 10.36443 | 79° | 104km/h | 12197m | -4.5m/s | -58.1°C | 24.5% | 198.1hPa | 2.6V | 00:00:00 | 00:00:00 | 00:00:00 | |
| DK5PH-5 | 2026-09-01 12:57:53 | 48.97372 | 10.36443 | 80° | 99km/h | 12197m | -4.4m/s | -58.1°C | 32.9% | 198.0hPa | 2.6V | 07:57:00 | 02:28:21 | 00:00:00 | |
| DM0DOS-11 | 2026-09-01 12:57:52 | 48.97358 | 10.36246 | 85° | 95km/h | 12220m | -4.5m/s | -58.2°C | 33.8% | 197.4hPa | 2.6V | 07:57:42 | 02:28:16 | 00:00:00 | |
| DL1ZP-14 | 2026-09-01 12:57:47 | 48.97352 | 10.36175 | 79° | 91km/h | 12229m | -4.5m/s | -58.3°C | 24.8% | 197.1hPa | 2.6V | 00:00:00 | 00:00:00 | 00:00:00 | |
| DL9SK-14 | 2026-09-01 12:57:45 | 48.97341 | 10.36103 | 76° | 100km/h | 12238m | -4.5m/s | -58.5°C | 24.8% | 196.8hPa | 2.6V | 00:00:00 | 00:00:00 | 00:00:00 | |
| DK7TD | 2026-09-01 12:57:41 | 48.97327 | 10.35981 | 84° | 110km/h | 12252m | -4.5m/s | -58.4°C | 31.4% | 196.3hPa | 2.6V | 08:01:28 | 02:28:09 | 00:00:00 | |
| OE5DXL-15 | 2026-09-01 12:57:40 | 48.97324 | 10.35940 | 87° | 99km/h | 12257m | -4.5m/s | -58.4°C | 33.9% | 196.2hPa | 2.5V | 07:57:00 | 00:00:00 | 00:00:00 | |
| DM0DOS-11 | 2026-09-01 12:57:39 | 48.97322 | 10.35863 | 87° | 95km/h | 12265m | -4.5m/s | -58.5°C | 33.6% | 195.9hPa | 2.5V | 07:57:52 | 02:28:06 | 00:00:00 | |
| DO3MHA-11 | 2026-09-01 12:57:39 | 48.97323 | 10.35901 | 88° | 99km/h | 12261m | -4.5m/s | -58.5°C | 33.8% | 196.0hPa | 2.5V | 00:00:00 | 02:28:07 | 00:00:00 | |
| DO3MHA-12 | 2026-09-01 12:57:38 | 48.97322 | 10.35863 | 88° | 99km/h | 12265m | -4.4m/s | -58.5°C | 33.6% | 195.9hPa | 2.5V | 00:00:00 | 02:28:06 | 00:00:00 | |
| AZAK | 2026-09-01 12:57:33 | 48.97309 | 10.35723 | 78° | 95km/h | 12284m | -4.6m/s | -58.8°C | 23.7% | 195.3hPa | 2.5V | 07:58:00 | 00:00:00 | 00:00:00 | |
| NBG1-10 | 2026-09-01 12:57:32 | 48.97298 | 10.35648 | 79° | 100km/h | 12293m | -4.7m/s | -58.8°C | 32.3% | 195.0hPa | 2.5V | 00:00:00 | 02:28:00 | 00:00:00 | |
| DM0DOS-11 | 2026-09-01 12:57:31 | 48.97287 | 10.35490 | 88° | 97km/h | 12311m | -4.5m/s | -58.9°C | 33.5% | 194.5hPa | 2.6V | 07:58:02 | 02:27:56 | 00:00:00 | |
| DK7TD | 2026-09-01 12:57:29 | 48.97289 | 10.35528 | 87° | 102km/h | 12307m | -4.4m/s | -58.9°C | 30.1% | 194.6hPa | 2.6V | 08:01:28 | 02:27:57 | 00:00:00 | |
| DO3MHA-11 | 2026-09-01 12:57:29 | 48.97288 | 10.35528 | 88° | 99km/h | 12307m | -4.4m/s | -58.9°C | 33.2% | 194.6hPa | 2.6V | 00:00:00 | 02:27:57 | 00:00:00 | |
| DO3MHA-12 | 2026-09-01 12:57:28 | 48.97288 | 10.35490 | 89° | 99km/h | 12311m | -4.4m/s | -58.9°C | 33.5% | 194.5hPa | 2.6V | 00:00:00 | 02:27:56 | 00:00:00 | |
| DJ8HS-15 | 2026-09-01 12:57:27 | 48.97286 | 10.35454 | 87° | 100km/h | 12316m | -4.6m/s | -58.9°C | 33.4% | 194.3hPa | 2.6V | 00:00:00 | 02:27:55 | 00:00:00 | |
| DO9HM | 2026-09-01 12:57:23 | 48.97271 | 10.35316 | 77° | 99km/h | 12334m | -4.4m/s | -59.2°C | 23.8% | 193.8hPa | 2.5V | 07:58:00 | 00:00:00 | 00:00:00 | |
| DM0DOS-11 | 2026-09-01 12:57:21 | 48.97248 | 10.35112 | 86° | 110km/h | 12357m | -4.7m/s | -59.1°C | 32.3% | 193.1hPa | 2.5V | 07:58:12 | 02:27:46 | 00:00:00 | |
| DO3MHA-11 | 2026-09-01 12:57:19 | 48.97250 | 10.35154 | 84° | 100km/h | 12352m | -4.7m/s | -59.1°C | 32.5% | 193.2hPa | 2.5V | 00:00:00 | 02:27:47 | 00:00:00 | |
| DO3MHA-12 | 2026-09-01 12:57:18 | 48.97248 | 10.35112 | 87° | 99km/h | 12357m | -4.7m/s | -59.1°C | 32.3% | 193.0hPa | 2.6V | 00:00:00 | 02:27:46 | 00:00:00 | |
| DB0UT-7 | 2026-09-01 12:57:16 | 48.97246 | 10.35030 | 90° | 95km/h | 12367m | -4.7m/s | -59.1°C | 31.8% | 192.7hPa | 2.6V | 00:00:00 | 02:27:44 | 00:00:00 | |
| DL9SK-14 | 2026-09-01 12:57:15 | 48.97243 | 10.34922 | 83° | 89km/h | 12380m | -4.6m/s | -59.3°C | 22.6% | 192.3hPa | 2.6V | 00:00:00 | 00:00:00 | 00:00:00 | |
| DN1GJH-1 | 2026-09-01 12:57:12 | 48.97243 | 10.34922 | 84° | 89km/h | 12380m | -4.6m/s | -59.3°C | 22.7% | 192.4hPa | 2.6V | 07:58:00 | 00:00:00 | 00:00:00 | |
| DM0DOS-11 | 2026-09-01 12:57:10 | 48.97219 | 10.34735 | 81° | 110km/h | 12404m | -4.7m/s | -58.9°C | 28.9% | 191.7hPa | 2.6V | 07:58:22 | 02:27:36 | 00:00:00 | |
| OE5DXL-15 | 2026-09-01 12:57:10 | 48.97229 | 10.34815 | 78° | 95km/h | 12394m | -4.7m/s | -59.1°C | 29.9% | 191.9hPa | 2.6V | 00:00:00 | 00:00:00 | 00:00:00 | |
| DO3MHA-11 | 2026-09-01 12:57:09 | 48.97224 | 10.34776 | 79° | 99km/h | 12399m | -4.6m/s | -59.0°C | 29.4% | 191.7hPa | 2.6V | 00:00:00 | 02:27:37 | 00:00:00 | |
| DO3MHA-12 | 2026-09-01 12:57:08 | 48.97219 | 10.34735 | 82° | 99km/h | 12404m | -4.6m/s | -58.8°C | 28.9% | 191.6hPa | 2.6V | 00:00:00 | 02:27:36 | 00:00:00 | |
| DJ8HS-15 | 2026-09-01 12:57:07 | 48.97216 | 10.34693 | 86° | 95km/h | 12408m | -4.5m/s | -58.7°C | 28.3% | 191.5hPa | 2.5V | 07:58:00 | 02:27:35 | 00:00:00 | |
| DM0DOS-11 | 2026-09-01 12:57:04 | 48.97193 | 10.34363 | 75° | 102km/h | 12451m | -4.9m/s | -58.4°C | 26.2% | 190.2hPa | 2.5V | 07:58:32 | 02:27:26 | 00:00:00 | |
| DO9HM | 2026-09-01 12:57:02 | 48.97212 | 10.34504 | 86° | 88km/h | 12432m | -5.0m/s | -58.1°C | 19.4% | 190.8hPa | 2.6V | 07:58:00 | 00:00:00 | 00:00:00 | |
| DB0NH | 2026-09-01 12:57:01 | 48.97209 | 10.34470 | 81° | 91km/h | 12437m | -4.8m/s | -58.1°C | 26.7% | 190.6hPa | 2.6V | 00:00:00 | 02:27:29 | 00:00:00 | |
| NBG1-10 | 2026-09-01 12:56:59 | 48.97199 | 10.34401 | 76° | 91km/h | 12446m | -4.5m/s | -58.3°C | 26.2% | 190.4hPa | 2.6V | 00:00:00 | 02:27:27 | 00:00:00 | |
| DO3MHA-12 | 2026-09-01 12:56:58 | 48.97193 | 10.34363 | 76° | 97km/h | 12451m | -4.9m/s | -58.3°C | 26.2% | 190.1hPa | 2.6V | 00:00:00 | 02:27:26 | 00:00:00 | |
| AZAK | 2026-09-01 12:56:53 | 48.97177 | 10.34165 | 92° | 97km/h | 12475m | -4.8m/s | -58.4°C | 0% | 0hPa | 2.6V | 07:58:00 | 00:00:00 | 00:00:00 | |
| DM0DOS-11 | 2026-09-01 12:56:52 | 48.97174 | 10.34002 | 81° | 78km/h | 12500m | -5.1m/s | -58.7°C | 24.7% | 188.7hPa | 2.6V | 07:58:42 | 02:27:16 | 00:00:00 | |
| DK7TD | 2026-09-01 12:56:44 | 48.97154 | 10.33875 | 75° | 93km/h | 12519m | -5m/s | -58.8°C | 22.7% | 188.1hPa | 2.5V | 08:01:28 | 02:27:12 | 00:00:00 | |
| BIOWL1-15 | 2026-09-01 12:56:40 | 48.97135 | 10.33666 | 85° | 82km/h | 12547m | -4.7m/s | 0°C | 0% | 0hPa | 2.5V | 18:12:15 | 02:27:06 | 00:00:00 | |
| DK7TD | 2026-09-01 12:56:33 | 48.97115 | 10.33506 | 78° | 93km/h | 12571m | -4.5m/s | -59°C | 20.7% | 186.6hPa | 2.6V | 08:01:28 | 02:27:01 | 00:00:00 | |
| DK7TD | 2026-09-01 12:56:22 | 48.97064 | 10.33117 | 83° | 99km/h | 12623m | -4.9m/s | -58.2°C | 17.9% | 185.1hPa | 2.5V | 08:01:28 | 02:26:50 | 00:00:00 | |
| DK7TD | 2026-09-01 12:56:12 | 48.97032 | 10.32757 | 83° | 102km/h | 12670m | -4.8m/s | -58.5°C | 16.3% | 183.7hPa | 2.6V | 08:01:28 | 02:26:40 | 00:00:00 | |
| DM0DOS-11 | 2026-09-01 12:56:12 | 48.97017 | 10.32609 | 76° | 97km/h | 12689m | -4.7m/s | -58.8°C | 17.6% | 183.1hPa | 2.5V | 07:59:22 | 02:26:36 | 00:00:00 | |
| DK7TD | 2026-09-01 12:56:02 | 48.96989 | 10.32369 | 87° | 102km/h | 12718m | -4.8m/s | -58.5°C | 14% | 182.3hPa | 2.5V | 08:01:28 | 02:26:30 | 00:00:00 | |
| DM0DOS-11 | 2026-09-01 12:56:01 | 48.96981 | 10.32226 | 79° | 88km/h | 12737m | -5m/s | -58.2°C | 16.7% | 181.7hPa | 2.6V | 07:59:32 | 02:26:26 | 00:00:00 | |
| DK7TD | 2026-09-01 12:55:51 | 48.96935 | 10.31914 | 85° | 111km/h | 12777m | -5.4m/s | -57.4°C | 11% | 180.6hPa | 2.5V | 08:01:28 | 02:26:18 | 00:00:00 | |
| DM0DOS-11 | 2026-09-01 12:55:50 | 48.96931 | 10.31832 | 88° | 100km/h | 12787m | -5.1m/s | -57.4°C | 13.3% | 180.3hPa | 2.5V | 07:59:42 | 02:26:16 | 00:00:00 | |
| DB0ND-19 | 2026-09-01 12:55:50 | 48.96933 | 10.31872 | 87° | 106km/h | 12782m | -5.2m/s | -57.3°C | 8.3% | 180.4hPa | 2.5V | 00:00:00 | 00:00:00 | 00:00:00 | |
| DO3MHA-11 | 2026-09-01 12:55:49 | 48.96932 | 10.31872 | 88° | 99km/h | 12782m | -5.2m/s | -57.3°C | 13.4% | 180.4hPa | 2.5V | 00:00:00 | 02:26:17 | 00:00:00 | |
| DO3MHA-12 | 2026-09-01 12:55:48 | 48.96932 | 10.31832 | 89° | 99km/h | 12787m | -5.0m/s | -57.3°C | 13.3% | 180.3hPa | 2.6V | 00:00:00 | 02:26:16 | 00:00:00 | |
| DJ8HS-15 | 2026-09-01 12:55:47 | 48.96930 | 10.31795 | 88° | 97km/h | 12792m | -4.9m/s | -57.3°C | 13.3% | 180.1hPa | 2.6V | 00:00:00 | 02:26:15 | 00:00:00 | |
| DB0UT-7 | 2026-09-01 12:55:46 | 48.96929 | 10.31759 | 86° | 95km/h | 12797m | -5.1m/s | -57.0°C | 12.9% | 180.0hPa | 2.6V | 00:00:00 | 00:00:00 | 00:00:00 | |
| DL1ZP-14 | 2026-09-01 12:55:43 | 48.96919 | 10.31656 | 77° | 95km/h | 12812m | -4.7m/s | -57.0°C | 7.7% | 179.6hPa | 2.5V | 00:00:00 | 00:00:00 | 00:00:00 | |
| DL9SK-14 | 2026-09-01 12:55:41 | 48.96905 | 10.31540 | 82° | 106km/h | 12826m | -4.7m/s | -56.9°C | 7.4% | 179.2hPa | 2.6V | 00:00:00 | 00:00:00 | 00:00:00 | |
| DM0DOS-11 | 2026-09-01 12:55:40 | 48.96899 | 10.31461 | 85° | 102km/h | 12836m | -4.8m/s | -56.9°C | 11.9% | 178.9hPa | 2.6V | 07:59:52 | 02:26:06 | 00:00:00 | |
| DK7TD | 2026-09-01 12:55:40 | 48.96905 | 10.31540 | 82° | 106km/h | 12826m | -4.7m/s | -56.9°C | 9.5% | 179.2hPa | 2.5V | 08:01:28 | 02:26:08 | 00:00:00 | |
| OE5DXL-15 | 2026-09-01 12:55:40 | 48.96905 | 10.31540 | 83° | 97km/h | 12827m | -4.6m/s | -56.9°C | 12.1% | 179.1hPa | 2.6V | 00:00:00 | 00:00:00 | 00:00:00 | |
| DO3MHA-11 | 2026-09-01 12:55:39 | 48.96902 | 10.31500 | 85° | 95km/h | 12831m | -5.0m/s | -56.9°C | 12.0% | 179.0hPa | 2.6V | 07:59:00 | 02:26:07 | 00:00:00 | |
| DO3MHA-12 | 2026-09-01 12:55:38 | 48.96899 | 10.31461 | 86° | 95km/h | 12836m | -4.8m/s | -56.8°C | 11.9% | 178.9hPa | 2.6V | 00:00:00 | 02:26:06 | 00:00:00 | |
| DL6DJ-15 | 2026-09-01 12:55:35 | 48.96892 | 10.31353 | 81° | 88km/h | 12850m | -4.6m/s | -56.6°C | 6.8% | 178.6hPa | 2.5V | 00:00:00 | 00:00:00 | 00:00:00 | |
| DB0NH | 2026-09-01 12:55:31 | 48.96874 | 10.31214 | 80° | 93km/h | 12870m | -4.6m/s | -56.3°C | 11.1% | 178.0hPa | 2.5V | 07:59:00 | 02:25:59 | 00:00:00 | |
| DM0DOS-11 | 2026-09-01 12:55:30 | 48.96866 | 10.31099 | 87° | 99km/h | 12883m | -5m/s | -56.2°C | 10.9% | 177.6hPa | 2.5V | 08:00:02 | 02:25:56 | 00:00:00 | |
| DK7TD | 2026-09-01 12:55:23 | 48.96857 | 10.30914 | 85° | 99km/h | 12908m | -5.4m/s | -56°C | 7.8% | 176.9hPa | 2.6V | 08:01:28 | 02:25:51 | 00:00:00 | |
| DM0DOS-11 | 2026-09-01 12:55:20 | 48.96850 | 10.30737 | 82° | 88km/h | 12934m | -5.3m/s | -55.9°C | 9.4% | 176.1hPa | 2.6V | 08:00:12 | 02:25:46 | 00:00:00 | |
| DB0ND-19 | 2026-09-01 12:55:19 | 48.96850 | 10.30737 | 82° | 86km/h | 12935m | -5.3m/s | -55.9°C | 5.4% | 176.2hPa | 2.5V | 00:00:00 | 00:00:00 | 00:00:00 | |
| DO3MHA-12 | 2026-09-01 12:55:18 | 48.96850 | 10.30737 | 83° | 93km/h | 12935m | -5.3m/s | -55.8°C | 9.4% | 176.1hPa | 2.5V | 00:00:00 | 02:25:46 | 00:00:00 | |
| DJTTGO | 2026-09-01 12:55:17 | 48.96850 | 10.30737 | 84° | 88km/h | 12935m | -5.3m/s | -55.9°C | 5.4% | 176.1hPa | 2.5V | 00:00:00 | 00:00:00 | 00:00:00 | |
| DB0UT-7 | 2026-09-01 12:55:16 | 48.96843 | 10.30669 | 81° | 93km/h | 12945m | -5.4m/s | -55.8°C | 9.0% | 175.9hPa | 2.5V | 00:00:00 | 02:25:44 | 00:00:00 | |
| SONCRA | 2026-09-01 12:55:13 | 48.96834 | 10.30516 | 91° | 99km/h | 12966m | -4.8m/s | -55.6°C | 5.0% | 175.3hPa | 2.5V | 00:00:00 | 00:00:00 | 00:00:00 | |
| DL1ZP-14 | 2026-09-01 12:55:12 | 48.96834 | 10.30516 | 91° | 99km/h | 12966m | -4.8m/s | -55.6°C | 5.0% | 175.3hPa | 2.5V | 00:00:00 | 00:00:00 | 00:00:00 | |
| DM0DOS-11 | 2026-09-01 12:55:10 | 48.96838 | 10.30382 | 87° | 77km/h | 12986m | -5m/s | -55.3°C | 8.6% | 174.7hPa | 2.5V | 08:00:22 | 02:25:36 | 00:00:00 | |
| OE5DXL-15 | 2026-09-01 12:55:10 | 48.96837 | 10.30445 | 94° | 95km/h | 12976m | -5.3m/s | -55.4°C | 9.0% | 175.0hPa | 2.5V | 00:00:00 | 00:00:00 | 00:00:00 | |
| DO3MHA-11 | 2026-09-01 12:55:09 | 48.96838 | 10.30413 | 92° | 88km/h | 12981m | -5.2m/s | -55.3°C | 8.7% | 174.8hPa | 2.5V | 00:00:00 | 02:25:37 | 00:00:00 | |
| DO3MHA-12 | 2026-09-01 12:55:08 | 48.96838 | 10.30382 | 88° | 91km/h | 12986m | -4.9m/s | -55.3°C | 8.6% | 174.7hPa | 2.5V | 08:00:00 | 02:25:36 | 00:00:00 | |
| DJ8HS-15 | 2026-09-01 12:55:07 | 48.96836 | 10.30353 | 84° | 93km/h | 12991m | -5.1m/s | -55.2°C | 8.4% | 174.5hPa | 2.5V | 00:00:00 | 02:25:35 | 00:00:00 | |
| DM7RM-13 | 2026-09-01 12:55:05 | 48.96833 | 10.30323 | 80° | 78km/h | 12997m | -5.6m/s | -55.3°C | 4.5% | 174.4hPa | 2.5V | 08:00:00 | 00:00:00 | 00:00:00 | |
| DL6DJ-15 | 2026-09-01 12:55:04 | 48.96824 | 10.30262 | 74° | 86km/h | 13008m | -5.8m/s | -55.3°C | 4.2% | 174.2hPa | 2.5V | 00:00:00 | 00:00:00 | 00:00:00 | |
| DB0NH | 2026-09-01 12:55:01 | 48.96804 | 10.30156 | 77° | 99km/h | 13025m | -5.6m/s | -55.5°C | 7.7% | 173.6hPa | 2.5V | 00:00:00 | 02:25:29 | 00:00:00 | |
| DM0DOS-11 | 2026-09-01 12:55:00 | 48.96791 | 10.30037 | 84° | 106km/h | 13041m | -5.3m/s | -55.7°C | 7.8% | 173.2hPa | 2.5V | 08:00:32 | 02:25:26 | 00:00:00 | |
| DK7TD | 2026-09-01 12:54:58 | 48.96791 | 10.30037 | 85° | 106km/h | 13041m | -5.3m/s | -55.7°C | 4.8% | 173.2hPa | 2.5V | 08:01:28 | 02:25:26 | 00:00:00 | |
| DF3TZ-5 | 2026-09-01 12:54:53 | 48.96787 | 10.29855 | 84° | 80km/h | 13066m | -4.8m/s | -55.4°C | 3.8% | 172.6hPa | 2.6V | 00:00:00 | 00:00:00 | 00:00:00 | |
| DM0DOS-11 | 2026-09-01 12:54:50 | 48.96758 | 10.29692 | 71° | 102km/h | 13093m | -5.8m/s | -55.5°C | 6.8% | 171.9hPa | 2.6V | 08:00:42 | 02:25:16 | 00:00:00 | |
| DK7TD | 2026-09-01 12:54:45 | 48.96737 | 10.29572 | 80° | 111km/h | 13109m | -5.1m/s | -55.6°C | 3.3% | 171.4hPa | 2.5V | 08:01:28 | 02:25:13 | 00:00:00 | |
| DM7RM-13 | 2026-09-01 12:54:44 | 48.96737 | 10.29572 | 81° | 111km/h | 13109m | -5.1m/s | -55.6°C | 3.2% | 171.4hPa | 2.6V | 08:01:00 | 00:00:00 | 00:00:00 | |
| DL1ZP-14 | 2026-09-01 12:54:41 | 48.96728 | 10.29412 | 86° | 95km/h | 13130m | -5.4m/s | -55.2°C | 2.9% | 170.9hPa | 2.6V | 00:00:00 | 00:00:00 | 00:00:00 | |
| DM0DOS-11 | 2026-09-01 12:54:40 | 48.96716 | 10.29310 | 74° | 89km/h | 13145m | -4.9m/s | -54.8°C | 5.9% | 170.5hPa | 2.5V | 08:00:52 | 02:25:06 | 00:00:00 | |
| DK7TD | 2026-09-01 12:54:34 | 48.96684 | 10.29164 | 73° | 110km/h | 13166m | -5.6m/s | -54.3°C | 2.1% | 169.8hPa | 2.6V | 08:01:28 | 02:25:02 | 00:00:00 | |
| DK7TD | 2026-09-01 12:54:24 | 48.96642 | 10.28789 | 75° | 95km/h | 13219m | -5.2m/s | -54°C | 1.9% | 168.5hPa | 2.5V | 08:01:28 | 02:24:52 | 00:00:00 | |
| DK7TD | 2026-09-01 12:54:14 | 48.96603 | 10.28422 | 77° | 93km/h | 13270m | -5.4m/s | -54.1°C | 1.9% | 167.2hPa | 2.6V | 08:01:28 | 02:24:42 | 00:00:00 | |
| DK7TD | 2026-09-01 12:54:03 | 48.96568 | 10.28008 | 82° | 106km/h | 13328m | -5.3m/s | -54.5°C | 1.9% | 165.7hPa | 2.5V | 08:01:28 | 02:24:31 | 00:00:00 | |
| DK7TD | 2026-09-01 12:53:53 | 48.96546 | 10.27634 | 84° | 100km/h | 13380m | -5.2m/s | -54.5°C | 1.9% | 164.4hPa | 2.6V | 18:12:15 | 02:24:21 | 00:00:00 | |
| DF3TZ-5 | 2026-09-01 12:53:51 | 48.96544 | 10.27556 | 90° | 99km/h | 13391m | -5.1m/s | -54.4°C | 2.2% | 164.1hPa | 2.5V | 00:00:00 | 00:00:00 | 00:00:00 | |
| DO3MHA-11 | 2026-09-01 12:53:49 | 48.96545 | 10.27484 | 92° | 93km/h | 13402m | -5.4m/s | -54.1°C | 5.3% | 163.7hPa | 2.5V | 00:00:00 | 02:24:17 | 00:00:00 | |
| DO3MHA-12 | 2026-09-01 12:53:48 | 48.96545 | 10.27451 | 90° | 93km/h | 13407m | -5.3m/s | -54.0°C | 5.3% | 163.6hPa | 2.5V | 00:00:00 | 02:24:16 | 00:00:00 | |
| DJ8HS-15 | 2026-09-01 12:53:47 | 48.96544 | 10.27420 | 86° | 91km/h | 13413m | -5.3m/s | -54.0°C | 5.2% | 163.4hPa | 2.5V | 00:00:00 | 02:24:15 | 00:00:00 | |
| DB0UT-7 | 2026-09-01 12:53:46 | 48.96542 | 10.27390 | 81° | 93km/h | 13418m | -5.3m/s | -54.0°C | 5.2% | 163.3hPa | 2.5V | 00:00:00 | 00:00:00 | 00:00:00 | |
| DM0DOS-11 | 2026-09-01 12:53:45 | 48.96521 | 10.27209 | 86° | 106km/h | 13444m | -5.6m/s | -54.1°C | 5.2% | 162.7hPa | 2.5V | 08:01:49 | 02:24:09 | 00:00:00 | |
| DK7TD | 2026-09-01 12:53:43 | 48.96528 | 10.27288 | 79° | 100km/h | 13434m | -5.2m/s | -54.3°C | 1.9% | 0hPa | 2.5V | 18:12:15 | 02:24:11 | 00:00:00 | |
| DK7TD | 2026-09-01 12:53:33 | 48.96517 | 10.26944 | 76° | 80km/h | 13489m | -5.5m/s | -54.1°C | 1.8% | 0hPa | 2.6V | 18:12:15 | 02:24:01 | 00:00:00 | |
| DB0NH | 2026-09-01 12:53:31 | 48.96506 | 10.26879 | 76° | 95km/h | 13501m | -5.8m/s | -53.9°C | 5.0% | 161.2hPa | 2.5V | 00:00:00 | 02:23:59 | 00:00:00 | |
| DO3MHA-11 | 2026-09-01 12:53:29 | 48.96495 | 10.26804 | 81° | 93km/h | 13513m | -5.6m/s | -53.9°C | 5.0% | 160.9hPa | 2.5V | 00:00:00 | 02:23:57 | 00:00:00 | |
| DO3MHA-12 | 2026-09-01 12:53:28 | 48.96491 | 10.26764 | 84° | 91km/h | 13518m | -5.9m/s | -54.0°C | 5.1% | 160.8hPa | 2.5V | 00:00:00 | 02:23:56 | 00:00:00 | |
| DJ8HS-15 | 2026-09-01 12:53:27 | 48.96489 | 10.26723 | 87° | 93km/h | 13524m | -5.8m/s | -54.1°C | 5.0% | 160.6hPa | 2.5V | 00:00:00 | 02:23:55 | 00:00:00 | |
| DM0DOS-11 | 2026-09-01 12:53:25 | 48.96489 | 10.26547 | 84° | 78km/h | 13553m | -5.4m/s | -54.2°C | 5.1% | 160hPa | 2.5V | 08:02:08 | 02:23:50 | 00:00:00 | |
| DK5PH-5 | 2026-09-01 12:53:23 | 48.96490 | 10.26577 | 90° | 93km/h | 13547m | -5.5m/s | -54.1°C | 5.1% | 160.0hPa | 2.6V | 00:00:00 | 02:23:51 | 00:00:00 | |
| DK7TD | 2026-09-01 12:53:23 | 48.96490 | 10.26577 | 90° | 82km/h | 13547m | -5.6m/s | -54.2°C | 1.7% | 0hPa | 2.5V | 18:12:15 | 02:23:51 | 00:00:00 | |
| DM7RM-13 | 2026-09-01 12:53:21 | 48.96488 | 10.26547 | 86° | 78km/h | 13553m | -5.4m/s | -54.2°C | 2.1% | 160.0hPa | 2.6V | 08:02:00 | 00:00:00 | 00:00:00 | |
| DF3TZ-5 | 2026-09-01 12:53:20 | 48.96481 | 10.26486 | 76° | 84km/h | 13564m | -5.7m/s | -54.2°C | 2.0% | 159.7hPa | 2.6V | 00:00:00 | 00:00:00 | 00:00:00 | |
| DO3MHA-11 | 2026-09-01 12:53:19 | 48.96476 | 10.26453 | 76° | 97km/h | 13570m | -5.6m/s | -54.1°C | 5.0% | 159.5hPa | 2.6V | 00:00:00 | 02:23:47 | 00:00:00 | |
| DO3MHA-12 | 2026-09-01 12:53:18 | 48.96470 | 10.26417 | 77° | 97km/h | 13575m | -5.5m/s | -54.2°C | 4.9% | 159.4hPa | 2.6V | 00:00:00 | 02:23:46 | 00:00:00 | |
| DM0DOS-11 | 2026-09-01 12:53:17 | 48.96464 | 10.26182 | 95° | 91km/h | 13607m | -5.7m/s | -54.2°C | 4.8% | 158.6hPa | 2.6V | 08:02:18 | 02:23:40 | 00:00:00 | |
| DK7TD | 2026-09-01 12:53:14 | 48.96462 | 10.26218 | 95° | 99km/h | 13602m | -5.4m/s | 0°C | 0% | 0hPa | 2.5V | 18:12:15 | 02:23:41 | 00:00:00 | |
| OE5DXL-15 | 2026-09-01 12:53:10 | 48.96466 | 10.26116 | 91° | 86km/h | 13619m | -5.7m/s | -54.1°C | 4.9% | 158.2hPa | 2.6V | 00:00:00 | 00:00:00 | 00:00:00 | |
| DO3MHA-11 | 2026-09-01 12:53:09 | 48.96466 | 10.26085 | 87° | 93km/h | 13625m | -5.5m/s | -54.1°C | 4.9% | 158.1hPa | 2.5V | 00:00:00 | 02:23:37 | 00:00:00 | |
| DL1ZP-14 | 2026-09-01 12:53:08 | 48.96461 | 10.26022 | 80° | 86km/h | 13636m | -5.6m/s | -54.3°C | 1.9% | 157.9hPa | 2.5V | 00:00:00 | 00:00:00 | 00:00:00 | |
| DJ8HS-15 | 2026-09-01 12:53:07 | 48.96461 | 10.26022 | 81° | 89km/h | 13636m | -5.6m/s | -54.2°C | 4.9% | 157.9hPa | 2.5V | 00:00:00 | 02:23:35 | 00:00:00 | |
| DL9SK-14 | 2026-09-01 12:53:05 | 48.96453 | 10.25952 | 82° | 97km/h | 13647m | -5.4m/s | -54.3°C | 1.9% | 157.6hPa | 2.5V | 00:00:00 | 00:00:00 | 00:00:00 | |
| DM0DOS-11 | 2026-09-01 12:53:04 | 48.96449 | 10.25837 | 91° | 99km/h | 13663m | -5.6m/s | -54.4°C | 4.9% | 157.2hPa | 2.5V | 08:02:28 | 02:23:30 | 00:00:00 | |
| DK7TD | 2026-09-01 12:53:02 | 48.96449 | 10.25837 | 92° | 99km/h | 13664m | -5.6m/s | 0°C | 0% | 0hPa | 2.5V | 18:12:15 | 02:23:30 | 00:00:00 | |
| DK7TD | 2026-09-01 12:52:52 | 48.96435 | 10.25498 | 89° | 89km/h | 13720m | -6m/s | 0°C | 0% | 0hPa | 2.5V | 18:12:15 | 02:23:20 | 00:00:00 | |
| DF3TZ-5 | 2026-09-01 12:52:49 | 48.96434 | 10.25404 | 86° | 73km/h | 13737m | -5.9m/s | -54.3°C | 1.8% | 155.4hPa | 2.5V | 00:00:00 | 00:00:00 | 00:00:00 | |
| DK7TD | 2026-09-01 12:52:39 | 48.96419 | 10.25094 | 97° | 77km/h | 13794m | -6.2m/s | 0°C | 0% | 0hPa | 2.5V | 18:12:15 | 02:23:07 | 00:00:00 | |
| DK7TD | 2026-09-01 12:52:29 | 48.96388 | 10.24790 | 87° | 84km/h | 13859m | -5.5m/s | 0°C | 0% | 0hPa | 2.6V | 18:12:15 | 02:22:56 | 00:00:00 | |
| DO3MHA-12 | 2026-09-01 12:52:28 | 48.96388 | 10.24790 | 87° | 68km/h | 13859m | -5.5m/s | -53.9°C | 4.7% | 152.4hPa | 2.5V | 00:00:00 | 02:22:56 | 00:00:00 | |
| DJ8HS-15 | 2026-09-01 12:52:27 | 48.96387 | 10.24759 | 91° | 73km/h | 13865m | -5.1m/s | -53.9°C | 4.8% | 152.3hPa | 2.5V | 08:03:00 | 02:22:55 | 00:00:00 | |
| DK5PH-5 | 2026-09-01 12:52:23 | 48.96386 | 10.24660 | 80° | 78km/h | 13887m | -6.1m/s | -53.3°C | 4.5% | 151.7hPa | 2.6V | 00:00:00 | 02:22:51 | 00:00:00 | |
| DM7RM-13 | 2026-09-01 12:52:20 | 48.96370 | 10.24594 | 65° | 68km/h | 13905m | -5.9m/s | -53.0°C | 1.5% | 151.3hPa | 2.6V | 08:03:00 | 00:00:00 | 00:00:00 | |
| DO3MHA-12 | 2026-09-01 12:52:19 | 48.96353 | 10.24543 | 64° | 78km/h | 13917m | -5.9m/s | -53.0°C | 4.1% | 151.0hPa | 2.6V | 00:00:00 | 02:22:46 | 00:00:00 | |
| DB0UT-7 | 2026-09-01 12:52:16 | 48.96336 | 10.24484 | 69° | 91km/h | 13929m | -6.2m/s | -52.8°C | 4.1% | 150.7hPa | 2.6V | 00:00:00 | 02:22:44 | 00:00:00 | |
| DB0ND-19 | 2026-09-01 12:52:12 | 48.96314 | 10.24356 | 81° | 77km/h | 13953m | -5.6m/s | -52.8°C | 1.5% | 150.3hPa | 2.6V | 00:00:00 | 00:00:00 | 00:00:00 | |
| PG1ADW-2 | 2026-09-01 12:52:11 | 48.96311 | 10.24328 | 82° | 46km/h | 13958m | -5.4m/s | -52.8°C | 4.3% | 150.1hPa | 2.6V | 00:00:00 | 00:00:00 | 00:00:00 | |
| OE5DXL-15 | 2026-09-01 12:52:10 | 48.96308 | 10.24303 | 79° | 84km/h | 13964m | -5.1m/s | -52.8°C | 4.3% | 150.0hPa | 2.6V | 00:00:00 | 00:00:00 | 00:00:00 | |
| DO3MHA-11 | 2026-09-01 12:52:09 | 48.96304 | 10.24281 | 72° | 78km/h | 13969m | -5.4m/s | -52.8°C | 4.3% | 149.8hPa | 2.6V | 00:00:00 | 02:22:37 | 00:00:00 | |
| DO3MHA-12 | 2026-09-01 12:52:08 | 48.96299 | 10.24260 | 65° | 82km/h | 13975m | -5.8m/s | -52.7°C | 4.3% | 149.7hPa | 2.6V | 08:03:00 | 02:22:36 | 00:00:00 | |
| DJ8HS-15 | 2026-09-01 12:52:07 | 48.96291 | 10.24239 | 61° | 84km/h | 13980m | -5.8m/s | -52.7°C | 4.2% | 149.6hPa | 2.5V | 00:00:00 | 02:22:35 | 00:00:00 | |
| DL1ZP-14 | 2026-09-01 12:52:06 | 48.96273 | 10.24194 | 56° | 73km/h | 13992m | -6.1m/s | -52.9°C | 1.4% | 149.3hPa | 2.5V | 00:00:00 | 00:00:00 | 00:00:00 | |
| DL9SK-14 | 2026-09-01 12:52:04 | 48.96239 | 10.24113 | 60° | 91km/h | 14011m | -6.7m/s | -53.0°C | 1.4% | 148.9hPa | 2.5V | 00:00:00 | 00:00:00 | 00:00:00 | |
| NBG1-10 | 2026-09-01 12:52:02 | 48.96239 | 10.24113 | 61° | 91km/h | 14012m | -6.7m/s | -53.0°C | 4.0% | 148.8hPa | 2.5V | 00:00:00 | 02:22:30 | 00:00:00 | |
| DL6DJ-15 | 2026-09-01 12:51:58 | 48.96192 | 10.23941 | 74° | 97km/h | 14044m | -6.0m/s | -53.0°C | 1.4% | 148.1hPa | 2.5V | 00:00:00 | 00:00:00 | 00:00:00 | |
| DM7RM-13 | 2026-09-01 12:51:57 | 48.96199 | 10.23977 | 73° | 99km/h | 14038m | -6.6m/s | -53.0°C | 1.4% | 148.3hPa | 2.5V | 08:04:00 | 00:00:00 | 00:00:00 | |
| DK5PH-5 | 2026-09-01 12:51:53 | 48.96176 | 10.23809 | 81° | 93km/h | 14066m | -5.3m/s | -52.8°C | 4.3% | 147.5hPa | 2.5V | 00:00:00 | 02:22:21 | 00:00:00 | |
| DM0DOS-11 | 2026-09-01 12:51:52 | 48.96167 | 10.23758 | 70° | 68km/h | 14077m | -5.4m/s | -53°C | 4.4% | 147.4hPa | 2.5V | 08:03:39 | 02:22:19 | 00:00:00 | |
| DF3TZ-5 | 2026-09-01 12:51:47 | 48.96120 | 10.23625 | 59° | 91km/h | 14104m | -5.7m/s | 0°C | -1.0% | -1.0hPa | 2.6V | 00:00:00 | 00:00:00 | 00:00:00 | |
| DM0DOS-11 | 2026-09-01 12:51:46 | 48.96062 | 10.23453 | 67° | 106km/h | 14134m | -6.5m/s | -53.1°C | 4.1% | 146.1hPa | 2.6V | 08:03:49 | 02:22:09 | 00:00:00 | |
| DJ8HS-15 | 2026-09-01 12:51:46 | 48.96120 | 10.23625 | 60° | 97km/h | 14104m | -5.6m/s | -53.0°C | 4.1% | 146.7hPa | 2.6V | 00:00:00 | 02:22:14 | 00:00:00 | |
| DN1GJH-1 | 2026-09-01 12:51:43 | 48.96096 | 10.23560 | 63° | 100km/h | 14116m | -6.0m/s | -53.1°C | 1.4% | 146.5hPa | 2.6V | 08:04:00 | 00:00:00 | 00:00:00 | |
| DB0ND-19 | 2026-09-01 12:51:41 | 48.96062 | 10.23453 | 67° | 104km/h | 14134m | -6.5m/s | -53.1°C | 1.4% | 146.1hPa | 2.6V | 00:00:00 | 00:00:00 | 00:00:00 | |
| OE5DXL-15 | 2026-09-01 12:51:40 | 48.96052 | 10.23415 | 71° | 100km/h | 14141m | -6.4m/s | -53.1°C | 4.2% | 145.9hPa | 2.6V | 08:03:00 | 00:00:00 | 00:00:00 | |
| DO3MHA-11 | 2026-09-01 12:51:39 | 48.96044 | 10.23377 | 75° | 91km/h | 14148m | -6.1m/s | -53.0°C | 4.2% | 145.8hPa | 2.5V | 00:00:00 | 02:22:07 | 00:00:00 | |
| DO3MHA-12 | 2026-09-01 12:51:38 | 48.96038 | 10.23339 | 79° | 91km/h | 14153m | -5.8m/s | -53.0°C | 4.2% | 145.6hPa | 2.5V | 00:00:00 | 02:22:06 | 00:00:00 | |
| DM7RM-13 | 2026-09-01 12:51:36 | 48.96033 | 10.23302 | 82° | 95km/h | 14159m | -5.7m/s | -53.0°C | 1.5% | 145.5hPa | 2.6V | 08:04:00 | 00:00:00 | 00:00:00 | |
| DL1ZP-14 | 2026-09-01 12:51:35 | 48.96021 | 10.23206 | 73° | 77km/h | 14176m | -5.7m/s | -53.3°C | 1.5% | 145.1hPa | 2.6V | 00:00:00 | 00:00:00 | 00:00:00 | |
| DL9SK-14 | 2026-09-01 12:51:33 | 48.95996 | 10.23116 | 64° | 93km/h | 14193m | -5.6m/s | -53.4°C | 1.4% | 144.8hPa | 2.5V | 00:00:00 | 00:00:00 | 00:00:00 | |
| DM0DOS-11 | 2026-09-01 12:51:33 | 48.95996 | 10.23116 | 64° | 95km/h | 14193m | -5.6m/s | -53.4°C | 4.2% | 144.8hPa | 2.5V | 08:03:59 | 02:21:59 | 00:00:00 | |
| DB0NH | 2026-09-01 12:51:31 | 48.95996 | 10.23116 | 65° | 100km/h | 14193m | -5.6m/s | -53.3°C | 4.2% | 144.8hPa | 2.5V | 08:03:00 | 02:21:59 | 00:00:00 | |
| DO9HM | 2026-09-01 12:51:30 | 48.95996 | 10.23116 | 66° | 95km/h | 14193m | -5.6m/s | -53.4°C | 1.5% | 144.8hPa | 2.6V | 08:04:00 | 00:00:00 | 00:00:00 | |
| NBG1-10 | 2026-09-01 12:51:29 | 48.95976 | 10.23044 | 70° | 102km/h | 14204m | -5.4m/s | -53.2°C | 4.2% | 144.5hPa | 2.6V | 00:00:00 | 02:21:57 | 00:00:00 | |
| DO3MHA-12 | 2026-09-01 12:51:28 | 48.95967 | 10.23004 | 74° | 97km/h | 14210m | -5.6m/s | -53.1°C | 4.2% | 144.4hPa | 2.6V | 00:00:00 | 02:21:56 | 00:00:00 | |
| DL6DJ-15 | 2026-09-01 12:51:27 | 48.95955 | 10.22922 | 80° | 108km/h | 14221m | -6.1m/s | -53.1°C | 1.4% | 144.1hPa | 2.6V | 00:00:00 | 00:00:00 | 00:00:00 | |
| DJ8HS-15 | 2026-09-01 12:51:26 | 48.95955 | 10.22921 | 81° | 102km/h | 14222m | -6.1m/s | -53.0°C | 4.2% | 144.1hPa | 2.6V | 00:00:00 | 02:21:54 | 00:00:00 | |
| DB0UT-7 | 2026-09-01 12:51:25 | 48.95951 | 10.22881 | 84° | 100km/h | 14228m | -6.3m/s | -53.0°C | 4.3% | 143.9hPa | 2.5V | 00:00:00 | 00:00:00 | 00:00:00 | |
| DK5PH-5 | 2026-09-01 12:51:23 | 48.95946 | 10.22806 | 85° | 100km/h | 14241m | -6.2m/s | -53.1°C | 4.4% | 143.6hPa | 2.5V | 08:04:00 | 02:21:51 | 00:00:00 | |
| DM0DOS-11 | 2026-09-01 12:51:22 | 48.95939 | 10.22740 | 76° | 84km/h | 14252m | -5.7m/s | -53.3°C | 4.4% | 143.4hPa | 2.5V | 08:04:09 | 02:21:49 | 00:00:00 | |
| DJTTGO | 2026-09-01 12:51:20 | 48.95933 | 10.22709 | 72° | 84km/h | 14258m | -5.6m/s | -53.3°C | 1.5% | 143.3hPa | 2.6V | 00:00:00 | 00:00:00 | 00:00:00 | |
| DO3MHA-11 | 2026-09-01 12:51:19 | 48.95925 | 10.22678 | 67° | 110km/h | 14264m | -5.4m/s | -53.4°C | 4.3% | 143.2hPa | 2.6V | 08:04:00 | 02:21:47 | 00:00:00 | |
| DO3MHA-12 | 2026-09-01 12:51:18 | 48.95916 | 10.22645 | 66° | 111km/h | 14269m | -5.6m/s | -53.4°C | 4.3% | 143.0hPa | 2.6V | 00:00:00 | 02:21:46 | 00:00:00 | |
| DM7RM-13 | 2026-09-01 12:51:16 | 48.95905 | 10.22609 | 67° | 106km/h | 14275m | -5.9m/s | -53.5°C | 1.5% | 143.0hPa | 2.6V | 08:04:00 | 00:00:00 | 00:00:00 | |
| DM0DOS-11 | 2026-09-01 12:51:12 | 48.95857 | 10.22357 | 83° | 113km/h | 14313m | -6.2m/s | -53.5°C | 4.2% | 142.1hPa | 2.6V | 08:04:19 | 02:21:39 | 00:00:00 | |
| OE5DXL-15 | 2026-09-01 12:51:10 | 48.95855 | 10.22315 | 87° | 97km/h | 14320m | -6.2m/s | -53.5°C | 4.3% | 141.9hPa | 2.6V | 00:00:00 | 00:00:00 | 00:00:00 | |
| DO3MHA-11 | 2026-09-01 12:51:09 | 48.95853 | 10.22274 | 88° | 95km/h | 14326m | -6.1m/s | -53.4°C | 4.3% | 141.7hPa | 2.6V | 00:00:00 | 02:21:37 | 00:00:00 | |
| DO3MHA-12 | 2026-09-01 12:51:08 | 48.95853 | 10.22235 | 90° | 97km/h | 14332m | -6.2m/s | -53.4°C | 4.4% | 141.6hPa | 2.6V | 00:00:00 | 02:21:36 | 00:00:00 | |
| DM0DOS-11 | 2026-09-01 12:51:06 | 48.95816 | 10.21958 | 76° | 111km/h | 14378m | -5.5m/s | -54°C | 4.4% | 140.7hPa | 2.6V | 08:04:30 | 02:21:28 | 00:00:00 | |
| DJ8HS-15 | 2026-09-01 12:51:06 | 48.95851 | 10.22165 | 86° | 95km/h | 14344m | -6.1m/s | -53.5°C | 4.4% | 141.4hPa | 2.5V | 00:00:00 | 02:21:34 | 00:00:00 | |
| SONCRA | 2026-09-01 12:51:04 | 48.95838 | 10.22069 | 72° | 89km/h | 14362m | -5.7m/s | -53.8°C | 1.5% | 141.0hPa | 2.5V | 00:00:00 | 00:00:00 | 00:00:00 | |
| DL1ZP-14 | 2026-09-01 12:51:03 | 48.95838 | 10.22069 | 72° | 89km/h | 14362m | -5.7m/s | -53.8°C | 1.5% | 141.0hPa | 2.5V | 00:00:00 | 00:00:00 | 00:00:00 | |
| DN1GJH-1 | 2026-09-01 12:51:02 | 48.95838 | 10.22069 | 74° | 89km/h | 14362m | -5.7m/s | -53.8°C | 1.6% | 141.0hPa | 2.6V | 08:04:00 | 00:00:00 | 00:00:00 | |
| DB0NH | 2026-09-01 12:51:01 | 48.95823 | 10.21998 | 74° | 91km/h | 14373m | -5.3m/s | -54.0°C | 4.4% | 140.8hPa | 2.6V | 00:00:00 | 02:21:29 | 00:00:00 | |
| DO3MHA-11 | 2026-09-01 12:50:59 | 48.95810 | 10.21915 | 81° | 97km/h | 14384m | -5.4m/s | -54.0°C | 4.4% | 140.5hPa | 2.6V | 00:00:00 | 02:21:27 | 00:00:00 | |
| DO3MHA-12 | 2026-09-01 12:50:58 | 48.95806 | 10.21872 | 85° | 95km/h | 14389m | -5.8m/s | -53.8°C | 4.3% | 140.4hPa | 2.6V | 00:00:00 | 02:21:26 | 00:00:00 | |
| NBG1-10 | 2026-09-01 12:50:56 | 48.95803 | 10.21787 | 91° | 86km/h | 14401m | -6.3m/s | -53.6°C | 4.3% | 140.1hPa | 2.6V | 00:00:00 | 02:21:24 | 00:00:00 | |
| DM0DOS-11 | 2026-09-01 12:50:55 | 48.95806 | 10.21579 | 83° | 78km/h | 14439m | -5.9m/s | -53.7°C | 4.4% | 139.3hPa | 2.6V | 08:04:40 | 02:21:18 | 00:00:00 | |
| DB0UT-7 | 2026-09-01 12:50:55 | 48.95804 | 10.21747 | 93° | 86km/h | 14408m | -6.1m/s | -53.6°C | 4.3% | 140.0hPa | 2.6V | 00:00:00 | 02:21:23 | 00:00:00 | |
| DK5PH-5 | 2026-09-01 12:50:53 | 48.95806 | 10.21674 | 93° | 84km/h | 14420m | -6.4m/s | -53.5°C | 4.3% | 139.7hPa | 2.6V | 00:00:00 | 02:21:21 | 00:00:00 | |
| DO3MHA-11 | 2026-09-01 12:50:49 | 48.95802 | 10.21548 | 79° | 97km/h | 14445m | -5.5m/s | -53.8°C | 4.4% | 139.1hPa | 2.6V | 00:00:00 | 02:21:17 | 00:00:00 | |
| DO3MHA-12 | 2026-09-01 12:50:48 | 48.95798 | 10.21517 | 76° | 97km/h | 14450m | -5.2m/s | -53.9°C | 4.4% | 139.1hPa | 2.5V | 00:00:00 | 02:21:16 | 00:00:00 | |
| DJ8HS-15 | 2026-09-01 12:50:46 | 48.95787 | 10.21445 | 80° | 86km/h | 14461m | -5.8m/s | -54.1°C | 4.4% | 138.8hPa | 2.5V | 00:00:00 | 02:21:14 | 00:00:00 | |
| DM0DOS-11 | 2026-09-01 12:50:45 | 48.95786 | 10.21216 | 98° | 88km/h | 14498m | -6.5m/s | -54°C | 4.6% | 138hPa | 2.5V | 08:04:50 | 02:21:08 | 00:00:00 | |
| HSKMA3-T | 2026-09-01 12:50:31 | 48.95777 | 10.20968 | 75° | 80km/h | 14556m | -6.2m/s | -54°C | 0.8% | 136.8hPa | 2.5V | 08:09:07 | 02:20:59 | 00:00:00 | |
| DB0NH | 2026-09-01 12:50:31 | 48.95777 | 10.20968 | 75° | 75km/h | 14556m | -6.1m/s | -54.0°C | 4.4% | 136.7hPa | 2.5V | 00:00:00 | 02:20:59 | 00:00:00 | |
| DL9SK-14 | 2026-09-01 12:50:30 | 48.95768 | 10.20904 | 80° | 89km/h | 14568m | -5.7m/s | -54.2°C | 1.5% | 136.6hPa | 2.5V | 00:00:00 | 00:00:00 | 00:00:00 | |
| DO3MHA-11 | 2026-09-01 12:50:29 | 48.95768 | 10.20904 | 81° | 75km/h | 14568m | -5.6m/s | -54.1°C | 4.5% | 136.5hPa | 2.5V | 00:00:00 | 02:20:57 | 00:00:00 | |
| DO3MHA-12 | 2026-09-01 12:50:28 | 48.95765 | 10.20869 | 86° | 71km/h | 14573m | -5.6m/s | -54.3°C | 4.6% | 136.4hPa | 2.5V | 00:00:00 | 02:20:56 | 00:00:00 | |
| DJ8HS-15 | 2026-09-01 12:50:26 | 48.95765 | 10.20801 | 96° | 75km/h | 14584m | -5.5m/s | -54.0°C | 4.7% | 136.2hPa | 2.5V | 00:00:00 | 02:20:54 | 00:00:00 | |
| DB0UT-7 | 2026-09-01 12:50:25 | 48.95768 | 10.20771 | 98° | 78km/h | 14590m | -5.6m/s | -53.9°C | 4.7% | 136.1hPa | 2.5V | 00:00:00 | 00:00:00 | 00:00:00 | |
| DL6DJ-15 | 2026-09-01 12:50:24 | 48.95770 | 10.20743 | 97° | 68km/h | 14596m | -6.0m/s | -53.9°C | 1.6% | 136.0hPa | 2.5V | 00:00:00 | 00:00:00 | 00:00:00 | |
| NBG1-10 | 2026-09-01 12:50:23 | 48.95772 | 10.20718 | 94° | 75km/h | 14602m | -6.2m/s | -53.8°C | 4.6% | 135.8hPa | 2.5V | 00:00:00 | 02:20:51 | 00:00:00 | |
| DN1GJH-1 | 2026-09-01 12:50:21 | 48.95772 | 10.20695 | 89° | 58km/h | 14608m | -6.3m/s | -53.9°C | 1.6% | 135.7hPa | 2.5V | 08:05:00 | 00:00:00 | 00:00:00 | |
| DO3MHA-11 | 2026-09-01 12:50:19 | 48.95762 | 10.20627 | 70° | 82km/h | 14627m | -6.2m/s | -53.9°C | 4.4% | 135.2hPa | 2.5V | 00:00:00 | 02:20:47 | 00:00:00 | |
| DO3MHA-12 | 2026-09-01 12:50:18 | 48.95756 | 10.20602 | 68° | 82km/h | 14633m | -6.2m/s | -53.9°C | 4.3% | 135.1hPa | 2.5V | 00:00:00 | 02:20:46 | 00:00:00 | |
| DM0DOS-11 | 2026-09-01 12:50:14 | 48.95721 | 10.20348 | 93° | 78km/h | 14682m | -6.1m/s | -53.9°C | 4.5% | 134.1hPa | 2.5V | 08:05:20 | 02:20:38 | 00:00:00 | |
| HSKMA3-T | 2026-09-01 12:50:14 | 48.95728 | 10.20482 | 77° | 91km/h | 14658m | -6.1m/s | -54°C | 0.8% | 134.6hPa | 2.6V | 08:09:07 | 02:20:42 | 00:00:00 | |
| DM7RM-13 | 2026-09-01 12:50:13 | 48.95728 | 10.20482 | 78° | 91km/h | 14658m | -6.1m/s | -54.0°C | 1.5% | 134.6hPa | 2.5V | 08:05:00 | 00:00:00 | 00:00:00 | |
| OE5DXL-15 | 2026-09-01 12:50:10 | 48.95721 | 10.20348 | 94° | 78km/h | 14682m | -6.0m/s | -53.8°C | 4.5% | 134.1hPa | 2.5V | 00:00:00 | 02:20:38 | 00:00:00 | |
| DB0ND-19 | 2026-09-01 12:50:09 | 48.95724 | 10.20295 | 92° | 62km/h | 14694m | -6.5m/s | -53.9°C | 1.6% | 133.9hPa | 2.6V | 00:00:00 | 00:00:00 | 00:00:00 | |
| DO9HM | 2026-09-01 12:50:08 | 48.95724 | 10.20295 | 93° | 64km/h | 14695m | -6.5m/s | -53.9°C | 1.6% | 133.9hPa | 2.6V | 08:05:00 | 00:00:00 | 00:00:00 | |
| DJ8HS-15 | 2026-09-01 12:50:06 | 48.95722 | 10.20249 | 81° | 77km/h | 14707m | -6.4m/s | -53.7°C | 4.5% | 133.6hPa | 2.6V | 00:00:00 | 02:20:34 | 00:00:00 | |
| DM0DOS-11 | 2026-09-01 12:50:05 | 48.95684 | 10.20096 | 71° | 91km/h | 14744m | -6.4m/s | -54°C | 4.2% | 132.8hPa | 2.6V | 08:05:30 | 02:20:28 | 00:00:00 | |
| HSKMA3-T | 2026-09-01 12:50:04 | 48.95714 | 10.20206 | 68° | 62km/h | 14719m | -6.1m/s | -53.8°C | 0.8% | 133.3hPa | 2.6V | 08:09:07 | 02:20:32 | 00:00:00 | |
| SONCRA | 2026-09-01 12:50:02 | 48.95692 | 10.20128 | 67° | 84km/h | 14738m | -6.3m/s | -54.0°C | 1.4% | 133.0hPa | 2.6V | 00:00:00 | 00:00:00 | 00:00:00 | |
| DB0NH | 2026-09-01 12:50:01 | 48.95692 | 10.20128 | 68° | 80km/h | 14738m | -6.3m/s | -53.9°C | 4.3% | 133.0hPa | 2.6V | 00:00:00 | 02:20:29 | 00:00:00 | |
| DO3MHA-11 | 2026-09-01 12:49:59 | 48.95677 | 10.20062 | 76° | 78km/h | 14750m | -6.6m/s | -53.9°C | 4.2% | 132.7hPa | 2.6V | 00:00:00 | 02:20:27 | 00:00:00 | |
| DO3MHA-12 | 2026-09-01 12:49:58 | 48.95672 | 10.20026 | 80° | 77km/h | 14757m | -6.4m/s | -53.8°C | 4.3% | 132.6hPa | 2.6V | 00:00:00 | 02:20:26 | 00:00:00 | |
| DM0DOS-11 | 2026-09-01 12:49:55 | 48.95660 | 10.19793 | 71° | 64km/h | 14806m | -6.1m/s | -54.2°C | 4.5% | 131.6hPa | 2.6V | 08:05:40 | 02:20:18 | 00:00:00 | |
| DK5PH-5 | 2026-09-01 12:49:53 | 48.95667 | 10.19864 | 90° | 80km/h | 14789m | -6.0m/s | -54.0°C | 4.6% | 131.9hPa | 2.6V | 00:00:00 | 02:20:21 | 00:00:00 | |
| DM7RM-13 | 2026-09-01 12:49:52 | 48.95667 | 10.19864 | 91° | 68km/h | 14789m | -6.0m/s | -54.0°C | 1.6% | 131.9hPa | 2.5V | 08:05:00 | 00:00:00 | 00:00:00 | |
| DB0UT-7 | 2026-09-01 12:49:51 | 48.95664 | 10.19816 | 78° | 78km/h | 14800m | -5.8m/s | -54.1°C | 4.5% | 131.6hPa | 2.5V | 00:00:00 | 02:20:19 | 00:00:00 | |
| NBG1-10 | 2026-09-01 12:49:50 | 48.95660 | 10.19793 | 72° | 77km/h | 14807m | -6.1m/s | -54.2°C | 4.5% | 131.5hPa | 2.5V | 00:00:00 | 02:20:18 | 00:00:00 | |
| DO3MHA-11 | 2026-09-01 12:49:49 | 48.95654 | 10.19769 | 69° | 88km/h | 14813m | -6.2m/s | -54.3°C | 4.5% | 131.4hPa | 2.5V | 08:05:00 | 02:20:17 | 00:00:00 | |
| DO9HM | 2026-09-01 12:49:48 | 48.95647 | 10.19742 | 69° | 80km/h | 14819m | -6.0m/s | -54.3°C | 1.5% | 131.3hPa | 2.6V | 08:05:00 | 00:00:00 | 00:00:00 | |
| DJ8HS-15 | 2026-09-01 12:49:46 | 48.95633 | 10.19679 | 76° | 82km/h | 14831m | -5.9m/s | -54.3°C | 4.5% | 131.0hPa | 2.6V | 00:00:00 | 02:20:14 | 00:00:00 | |
| DM0DOS-11 | 2026-09-01 12:49:45 | 48.95628 | 10.19471 | 96° | 78km/h | 14868m | -6.6m/s | -54.2°C | 4.5% | 130.3hPa | 2.6V | 08:05:50 | 02:20:08 | 00:00:00 | |
| DK7TD | 2026-09-01 12:49:29 | 48.95599 | 10.19119 | 96° | 89km/h | 14943m | -6.8m/s | 0°C | 0% | 0hPa | 2.6V | 18:12:15 | 02:19:56 | 00:00:00 | |
| HSKMA3-T | 2026-09-01 12:49:25 | 48.95609 | 10.19028 | 100° | 69km/h | 14963m | -6.4m/s | -54°C | 0.9% | 128.4hPa | 2.6V | 08:09:07 | 02:19:53 | 00:00:00 | |
| DM0DOS-11 | 2026-09-01 12:49:23 | 48.95603 | 10.18915 | 70° | 66km/h | 14996m | -6.4m/s | -54.2°C | 4.3% | 127.7hPa | 2.6V | 08:06:10 | 02:19:48 | 00:00:00 | |
| DK5PH-5 | 2026-09-01 12:49:23 | 48.95612 | 10.18980 | 90° | 77km/h | 14976m | -6.7m/s | -54.0°C | 4.5% | 128.1hPa | 2.6V | 00:00:00 | 02:19:51 | 00:00:00 | |
| DL6DJ-15 | 2026-09-01 12:49:22 | 48.95611 | 10.18959 | 81° | 55km/h | 14983m | -6.7m/s | -54.1°C | 1.5% | 128.0hPa | 2.6V | 00:00:00 | 00:00:00 | 00:00:00 | |
| DB0UT-7 | 2026-09-01 12:49:21 | 48.95608 | 10.18938 | 75° | 77km/h | 14989m | -6.4m/s | -54.1°C | 4.4% | 127.8hPa | 2.6V | 08:06:00 | 00:00:00 | 00:00:00 | |
| DN1GJH-1 | 2026-09-01 12:49:20 | 48.95608 | 10.18938 | 75° | 58km/h | 14989m | -6.4m/s | -54.2°C | 1.5% | 127.9hPa | 2.6V | 08:06:00 | 00:00:00 | 00:00:00 | |
| DO3MHA-11 | 2026-09-01 12:49:19 | 48.95597 | 10.18890 | 71° | 82km/h | 15002m | -6.7m/s | -54.1°C | 4.2% | 127.5hPa | 2.6V | 00:00:00 | 02:19:47 | 00:00:00 | |
| DO3MHA-12 | 2026-09-01 12:49:18 | 48.95591 | 10.18862 | 72° | 82km/h | 15009m | -6.8m/s | -54.0°C | 4.2% | 127.4hPa | 2.5V | 00:00:00 | 02:19:46 | 00:00:00 | |
| NBG1-10 | 2026-09-01 12:49:17 | 48.95584 | 10.18831 | 74° | 75km/h | 15016m | -6.8m/s | -54.0°C | 4.2% | 127.3hPa | 2.5V | 08:06:00 | 02:19:45 | 00:00:00 | |
| DM0DOS-11 | 2026-09-01 12:49:15 | 48.95583 | 10.18606 | 101° | 68km/h | 15060m | -6.8m/s | -54°C | 4.5% | 126.4hPa | 2.6V | 08:06:20 | 02:19:38 | 00:00:00 | |
| DK7TD | 2026-09-01 12:49:14 | 48.95574 | 10.18729 | 88° | 91km/h | 15035m | -6m/s | 0°C | 0% | 0hPa | 2.6V | 18:12:15 | 02:19:42 | 00:00:00 | |
| DM7RM-13 | 2026-09-01 12:49:11 | 48.95576 | 10.18662 | 99° | 82km/h | 15047m | -6.3m/s | -54.0°C | 1.5% | 126.7hPa | 2.6V | 08:06:00 | 00:00:00 | 00:00:00 | |
| OE5DXL-15 | 2026-09-01 12:49:10 | 48.95583 | 10.18606 | 102° | 75km/h | 15060m | -6.8m/s | -53.9°C | 4.5% | 126.4hPa | 2.6V | 00:00:00 | 00:00:00 | 00:00:00 | |
| DO3MHA-11 | 2026-09-01 12:49:09 | 48.95586 | 10.18582 | 99° | 71km/h | 15067m | -6.9m/s | -54.0°C | 4.5% | 126.3hPa | 2.6V | 00:00:00 | 02:19:37 | 00:00:00 | |
| DO3MHA-12 | 2026-09-01 12:49:08 | 48.95587 | 10.18559 | 94° | 75km/h | 15074m | -6.8m/s | -54.0°C | 4.5% | 126.1hPa | 2.6V | 08:06:00 | 02:19:36 | 00:00:00 | |
| DJ8HS-15 | 2026-09-01 12:49:06 | 48.95585 | 10.18516 | 78° | 73km/h | 15087m | -6.3m/s | -54.1°C | 4.4% | 125.9hPa | 2.6V | 00:00:00 | 02:19:34 | 00:00:00 | |
| DM0DOS-11 | 2026-09-01 12:49:03 | 48.95555 | 10.18342 | 83° | 95km/h | 15126m | -6.7m/s | -54.5°C | 4.4% | 125.2hPa | 2.6V | 08:06:30 | 02:19:28 | 00:00:00 | |
| SONCRA | 2026-09-01 12:49:00 | 48.95553 | 10.18306 | 87° | 93km/h | 15133m | -6.9m/s | -54.4°C | 1.4% | 125.0hPa | 2.6V | 00:00:00 | 00:00:00 | 00:00:00 | |
| DL1ZP-14 | 2026-09-01 12:48:59 | 48.95553 | 10.18306 | 87° | 93km/h | 15133m | -6.9m/s | -54.4°C | 1.4% | 125.0hPa | 2.6V | 00:00:00 | 00:00:00 | 00:00:00 | |
| DL9SK-14 | 2026-09-01 12:48:57 | 48.95558 | 10.18202 | 100° | 84km/h | 15153m | -6.6m/s | -54.2°C | 1.4% | 124.6hPa | 2.6V | 00:00:00 | 00:00:00 | 00:00:00 | |
| DM0DOS-11 | 2026-09-01 12:48:56 | 48.95573 | 10.18055 | 82° | 53km/h | 15193m | -6.7m/s | -54.1°C | 4.4% | 123.8hPa | 2.6V | 08:06:40 | 02:19:18 | 00:00:00 | |
| DK5PH-5 | 2026-09-01 12:48:53 | 48.95570 | 10.18118 | 103° | 73km/h | 15173m | -6.5m/s | -54.1°C | 4.6% | 124.1hPa | 2.6V | 00:00:00 | 02:19:21 | 00:00:00 | |
| DB0UT-7 | 2026-09-01 12:48:51 | 48.95574 | 10.18075 | 91° | 60km/h | 15187m | -6.5m/s | -54.1°C | 4.5% | 123.9hPa | 2.6V | 00:00:00 | 02:19:19 | 00:00:00 | |
| DO3MHA-11 | 2026-09-01 12:48:49 | 48.95570 | 10.18034 | 76° | 78km/h | 15200m | -6.9m/s | -54.1°C | 4.3% | 123.6hPa | 2.6V | 00:00:00 | 02:19:17 | 00:00:00 | |
| DO3MHA-12 | 2026-09-01 12:48:48 | 48.95566 | 10.18013 | 72° | 80km/h | 15207m | -7.1m/s | -54.2°C | 4.3% | 123.5hPa | 2.6V | 00:00:00 | 02:19:16 | 00:00:00 | |
| DO9HM | 2026-09-01 12:48:47 | 48.95561 | 10.17989 | 71° | 69km/h | 15214m | -7.1m/s | -54.3°C | 1.4% | 123.4hPa | 2.6V | 08:07:00 | 00:00:00 | 00:00:00 | |
| DM0DOS-11 | 2026-09-01 12:48:46 | 48.95544 | 10.17766 | 99° | 82km/h | 15259m | -6.6m/s | -54.3°C | 4.4% | 122.6hPa | 2.6V | 08:06:50 | 02:19:08 | 00:00:00 | |
| DK7TD | 2026-09-01 12:48:43 | 48.95541 | 10.17868 | 84° | 91km/h | 15240m | -6.2m/s | 0°C | 0% | 0hPa | 2.6V | 18:12:15 | 02:19:11 | 00:00:00 | |
| HSKMA3-T | 2026-09-01 12:48:39 | 48.95548 | 10.17736 | 103° | 73km/h | 15266m | -6.7m/s | -54.2°C | 0.6% | 122.4hPa | 2.6V | 08:09:07 | 02:19:07 | 00:00:00 | |
| DO3MHA-12 | 2026-09-01 12:48:38 | 48.95551 | 10.17710 | 104° | 64km/h | 15273m | -6.7m/s | -54.0°C | 4.4% | 122.3hPa | 2.6V | 00:00:00 | 02:19:06 | 00:00:00 | |
| DB0ND-19 | 2026-09-01 12:48:35 | 48.95557 | 10.17648 | 86° | 47km/h | 15293m | -6.5m/s | -53.9°C | 1.3% | 121.9hPa | 2.6V | 00:00:00 | 00:00:00 | 00:00:00 | |
| DM0DOS-11 | 2026-09-01 12:48:31 | 48.95534 | 10.17531 | 74° | 82km/h | 15325m | -6.5m/s | -54.2°C | 4.3% | 121.3hPa | 2.6V | 08:07:00 | 02:18:58 | 00:00:00 | |
| DK7TD | 2026-09-01 12:48:27 | 48.95526 | 10.17433 | 91° | 88km/h | 15345m | -6.5m/s | 0°C | 0% | 0hPa | 2.6V | 18:12:15 | 02:18:55 | 00:00:00 | |
| DM0DOS-11 | 2026-09-01 12:48:26 | 48.95551 | 10.17234 | 90° | 44km/h | 15400m | -6.7m/s | -53.8°C | 4.3% | 119.8hPa | 2.6V | 08:07:11 | 02:18:47 | 00:00:00 | |
| HSKMA3-T | 2026-09-01 12:48:21 | 48.95548 | 10.17270 | 104° | 53km/h | 15386m | -6.9m/s | -53.9°C | 0.6% | 120.1hPa | 2.6V | 08:09:07 | 02:18:49 | 00:00:00 | |
| DN1GJH-1 | 2026-09-01 12:48:20 | 48.95551 | 10.17234 | 92° | 44km/h | 15400m | -6.7m/s | -53.8°C | 1.3% | 119.9hPa | 2.5V | 08:07:00 | 00:00:00 | 00:00:00 | |
| DO3MHA-12 | 2026-09-01 12:48:19 | 48.95550 | 10.17217 | 82° | 69km/h | 15407m | -6.8m/s | -53.8°C | 4.2% | 119.7hPa | 2.5V | 00:00:00 | 02:18:46 | 00:00:00 | |
| DB0UT-7 | 2026-09-01 12:48:15 | 48.95539 | 10.17157 | 75° | 60km/h | 15427m | -6.6m/s | -54.0°C | 4.3% | 119.3hPa | 2.5V | 00:00:00 | 00:00:00 | 00:00:00 | |
| DM0DOS-11 | 2026-09-01 12:48:14 | 48.95535 | 10.17010 | 100° | 80km/h | 15460m | -6.8m/s | -53.6°C | 4.3% | 118.8hPa | 2.5V | 08:07:20 | 02:18:38 | 00:00:00 | |
| NBG1-10 | 2026-09-01 12:48:11 | 48.95532 | 10.17041 | 96° | 60km/h | 15453m | -6.6m/s | -53.8°C | 4.3% | 118.9hPa | 2.6V | 00:00:00 | 02:18:39 | 00:00:00 | |
| OE5DXL-15 | 2026-09-01 12:48:10 | 48.95535 | 10.17010 | 101° | 58km/h | 15460m | -6.8m/s | -53.6°C | 4.3% | 118.8hPa | 2.6V | 00:00:00 | 00:00:00 | 00:00:00 | |
| DO3MHA-11 | 2026-09-01 12:48:09 | 48.95539 | 10.16980 | 106° | 55km/h | 15467m | -6.6m/s | -53.5°C | 4.3% | 118.6hPa | 2.6V | 00:00:00 | 02:18:37 | 00:00:00 | |
| DO3MHA-12 | 2026-09-01 12:48:08 | 48.95545 | 10.16953 | 110° | 53km/h | 15474m | -7.0m/s | -53.4°C | 4.2% | 118.5hPa | 2.6V | 00:00:00 | 02:18:36 | 00:00:00 | |
| DJ8HS-15 | 2026-09-01 12:48:06 | 48.95558 | 10.16906 | 116° | 55km/h | 15488m | -6.9m/s | -53.2°C | 4.1% | 118.2hPa | 2.6V | 00:00:00 | 02:18:34 | 00:00:00 | |
| DB0ND-19 | 2026-09-01 12:48:04 | 48.95569 | 10.16869 | 109° | 44km/h | 15501m | -6.8m/s | -53.2°C | 1.2% | 118.0hPa | 2.6V | 00:00:00 | 00:00:00 | 00:00:00 | |
| DM0DOS-11 | 2026-09-01 12:48:02 | 48.95568 | 10.16803 | 75° | 53km/h | 15527m | -6.5m/s | -53.1°C | 3.9% | 117.5hPa | 2.6V | 08:07:30 | 02:18:28 | 00:00:00 | |
| HSKMA3-T | 2026-09-01 12:47:56 | 48.95558 | 10.16702 | 91° | 77km/h | 15555m | -6.6m/s | -53.2°C | 0.4% | 117.1hPa | 2.6V | 08:09:07 | 02:18:24 | 00:00:00 | |
| DL9SK-14 | 2026-09-01 12:47:55 | 48.95563 | 10.16645 | 104° | 73km/h | 15567m | -6.0m/s | -53.2°C | 1.2% | 116.8hPa | 2.6V | 00:00:00 | 00:00:00 | 00:00:00 | |
| DM0DOS-11 | 2026-09-01 12:47:51 | 48.95587 | 10.16559 | 112° | 46km/h | 15592m | -6.4m/s | -53.3°C | 4.1% | 116.3hPa | 2.6V | 08:07:40 | 02:18:18 | 00:00:00 | |
| DL6DJ-15 | 2026-09-01 12:47:50 | 48.95590 | 10.16543 | 105° | 38km/h | 15599m | -6.7m/s | -53.3°C | 1.2% | 116.3hPa | 2.6V | 00:00:00 | 00:00:00 | 00:00:00 | |
| DO3MHA-11 | 2026-09-01 12:47:49 | 48.95590 | 10.16543 | 106° | 55km/h | 15599m | -6.6m/s | -53.2°C | 4.1% | 116.2hPa | 2.6V | 00:00:00 | 02:18:17 | 00:00:00 | |
| DO3MHA-12 | 2026-09-01 12:47:48 | 48.95592 | 10.16529 | 94° | 58km/h | 15606m | -6.8m/s | -53.1°C | 4.0% | 116.0hPa | 2.6V | 00:00:00 | 02:18:16 | 00:00:00 | |
| DM7RM-13 | 2026-09-01 12:47:47 | 48.95592 | 10.16529 | 95° | 37km/h | 15606m | -6.9m/s | -53.2°C | 1.2% | 116.1hPa | 2.6V | 08:08:00 | 00:00:00 | 00:00:00 | |
| DJ8HS-15 | 2026-09-01 12:47:46 | 48.95590 | 10.16499 | 76° | 58km/h | 15619m | -6.9m/s | -53.2°C | 3.9% | 115.8hPa | 2.6V | 00:00:00 | 02:18:14 | 00:00:00 | |
| DO9HM | 2026-09-01 12:47:45 | 48.95586 | 10.16482 | 73° | 49km/h | 15626m | -7.1m/s | -53.3°C | 1.2% | 115.7hPa | 2.6V | 08:08:00 | 00:00:00 | 00:00:00 | |
| DM0DOS-11 | 2026-09-01 12:47:41 | 48.95566 | 10.16360 | 85° | 78km/h | 15660m | -6.8m/s | -53.5°C | 3.9% | 115.2hPa | 2.6V | 08:07:50 | 02:18:08 | 00:00:00 | |
| DB0UT-7 | 2026-09-01 12:47:40 | 48.95566 | 10.16360 | 86° | 60km/h | 15660m | -6.7m/s | -53.5°C | 3.9% | 115.1hPa | 2.6V | 00:00:00 | 02:18:08 | 00:00:00 | |
| DO3MHA-11 | 2026-09-01 12:47:39 | 48.95566 | 10.16330 | 91° | 55km/h | 15667m | -6.7m/s | -53.5°C | 4.0% | 115.0hPa | 2.6V | 00:00:00 | 02:18:07 | 00:00:00 | |
| NBG1-10 | 2026-09-01 12:47:38 | 48.95567 | 10.16300 | 97° | 60km/h | 15673m | -6.2m/s | -53.6°C | 4.1% | 114.8hPa | 2.6V | 00:00:00 | 02:18:06 | 00:00:00 | |
| DN1GJH-1 | 2026-09-01 12:47:37 | 48.95567 | 10.16300 | 98° | 77km/h | 15673m | -6.3m/s | -53.6°C | 1.3% | 114.9hPa | 2.6V | 08:08:00 | 00:00:00 | 00:00:00 | |
| DB0ND-19 | 2026-09-01 12:47:33 | 48.95585 | 10.16190 | 100° | 40km/h | 15705m | -6.6m/s | -53.9°C | 1.2% | 114.3hPa | 2.6V | 00:00:00 | 00:00:00 | 00:00:00 | |
| DM0DOS-11 | 2026-09-01 12:47:31 | 48.95582 | 10.16146 | 68° | 46km/h | 15725m | -6.7m/s | -54.1°C | 4.1% | 113.9hPa | 2.6V | 08:08:00 | 02:17:58 | 00:00:00 | |
| DB0NH | 2026-09-01 12:47:31 | 48.95585 | 10.16161 | 78° | 60km/h | 15719m | -6.8m/s | -54.0°C | 4.2% | 114.0hPa | 2.6V | 00:00:00 | 02:17:59 | 00:00:00 | |
| DO3MHA-11 | 2026-09-01 12:47:29 | 48.95577 | 10.16128 | 65° | 69km/h | 15732m | -6.6m/s | -54.1°C | 4.1% | 113.8hPa | 2.6V | 00:00:00 | 02:17:57 | 00:00:00 | |
| DO3MHA-12 | 2026-09-01 12:47:28 | 48.95571 | 10.16108 | 66° | 69km/h | 15739m | -6.8m/s | -54.1°C | 4.1% | 113.7hPa | 2.6V | 00:00:00 | 02:17:56 | 00:00:00 | |
| DM7RM-13 | 2026-09-01 12:47:27 | 48.95571 | 10.16108 | 66° | 62km/h | 15739m | -6.9m/s | -54.2°C | 1.2% | 113.7hPa | 2.6V | 08:08:00 | 00:00:00 | 00:00:00 | |
| DM0DOS-11 | 2026-09-01 12:47:26 | 48.95559 | 10.15894 | 106° | 57km/h | 15791m | -6.9m/s | -54°C | 4.3% | 112.8hPa | 2.6V | 08:08:10 | 02:17:48 | 00:00:00 | |
| DO9HM | 2026-09-01 12:47:23 | 48.95551 | 10.16001 | 86° | 78km/h | 15766m | -6.7m/s | -54.2°C | 1.3% | 113.2hPa | 2.6V | 08:08:00 | 00:00:00 | 00:00:00 | |
| DK5PH-5 | 2026-09-01 12:47:20 | 48.95559 | 10.15893 | 107° | 62km/h | 15792m | -6.8m/s | -54.0°C | 4.3% | 112.7hPa | 2.6V | 00:00:00 | 02:17:48 | 00:00:00 | |
| DO3MHA-11 | 2026-09-01 12:47:19 | 48.95562 | 10.15874 | 107° | 58km/h | 15799m | -6.9m/s | -54.0°C | 4.3% | 112.6hPa | 2.6V | 00:00:00 | 02:17:47 | 00:00:00 | |
| DO3MHA-12 | 2026-09-01 12:47:18 | 48.95565 | 10.15857 | 100° | 60km/h | 15805m | -6.7m/s | -54.0°C | 4.3% | 112.5hPa | 2.6V | 00:00:00 | 02:17:46 | 00:00:00 | |
| DN1GJH-1 | 2026-09-01 12:47:16 | 48.95566 | 10.15841 | 89° | 40km/h | 15812m | -6.7m/s | -54.0°C | 1.3% | 112.4hPa | 2.6V | 08:08:00 | 00:00:00 | 00:00:00 | |
| OE5DXL-15 | 2026-09-01 12:47:10 | 48.95536 | 10.15684 | 85° | 58km/h | 15858m | -6.4m/s | -54.3°C | 4.3% | 111.6hPa | 2.6V | 08:08:00 | 00:00:00 | 00:00:00 | |
| DO3MHA-11 | 2026-09-01 12:47:09 | 48.95535 | 10.15655 | 91° | 53km/h | 15864m | -6.4m/s | -54.2°C | 4.3% | 111.5hPa | 2.6V | 00:00:00 | 02:17:37 | 00:00:00 | |
| DO3MHA-12 | 2026-09-01 12:47:08 | 48.95536 | 10.15627 | 97° | 51km/h | 15870m | -6.3m/s | -54.1°C | 4.3% | 111.4hPa | 2.6V | 00:00:00 | 02:17:36 | 00:00:00 | |
| DM7RM-13 | 2026-09-01 12:47:07 | 48.95539 | 10.15601 | 103° | 64km/h | 15877m | -6.5m/s | -54.1°C | 1.3% | 111.3hPa | 2.6V | 08:09:00 | 00:00:00 | 00:00:00 | |
| DJ8HS-15 | 2026-09-01 12:47:06 | 48.95542 | 10.15578 | 105° | 58km/h | 15883m | -6.5m/s | -53.9°C | 4.3% | 111.1hPa | 2.6V | 00:00:00 | 02:17:34 | 00:00:00 | |
| DM0DOS-11 | 2026-09-01 12:47:05 | 48.95539 | 10.15480 | 64° | 51km/h | 15923m | -6.8m/s | -54°C | 4.2% | 110.5hPa | 2.6V | 08:08:30 | 02:17:28 | 00:00:00 | |
| NBG1-10 | 2026-09-01 12:47:05 | 48.95545 | 10.15559 | 105° | 57km/h | 15890m | -6.5m/s | -53.8°C | 4.3% | 111.0hPa | 2.6V | 00:00:00 | 02:17:33 | 00:00:00 | |
| DO9HM | 2026-09-01 12:47:03 | 48.95547 | 10.15542 | 99° | 42km/h | 15897m | -6.7m/s | -53.8°C | 1.3% | 110.9hPa | 2.6V | 08:09:00 | 00:00:00 | 00:00:00 | |
| DB0ND-19 | 2026-09-01 12:47:02 | 48.95547 | 10.15512 | 76° | 38km/h | 15910m | -6.6m/s | -53.9°C | 1.2% | 110.8hPa | 2.6V | 00:00:00 | 00:00:00 | 00:00:00 | |
| DB0NH | 2026-09-01 12:47:01 | 48.95543 | 10.15497 | 69° | 58km/h | 15917m | -6.7m/s | -53.9°C | 4.2% | 110.5hPa | 2.6V | 08:08:00 | 02:17:29 | 00:00:00 | |
| DO3MHA-11 | 2026-09-01 12:46:59 | 48.95532 | 10.15460 | 66° | 71km/h | 15930m | -7.0m/s | -54.0°C | 4.2% | 110.3hPa | 2.6V | 00:00:00 | 02:17:27 | 00:00:00 | |
| DN1GJH-1 | 2026-09-01 12:46:56 | 48.95520 | 10.15413 | 73° | 73km/h | 15943m | -6.4m/s | -54.0°C | 1.2% | 110.2hPa | 2.6V | 08:09:00 | 00:00:00 | 00:00:00 | |
| DM0DOS-11 | 2026-09-01 12:46:55 | 48.95522 | 10.15219 | 108° | 57km/h | 15990m | -6.8m/s | -53.6°C | 4.2% | 109.3hPa | 2.6V | 08:08:40 | 02:17:18 | 00:00:00 | |
| HSKMA3-T | 2026-09-01 12:46:54 | 48.95510 | 10.15325 | 89° | 80km/h | 15963m | -6.7m/s | -53.8°C | 0.5% | 109.8hPa | 2.6V | 08:09:07 | 02:17:22 | 00:00:00 | |
| DL9SK-14 | 2026-09-01 12:46:52 | 48.95514 | 10.15267 | 100° | 71km/h | 15977m | -6.7m/s | -53.7°C | 1.2% | 109.6hPa | 2.6V | 00:00:00 | 00:00:00 | 00:00:00 | |
| DL6DJ-15 | 2026-09-01 12:46:47 | 48.95532 | 10.15168 | 99° | 37km/h | 16011m | -7.3m/s | -53.5°C | 1.2% | 109.0hPa | 2.6V | 00:00:00 | 00:00:00 | 00:00:00 | |
| DJ8HS-15 | 2026-09-01 12:46:46 | 48.95532 | 10.15154 | 88° | 55km/h | 16018m | -6.8m/s | -53.5°C | 4.0% | 108.8hPa | 2.6V | 00:00:00 | 02:17:14 | 00:00:00 | |
| DM0DOS-11 | 2026-09-01 12:46:45 | 48.95502 | 10.15008 | 83° | 77km/h | 16063m | -7m/s | -53.8°C | 4% | 108.1hPa | 2.6V | 08:08:51 | 02:17:07 | 00:00:00 | |
| HSKMA3-T | 2026-09-01 12:46:43 | 48.95522 | 10.15109 | 64° | 55km/h | 16038m | -6m/s | -53.6°C | 0.4% | 108.5hPa | 2.6V | 08:09:07 | 02:17:11 | 00:00:00 | |
| DO9HM | 2026-09-01 12:46:42 | 48.95522 | 10.15109 | 65° | 55km/h | 16038m | -6.0m/s | -53.6°C | 1.2% | 108.5hPa | 2.6V | 08:09:00 | 00:00:00 | 00:00:00 | |
| OE5DXL-15 | 2026-09-01 12:46:40 | 48.95505 | 10.15037 | 78° | 60km/h | 16057m | -6.9m/s | -53.8°C | 4.0% | 108.2hPa | 2.6V | 00:00:00 | 00:00:00 | 00:00:00 | |
| DO3MHA-11 | 2026-09-01 12:46:39 | 48.95501 | 10.15008 | 84° | 53km/h | 16064m | -6.9m/s | -53.8°C | 4.0% | 108.0hPa | 2.6V | 00:00:00 | 02:17:07 | 00:00:00 | |
| DO3MHA-12 | 2026-09-01 12:46:38 | 48.95501 | 10.14980 | 91° | 49km/h | 16071m | -6.9m/s | -53.7°C | 4.1% | 107.9hPa | 2.6V | 00:00:00 | 02:17:06 | 00:00:00 | |
| DN1GJH-1 | 2026-09-01 12:46:35 | 48.95504 | 10.14927 | 104° | 62km/h | 16084m | -6.3m/s | -53.7°C | 1.2% | 107.8hPa | 2.6V | 08:09:00 | 00:00:00 | 00:00:00 | |
| DM0DOS-11 | 2026-09-01 12:46:33 | 48.95502 | 10.14818 | 64° | 53km/h | 16128m | -6.7m/s | -53.8°C | 4.1% | 107hPa | 2.6V | 08:09:01 | 02:16:57 | 00:00:00 | |
| HSKMA3-T | 2026-09-01 12:46:31 | 48.95508 | 10.14834 | 64° | 44km/h | 16121m | -6.7m/s | -53.8°C | 0.4% | 107.2hPa | 2.7V | 08:09:07 | 02:16:58 | 00:00:00 | |
| DO3MHA-11 | 2026-09-01 12:46:29 | 48.95502 | 10.14818 | 65° | 71km/h | 16128m | -6.6m/s | -53.8°C | 4.1% | 107.0hPa | 2.6V | 00:00:00 | 02:16:57 | 00:00:00 | |
| DO3MHA-12 | 2026-09-01 12:46:28 | 48.95496 | 10.14798 | 68° | 71km/h | 16135m | -6.5m/s | -53.8°C | 4.1% | 106.9hPa | 2.6V | 00:00:00 | 02:16:56 | 00:00:00 | |
| DJ8HS-15 | 2026-09-01 12:46:26 | 48.95486 | 10.14748 | 78° | 68km/h | 16148m | -6.7m/s | -53.8°C | 4.1% | 106.6hPa | 2.6V | 08:09:00 | 02:16:54 | 00:00:00 | |
| SONCRA | 2026-09-01 12:46:25 | 48.95481 | 10.14689 | 87° | 78km/h | 16161m | -7.1m/s | -53.8°C | 1.1% | 106.5hPa | 2.6V | 00:00:00 | 00:00:00 | 00:00:00 | |
| DM0DOS-11 | 2026-09-01 12:46:20 | 48.95496 | 10.14550 | 109° | 60km/h | 16197m | -6.6m/s | -53.7°C | 4.2% | 105.8hPa | 2.6V | 08:09:11 | 02:16:47 | 00:00:00 | |
| HSKMA3-T | 2026-09-01 12:46:19 | 48.95496 | 10.14550 | 110° | 60km/h | 16197m | -6.6m/s | -53.7°C | 0.4% | 105.8hPa | 2.6V | 08:09:58 | 02:16:47 | 00:00:00 | |
| DO3MHA-12 | 2026-09-01 12:46:18 | 48.95501 | 10.14530 | 109° | 60km/h | 16204m | -6.3m/s | -53.6°C | 4.2% | 105.7hPa | 2.6V | 00:00:00 | 02:16:46 | 00:00:00 | |
| DL6DJ-15 | 2026-09-01 12:46:16 | 48.95504 | 10.14481 | 76° | 44km/h | 16222m | -6.4m/s | -53.9°C | 1.2% | 105.5hPa | 2.6V | 00:00:00 | 00:00:00 | 00:00:00 | |
| DM0DOS-11 | 2026-09-01 12:46:14 | 48.95483 | 10.14330 | 91° | 82km/h | 16263m | -6.9m/s | -53.6°C | 4% | 104.8hPa | 2.6V | 08:09:21 | 02:16:37 | 00:00:00 | |
| DB0UT-7 | 2026-09-01 12:46:10 | 48.95484 | 10.14361 | 85° | 58km/h | 16256m | -7.0m/s | -53.6°C | 4.0% | 104.9hPa | 2.6V | 00:00:00 | 00:00:00 | 00:00:00 | |
| DO3MHA-11 | 2026-09-01 12:46:09 | 48.95483 | 10.14330 | 92° | 58km/h | 16263m | -6.8m/s | -53.5°C | 4.0% | 104.7hPa | 2.6V | 00:00:00 | 02:16:37 | 00:00:00 | |
| DO3MHA-12 | 2026-09-01 12:46:08 | 48.95484 | 10.14299 | 98° | 55km/h | 16270m | -6.6m/s | -53.5°C | 4.0% | 104.6hPa | 2.6V | 08:09:00 | 02:16:36 | 00:00:00 | |
| DJ8HS-15 | 2026-09-01 12:46:06 | 48.95493 | 10.14243 | 109° | 58km/h | 16283m | -6.8m/s | -53.3°C | 4.1% | 104.4hPa | 2.7V | 00:00:00 | 02:16:34 | 00:00:00 | |
| DH7VM-15 | 2026-09-01 12:46:05 | 48.95499 | 10.14219 | 113° | 62km/h | 16290m | -6.9m/s | -53.2°C | 1.1% | 104.4hPa | 2.7V | 00:00:00 | 00:00:00 | 00:00:00 | |
| DM7RM-13 | 2026-09-01 12:46:04 | 48.95505 | 10.14199 | 114° | 55km/h | 16297m | -6.9m/s | -53.0°C | 1.1% | 104.3hPa | 2.7V | 08:09:00 | 00:00:00 | 00:00:00 | |
| DO9HM | 2026-09-01 12:46:02 | 48.95513 | 10.14165 | 107° | 40km/h | 16311m | -7.3m/s | -52.9°C | 1.1% | 104.0hPa | 2.7V | 08:09:00 | 00:00:00 | 00:00:00 | |
| DB0ND-19 | 2026-09-01 12:46:00 | 48.95514 | 10.14123 | 78° | 38km/h | 16332m | -6.7m/s | -53.0°C | 1.1% | 103.6hPa | 2.7V | 00:00:00 | 00:00:00 | 00:00:00 | |
| NBG1-10 | 2026-09-01 12:45:59 | 48.95514 | 10.14123 | 79° | 55km/h | 16332m | -6.6m/s | -52.9°C | 3.9% | 103.6hPa | 2.7V | 00:00:00 | 02:16:27 | 00:00:00 | |
| DO3MHA-12 | 2026-09-01 12:45:58 | 48.95511 | 10.14107 | 73° | 64km/h | 16338m | -5.9m/s | -53.0°C | 4.0% | 103.5hPa | 2.6V | 00:00:00 | 02:16:26 | 00:00:00 | |
| DM0DOS-11 | 2026-09-01 12:45:53 | 48.95475 | 10.13891 | 88° | 75km/h | 16400m | -7.4m/s | -53.3°C | 4% | 102.5hPa | 2.6V | 08:09:41 | 02:16:17 | 00:00:00 | |
| DL9SK-14 | 2026-09-01 12:45:50 | 48.95477 | 10.13920 | 83° | 75km/h | 16392m | -7.6m/s | -53.4°C | 1.1% | 102.7hPa | 2.6V | 00:00:00 | 00:00:00 | 00:00:00 | |
| DL6DJ-15 | 2026-09-01 12:45:45 | 48.95489 | 10.13773 | 110° | 42km/h | 16435m | -6.3m/s | -53.2°C | 1.1% | 102.0hPa | 2.6V | 00:00:00 | 00:00:00 | 00:00:00 | |
| HSKMA3-T | 2026-09-01 12:45:43 | 48.95492 | 10.13759 | 105° | 35km/h | 16441m | -6.7m/s | -53.2°C | 0.3% | 101.9hPa | 2.6V | 08:09:58 | 02:16:11 | 00:00:00 | |
| DO9HM | 2026-09-01 12:45:42 | 48.95493 | 10.13747 | 93° | 29km/h | 16449m | -7.1m/s | -53.1°C | 1.1% | 101.8hPa | 2.6V | 08:09:00 | 00:00:00 | 00:00:00 | |
| DM0DOS-11 | 2026-09-01 12:45:40 | 48.95485 | 10.13712 | 57° | 40km/h | 16470m | -7.5m/s | -53°C | 3.8% | 101.4hPa | 2.6V | 08:09:51 | 02:16:07 | 00:00:00 | |
| OE5DXL-15 | 2026-09-01 12:45:40 | 48.95490 | 10.13724 | 64° | 51km/h | 16463m | -7.4m/s | -53.0°C | 3.9% | 101.5hPa | 2.6V | 00:00:00 | 00:00:00 | 00:00:00 | |
| DO3MHA-11 | 2026-09-01 12:45:39 | 48.95485 | 10.13712 | 58° | 60km/h | 16470m | -7.4m/s | -52.9°C | 3.8% | 101.4hPa | 2.6V | 00:00:00 | 02:16:07 | 00:00:00 | |
| DO3MHA-12 | 2026-09-01 12:45:38 | 48.95479 | 10.13698 | 57° | 60km/h | 16478m | -7.2m/s | -52.9°C | 3.8% | 101.2hPa | 2.6V | 00:00:00 | 02:16:06 | 00:00:00 | |
| DM0DOS-11 | 2026-09-01 12:45:33 | 48.95457 | 10.13496 | 105° | 46km/h | 16539m | -7.4m/s | -52.9°C | 4.1% | 100.3hPa | 2.7V | 08:10:01 | 02:15:57 | 00:00:00 | |
| HSKMA3-T | 2026-09-01 12:45:32 | 48.95450 | 10.13561 | 92° | 66km/h | 16517m | -7.1m/s | -53°C | 0.3% | 100.7hPa | 2.6V | 08:09:58 | 02:16:00 | 00:00:00 | |
| HSKMA3-T | 2026-09-01 12:45:22 | 48.95449 | 10.13422 | 46° | 38km/h | 16589m | -7.8m/s | -52.7°C | 0.2% | 99.6hPa | 2.6V | 08:11:40 | 02:15:50 | 00:00:00 | |
| DO9HM | 2026-09-01 12:45:21 | 48.95441 | 10.13410 | 49° | 47km/h | 16597m | -7.6m/s | -52.7°C | 1.0% | 99.5hPa | 2.6V | 08:10:00 | 00:00:00 | 00:00:00 | |
| DM0DOS-11 | 2026-09-01 12:45:20 | 48.95425 | 10.13377 | 57° | 62km/h | 16611m | -7.2m/s | -52.6°C | 3.6% | 99.2hPa | 2.6V | 08:10:11 | 02:15:47 | 00:00:00 | |
| DL9SK-14 | 2026-09-01 12:45:20 | 48.95425 | 10.13377 | 57° | 60km/h | 16611m | -7.2m/s | -52.6°C | 1.0% | 99.2hPa | 2.6V | 00:00:00 | 00:00:00 | 00:00:00 | |
| DK5PH-5 | 2026-09-01 12:45:19 | 48.95425 | 10.13377 | 58° | 51km/h | 16611m | -7.1m/s | -52.5°C | 3.6% | 99.1hPa | 2.6V | 00:00:00 | 02:15:47 | 00:00:00 | |
| DO3MHA-12 | 2026-09-01 12:45:18 | 48.95417 | 10.13355 | 65° | 55km/h | 16619m | -7.3m/s | -52.5°C | 3.6% | 99.0hPa | 2.6V | 00:00:00 | 02:15:46 | 00:00:00 | |
| DM0DOS-11 | 2026-09-01 12:45:14 | 48.95416 | 10.13166 | 94° | 27km/h | 16684m | -6.8m/s | -52.4°C | 3.8% | 98.1hPa | 2.6V | 08:10:21 | 02:15:37 | 00:00:00 | |
| HSKMA3-T | 2026-09-01 12:45:11 | 48.95412 | 10.13192 | 107° | 44km/h | 16670m | -7.6m/s | -52.3°C | 0.2% | 98.3hPa | 2.7V | 08:11:40 | 02:15:39 | 00:00:00 | |
| DK7TD | 2026-09-01 12:45:04 | 48.95390 | 10.13107 | 52° | 58km/h | 16717m | -7.3m/s | 0°C | 0% | 0hPa | 2.7V | 18:12:15 | 02:15:32 | 00:00:00 | |
| HSKMA3-T | 2026-09-01 12:45:01 | 48.95360 | 10.13014 | 76° | 73km/h | 16748m | -7.6m/s | -52.8°C | 0.1% | 97.1hPa | 2.7V | 08:11:40 | 02:15:28 | 00:00:00 | |
| DB0NH | 2026-09-01 12:45:01 | 48.95365 | 10.13040 | 70° | 47km/h | 16741m | -7.6m/s | -52.8°C | 3.6% | 97.2hPa | 2.7V | 00:00:00 | 02:15:29 | 00:00:00 | |
| DM0DOS-11 | 2026-09-01 12:45:00 | 48.95356 | 10.12987 | 82° | 71km/h | 16756m | -7.5m/s | -52.7°C | 3.7% | 97hPa | 2.7V | 08:10:31 | 02:15:27 | 00:00:00 | |
| DO9HM | 2026-09-01 12:45:00 | 48.95360 | 10.13014 | 77° | 73km/h | 16748m | -7.6m/s | -52.8°C | 1.0% | 97.1hPa | 2.7V | 08:10:00 | 00:00:00 | 00:00:00 | |
| DO3MHA-11 | 2026-09-01 12:44:59 | 48.95356 | 10.12986 | 83° | 44km/h | 16756m | -7.5m/s | -52.7°C | 3.7% | 97.0hPa | 2.7V | 00:00:00 | 02:15:27 | 00:00:00 | |
| DO3MHA-12 | 2026-09-01 12:44:58 | 48.95355 | 10.12960 | 90° | 40km/h | 16763m | -7.2m/s | -52.6°C | 3.7% | 96.9hPa | 2.7V | 00:00:00 | 02:15:26 | 00:00:00 | |
| DM0DOS-11 | 2026-09-01 12:44:54 | 48.95346 | 10.12835 | 48° | 42km/h | 16827m | -7.5m/s | -52.8°C | 3.9% | 96hPa | 2.7V | 08:10:41 | 02:15:17 | 00:00:00 | |
| DL1ZP-14 | 2026-09-01 12:44:51 | 48.95352 | 10.12846 | 48° | 33km/h | 16820m | -7.5m/s | -52.7°C | 1.0% | 96.0hPa | 2.6V | 00:00:00 | 00:00:00 | 00:00:00 | |
| DK5PH-5 | 2026-09-01 12:44:49 | 48.95346 | 10.12835 | 49° | 49km/h | 16828m | -7.5m/s | -52.7°C | 3.9% | 95.9hPa | 2.6V | 00:00:00 | 02:15:17 | 00:00:00 | |
| DO3MHA-12 | 2026-09-01 12:44:48 | 48.95338 | 10.12821 | 54° | 60km/h | 16835m | -7.1m/s | -52.9°C | 4.0% | 95.8hPa | 2.6V | 00:00:00 | 02:15:16 | 00:00:00 | |
| DJ8HS-15 | 2026-09-01 12:44:46 | 48.95324 | 10.12782 | 68° | 46km/h | 16848m | -5.9m/s | -53.0°C | 3.9% | 95.6hPa | 2.6V | 00:00:00 | 02:15:14 | 00:00:00 | |
| DJTTGO | 2026-09-01 12:44:45 | 48.95323 | 10.12782 | 68° | 64km/h | 16848m | -6.0m/s | -53.1°C | 1.0% | 95.7hPa | 2.6V | 00:00:00 | 00:00:00 | 00:00:00 | |
| DM7RM-13 | 2026-09-01 12:44:42 | 48.95315 | 10.12709 | 91° | 64km/h | 16867m | -6.6m/s | -52.7°C | 1.0% | 95.4hPa | 2.6V | 08:10:00 | 00:00:00 | 00:00:00 | |
| DM0DOS-11 | 2026-09-01 12:44:41 | 48.95324 | 10.12620 | 107° | 53km/h | 16898m | -8m/s | -52.3°C | 3.8% | 94.9hPa | 2.6V | 08:10:51 | 02:15:07 | 00:00:00 | |
| DB0UT-7 | 2026-09-01 12:44:40 | 48.95320 | 10.12640 | 104° | 42km/h | 16890m | -8.1m/s | -52.4°C | 3.8% | 95.0hPa | 2.7V | 08:10:00 | 02:15:08 | 00:00:00 | |
| DO3MHA-11 | 2026-09-01 12:44:39 | 48.95324 | 10.12620 | 108° | 35km/h | 16898m | -8.0m/s | -52.3°C | 3.8% | 94.9hPa | 2.6V | 00:00:00 | 02:15:07 | 00:00:00 | |
| DO3MHA-12 | 2026-09-01 12:44:38 | 48.95328 | 10.12601 | 111° | 33km/h | 16906m | -7.4m/s | -52.3°C | 3.8% | 94.7hPa | 2.6V | 08:10:00 | 02:15:06 | 00:00:00 | |
| DB0NH | 2026-09-01 12:44:31 | 48.95332 | 10.12525 | 56° | 47km/h | 16955m | -6.4m/s | -52.4°C | 3.8% | 94.1hPa | 2.6V | 00:00:00 | 02:14:59 | 00:00:00 | |
| DM0DOS-11 | 2026-09-01 12:44:30 | 48.95321 | 10.12502 | 53° | 42km/h | 16968m | -7m/s | -52.4°C | 3.7% | 93.9hPa | 2.6V | 08:11:01 | 02:14:57 | 00:00:00 | |
| HSKMA3-T | 2026-09-01 12:44:21 | 48.95289 | 10.12348 | 98° | 57km/h | 17030m | -7.8m/s | -52.1°C | 0.1% | 93hPa | 2.6V | 08:11:40 | 02:14:49 | 00:00:00 | |
| DK7TD | 2026-09-01 12:44:10 | 48.95277 | 10.12224 | 49° | 53km/h | 17111m | -7.5m/s | 0°C | 0% | 0hPa | 2.6V | 18:12:15 | 02:14:38 | 00:00:00 | |
| OE5DXL-15 | 2026-09-01 12:44:10 | 48.95277 | 10.12224 | 49° | 53km/h | 17111m | -7.5m/s | -52.3°C | 3.6% | 91.8hPa | 2.6V | 00:00:00 | 00:00:00 | 00:00:00 | |
| DO3MHA-11 | 2026-09-01 12:44:09 | 48.95268 | 10.12207 | 55° | 62km/h | 17119m | -7.4m/s | -52.3°C | 3.6% | 91.7hPa | 2.6V | 00:00:00 | 02:14:37 | 00:00:00 | |
| DO3MHA-12 | 2026-09-01 12:44:08 | 48.95260 | 10.12187 | 62° | 58km/h | 17126m | -7.5m/s | -52.3°C | 3.6% | 91.6hPa | 2.6V | 00:00:00 | 02:14:36 | 00:00:00 | |
| DJ8HS-15 | 2026-09-01 12:44:06 | 48.95247 | 10.12139 | 76° | 53km/h | 17140m | -7.1m/s | -52.5°C | 3.6% | 91.3hPa | 2.6V | 00:00:00 | 02:14:34 | 00:00:00 | |
| DM0DOS-11 | 2026-09-01 12:44:04 | 48.95249 | 10.11987 | 103° | 35km/h | 17193m | -7.4m/s | -52.6°C | 3.9% | 90.7hPa | 2.6V | 08:11:31 | 02:14:27 | 00:00:00 | |
| HSKMA3-T | 2026-09-01 12:44:03 | 48.95241 | 10.12063 | 91° | 62km/h | 17162m | -8.2m/s | -52.5°C | 0.2% | 91.1hPa | 2.6V | 08:11:40 | 02:14:31 | 00:00:00 | |
| DF3TZ-5 | 2026-09-01 12:44:01 | 48.95247 | 10.12001 | 104° | 42km/h | 17186m | -7.5m/s | -52.6°C | 1.0% | 90.8hPa | 2.7V | 00:00:00 | 00:00:00 | 00:00:00 | |
| DB0ND-19 | 2026-09-01 12:43:56 | 48.95242 | 10.11949 | 45° | 33km/h | 17223m | -7.3m/s | -52.7°C | 1.0% | 90.2hPa | 2.7V | 00:00:00 | 00:00:00 | 00:00:00 | |
| DM0DOS-11 | 2026-09-01 12:43:54 | 48.95200 | 10.11837 | 80° | 69km/h | 17268m | -7.9m/s | -52.7°C | 3.8% | 89.7hPa | 2.7V | 08:11:41 | 02:14:17 | 00:00:00 | |
| HSKMA3-T | 2026-09-01 12:43:53 | 48.95227 | 10.11925 | 50° | 53km/h | 17237m | -7.2m/s | -52.6°C | 0.2% | 90.1hPa | 2.6V | 08:11:40 | 02:14:21 | 00:00:00 | |
| DK5PH-5 | 2026-09-01 12:43:49 | 48.95200 | 10.11836 | 81° | 38km/h | 17268m | -7.8m/s | -52.7°C | 3.8% | 89.6hPa | 2.7V | 00:00:00 | 02:14:17 | 00:00:00 | |
| DO3MHA-12 | 2026-09-01 12:43:48 | 48.95198 | 10.11810 | 88° | 44km/h | 17276m | -7.9m/s | -52.6°C | 3.9% | 89.5hPa | 2.7V | 00:00:00 | 02:14:16 | 00:00:00 | |
| NBG1-10 | 2026-09-01 12:43:47 | 48.95198 | 10.11784 | 95° | 38km/h | 17284m | -8.3m/s | -52.5°C | 3.8% | 89.4hPa | 2.7V | 00:00:00 | 02:14:15 | 00:00:00 | |
| DJ8HS-15 | 2026-09-01 12:43:46 | 48.95201 | 10.11759 | 102° | 42km/h | 17293m | -8.4m/s | -52.4°C | 3.8% | 89.3hPa | 2.7V | 00:00:00 | 02:14:14 | 00:00:00 | |
| DM0DOS-11 | 2026-09-01 12:43:44 | 48.95227 | 10.11665 | 82° | 15km/h | 17348m | -7.8m/s | -52.1°C | 3.8% | 88.5hPa | 2.7V | 08:11:51 | 02:14:07 | 00:00:00 | |
| HSKMA3-T | 2026-09-01 12:43:42 | 48.95220 | 10.11689 | 122° | 35km/h | 17325m | -8m/s | -52.1°C | 0.2% | 88.9hPa | 2.6V | 08:12:31 | 02:14:10 | 00:00:00 | |
| DL6DJ-15 | 2026-09-01 12:43:41 | 48.95226 | 10.11672 | 109° | 18km/h | 17340m | -7.9m/s | -52.1°C | 0.9% | 88.6hPa | 2.7V | 00:00:00 | 00:00:00 | 00:00:00 | |
| DB0UT-7 | 2026-09-01 12:43:40 | 48.95226 | 10.11672 | 110° | 33km/h | 17341m | -7.9m/s | -52.0°C | 3.8% | 88.6hPa | 2.7V | 00:00:00 | 02:14:08 | 00:00:00 | |
| DO3MHA-11 | 2026-09-01 12:43:39 | 48.95227 | 10.11665 | 83° | 42km/h | 17349m | -7.7m/s | -52.1°C | 3.8% | 88.5hPa | 2.7V | 00:00:00 | 02:14:07 | 00:00:00 | |
| DO3MHA-12 | 2026-09-01 12:43:38 | 48.95225 | 10.11659 | 59° | 46km/h | 17356m | -7.7m/s | -52.1°C | 3.7% | 88.4hPa | 2.7V | 00:00:00 | 02:14:06 | 00:00:00 | |
| DO9HM | 2026-09-01 12:43:37 | 48.95222 | 10.11651 | 53° | 29km/h | 17364m | -7.7m/s | -52.1°C | 1.0% | 88.3hPa | 2.6V | 08:12:00 | 00:00:00 | 00:00:00 | |
| DM0DOS-11 | 2026-09-01 12:43:34 | 48.95210 | 10.11509 | 119° | 47km/h | 17425m | -7.9m/s | -51.9°C | 3.8% | 87.5hPa | 2.6V | 08:12:01 | 02:13:57 | 00:00:00 | |
| HSKMA3-T | 2026-09-01 12:43:31 | 48.95201 | 10.11547 | 99° | 57km/h | 17409m | -7.9m/s | -52.2°C | 0.2% | 87.7hPa | 2.7V | 08:12:31 | 02:13:59 | 00:00:00 | |
| DB0NH | 2026-09-01 12:43:31 | 48.95201 | 10.11547 | 100° | 29km/h | 17409m | -7.9m/s | -52.2°C | 3.7% | 87.7hPa | 2.7V | 00:00:00 | 02:13:59 | 00:00:00 | |
| DO3MHA-11 | 2026-09-01 12:43:29 | 48.95209 | 10.11509 | 120° | 24km/h | 17425m | -7.9m/s | -51.9°C | 3.8% | 87.4hPa | 2.7V | 00:00:00 | 02:13:57 | 00:00:00 | |
| DO3MHA-12 | 2026-09-01 12:43:28 | 48.95216 | 10.11495 | 130° | 24km/h | 17433m | -7.8m/s | -51.7°C | 3.7% | 87.3hPa | 2.7V | 00:00:00 | 02:13:56 | 00:00:00 | |
| DJ8HS-15 | 2026-09-01 12:43:26 | 48.95228 | 10.11478 | 148° | 27km/h | 17449m | -7.9m/s | -51.6°C | 3.7% | 87.1hPa | 2.7V | 08:12:00 | 02:13:54 | 00:00:00 | |
| DB0ND-19 | 2026-09-01 12:43:25 | 48.95235 | 10.11472 | 139° | 5km/h | 17464m | -8.0m/s | -51.7°C | 1.0% | 87.0hPa | 2.6V | 00:00:00 | 00:00:00 | 00:00:00 | |
| DM0DOS-11 | 2026-09-01 12:43:23 | 48.95218 | 10.11451 | 46° | 37km/h | 17503m | -7.2m/s | -51.8°C | 3.5% | 86.5hPa | 2.6V | 08:12:11 | 02:13:47 | 00:00:00 | |
| HSKMA3-T | 2026-09-01 12:43:21 | 48.95229 | 10.11465 | 32° | 22km/h | 17488m | -7.8m/s | -51.7°C | 0% | 86.6hPa | 2.7V | 08:12:31 | 02:13:49 | 00:00:00 | |
| HSKMA3-T | 2026-09-01 12:43:11 | 48.95220 | 10.11329 | 156° | 26km/h | 17574m | -8.2m/s | -51.8°C | 0.1% | 85.5hPa | 2.7V | 08:12:31 | 02:13:38 | 00:00:00 | |
| DM0DOS-11 | 2026-09-01 12:43:10 | 48.95226 | 10.11326 | 172° | 18km/h | 17583m | -8.3m/s | -51.8°C | 3.6% | 85.4hPa | 2.7V | 08:12:21 | 02:13:37 | 00:00:00 | |
| DO3MHA-11 | 2026-09-01 12:43:09 | 48.95225 | 10.11326 | 173° | 24km/h | 17583m | -8.2m/s | -51.7°C | 3.6% | 85.4hPa | 2.6V | 00:00:00 | 02:13:37 | 00:00:00 | |
| DO3MHA-12 | 2026-09-01 12:43:08 | 48.95229 | 10.11327 | 197° | 26km/h | 17591m | -8.0m/s | -51.7°C | 3.6% | 85.2hPa | 2.6V | 08:12:00 | 02:13:36 | 00:00:00 | |
| DJ8HS-15 | 2026-09-01 12:43:06 | 48.95230 | 10.11332 | 314° | 24km/h | 17607m | -8.0m/s | -51.8°C | 3.5% | 85.0hPa | 2.7V | 00:00:00 | 02:13:34 | 00:00:00 | |
| DM0DOS-11 | 2026-09-01 12:43:04 | 48.95189 | 10.11299 | 67° | 38km/h | 17661m | -7.7m/s | -52.5°C | 3.5% | 84.4hPa | 2.7V | 08:12:31 | 02:13:27 | 00:00:00 | |
| HSKMA3-T | 2026-09-01 12:42:59 | 48.95189 | 10.11299 | 67° | 38km/h | 17661m | -7.7m/s | -52.5°C | 0% | 84.4hPa | 2.7V | 08:12:31 | 02:13:27 | 00:00:00 | |
| DB0ND-19 | 2026-09-01 12:42:54 | 48.95197 | 10.11246 | 183° | 11km/h | 17707m | -7.6m/s | -52.8°C | 1.0% | 83.8hPa | 2.7V | 00:00:00 | 00:00:00 | 00:00:00 | |
| DM0DOS-11 | 2026-09-01 12:42:53 | 48.95198 | 10.11261 | 309° | 16km/h | 17738m | -8.1m/s | -53.1°C | 4% | 83.3hPa | 2.7V | 08:12:41 | 02:13:17 | 00:00:00 | |
| HSKMA3-T | 2026-09-01 12:42:49 | 48.95198 | 10.11261 | 309° | 16km/h | 17738m | -8.1m/s | -53.1°C | 0.3% | 83.4hPa | 2.7V | 08:13:22 | 02:13:17 | 00:00:00 | |
| DL1ZP-14 | 2026-09-01 12:42:47 | 48.95183 | 10.11270 | 0° | 26km/h | 17763m | -9.1m/s | -53.4°C | 1.0% | 83.0hPa | 2.6V | 00:00:00 | 00:00:00 | 00:00:00 | |
| DJ8HS-15 | 2026-09-01 12:42:46 | 48.95183 | 10.11270 | 1° | 31km/h | 17763m | -9.1m/s | -53.4°C | 4.0% | 83.0hPa | 2.6V | 00:00:00 | 02:13:14 | 00:00:00 | |
| DL9SK-14 | 2026-09-01 12:42:44 | 48.95160 | 10.11255 | 43° | 40km/h | 17788m | -8.0m/s | -53.4°C | 1.0% | 82.7hPa | 2.6V | 00:00:00 | 00:00:00 | 00:00:00 | |
| DM0DOS-11 | 2026-09-01 12:42:43 | 48.95145 | 10.11195 | 92° | 44km/h | 17822m | -8.7m/s | -53.1°C | 3.7% | 82.2hPa | 2.6V | 08:12:51 | 02:13:07 | 00:00:00 | |
| HSKMA3-T | 2026-09-01 12:42:38 | 48.95146 | 10.11178 | 104° | 42km/h | 17830m | -8.8m/s | -53.1°C | 0.2% | 82.1hPa | 2.7V | 08:13:22 | 02:13:06 | 00:00:00 | |
| DO3MHA-12 | 2026-09-01 12:42:38 | 48.95146 | 10.11178 | 104° | 24km/h | 17831m | -8.8m/s | -53.0°C | 3.8% | 82.1hPa | 2.7V | 00:00:00 | 02:13:06 | 00:00:00 | |
| DO9HM | 2026-09-01 12:42:34 | 48.95160 | 10.11142 | 140° | 29km/h | 17856m | -8.2m/s | -53.2°C | 1.1% | 81.8hPa | 2.6V | 08:13:00 | 00:00:00 | 00:00:00 | |
| DM0DOS-11 | 2026-09-01 12:42:32 | 48.95163 | 10.11127 | 32° | 27km/h | 17903m | -8m/s | -53.6°C | 4% | 81.2hPa | 2.6V | 08:13:01 | 02:12:57 | 00:00:00 | |
| DK7TD | 2026-09-01 12:42:29 | 48.95163 | 10.11127 | 33° | 27km/h | 17903m | -8m/s | -53.6°C | 0.3% | 81.2hPa | 2.6V | 08:15:04 | 02:12:57 | 00:00:00 | |
| HSKMA3-T | 2026-09-01 12:42:27 | 48.95150 | 10.11107 | 53° | 46km/h | 17920m | -8.3m/s | -53.5°C | 0.1% | 81hPa | 2.7V | 08:13:22 | 02:12:55 | 00:00:00 | |
| DJ8HS-15 | 2026-09-01 12:42:26 | 48.95143 | 10.11092 | 62° | 38km/h | 17928m | -8.5m/s | -53.4°C | 3.8% | 80.9hPa | 2.7V | 00:00:00 | 02:12:54 | 00:00:00 | |
| OE9MKV-15 | 2026-09-01 12:42:25 | 48.95138 | 10.11073 | 72° | 33km/h | 17937m | -9.1m/s | -53.4°C | 3.7% | 80.7hPa | 2.7V | 00:00:00 | 02:12:53 | 00:00:00 | |
| DB0ND-19 | 2026-09-01 12:42:23 | 48.95134 | 10.11009 | 98° | 55km/h | 17963m | -8.0m/s | -53.5°C | 1.0% | 80.5hPa | 2.6V | 00:00:00 | 00:00:00 | 00:00:00 | |
| DM0DOS-11 | 2026-09-01 12:42:20 | 48.95147 | 10.10958 | 127° | 37km/h | 17986m | -7.5m/s | -53.6°C | 4.1% | 80.2hPa | 2.6V | 08:13:11 | 02:12:47 | 00:00:00 | |
| HSKMA3-T | 2026-09-01 12:42:16 | 48.95160 | 10.10939 | 134° | 11km/h | 18011m | -8.8m/s | -53.7°C | 0.3% | 79.9hPa | 2.7V | 08:13:22 | 02:12:44 | 00:00:00 | |
| DL1ZP-14 | 2026-09-01 12:42:16 | 48.95161 | 10.10937 | 85° | 5km/h | 18019m | -9.0m/s | -53.6°C | 1.0% | 79.8hPa | 2.7V | 00:00:00 | 00:00:00 | 00:00:00 | |
| OE5WHR-10 | 2026-09-01 12:42:13 | 48.95156 | 10.10932 | 30° | 29km/h | 18038m | -9.0m/s | -53.6°C | 4.0% | 79.5hPa | 2.7V | 00:00:00 | 02:12:41 | 00:00:00 | |
| DM0DOS-11 | 2026-09-01 12:42:09 | 48.95132 | 10.10894 | 61° | 49km/h | 18071m | -7.7m/s | -54°C | 4% | 79.1hPa | 2.7V | 08:13:21 | 02:12:37 | 00:00:00 | |
| DK7TD | 2026-09-01 12:42:09 | 48.95132 | 10.10894 | 61° | 49km/h | 18071m | -7.7m/s | -54°C | 0.3% | 79.1hPa | 2.7V | 08:15:04 | 02:12:37 | 00:00:00 | |
| HSKMA3-T | 2026-09-01 12:42:05 | 48.95126 | 10.10817 | 107° | 49km/h | 18103m | -8.6m/s | -54.1°C | 0.5% | 78.7hPa | 2.7V | 08:14:13 | 02:12:33 | 00:00:00 | |
| DB0NH | 2026-09-01 12:42:01 | 48.95146 | 10.10775 | 160° | 37km/h | 18135m | -7.6m/s | -53.6°C | 4.3% | 78.3hPa | 2.7V | 00:00:00 | 02:12:29 | 00:00:00 | |
| DM0DOS-11 | 2026-09-01 12:41:59 | 48.95149 | 10.10776 | 309° | 4km/h | 18151m | -8.8m/s | -53.5°C | 4.3% | 78.1hPa | 2.7V | 08:13:31 | 02:12:27 | 00:00:00 | |
| DK7TD | 2026-09-01 12:41:56 | 48.95137 | 10.10774 | 24° | 29km/h | 18177m | -8.4m/s | -53.3°C | 0.3% | 77.8hPa | 2.6V | 08:15:04 | 02:12:24 | 00:00:00 | |
| HSKMA3-T | 2026-09-01 12:41:55 | 48.95130 | 10.10768 | 36° | 37km/h | 18185m | -8.1m/s | -53.2°C | 0.3% | 77.7hPa | 2.6V | 08:14:13 | 02:12:23 | 00:00:00 | |
| HSKMA3-T | 2026-09-01 12:41:44 | 48.95140 | 10.10599 | 144° | 27km/h | 18279m | -8.2m/s | -52.7°C | 0.3% | 76.6hPa | 2.7V | 08:14:13 | 02:12:12 | 00:00:00 | |
| DK7TD | 2026-09-01 12:41:38 | 48.95130 | 10.10565 | 56° | 42km/h | 18326m | -9.2m/s | -53.3°C | 0.3% | 76hPa | 2.7V | 08:15:04 | 02:12:06 | 00:00:00 | |
| HSKMA3-T | 2026-09-01 12:41:33 | 48.95120 | 10.10468 | 105° | 57km/h | 18368m | -7.9m/s | -52.7°C | 0.3% | 75.6hPa | 2.7V | 08:14:13 | 02:12:01 | 00:00:00 | |
| DM0DOS-11 | 2026-09-01 12:41:32 | 48.95142 | 10.10413 | 139° | 26km/h | 18401m | -8.2m/s | -51.8°C | 3.8% | 75.2hPa | 2.6V | 08:14:01 | 02:11:57 | 00:00:00 | |
| DK7TD | 2026-09-01 12:41:23 | 48.95135 | 10.10394 | 24° | 31km/h | 18450m | -8m/s | -51.6°C | 0% | 74.6hPa | 2.6V | 08:15:04 | 02:11:51 | 00:00:00 | |
| HSKMA3-T | 2026-09-01 12:41:22 | 48.95127 | 10.10389 | 30° | 37km/h | 18458m | -8.2m/s | -51.7°C | 0% | 74.5hPa | 2.7V | 08:14:13 | 02:11:50 | 00:00:00 | |
| DM0DOS-11 | 2026-09-01 12:41:22 | 48.95102 | 10.10358 | 49° | 49km/h | 18483m | -9.1m/s | -51.8°C | 3.5% | 74.2hPa | 2.6V | 08:14:11 | 02:11:47 | 00:00:00 | |
| HSKMA3-T | 2026-09-01 12:41:11 | 48.95086 | 10.10226 | 111° | 24km/h | 18551m | -8.4m/s | -52.1°C | 0.2% | 73.4hPa | 2.7V | 08:15:04 | 02:11:39 | 00:00:00 | |
| DM0DOS-11 | 2026-09-01 12:41:10 | 48.95088 | 10.10216 | 59° | 7km/h | 18568m | -7.8m/s | -52.2°C | 3.9% | 73.2hPa | 2.6V | 08:14:21 | 02:11:37 | 00:00:00 | |
| OE5DXL-15 | 2026-09-01 12:41:10 | 48.95088 | 10.10219 | 105° | 38km/h | 18560m | -8.4m/s | -52.2°C | 3.9% | 73.3hPa | 2.7V | 00:00:00 | 00:00:00 | 00:00:00 | |
| DO3MHA-11 | 2026-09-01 12:41:09 | 48.95088 | 10.10216 | 60° | 38km/h | 18568m | -7.8m/s | -52.2°C | 3.9% | 73.2hPa | 2.6V | 00:00:00 | 02:11:37 | 00:00:00 | |
| DO3MHA-12 | 2026-09-01 12:41:08 | 48.95086 | 10.10214 | 4° | 44km/h | 18576m | -8.0m/s | -52.2°C | 3.9% | 73.1hPa | 2.6V | 00:00:00 | 02:11:36 | 00:00:00 | |
| DJ8HS-15 | 2026-09-01 12:41:06 | 48.95075 | 10.10214 | 4° | 40km/h | 18592m | -8.4m/s | -52.2°C | 3.8% | 72.9hPa | 2.7V | 00:00:00 | 02:11:34 | 00:00:00 | |
| DL6DJ-15 | 2026-09-01 12:41:05 | 48.95066 | 10.10213 | 8° | 38km/h | 18600m | -8.3m/s | -52.2°C | 0.9% | 72.9hPa | 2.7V | 00:00:00 | 00:00:00 | 00:00:00 | |
| DM0DOS-11 | 2026-09-01 12:41:02 | 48.95000 | 10.10146 | 58° | 62km/h | 18653m | -8.7m/s | -52.4°C | 3.7% | 72.2hPa | 2.7V | 08:14:31 | 02:11:27 | 00:00:00 | |
| DK7TD | 2026-09-01 12:41:02 | 48.95033 | 10.10194 | 30° | 57km/h | 18628m | -8.8m/s | -52.3°C | 0.1% | 72.5hPa | 2.6V | 08:15:04 | 02:11:30 | 00:00:00 | |
| HSKMA3-T | 2026-09-01 12:41:00 | 48.95009 | 10.10165 | 48° | 62km/h | 18645m | -8.5m/s | -52.4°C | 0.1% | 72.3hPa | 2.7V | 08:15:04 | 02:11:28 | 00:00:00 | |
| DK7TD | 2026-09-01 12:40:52 | 48.94990 | 10.10033 | 104° | 16km/h | 18714m | -8.8m/s | -52°C | 0.1% | 71.6hPa | 2.6V | 08:15:04 | 02:11:20 | 00:00:00 | |
| HSKMA3-T | 2026-09-01 12:40:50 | 48.94989 | 10.10026 | 18° | 11km/h | 18731m | -8.4m/s | -52.1°C | 0.1% | 71.4hPa | 2.6V | 08:15:04 | 02:11:18 | 00:00:00 | |
| DB0ND-19 | 2026-09-01 12:40:49 | 48.94985 | 10.10025 | 5° | 20km/h | 18739m | -8.4m/s | -52.2°C | 0.9% | 71.3hPa | 2.6V | 00:00:00 | 00:00:00 | 00:00:00 | |
| DK7TD | 2026-09-01 12:40:41 | 48.94917 | 10.09942 | 76° | 51km/h | 18807m | -8.3m/s | -52.6°C | 0.3% | 70.6hPa | 2.6V | 08:15:04 | 02:11:09 | 00:00:00 | |
| HSKMA3-T | 2026-09-01 12:40:33 | 48.94925 | 10.09888 | 309° | 16km/h | 18875m | -9.1m/s | -51.6°C | 0.1% | 69.8hPa | 2.7V | 08:15:04 | 02:11:01 | 00:00:00 | |
| DM0DOS-11 | 2026-09-01 12:40:31 | 48.94897 | 10.09899 | 9° | 40km/h | 18911m | -8.2m/s | -51.9°C | 3.7% | 69.5hPa | 2.7V | 08:15:01 | 02:10:57 | 00:00:00 | |
| DK7TD | 2026-09-01 12:40:30 | 48.94907 | 10.09900 | 355° | 35km/h | 18902m | -8.5m/s | -51.8°C | 0.2% | 69.5hPa | 2.6V | 08:15:04 | 02:10:58 | 00:00:00 | |
| HSKMA3-T | 2026-09-01 12:40:23 | 48.94854 | 10.09830 | 82° | 40km/h | 18964m | -9.3m/s | -51.9°C | 0.1% | 68.9hPa | 2.7V | 08:15:55 | 02:10:51 | 00:00:00 | |
| DM0DOS-11 | 2026-09-01 12:40:20 | 48.94864 | 10.09788 | 150° | 20km/h | 19001m | -8.9m/s | -51.5°C | 3.7% | 68.5hPa | 2.7V | 08:15:11 | 02:10:47 | 00:00:00 | |
| DK7TD | 2026-09-01 12:40:19 | 48.94864 | 10.09788 | 150° | 20km/h | 19001m | -8.9m/s | -51.5°C | 0.2% | 68.5hPa | 2.7V | 08:15:55 | 02:10:47 | 00:00:00 | |
| HSKMA3-T | 2026-09-01 12:40:13 | 48.94852 | 10.09802 | 11° | 35km/h | 19063m | -8.6m/s | -51.7°C | 0.1% | 67.8hPa | 2.7V | 08:15:55 | 02:10:40 | 00:00:00 | |
| IW2NTF | 2026-09-01 12:40:13 | 48.94827 | 10.09777 | 51° | 46km/h | 19090m | -9m/s | -51.5°C | 3.4% | 67.6hPa | 2.6V | 08:30:00 | 02:10:37 | 00:00:00 | |
| DK7TD | 2026-09-01 12:40:09 | 48.94827 | 10.09777 | 51° | 46km/h | 19090m | -9m/s | -51.5°C | 0% | 67.6hPa | 2.6V | 08:15:55 | 02:10:37 | 00:00:00 | |
| HSKMA3-T | 2026-09-01 12:40:02 | 48.94825 | 10.09683 | 144° | 22km/h | 19149m | -8.4m/s | -51.6°C | 0.1% | 67hPa | 2.7V | 08:15:55 | 02:10:30 | 00:00:00 | |
| DB0NH | 2026-09-01 12:40:01 | 48.94830 | 10.09680 | 164° | 29km/h | 19158m | -9.3m/s | -51.7°C | 3.7% | 66.8hPa | 2.6V | 00:00:00 | 02:10:29 | 00:00:00 | |
| DM0DOS-11 | 2026-09-01 12:40:00 | 48.94835 | 10.09687 | 280° | 16km/h | 19186m | -8.9m/s | -51.6°C | 3.6% | 66.6hPa | 2.6V | 08:15:32 | 02:10:26 | 00:00:00 | |
| DK7TD | 2026-09-01 12:39:59 | 48.94835 | 10.09682 | 242° | 11km/h | 19177m | -8.8m/s | -51.7°C | 0.1% | 66.7hPa | 2.6V | 08:15:55 | 02:10:27 | 00:00:00 | |
| HSKMA3-T | 2026-09-01 12:39:52 | 48.94798 | 10.09708 | 16° | 40km/h | 19240m | -9.1m/s | -52.1°C | 0% | 66hPa | 2.7V | 08:15:55 | 02:10:20 | 00:00:00 | |
| DM0DOS-11 | 2026-09-01 12:39:50 | 48.94769 | 10.09668 | 72° | 37km/h | 19277m | -9.3m/s | -52.2°C | 3.5% | 65.6hPa | 2.7V | 08:15:42 | 02:10:16 | 00:00:00 | |
| DK7TD | 2026-09-01 12:39:48 | 48.94769 | 10.09668 | 72° | 37km/h | 19277m | -9.3m/s | -52.2°C | 0% | 65.6hPa | 2.7V | 08:15:55 | 02:10:16 | 00:00:00 | |
| DL8DAS-14 | 2026-09-01 12:39:47 | 48.94767 | 10.09655 | 87° | 33km/h | 19286m | -8.6m/s | -52.2°C | 0.9% | 65.5hPa | 2.7V | 00:00:00 | 00:00:00 | 00:00:00 | |
| HSKMA3-T | 2026-09-01 12:39:41 | 48.94785 | 10.09631 | 241° | 15km/h | 19338m | -10m/s | -52.7°C | 0.3% | 65hPa | 2.7V | 08:15:55 | 02:10:09 | 00:00:00 | |
| PG1ADW-2 | 2026-09-01 12:39:41 | 48.94785 | 10.09630 | 242° | 26km/h | 19338m | -9.9m/s | -52.7°C | 3.9% | 65.0hPa | 2.7V | 00:00:00 | 02:10:09 | 00:00:00 | |
| DM0DOS-11 | 2026-09-01 12:39:40 | 48.94782 | 10.09654 | 309° | 29km/h | 19367m | -10m/s | -52.8°C | 3.8% | 64.7hPa | 2.7V | 08:15:52 | 02:10:06 | 00:00:00 | |
| DK7TD | 2026-09-01 12:39:38 | 48.94782 | 10.09654 | 309° | 29km/h | 19367m | -10m/s | -52.8°C | 0.2% | 64.7hPa | 2.7V | 08:15:55 | 02:10:06 | 00:00:00 | |
| HSKMA3-T | 2026-09-01 12:39:31 | 48.94724 | 10.09647 | 57° | 37km/h | 19431m | -9m/s | -53.2°C | 0.2% | 64.1hPa | 2.7V | 08:17:37 | 02:09:59 | 00:00:00 | |
| DB0NH | 2026-09-01 12:39:31 | 48.94724 | 10.09647 | 58° | 29km/h | 19431m | -8.9m/s | -53.1°C | 3.8% | 64.1hPa | 2.7V | 00:00:00 | 02:09:59 | 00:00:00 | |
| DM0DOS-11 | 2026-09-01 12:39:30 | 48.94721 | 10.09614 | 114° | 24km/h | 19459m | -9.1m/s | -53.2°C | 3.8% | 63.8hPa | 2.6V | 08:16:02 | 02:09:56 | 00:00:00 | |
| DK7TD | 2026-09-01 12:39:27 | 48.94724 | 10.09608 | 142° | 20km/h | 19468m | -9.4m/s | -53.2°C | 0.2% | 63.7hPa | 2.7V | 08:16:46 | 02:09:55 | 00:00:00 | |
| OE9MKV-15 | 2026-09-01 12:39:25 | 48.94733 | 10.09607 | 211° | 35km/h | 19487m | -9.4m/s | -53.2°C | 3.9% | 63.5hPa | 2.6V | 00:00:00 | 02:09:53 | 00:00:00 | |
| NBG1-10 | 2026-09-01 12:39:23 | 48.94738 | 10.09621 | 264° | 35km/h | 19505m | -8.4m/s | -53.4°C | 4.0% | 63.3hPa | 2.6V | 08:16:00 | 02:09:51 | 00:00:00 | |
| DN1GJH-1 | 2026-09-01 12:39:22 | 48.94738 | 10.09621 | 265° | 26km/h | 19505m | -8.5m/s | -53.4°C | 1.0% | 63.3hPa | 2.6V | 08:16:00 | 00:00:00 | 00:00:00 | |
| DM0DOS-11 | 2026-09-01 12:39:21 | 48.94711 | 10.09667 | 347° | 40km/h | 19550m | -9.8m/s | -53.9°C | 3.9% | 62.9hPa | 2.6V | 08:16:12 | 02:09:46 | 00:00:00 | |
| HSKMA3-T | 2026-09-01 12:39:20 | 48.94728 | 10.09654 | 318° | 38km/h | 19531m | -8.8m/s | -53.6°C | 0.3% | 63.1hPa | 2.7V | 08:17:37 | 02:09:48 | 00:00:00 | |
| DK7TD | 2026-09-01 12:39:17 | 48.94701 | 10.09668 | 1° | 40km/h | 19559m | -9.2m/s | -54°C | 0.3% | 62.8hPa | 2.6V | 08:16:46 | 02:09:45 | 00:00:00 | |
| DL8DAS-14 | 2026-09-01 12:39:16 | 48.94691 | 10.09666 | 16° | 42km/h | 19568m | -8.8m/s | -54.0°C | 1.0% | 62.7hPa | 2.6V | 00:00:00 | 00:00:00 | 00:00:00 | |
| OE5WHR-10 | 2026-09-01 12:39:12 | 48.94664 | 10.09626 | 73° | 31km/h | 19606m | -9.8m/s | -54.2°C | 3.9% | 62.3hPa | 2.6V | 00:00:00 | 00:00:00 | 00:00:00 | |
| DM0DOS-11 | 2026-09-01 12:39:10 | 48.94669 | 10.09598 | 187° | 13km/h | 19644m | -9.1m/s | -54.5°C | 4.3% | 61.9hPa | 2.6V | 08:16:22 | 02:09:36 | 00:00:00 | |
| HSKMA3-T | 2026-09-01 12:39:09 | 48.94666 | 10.09600 | 140° | 16km/h | 19635m | -9.2m/s | -54.4°C | 0.4% | 62.1hPa | 2.7V | 08:17:37 | 02:09:37 | 00:00:00 | |
| DK7TD | 2026-09-01 12:39:07 | 48.94672 | 10.09601 | 234° | 15km/h | 19653m | -8.7m/s | -54.6°C | 0.5% | 61.9hPa | 2.6V | 08:16:46 | 02:09:35 | 00:00:00 | |
| DO9HM | 2026-09-01 12:39:07 | 48.94671 | 10.09601 | 235° | 15km/h | 19653m | -8.7m/s | -54.6°C | 1.1% | 61.9hPa | 2.7V | 00:00:00 | 00:00:00 | 00:00:00 | |
| DL9SK-14 | 2026-09-01 12:39:06 | 48.94673 | 10.09607 | 268° | 18km/h | 19662m | -9.4m/s | -54.7°C | 1.1% | 61.8hPa | 2.7V | 00:00:00 | 00:00:00 | 00:00:00 | |
| DB0UT-7 | 2026-09-01 12:39:04 | 48.94668 | 10.09625 | 308° | 40km/h | 19681m | -9.4m/s | -54.7°C | 4.3% | 61.6hPa | 2.7V | 00:00:00 | 00:00:00 | 00:00:00 | |
| DM0DOS-11 | 2026-09-01 12:39:03 | 48.94607 | 10.09640 | 25° | 49km/h | 19737m | -9.6m/s | -55.1°C | 4.2% | 61.1hPa | 2.7V | 08:16:32 | 02:09:26 | 00:00:00 | |
| HSKMA3-T | 2026-09-01 12:38:58 | 48.94597 | 10.09630 | 38° | 47km/h | 19747m | -9.4m/s | -55.1°C | 0.4% | 61hPa | 2.7V | 08:17:37 | 02:09:25 | 00:00:00 | |
| DK7TD | 2026-09-01 12:38:57 | 48.94588 | 10.09618 | 50° | 46km/h | 19756m | -9.4m/s | -55°C | 0.4% | 60.9hPa | 2.6V | 08:16:46 | 02:09:24 | 00:00:00 | |
| HSKMA3-T | 2026-09-01 12:38:47 | 48.94572 | 10.09566 | 334° | 31km/h | 19851m | -9.2m/s | -55.5°C | 0.7% | 60hPa | 2.7V | 08:17:37 | 02:09:14 | 00:00:00 | |
| DL8DAS-14 | 2026-09-01 12:38:46 | 48.94563 | 10.09570 | 348° | 38km/h | 19860m | -9.8m/s | -55.4°C | 1.2% | 59.9hPa | 2.6V | 00:00:00 | 00:00:00 | 00:00:00 | |
| DK7TD | 2026-09-01 12:38:43 | 48.94540 | 10.09570 | 11° | 51km/h | 19880m | -10.1m/s | -55.4°C | 0.7% | 59.7hPa | 2.6V | 08:17:37 | 02:09:11 | 00:00:00 | |
| HSKMA3-T | 2026-09-01 12:38:37 | 48.94481 | 10.09484 | 75° | 55km/h | 19940m | -9.7m/s | -54.8°C | 0.5% | 59.1hPa | 2.6V | 08:17:37 | 02:09:05 | 00:00:00 | |
| DK7TD | 2026-09-01 12:38:32 | 48.94486 | 10.09415 | 131° | 16km/h | 19990m | -9.8m/s | -54.5°C | 0.5% | 58.7hPa | 2.6V | 08:17:37 | 02:09:00 | 00:00:00 | |
| DB0NH | 2026-09-01 12:38:31 | 48.94488 | 10.09412 | 156° | 37km/h | 20000m | -10.0m/s | -54.4°C | 4.4% | 58.5hPa | 2.6V | 00:00:00 | 02:08:59 | 00:00:00 | |
| DM0DOS-11 | 2026-09-01 12:38:30 | 48.94485 | 10.09417 | 333° | 20km/h | 20030m | -10m/s | -54.5°C | 4.4% | 58.3hPa | 2.6V | 08:17:02 | 02:08:56 | 00:00:00 | |
| DK7TD | 2026-09-01 12:38:22 | 48.94431 | 10.09388 | 51° | 57km/h | 20088m | -9.7m/s | -54.6°C | 0.5% | 57.8hPa | 2.6V | 08:17:37 | 02:08:50 | 00:00:00 | |
| DN1GJH-1 | 2026-09-01 12:38:21 | 48.94430 | 10.09388 | 52° | 57km/h | 20088m | -9.7m/s | -54.6°C | 1.1% | 57.8hPa | 2.7V | 08:17:00 | 00:00:00 | 00:00:00 | |
| DO9HM | 2026-09-01 12:38:19 | 48.94418 | 10.09350 | 74° | 55km/h | 20108m | -10.5m/s | -54.5°C | 1.1% | 57.6hPa | 2.7V | 08:17:00 | 00:00:00 | 00:00:00 | |
| DM0DOS-11 | 2026-09-01 12:38:18 | 48.94415 | 10.09311 | 94° | 49km/h | 20129m | -10.2m/s | -54.2°C | 4.3% | 57.4hPa | 2.7V | 08:17:12 | 02:08:46 | 00:00:00 | |
| HSKMA3-T | 2026-09-01 12:38:14 | 48.94430 | 10.09263 | 151° | 20km/h | 20168m | -9.4m/s | -53.6°C | 0.5% | 57.1hPa | 2.7V | 08:17:37 | 02:08:42 | 00:00:00 | |
| DM0DOS-11 | 2026-09-01 12:38:11 | 48.94416 | 10.09271 | 4° | 38km/h | 20227m | -10m/s | -53.6°C | 4.2% | 56.5hPa | 2.7V | 08:17:22 | 02:08:36 | 00:00:00 | |
| DK7TD | 2026-09-01 12:38:06 | 48.94395 | 10.09261 | 26° | 49km/h | 20246m | -9.5m/s | -53.6°C | 0.4% | 56.4hPa | 2.6V | 08:17:37 | 02:08:34 | 00:00:00 | |
| HSKMA3-T | 2026-09-01 12:38:01 | 48.94355 | 10.09180 | 78° | 55km/h | 20295m | -10.5m/s | -53.2°C | 0.3% | 55.9hPa | 2.6V | 08:17:37 | 02:08:29 | 00:00:00 | |
| DB0NH | 2026-09-01 12:38:01 | 48.94355 | 10.09180 | 78° | 35km/h | 20296m | -10.5m/s | -53.2°C | 3.9% | 55.9hPa | 2.6V | 08:17:00 | 02:08:29 | 00:00:00 | |
| DM0DOS-11 | 2026-09-01 12:38:00 | 48.94356 | 10.09123 | 109° | 42km/h | 20327m | -9.9m/s | -53.2°C | 4% | 55.6hPa | 2.7V | 08:17:32 | 02:08:26 | 00:00:00 | |
| DK7TD | 2026-09-01 12:37:55 | 48.94370 | 10.09095 | 151° | 20km/h | 20356m | -9.8m/s | -53.2°C | 0.4% | 55.4hPa | 2.6V | 08:17:37 | 02:08:23 | 00:00:00 | |
| OE9MKV-15 | 2026-09-01 12:37:55 | 48.94373 | 10.09093 | 180° | 31km/h | 20366m | -9.9m/s | -53.1°C | 4.1% | 55.3hPa | 2.7V | 00:00:00 | 02:08:22 | 00:00:00 | |
| DM0DOS-11 | 2026-09-01 12:37:53 | 48.94349 | 10.09089 | 34° | 42km/h | 20425m | -9.3m/s | -53°C | 3.9% | 54.9hPa | 2.7V | 08:17:42 | 02:08:16 | 00:00:00 | |
| HSKMA3-T | 2026-09-01 12:37:49 | 48.94357 | 10.09096 | 20° | 35km/h | 20416m | -9.7m/s | -52.9°C | 0.3% | 54.9hPa | 2.7V | 08:18:28 | 02:08:17 | 00:00:00 | |
| DK7TD | 2026-09-01 12:37:44 | 48.94326 | 10.09025 | 87° | 51km/h | 20463m | -9.4m/s | -52.7°C | 0.2% | 54.5hPa | 2.6V | 08:20:10 | 02:08:12 | 00:00:00 | |
| NBG1-10 | 2026-09-01 12:37:44 | 48.94326 | 10.09025 | 87° | 33km/h | 20463m | -9.4m/s | -52.7°C | 3.7% | 54.5hPa | 2.6V | 00:00:00 | 02:08:12 | 00:00:00 | |
| DL8DAS-14 | 2026-09-01 12:37:43 | 48.94327 | 10.09006 | 97° | 49km/h | 20473m | -9.4m/s | -52.8°C | 0.9% | 54.5hPa | 2.6V | 00:00:00 | 00:00:00 | 00:00:00 | |
| DM0DOS-11 | 2026-09-01 12:37:41 | 48.94356 | 10.08945 | 165° | 33km/h | 20524m | -10.4m/s | -52.8°C | 4% | 54hPa | 2.6V | 08:17:52 | 02:08:06 | 00:00:00 | |
| HSKMA3-T | 2026-09-01 12:37:39 | 48.94348 | 10.08950 | 149° | 37km/h | 20514m | -10.1m/s | -52.7°C | 0.3% | 54.1hPa | 2.6V | 08:18:28 | 02:08:07 | 00:00:00 | |
| DK7TD | 2026-09-01 12:37:31 | 48.94355 | 10.08977 | 9° | 33km/h | 20605m | -9.9m/s | -53.3°C | 0.2% | 53.3hPa | 2.6V | 08:20:10 | 02:07:58 | 00:00:00 | |
| DM0DOS-11 | 2026-09-01 12:37:30 | 48.94340 | 10.08964 | 45° | 38km/h | 20625m | -9.7m/s | -53.4°C | 3.8% | 53.1hPa | 2.7V | 08:18:02 | 02:07:56 | 00:00:00 | |
| HSKMA3-T | 2026-09-01 12:37:30 | 48.94347 | 10.08972 | 27° | 37km/h | 20615m | -9.7m/s | -53.3°C | 0.2% | 53.2hPa | 2.7V | 08:18:28 | 02:07:57 | 00:00:00 | |
| DO3MHA-11 | 2026-09-01 12:37:29 | 48.94347 | 10.08972 | 28° | 35km/h | 20615m | -9.6m/s | -53.3°C | 3.8% | 53.2hPa | 2.7V | 00:00:00 | 02:07:57 | 00:00:00 | |
| DL6DJ-15 | 2026-09-01 12:37:28 | 48.94334 | 10.08951 | 61° | 40km/h | 20635m | -9.6m/s | -53.4°C | 0.9% | 53.1hPa | 2.7V | 00:00:00 | 00:00:00 | 00:00:00 | |
| OE5WHR-10 | 2026-09-01 12:37:27 | 48.94334 | 10.08951 | 62° | 31km/h | 20635m | -9.5m/s | -53.3°C | 3.9% | 53.0hPa | 2.7V | 00:00:00 | 00:00:00 | 00:00:00 | |
| DB0UT-7 | 2026-09-01 12:37:24 | 48.94332 | 10.08907 | 114° | 33km/h | 20665m | -10.2m/s | -53.4°C | 4.0% | 52.8hPa | 2.7V | 00:00:00 | 02:07:52 | 00:00:00 | |
| DG9SBQ-11 | 2026-09-01 12:37:23 | 48.94332 | 10.08907 | 114° | 37km/h | 20665m | -10.3m/s | -53.4°C | 1.0% | 52.8hPa | 2.7V | 08:18:00 | 00:00:00 | 00:00:00 | |
| DM0DOS-11 | 2026-09-01 12:37:20 | 48.94363 | 10.08897 | 262° | 20km/h | 20724m | -10.1m/s | -53.6°C | 4.4% | 52.3hPa | 2.7V | 08:18:12 | 02:07:46 | 00:00:00 | |
| DK7TD | 2026-09-01 12:37:19 | 48.94360 | 10.08890 | 230° | 22km/h | 20714m | -10.1m/s | -53.5°C | 0.5% | 52.4hPa | 2.6V | 08:20:10 | 02:07:47 | 00:00:00 | |
| DO3MHA-11 | 2026-09-01 12:37:19 | 48.94360 | 10.08890 | 230° | 35km/h | 20715m | -10.0m/s | -53.5°C | 4.3% | 52.4hPa | 2.6V | 00:00:00 | 02:07:47 | 00:00:00 | |
| HSKMA3-T | 2026-09-01 12:37:19 | 48.94363 | 10.08897 | 262° | 20km/h | 20724m | -10.1m/s | -53.6°C | 0.6% | 52.3hPa | 2.7V | 08:18:28 | 02:07:46 | 00:00:00 | |
| DO3MHA-12 | 2026-09-01 12:37:18 | 48.94362 | 10.08897 | 263° | 37km/h | 20725m | -10.1m/s | -53.6°C | 4.4% | 52.3hPa | 2.7V | 00:00:00 | 02:07:46 | 00:00:00 | |
| DJ8HS-15 | 2026-09-01 12:37:17 | 48.94362 | 10.08904 | 298° | 35km/h | 20735m | -10.2m/s | -53.6°C | 4.4% | 52.2hPa | 2.7V | 00:00:00 | 02:07:45 | 00:00:00 | |
| DO9HM | 2026-09-01 12:37:16 | 48.94361 | 10.08904 | 298° | 22km/h | 20735m | -10.2m/s | -53.7°C | 1.1% | 52.2hPa | 2.7V | 08:18:00 | 00:00:00 | 00:00:00 | |
| DM0DOS-11 | 2026-09-01 12:37:14 | 48.94303 | 10.08836 | 88° | 49km/h | 20824m | -10.5m/s | -53.3°C | 4.1% | 51.5hPa | 2.7V | 08:18:22 | 02:07:36 | 00:00:00 | |
| DK7TD | 2026-09-01 12:37:09 | 48.94305 | 10.08855 | 76° | 51km/h | 20814m | -10.4m/s | -53.4°C | 0.4% | 51.6hPa | 2.6V | 08:20:10 | 02:07:37 | 00:00:00 | |
| HSKMA3-T | 2026-09-01 12:37:08 | 48.94304 | 10.08818 | 101° | 47km/h | 20835m | -11m/s | -53.2°C | 0.4% | 51.4hPa | 2.7V | 08:18:28 | 02:07:35 | 00:00:00 | |
| DO3MHA-12 | 2026-09-01 12:37:08 | 48.94303 | 10.08836 | 89° | 31km/h | 20824m | -10.5m/s | -53.3°C | 4.1% | 51.4hPa | 2.7V | 08:18:00 | 02:07:36 | 00:00:00 | |
| DG9SBQ-11 | 2026-09-01 12:37:06 | 48.94304 | 10.08818 | 102° | 47km/h | 20835m | -11.0m/s | -53.2°C | 1.0% | 51.4hPa | 2.7V | 08:18:00 | 00:00:00 | 00:00:00 | |
| DL1ZP-14 | 2026-09-01 12:37:05 | 48.94319 | 10.08778 | 144° | 31km/h | 20866m | -9.9m/s | -52.8°C | 1.0% | 51.1hPa | 2.7V | 00:00:00 | 00:00:00 | 00:00:00 | |
| DM0DOS-11 | 2026-09-01 12:37:03 | 48.94327 | 10.08789 | 345° | 27km/h | 20928m | -10.9m/s | -52.1°C | 3.9% | 50.7hPa | 2.7V | 08:18:32 | 02:07:26 | 00:00:00 | |
| HSKMA3-T | 2026-09-01 12:36:57 | 48.94319 | 10.08790 | 1° | 35km/h | 20939m | -10.7m/s | -52°C | 0.3% | 50.6hPa | 2.7V | 08:20:10 | 02:07:25 | 00:00:00 | |
| DK7TD | 2026-09-01 12:36:55 | 48.94299 | 10.08781 | 30° | 49km/h | 20960m | -10.7m/s | -52°C | 0.2% | 50.4hPa | 2.6V | 08:20:10 | 02:07:23 | 00:00:00 | |
| OE9MKV-15 | 2026-09-01 12:36:55 | 48.94299 | 10.08781 | 31° | 40km/h | 20960m | -10.6m/s | -51.9°C | 3.7% | 50.4hPa | 2.6V | 00:00:00 | 02:07:23 | 00:00:00 | |
| DB0UT-7 | 2026-09-01 12:36:54 | 48.94289 | 10.08769 | 44° | 37km/h | 20971m | -10.6m/s | -51.9°C | 3.6% | 50.3hPa | 2.6V | 00:00:00 | 00:00:00 | 00:00:00 | |
| DM0DOS-11 | 2026-09-01 12:36:50 | 48.94283 | 10.08668 | 136° | 37km/h | 21032m | -10.6m/s | -51.7°C | 3.7% | 49.9hPa | 2.6V | 08:18:42 | 02:07:16 | 00:00:00 | |
| HSKMA3-T | 2026-09-01 12:36:47 | 48.94289 | 10.08661 | 155° | 31km/h | 21043m | -10.9m/s | -51.7°C | 0.3% | 49.8hPa | 2.7V | 08:20:10 | 02:07:15 | 00:00:00 | |
| DF3TZ-5 | 2026-09-01 12:36:46 | 48.94296 | 10.08658 | 176° | 26km/h | 21054m | -10.8m/s | -51.7°C | 0.9% | 49.7hPa | 2.6V | 00:00:00 | 00:00:00 | 00:00:00 | |
| DM0DOS-11 | 2026-09-01 12:36:43 | 48.94281 | 10.08668 | 48° | 38km/h | 21138m | -10.3m/s | -52.2°C | 3.8% | 49.1hPa | 2.6V | 08:18:52 | 02:07:06 | 00:00:00 | |
| DK7TD | 2026-09-01 12:36:37 | 48.94275 | 10.08654 | 64° | 44km/h | 21148m | -10.2m/s | -52.1°C | 0.3% | 49hPa | 2.7V | 08:20:10 | 02:07:05 | 00:00:00 | |
| DJ8HS-15 | 2026-09-01 12:36:37 | 48.94275 | 10.08654 | 65° | 38km/h | 21149m | -10.1m/s | -52.0°C | 3.8% | 48.9hPa | 2.7V | 00:00:00 | 02:07:05 | 00:00:00 | |
| DH7VM-15 | 2026-09-01 12:36:36 | 48.94275 | 10.08654 | 65° | 44km/h | 21149m | -10.2m/s | -52.1°C | 0.9% | 49.0hPa | 2.7V | 00:00:00 | 00:00:00 | 00:00:00 | |
| DO9HM | 2026-09-01 12:36:35 | 48.94271 | 10.08619 | 94° | 49km/h | 21169m | -10.7m/s | -51.8°C | 0.9% | 48.8hPa | 2.7V | 00:00:00 | 00:00:00 | 00:00:00 | |
| DL1ZP-14 | 2026-09-01 12:36:34 | 48.94278 | 10.08582 | 118° | 51km/h | 21191m | -10.9m/s | -51.6°C | 0.9% | 48.6hPa | 2.7V | 00:00:00 | 00:00:00 | 00:00:00 | |
| DG9SBQ-11 | 2026-09-01 12:36:32 | 48.94278 | 10.08582 | 120° | 53km/h | 21191m | -10.9m/s | -51.6°C | 0.9% | 48.6hPa | 2.6V | 08:19:00 | 00:00:00 | 00:00:00 | |
| DB0NH | 2026-09-01 12:36:31 | 48.94295 | 10.08552 | 144° | 35km/h | 21213m | -11.1m/s | -51.4°C | 3.7% | 48.4hPa | 2.6V | 00:00:00 | 02:06:59 | 00:00:00 | |
| DM0DOS-11 | 2026-09-01 12:36:30 | 48.94323 | 10.08539 | 190° | 31km/h | 21245m | -10.4m/s | -51.5°C | 3.8% | 48.2hPa | 2.7V | 08:19:02 | 02:06:56 | 00:00:00 | |
| HSKMA3-T | 2026-09-01 12:36:30 | 48.94305 | 10.08543 | 157° | 44km/h | 21224m | -11m/s | -51.4°C | 0.2% | 48.4hPa | 2.6V | 08:20:10 | 02:06:58 | 00:00:00 | |
| DO3MHA-11 | 2026-09-01 12:36:29 | 48.94315 | 10.08539 | 173° | 27km/h | 21235m | -10.6m/s | -51.4°C | 3.8% | 48.3hPa | 2.6V | 00:00:00 | 02:06:57 | 00:00:00 | |
| DO3MHA-12 | 2026-09-01 12:36:28 | 48.94323 | 10.08539 | 191° | 27km/h | 21245m | -10.3m/s | -51.4°C | 3.8% | 48.2hPa | 2.6V | 00:00:00 | 02:06:56 | 00:00:00 | |
| DL6DJ-15 | 2026-09-01 12:36:26 | 48.94334 | 10.08555 | 283° | 16km/h | 21276m | -10.5m/s | -51.6°C | 0.9% | 48.0hPa | 2.6V | 00:00:00 | 00:00:00 | 00:00:00 | |
| DM0DOS-11 | 2026-09-01 12:36:23 | 48.94298 | 10.08519 | 80° | 46km/h | 21352m | -10.6m/s | -51.7°C | 3.5% | 47.4hPa | 2.6V | 08:19:12 | 02:06:46 | 00:00:00 | |
| DK7TD | 2026-09-01 12:36:20 | 48.94301 | 10.08535 | 65° | 42km/h | 21341m | -10.8m/s | -51.7°C | 0.1% | 47.5hPa | 2.6V | 08:20:10 | 02:06:47 | 00:00:00 | |
| DK5PH-5 | 2026-09-01 12:36:19 | 48.94301 | 10.08535 | 65° | 40km/h | 21341m | -10.8m/s | -51.6°C | 3.5% | 47.5hPa | 2.6V | 00:00:00 | 02:06:47 | 00:00:00 | |
| DO3MHA-12 | 2026-09-01 12:36:18 | 48.94298 | 10.08519 | 81° | 38km/h | 21352m | -10.5m/s | -51.6°C | 3.5% | 47.4hPa | 2.7V | 00:00:00 | 02:06:46 | 00:00:00 | |
| DJ8HS-15 | 2026-09-01 12:36:17 | 48.94297 | 10.08502 | 97° | 37km/h | 21363m | -10.7m/s | -51.7°C | 3.6% | 47.3hPa | 2.7V | 00:00:00 | 02:06:45 | 00:00:00 | |
| DF3TZ-5 | 2026-09-01 12:36:15 | 48.94306 | 10.08471 | 130° | 42km/h | 21384m | -10.8m/s | -51.8°C | 0.9% | 47.2hPa | 2.7V | 00:00:00 | 00:00:00 | 00:00:00 | |
| DO9HM | 2026-09-01 12:36:14 | 48.94314 | 10.08461 | 149° | 40km/h | 21395m | -10.7m/s | -51.8°C | 1.0% | 47.2hPa | 2.7V | 00:00:00 | 00:00:00 | 00:00:00 | |
| DM0DOS-11 | 2026-09-01 12:36:11 | 48.94349 | 10.08488 | 278° | 31km/h | 21459m | -10.7m/s | -51.9°C | 3.8% | 46.7hPa | 2.7V | 08:19:22 | 02:06:36 | 00:00:00 | |
| DK7TD | 2026-09-01 12:36:09 | 48.94349 | 10.08477 | 255° | 31km/h | 21448m | -10.3m/s | -52°C | 0.3% | 46.7hPa | 2.7V | 08:20:10 | 02:06:37 | 00:00:00 | |
| DO3MHA-11 | 2026-09-01 12:36:09 | 48.94349 | 10.08477 | 256° | 37km/h | 21448m | -10.3m/s | -51.9°C | 3.8% | 46.7hPa | 2.6V | 00:00:00 | 02:06:37 | 00:00:00 | |
| DM7RM-13 | 2026-09-01 12:36:08 | 48.94349 | 10.08477 | 256° | 31km/h | 21448m | -10.3m/s | -52.0°C | 0.9% | 46.7hPa | 2.6V | 00:00:00 | 00:00:00 | 00:00:00 | |
| NBG1-10 | 2026-09-01 12:36:05 | 48.94333 | 10.08515 | 339° | 37km/h | 21494m | -10.8m/s | -52.0°C | 3.6% | 46.4hPa | 2.6V | 00:00:00 | 02:06:33 | 00:00:00 | |
| SONCRA | 2026-09-01 12:36:04 | 48.94303 | 10.08511 | 30° | 40km/h | 21527m | -10.9m/s | -52.2°C | 0.9% | 46.1hPa | 2.6V | 00:00:00 | 00:00:00 | 00:00:00 | |
| DL1ZP-14 | 2026-09-01 12:36:03 | 48.94303 | 10.08511 | 30° | 40km/h | 21527m | -10.9m/s | -52.2°C | 0.9% | 46.1hPa | 2.6V | 00:00:00 | 00:00:00 | 00:00:00 | |
| DB0NH | 2026-09-01 12:36:01 | 48.94295 | 10.08501 | 47° | 35km/h | 21537m | -10.7m/s | -52.0°C | 3.6% | 46.0hPa | 2.6V | 00:00:00 | 02:06:29 | 00:00:00 | |
| DM0DOS-11 | 2026-09-01 12:36:00 | 48.94289 | 10.08469 | 114° | 24km/h | 21569m | -10.7m/s | -52.1°C | 3.8% | 45.9hPa | 2.6V | 08:19:32 | 02:06:26 | 00:00:00 | |
| HSKMA3-T | 2026-09-01 12:36:00 | 48.94290 | 10.08490 | 65° | 35km/h | 21548m | -10.8m/s | -52°C | 0.2% | 46hPa | 2.7V | 08:20:10 | 02:06:28 | 00:00:00 | |
| DK7TD | 2026-09-01 12:35:58 | 48.94288 | 10.08469 | 115° | 24km/h | 21569m | -10.7m/s | -52.1°C | 0.3% | 45.9hPa | 2.6V | 08:20:10 | 02:06:26 | 00:00:00 | |
| DL6DJ-15 | 2026-09-01 12:35:55 | 48.94307 | 10.08472 | 243° | 29km/h | 21614m | -11.5m/s | -52.0°C | 1.0% | 45.6hPa | 2.6V | 00:00:00 | 00:00:00 | 00:00:00 | |
| DM0DOS-11 | 2026-09-01 12:35:53 | 48.94276 | 10.08543 | 347° | 49km/h | 21682m | -11m/s | -52.4°C | 3.8% | 45.1hPa | 2.6V | 08:19:42 | 02:06:16 | 00:00:00 | |
| HSKMA3-T | 2026-09-01 12:35:49 | 48.94287 | 10.08537 | 332° | 49km/h | 21671m | -11m/s | -52.3°C | 0.3% | 45.2hPa | 2.6V | 08:20:10 | 02:06:17 | 00:00:00 | |
| DK7TD | 2026-09-01 12:35:45 | 48.94241 | 10.08533 | 34° | 47km/h | 21716m | -11.7m/s | -52.4°C | 0.2% | 44.9hPa | 2.7V | 08:20:10 | 02:06:13 | 00:00:00 | |
| DF3TZ-5 | 2026-09-01 12:35:44 | 48.94232 | 10.08522 | 49° | 42km/h | 21728m | -11.9m/s | -52.3°C | 0.8% | 44.8hPa | 2.6V | 00:00:00 | 00:00:00 | 00:00:00 | |
| OE9MKV-15 | 2026-09-01 12:35:43 | 48.94227 | 10.08508 | 67° | 40km/h | 21740m | -12.0m/s | -52.2°C | 3.7% | 44.6hPa | 2.6V | 00:00:00 | 02:06:11 | 00:00:00 | |
| DM0DOS-11 | 2026-09-01 12:35:41 | 48.94238 | 10.08465 | 190° | 22km/h | 21797m | -11.7m/s | -52.5°C | 4% | 44.3hPa | 2.6V | 08:19:52 | 02:06:06 | 00:00:00 | |
| HSKMA3-T | 2026-09-01 12:35:35 | 48.94247 | 10.08487 | 273° | 31km/h | 21833m | -12m/s | -52.6°C | 0.4% | 44hPa | 2.7V | 08:20:10 | 02:06:03 | 00:00:00 | |
| DK7TD | 2026-09-01 12:35:34 | 48.94245 | 10.08499 | 292° | 35km/h | 21844m | -11.5m/s | -52.6°C | 0.3% | 44hPa | 2.7V | 08:20:10 | 02:06:02 | 00:00:00 | |
| DK7TD | 2026-09-01 12:35:24 | 48.94175 | 10.08469 | 109° | 31km/h | 21960m | -11.6m/s | -52.8°C | 0.4% | 43.2hPa | 2.6V | 08:20:10 | 02:05:52 | 00:00:00 | |
| HSKMA3-T | 2026-09-01 12:35:21 | 48.94189 | 10.08455 | 203° | 22km/h | 21993m | -10.9m/s | -52.8°C | 0.5% | 42.9hPa | 2.7V | 08:20:10 | 02:05:49 | 00:00:00 | |
| DK7TD | 2026-09-01 12:35:12 | 48.94139 | 10.08512 | 26° | 49km/h | 22097m | -11.6m/s | -52.7°C | 0.4% | 42.3hPa | 2.6V | 08:21:01 | 02:05:40 | 00:00:00 | |
| HSKMA3-T | 2026-09-01 12:35:11 | 48.94129 | 10.08502 | 42° | 47km/h | 22109m | -12.1m/s | -52.6°C | 0.4% | 42.2hPa | 2.7V | 08:21:01 | 02:05:39 | 00:00:00 | |
| DK7TD | 2026-09-01 12:35:02 | 48.94142 | 10.08460 | 263° | 35km/h | 22217m | -12.3m/s | -51.5°C | 0.3% | 41.5hPa | 2.6V | 08:21:01 | 02:05:30 | 00:00:00 | |
| HSKMA3-T | 2026-09-01 12:35:00 | 48.94138 | 10.08489 | 300° | 44km/h | 22242m | -12.2m/s | -51.4°C | 0.2% | 41.3hPa | 2.6V | 08:21:01 | 02:05:28 | 00:00:00 | |
| DM0DOS-11 | 2026-09-01 12:35:00 | 48.94120 | 10.08514 | 331° | 53km/h | 22266m | -11.9m/s | -51.4°C | 3.6% | 41.2hPa | 2.7V | 08:20:32 | 02:05:26 | 00:00:00 | |
| DL9SK-14 | 2026-09-01 12:34:58 | 48.94108 | 10.08522 | 345° | 53km/h | 22278m | -11.6m/s | -51.5°C | 0.8% | 41.1hPa | 2.6V | 00:00:00 | 00:00:00 | 00:00:00 | |
| DJ8HS-15 | 2026-09-01 12:34:57 | 48.94108 | 10.08522 | 346° | 42km/h | 22278m | -11.6m/s | -51.5°C | 3.6% | 41.0hPa | 2.6V | 00:00:00 | 02:05:25 | 00:00:00 | |
| DN1GJH-1 | 2026-09-01 12:34:55 | 48.94094 | 10.08524 | 1° | 53km/h | 22290m | -11.6m/s | -51.6°C | 0.9% | 41.0hPa | 2.6V | 08:21:00 | 00:00:00 | 00:00:00 | |
| DM0DOS-11 | 2026-09-01 12:34:53 | 48.94057 | 10.08449 | 165° | 20km/h | 22388m | -12.7m/s | -51.6°C | 3.8% | 40.4hPa | 2.6V | 08:20:42 | 02:05:16 | 00:00:00 | |
| DK7TD | 2026-09-01 12:34:52 | 48.94053 | 10.08489 | 62° | 42km/h | 22338m | -12.3m/s | -51.8°C | 0.2% | 40.7hPa | 2.7V | 08:21:01 | 02:05:20 | 00:00:00 | |
| HSKMA3-T | 2026-09-01 12:34:46 | 48.94066 | 10.08456 | 238° | 26km/h | 22412m | -11.7m/s | -51.6°C | 0.3% | 40.2hPa | 2.7V | 08:21:01 | 02:05:14 | 00:00:00 | |
| DF3TZ-5 | 2026-09-01 12:34:42 | 48.94053 | 10.08504 | 323° | 47km/h | 22460m | -12.4m/s | -51.7°C | 0.9% | 39.9hPa | 2.6V | 00:00:00 | 00:00:00 | 00:00:00 | |
| DG9SBQ-11 | 2026-09-01 12:34:41 | 48.94053 | 10.08504 | 324° | 49km/h | 22460m | -12.4m/s | -51.7°C | 0.9% | 39.9hPa | 2.6V | 08:21:00 | 00:00:00 | 00:00:00 | |
| DM0DOS-11 | 2026-09-01 12:34:40 | 48.94004 | 10.08513 | 22° | 49km/h | 22510m | -11.7m/s | -52°C | 3.7% | 39.6hPa | 2.6V | 08:20:52 | 02:05:06 | 00:00:00 | |
| DK7TD | 2026-09-01 12:34:39 | 48.94017 | 10.08518 | 8° | 51km/h | 22498m | -12.2m/s | -51.9°C | 0.2% | 39.7hPa | 2.7V | 08:21:01 | 02:05:07 | 00:00:00 | |
| HSKMA3-T | 2026-09-01 12:34:36 | 48.93987 | 10.08492 | 59° | 40km/h | 22534m | -11.8m/s | -52°C | 0.2% | 39.5hPa | 2.6V | 08:21:01 | 02:05:04 | 00:00:00 | |
| SONDE2-11 | 2026-09-01 12:34:34 | 48.93984 | 10.08467 | 103° | 26km/h | 22557m | -12.0m/s | -51.9°C | 0.9% | 39.4hPa | 2.7V | 00:00:00 | 00:00:00 | 00:00:00 | |
| DM0DOS-11 | 2026-09-01 12:34:33 | 48.94001 | 10.08491 | 282° | 44km/h | 22631m | -11.8m/s | -51.8°C | 3.9% | 38.9hPa | 2.7V | 08:21:02 | 02:04:56 | 00:00:00 | |
| HSKMA3-T | 2026-09-01 12:34:26 | 48.93989 | 10.08523 | 315° | 55km/h | 22655m | -12.4m/s | -51.8°C | 0.3% | 38.8hPa | 2.6V | 08:21:52 | 02:04:54 | 00:00:00 | |
| DK7TD | 2026-09-01 12:34:25 | 48.93978 | 10.08536 | 329° | 58km/h | 22668m | -12.8m/s | -51.9°C | 0.3% | 38.7hPa | 2.6V | 08:21:52 | 02:04:53 | 00:00:00 | |
| DB0UT-7 | 2026-09-01 12:34:22 | 48.93934 | 10.08550 | 8° | 40km/h | 22706m | -12.3m/s | -52.0°C | 3.7% | 38.4hPa | 2.6V | 00:00:00 | 00:00:00 | 00:00:00 | |
| DM0DOS-11 | 2026-09-01 12:34:21 | 48.93890 | 10.08509 | 63° | 40km/h | 22755m | -12.4m/s | -52.1°C | 3.8% | 38.1hPa | 2.6V | 08:21:12 | 02:04:46 | 00:00:00 | |
| HSKMA3-T | 2026-09-01 12:34:15 | 48.93890 | 10.08478 | 139° | 16km/h | 22791m | -11.6m/s | -51.9°C | 0.4% | 37.9hPa | 2.7V | 08:21:52 | 02:04:43 | 00:00:00 | |
| DK7TD | 2026-09-01 12:34:14 | 48.93893 | 10.08477 | 190° | 15km/h | 22802m | -11.5m/s | -51.9°C | 0.4% | 37.9hPa | 2.6V | 08:21:52 | 02:04:42 | 00:00:00 | |
| DN1GJH-1 | 2026-09-01 12:34:14 | 48.93893 | 10.08477 | 191° | 15km/h | 22803m | -11.5m/s | -51.9°C | 0.9% | 37.9hPa | 2.6V | 08:21:00 | 00:00:00 | 00:00:00 | |
| OE5DRO-10 | 2026-09-01 12:34:13 | 48.93896 | 10.08480 | 241° | 42km/h | 22814m | -11.8m/s | -51.9°C | 4.0% | 37.7hPa | 2.6V | 00:00:00 | 00:00:00 | 00:00:00 | |
| DM0DOS-11 | 2026-09-01 12:34:12 | 48.93871 | 10.08529 | 343° | 51km/h | 22877m | -12.7m/s | -52.1°C | 4% | 37.4hPa | 2.6V | 08:21:22 | 02:04:36 | 00:00:00 | |
| HSKMA3-T | 2026-09-01 12:34:04 | 48.93818 | 10.08509 | 45° | 58km/h | 22926m | -11.9m/s | -51.9°C | 0.3% | 37.2hPa | 2.7V | 08:21:52 | 02:04:32 | 00:00:00 | |
| SONDE2-11 | 2026-09-01 12:34:04 | 48.93809 | 10.08491 | 59° | 55km/h | 22938m | -12.0m/s | -51.7°C | 0.9% | 37.1hPa | 2.6V | 00:00:00 | 00:00:00 | 00:00:00 | |
| DK7TD | 2026-09-01 12:34:03 | 48.93809 | 10.08491 | 60° | 57km/h | 22938m | -12m/s | -51.7°C | 0.2% | 37.1hPa | 2.7V | 08:21:52 | 02:04:31 | 00:00:00 | |
| DH7VM-15 | 2026-09-01 12:34:03 | 48.93809 | 10.08491 | 61° | 57km/h | 22938m | -12.0m/s | -51.7°C | 0.9% | 37.1hPa | 2.6V | 00:00:00 | 00:00:00 | 00:00:00 | |
| DB0NH | 2026-09-01 12:34:01 | 48.93802 | 10.08453 | 91° | 40km/h | 22963m | -12.4m/s | -51.3°C | 3.6% | 36.9hPa | 2.6V | 00:00:00 | 02:04:29 | 00:00:00 | |
| DL1NUX | 2026-09-01 12:34:00 | 48.93831 | 10.08403 | 228° | 16km/h | 23039m | -11.7m/s | -51.5°C | 3.9% | 36.5hPa | 2.6V | 08:21:35 | 02:04:23 | 00:00:00 | |
| HSKMA3-T | 2026-09-01 12:33:53 | 48.93829 | 10.08415 | 318° | 24km/h | 23062m | -11.9m/s | -51.6°C | 0.4% | 36.4hPa | 2.7V | 08:21:52 | 02:04:21 | 00:00:00 | |
| DL6DJ-15 | 2026-09-01 12:33:51 | 48.93802 | 10.08419 | 17° | 46km/h | 23100m | -12.9m/s | -51.8°C | 0.9% | 36.1hPa | 2.6V | 00:00:00 | 00:00:00 | 00:00:00 | |
| DM0DOS-11 | 2026-09-01 12:33:50 | 48.93781 | 10.08397 | 47° | 57km/h | 23126m | -12.8m/s | -51.7°C | 3.7% | 36hPa | 2.6V | 08:21:42 | 02:04:16 | 00:00:00 | |
| DK7TD | 2026-09-01 12:33:49 | 48.93791 | 10.08411 | 33° | 53km/h | 23113m | -12.8m/s | -51.8°C | 0.3% | 36.1hPa | 2.6V | 08:21:52 | 02:04:17 | 00:00:00 | |
| HSKMA3-T | 2026-09-01 12:33:42 | 48.93781 | 10.08285 | 141° | 44km/h | 23202m | -12.9m/s | -51.3°C | 0.3% | 35.6hPa | 2.6V | 08:21:52 | 02:04:10 | 00:00:00 | |
| DJ2DS-15 | 2026-09-01 12:33:41 | 48.93790 | 10.08277 | 161° | 38km/h | 23215m | -12.7m/s | -51.1°C | 3.8% | 35.5hPa | 2.6V | 00:00:00 | 02:04:09 | 00:00:00 | |
| DM0DOS-11 | 2026-09-01 12:33:40 | 48.93811 | 10.08286 | 239° | 29km/h | 23252m | -12.2m/s | -51.2°C | 3.8% | 35.3hPa | 2.6V | 08:21:52 | 02:04:06 | 00:00:00 | |
| DK7TD | 2026-09-01 12:33:38 | 48.93811 | 10.08286 | 240° | 29km/h | 23252m | -12.2m/s | -51.2°C | 0.3% | 35.3hPa | 2.6V | 08:21:52 | 02:04:06 | 00:00:00 | |
| DL1XH-west | 2026-09-01 12:33:37 | 48.93813 | 10.08296 | 271° | 31km/h | 23264m | -12.9m/s | -51.2°C | 0.3% | 35.2hPa | 2.6V | 08:22:43 | 02:04:05 | 00:00:00 | |
| HSKMA3-T | 2026-09-01 12:33:32 | 48.93762 | 10.08326 | 27° | 47km/h | 23342m | -11.8m/s | -51.6°C | 0.3% | 34.8hPa | 2.6V | 08:22:43 | 02:03:59 | 00:00:00 | |
| PG1ADW-2 | 2026-09-01 12:33:31 | 48.93762 | 10.08326 | 28° | 40km/h | 23342m | -11.8m/s | -51.5°C | 3.8% | 34.8hPa | 2.6V | 00:00:00 | 02:03:59 | 00:00:00 | |
| DM0DOS-11 | 2026-09-01 12:33:30 | 48.93744 | 10.08284 | 86° | 44km/h | 23378m | -12.6m/s | -51.2°C | 3.7% | 34.6hPa | 2.7V | 08:22:02 | 02:03:56 | 00:00:00 | |
| DK7TD | 2026-09-01 12:33:28 | 48.93743 | 10.08284 | 86° | 44km/h | 23378m | -12.6m/s | -51.2°C | 0.3% | 34.6hPa | 2.7V | 08:22:43 | 02:03:56 | 00:00:00 | |
| HSKMA3-T | 2026-09-01 12:33:21 | 48.93784 | 10.08244 | 237° | 26km/h | 23470m | -12.8m/s | -50.5°C | 0.3% | 34.1hPa | 2.7V | 08:22:43 | 02:03:49 | 00:00:00 | |
| DL1XH-west | 2026-09-01 12:33:20 | 48.93786 | 10.08254 | 269° | 26km/h | 23482m | -12.4m/s | -50.5°C | 0.2% | 34.1hPa | 2.6V | 08:22:43 | 02:03:48 | 00:00:00 | |
| NBG1-10 | 2026-09-01 12:33:20 | 48.93786 | 10.08253 | 270° | 44km/h | 23482m | -12.3m/s | -50.4°C | 3.7% | 34.0hPa | 2.6V | 00:00:00 | 02:03:48 | 00:00:00 | |
| DM0DOS-11 | 2026-09-01 12:33:19 | 48.93778 | 10.08270 | 332° | 33km/h | 23507m | -12.6m/s | -50.7°C | 3.6% | 34hPa | 2.6V | 08:22:12 | 02:03:46 | 00:00:00 | |
| DK7TD | 2026-09-01 12:33:17 | 48.93770 | 10.08274 | 357° | 38km/h | 23520m | -12.9m/s | -50.8°C | 0.2% | 33.9hPa | 2.7V | 08:22:43 | 02:03:45 | 00:00:00 | |
| DJ8HS-15 | 2026-09-01 12:33:17 | 48.93770 | 10.08273 | 357° | 42km/h | 23520m | -12.8m/s | -50.7°C | 3.6% | 33.8hPa | 2.6V | 00:00:00 | 02:03:45 | 00:00:00 | |
| OE5DRO-10 | 2026-09-01 12:33:16 | 48.93760 | 10.08271 | 17° | 38km/h | 23533m | -12.8m/s | -50.8°C | 3.6% | 33.8hPa | 2.6V | 00:00:00 | 00:00:00 | 00:00:00 | |
| DG9SBQ-11 | 2026-09-01 12:33:15 | 48.93760 | 10.08271 | 17° | 44km/h | 23533m | -12.9m/s | -50.8°C | 0.8% | 33.8hPa | 2.6V | 00:00:00 | 00:00:00 | 00:00:00 | |
| DG9SBQ-11 | 2026-09-01 12:33:11 | 48.93729 | 10.08188 | 101° | 58km/h | 23599m | -13.0m/s | -50.6°C | 0.8% | 33.4hPa | 2.6V | 00:00:00 | 00:00:00 | 00:00:00 | |
| OE5DXL-15 | 2026-09-01 12:33:10 | 48.93734 | 10.08168 | 117° | 42km/h | 23612m | -13.2m/s | -50.3°C | 3.5% | 33.4hPa | 2.6V | 00:00:00 | 00:00:00 | 00:00:00 | |
| DM0DOS-11 | 2026-09-01 12:33:09 | 48.93752 | 10.08138 | 150° | 49km/h | 23638m | -13.5m/s | -50°C | 3.5% | 33.3hPa | 2.6V | 08:22:22 | 02:03:36 | 00:00:00 | |
| DL1XH-west | 2026-09-01 12:33:09 | 48.93742 | 10.08150 | 133° | 53km/h | 23624m | -13.4m/s | -50.2°C | 0.1% | 33.3hPa | 2.7V | 08:22:43 | 02:03:37 | 00:00:00 | |
| DK7TD | 2026-09-01 12:33:06 | 48.93774 | 10.08131 | 187° | 42km/h | 23665m | -13.4m/s | -50°C | 0.1% | 33.1hPa | 2.7V | 08:22:43 | 02:03:34 | 00:00:00 | |
| DL1XH-west | 2026-09-01 12:32:58 | 48.93777 | 10.08182 | 39° | 27km/h | 23770m | -13.4m/s | -50.7°C | 0.2% | 32.6hPa | 2.7V | 08:22:43 | 02:03:26 | 00:00:00 | |
| DK7TD | 2026-09-01 12:32:55 | 48.93774 | 10.08146 | 113° | 42km/h | 23810m | -13.6m/s | -50.6°C | 0.2% | 32.4hPa | 2.6V | 08:22:43 | 02:03:23 | 00:00:00 | |
| DG9SBQ-11 | 2026-09-01 12:32:53 | 48.93790 | 10.08120 | 150° | 53km/h | 23837m | -13.4m/s | -50.3°C | 0.8% | 32.2hPa | 2.7V | 00:00:00 | 00:00:00 | 00:00:00 | |
| DM0DOS-11 | 2026-09-01 12:32:52 | 48.93854 | 10.08136 | 229° | 53km/h | 23904m | -13.7m/s | -50.3°C | 3.7% | 31.9hPa | 2.7V | 08:22:42 | 02:03:16 | 00:00:00 | |
| DB0UT-7 | 2026-09-01 12:32:52 | 48.93802 | 10.08112 | 166° | 44km/h | 23851m | -13.4m/s | -50.2°C | 3.6% | 32.2hPa | 2.6V | 00:00:00 | 02:03:20 | 00:00:00 | |
| PG1ADW-2 | 2026-09-01 12:32:51 | 48.93816 | 10.08110 | 182° | 44km/h | 23864m | -13.4m/s | -50.2°C | 3.7% | 32.1hPa | 2.6V | 00:00:00 | 00:00:00 | 00:00:00 | |
| DL1XH1-15 | 2026-09-01 12:32:50 | 48.93843 | 10.08123 | 213° | 55km/h | 23891m | -13.5m/s | -50.3°C | 3.7% | 32hPa | 2.6V | 08:22:41 | 02:03:17 | 00:00:00 | |
| DL1XH-west | 2026-09-01 12:32:48 | 48.93854 | 10.08136 | 230° | 53km/h | 23904m | -13.7m/s | -50.3°C | 0.3% | 31.9hPa | 2.7V | 08:22:43 | 02:03:16 | 00:00:00 | |
| HSKMA3-T | 2026-09-01 12:32:44 | 48.93858 | 10.08199 | 308° | 37km/h | 23959m | -13.5m/s | -50.5°C | 0.3% | 31.6hPa | 2.6V | 08:23:34 | 02:03:12 | 00:00:00 | |
| DK7TD | 2026-09-01 12:32:42 | 48.93844 | 10.08210 | 2° | 29km/h | 23986m | -13.5m/s | -50.5°C | 0.1% | 31.5hPa | 2.7V | 08:23:34 | 02:03:10 | 00:00:00 | |
| OE5DXL-15 | 2026-09-01 12:32:41 | 48.93832 | 10.08199 | 62° | 44km/h | 24013m | -13.3m/s | -50.3°C | 3.5% | 31.3hPa | 2.6V | 00:00:00 | 00:00:00 | 00:00:00 | |
| DM0DOS-11 | 2026-09-01 12:32:39 | 48.93833 | 10.08175 | 113° | 37km/h | 24040m | -13.6m/s | -50.2°C | 3.5% | 31.3hPa | 2.6V | 08:22:52 | 02:03:06 | 00:00:00 | |
| DL1XH-west | 2026-09-01 12:32:37 | 48.93838 | 10.08162 | 135° | 42km/h | 24053m | -13.4m/s | -50.1°C | 0.1% | 31.2hPa | 2.6V | 08:23:34 | 02:03:05 | 00:00:00 | |
| HSKMA3-T | 2026-09-01 12:32:34 | 48.93872 | 10.08148 | 189° | 55km/h | 24094m | -13.6m/s | -50°C | 0.2% | 31hPa | 2.7V | 08:23:34 | 02:03:02 | 00:00:00 | |
| DG9SBQ-11 | 2026-09-01 12:32:34 | 48.93872 | 10.08148 | 190° | 55km/h | 24094m | -13.6m/s | -50.0°C | 0.8% | 31.0hPa | 2.7V | 08:23:00 | 00:00:00 | 00:00:00 | |
| DL8DAS-14 | 2026-09-01 12:32:33 | 48.93907 | 10.08181 | 235° | 55km/h | 24135m | -13.8m/s | -49.8°C | 0.8% | 30.8hPa | 2.7V | 00:00:00 | 00:00:00 | 00:00:00 | |
| DM0DOS-11 | 2026-09-01 12:32:32 | 48.93914 | 10.08237 | 285° | 46km/h | 24176m | -13.8m/s | -49.8°C | 3.4% | 30.6hPa | 2.7V | 08:23:02 | 02:02:56 | 00:00:00 | |
| DK7TD | 2026-09-01 12:32:31 | 48.93907 | 10.08181 | 235° | 57km/h | 24134m | -13.8m/s | -49.8°C | 0.2% | 30.8hPa | 2.6V | 08:23:34 | 02:02:59 | 00:00:00 | |
| DL1XH-west | 2026-09-01 12:32:27 | 48.93910 | 10.08251 | 306° | 38km/h | 24190m | -13.6m/s | -49.9°C | 0% | 30.5hPa | 2.6V | 08:23:34 | 02:02:55 | 00:00:00 | |
| HSKMA3-T | 2026-09-01 12:32:24 | 48.93884 | 10.08255 | 58° | 27km/h | 24245m | -14.1m/s | -50°C | 0% | 30.2hPa | 2.6V | 08:23:34 | 02:02:51 | 00:00:00 | |
| DK7TD | 2026-09-01 12:32:22 | 48.93883 | 10.08234 | 114° | 33km/h | 24273m | -14.5m/s | -49.9°C | 0% | 30.1hPa | 2.7V | 08:23:34 | 02:02:49 | 00:00:00 | |
| DL1XH1-15 | 2026-09-01 12:32:21 | 48.93896 | 10.08216 | 159° | 40km/h | 24302m | -14.1m/s | -50°C | 3.5% | 30hPa | 2.6V | 08:23:11 | 02:02:47 | 00:00:00 | |
| DL1XH-west | 2026-09-01 12:32:16 | 48.93928 | 10.08228 | 222° | 51km/h | 24343m | -13m/s | -50°C | 0.2% | 29.8hPa | 2.7V | 08:23:34 | 02:02:44 | 00:00:00 | |
| DL1XH1-15 | 2026-09-01 12:32:15 | 48.93909 | 10.08337 | 347° | 44km/h | 24442m | -14.7m/s | -50.2°C | 3.4% | 29.4hPa | 2.7V | 08:23:21 | 02:02:37 | 00:00:00 | |
| HSKMA3-T | 2026-09-01 12:32:13 | 48.93940 | 10.08283 | 279° | 55km/h | 24383m | -14.2m/s | -49.9°C | 0.1% | 29.6hPa | 2.6V | 08:23:34 | 02:02:41 | 00:00:00 | |
| DK7TD | 2026-09-01 12:32:10 | 48.93919 | 10.08331 | 330° | 47km/h | 24427m | -14.9m/s | -50.1°C | 0% | 29.4hPa | 2.7V | 08:23:34 | 02:02:38 | 00:00:00 | |
| DL1XH-west | 2026-09-01 12:32:06 | 48.93883 | 10.08326 | 54° | 31km/h | 24483m | -13.3m/s | -50.4°C | 0.1% | 29.2hPa | 2.6V | 08:23:34 | 02:02:34 | 00:00:00 | |
| HSKMA3-T | 2026-09-01 12:32:02 | 48.93895 | 10.08295 | 178° | 35km/h | 24540m | -15.1m/s | -50.4°C | 0.2% | 28.9hPa | 2.6V | 08:23:34 | 02:02:30 | 00:00:00 | |
| DB0NH | 2026-09-01 12:32:01 | 48.93904 | 10.08298 | 199° | 46km/h | 24555m | -14.4m/s | -50.3°C | 3.7% | 28.8hPa | 2.6V | 00:00:00 | 02:02:29 | 00:00:00 | |
| DL1XH1-15 | 2026-09-01 12:32:00 | 48.93922 | 10.08319 | 235° | 49km/h | 24583m | -14.5m/s | -50.3°C | 3.7% | 28.7hPa | 2.7V | 08:23:31 | 02:02:27 | 00:00:00 | |
| DK7TD | 2026-09-01 12:32:00 | 48.93922 | 10.08319 | 236° | 49km/h | 24583m | -14.5m/s | -50.3°C | 0.2% | 28.7hPa | 2.7V | 08:23:34 | 02:02:27 | 00:00:00 | |
| DM0DOS-11 | 2026-09-01 12:31:59 | 48.93927 | 10.08336 | 254° | 51km/h | 24598m | -14.7m/s | -50.2°C | 3.7% | 28.7hPa | 2.7V | 08:23:32 | 02:02:26 | 00:00:00 | |
| DL1XH-west | 2026-09-01 12:31:55 | 48.93920 | 10.08394 | 306° | 53km/h | 24641m | -14.2m/s | -50.2°C | 0.2% | 28.5hPa | 2.6V | 08:24:25 | 02:02:23 | 00:00:00 | |
| SONCRA | 2026-09-01 12:31:55 | 48.93911 | 10.08408 | 324° | 51km/h | 24655m | -14.4m/s | -50.3°C | 0.8% | 28.4hPa | 2.7V | 00:00:00 | 00:00:00 | 00:00:00 | |
| DL1ZP-14 | 2026-09-01 12:31:54 | 48.93911 | 10.08408 | 324° | 51km/h | 24655m | -14.4m/s | -50.3°C | 0.8% | 28.4hPa | 2.7V | 00:00:00 | 00:00:00 | 00:00:00 | |
| DL1NUX | 2026-09-01 12:31:54 | 48.93867 | 10.08405 | 45° | 44km/h | 24714m | -14.5m/s | -50.5°C | 3.4% | 28.1hPa | 2.7V | 08:23:40 | 02:02:18 | 00:00:00 | |
| DM0DOS-11 | 2026-09-01 12:31:53 | 48.93859 | 10.08376 | 91° | 40km/h | 24743m | -13.9m/s | -50.5°C | 3.4% | 28hPa | 2.7V | 08:23:42 | 02:02:16 | 00:00:00 | |
| HSKMA3-T | 2026-09-01 12:31:52 | 48.93887 | 10.08418 | 4° | 47km/h | 24685m | -15.2m/s | -50.4°C | 0.1% | 28.3hPa | 2.6V | 08:25:16 | 02:02:20 | 00:00:00 | |
| DK7TD | 2026-09-01 12:31:49 | 48.93861 | 10.08391 | 69° | 42km/h | 24729m | -14.6m/s | -50.6°C | 0.1% | 28.1hPa | 2.7V | 08:24:25 | 02:02:17 | 00:00:00 | |
| DL1XH-west | 2026-09-01 12:31:44 | 48.93887 | 10.08342 | 189° | 40km/h | 24799m | -13.9m/s | -50.5°C | 0.3% | 27.7hPa | 2.7V | 08:24:25 | 02:02:12 | 00:00:00 | |
| DL1NUX | 2026-09-01 12:31:43 | 48.93908 | 10.08391 | 278° | 46km/h | 24854m | -14.6m/s | -50.3°C | 3.5% | 27.5hPa | 2.6V | 08:23:50 | 02:02:08 | 00:00:00 | |
| HSKMA3-T | 2026-09-01 12:31:41 | 48.93908 | 10.08374 | 258° | 46km/h | 24840m | -14m/s | -50.3°C | 0.2% | 27.6hPa | 2.6V | 08:25:16 | 02:02:09 | 00:00:00 | |
| DG9SBQ-11 | 2026-09-01 12:31:41 | 48.93908 | 10.08373 | 259° | 46km/h | 24840m | -14.0m/s | -50.3°C | 0.8% | 27.6hPa | 2.7V | 08:24:00 | 00:00:00 | 00:00:00 | |
| DO9HM | 2026-09-01 12:31:40 | 48.93908 | 10.08391 | 280° | 46km/h | 24854m | -14.6m/s | -50.3°C | 0.8% | 27.5hPa | 2.7V | 08:24:00 | 00:00:00 | 00:00:00 | |
| DM0DOS-11 | 2026-09-01 12:31:39 | 48.93898 | 10.08420 | 318° | 46km/h | 24884m | -15.5m/s | -50.4°C | 3.5% | 27.4hPa | 2.7V | 08:23:52 | 02:02:06 | 00:00:00 | |
| DK7TD | 2026-09-01 12:31:39 | 48.93905 | 10.08407 | 299° | 46km/h | 24869m | -15.2m/s | -50.3°C | 0.1% | 27.4hPa | 2.6V | 08:24:25 | 02:02:07 | 00:00:00 | |
| DO3MHA-11 | 2026-09-01 12:31:39 | 48.93905 | 10.08407 | 299° | 44km/h | 24869m | -15.2m/s | -50.2°C | 3.5% | 27.4hPa | 2.7V | 00:00:00 | 02:02:07 | 00:00:00 | |
| DO3MHA-12 | 2026-09-01 12:31:38 | 48.93898 | 10.08420 | 319° | 42km/h | 24884m | -15.5m/s | -50.4°C | 3.5% | 27.4hPa | 2.7V | 00:00:00 | 02:02:06 | 00:00:00 | |
| DJ8HS-15 | 2026-09-01 12:31:37 | 48.93888 | 10.08429 | 339° | 38km/h | 24900m | -15.2m/s | -50.6°C | 3.5% | 27.3hPa | 2.7V | 00:00:00 | 02:02:05 | 00:00:00 | |
| DL1NUX | 2026-09-01 12:31:35 | 48.93863 | 10.08360 | 128° | 44km/h | 24994m | -15.5m/s | -51.1°C | 3.7% | 27hPa | 2.7V | 08:24:00 | 02:01:58 | 00:00:00 | |
| DL1XH-west | 2026-09-01 12:31:33 | 48.93855 | 10.08407 | 73° | 42km/h | 24953m | -12.6m/s | -51°C | 0.2% | 27.1hPa | 2.6V | 08:24:25 | 02:02:01 | 00:00:00 | |
| DK7TD | 2026-09-01 12:31:29 | 48.93870 | 10.08348 | 143° | 40km/h | 25010m | -16m/s | -51°C | 0.2% | 26.9hPa | 2.6V | 08:24:25 | 02:01:57 | 00:00:00 | |
| HSKMA3-T | 2026-09-01 12:31:27 | 48.93886 | 10.08338 | 179° | 27km/h | 25041m | -14.8m/s | -50.8°C | 0.3% | 26.8hPa | 2.7V | 08:25:16 | 02:01:55 | 00:00:00 | |
| DL1XH-west | 2026-09-01 12:31:23 | 48.93892 | 10.08366 | 297° | 35km/h | 25091m | -12.7m/s | -50.8°C | 0.2% | 26.6hPa | 2.7V | 08:24:25 | 02:01:51 | 00:00:00 | |
| DL1NUX | 2026-09-01 12:31:23 | 48.93877 | 10.08407 | 295° | 44km/h | 25133m | -15.9m/s | -50.9°C | 3.7% | 26.4hPa | 2.6V | 08:24:10 | 02:01:48 | 00:00:00 | |
| DK7TD | 2026-09-01 12:31:19 | 48.93872 | 10.08423 | 289° | 44km/h | 25149m | -16m/s | -50.9°C | 0.2% | 26.3hPa | 2.6V | 08:24:25 | 02:01:47 | 00:00:00 | |
| DO3MHA-11 | 2026-09-01 12:31:19 | 48.93872 | 10.08423 | 290° | 40km/h | 25149m | -15.9m/s | -50.8°C | 3.6% | 26.3hPa | 2.6V | 00:00:00 | 02:01:47 | 00:00:00 | |
| DJ8HS-15 | 2026-09-01 12:31:17 | 48.93869 | 10.08453 | 269° | 40km/h | 25179m | -13.2m/s | -50.8°C | 3.6% | 26.1hPa | 2.7V | 00:00:00 | 02:01:45 | 00:00:00 | |
| DL6DJ-15 | 2026-09-01 12:31:15 | 48.93882 | 10.08485 | 209° | 37km/h | 25215m | -13.4m/s | -50.8°C | 0.8% | 26.1hPa | 2.7V | 00:00:00 | 00:00:00 | 00:00:00 | |
| DL8DAS-15 | 2026-09-01 12:31:14 | 48.93882 | 10.08485 | 210° | 38km/h | 25215m | -13.4m/s | -50.8°C | 0.8% | 26.1hPa | 2.7V | 00:00:00 | 00:00:00 | 00:00:00 | |
| DL1NUX | 2026-09-01 12:31:13 | 48.93923 | 10.08507 | 200° | 44km/h | 25275m | -17.1m/s | -50.7°C | 3.7% | 25.8hPa | 2.7V | 08:24:20 | 02:01:38 | 00:00:00 | |
| DL1XH-west | 2026-09-01 12:31:13 | 48.93891 | 10.08492 | 202° | 42km/h | 25228m | -13.6m/s | -50.8°C | 0.2% | 26hPa | 2.6V | 08:24:25 | 02:01:41 | 00:00:00 | |
| HSKMA3-T | 2026-09-01 12:31:12 | 48.93902 | 10.08497 | 196° | 46km/h | 25242m | -14.7m/s | -50.7°C | 0.2% | 26hPa | 2.6V | 08:25:16 | 02:01:40 | 00:00:00 | |
| DL1XH1-15 | 2026-09-01 12:31:11 | 48.93932 | 10.08513 | 207° | 37km/h | 25292m | -17.4m/s | -50.7°C | 3.7% | 25.7hPa | 2.7V | 08:24:21 | 02:01:37 | 00:00:00 | |
| DK7TD | 2026-09-01 12:31:08 | 48.93939 | 10.08520 | 220° | 31km/h | 25308m | -15.2m/s | -50.8°C | 0.3% | 25.6hPa | 2.6V | 08:24:25 | 02:01:36 | 00:00:00 | |
| DL1XH-west | 2026-09-01 12:31:03 | 48.93929 | 10.08571 | 320° | 44km/h | 25373m | -13.8m/s | -50.7°C | 0.2% | 25.4hPa | 2.6V | 08:25:16 | 02:01:31 | 00:00:00 | |
| HSKMA3-T | 2026-09-01 12:31:02 | 48.93921 | 10.08582 | 322° | 42km/h | 25387m | -14.2m/s | -50.7°C | 0.2% | 25.4hPa | 2.7V | 08:25:16 | 02:01:30 | 00:00:00 | |
| DG9SBQ-11 | 2026-09-01 12:31:01 | 48.93913 | 10.08592 | 320° | 44km/h | 25401m | -14.2m/s | -50.7°C | 0.9% | 25.3hPa | 2.6V | 00:00:00 | 00:00:00 | 00:00:00 | |
| DL1XH1-15 | 2026-09-01 12:31:00 | 48.93898 | 10.08616 | 306° | 42km/h | 25429m | -13.8m/s | -50.7°C | 3.7% | 25.2hPa | 2.6V | 08:24:31 | 02:01:27 | 00:00:00 | |
| DM0DOS-11 | 2026-09-01 12:31:00 | 48.93892 | 10.08630 | 296° | 40km/h | 25442m | -13.4m/s | -50.7°C | 3.7% | 25.1hPa | 2.6V | 08:24:32 | 02:01:26 | 00:00:00 | |
| DK7TD | 2026-09-01 12:30:58 | 48.93892 | 10.08630 | 296° | 40km/h | 25442m | -13.4m/s | -50.7°C | 0.2% | 25.1hPa | 2.6V | 08:26:07 | 02:01:26 | 00:00:00 | |
| SONDE2-11 | 2026-09-01 12:30:57 | 48.93889 | 10.08644 | 284° | 38km/h | 25455m | -12.9m/s | -50.7°C | 0.8% | 25.0hPa | 2.7V | 00:00:00 | 00:00:00 | 00:00:00 | |
| EDDB2-11 | 2026-09-01 12:30:55 | 48.93891 | 10.08703 | 254° | 38km/h | 25506m | -13.8m/s | -50.7°C | 0.8% | 24.9hPa | 2.7V | 00:00:00 | 00:00:00 | 00:00:00 | |
| DM0DOS-11 | 2026-09-01 12:30:53 | 48.93899 | 10.08780 | 271° | 44km/h | 25574m | -14.5m/s | -50.5°C | 3.7% | 24.6hPa | 2.7V | 08:24:42 | 02:01:16 | 00:00:00 | |
| DL1XH-west | 2026-09-01 12:30:52 | 48.93894 | 10.08718 | 257° | 40km/h | 25519m | -13.6m/s | -50.6°C | 0.2% | 24.8hPa | 2.6V | 08:25:16 | 02:01:20 | 00:00:00 | |
| DB0UT-7 | 2026-09-01 12:30:52 | 48.93893 | 10.08718 | 258° | 47km/h | 25520m | -13.6m/s | -50.5°C | 3.6% | 24.8hPa | 2.7V | 00:00:00 | 02:01:20 | 00:00:00 | |
| PG1ADW-2 | 2026-09-01 12:30:51 | 48.93896 | 10.08732 | 256° | 47km/h | 25533m | -13.6m/s | -50.5°C | 3.6% | 24.7hPa | 2.7V | 00:00:00 | 02:01:19 | 00:00:00 | |
| DL1XH1-15 | 2026-09-01 12:30:50 | 48.93899 | 10.08764 | 265° | 40km/h | 25560m | -14.6m/s | -50.5°C | 3.6% | 24.7hPa | 2.7V | 08:24:41 | 02:01:17 | 00:00:00 | |
| DK7TD | 2026-09-01 12:30:47 | 48.93898 | 10.08797 | 277° | 46km/h | 25588m | -14.5m/s | -50.5°C | 0.3% | 24.6hPa | 2.6V | 08:26:07 | 02:01:15 | 00:00:00 | |
| DL1XH1-15 | 2026-09-01 12:30:44 | 48.93835 | 10.08893 | 357° | 55km/h | 25703m | -15.5m/s | -50.3°C | 3.8% | 24.1hPa | 2.7V | 08:24:51 | 02:01:07 | 00:00:00 | |
| DL1XH-west | 2026-09-01 12:30:41 | 48.93860 | 10.08883 | 335° | 49km/h | 25673m | -14.7m/s | -50.5°C | 0.4% | 24.2hPa | 2.7V | 08:25:16 | 02:01:09 | 00:00:00 | |
| OE5DXL-15 | 2026-09-01 12:30:40 | 48.93848 | 10.08889 | 344° | 51km/h | 25688m | -15.1m/s | -50.3°C | 3.8% | 24.1hPa | 2.7V | 00:00:00 | 00:00:00 | 00:00:00 | |
| DM0DOS-11 | 2026-09-01 12:30:39 | 48.93822 | 10.08892 | 9° | 51km/h | 25717m | -14.9m/s | -50.3°C | 3.7% | 24hPa | 2.6V | 08:24:52 | 02:01:06 | 00:00:00 | |
| DK7TD | 2026-09-01 12:30:36 | 48.93797 | 10.08879 | 30° | 53km/h | 25748m | -16.8m/s | -50.1°C | 0.2% | 24hPa | 2.6V | 08:26:07 | 02:01:04 | 00:00:00 | |
| NBG1-10 | 2026-09-01 12:30:35 | 48.93786 | 10.08867 | 45° | 51km/h | 25764m | -16.7m/s | -49.9°C | 3.5% | 23.8hPa | 2.7V | 00:00:00 | 02:01:03 | 00:00:00 | |
| DG9SBQ-11 | 2026-09-01 12:30:33 | 48.93775 | 10.08836 | 78° | 46km/h | 25798m | -16.7m/s | -49.9°C | 0.8% | 23.8hPa | 2.7V | 00:00:00 | 00:00:00 | 00:00:00 | |
| DM0DOS-11 | 2026-09-01 12:30:32 | 48.93800 | 10.08797 | 205° | 44km/h | 25883m | -17.2m/s | -50°C | 3.7% | 23.4hPa | 2.7V | 08:25:02 | 02:00:56 | 00:00:00 | |
| DL1XH-west | 2026-09-01 12:30:31 | 48.93777 | 10.08806 | 122° | 38km/h | 25831m | -17.1m/s | -50°C | 0.2% | 23.7hPa | 2.6V | 08:25:16 | 02:00:59 | 00:00:00 | |
| DB0NH | 2026-09-01 12:30:31 | 48.93777 | 10.08806 | 123° | 53km/h | 25831m | -17.1m/s | -49.9°C | 3.6% | 23.6hPa | 2.6V | 00:00:00 | 02:00:59 | 00:00:00 | |
| DL1XH1-15 | 2026-09-01 12:30:30 | 48.93792 | 10.08793 | 180° | 35km/h | 25866m | -18.1m/s | -50°C | 3.6% | 23.5hPa | 2.7V | 08:25:01 | 02:00:57 | 00:00:00 | |
| HSKMA3-T | 2026-09-01 12:30:30 | 48.93783 | 10.08797 | 152° | 37km/h | 25848m | -18m/s | -50°C | 0.3% | 23.6hPa | 2.6V | 08:25:16 | 02:00:58 | 00:00:00 | |
| DL1XH-west | 2026-09-01 12:30:21 | 48.93770 | 10.08921 | 346° | 78km/h | 25997m | -16.5m/s | -49.8°C | 0.3% | 23hPa | 2.6V | 08:25:16 | 02:00:49 | 00:00:00 | |
| DL1ZP-14 | 2026-09-01 12:30:21 | 48.93770 | 10.08921 | 346° | 77km/h | 25998m | -16.5m/s | -49.8°C | 0.8% | 23.0hPa | 2.6V | 00:00:00 | 00:00:00 | 00:00:00 | |
| DM0DOS-11 | 2026-09-01 12:30:20 | 48.93716 | 10.08908 | 35° | 66km/h | 26045m | -16.5m/s | -49.4°C | 3.5% | 22.9hPa | 2.7V | 08:25:12 | 02:00:46 | 00:00:00 | |
| DK7TD | 2026-09-01 12:30:20 | 48.93716 | 10.08908 | 35° | 66km/h | 26045m | -16.5m/s | -49.4°C | 0.2% | 22.9hPa | 2.7V | 08:26:07 | 02:00:46 | 00:00:00 | |
| DJTTGO | 2026-09-01 12:30:20 | 48.93731 | 10.08919 | 19° | 73km/h | 26029m | -16.1m/s | -49.5°C | 0.8% | 22.9hPa | 2.6V | 00:00:00 | 00:00:00 | 00:00:00 | |
| DG9SBQ-11 | 2026-09-01 12:30:19 | 48.93705 | 10.08892 | 54° | 55km/h | 26061m | -16.4m/s | -49.4°C | 0.8% | 22.8hPa | 2.6V | 00:00:00 | 00:00:00 | 00:00:00 | |
| DL1NUX | 2026-09-01 12:30:17 | 48.93722 | 10.08858 | 233° | 42km/h | 26155m | -16.2m/s | -48.6°C | 3.3% | 22.5hPa | 2.6V | 08:25:19 | 02:00:39 | 00:00:00 | |
| DL1XH-west | 2026-09-01 12:30:11 | 48.93722 | 10.08858 | 233° | 42km/h | 26155m | -16.2m/s | -48.6°C | 0.1% | 22.5hPa | 2.6V | 08:26:07 | 02:00:39 | 00:00:00 | |
| PG1ADW-2 | 2026-09-01 12:30:11 | 48.93722 | 10.08858 | 234° | 42km/h | 26156m | -16.2m/s | -48.6°C | 3.3% | 22.5hPa | 2.6V | 00:00:00 | 00:00:00 | 00:00:00 | |
| DL1XH1-15 | 2026-09-01 12:30:10 | 48.93727 | 10.08892 | 274° | 49km/h | 26189m | -18.1m/s | -48.5°C | 3.3% | 22.4hPa | 2.6V | 08:25:21 | 02:00:37 | 00:00:00 | |
| HSKMA3-T | 2026-09-01 12:30:07 | 48.93716 | 10.08926 | 314° | 55km/h | 26222m | -16.5m/s | -48.4°C | 0% | 22.3hPa | 2.7V | 08:26:07 | 02:00:35 | 00:00:00 | |
| DK7TD | 2026-09-01 12:30:03 | 48.93667 | 10.08935 | 33° | 57km/h | 26277m | -13.2m/s | -48.4°C | 0% | 22.1hPa | 2.7V | 08:26:07 | 02:00:31 | 00:00:00 | |
| DM0DOS-11 | 2026-09-01 12:30:02 | 48.93631 | 10.08861 | 65° | 27km/h | 26362m | -16.1m/s | -48.6°C | 3.4% | 21.8hPa | 2.7V | 08:25:32 | 02:00:26 | 00:00:00 | |
| NBG1-10 | 2026-09-01 12:30:02 | 48.93656 | 10.08921 | 46° | 46km/h | 26291m | -16.5m/s | -48.4°C | 3.3% | 22.0hPa | 2.7V | 00:00:00 | 02:00:30 | 00:00:00 | |
| DB0NH | 2026-09-01 12:30:01 | 48.93647 | 10.08904 | 56° | 46km/h | 26308m | -17.7m/s | -48.4°C | 3.3% | 21.9hPa | 2.7V | 00:00:00 | 02:00:29 | 00:00:00 | |
| DL1XH1-15 | 2026-09-01 12:30:00 | 48.93634 | 10.08872 | 63° | 40km/h | 26344m | -18.7m/s | -48.5°C | 3.3% | 21.8hPa | 2.7V | 08:25:31 | 02:00:27 | 00:00:00 | |
| DL1XH-west | 2026-09-01 12:30:00 | 48.93640 | 10.08887 | 61° | 49km/h | 26326m | -19m/s | -48.5°C | 0.1% | 21.9hPa | 2.6V | 08:26:07 | 02:00:28 | 00:00:00 | |
| HSKMA3-T | 2026-09-01 12:29:57 | 48.93629 | 10.08854 | 63° | 13km/h | 26377m | -13.9m/s | -48.6°C | 0% | 21.7hPa | 2.7V | 08:26:07 | 02:00:25 | 00:00:00 | |
| SONDE2-11 | 2026-09-01 12:29:55 | 48.93629 | 10.08867 | 261° | 33km/h | 26416m | -14.8m/s | -48.6°C | 0.7% | 21.6hPa | 2.7V | 00:00:00 | 00:00:00 | 00:00:00 | |
| DB0UT-7 | 2026-09-01 12:29:52 | 48.93650 | 10.08898 | 252° | 46km/h | 26447m | -16.6m/s | -48.5°C | 3.3% | 21.5hPa | 2.7V | 00:00:00 | 02:00:20 | 00:00:00 | |
| DK7TD | 2026-09-01 12:29:52 | 48.93633 | 10.08898 | 251° | 44km/h | 26446m | -16.6m/s | -48.5°C | 0.1% | 21.5hPa | 2.7V | 08:26:07 | 02:00:20 | 00:00:00 | |
| SO1NDE-10 | 2026-09-01 12:29:51 | 48.93638 | 10.08914 | 241° | 47km/h | 26463m | -16.8m/s | -48.4°C | 3.2% | 21.4hPa | 2.7V | 08:25:00 | 02:00:19 | 00:00:00 | |
| DL1XH1-15 | 2026-09-01 12:29:50 | 48.93652 | 10.08942 | 221° | 42km/h | 26497m | -18.3m/s | -48.3°C | 3.2% | 21.3hPa | 2.6V | 08:25:41 | 02:00:17 | 00:00:00 | |
| DL1XH-west | 2026-09-01 12:29:50 | 48.93645 | 10.08929 | 232° | 49km/h | 26480m | -17.2m/s | -48.4°C | 0% | 21.4hPa | 2.6V | 08:26:07 | 02:00:18 | 00:00:00 | |
| DL1NUX | 2026-09-01 12:29:50 | 48.93661 | 10.08950 | 202° | 38km/h | 26515m | -17.2m/s | -48.2°C | 3.3% | 21.3hPa | 2.6V | 08:25:42 | 02:00:16 | 00:00:00 | |
| HSKMA3-T | 2026-09-01 12:29:46 | 48.93678 | 10.08949 | 154° | 38km/h | 26548m | -15.7m/s | -48.2°C | 0% | 21.2hPa | 2.7V | 08:26:07 | 02:00:14 | 00:00:00 | |
| DK7TD | 2026-09-01 12:29:41 | 48.93678 | 10.08877 | 50° | 60km/h | 26629m | -16.9m/s | -48.3°C | 0% | 20.9hPa | 2.7V | 08:26:07 | 02:00:09 | 00:00:00 | |
| DL1XH1-15 | 2026-09-01 12:29:40 | 48.93653 | 10.08850 | 19° | 64km/h | 26663m | -16.6m/s | -48.5°C | 3.3% | 20.8hPa | 2.6V | 08:25:51 | 02:00:07 | 00:00:00 | |
| DL1XH-west | 2026-09-01 12:29:39 | 48.93654 | 10.08850 | 19° | 64km/h | 26663m | -16.6m/s | -48.5°C | 0.1% | 20.8hPa | 2.6V | 08:26:07 | 02:00:07 | 00:00:00 | |
| DM0DOS-11 | 2026-09-01 12:29:39 | 48.93637 | 10.08845 | 8° | 68km/h | 26679m | -16m/s | -48.6°C | 3.3% | 20.8hPa | 2.6V | 08:25:52 | 02:00:06 | 00:00:00 | |
| HSKMA3-T | 2026-09-01 12:29:35 | 48.93592 | 10.08863 | 323° | 64km/h | 26727m | -15.7m/s | -48.7°C | 0.1% | 20.6hPa | 2.7V | 08:26:07 | 02:00:03 | 00:00:00 | |
| DM0DOS-11 | 2026-09-01 12:29:33 | 48.93579 | 10.08967 | 211° | 29km/h | 26834m | -15.6m/s | -48.3°C | 3.3% | 20.3hPa | 2.7V | 08:26:02 | 01:59:56 | 00:00:00 | |
| PG1ADW-2 | 2026-09-01 12:29:31 | 48.93568 | 10.08932 | 265° | 42km/h | 26789m | -15.1m/s | -48.5°C | 3.3% | 20.4hPa | 2.6V | 00:00:00 | 01:59:59 | 00:00:00 | |
| DK7TD | 2026-09-01 12:29:31 | 48.93568 | 10.08932 | 264° | 44km/h | 26789m | -15.2m/s | -48.6°C | 0% | 20.4hPa | 2.6V | 08:26:07 | 01:59:59 | 00:00:00 | |
| DL1XH1-15 | 2026-09-01 12:29:30 | 48.93574 | 10.08959 | 235° | 31km/h | 26818m | -15.1m/s | -48.4°C | 3.3% | 20.3hPa | 2.7V | 08:26:01 | 01:59:57 | 00:00:00 | |
| DL1NUX | 2026-09-01 12:29:29 | 48.93586 | 10.08971 | 188° | 29km/h | 26849m | -15.4m/s | -48.3°C | 3.3% | 20.2hPa | 2.6V | 08:26:03 | 01:59:55 | 00:00:00 | |
| DL1XH-west | 2026-09-01 12:29:28 | 48.93580 | 10.08967 | 211° | 29km/h | 26834m | -15.6m/s | -48.3°C | 0.1% | 20.3hPa | 2.7V | 08:26:07 | 01:59:56 | 00:00:00 | |
| HSKMA3-T | 2026-09-01 12:29:25 | 48.93599 | 10.08966 | 140° | 27km/h | 26879m | -15.4m/s | -48.2°C | 0% | 20.1hPa | 2.7V | 08:26:07 | 01:59:53 | 00:00:00 | |
| SONDE2-11 | 2026-09-01 12:29:24 | 48.93606 | 10.08947 | 98° | 33km/h | 26909m | -15.7m/s | -48.2°C | 0.7% | 20.0hPa | 2.6V | 00:00:00 | 00:00:00 | 00:00:00 | |
| DM0DOS-11 | 2026-09-01 12:29:22 | 48.93581 | 10.08877 | 36° | 53km/h | 26982m | -14.9m/s | -48°C | 3.2% | 19.8hPa | 2.6V | 08:26:12 | 01:59:46 | 00:00:00 | |
| DK7TD | 2026-09-01 12:29:21 | 48.93603 | 10.08919 | 68° | 42km/h | 26939m | -15m/s | -48.1°C | 0% | 20hPa | 2.7V | 08:26:58 | 01:59:49 | 00:00:00 | |
| DL1XH1-15 | 2026-09-01 12:29:20 | 48.93591 | 10.08890 | 46° | 49km/h | 26968m | -14.6m/s | -48°C | 3.2% | 19.9hPa | 2.7V | 08:26:11 | 01:59:47 | 00:00:00 | |
| DJ2DS-15 | 2026-09-01 12:29:20 | 48.93598 | 10.08904 | 56° | 46km/h | 26954m | -14.9m/s | -48.0°C | 3.2% | 19.9hPa | 2.7V | 08:26:00 | 01:59:48 | 00:00:00 | |
| DL1NUX | 2026-09-01 12:29:19 | 48.93569 | 10.08866 | 30° | 55km/h | 26997m | -14.8m/s | -48°C | 3.2% | 19.8hPa | 2.6V | 08:26:13 | 01:59:45 | 00:00:00 | |
| DL1XH-west | 2026-09-01 12:29:17 | 48.93569 | 10.08866 | 31° | 55km/h | 26997m | -14.8m/s | -48.1°C | 0% | 19.8hPa | 2.6V | 08:26:58 | 01:59:45 | 00:00:00 | |
| HSKMA3-T | 2026-09-01 12:29:15 | 48.93544 | 10.08847 | 22° | 55km/h | 27026m | -15m/s | -48°C | 0% | 19.7hPa | 2.7V | 08:26:58 | 01:59:43 | 00:00:00 | |
| DL1XH1-15 | 2026-09-01 12:29:14 | 48.93465 | 10.08826 | 349° | 37km/h | 27130m | -15.4m/s | -48.1°C | 3.4% | 19.4hPa | 2.6V | 08:26:22 | 01:59:36 | 00:00:00 | |
| DL1NUX | 2026-09-01 12:29:12 | 48.93456 | 10.08830 | 336° | 37km/h | 27145m | -15.1m/s | -48.2°C | 3.4% | 19.3hPa | 2.6V | 08:26:23 | 01:59:35 | 00:00:00 | |
| DM0DOS-11 | 2026-09-01 12:29:11 | 48.93465 | 10.08826 | 349° | 37km/h | 27130m | -15.4m/s | -48.1°C | 3.4% | 19.4hPa | 2.6V | 08:26:22 | 01:59:36 | 00:00:00 | |
| DK7TD | 2026-09-01 12:29:10 | 48.93484 | 10.08823 | 2° | 44km/h | 27101m | -15.7m/s | -48.2°C | 0.1% | 19.5hPa | 2.7V | 08:26:58 | 01:59:38 | 00:00:00 | |
| DL1XH-west | 2026-09-01 12:29:07 | 48.93448 | 10.08836 | 328° | 33km/h | 27160m | -15.8m/s | -48.2°C | 0.1% | 19.3hPa | 2.7V | 08:26:58 | 01:59:34 | 00:00:00 | |
| HSKMA3-T | 2026-09-01 12:29:05 | 48.93442 | 10.08845 | 314° | 38km/h | 27176m | -15.9m/s | -48.1°C | 0% | 19.2hPa | 2.7V | 08:26:58 | 01:59:33 | 00:00:00 | |
| DL1NUX | 2026-09-01 12:29:02 | 48.93462 | 10.08944 | 192° | 55km/h | 27311m | -17.9m/s | -47.6°C | 3.1% | 18.8hPa | 2.6V | 08:26:33 | 01:59:25 | 00:00:00 | |
| DM0DOS-11 | 2026-09-01 12:29:01 | 48.93449 | 10.08938 | 207° | 53km/h | 27293m | -17.1m/s | -47.6°C | 3.1% | 18.9hPa | 2.7V | 08:26:32 | 01:59:26 | 00:00:00 | |
| DF8AY | 2026-09-01 12:28:59 | 48.93439 | 10.08927 | 223° | 47km/h | 27277m | -17.2m/s | -47.7°C | 0% | 18.9hPa | 2.7V | 08:27:49 | 01:59:27 | 00:00:00 | |
| DL1XH-west | 2026-09-01 12:28:57 | 48.93475 | 10.08946 | 177° | 51km/h | 27328m | -17.8m/s | -47.7°C | 0% | 18.8hPa | 2.6V | 08:26:58 | 01:59:24 | 00:00:00 | |
| HSKMA3-T | 2026-09-01 12:28:55 | 48.93488 | 10.08942 | 158° | 53km/h | 27346m | -17.9m/s | -47.6°C | 0% | 18.7hPa | 2.6V | 08:26:58 | 01:59:23 | 00:00:00 | |
| DH7VM-15 | 2026-09-01 12:28:53 | 48.93509 | 10.08920 | 130° | 51km/h | 27381m | -17.0m/s | -47.7°C | 0.7% | 18.6hPa | 2.7V | 00:00:00 | 00:00:00 | 00:00:00 | |
| DB0UT-7 | 2026-09-01 12:28:52 | 48.93515 | 10.08903 | 111° | 51km/h | 27397m | -16.1m/s | -47.7°C | 3.3% | 18.6hPa | 2.7V | 00:00:00 | 01:59:20 | 00:00:00 | |
| DL1NUX | 2026-09-01 12:28:51 | 48.93495 | 10.08827 | 26° | 44km/h | 27484m | -18.8m/s | -48°C | 3.3% | 18.3hPa | 2.7V | 08:26:43 | 01:59:15 | 00:00:00 | |
| PG1ADW-2 | 2026-09-01 12:28:51 | 48.93518 | 10.08885 | 95° | 47km/h | 27413m | -16.8m/s | -47.8°C | 3.3% | 18.5hPa | 2.6V | 00:00:00 | 00:00:00 | 00:00:00 | |
| DG9SBQ-11 | 2026-09-01 12:28:50 | 48.93518 | 10.08885 | 95° | 49km/h | 27413m | -16.9m/s | -47.8°C | 0.7% | 18.5hPa | 2.6V | 08:26:00 | 00:00:00 | 00:00:00 | |
| DM0DOS-11 | 2026-09-01 12:28:49 | 48.93504 | 10.08837 | 42° | 49km/h | 27466m | -18.2m/s | -48°C | 3.3% | 18.4hPa | 2.6V | 08:26:42 | 01:59:16 | 00:00:00 | |
| DK7TD | 2026-09-01 12:28:48 | 48.93504 | 10.08837 | 43° | 49km/h | 27466m | -18.2m/s | -48°C | 0% | 18.4hPa | 2.6V | 08:26:58 | 01:59:16 | 00:00:00 | |
| DL1XH-west | 2026-09-01 12:28:47 | 48.93485 | 10.08822 | 6° | 44km/h | 27502m | -18.3m/s | -48°C | 0.1% | 18.3hPa | 2.7V | 08:26:58 | 01:59:14 | 00:00:00 | |
| DF8AY | 2026-09-01 12:28:45 | 48.93475 | 10.08822 | 349° | 38km/h | 27519m | -18.5m/s | -48°C | 0% | 18.3hPa | 2.7V | 08:27:49 | 01:59:13 | 00:00:00 | |
| HSKMA3-T | 2026-09-01 12:28:44 | 48.93466 | 10.08828 | 328° | 37km/h | 27537m | -15.9m/s | -48°C | 0.1% | 18.2hPa | 2.6V | 08:26:58 | 01:59:12 | 00:00:00 | |
| DM0DOS-11 | 2026-09-01 12:28:42 | 48.93471 | 10.08920 | 230° | 57km/h | 27638m | -19.7m/s | -47.9°C | 3.3% | 17.9hPa | 2.6V | 08:26:52 | 01:59:06 | 00:00:00 | |
| DL1NUX | 2026-09-01 12:28:41 | 48.93481 | 10.08935 | 221° | 58km/h | 27657m | -19.3m/s | -47.9°C | 3.3% | 17.9hPa | 2.6V | 08:26:53 | 01:59:05 | 00:00:00 | |
| DK7TD | 2026-09-01 12:28:38 | 48.93471 | 10.08920 | 231° | 57km/h | 27638m | -19.7m/s | -47.9°C | 0.1% | 17.9hPa | 2.6V | 08:26:58 | 01:59:06 | 00:00:00 | |
| DL1XH-west | 2026-09-01 12:28:36 | 48.93492 | 10.08948 | 209° | 53km/h | 27676m | -20.3m/s | -47.9°C | 0.1% | 17.8hPa | 2.7V | 08:26:58 | 01:59:04 | 00:00:00 | |
| DF8AY | 2026-09-01 12:28:35 | 48.93504 | 10.08954 | 192° | 47km/h | 27696m | -20.1m/s | -47.9°C | 0.1% | 17.7hPa | 2.7V | 08:27:49 | 01:59:03 | 00:00:00 | |
| HSKMA3-T | 2026-09-01 12:28:34 | 48.93515 | 10.08955 | 169° | 44km/h | 27716m | -19.5m/s | -47.9°C | 0.2% | 17.7hPa | 2.7V | 08:26:58 | 01:59:02 | 00:00:00 | |
| DL1NUX | 2026-09-01 12:28:32 | 48.93507 | 10.08845 | 26° | 66km/h | 27843m | -18.6m/s | -47.7°C | 3.4% | 17.3hPa | 2.6V | 08:27:03 | 01:58:55 | 00:00:00 | |
| PG1ADW-2 | 2026-09-01 12:28:32 | 48.93536 | 10.08919 | 97° | 62km/h | 27772m | -18.5m/s | -47.7°C | 3.5% | 17.5hPa | 2.6V | 00:00:00 | 00:00:00 | 08:30:00 | |
| DG9SBQ-11 | 2026-09-01 12:28:31 | 48.93536 | 10.08919 | 97° | 53km/h | 27772m | -18.6m/s | -47.8°C | 0.8% | 17.6hPa | 2.7V | 08:27:00 | 00:00:00 | 00:00:00 | |
| DM0DOS-11 | 2026-09-01 12:28:29 | 48.93520 | 10.08859 | 44° | 62km/h | 27825m | -18.3m/s | -47.7°C | 3.4% | 17.4hPa | 2.7V | 08:27:02 | 01:58:56 | 00:00:00 | |
| DK7TD | 2026-09-01 12:28:27 | 48.93508 | 10.08845 | 27° | 66km/h | 27843m | -18.6m/s | -47.7°C | 0.1% | 17.3hPa | 2.6V | 08:27:49 | 01:58:55 | 00:00:00 | |
| DL1XH-west | 2026-09-01 12:28:26 | 48.93459 | 10.08841 | 342° | 66km/h | 27899m | -17.9m/s | -47.5°C | 0% | 17.2hPa | 2.7V | 08:27:49 | 01:58:52 | 00:00:00 | |
| HSKMA3-T | 2026-09-01 12:28:24 | 48.93445 | 10.08851 | 324° | 60km/h | 27916m | -19m/s | -47.4°C | 0% | 17.2hPa | 2.7V | 08:27:49 | 01:58:51 | 00:00:00 | |
| NBG1-10 | 2026-09-01 12:28:23 | 48.93445 | 10.08851 | 324° | 55km/h | 27917m | -19.0m/s | -47.3°C | 3.2% | 17.1hPa | 2.7V | 00:00:00 | 01:58:51 | 00:00:00 | |
| SONDE2-11 | 2026-09-01 12:28:22 | 48.93429 | 10.08884 | 287° | 49km/h | 27954m | -18.8m/s | -47.3°C | 0.7% | 17.0hPa | 2.7V | 00:00:00 | 00:00:00 | 00:00:00 | |
| DL1NUX | 2026-09-01 12:28:21 | 48.93447 | 10.08933 | 187° | 44km/h | 28028m | -17.7m/s | -46.6°C | 3.1% | 16.9hPa | 2.7V | 08:27:13 | 01:58:45 | 00:00:00 | |
| DF8AY | 2026-09-01 12:28:20 | 48.93430 | 10.08917 | 239° | 42km/h | 27991m | -19.3m/s | -47°C | 0% | 16.9hPa | 2.7V | 08:27:49 | 01:58:47 | 00:00:00 | |
| DK7TD | 2026-09-01 12:28:17 | 48.93447 | 10.08933 | 188° | 44km/h | 28028m | -17.7m/s | -46.6°C | 0% | 16.9hPa | 2.7V | 08:27:49 | 01:58:45 | 00:00:00 | |
| DL1XH-west | 2026-09-01 12:28:14 | 48.93478 | 10.08910 | 125° | 57km/h | 28081m | -18.5m/s | -46.3°C | 0% | 16.7hPa | 2.6V | 08:27:49 | 01:58:42 | 00:00:00 | |
| HSKMA3-T | 2026-09-01 12:28:13 | 48.93484 | 10.08890 | 108° | 60km/h | 28099m | -18.5m/s | -46.3°C | 0% | 16.7hPa | 2.7V | 08:27:49 | 01:58:41 | 00:00:00 | |
| PG1ADW-2 | 2026-09-01 12:28:11 | 48.93485 | 10.08842 | 78° | 64km/h | 28136m | -18.7m/s | -46.1°C | 3.1% | 16.5hPa | 2.6V | 00:00:00 | 01:58:39 | 00:00:00 | |
| OE5DXL-15 | 2026-09-01 12:28:10 | 48.93479 | 10.08818 | 62° | 55km/h | 28155m | -19.3m/s | -46.0°C | 3.1% | 16.5hPa | 2.6V | 00:00:00 | 01:58:38 | 00:00:00 | |
| DM0DOS-11 | 2026-09-01 12:28:09 | 48.93457 | 10.08780 | 31° | 66km/h | 28193m | -19.3m/s | -45.9°C | 2.9% | 16.4hPa | 2.6V | 08:27:22 | 01:58:36 | 00:00:00 | |
| DK7TD | 2026-09-01 12:28:06 | 48.93426 | 10.08766 | 0° | 58km/h | 28231m | -20.1m/s | -45.7°C | 0% | 16.4hPa | 2.7V | 08:27:49 | 01:58:34 | 00:00:00 | |
| DL1XH-west | 2026-09-01 12:28:04 | 48.93402 | 10.08778 | 320° | 46km/h | 28269m | -17.8m/s | -45.7°C | 0% | 16.3hPa | 2.7V | 08:27:49 | 01:58:32 | 00:00:00 | |
| DF8AY | 2026-09-01 12:28:03 | 48.93395 | 10.08791 | 296° | 46km/h | 28286m | -16.7m/s | -45.7°C | 0% | 16.2hPa | 2.6V | 08:27:49 | 01:58:31 | 00:00:00 | |
| HSKMA3-T | 2026-09-01 12:28:02 | 48.93393 | 10.08808 | 272° | 47km/h | 28303m | -16.7m/s | -45.8°C | 0% | 16.2hPa | 2.6V | 08:27:49 | 01:58:30 | 00:00:00 | |
| DK7TD | 2026-09-01 12:27:56 | 48.93453 | 10.08870 | 168° | 55km/h | 28413m | -20.1m/s | -45.9°C | 0% | 15.9hPa | 2.6V | 08:27:49 | 01:58:24 | 00:00:00 | |
| DL1XH-west | 2026-09-01 12:27:53 | 48.93479 | 10.08830 | 105° | 55km/h | 28469m | -17.6m/s | -46°C | 0% | 15.7hPa | 2.7V | 08:27:49 | 01:58:21 | 00:00:00 | |
| HSKMA3-T | 2026-09-01 12:27:51 | 48.93476 | 10.08790 | 63° | 55km/h | 28506m | -19.3m/s | -46°C | 0% | 15.7hPa | 2.6V | 08:27:49 | 01:58:19 | 00:00:00 | |
| SONDE2-11 | 2026-09-01 12:27:51 | 48.93468 | 10.08772 | 45° | 57km/h | 28524m | -18.8m/s | -46.0°C | 0.7% | 15.6hPa | 2.6V | 00:00:00 | 00:00:00 | 00:00:00 | |
| NBG1-10 | 2026-09-01 12:27:50 | 48.93468 | 10.08772 | 46° | 53km/h | 28525m | -18.7m/s | -46.0°C | 3.1% | 15.6hPa | 2.6V | 00:00:00 | 01:58:18 | 00:00:00 | |
| DO3MHA-11 | 2026-09-01 12:27:49 | 48.93456 | 10.08759 | 30° | 49km/h | 28544m | -20.1m/s | -46.0°C | 3.0% | 15.5hPa | 2.7V | 00:00:00 | 01:58:17 | 00:00:00 | |
| DO3MHA-12 | 2026-09-01 12:27:48 | 48.93442 | 10.08750 | 16° | 49km/h | 28564m | -20.1m/s | -46.1°C | 3.0% | 15.5hPa | 2.7V | 00:00:00 | 01:58:16 | 00:00:00 | |
| DL1NUX | 2026-09-01 12:27:47 | 48.93389 | 10.08792 | 257° | 38km/h | 28677m | -17.9m/s | -46.5°C | 3.1% | 15.3hPa | 2.7V | 08:27:48 | 01:58:10 | 00:00:00 | |
| DK7TD | 2026-09-01 12:27:45 | 48.93402 | 10.08754 | 332° | 47km/h | 28623m | -19.3m/s | -46.4°C | 0% | 15.4hPa | 2.6V | 08:27:49 | 01:58:13 | 00:00:00 | |
| DL1XH-west | 2026-09-01 12:27:42 | 48.93389 | 10.08793 | 258° | 38km/h | 28677m | -17.9m/s | -46.5°C | 0% | 15.3hPa | 2.7V | 08:27:49 | 01:58:10 | 00:00:00 | |
| DM0DOS-11 | 2026-09-01 12:27:42 | 48.93430 | 10.08826 | 179° | 66km/h | 28749m | -18.8m/s | -45.9°C | 3.1% | 15.1hPa | 2.6V | 08:27:52 | 01:58:06 | 00:00:00 | |
| HSKMA3-T | 2026-09-01 12:27:41 | 48.93393 | 10.08806 | 230° | 42km/h | 28695m | -18.2m/s | -46.4°C | 0% | 15.2hPa | 2.7V | 08:27:49 | 01:58:09 | 00:00:00 | |
| DF8AY | 2026-09-01 12:27:38 | 48.93447 | 10.08823 | 168° | 71km/h | 28768m | -19.1m/s | -45.8°C | 0% | 15.1hPa | 2.7V | 08:28:40 | 01:58:05 | 00:00:00 | |
| DK7TD | 2026-09-01 12:27:34 | 48.93491 | 10.08786 | 131° | 64km/h | 28826m | -19.5m/s | -45.4°C | 0% | 14.9hPa | 2.7V | 08:28:40 | 01:58:02 | 00:00:00 | |
| DL1XH-west | 2026-09-01 12:27:32 | 48.93504 | 10.08744 | 98° | 60km/h | 28863m | -18.3m/s | -45.1°C | 0% | 14.8hPa | 2.6V | 08:28:40 | 01:58:00 | 00:00:00 | |
| HSKMA3-T | 2026-09-01 12:27:31 | 48.93501 | 10.08703 | 62° | 51km/h | 28899m | -18.4m/s | -44.9°C | 0% | 14.8hPa | 2.7V | 08:28:40 | 01:57:58 | 00:00:00 | |
| DL1NUX | 2026-09-01 12:27:30 | 48.93447 | 10.08678 | 334° | 46km/h | 28993m | -19.7m/s | -44.7°C | 2.9% | 14.6hPa | 2.6V | 08:28:05 | 01:57:53 | 00:00:00 | |
| OE5WHR-10 | 2026-09-01 12:27:30 | 48.93501 | 10.08703 | 63° | 55km/h | 28899m | -18.4m/s | -44.9°C | 2.9% | 14.7hPa | 2.7V | 00:00:00 | 00:00:00 | 00:00:00 | |
| DM0DOS-11 | 2026-09-01 12:27:29 | 48.93483 | 10.08678 | 22° | 49km/h | 28936m | -19m/s | -44.8°C | 2.9% | 14.7hPa | 2.7V | 08:28:02 | 01:57:56 | 00:00:00 | |
| DF8AY | 2026-09-01 12:27:25 | 48.93447 | 10.08678 | 335° | 46km/h | 28993m | -19.7m/s | -44.7°C | 0% | 14.6hPa | 2.6V | 08:28:40 | 01:57:53 | 00:00:00 | |
| DK7TD | 2026-09-01 12:27:24 | 48.93438 | 10.08687 | 316° | 44km/h | 29012m | -18.6m/s | -44.7°C | 0% | 14.5hPa | 2.7V | 08:28:40 | 01:57:52 | 00:00:00 | |
| DL1XH-west | 2026-09-01 12:27:21 | 48.93430 | 10.08733 | 254° | 44km/h | 29067m | -18.7m/s | -44.6°C | 0% | 14.4hPa | 2.6V | 08:28:40 | 01:57:49 | 00:00:00 | |
| HSKMA3-T | 2026-09-01 12:27:20 | 48.93444 | 10.08760 | 213° | 51km/h | 29104m | -18.3m/s | -44.4°C | 0% | 14.3hPa | 2.7V | 08:28:40 | 01:57:47 | 00:00:00 | |
| DM0DOS-11 | 2026-09-01 12:27:19 | 48.93456 | 10.08768 | 197° | 57km/h | 29122m | -18.6m/s | -44.3°C | 2.8% | 14.2hPa | 2.7V | 08:28:12 | 01:57:46 | 00:00:00 | |
| DF8AY | 2026-09-01 12:27:14 | 48.93512 | 10.08752 | 143° | 64km/h | 29198m | -18.3m/s | -44.2°C | 0% | 14.1hPa | 2.6V | 08:28:40 | 01:57:42 | 00:00:00 | |
| DK7TD | 2026-09-01 12:27:13 | 48.93524 | 10.08736 | 132° | 64km/h | 29217m | -18.7m/s | -44.2°C | 0% | 14.1hPa | 2.7V | 08:28:40 | 01:57:41 | 00:00:00 | |
| DL1XH-west | 2026-09-01 12:27:11 | 48.93538 | 10.08695 | 101° | 58km/h | 29254m | -18.3m/s | -44.2°C | 0% | 14hPa | 2.7V | 08:28:40 | 01:57:39 | 00:00:00 | |
| HSKMA3-T | 2026-09-01 12:27:09 | 48.93531 | 10.08629 | 60° | 55km/h | 29309m | -18.5m/s | -44°C | 0% | 13.8hPa | 2.6V | 08:28:40 | 01:57:36 | 00:00:00 | |
| DK7TD | 2026-09-01 12:27:03 | 48.93475 | 10.08592 | 346° | 47km/h | 29401m | -19m/s | -43.9°C | 0% | 13.7hPa | 2.6V | 08:28:40 | 01:57:31 | 00:00:00 | |
| DL1NUX | 2026-09-01 12:27:02 | 48.93456 | 10.08608 | 314° | 38km/h | 29439m | -20m/s | -43.8°C | 2.8% | 13.6hPa | 2.6V | 08:28:29 | 01:57:29 | 00:00:00 | |
| DL1XH-west | 2026-09-01 12:27:01 | 48.93456 | 10.08608 | 314° | 38km/h | 29439m | -20m/s | -43.8°C | 0% | 13.6hPa | 2.6V | 08:28:40 | 01:57:29 | 00:00:00 | |
| HSKMA3-T | 2026-09-01 12:26:58 | 48.93449 | 10.08646 | 256° | 35km/h | 29495m | -18.3m/s | -43.7°C | 0% | 13.5hPa | 2.7V | 08:28:40 | 01:57:26 | 00:00:00 | |
| DF8AY | 2026-09-01 12:26:57 | 48.93453 | 10.08658 | 230° | 38km/h | 29513m | -18.1m/s | -43.7°C | 0% | 13.4hPa | 2.6V | 08:28:40 | 01:57:25 | 00:00:00 | |
| DK7TD | 2026-09-01 12:26:52 | 48.93510 | 10.08676 | 164° | 60km/h | 29602m | -18.3m/s | -43.2°C | 0% | 13.2hPa | 2.7V | 08:28:40 | 01:57:20 | 00:00:00 | |
| DL1XH-west | 2026-09-01 12:26:50 | 48.93536 | 10.08655 | 142° | 60km/h | 29640m | -18.8m/s | -43.1°C | 0% | 13.2hPa | 2.6V | 08:28:40 | 01:57:18 | 00:00:00 | |
| DM0DOS-11 | 2026-09-01 12:26:49 | 48.93556 | 10.08622 | 123° | 60km/h | 29678m | -18.5m/s | -43°C | 2.7% | 13.1hPa | 2.7V | 08:28:42 | 01:57:16 | 00:00:00 | |
| HSKMA3-T | 2026-09-01 12:26:47 | 48.93563 | 10.08602 | 112° | 57km/h | 29696m | -18.6m/s | -43°C | 0% | 13.1hPa | 2.7V | 08:29:31 | 01:57:15 | 00:00:00 | |
| DF8AY | 2026-09-01 12:26:46 | 48.93565 | 10.08541 | 76° | 49km/h | 29752m | -18.7m/s | -42.9°C | 0% | 13hPa | 2.6V | 08:29:31 | 01:57:12 | 00:00:00 | |
| SONCRA | 2026-09-01 12:26:44 | 48.93565 | 10.08541 | 75° | 49km/h | 29752m | -18.7m/s | -42.9°C | 0.6% | 13.0hPa | 2.7V | 00:00:00 | 00:00:00 | 00:00:00 | |
| DK7TD | 2026-09-01 12:26:42 | 48.93553 | 10.08508 | 50° | 51km/h | 29789m | -18.1m/s | -42.9°C | 0% | 12.9hPa | 2.7V | 08:29:31 | 01:57:10 | 00:00:00 | |
| DL9SK-14 | 2026-09-01 12:26:41 | 48.93535 | 10.08486 | 20° | 44km/h | 29826m | -19.1m/s | -42.9°C | 0.6% | 12.8hPa | 2.6V | 00:00:00 | 00:00:00 | 00:00:00 | |
| DL1XH1-15 | 2026-09-01 12:26:40 | 48.93513 | 10.08481 | 357° | 44km/h | 29864m | -18.5m/s | -42.8°C | 2.6% | 12.8hPa | 2.6V | 08:28:52 | 01:57:06 | 00:00:00 | |
| DL1XH-west | 2026-09-01 12:26:40 | 48.93535 | 10.08486 | 21° | 46km/h | 29826m | -19.1m/s | -42.9°C | 0% | 12.8hPa | 2.6V | 08:29:31 | 01:57:08 | 00:00:00 | |
| HSKMA3-T | 2026-09-01 12:26:37 | 48.93502 | 10.08484 | 341° | 46km/h | 29882m | -18.3m/s | -42.8°C | 0% | 12.7hPa | 2.7V | 08:29:31 | 01:57:05 | 00:00:00 | |
| DF8AY | 2026-09-01 12:26:34 | 48.93471 | 10.08532 | 289° | 51km/h | 29955m | -18m/s | -42.8°C | 0% | 12.6hPa | 2.6V | 08:29:31 | 01:57:01 | 00:00:00 | |
| DK7TD | 2026-09-01 12:26:31 | 48.93467 | 10.08571 | 263° | 53km/h | 29992m | -19.1m/s | -42.8°C | 0% | 12.5hPa | 2.7V | 08:29:31 | 01:56:59 | 00:00:00 | |
| DL1XH-west | 2026-09-01 12:26:30 | 48.93470 | 10.08591 | 255° | 57km/h | 30011m | -18.3m/s | -42.8°C | 0% | 12.5hPa | 2.7V | 08:29:31 | 01:56:58 | 00:00:00 | |
| DM0DOS-11 | 2026-09-01 12:26:29 | 48.93481 | 10.08630 | 236° | 53km/h | 30048m | -19m/s | -42.9°C | 2.6% | 12.4hPa | 2.6V | 08:29:02 | 01:56:56 | 00:00:00 | |
| DO3MHA-11 | 2026-09-01 12:26:29 | 48.93474 | 10.08612 | 249° | 53km/h | 30030m | -18.9m/s | -42.8°C | 2.6% | 12.4hPa | 2.6V | 00:00:00 | 01:56:57 | 00:00:00 | |
| DL1NUX | 2026-09-01 12:26:28 | 48.93489 | 10.08646 | 223° | 55km/h | 30066m | -18.5m/s | -42.9°C | 2.6% | 12.4hPa | 2.6V | 08:29:03 | 01:56:55 | 00:00:00 | |
| HSKMA3-T | 2026-09-01 12:26:27 | 48.93489 | 10.08646 | 224° | 57km/h | 30066m | -18.5m/s | -42.9°C | 0% | 12.4hPa | 2.6V | 08:29:31 | 01:56:55 | 00:00:00 | |
| DF8AY | 2026-09-01 12:26:23 | 48.93595 | 10.08615 | 110° | 51km/h | 30255m | -19.7m/s | -42.6°C | 0% | 12hPa | 2.6V | 08:29:31 | 01:56:45 | 00:00:00 | |
| DK7TD | 2026-09-01 12:26:20 | 48.93572 | 10.08659 | 147° | 53km/h | 30196m | -19.1m/s | -42.6°C | 0% | 12.1hPa | 2.7V | 08:29:31 | 01:56:48 | 00:00:00 | |
| DL1XH-west | 2026-09-01 12:26:19 | 48.93582 | 10.08647 | 135° | 51km/h | 30216m | -19.2m/s | -42.6°C | 0% | 12.1hPa | 2.7V | 08:29:31 | 01:56:47 | 00:00:00 | |
| HSKMA3-T | 2026-09-01 12:26:16 | 48.93597 | 10.08597 | 100° | 47km/h | 30275m | -19.1m/s | -42.6°C | 0% | 12hPa | 2.6V | 08:29:31 | 01:56:44 | 00:00:00 | |
| DF8AY | 2026-09-01 12:26:13 | 48.93590 | 10.08544 | 60° | 47km/h | 30333m | -19.2m/s | -42.6°C | 0% | 11.9hPa | 2.7V | 08:29:31 | 01:56:41 | 00:00:00 | |
| DK7TD | 2026-09-01 12:26:10 | 48.93564 | 10.08506 | 24° | 51km/h | 30390m | -19m/s | -42.6°C | 0% | 11.8hPa | 2.6V | 08:29:31 | 01:56:38 | 00:00:00 | |
| OE5DXL-15 | 2026-09-01 12:26:10 | 48.93564 | 10.08506 | 24° | 40km/h | 30391m | -19.0m/s | -42.6°C | 2.7% | 11.7hPa | 2.6V | 00:00:00 | 00:00:00 | 00:00:00 | |
| DM0DOS-11 | 2026-09-01 12:26:09 | 48.93538 | 10.08496 | 5° | 55km/h | 30427m | -17.6m/s | -42.7°C | 2.7% | 11.7hPa | 2.7V | 08:29:22 | 01:56:36 | 00:00:00 | |
| DL1XH-west | 2026-09-01 12:26:08 | 48.93538 | 10.08496 | 6° | 55km/h | 30428m | -17.6m/s | -42.7°C | 0% | 11.7hPa | 2.7V | 08:29:31 | 01:56:36 | 00:00:00 | |
| HSKMA3-T | 2026-09-01 12:26:05 | 48.93497 | 10.08506 | 339° | 58km/h | 30481m | -18.6m/s | -42.5°C | 0% | 11.6hPa | 2.6V | 08:29:31 | 01:56:33 | 00:00:00 | |
| DF8AY | 2026-09-01 12:26:03 | 48.93458 | 10.08542 | 322° | 58km/h | 30536m | -19.6m/s | -42.3°C | 0% | 11.5hPa | 2.7V | 08:29:31 | 01:56:30 | 00:00:00 | |
| DB0NH | 2026-09-01 12:26:02 | 48.93447 | 10.08556 | 316° | 40km/h | 30556m | -18.7m/s | -42.2°C | 2.6% | 11.5hPa | 2.7V | 00:00:00 | 01:56:29 | 00:00:00 | |
| DL1XH1-15 | 2026-09-01 12:26:00 | 48.93422 | 10.08600 | 301° | 42km/h | 30612m | -18.9m/s | -42.3°C | 2.7% | 11.4hPa | 2.7V | 08:30:00 | 01:56:26 | 00:00:00 | |
| DK7TD | 2026-09-01 12:25:59 | 48.93428 | 10.08586 | 309° | 46km/h | 30593m | -19.4m/s | -42.3°C | 0% | 11.4hPa | 2.6V | 08:29:31 | 01:56:27 | 00:00:00 | |
| DL1XH-west | 2026-09-01 12:25:58 | 48.93422 | 10.08600 | 301° | 42km/h | 30612m | -18.9m/s | -42.3°C | 0% | 11.4hPa | 2.7V | 18:12:15 | 01:56:26 | 00:00:00 | |
| HSKMA3-T | 2026-09-01 12:25:55 | 48.93412 | 10.08632 | 288° | 22km/h | 30668m | -18.5m/s | -42.1°C | 0% | 11.3hPa | 2.6V | 18:12:15 | 01:56:23 | 00:00:00 | |
| DF8AY | 2026-09-01 12:25:52 | 48.93419 | 10.08648 | 181° | 20km/h | 30740m | -17.9m/s | -41.6°C | 0% | 11.2hPa | 2.7V | 18:12:15 | 01:56:19 | 00:00:00 | |
| DM0DOS-11 | 2026-09-01 12:25:51 | 48.93437 | 10.08639 | 153° | 33km/h | 30794m | -18.6m/s | -41.3°C | 2.5% | 11.1hPa | 2.6V | 08:30:00 | 01:56:16 | 00:00:00 | |
| DK7TD | 2026-09-01 12:25:49 | 48.93430 | 10.08644 | 154° | 27km/h | 30776m | -18.4m/s | -41.4°C | 0% | 11.1hPa | 2.6V | 18:12:15 | 01:56:17 | 00:00:00 | |
| DO3MHA-11 | 2026-09-01 12:25:49 | 48.93430 | 10.08644 | 155° | 40km/h | 30776m | -18.3m/s | -41.3°C | 2.5% | 11.0hPa | 2.6V | 00:00:00 | 01:56:17 | 08:30:00 | |
| DL1NUX | 2026-09-01 12:25:48 | 48.93444 | 10.08633 | 146° | 33km/h | 30813m | -18.5m/s | -41.3°C | 2.5% | 11.1hPa | 2.6V | 08:30:00 | 01:56:15 | 00:00:00 | |
| DL1XH-west | 2026-09-01 12:25:47 | 48.93444 | 10.08633 | 147° | 33km/h | 30813m | -18.5m/s | -41.3°C | 0% | 11.1hPa | 2.6V | 18:12:15 | 01:56:15 | 00:00:00 | |
| HSKMA3-T | 2026-09-01 12:25:44 | 48.93466 | 10.08604 | 129° | 40km/h | 30868m | -18.8m/s | -40.9°C | 0% | 11hPa | 2.7V | 18:12:15 | 01:56:12 | 00:00:00 | |
| DF8AY | 2026-09-01 12:25:41 | 48.93483 | 10.08561 | 114° | 47km/h | 30923m | -18.4m/s | -40.6°C | 0% | 10.9hPa | 2.7V | 18:12:15 | 01:56:09 | 00:00:00 | |
| DL1XH1-15 | 2026-09-01 12:25:40 | 48.93494 | 10.08510 | 104° | 49km/h | 30977m | -18.4m/s | -40.6°C | 2.4% | 10.8hPa | 2.6V | 08:30:00 | 01:56:06 | 00:00:00 | |
| DK7TD | 2026-09-01 12:25:38 | 48.93494 | 10.08510 | 104° | 49km/h | 30977m | -18.4m/s | -40.6°C | 0% | 10.8hPa | 2.6V | 18:12:15 | 01:56:06 | 00:00:00 | |
| DL1NUX | 2026-09-01 12:25:38 | 48.93497 | 10.08491 | 98° | 53km/h | 30995m | -18.3m/s | -40.6°C | 2.4% | 10.8hPa | 2.6V | 08:30:00 | 01:56:05 | 00:00:00 | |
| DL1XH-west | 2026-09-01 12:25:36 | 48.93499 | 10.08471 | 99° | 53km/h | 31013m | -18.5m/s | -40.5°C | 0% | 10.7hPa | 2.6V | 18:12:15 | 01:56:04 | 00:00:00 | |
| HSKMA3-T | 2026-09-01 12:25:33 | 48.93503 | 10.08405 | 96° | 62km/h | 31068m | -18.3m/s | -40.5°C | 0% | 10.6hPa | 2.7V | 18:12:15 | 01:56:01 | 00:00:00 | |
| DL6DJ-15 | 2026-09-01 12:25:33 | 48.93503 | 10.08405 | 95° | 60km/h | 31068m | -18.3m/s | -40.5°C | 0.5% | 10.6hPa | 2.7V | 00:00:00 | 00:00:00 | 00:00:00 | |
| DM0DOS-11 | 2026-09-01 12:25:31 | 48.93507 | 10.08278 | 90° | 68km/h | 31159m | -18m/s | -40.7°C | 2.4% | 10.5hPa | 2.7V | 08:30:00 | 01:55:56 | 00:00:00 | |
| DF8AY | 2026-09-01 12:25:31 | 48.93507 | 10.08228 | 90° | 66km/h | 31195m | -17.8m/s | -40.8°C | 0% | 10.4hPa | 2.6V | 18:12:15 | 01:55:54 | 00:00:00 | |
| DK7TD | 2026-09-01 12:25:27 | 48.93507 | 10.08252 | 91° | 64km/h | 31177m | -17.6m/s | -40.8°C | 0% | 10.5hPa | 2.7V | 18:12:15 | 01:55:55 | 00:00:00 | |
| DL1NUX | 2026-09-01 12:25:27 | 48.93507 | 10.08252 | 91° | 64km/h | 31177m | -17.6m/s | -40.8°C | 2.4% | 10.5hPa | 2.7V | 08:30:00 | 01:55:55 | 00:00:00 | |
| DL1XH-west | 2026-09-01 12:25:26 | 48.93509 | 10.08177 | 95° | 66km/h | 31232m | -18.9m/s | -40.9°C | 0% | 10.4hPa | 2.7V | 18:12:15 | 01:55:52 | 00:00:00 | |
| HSKMA3-T | 2026-09-01 12:25:24 | 48.93511 | 10.08152 | 99° | 69km/h | 31251m | -19.2m/s | -40.9°C | 0% | 10.4hPa | 2.7V | 18:12:15 | 01:55:51 | 00:00:00 | |
| DG9SBQ-11 | 2026-09-01 12:25:23 | 48.93511 | 10.08151 | 100° | 69km/h | 31251m | -19.2m/s | -40.9°C | 0.5% | 10.4hPa | 2.6V | 00:00:00 | 00:00:00 | 00:00:00 | |
| DB0UT-7 | 2026-09-01 12:25:22 | 48.93514 | 10.08125 | 101° | 44km/h | 31270m | -19.0m/s | -40.8°C | 2.5% | 10.3hPa | 2.6V | 00:00:00 | 00:00:00 | 00:00:00 | |
| DL1NUX | 2026-09-01 12:25:21 | 48.93545 | 10.08005 | 119° | 62km/h | 31366m | -19.8m/s | -40.4°C | 2.5% | 10.2hPa | 2.6V | 08:30:00 | 01:55:45 | 00:00:00 | |
| DF8AY | 2026-09-01 12:25:20 | 48.93523 | 10.08075 | 110° | 69km/h | 31308m | -19.4m/s | -40.6°C | 0% | 10.3hPa | 2.7V | 18:12:15 | 01:55:48 | 00:00:00 | |
| DK7TD | 2026-09-01 12:25:17 | 48.93545 | 10.08005 | 119° | 62km/h | 31366m | -19.8m/s | -40.4°C | 0% | 10.2hPa | 2.6V | 18:12:15 | 01:55:45 | 00:00:00 | |
| HSKMA3-T | 2026-09-01 12:25:13 | 48.93578 | 10.07941 | 139° | 42km/h | 31443m | -19.4m/s | -40.3°C | 0% | 10.1hPa | 2.7V | 18:12:15 | 01:55:41 | 00:00:00 | |
| DF8AY | 2026-09-01 12:25:10 | 48.93610 | 10.07919 | 177° | 33km/h | 31526m | -22.7m/s | -39.8°C | 0% | 9.9hPa | 2.6V | 18:12:15 | 01:55:37 | 00:00:00 | |
| DM0DOS-11 | 2026-09-01 12:25:09 | 48.93618 | 10.07919 | 182° | 31km/h | 31549m | -24.5m/s | -39.8°C | 2.2% | 9.9hPa | 2.7V | 08:30:00 | 01:55:36 | 00:00:00 | |
| DK7TD | 2026-09-01 12:25:06 | 48.93632 | 10.07919 | 161° | 24km/h | 31605m | -31.2m/s | -39.6°C | 0% | 9.8hPa | 2.7V | 18:12:15 | 01:55:34 | 00:00:00 | |
| HSKMA3-T | 2026-09-01 12:25:02 | 48.93643 | 10.07884 | 111° | 27km/h | 31720m | -15m/s | -39.2°C | 0% | 9.6hPa | 2.7V | 18:12:15 | 01:55:30 | 00:00:00 | |
| OE5DRO-10 | 2026-09-01 12:25:02 | 48.93643 | 10.07884 | 111° | 31km/h | 31720m | -14.9m/s | -39.2°C | 2.2% | 9.6hPa | 2.7V | 00:00:00 | 00:00:00 | 00:00:00 | |
| DL1NUX | 2026-09-01 12:25:01 | 48.93661 | 10.07790 | 103° | 46km/h | 31700m | 5.2m/s | -39.3°C | 2.2% | 9.7hPa | 2.6V | 08:30:00 | 01:55:23 | 00:00:00 | |
| DF8AY | 2026-09-01 12:24:58 | 48.93653 | 10.07840 | 104° | 38km/h | 31718m | 6m/s | -39.2°C | 0% | 9.6hPa | 2.7V | 18:12:15 | 01:55:26 | 00:00:00 | |
| DK7TD | 2026-09-01 12:24:56 | 48.93658 | 10.07808 | 104° | 47km/h | 31706m | 6.5m/s | -39.4°C | 0% | 9.6hPa | 2.6V | 18:12:15 | 01:55:24 | 00:00:00 | |
| DL1XH-west | 2026-09-01 12:24:52 | 48.93661 | 10.07731 | 67° | 31km/h | 31677m | 6.7m/s | -39.4°C | 0% | 9.7hPa | 2.7V | 18:12:15 | 01:55:19 | 00:00:00 | |
| DB0UT-7 | 2026-09-01 12:24:52 | 48.93663 | 10.07743 | 81° | 27km/h | 31685m | 6.9m/s | -39.4°C | 2.2% | 9.7hPa | 2.6V | 00:00:00 | 01:55:20 | 00:00:00 | |
| PETON7-10 | 2026-09-01 12:24:51 | 48.93661 | 10.07731 | 67° | 26km/h | 31678m | 6.6m/s | 0°C | 0% | 0hPa | 2.6V | 00:00:00 | 01:55:19 | 00:00:00 | |
| HSKMA3-T | 2026-09-01 12:24:51 | 48.93654 | 10.07714 | 50° | 22km/h | 31665m | 5.4m/s | -39.5°C | 0% | 9.7hPa | 2.6V | 18:12:15 | 01:55:17 | 00:00:00 | |
| DL1XH1-15 | 2026-09-01 12:24:50 | 48.93650 | 10.07708 | 54° | 18km/h | 31660m | 6m/s | -39.6°C | 2.2% | 9.7hPa | 2.6V | 08:30:00 | 01:55:16 | 00:00:00 | |
| DF8AY | 2026-09-01 12:24:48 | 48.93653 | 10.07658 | 85° | 35km/h | 31626m | 6.4m/s | -39.7°C | 0% | 9.8hPa | 2.7V | 18:12:15 | 01:55:10 | 00:00:00 | |
| DK7TD | 2026-09-01 12:24:46 | 48.93649 | 10.07697 | 103° | 16km/h | 31648m | 5.3m/s | -39.5°C | 0% | 9.7hPa | 2.7V | 18:12:15 | 01:55:14 | 00:00:00 | |
| SONDE2-11 | 2026-09-01 12:24:44 | 48.93652 | 10.07681 | 104° | 26km/h | 31638m | 5.1m/s | -39.7°C | 0.5% | 9.8hPa | 2.7V | 00:00:00 | 00:00:00 | 00:00:00 | |
| OE5DRO-10 | 2026-09-01 12:24:43 | 48.93653 | 10.07670 | 97° | 29km/h | 31632m | 6.3m/s | -39.6°C | 2.2% | 9.7hPa | 2.7V | 00:00:00 | 00:00:00 | 00:00:00 | |
| DM0DOS-11 | 2026-09-01 12:24:42 | 48.93641 | 10.07607 | 61° | 31km/h | 31604m | 6m/s | -39.7°C | 2.2% | 9.8hPa | 2.7V | 08:30:00 | 01:55:06 | 00:00:00 | |
| DL1XH-west | 2026-09-01 12:24:41 | 48.93652 | 10.07644 | 75° | 37km/h | 31620m | 5.6m/s | -39.8°C | 0% | 9.8hPa | 2.7V | 18:12:15 | 01:55:09 | 00:00:00 | |
| HSKMA3-T | 2026-09-01 12:24:40 | 48.93649 | 10.07631 | 67° | 37km/h | 31614m | 4.9m/s | -39.8°C | 0% | 9.8hPa | 2.6V | 18:12:15 | 01:55:08 | 00:00:00 | |
| SONCRA | 2026-09-01 12:24:40 | 48.93645 | 10.07618 | 63° | 35km/h | 31610m | 5.0m/s | -39.8°C | 0.5% | 9.8hPa | 2.6V | 00:00:00 | 00:00:00 | 00:00:00 | |
| OE5WHR-10 | 2026-09-01 12:24:39 | 48.93645 | 10.07618 | 64° | 27km/h | 31610m | 5.0m/s | -39.8°C | 2.3% | 9.7hPa | 2.6V | 00:00:00 | 01:55:07 | 00:00:00 | |
| IW2NTF | 2026-09-01 12:24:38 | 48.93629 | 10.07571 | 58° | 18km/h | 31575m | 6.1m/s | -39.7°C | 2.2% | 9.8hPa | 2.6V | 08:30:00 | 01:55:01 | 00:00:00 | |
| DK7TD | 2026-09-01 12:24:35 | 48.93633 | 10.07583 | 68° | 16km/h | 31586m | 5.3m/s | -39.8°C | 0% | 9.8hPa | 2.6V | 18:12:15 | 01:55:03 | 00:00:00 | |
| DF8AY | 2026-09-01 12:24:31 | 48.93623 | 10.07556 | 57° | 29km/h | 31562m | 6.1m/s | -39.8°C | 0% | 9.9hPa | 2.7V | 18:12:15 | 01:54:59 | 00:00:00 | |
| DL1XH-west | 2026-09-01 12:24:31 | 48.93619 | 10.07545 | 62° | 33km/h | 31557m | 5.5m/s | -39.9°C | 0% | 9.9hPa | 2.7V | 18:12:15 | 01:54:58 | 00:00:00 | |
| DL1XH1-15 | 2026-09-01 12:24:30 | 48.93613 | 10.07522 | 75° | 33km/h | 31544m | 6.2m/s | -39.8°C | 2.2% | 9.8hPa | 2.6V | 08:30:00 | 01:54:56 | 00:00:00 | |
| HSKMA3-T | 2026-09-01 12:24:29 | 48.93616 | 10.07534 | 69° | 33km/h | 31550m | 6.6m/s | -39.9°C | 0% | 9.9hPa | 2.6V | 18:12:15 | 01:54:57 | 00:00:00 | |
| DK7TD | 2026-09-01 12:24:24 | 48.93604 | 10.07474 | 64° | 31km/h | 31521m | 6.4m/s | -39.9°C | 0% | 9.9hPa | 2.7V | 18:12:15 | 01:54:52 | 00:00:00 | |
| DF8AY | 2026-09-01 12:24:21 | 48.93576 | 10.07392 | 66° | 38km/h | 31462m | 5.6m/s | -40.5°C | 0% | 10hPa | 2.6V | 18:12:15 | 01:54:42 | 00:00:00 | |
| HSKMA3-T | 2026-09-01 12:24:19 | 48.93588 | 10.07432 | 73° | 18km/h | 31486m | 4.5m/s | -40.3°C | 0% | 10hPa | 2.6V | 18:12:15 | 01:54:46 | 00:00:00 | |
| DM0DOS-11 | 2026-09-01 12:24:19 | 48.93587 | 10.07432 | 72° | 18km/h | 31486m | 4.5m/s | -40.3°C | 2.3% | 10hPa | 2.6V | 08:30:00 | 01:54:46 | 00:00:00 | |
| DL1XH-west | 2026-09-01 12:24:19 | 48.93589 | 10.07438 | 72° | 15km/h | 31491m | 5.4m/s | -40.3°C | 0% | 10hPa | 2.6V | 18:12:15 | 01:54:47 | 00:00:00 | |
| DK7TD | 2026-09-01 12:24:13 | 48.93572 | 10.07378 | 69° | 40km/h | 31456m | 6m/s | -40.5°C | 0% | 10hPa | 2.6V | 18:12:15 | 01:54:41 | 00:00:00 | |
| DL1XH-west | 2026-09-01 12:24:08 | 48.93564 | 10.07316 | 76° | 26km/h | 31427m | 6.8m/s | -40.4°C | 0% | 10.1hPa | 2.6V | 18:12:15 | 01:54:36 | 00:00:00 | |
| DF8AY | 2026-09-01 12:24:05 | 48.93555 | 10.07283 | 71° | 20km/h | 31402m | 6.8m/s | -40.5°C | 0% | 10.1hPa | 2.7V | 18:12:15 | 01:54:32 | 00:00:00 | |
| DK7TD | 2026-09-01 12:24:03 | 48.93553 | 10.07275 | 76° | 22km/h | 31396m | 5.4m/s | -40.5°C | 0% | 10.1hPa | 2.7V | 18:12:15 | 01:54:31 | 00:00:00 | |
| DO9HM | 2026-09-01 12:24:02 | 48.93553 | 10.07275 | 77° | 22km/h | 31397m | 5.4m/s | -40.5°C | 0.5% | 10.1hPa | 2.6V | 00:00:00 | 00:00:00 | 00:00:00 | |
| DB0NH | 2026-09-01 12:24:00 | 48.93547 | 10.07245 | 67° | 29km/h | 31380m | 7.1m/s | -40.4°C | 2.3% | 10.1hPa | 2.6V | 00:00:00 | 01:54:28 | 00:00:00 | |
| DM0DOS-11 | 2026-09-01 12:23:59 | 48.93539 | 10.07220 | 63° | 38km/h | 31367m | 5.5m/s | -40.5°C | 2.3% | 10.1hPa | 2.6V | 08:30:00 | 01:54:26 | 00:00:00 | |
| HSKMA3-T | 2026-09-01 12:23:58 | 48.93539 | 10.07220 | 63° | 38km/h | 31367m | 5.6m/s | -40.5°C | 0% | 10.2hPa | 2.6V | 18:12:15 | 01:54:26 | 00:00:00 | |
| DL1XH-west | 2026-09-01 12:23:57 | 48.93535 | 10.07207 | 66° | 38km/h | 31361m | 5.2m/s | -40.6°C | 0% | 10.2hPa | 2.6V | 18:12:15 | 01:54:25 | 00:00:00 | |
| DF8AY | 2026-09-01 12:23:54 | 48.93528 | 10.07165 | 78° | 20km/h | 31338m | 5.3m/s | -40.7°C | 0% | 10.2hPa | 2.6V | 18:12:15 | 01:54:21 | 00:00:00 | |
| DK7TD | 2026-09-01 12:23:52 | 48.93526 | 10.07158 | 67° | 18km/h | 31332m | 6.9m/s | -40.7°C | 0% | 10.2hPa | 2.6V | 18:12:15 | 01:54:20 | 00:00:00 | |
| HSKMA3-T | 2026-09-01 12:23:48 | 48.93513 | 10.07134 | 47° | 22km/h | 31307m | 6.6m/s | -40.8°C | 0% | 10.2hPa | 2.7V | 18:12:15 | 01:54:16 | 00:00:00 | |
| DL1XH-west | 2026-09-01 12:23:47 | 48.93509 | 10.07128 | 53° | 24km/h | 31301m | 5.7m/s | -40.8°C | 0% | 10.2hPa | 2.6V | 18:12:15 | 01:54:15 | 00:00:00 | |
| DB0ND-19 | 2026-09-01 12:23:46 | 48.93502 | 10.07110 | 57° | 31km/h | 31291m | 5.6m/s | -40.9°C | 0.5% | 10.2hPa | 2.7V | 00:00:00 | 00:00:00 | 00:00:00 | |
| DF8AY | 2026-09-01 12:23:43 | 48.93492 | 10.07087 | 57° | 40km/h | 31277m | 6.8m/s | -41°C | 0% | 10.3hPa | 2.7V | 18:12:15 | 01:54:11 | 00:00:00 | |
| DK7TD | 2026-09-01 12:23:41 | 48.93481 | 10.07060 | 64° | 40km/h | 31266m | 5.3m/s | -40.8°C | 0% | 10.3hPa | 2.6V | 18:12:15 | 01:54:09 | 00:00:00 | |
| OE5DXL-15 | 2026-09-01 12:23:40 | 48.93477 | 10.07047 | 72° | 31km/h | 31260m | 6.6m/s | -40.7°C | 2.4% | 10.3hPa | 2.7V | 00:00:00 | 00:00:00 | 00:00:00 | |
| DM0DOS-11 | 2026-09-01 12:23:39 | 48.93475 | 10.07022 | 91° | 29km/h | 31247m | 5.7m/s | -40.8°C | 2.4% | 10.3hPa | 2.7V | 08:30:00 | 01:54:06 | 00:00:00 | |
| IW2NTF | 2026-09-01 12:23:39 | 48.93468 | 10.06974 | 55° | 29km/h | 31217m | 5.8m/s | -40.8°C | 2.4% | 10.4hPa | 2.6V | 08:30:00 | 01:54:01 | 00:00:00 | |
| DF8AY | 2026-09-01 12:23:38 | 48.93464 | 10.06964 | 55° | 31km/h | 31211m | 6.7m/s | -40.8°C | 0% | 10.4hPa | 2.6V | 18:12:15 | 01:54:00 | 00:00:00 | |
| DL1XH-west | 2026-09-01 12:23:37 | 48.93475 | 10.07011 | 93° | 27km/h | 31241m | 5m/s | -40.8°C | 0% | 10.3hPa | 2.6V | 18:12:15 | 01:54:05 | 00:00:00 | |
| DK7TD | 2026-09-01 12:23:31 | 48.93459 | 10.06954 | 56° | 33km/h | 31204m | 5.7m/s | -40.8°C | 0% | 10.4hPa | 2.7V | 18:12:15 | 01:53:59 | 00:00:00 | |
| OE5WHR-10 | 2026-09-01 12:23:31 | 48.93459 | 10.06954 | 56° | 31km/h | 31205m | 5.7m/s | -40.7°C | 2.4% | 10.4hPa | 2.6V | 00:00:00 | 01:53:59 | 00:00:00 | |
| DB0NH | 2026-09-01 12:23:30 | 48.93454 | 10.06943 | 56° | 24km/h | 31199m | 5.0m/s | -40.8°C | 2.5% | 10.4hPa | 2.6V | 00:00:00 | 01:53:58 | 00:00:00 | |
| DM0DOS-11 | 2026-09-01 12:23:29 | 48.93443 | 10.06919 | 54° | 42km/h | 31187m | 6.9m/s | -40.9°C | 2.5% | 10.4hPa | 2.6V | 08:30:00 | 01:53:56 | 00:00:00 | |
| DL1XH-west | 2026-09-01 12:23:26 | 48.93432 | 10.06894 | 61° | 37km/h | 31176m | 4.5m/s | -40.6°C | 0% | 10.5hPa | 2.6V | 18:12:15 | 01:53:54 | 00:00:00 | |
| DF8AY | 2026-09-01 12:23:23 | 48.93427 | 10.06863 | 104° | 22km/h | 31157m | 7m/s | -40.5°C | 0% | 10.5hPa | 2.7V | 18:12:15 | 01:53:51 | 00:00:00 | |
| DB0UT-7 | 2026-09-01 12:23:22 | 48.93428 | 10.06856 | 117° | 22km/h | 31151m | 5.3m/s | -40.4°C | 2.4% | 10.4hPa | 2.7V | 00:00:00 | 00:00:00 | 00:00:00 | |
| DL1XH1-15 | 2026-09-01 12:23:20 | 48.93424 | 10.06836 | 33° | 26km/h | 31128m | 5.9m/s | -40.3°C | 2.4% | 10.5hPa | 2.7V | 08:30:00 | 01:53:46 | 00:00:00 | |
| DK7TD | 2026-09-01 12:23:20 | 48.93430 | 10.06845 | 78° | 11km/h | 31140m | 6.3m/s | -40.3°C | 0% | 10.5hPa | 2.6V | 18:12:15 | 01:53:48 | 00:00:00 | |
| DL1XH-west | 2026-09-01 12:23:15 | 48.93403 | 10.06813 | 41° | 37km/h | 31110m | 6.3m/s | -40.4°C | 0% | 10.5hPa | 2.6V | 18:12:15 | 01:53:43 | 00:00:00 | |
| DF8AY | 2026-09-01 12:23:13 | 48.93385 | 10.06776 | 66° | 22km/h | 31087m | 5.6m/s | -40.4°C | 0% | 10.6hPa | 2.6V | 18:12:15 | 01:53:39 | 00:00:00 | |
| DN1GJH-1 | 2026-09-01 12:23:12 | 48.93391 | 10.06794 | 56° | 31km/h | 31098m | 5.4m/s | -40.3°C | 0.5% | 10.6hPa | 2.7V | 00:00:00 | 00:00:00 | 00:00:00 | |
| SONDE2-11 | 2026-09-01 12:23:11 | 48.93385 | 10.06776 | 65° | 22km/h | 31088m | 5.6m/s | -40.4°C | 0.5% | 10.6hPa | 2.7V | 00:00:00 | 00:00:00 | 00:00:00 | |
| DL1NUX | 2026-09-01 12:23:10 | 48.93378 | 10.06747 | 105° | 7km/h | 31051m | 6m/s | -40.4°C | 2.3% | 10.6hPa | 2.7V | 08:30:00 | 01:53:33 | 00:00:00 | |
| DK7TD | 2026-09-01 12:23:09 | 48.93381 | 10.06763 | 65° | 16km/h | 31075m | 5.9m/s | -40.5°C | 0% | 10.6hPa | 2.7V | 18:12:15 | 01:53:37 | 00:00:00 | |
| DM0DOS-11 | 2026-09-01 12:23:09 | 48.93379 | 10.06757 | 66° | 13km/h | 31069m | 5.5m/s | -40.5°C | 2.3% | 10.6hPa | 2.6V | 08:30:00 | 01:53:36 | 00:00:00 | |
| DG9SBQ-11 | 2026-09-01 12:23:09 | 48.93380 | 10.06762 | 66° | 16km/h | 31076m | 5.9m/s | -40.5°C | 0.5% | 10.6hPa | 2.6V | 00:00:00 | 00:00:00 | 00:00:00 | |
| EDDB2-11 | 2026-09-01 12:23:08 | 48.93378 | 10.06753 | 75° | 9km/h | 31064m | 5.7m/s | -40.5°C | 0.5% | 10.7hPa | 2.6V | 00:00:00 | 00:00:00 | 00:00:00 | |
| SONCRA | 2026-09-01 12:23:07 | 48.93378 | 10.06750 | 92° | 7km/h | 31058m | 7.0m/s | -40.4°C | 0.5% | 10.7hPa | 2.6V | 00:00:00 | 00:00:00 | 00:00:00 | |
| IW2NTF | 2026-09-01 12:23:06 | 48.93375 | 10.06743 | 6° | 13km/h | 31035m | 7m/s | -40.3°C | 2.3% | 10.7hPa | 2.6V | 08:30:00 | 01:53:30 | 00:00:00 | |
| DL1XH-west | 2026-09-01 12:23:05 | 48.93378 | 10.06747 | 105° | 7km/h | 31051m | 6m/s | -40.4°C | 0% | 10.6hPa | 2.7V | 18:12:15 | 01:53:33 | 00:00:00 | |
| DF8AY | 2026-09-01 12:23:01 | 48.93365 | 10.06741 | 11° | 26km/h | 31023m | 4.9m/s | -40.4°C | 0% | 10.7hPa | 2.7V | 18:12:15 | 01:53:28 | 00:00:00 | |
| DL1XH1-15 | 2026-09-01 12:23:00 | 48.93353 | 10.06734 | 32° | 26km/h | 31012m | 5.9m/s | -40.5°C | 2.4% | 10.7hPa | 2.7V | 08:30:00 | 01:53:26 | 00:00:00 | |
| DK7TD | 2026-09-01 12:22:59 | 48.93358 | 10.06739 | 20° | 27km/h | 31018m | 4.5m/s | -40.4°C | 0% | 10.7hPa | 2.7V | 18:12:15 | 01:53:27 | 00:00:00 | |
| DL1NUX | 2026-09-01 12:22:59 | 48.93343 | 10.06711 | 84° | 27km/h | 30993m | 5.9m/s | -40.6°C | 2.3% | 10.7hPa | 2.6V | 08:30:00 | 01:53:23 | 00:00:00 | |
| DL6DJ-15 | 2026-09-01 12:22:58 | 48.93348 | 10.06728 | 50° | 24km/h | 31006m | 6.8m/s | -40.6°C | 0.5% | 10.7hPa | 2.7V | 00:00:00 | 00:00:00 | 00:00:00 | |
| DJ8HS-15 | 2026-09-01 12:22:57 | 48.93348 | 10.06728 | 51° | 26km/h | 31007m | 6.8m/s | -40.5°C | 2.4% | 10.7hPa | 2.7V | 00:00:00 | 01:53:25 | 00:00:00 | |
| DJ2DS-15 | 2026-09-01 12:22:54 | 48.93343 | 10.06700 | 87° | 26km/h | 30988m | 4.9m/s | -40.6°C | 2.4% | 10.7hPa | 2.7V | 00:00:00 | 01:53:22 | 00:00:00 | |
| DL1XH-west | 2026-09-01 12:22:54 | 48.93343 | 10.06700 | 87° | 27km/h | 30988m | 4.9m/s | -40.6°C | 0% | 10.8hPa | 2.7V | 18:12:15 | 01:53:22 | 00:00:00 | |
| NBG1-10 | 2026-09-01 12:22:53 | 48.93342 | 10.06690 | 81° | 27km/h | 30983m | 5.4m/s | -40.6°C | 2.4% | 10.7hPa | 2.7V | 00:00:00 | 01:53:21 | 00:00:00 | |
| DB0UT-7 | 2026-09-01 12:22:52 | 48.93340 | 10.06682 | 65° | 26km/h | 30977m | 6.2m/s | -40.6°C | 2.4% | 10.7hPa | 2.7V | 00:00:00 | 01:53:20 | 00:00:00 | |
| DM0DOS-11 | 2026-09-01 12:22:51 | 48.93322 | 10.06666 | 5° | 20km/h | 30952m | 6.9m/s | -40.6°C | 2.3% | 10.8hPa | 2.7V | 08:30:00 | 01:53:16 | 00:00:00 | |
| DF8AY | 2026-09-01 12:22:51 | 48.93337 | 10.06675 | 43° | 22km/h | 30971m | 5.8m/s | -40.6°C | 0% | 10.8hPa | 2.6V | 18:12:15 | 01:53:19 | 00:00:00 | |
| DL1NUX | 2026-09-01 12:22:50 | 48.93309 | 10.06661 | 32° | 18km/h | 30935m | 5.2m/s | -40.7°C | 2.3% | 10.8hPa | 2.7V | 08:30:00 | 01:53:13 | 00:00:00 | |
| IW2NTF | 2026-09-01 12:22:49 | 48.93305 | 10.06657 | 42° | 22km/h | 30929m | 6.1m/s | -40.7°C | 2.4% | 10.9hPa | 2.7V | 08:30:00 | 01:53:12 | 00:00:00 | |
| DK7TD | 2026-09-01 12:22:48 | 48.93322 | 10.06666 | 6° | 20km/h | 30952m | 6.9m/s | -40.6°C | 0% | 10.8hPa | 2.7V | 18:12:15 | 01:53:16 | 00:00:00 | |
| DL1XH-west | 2026-09-01 12:22:43 | 48.93300 | 10.06650 | 48° | 27km/h | 30923m | 6.8m/s | -40.8°C | 0% | 10.9hPa | 2.6V | 18:12:15 | 01:53:11 | 00:00:00 | |
| DF8AY | 2026-09-01 12:22:42 | 48.93290 | 10.06631 | 54° | 35km/h | 30911m | 5.2m/s | -40.7°C | 0% | 10.9hPa | 2.7V | 18:12:15 | 01:53:09 | 00:00:00 | |
| DK7TD | 2026-09-01 12:22:37 | 48.93276 | 10.06591 | 71° | 24km/h | 30887m | 5.5m/s | -40.9°C | 0% | 10.9hPa | 2.6V | 18:12:15 | 01:53:05 | 00:00:00 | |
| HSKMA3-T | 2026-09-01 12:22:33 | 48.93262 | 10.06558 | 43° | 31km/h | 30863m | 5.3m/s | -41°C | 0% | 10.9hPa | 2.7V | 18:12:15 | 01:53:01 | 00:00:00 | |
| DF8AY | 2026-09-01 12:22:32 | 48.93243 | 10.06535 | 36° | 27km/h | 30847m | 6.7m/s | -41.2°C | 0% | 10.9hPa | 2.6V | 18:12:15 | 01:52:58 | 00:00:00 | |
| DG9SBQ-11 | 2026-09-01 12:22:32 | 48.93249 | 10.06542 | 39° | 31km/h | 30854m | 5.5m/s | -41.1°C | 0.5% | 11.0hPa | 2.6V | 00:00:00 | 00:00:00 | 00:00:00 | |
| DN1GJH-1 | 2026-09-01 12:22:31 | 48.93249 | 10.06542 | 39° | 31km/h | 30854m | 5.5m/s | -41.1°C | 0.6% | 11.0hPa | 2.6V | 00:00:00 | 00:00:00 | 00:00:00 | |
| OE5DRO-10 | 2026-09-01 12:22:30 | 48.93243 | 10.06535 | 37° | 33km/h | 30848m | 6.7m/s | -41.1°C | 2.4% | 10.9hPa | 2.6V | 00:00:00 | 00:00:00 | 00:00:00 | |
| IW2NTF | 2026-09-01 12:22:29 | 48.93225 | 10.06515 | 39° | 24km/h | 30825m | 5m/s | -41.2°C | 2.4% | 11hPa | 2.6V | 08:30:00 | 01:52:54 | 00:00:00 | |
| DO3MHA-11 | 2026-09-01 12:22:29 | 48.93238 | 10.06529 | 36° | 33km/h | 30841m | 6.3m/s | -41.2°C | 2.4% | 11.0hPa | 2.7V | 00:00:00 | 01:52:57 | 00:00:00 | |
| DO3MHA-12 | 2026-09-01 12:22:28 | 48.93234 | 10.06525 | 36° | 33km/h | 30835m | 5.4m/s | -41.2°C | 2.4% | 11.0hPa | 2.7V | 00:00:00 | 01:52:56 | 00:00:00 | |
| DL1NUX | 2026-09-01 12:22:27 | 48.93193 | 10.06463 | 53° | 42km/h | 30794m | 6.8m/s | -41.3°C | 2.4% | 11.1hPa | 2.7V | 08:30:00 | 01:52:49 | 00:00:00 | |
| DK7TD | 2026-09-01 12:22:26 | 48.93225 | 10.06515 | 39° | 24km/h | 30825m | 5m/s | -41.3°C | 0% | 11hPa | 2.6V | 18:12:15 | 01:52:54 | 00:00:00 | |
| HSKMA3-T | 2026-09-01 12:22:22 | 48.93200 | 10.06476 | 50° | 44km/h | 30800m | 5.3m/s | -41.2°C | 0% | 11hPa | 2.7V | 18:12:15 | 01:52:50 | 00:00:00 | |
| DL1XH-west | 2026-09-01 12:22:22 | 48.93187 | 10.06450 | 57° | 38km/h | 30788m | 6.4m/s | -41.3°C | 0% | 11.1hPa | 2.6V | 18:12:15 | 01:52:48 | 00:00:00 | |
| IW2NTF | 2026-09-01 12:22:22 | 48.93167 | 10.06406 | 47° | 37km/h | 30763m | 6.2m/s | -41.7°C | 2.4% | 11.1hPa | 2.6V | 08:30:00 | 01:52:44 | 00:00:00 | |
| DF8AY | 2026-09-01 12:22:21 | 48.93182 | 10.06438 | 58° | 35km/h | 30782m | 5.8m/s | -41.4°C | 0% | 11.1hPa | 2.6V | 18:12:15 | 01:52:47 | 00:00:00 | |
| NBG1-10 | 2026-09-01 12:22:20 | 48.93187 | 10.06450 | 57° | 31km/h | 30788m | 6.4m/s | -41.3°C | 2.4% | 11.0hPa | 2.7V | 00:00:00 | 01:52:48 | 00:00:00 | |
| DM0DOS-11 | 2026-09-01 12:22:19 | 48.93177 | 10.06427 | 56° | 35km/h | 30776m | 5.6m/s | -41.5°C | 2.4% | 11.1hPa | 2.7V | 08:30:00 | 01:52:46 | 00:00:00 | |
| DK7TD | 2026-09-01 12:22:16 | 48.93167 | 10.06406 | 48° | 37km/h | 30763m | 6.3m/s | -41.7°C | 0% | 11.1hPa | 2.6V | 18:12:15 | 01:52:44 | 00:00:00 | |
| HSKMA3-T | 2026-09-01 12:22:12 | 48.93141 | 10.06369 | 46° | 31km/h | 30740m | 6.4m/s | -41.7°C | 0% | 11.2hPa | 2.6V | 18:12:15 | 01:52:40 | 00:00:00 | |
| DL1XH-west | 2026-09-01 12:22:12 | 48.93136 | 10.06360 | 48° | 31km/h | 30734m | 5.5m/s | -41.6°C | 0% | 11.2hPa | 2.6V | 18:12:15 | 01:52:39 | 00:00:00 | |
| DN1GJH-1 | 2026-09-01 12:22:11 | 48.93136 | 10.06360 | 49° | 31km/h | 30735m | 5.5m/s | -41.6°C | 0.6% | 11.2hPa | 2.7V | 00:00:00 | 00:00:00 | 00:00:00 | |
| DM0DOS-11 | 2026-09-01 12:22:09 | 48.93118 | 10.06331 | 45° | 40km/h | 30716m | 6.2m/s | -41.8°C | 2.5% | 11.2hPa | 2.7V | 08:30:00 | 01:52:36 | 00:00:00 | |
| DF8AY | 2026-09-01 12:22:08 | 48.93118 | 10.06331 | 46° | 40km/h | 30716m | 6.2m/s | -41.8°C | 0% | 11.2hPa | 2.7V | 18:12:15 | 01:52:36 | 00:00:00 | |
| DK7TD | 2026-09-01 12:22:05 | 48.93097 | 10.06297 | 48° | 37km/h | 30700m | 6.1m/s | -42.1°C | 0% | 11.2hPa | 2.6V | 18:12:15 | 01:52:33 | 00:00:00 | |
| DL1NUX | 2026-09-01 12:22:05 | 48.93084 | 10.06274 | 48° | 20km/h | 30681m | 5.3m/s | -41.9°C | 2.5% | 11.2hPa | 2.7V | 08:30:00 | 01:52:30 | 00:00:00 | |
| DL1XH-west | 2026-09-01 12:22:01 | 48.93080 | 10.06268 | 43° | 22km/h | 30675m | 6.5m/s | -41.9°C | 0% | 11.3hPa | 2.6V | 18:12:15 | 01:52:29 | 00:00:00 | |
| DB0NH | 2026-09-01 12:22:00 | 48.93075 | 10.06262 | 34° | 18km/h | 30670m | 6.2m/s | -41.9°C | 2.5% | 11.2hPa | 2.7V | 00:00:00 | 01:52:28 | 00:00:00 | |
| DM0DOS-11 | 2026-09-01 12:21:59 | 48.93064 | 10.06254 | 19° | 27km/h | 30658m | 5.5m/s | -42.1°C | 2.5% | 11.3hPa | 2.7V | 08:30:00 | 01:52:26 | 00:00:00 | |
| DF8AY | 2026-09-01 12:21:58 | 48.93051 | 10.06249 | 11° | 26km/h | 30645m | 6.5m/s | -42.3°C | 0% | 11.3hPa | 2.7V | 18:12:15 | 01:52:24 | 00:00:00 | |
| DL6DJ-15 | 2026-09-01 12:21:56 | 48.93044 | 10.06247 | 12° | 26km/h | 30639m | 5.8m/s | -42.3°C | 0.6% | 11.3hPa | 2.7V | 00:00:00 | 00:00:00 | 00:00:00 | |
| DL1NUX | 2026-09-01 12:21:55 | 48.93024 | 10.06236 | 27° | 31km/h | 30620m | 5.6m/s | -42.1°C | 2.5% | 11.3hPa | 2.7V | 08:30:00 | 01:52:20 | 00:00:00 | |
| DK7TD | 2026-09-01 12:21:54 | 48.93038 | 10.06244 | 16° | 27km/h | 30633m | 6m/s | -42.2°C | 0% | 11.3hPa | 2.6V | 18:12:15 | 01:52:22 | 00:00:00 | |
| DM0DOS-11 | 2026-09-01 12:21:54 | 48.93005 | 10.06215 | 47° | 11km/h | 30598m | 6.7m/s | -42°C | 2.5% | 11.4hPa | 2.6V | 08:30:00 | 01:52:16 | 00:00:00 | |
| DL1XH-west | 2026-09-01 12:21:50 | 48.93012 | 10.06224 | 38° | 24km/h | 30611m | 4.7m/s | -42.1°C | 0% | 11.4hPa | 2.7V | 18:12:15 | 01:52:18 | 00:00:00 | |
| DF8AY | 2026-09-01 12:21:46 | 48.92980 | 10.06210 | 11° | 26km/h | 30559m | 4.8m/s | -42.2°C | 0% | 11.5hPa | 2.6V | 18:12:15 | 01:52:09 | 00:00:00 | |
| DK7TD | 2026-09-01 12:21:44 | 48.92998 | 10.06213 | 359° | 15km/h | 30576m | 6.8m/s | -42°C | 0% | 11.4hPa | 2.6V | 18:12:15 | 01:52:12 | 00:00:00 | |
| DL1NUX | 2026-09-01 12:21:44 | 48.92987 | 10.06212 | 7° | 26km/h | 30564m | 5.2m/s | -42.2°C | 2.5% | 11.5hPa | 2.7V | 08:30:00 | 01:52:10 | 00:00:00 | |
| DB0ND-19 | 2026-09-01 12:21:41 | 48.92980 | 10.06210 | 10° | 26km/h | 30559m | 4.8m/s | -42.2°C | 0.6% | 11.5hPa | 2.7V | 00:00:00 | 00:00:00 | 00:00:00 | |
| DL1XH1-15 | 2026-09-01 12:21:40 | 48.92967 | 10.06204 | 36° | 9km/h | 30541m | 5.7m/s | -42°C | 2.5% | 11.5hPa | 2.7V | 08:30:00 | 01:52:06 | 00:00:00 | |
| DL1XH-west | 2026-09-01 12:21:40 | 48.92974 | 10.06208 | 14° | 22km/h | 30553m | 6.2m/s | -42.1°C | 0% | 11.5hPa | 2.6V | 18:12:15 | 01:52:08 | 00:00:00 | |
| HSKMA3-T | 2026-09-01 12:21:39 | 48.92970 | 10.06206 | 21° | 16km/h | 30547m | 6.2m/s | -42°C | 0% | 11.5hPa | 2.7V | 18:12:15 | 01:52:07 | 00:00:00 | |
| DO3MHA-11 | 2026-09-01 12:21:39 | 48.92970 | 10.06206 | 22° | 9km/h | 30547m | 6.2m/s | -42.0°C | 2.5% | 11.5hPa | 2.6V | 00:00:00 | 01:52:07 | 00:00:00 | |
| IW2NTF | 2026-09-01 12:21:38 | 48.92965 | 10.06192 | 67° | 9km/h | 30518m | 5.6m/s | -42°C | 2.5% | 11.6hPa | 2.6V | 08:30:00 | 01:52:02 | 00:00:00 | |
| DO3MHA-12 | 2026-09-01 12:21:38 | 48.92967 | 10.06204 | 37° | 7km/h | 30541m | 5.7m/s | -42.0°C | 2.5% | 11.5hPa | 2.7V | 00:00:00 | 01:52:06 | 00:00:00 | |
| DL1NUX | 2026-09-01 12:21:37 | 48.92962 | 10.06187 | 45° | 7km/h | 30507m | 5.8m/s | -41.9°C | 2.5% | 11.6hPa | 2.7V | 08:30:00 | 01:52:00 | 00:00:00 | |
| DK7TD | 2026-09-01 12:21:33 | 48.92963 | 10.06189 | 58° | 9km/h | 30513m | 5m/s | -41.9°C | 0% | 11.6hPa | 2.7V | 18:12:15 | 01:52:01 | 00:00:00 | |
| DF8AY | 2026-09-01 12:21:32 | 48.92961 | 10.06186 | 12° | 5km/h | 30501m | 6.5m/s | -42°C | 0% | 11.6hPa | 2.7V | 18:12:15 | 01:51:59 | 00:00:00 | |
| DL1XH-west | 2026-09-01 12:21:29 | 48.92958 | 10.06188 | 322° | 11km/h | 30489m | 4.9m/s | -42.1°C | 0% | 11.6hPa | 2.6V | 18:12:15 | 01:51:57 | 00:00:00 | |
| HSKMA3-T | 2026-09-01 12:21:28 | 48.92955 | 10.06191 | 327° | 16km/h | 30484m | 5.8m/s | -42.3°C | 0% | 11.6hPa | 2.6V | 18:12:15 | 01:51:56 | 00:00:00 | |
| DK7TD | 2026-09-01 12:21:23 | 48.92935 | 10.06204 | 331° | 7km/h | 30455m | 6.7m/s | -42.4°C | 0% | 11.6hPa | 2.6V | 18:12:15 | 01:51:51 | 00:00:00 | |
| DF8AY | 2026-09-01 12:21:21 | 48.92935 | 10.06206 | 192° | 5km/h | 30443m | 5.4m/s | -42.4°C | 0% | 11.7hPa | 2.7V | 18:12:15 | 01:51:49 | 00:00:00 | |
| DL1XH1-15 | 2026-09-01 12:21:20 | 48.92938 | 10.06209 | 285° | 7km/h | 30426m | 5.2m/s | -42.5°C | 2.6% | 11.7hPa | 2.6V | 08:30:00 | 01:51:46 | 00:00:00 | |
| DL1XH-west | 2026-09-01 12:21:19 | 48.92938 | 10.06207 | 222° | 4km/h | 30432m | 5.8m/s | -42.4°C | 0% | 11.7hPa | 2.7V | 18:12:15 | 01:51:47 | 00:00:00 | |
| HSKMA3-T | 2026-09-01 12:21:17 | 48.92937 | 10.06212 | 295° | 15km/h | 30421m | 5.2m/s | -42.5°C | 0% | 11.7hPa | 2.6V | 18:12:15 | 01:51:45 | 00:00:00 | |
| DK7TD | 2026-09-01 12:21:12 | 48.92929 | 10.06256 | 283° | 24km/h | 30393m | 4.1m/s | -42.3°C | 0% | 11.8hPa | 2.6V | 18:12:15 | 01:51:40 | 00:00:00 | |
| DF8AY | 2026-09-01 12:21:11 | 48.92928 | 10.06264 | 295° | 16km/h | 30388m | 5.2m/s | -42.3°C | 0% | 11.8hPa | 2.6V | 18:12:15 | 01:51:39 | 00:00:00 | |
| DM0DOS-11 | 2026-09-01 12:21:11 | 48.92920 | 10.06266 | 44° | 15km/h | 30369m | 5.6m/s | -42.2°C | 2.5% | 11.8hPa | 2.6V | 08:30:00 | 01:51:36 | 00:00:00 | |
| DL1XH-west | 2026-09-01 12:21:08 | 48.92920 | 10.06266 | 44° | 15km/h | 30369m | 5.6m/s | -42.2°C | 0% | 11.8hPa | 2.6V | 18:12:15 | 01:51:36 | 00:00:00 | |
| HSKMA3-T | 2026-09-01 12:21:07 | 48.92916 | 10.06257 | 75° | 13km/h | 30357m | 6m/s | -42.3°C | 0% | 11.9hPa | 2.7V | 18:12:15 | 01:51:34 | 00:00:00 | |
| DK7TD | 2026-09-01 12:21:01 | 48.92913 | 10.06259 | 305° | 15km/h | 30329m | 6.1m/s | -42.3°C | 0% | 11.9hPa | 2.7V | 18:12:15 | 01:51:29 | 00:00:00 | |
| DB0NH | 2026-09-01 12:21:00 | 48.92911 | 10.06264 | 309° | 11km/h | 30324m | 4.7m/s | -42.4°C | 2.6% | 11.8hPa | 2.7V | 00:00:00 | 01:51:28 | 00:00:00 | |
| DL1XH1-15 | 2026-09-01 12:20:59 | 48.92906 | 10.06274 | 302° | 16km/h | 30314m | 5.6m/s | -42.5°C | 2.6% | 11.9hPa | 2.7V | 08:30:00 | 01:51:26 | 00:00:00 | |
| DL1XH-west | 2026-09-01 12:20:57 | 48.92904 | 10.06279 | 299° | 13km/h | 30308m | 5.5m/s | -42.5°C | 0% | 11.9hPa | 2.7V | 18:12:15 | 01:51:25 | 00:00:00 | |
| HSKMA3-T | 2026-09-01 12:20:56 | 48.92903 | 10.06282 | 303° | 7km/h | 30303m | 5.3m/s | -42.5°C | 0% | 11.9hPa | 2.7V | 18:12:15 | 01:51:24 | 00:00:00 | |
| OE5DRO-10 | 2026-09-01 12:20:55 | 48.92902 | 10.06283 | 10° | 11km/h | 30298m | 4.4m/s | -42.5°C | 2.6% | 11.9hPa | 2.7V | 00:00:00 | 00:00:00 | 00:00:00 | |
| DL1NUX | 2026-09-01 12:20:54 | 48.92895 | 10.06273 | 49° | 22km/h | 30280m | 5.9m/s | -42.5°C | 2.6% | 12hPa | 2.7V | 08:30:00 | 01:51:20 | 00:00:00 | |
| DG9SBQ-11 | 2026-09-01 12:20:54 | 48.92900 | 10.06282 | 43° | 9km/h | 30293m | 5.8m/s | -42.5°C | 0.6% | 11.9hPa | 2.6V | 00:00:00 | 00:00:00 | 00:00:00 | |
| SO1NDE-10 | 2026-09-01 12:20:53 | 48.92898 | 10.06278 | 47° | 9km/h | 30287m | 6.9m/s | -42.4°C | 2.6% | 11.9hPa | 2.6V | 00:00:00 | 01:51:21 | 00:00:00 | |
| DB0UT-7 | 2026-09-01 12:20:52 | 48.92895 | 10.06273 | 50° | 9km/h | 30280m | 5.9m/s | -42.5°C | 2.6% | 11.9hPa | 2.6V | 00:00:00 | 01:51:20 | 00:00:00 | |
| DM0DOS-11 | 2026-09-01 12:20:51 | 48.92884 | 10.06249 | 57° | 11km/h | 30257m | 5.1m/s | -42.5°C | 2.6% | 12hPa | 2.6V | 08:30:00 | 01:51:16 | 00:00:00 | |
| DK7TD | 2026-09-01 12:20:51 | 48.92891 | 10.06266 | 53° | 24km/h | 30275m | 5m/s | -42.6°C | 0% | 12hPa | 2.7V | 18:12:15 | 01:51:19 | 00:00:00 | |
| DF8AY | 2026-09-01 12:20:51 | 48.92888 | 10.06259 | 55° | 20km/h | 30269m | 6.3m/s | -42.6°C | 0% | 12hPa | 2.7V | 18:12:15 | 01:51:18 | 00:00:00 | |
| DL1XH-west | 2026-09-01 12:20:46 | 48.92881 | 10.06246 | 12° | 7km/h | 30246m | 6.8m/s | -42.6°C | 0% | 12hPa | 2.7V | 18:12:15 | 01:51:14 | 00:00:00 | |
| HSKMA3-T | 2026-09-01 12:20:45 | 48.92879 | 10.06246 | 352° | 9km/h | 30240m | 5.7m/s | -42.5°C | 0% | 12.1hPa | 2.7V | 18:12:15 | 01:51:13 | 00:00:00 | |
| DL1NUX | 2026-09-01 12:20:43 | 48.92874 | 10.06249 | 294° | 4km/h | 30223m | 6.9m/s | -42.6°C | 2.6% | 12.1hPa | 2.6V | 08:30:00 | 01:51:10 | 00:00:00 | |
| DF8AY | 2026-09-01 12:20:40 | 48.92875 | 10.06251 | 168° | 2km/h | 30211m | 5.3m/s | -42.5°C | 0% | 12.1hPa | 2.7V | 18:12:15 | 01:51:08 | 00:00:00 | |
| DL1XH1-15 | 2026-09-01 12:20:39 | 48.92875 | 10.06247 | 62° | 9km/h | 30200m | 6.6m/s | -42.5°C | 2.6% | 12.1hPa | 2.7V | 08:30:00 | 01:51:06 | 00:00:00 | |
| DO9HM | 2026-09-01 12:20:39 | 48.92875 | 10.06250 | 86° | 4km/h | 30206m | 5.6m/s | -42.6°C | 0.6% | 12.1hPa | 2.7V | 00:00:00 | 00:00:00 | 00:00:00 | |
| DO3MHA-12 | 2026-09-01 12:20:38 | 48.92874 | 10.06247 | 63° | 11km/h | 30200m | 6.5m/s | -42.4°C | 2.6% | 12.1hPa | 2.7V | 00:00:00 | 01:51:06 | 08:30:00 | |
| DL1NUX | 2026-09-01 12:20:37 | 48.92871 | 10.06220 | 141° | 11km/h | 30167m | 5.3m/s | -42.7°C | 2.6% | 12.1hPa | 2.7V | 08:30:00 | 01:51:00 | 00:00:00 | |
| DL1XH-west | 2026-09-01 12:20:35 | 48.92870 | 10.06233 | 70° | 15km/h | 30184m | 4.9m/s | -42.7°C | 0% | 12.2hPa | 2.6V | 18:12:15 | 01:51:03 | 00:00:00 | |
| HSKMA3-T | 2026-09-01 12:20:34 | 48.92869 | 10.06228 | 86° | 13km/h | 30179m | 6.2m/s | -42.6°C | 0% | 12.2hPa | 2.7V | 18:12:15 | 01:51:02 | 00:00:00 | |
| DJ2DS-15 | 2026-09-01 12:20:34 | 48.92869 | 10.06228 | 87° | 7km/h | 30179m | 6.1m/s | -42.5°C | 2.5% | 12.1hPa | 2.7V | 00:00:00 | 01:51:02 | 00:00:00 | |
| DL1XH1-15 | 2026-09-01 12:20:33 | 48.92877 | 10.06219 | 270° | 4km/h | 30144m | 5.3m/s | -42.9°C | 2.6% | 12.2hPa | 2.7V | 08:30:00 | 01:50:56 | 00:00:00 | |
| DG9SBQ-11 | 2026-09-01 12:20:33 | 48.92869 | 10.06224 | 115° | 11km/h | 30173m | 6.1m/s | -42.6°C | 0.6% | 12.1hPa | 2.6V | 00:00:00 | 00:00:00 | 00:00:00 | |
| DL1ZP-14 | 2026-09-01 12:20:31 | 48.92875 | 10.06218 | 174° | 7km/h | 30157m | 5.8m/s | -42.7°C | 0.6% | 12.2hPa | 2.6V | 00:00:00 | 00:00:00 | 00:00:00 | |
| DB0NH | 2026-09-01 12:20:30 | 48.92875 | 10.06218 | 175° | 5km/h | 30157m | 5.7m/s | -42.7°C | 2.6% | 12.1hPa | 2.7V | 00:00:00 | 01:50:58 | 00:00:00 | |
| DK7TD | 2026-09-01 12:20:30 | 48.92875 | 10.06218 | 175° | 7km/h | 30156m | 5.8m/s | -42.7°C | 0% | 12.2hPa | 2.6V | 18:12:15 | 01:50:58 | 00:00:00 | |
| IW2NTF | 2026-09-01 12:20:29 | 48.92877 | 10.06222 | 273° | 5km/h | 30134m | 6.2m/s | -42.8°C | 2.6% | 12.2hPa | 2.7V | 08:30:00 | 01:50:54 | 00:00:00 | |
| DF8AY | 2026-09-01 12:20:29 | 48.92877 | 10.06219 | 271° | 4km/h | 30145m | 5.3m/s | -42.9°C | 0% | 12.2hPa | 2.7V | 18:12:15 | 01:50:56 | 00:00:00 | |
| DO3MHA-12 | 2026-09-01 12:20:28 | 48.92877 | 10.06219 | 271° | 4km/h | 30145m | 5.2m/s | -42.8°C | 2.6% | 12.2hPa | 2.7V | 00:00:00 | 01:50:56 | 00:00:00 | |
| DL1NUX | 2026-09-01 12:20:27 | 48.92879 | 10.06227 | 219° | 2km/h | 30112m | 6.5m/s | -42.9°C | 2.6% | 12.3hPa | 2.7V | 08:30:00 | 01:50:50 | 00:00:00 | |
| DL1XH-west | 2026-09-01 12:20:25 | 48.92877 | 10.06224 | 247° | 5km/h | 30128m | 6.2m/s | -42.8°C | 0% | 12.3hPa | 2.6V | 18:12:15 | 01:50:53 | 00:00:00 | |
| HSKMA3-T | 2026-09-01 12:20:24 | 48.92878 | 10.06225 | 230° | 5km/h | 30122m | 5m/s | -42.9°C | 0% | 12.3hPa | 2.6V | 18:12:15 | 01:50:52 | 00:00:00 | |
| DK7TD | 2026-09-01 12:20:20 | 48.92879 | 10.06227 | 83° | 2km/h | 30101m | 4.9m/s | -43°C | 0% | 12.3hPa | 2.6V | 18:12:15 | 01:50:48 | 00:00:00 | |
| DO3MHA-11 | 2026-09-01 12:20:19 | 48.92879 | 10.06226 | 149° | 7km/h | 30096m | 4.5m/s | -42.9°C | 2.6% | 12.3hPa | 2.7V | 00:00:00 | 01:50:47 | 00:00:00 | |
| DO3MHA-12 | 2026-09-01 12:20:18 | 48.92880 | 10.06226 | 174° | 7km/h | 30090m | 6.6m/s | -42.9°C | 2.6% | 12.3hPa | 2.6V | 00:00:00 | 01:50:46 | 00:00:00 | |
| DL1NUX | 2026-09-01 12:20:17 | 48.92889 | 10.06226 | 21° | 7km/h | 30057m | 5m/s | -42.9°C | 2.6% | 12.4hPa | 2.6V | 08:30:00 | 01:50:40 | 00:00:00 | |
| DL1XH-west | 2026-09-01 12:20:15 | 48.92890 | 10.06227 | 176° | 4km/h | 30069m | 6.4m/s | -43°C | 0% | 12.4hPa | 2.7V | 18:12:15 | 01:50:42 | 00:00:00 | |
| HSKMA3-T | 2026-09-01 12:20:13 | 48.92890 | 10.06226 | 41° | 2km/h | 30062m | 6.1m/s | -42.9°C | 0% | 12.4hPa | 2.6V | 18:12:15 | 01:50:41 | 00:00:00 | |
| DK7TD | 2026-09-01 12:20:09 | 48.92885 | 10.06224 | 347° | 2km/h | 30040m | 6.2m/s | -42.9°C | 0% | 12.4hPa | 2.7V | 18:12:15 | 01:50:37 | 00:00:00 | |
| IW2NTF | 2026-09-01 12:20:09 | 48.92886 | 10.06225 | 52° | 2km/h | 30018m | 6.6m/s | -42.9°C | 2.6% | 12.5hPa | 2.7V | 08:30:00 | 01:50:33 | 00:00:00 | |
| DO3MHA-12 | 2026-09-01 12:20:08 | 48.92885 | 10.06224 | 226° | 4km/h | 30035m | 4.9m/s | -42.9°C | 2.6% | 12.4hPa | 2.6V | 00:00:00 | 01:50:36 | 00:00:00 | |
| DL1NUX | 2026-09-01 12:20:07 | 48.92883 | 10.06220 | 66° | 5km/h | 30002m | 4.7m/s | -43°C | 2.6% | 12.5hPa | 2.6V | 08:30:00 | 01:50:30 | 00:00:00 | |
| DF8AY | 2026-09-01 12:20:06 | 48.92884 | 10.06222 | 46° | 7km/h | 30007m | 4.8m/s | -42.9°C | 0% | 12.5hPa | 2.7V | 18:12:15 | 01:50:31 | 00:00:00 | |
| DL1XH-west | 2026-09-01 12:20:04 | 48.92885 | 10.06224 | 42° | 5km/h | 30012m | 5.8m/s | -43°C | 0% | 12.5hPa | 2.7V | 18:12:15 | 01:50:32 | 00:00:00 | |
| HSKMA3-T | 2026-09-01 12:20:02 | 48.92883 | 10.06220 | 67° | 5km/h | 30002m | 4.7m/s | -43°C | 0% | 12.5hPa | 2.6V | 18:12:15 | 01:50:30 | 00:00:00 | |
| EDDB2-11 | 2026-09-01 12:20:02 | 48.92883 | 10.06218 | 108° | 4km/h | 29997m | 6.4m/s | -43.0°C | 0.6% | 12.5hPa | 2.7V | 00:00:00 | 00:00:00 | 00:00:00 | |
| DM0DOS-11 | 2026-09-01 12:20:01 | 48.92887 | 10.06215 | 162° | 7km/h | 29979m | 5.9m/s | 0°C | 0% | 0hPa | 2.7V | 00:00:00 | 01:50:26 | 00:00:00 | |
| DF8AY | 2026-09-01 12:20:00 | 48.92892 | 10.06214 | 194° | 5km/h | 29951m | 6.2m/s | -43°C | 0% | 0hPa | 2.7V | 18:12:15 | 01:50:21 | 00:00:00 | |
| DB0NH | 2026-09-01 12:20:00 | 48.92884 | 10.06217 | 152° | 5km/h | 29990m | 6.2m/s | -42.9°C | 2.6% | 12.5hPa | 2.6V | 00:00:00 | 01:50:28 | 08:30:00 | |
| DG9SBQ-11 | 2026-09-01 12:19:59 | 48.92886 | 10.06216 | 165° | 7km/h | 29985m | 5.3m/s | -43.0°C | 0.6% | 12.5hPa | 2.6V | 00:00:00 | 00:00:00 | 00:00:00 | |
| DK7TD | 2026-09-01 12:19:59 | 48.92887 | 10.06215 | 162° | 7km/h | 29979m | 5.9m/s | -43°C | 0% | 12.5hPa | 2.7V | 18:12:15 | 01:50:26 | 00:00:00 | |
| DO9HM | 2026-09-01 12:19:58 | 48.92887 | 10.06215 | 163° | 7km/h | 29979m | 5.9m/s | -43.0°C | 0.6% | 12.5hPa | 2.6V | 00:00:00 | 00:00:00 | 00:00:00 | |
| DK5PH-5 | 2026-09-01 12:19:57 | 48.92889 | 10.06214 | 157° | 5km/h | 29973m | 6.3m/s | -42.9°C | 2.6% | 12.5hPa | 2.6V | 00:00:00 | 01:50:25 | 00:00:00 | |
| IW2NTF | 2026-09-01 12:19:55 | 48.92896 | 10.06214 | 27° | 4km/h | 29928m | 6.3m/s | -43.1°C | 2.6% | 12.6hPa | 2.6V | 08:30:00 | 01:50:17 | 00:00:00 | |
| DL1NUX | 2026-09-01 12:19:54 | 48.92894 | 10.06214 | 193° | 7km/h | 29945m | 5.1m/s | -43°C | 2.6% | 12.6hPa | 2.7V | 08:30:00 | 01:50:20 | 00:00:00 | |
| DL1XH-west | 2026-09-01 12:19:54 | 48.92891 | 10.06213 | 186° | 4km/h | 29957m | 6m/s | -43.1°C | 0% | 12.6hPa | 2.6V | 18:12:15 | 01:50:22 | 00:00:00 | |
| HSKMA3-T | 2026-09-01 12:19:52 | 48.92894 | 10.06214 | 194° | 7km/h | 29945m | 5.1m/s | -43°C | 0% | 12.6hPa | 2.7V | 18:12:15 | 01:50:20 | 00:00:00 | |
| DK7TD | 2026-09-01 12:19:48 | 48.92895 | 10.06214 | 24° | 7km/h | 29923m | 5.3m/s | -43.2°C | 0% | 12.7hPa | 2.6V | 18:12:15 | 01:50:16 | 00:00:00 | |
| DG9SBQ-11 | 2026-09-01 12:19:48 | 48.92895 | 10.06214 | 24° | 7km/h | 29923m | 5.3m/s | -43.2°C | 0.6% | 12.7hPa | 2.6V | 00:00:00 | 00:00:00 | 00:00:00 | |
| DL1NUX | 2026-09-01 12:19:47 | 48.92900 | 10.06209 | 158° | 11km/h | 29891m | 5.7m/s | -43.2°C | 2.6% | 12.7hPa | 2.6V | 08:30:00 | 01:50:10 | 00:00:00 | |
| DF8AY | 2026-09-01 12:19:43 | 48.92906 | 10.06201 | 178° | 4km/h | 29862m | 6.6m/s | -43.4°C | 0% | 0hPa | 2.6V | 18:12:15 | 01:50:05 | 00:00:00 | |
| DL1XH-west | 2026-09-01 12:19:43 | 48.92897 | 10.06210 | 167° | 11km/h | 29896m | 4.6m/s | -43.2°C | 0% | 12.7hPa | 2.6V | 18:12:15 | 01:50:11 | 00:00:00 | |
| HSKMA3-T | 2026-09-01 12:19:41 | 48.92902 | 10.06207 | 144° | 9km/h | 29885m | 6m/s | -43.3°C | 0% | 12.7hPa | 2.7V | 18:12:15 | 01:50:09 | 00:00:00 | |
| DK7TD | 2026-09-01 12:19:38 | 48.92905 | 10.06202 | 123° | 4km/h | 29868m | 5.4m/s | -43.3°C | 0% | 12.7hPa | 2.6V | 18:12:15 | 01:50:06 | 00:00:00 | |
| IW2NTF | 2026-09-01 12:19:38 | 48.92909 | 10.06203 | 198° | 2km/h | 29846m | 5.5m/s | -43.3°C | 2.6% | 12.8hPa | 2.7V | 08:30:00 | 01:50:02 | 00:00:00 | |
| DJ8HS-15 | 2026-09-01 12:19:37 | 48.92906 | 10.06201 | 178° | 7km/h | 29863m | 6.6m/s | -43.3°C | 2.7% | 12.7hPa | 2.6V | 00:00:00 | 01:50:05 | 00:00:00 | |
| NBG1-10 | 2026-09-01 12:19:35 | 48.92908 | 10.06202 | 207° | 9km/h | 29852m | 4.8m/s | -43.2°C | 2.6% | 12.7hPa | 2.7V | 00:00:00 | 01:50:03 | 08:30:00 | |
| DL1NUX | 2026-09-01 12:19:34 | 48.92908 | 10.06201 | 62° | 5km/h | 29834m | 5.4m/s | -43.3°C | 2.6% | 12.8hPa | 2.6V | 08:30:00 | 01:50:00 | 00:00:00 | |
| DL1XH-west | 2026-09-01 12:19:32 | 48.92909 | 10.06201 | 62° | 5km/h | 29834m | 5.4m/s | -43.3°C | 0% | 12.8hPa | 2.6V | 18:12:15 | 01:50:00 | 00:00:00 | |
| HSKMA3-T | 2026-09-01 12:19:31 | 48.92908 | 10.06199 | 77° | 5km/h | 29829m | 4.9m/s | -43.3°C | 0% | 12.8hPa | 2.6V | 18:12:15 | 01:49:59 | 00:00:00 | |
| DF8AY | 2026-09-01 12:19:30 | 48.92908 | 10.06197 | 108° | 7km/h | 29823m | 5.5m/s | -43.3°C | 0% | 0hPa | 2.6V | 18:12:15 | 01:49:58 | 00:00:00 | |
| DB0NH | 2026-09-01 12:19:30 | 48.92908 | 10.06197 | 108° | 11km/h | 29824m | 5.5m/s | -43.3°C | 2.6% | 12.8hPa | 2.6V | 00:00:00 | 01:49:58 | 00:00:00 | |
| DO3MHA-11 | 2026-09-01 12:19:29 | 48.92909 | 10.06195 | 141° | 9km/h | 29818m | 6.3m/s | -43.3°C | 2.6% | 12.8hPa | 2.6V | 00:00:00 | 01:49:57 | 00:00:00 | |
| DO3MHA-12 | 2026-09-01 12:19:28 | 48.92912 | 10.06193 | 159° | 7km/h | 29812m | 5.6m/s | -43.2°C | 2.7% | 12.8hPa | 2.6V | 00:00:00 | 01:49:56 | 00:00:00 | |
| DL1NUX | 2026-09-01 12:19:27 | 48.92922 | 10.06181 | 119° | 5km/h | 29778m | 6.4m/s | -43.4°C | 2.6% | 12.9hPa | 2.6V | 08:30:00 | 01:49:50 | 00:00:00 | |
| DK7TD | 2026-09-01 12:19:27 | 48.92914 | 10.06191 | 162° | 13km/h | 29806m | 4.6m/s | -43.3°C | 0% | 12.9hPa | 2.7V | 18:12:15 | 01:49:55 | 00:00:00 | |
| DL1XH-west | 2026-09-01 12:19:22 | 48.92922 | 10.06181 | 119° | 5km/h | 29778m | 6.4m/s | -43.4°C | 0% | 12.9hPa | 2.6V | 18:12:15 | 01:49:50 | 00:00:00 | |
| HSKMA3-T | 2026-09-01 12:19:21 | 48.92923 | 10.06179 | 138° | 7km/h | 29771m | 6.4m/s | -43.5°C | 0% | 12.9hPa | 2.6V | 18:12:15 | 01:49:49 | 00:00:00 | |
| DG9SBQ-11 | 2026-09-01 12:19:21 | 48.92923 | 10.06180 | 139° | 7km/h | 29772m | 6.4m/s | -43.5°C | 0.6% | 12.9hPa | 2.7V | 00:00:00 | 00:00:00 | 00:00:00 | |
| OE5DRO-10 | 2026-09-01 12:19:20 | 48.92924 | 10.06178 | 142° | 11km/h | 29766m | 5.2m/s | -43.4°C | 2.7% | 12.9hPa | 2.7V | 00:00:00 | 00:00:00 | 00:00:00 | |
| DL1XH1-15 | 2026-09-01 12:19:19 | 48.92926 | 10.06174 | 105° | 5km/h | 29755m | 6.2m/s | -43.5°C | 2.7% | 12.9hPa | 2.6V | 08:30:00 | 01:49:46 | 00:00:00 | |
| DK7TD | 2026-09-01 12:19:18 | 48.92926 | 10.06173 | 75° | 5km/h | 29749m | 5.8m/s | -43.5°C | 0% | 13hPa | 2.6V | 18:12:15 | 01:49:45 | 00:00:00 | |
| DL1XH-west | 2026-09-01 12:19:12 | 48.92931 | 10.06161 | 133° | 15km/h | 29722m | 4.7m/s | -43.6°C | 0% | 13hPa | 2.7V | 18:12:15 | 01:49:40 | 00:00:00 | |
| HSKMA3-T | 2026-09-01 12:19:10 | 48.92935 | 10.06150 | 109° | 16km/h | 29710m | 6.1m/s | -43.6°C | 0% | 13.1hPa | 2.6V | 18:12:15 | 01:49:38 | 00:00:00 | |
| IW2NTF | 2026-09-01 12:19:09 | 48.92936 | 10.06138 | 97° | 16km/h | 29699m | 4.9m/s | -43.7°C | 2.7% | 13.1hPa | 2.7V | 08:30:00 | 01:49:36 | 00:00:00 | |
| DK7TD | 2026-09-01 12:19:07 | 48.92937 | 10.06132 | 99° | 15km/h | 29694m | 6.7m/s | -43.7°C | 0% | 13.1hPa | 2.7V | 18:12:15 | 01:49:35 | 00:00:00 | |
| DF8AY | 2026-09-01 12:19:02 | 48.92918 | 10.06034 | 61° | 9km/h | 29591m | 5m/s | 0°C | 0% | 0hPa | 2.7V | 18:12:15 | 01:49:17 | 00:00:00 | |
| DL1XH-west | 2026-09-01 12:19:01 | 48.92933 | 10.06110 | 43° | 20km/h | 29660m | 5.9m/s | -43.8°C | 0% | 13.1hPa | 2.7V | 18:12:15 | 01:49:29 | 00:00:00 | |
| OE5DRO-10 | 2026-09-01 12:19:01 | 48.92933 | 10.06110 | 43° | 18km/h | 29660m | 5.9m/s | -43.8°C | 2.7% | 13.1hPa | 2.6V | 00:00:00 | 00:00:00 | 00:00:00 | |
| DL1XH1-15 | 2026-09-01 12:19:00 | 48.92924 | 10.06091 | 69° | 20km/h | 29642m | 6.3m/s | -43.9°C | 2.7% | 13.2hPa | 2.6V | 08:30:00 | 01:49:26 | 00:00:00 | |
| HSKMA3-T | 2026-09-01 12:19:00 | 48.92926 | 10.06098 | 56° | 20km/h | 29648m | 6.5m/s | -43.8°C | 0% | 13.2hPa | 2.6V | 18:12:15 | 01:49:27 | 00:00:00 | |
| DK7TD | 2026-09-01 12:18:56 | 48.92922 | 10.06076 | 87° | 20km/h | 29631m | 5.2m/s | -44°C | 0% | 13.2hPa | 2.7V | 18:12:15 | 01:49:24 | 00:00:00 | |
| DL1NUX | 2026-09-01 12:18:55 | 48.92918 | 10.06037 | 81° | 9km/h | 29596m | 5.3m/s | -44.2°C | 2.8% | 13.3hPa | 2.7V | 08:30:00 | 01:49:18 | 00:00:00 | |
| DL9SK-14 | 2026-09-01 12:18:55 | 48.92921 | 10.06060 | 80° | 20km/h | 29619m | 5.7m/s | -43.9°C | 0.6% | 13.2hPa | 2.6V | 00:00:00 | 00:00:00 | 00:00:00 | |
| DL1XH1-15 | 2026-09-01 12:18:54 | 48.92913 | 10.06027 | 36° | 18km/h | 29579m | 6.6m/s | -44.3°C | 2.8% | 13.3hPa | 2.6V | 08:30:00 | 01:49:15 | 00:00:00 | |
| DL1XH-west | 2026-09-01 12:18:51 | 48.92919 | 10.06041 | 85° | 13km/h | 29602m | 6.7m/s | -44.2°C | 0% | 13.3hPa | 2.6V | 18:12:15 | 01:49:19 | 00:00:00 | |
| HSKMA3-T | 2026-09-01 12:18:48 | 48.92916 | 10.06030 | 43° | 13km/h | 29585m | 6.1m/s | -44.3°C | 0% | 13.3hPa | 2.7V | 18:12:15 | 01:49:16 | 00:00:00 | |
| DK7TD | 2026-09-01 12:18:46 | 48.92909 | 10.06022 | 38° | 22km/h | 29573m | 5.4m/s | -44.4°C | 0% | 13.3hPa | 2.6V | 18:12:15 | 01:49:14 | 00:00:00 | |
| DL1XH-west | 2026-09-01 12:18:41 | 48.92899 | 10.05984 | 98° | 26km/h | 29545m | 4.8m/s | -44.3°C | 0% | 13.4hPa | 2.6V | 18:12:15 | 01:49:09 | 00:00:00 | |
| DL1XH1-15 | 2026-09-01 12:18:40 | 48.92901 | 10.05956 | 94° | 22km/h | 29528m | 4.8m/s | -44.3°C | 2.8% | 13.4hPa | 2.7V | 08:30:00 | 01:49:06 | 00:00:00 | |
| DF8AY | 2026-09-01 12:18:37 | 48.92902 | 10.05949 | 99° | 16km/h | 29524m | 4.8m/s | 0°C | 0% | 0hPa | 2.7V | 18:12:15 | 01:49:05 | 00:00:00 | |
| DK7TD | 2026-09-01 12:18:35 | 48.92904 | 10.05941 | 143° | 7km/h | 29512m | 6.9m/s | -44.3°C | 0% | 13.5hPa | 2.6V | 18:12:15 | 01:49:03 | 00:00:00 | |
| DL8DAS-14 | 2026-09-01 12:18:35 | 48.92906 | 10.05940 | 184° | 7km/h | 29506m | 5.7m/s | -44.3°C | 0.6% | 13.5hPa | 2.6V | 00:00:00 | 00:00:00 | 00:00:00 | |
| DL1XH1-15 | 2026-09-01 12:18:33 | 48.92902 | 10.05936 | 54° | 13km/h | 29472m | 6.1m/s | -44.5°C | 2.8% | 13.5hPa | 2.6V | 08:30:00 | 01:48:56 | 00:00:00 | |
| DL1XH-west | 2026-09-01 12:18:30 | 48.92906 | 10.05941 | 25° | 9km/h | 29483m | 5.6m/s | -44.6°C | 0% | 13.5hPa | 2.7V | 18:12:15 | 01:48:58 | 00:00:00 | |
| DO3MHA-11 | 2026-09-01 12:18:29 | 48.92904 | 10.05939 | 40° | 11km/h | 29478m | 4.8m/s | -44.5°C | 2.8% | 13.5hPa | 2.7V | 00:00:00 | 01:48:57 | 00:00:00 | |
| IW2NTF | 2026-09-01 12:18:28 | 48.92900 | 10.05914 | 93° | 15km/h | 29447m | 6.5m/s | -44.5°C | 2.8% | 13.6hPa | 2.7V | 08:30:00 | 01:48:52 | 00:00:00 | |
| HSKMA3-T | 2026-09-01 12:18:26 | 48.92900 | 10.05926 | 91° | 15km/h | 29459m | 6m/s | -44.5°C | 0% | 13.6hPa | 2.7V | 18:12:15 | 01:48:54 | 00:00:00 | |
| DK7TD | 2026-09-01 12:18:24 | 48.92900 | 10.05914 | 93° | 15km/h | 29447m | 6.5m/s | -44.5°C | 0% | 13.6hPa | 2.7V | 18:12:15 | 01:48:52 | 00:00:00 | |
| DL1XH-west | 2026-09-01 12:18:20 | 48.92901 | 10.05901 | 181° | 4km/h | 29424m | 7m/s | -44.5°C | 0% | 13.6hPa | 2.7V | 18:12:15 | 01:48:48 | 00:00:00 | |
| DL1XH1-15 | 2026-09-01 12:18:19 | 48.92904 | 10.05904 | 231° | 9km/h | 29412m | 4.9m/s | -44.5°C | 2.8% | 13.6hPa | 2.7V | 08:30:00 | 01:48:46 | 00:00:00 | |
| HSKMA3-T | 2026-09-01 12:18:15 | 48.92904 | 10.05909 | 6° | 5km/h | 29395m | 5.2m/s | -44.6°C | 0% | 13.7hPa | 2.6V | 18:12:15 | 01:48:43 | 00:00:00 | |
| DK7TD | 2026-09-01 12:18:13 | 48.92901 | 10.05906 | 64° | 9km/h | 29384m | 6.2m/s | -44.6°C | 0% | 13.7hPa | 2.7V | 18:12:15 | 01:48:41 | 00:00:00 | |
| DL1XH-west | 2026-09-01 12:18:09 | 48.92905 | 10.05887 | 112° | 18km/h | 29360m | 6.5m/s | -44.7°C | 0% | 13.8hPa | 2.6V | 18:12:15 | 01:48:37 | 00:00:00 | |
| HSKMA3-T | 2026-09-01 12:18:05 | 48.92911 | 10.05867 | 193° | 5km/h | 29332m | 6.9m/s | -44.7°C | 0% | 13.8hPa | 2.6V | 18:12:15 | 01:48:32 | 00:00:00 | |
| DK7TD | 2026-09-01 12:18:03 | 48.92912 | 10.05868 | 238° | 7km/h | 29325m | 5.6m/s | -44.7°C | 0% | 13.8hPa | 2.6V | 18:12:15 | 01:48:31 | 00:00:00 | |
| IW2NTF | 2026-09-01 12:18:03 | 48.92911 | 10.05877 | 338° | 9km/h | 29308m | 5.6m/s | -44.6°C | 2.8% | 13.9hPa | 2.7V | 08:30:00 | 01:48:28 | 00:00:00 | |
| DL1XH-west | 2026-09-01 12:17:59 | 48.92908 | 10.05877 | 13° | 9km/h | 29303m | 4.8m/s | -44.7°C | 0% | 13.9hPa | 2.6V | 18:12:15 | 01:48:27 | 00:00:00 | |
| HSKMA3-T | 2026-09-01 12:17:54 | 48.92911 | 10.05850 | 109° | 16km/h | 29270m | 6.2m/s | -44.7°C | 0% | 14hPa | 2.6V | 18:12:15 | 01:48:21 | 00:00:00 | |
| DK7TD | 2026-09-01 12:17:52 | 48.92912 | 10.05844 | 95° | 16km/h | 29264m | 6.1m/s | -44.7°C | 0% | 14hPa | 2.6V | 18:12:15 | 01:48:20 | 00:00:00 | |
| DL1XH-west | 2026-09-01 12:17:49 | 48.92910 | 10.05831 | 68° | 7km/h | 29246m | 6.6m/s | -44.6°C | 0% | 14hPa | 2.7V | 18:12:15 | 01:48:17 | 00:00:00 | |
| DL6DJ-15 | 2026-09-01 12:17:47 | 48.92909 | 10.05828 | 85° | 0km/h | 29234m | 5.4m/s | -44.6°C | 0.6% | 14.0hPa | 2.7V | 00:00:00 | 00:00:00 | 00:00:00 | |
| DK7TD | 2026-09-01 12:17:42 | 48.92904 | 10.05824 | 73° | 11km/h | 29205m | 5.8m/s | -44.9°C | 0% | 14.1hPa | 2.7V | 18:12:15 | 01:48:10 | 00:00:00 | |
| DL1XH-west | 2026-09-01 12:17:39 | 48.92906 | 10.05796 | 95° | 24km/h | 29181m | 6.3m/s | -45.1°C | 0% | 14.2hPa | 2.7V | 18:12:15 | 01:48:06 | 00:00:00 | |
| HSKMA3-T | 2026-09-01 12:17:33 | 48.92903 | 10.05764 | 322° | 0km/h | 29146m | 5.1m/s | -45.1°C | 0% | 14.2hPa | 2.7V | 18:12:15 | 01:48:00 | 00:00:00 | |
| DK7TD | 2026-09-01 12:17:31 | 48.92902 | 10.05765 | 307° | 4km/h | 29141m | 5.6m/s | -45.1°C | 0% | 14.3hPa | 2.7V | 18:12:15 | 01:47:59 | 00:00:00 | |
| DL1XH-west | 2026-09-01 12:17:27 | 48.92898 | 10.05765 | 110° | 11km/h | 29111m | 6.9m/s | -45°C | 0% | 14.3hPa | 2.7V | 18:12:15 | 01:47:54 | 00:00:00 | |
| EDDB2-11 | 2026-09-01 12:17:27 | 48.92898 | 10.05765 | 110° | 11km/h | 29111m | 6.9m/s | -45.0°C | 0.6% | 14.3hPa | 2.7V | 00:00:00 | 00:00:00 | 00:00:00 | |
| OE5DRO-10 | 2026-09-01 12:17:26 | 48.92898 | 10.05764 | 111° | 13km/h | 29111m | 6.8m/s | -45.0°C | 2.9% | 14.3hPa | 2.7V | 00:00:00 | 00:00:00 | 08:30:00 | |
| SONCRA | 2026-09-01 12:17:25 | 48.92902 | 10.05753 | 115° | 22km/h | 29100m | 5.0m/s | -45.1°C | 0.7% | 14.3hPa | 2.6V | 00:00:00 | 00:00:00 | 00:00:00 | |
| DL1XH1-15 | 2026-09-01 12:17:24 | 48.92905 | 10.05727 | 236° | 9km/h | 29058m | 6.5m/s | -45.1°C | 3% | 0hPa | 2.6V | 00:00:00 | 01:47:45 | 00:00:00 | |
| HSKMA3-T | 2026-09-01 12:17:22 | 48.92905 | 10.05737 | 100° | 20km/h | 29088m | 6.5m/s | -45.2°C | 0% | 14.3hPa | 2.6V | 18:12:15 | 01:47:50 | 00:00:00 | |
| DK7TD | 2026-09-01 12:17:21 | 48.92905 | 10.05730 | 86° | 15km/h | 29082m | 5.3m/s | -45.2°C | 0% | 14.3hPa | 2.6V | 18:12:15 | 01:47:49 | 00:00:00 | |
| DO3MHA-12 | 2026-09-01 12:17:19 | 48.92904 | 10.05725 | 261° | 9km/h | 29066m | 6.9m/s | -45.2°C | 2.9% | 14.4hPa | 2.6V | 00:00:00 | 01:47:46 | 00:00:00 | |
| DJ8HS-15 | 2026-09-01 12:17:18 | 48.92905 | 10.05727 | 237° | 11km/h | 29059m | 6.4m/s | -45.1°C | 3.0% | 14.4hPa | 2.6V | 00:00:00 | 01:47:45 | 00:00:00 | |
| IW2NTF | 2026-09-01 12:17:17 | 48.92908 | 10.05734 | 231° | 11km/h | 29048m | 5.1m/s | -45°C | 2.9% | 14.5hPa | 2.6V | 08:30:00 | 01:47:43 | 00:00:00 | |
| DL1XH-west | 2026-09-01 12:17:17 | 48.92908 | 10.05734 | 231° | 11km/h | 29048m | 5.1m/s | -45°C | 0% | 14.5hPa | 2.6V | 18:12:15 | 01:47:43 | 00:00:00 | |
| HSKMA3-T | 2026-09-01 12:17:12 | 48.92911 | 10.05737 | 108° | 5km/h | 29030m | 5.6m/s | -45.2°C | 0% | 14.5hPa | 2.7V | 18:12:15 | 01:47:40 | 00:00:00 | |
| DK7TD | 2026-09-01 12:17:11 | 48.92911 | 10.05734 | 108° | 11km/h | 29024m | 6.2m/s | -45.3°C | 0% | 14.5hPa | 2.6V | 18:12:15 | 01:47:39 | 00:00:00 | |
| DJ2DS-15 | 2026-09-01 12:17:11 | 48.92911 | 10.05734 | 108° | 11km/h | 29024m | 6.1m/s | 0°C | 0% | 0hPa | 2.7V | 00:00:00 | 01:47:39 | 00:00:00 | |
| DO3MHA-11 | 2026-09-01 12:17:09 | 48.92915 | 10.05723 | 122° | 13km/h | 29011m | 6.1m/s | -45.2°C | 2.8% | 14.5hPa | 2.7V | 00:00:00 | 01:47:37 | 00:00:00 | |
| IW2NTF | 2026-09-01 12:17:08 | 48.92923 | 10.05709 | 244° | 11km/h | 28972m | 6m/s | -45.2°C | 2.8% | 14.6hPa | 2.7V | 08:30:00 | 01:47:30 | 00:00:00 | |
| DL1XH-west | 2026-09-01 12:17:06 | 48.92922 | 10.05704 | 103° | 4km/h | 28988m | 6.3m/s | -45.4°C | 0% | 14.6hPa | 2.6V | 18:12:15 | 01:47:33 | 00:00:00 | |
| HSKMA3-T | 2026-09-01 12:17:01 | 48.92925 | 10.05713 | 224° | 15km/h | 28965m | 6.6m/s | -45.3°C | 0% | 14.6hPa | 2.7V | 18:12:15 | 01:47:29 | 00:00:00 | |
| DK7TD | 2026-09-01 12:17:00 | 48.92928 | 10.05717 | 206° | 18km/h | 28959m | 5.7m/s | -45.3°C | 0% | 14.7hPa | 2.7V | 18:12:15 | 01:47:28 | 00:00:00 | |
| DJTTGO | 2026-09-01 12:17:00 | 48.92928 | 10.05717 | 207° | 18km/h | 28959m | 5.7m/s | -45.3°C | 0.7% | 14.7hPa | 2.6V | 00:00:00 | 00:00:00 | 00:00:00 | |
| DL1XH1-15 | 2026-09-01 12:16:59 | 48.92947 | 10.05705 | 111° | 13km/h | 28919m | 6.3m/s | -45.7°C | 0% | 0hPa | 2.6V | 00:00:00 | 01:47:21 | 00:00:00 | |
| DL1XH-west | 2026-09-01 12:16:55 | 48.92945 | 10.05713 | 116° | 9km/h | 28931m | 5.8m/s | -45.5°C | 0% | 14.7hPa | 2.7V | 18:12:15 | 01:47:23 | 00:00:00 | |
| SONCRA | 2026-09-01 12:16:54 | 48.92947 | 10.05705 | 111° | 13km/h | 28919m | 6.3m/s | -45.7°C | 0.7% | 14.7hPa | 2.6V | 00:00:00 | 00:00:00 | 00:00:00 | |
| IW2NTF | 2026-09-01 12:16:53 | 48.92949 | 10.05700 | 124° | 15km/h | 28912m | 6.7m/s | -45.8°C | 2.9% | 14.7hPa | 2.6V | 08:30:00 | 01:47:20 | 00:00:00 | |
| HSKMA3-T | 2026-09-01 12:16:51 | 48.92952 | 10.05696 | 138° | 16km/h | 28906m | 5.8m/s | -45.9°C | 0% | 14.7hPa | 2.6V | 18:12:15 | 01:47:19 | 00:00:00 | |
| DK7TD | 2026-09-01 12:16:50 | 48.92955 | 10.05692 | 153° | 16km/h | 28901m | 4.9m/s | -45.8°C | 0% | 14.8hPa | 2.7V | 18:12:15 | 01:47:18 | 00:00:00 | |
| DG9SBQ-11 | 2026-09-01 12:16:50 | 48.92955 | 10.05692 | 154° | 16km/h | 28901m | 4.9m/s | -45.8°C | 0.7% | 14.8hPa | 2.7V | 00:00:00 | 00:00:00 | 00:00:00 | |
| DO3MHA-11 | 2026-09-01 12:16:49 | 48.92959 | 10.05690 | 169° | 15km/h | 28896m | 5.4m/s | -45.8°C | 2.9% | 14.7hPa | 2.7V | 00:00:00 | 01:47:17 | 08:30:00 | |
| DO3MHA-12 | 2026-09-01 12:16:48 | 48.92962 | 10.05690 | 188° | 15km/h | 28890m | 7.0m/s | -45.8°C | 2.9% | 14.8hPa | 2.7V | 00:00:00 | 01:47:16 | 00:00:00 | |
| DL1XH1-15 | 2026-09-01 12:16:46 | 48.92971 | 10.05694 | 151° | 9km/h | 28865m | 6m/s | 0°C | 0% | 0hPa | 2.7V | 00:00:00 | 01:47:12 | 00:00:00 | |
| DL1XH-west | 2026-09-01 12:16:45 | 48.92969 | 10.05694 | 193° | 7km/h | 28872m | 6.2m/s | -46°C | 0% | 14.8hPa | 2.6V | 18:12:15 | 01:47:13 | 00:00:00 | |
| IW2NTF | 2026-09-01 12:16:43 | 48.92974 | 10.05685 | 99° | 18km/h | 28854m | 5.6m/s | -46.1°C | 3% | 14.8hPa | 2.7V | 08:30:00 | 01:47:10 | 00:00:00 | |
| DK7TD | 2026-09-01 12:16:40 | 48.92974 | 10.05669 | 78° | 24km/h | 28841m | 6.7m/s | -46.3°C | 0% | 14.9hPa | 2.6V | 18:12:15 | 01:47:08 | 00:00:00 | |
| DL1XH1-15 | 2026-09-01 12:16:39 | 48.92974 | 10.05623 | 130° | 11km/h | 28806m | 5.3m/s | 0°C | 0% | 0hPa | 2.6V | 00:00:00 | 01:47:02 | 00:00:00 | |
| DG9SBQ-11 | 2026-09-01 12:16:39 | 48.92972 | 10.05659 | 77° | 26km/h | 28835m | 5.6m/s | -46.4°C | 0.7% | 14.9hPa | 2.7V | 00:00:00 | 00:00:00 | 00:00:00 | |
| DO3MHA-12 | 2026-09-01 12:16:38 | 48.92971 | 10.05650 | 81° | 13km/h | 28830m | 5.1m/s | -46.4°C | 3.0% | 14.9hPa | 2.7V | 00:00:00 | 01:47:06 | 00:00:00 | |
| IW2NTF | 2026-09-01 12:16:37 | 48.92976 | 10.05620 | 92° | 2km/h | 28794m | 6.1m/s | -46.3°C | 3% | 15hPa | 2.7V | 00:00:00 | 01:47:00 | 00:00:00 | |
| DL1XH-west | 2026-09-01 12:16:34 | 48.92976 | 10.05621 | 138° | 5km/h | 28800m | 7.2m/s | -46.4°C | 0% | 15hPa | 2.6V | 18:12:15 | 01:47:01 | 00:00:00 | |
| DK7TD | 2026-09-01 12:16:29 | 48.92974 | 10.05615 | 74° | 11km/h | 28777m | 6.1m/s | -46.4°C | 0% | 15.1hPa | 2.6V | 18:12:15 | 01:46:57 | 00:00:00 | |
| DO3MHA-11 | 2026-09-01 12:16:29 | 48.92974 | 10.05614 | 74° | 22km/h | 28777m | 6.0m/s | -46.4°C | 3.1% | 15.0hPa | 2.6V | 00:00:00 | 01:46:57 | 00:00:00 | |
| DL1XH1-15 | 2026-09-01 12:16:28 | 48.92970 | 10.05566 | 67° | 27km/h | 28742m | 5.9m/s | 0°C | 0% | 0hPa | 2.6V | 00:00:00 | 01:46:51 | 00:00:00 | |
| DL1XH-west | 2026-09-01 12:16:24 | 48.92972 | 10.05576 | 76° | 26km/h | 28748m | 6.5m/s | -46.7°C | 0% | 0hPa | 2.7V | 18:12:15 | 01:46:52 | 00:00:00 | |
| DK7TD | 2026-09-01 12:16:19 | 48.92961 | 10.05533 | 81° | 18km/h | 28719m | 6.1m/s | -46.5°C | 0% | 15.2hPa | 2.7V | 18:12:15 | 01:46:47 | 00:00:00 | |
| DO3MHA-11 | 2026-09-01 12:16:19 | 48.92961 | 10.05533 | 81° | 11km/h | 28719m | 6.1m/s | -46.4°C | 3.1% | 15.1hPa | 2.7V | 00:00:00 | 01:46:47 | 00:00:00 | |
| DO3MHA-12 | 2026-09-01 12:16:18 | 48.92961 | 10.05526 | 87° | 11km/h | 28714m | 5.3m/s | -46.4°C | 3.1% | 15.2hPa | 2.7V | 00:00:00 | 01:46:46 | 00:00:00 | |
| DL1XH1-15 | 2026-09-01 12:16:17 | 48.92954 | 10.05504 | 67° | 7km/h | 28677m | 6.5m/s | 0°C | 0% | 0hPa | 2.7V | 00:00:00 | 01:46:40 | 00:00:00 | |
| DL1NUX | 2026-09-01 12:16:16 | 48.92953 | 10.05501 | 73° | 9km/h | 28671m | 5.5m/s | -46.4°C | 3.1% | 15.3hPa | 2.6V | 08:30:00 | 01:46:39 | 00:00:00 | |
| DL1XH-west | 2026-09-01 12:16:13 | 48.92955 | 10.05507 | 54° | 9km/h | 28684m | 6.3m/s | -46.4°C | 0% | 0hPa | 2.7V | 18:12:15 | 01:46:41 | 00:00:00 | |
| DK7TD | 2026-09-01 12:16:08 | 48.92948 | 10.05490 | 44° | 16km/h | 28652m | 6.2m/s | -46.5°C | 0% | 15.3hPa | 2.7V | 18:12:15 | 01:46:36 | 00:00:00 | |
| DL1XH-west | 2026-09-01 12:16:03 | 48.92940 | 10.05459 | 87° | 13km/h | 28618m | 6.5m/s | -46.2°C | 0% | 0hPa | 2.7V | 18:12:15 | 01:46:30 | 00:00:00 | |
| DL1NUX | 2026-09-01 12:16:03 | 48.92936 | 10.05446 | 97° | 4km/h | 28588m | 6.9m/s | -46°C | 3% | 15.5hPa | 2.6V | 08:30:00 | 01:46:25 | 00:00:00 | |
| DK7TD | 2026-09-01 12:15:58 | 48.92936 | 10.05446 | 98° | 4km/h | 28588m | 6.9m/s | -46°C | 0% | 15.5hPa | 2.6V | 18:12:15 | 01:46:25 | 00:00:00 | |
| DL1XH-west | 2026-09-01 12:15:51 | 48.92930 | 10.05436 | 25° | 15km/h | 28553m | 4.9m/s | 0°C | 0% | 0hPa | 2.6V | 18:12:15 | 01:46:19 | 00:00:00 | |
| DO9HM | 2026-09-01 12:15:51 | 48.92930 | 10.05436 | 26° | 15km/h | 28553m | 4.9m/s | -45.9°C | 0.7% | 15.6hPa | 2.7V | 00:00:00 | 00:00:00 | 00:00:00 | |
| DL1XH1-15 | 2026-09-01 12:15:50 | 48.92923 | 10.05428 | 66° | 9km/h | 28535m | 5.9m/s | 0°C | 0% | 0hPa | 2.7V | 00:00:00 | 01:46:16 | 00:00:00 | |
| AU51GT2 | 2026-09-01 12:15:50 | 48.92927 | 10.05433 | 31° | 13km/h | 28548m | 5.6m/s | 0°C | -1.0% | 15.6hPa | 2.6V | 00:00:00 | 00:00:00 | 00:00:00 | |
| DL1NUX | 2026-09-01 12:15:49 | 48.92923 | 10.05422 | 90° | 5km/h | 28523m | 6.2m/s | -46°C | 3% | 15.7hPa | 2.6V | 08:30:00 | 01:46:14 | 00:00:00 | |
| DK7TD | 2026-09-01 12:15:47 | 48.92923 | 10.05425 | 88° | 7km/h | 28529m | 5.4m/s | -46°C | 0% | 15.6hPa | 2.6V | 18:12:15 | 01:46:15 | 00:00:00 | |
| DL1XH-west | 2026-09-01 12:15:40 | 48.92926 | 10.05423 | 190° | 5km/h | 28488m | 4.6m/s | 0°C | 0% | 0hPa | 2.6V | 18:12:15 | 01:46:08 | 00:00:00 | |
| HSKMA3-T | 2026-09-01 12:15:37 | 48.92925 | 10.05420 | 39° | 11km/h | 28472m | 6.5m/s | -46°C | 0% | 15.8hPa | 2.7V | 18:12:15 | 01:46:05 | 00:00:00 | |
| DK7TD | 2026-09-01 12:15:36 | 48.92923 | 10.05417 | 42° | 16km/h | 28466m | 5.4m/s | -46°C | 0% | 15.8hPa | 2.7V | 18:12:15 | 01:46:04 | 00:00:00 | |
| DL1NUX | 2026-09-01 12:15:34 | 48.92917 | 10.05407 | 60° | 18km/h | 28455m | 6.6m/s | -45.9°C | 3% | 15.8hPa | 2.6V | 08:30:00 | 01:46:02 | 00:00:00 | |
| DG9SBQ-11 | 2026-09-01 12:15:34 | 48.92917 | 10.05406 | 61° | 18km/h | 28455m | 6.6m/s | -45.9°C | 0.7% | 15.8hPa | 2.7V | 00:00:00 | 00:00:00 | 00:00:00 | |
| DO9HM | 2026-09-01 12:15:32 | 48.92917 | 10.05390 | 150° | 5km/h | 28431m | 6.9m/s | -46.0°C | 0.7% | 15.9hPa | 2.7V | 00:00:00 | 00:00:00 | 00:00:00 | |
| DB0ND-19 | 2026-09-01 12:15:31 | 48.92918 | 10.05390 | 204° | 4km/h | 28425m | 5.8m/s | -45.9°C | 0.7% | 15.9hPa | 2.7V | 00:00:00 | 00:00:00 | 00:00:00 | |
| PG1ADW-2 | 2026-09-01 12:15:30 | 48.92918 | 10.05390 | 205° | 11km/h | 28425m | 5.8m/s | -45.8°C | 3.0% | 15.8hPa | 2.7V | 00:00:00 | 00:00:00 | 00:00:00 | |
| DO3MHA-11 | 2026-09-01 12:15:29 | 48.92918 | 10.05390 | 205° | 13km/h | 28425m | 5.8m/s | -45.8°C | 3.0% | 15.8hPa | 2.7V | 00:00:00 | 01:45:57 | 00:00:00 | |
| DL1NUX | 2026-09-01 12:15:28 | 48.92925 | 10.05392 | 66° | 5km/h | 28397m | 5.4m/s | -46°C | 3.1% | 15.9hPa | 2.7V | 08:30:00 | 01:45:52 | 00:00:00 | |
| HSKMA3-T | 2026-09-01 12:15:26 | 48.92924 | 10.05394 | 185° | 7km/h | 28407m | 5.5m/s | -45.9°C | 0% | 15.9hPa | 2.7V | 18:12:15 | 01:45:54 | 00:00:00 | |
| DK7TD | 2026-09-01 12:15:25 | 48.92925 | 10.05393 | 146° | 5km/h | 28402m | 4.6m/s | -45.9°C | 0% | 15.9hPa | 2.7V | 18:12:15 | 01:45:53 | 00:00:00 | |
| DL1XH-west | 2026-09-01 12:15:24 | 48.92925 | 10.05392 | 66° | 5km/h | 28397m | 5.4m/s | 0°C | 0% | 0hPa | 2.7V | 18:12:15 | 01:45:52 | 00:00:00 | |
| HSKMA3-T | 2026-09-01 12:15:18 | 48.92901 | 10.05355 | 90° | 7km/h | 28350m | 6.6m/s | -45.8°C | 0% | 16.1hPa | 2.6V | 18:12:15 | 01:45:44 | 00:00:00 | |
| DK7TD | 2026-09-01 12:15:16 | 48.92902 | 10.05353 | 125° | 4km/h | 28343m | 6.4m/s | -45.7°C | 0% | 16.1hPa | 2.6V | 18:12:15 | 01:45:43 | 00:00:00 | |
| DK7TD | 2026-09-01 12:15:05 | 48.92898 | 10.05322 | 42° | 27km/h | 28286m | 5.4m/s | -45.7°C | 0% | 16.2hPa | 2.6V | 18:12:15 | 01:45:33 | 00:00:00 | |
| DL1NUX | 2026-09-01 12:15:02 | 48.92882 | 10.05291 | 60° | 18km/h | 28263m | 6.1m/s | -45.5°C | 2.9% | 16.3hPa | 2.7V | 08:30:00 | 01:45:29 | 00:00:00 | |
| DB0ND-19 | 2026-09-01 12:14:59 | 48.92878 | 10.05281 | 93° | 2km/h | 28245m | 5.5m/s | -45.7°C | 0.7% | 16.3hPa | 2.6V | 00:00:00 | 00:00:00 | 00:00:00 | |
| DL8DAS-14 | 2026-09-01 12:14:58 | 48.92878 | 10.05280 | 117° | 4km/h | 28239m | 6.6m/s | -45.7°C | 0.7% | 16.4hPa | 2.6V | 00:00:00 | 00:00:00 | 00:00:00 | |
| DJ8HS-15 | 2026-09-01 12:14:57 | 48.92878 | 10.05280 | 118° | 18km/h | 28239m | 6.5m/s | -45.6°C | 3.0% | 16.3hPa | 2.6V | 00:00:00 | 01:45:25 | 00:00:00 | |
| DL1NUX | 2026-09-01 12:14:56 | 48.92861 | 10.05257 | 31° | 33km/h | 28204m | 5.7m/s | -45.8°C | 2.9% | 16.4hPa | 2.6V | 08:30:00 | 01:45:19 | 00:00:00 | |
| HSKMA3-T | 2026-09-01 12:14:55 | 48.92878 | 10.05275 | 65° | 9km/h | 28228m | 4.5m/s | -45.7°C | 0% | 16.4hPa | 2.7V | 18:12:15 | 01:45:23 | 00:00:00 | |
| DK7TD | 2026-09-01 12:14:54 | 48.92877 | 10.05271 | 42° | 15km/h | 28223m | 6.1m/s | -45.8°C | 0% | 16.4hPa | 2.7V | 18:12:15 | 01:45:22 | 00:00:00 | |
| HSKMA3-T | 2026-09-01 12:14:44 | 48.92829 | 10.05215 | 25° | 9km/h | 28165m | 5.3m/s | -46.1°C | 0% | 16.5hPa | 2.7V | 18:12:15 | 01:45:12 | 00:00:00 | |
| DH7VM-15 | 2026-09-01 12:14:43 | 48.92829 | 10.05215 | 26° | 9km/h | 28165m | 5.3m/s | -46.1°C | 0.7% | 16.5hPa | 2.7V | 00:00:00 | 00:00:00 | 00:00:00 | |
| DG9SBQ-11 | 2026-09-01 12:14:42 | 48.92827 | 10.05213 | 37° | 7km/h | 28160m | 5.6m/s | -46.1°C | 0.7% | 16.5hPa | 2.7V | 00:00:00 | 00:00:00 | 00:00:00 | |
| DL6DJ-15 | 2026-09-01 12:14:41 | 48.92823 | 10.05203 | 62° | 15km/h | 28142m | 4.7m/s | -46.2°C | 0.7% | 16.6hPa | 2.7V | 00:00:00 | 00:00:00 | 00:00:00 | |
| DL1NUX | 2026-09-01 12:14:40 | 48.92813 | 10.05190 | 21° | 22km/h | 28125m | 5.8m/s | -46.2°C | 3% | 16.6hPa | 2.7V | 08:30:00 | 01:45:05 | 00:00:00 | |
| DK7TD | 2026-09-01 12:14:34 | 48.92797 | 10.05182 | 25° | 20km/h | 28109m | 6.3m/s | -46.5°C | 0% | 16.7hPa | 2.6V | 18:12:15 | 01:45:02 | 00:00:00 | |
| HSKMA3-T | 2026-09-01 12:14:33 | 48.92793 | 10.05178 | 37° | 18km/h | 28103m | 6.1m/s | -46.4°C | 0% | 16.7hPa | 2.6V | 18:12:15 | 01:45:01 | 00:00:00 | |
| DG9SBQ-11 | 2026-09-01 12:14:33 | 48.92793 | 10.05178 | 38° | 18km/h | 28103m | 6.1m/s | -46.3°C | 0.7% | 16.7hPa | 2.6V | 00:00:00 | 00:00:00 | 00:00:00 | |
| DF3TZ-5 | 2026-09-01 12:14:31 | 48.92787 | 10.05169 | 41° | 15km/h | 28092m | 5.2m/s | -46.4°C | 0.7% | 16.7hPa | 2.6V | 00:00:00 | 00:00:00 | 00:00:00 | |
| DB0NH | 2026-09-01 12:14:30 | 48.92784 | 10.05166 | 34° | 18km/h | 28086m | 6.6m/s | -46.4°C | 3.0% | 16.7hPa | 2.6V | 00:00:00 | 01:44:58 | 00:00:00 | |
| DO3MHA-11 | 2026-09-01 12:14:29 | 48.92780 | 10.05163 | 23° | 16km/h | 28081m | 5.2m/s | -46.5°C | 3.1% | 16.7hPa | 2.6V | 00:00:00 | 01:44:57 | 00:00:00 | |
| DO3MHA-12 | 2026-09-01 12:14:28 | 48.92777 | 10.05161 | 23° | 16km/h | 28075m | 4.7m/s | -46.6°C | 3.0% | 16.7hPa | 2.6V | 00:00:00 | 01:44:56 | 00:00:00 | |
| DK5PH-5 | 2026-09-01 12:14:27 | 48.92773 | 10.05158 | 27° | 18km/h | 28071m | 5.5m/s | -46.5°C | 3.0% | 16.7hPa | 2.6V | 00:00:00 | 01:44:55 | 08:30:00 | |
| DL1NUX | 2026-09-01 12:14:26 | 48.92754 | 10.05133 | 23° | 18km/h | 28036m | 5.7m/s | -46.7°C | 3.1% | 16.9hPa | 2.6V | 08:30:00 | 01:44:49 | 00:00:00 | |
| HSKMA3-T | 2026-09-01 12:14:23 | 48.92761 | 10.05140 | 45° | 18km/h | 28048m | 5m/s | -46.7°C | 0% | 16.9hPa | 2.6V | 18:12:15 | 01:44:51 | 00:00:00 | |
| DG9SBQ-11 | 2026-09-01 12:14:22 | 48.92758 | 10.05136 | 35° | 18km/h | 28043m | 6.7m/s | -46.6°C | 0.7% | 16.8hPa | 2.7V | 00:00:00 | 00:00:00 | 00:00:00 | |
| EDDB2-11 | 2026-09-01 12:14:20 | 48.92750 | 10.05130 | 21° | 16km/h | 28031m | 4.9m/s | -46.8°C | 0.7% | 16.9hPa | 2.7V | 00:00:00 | 00:00:00 | 00:00:00 | |
| DO3MHA-11 | 2026-09-01 12:14:19 | 48.92746 | 10.05127 | 31° | 13km/h | 28025m | 5.9m/s | -46.9°C | 3.0% | 16.8hPa | 2.7V | 00:00:00 | 01:44:47 | 00:00:00 | |
| DO3MHA-12 | 2026-09-01 12:14:18 | 48.92743 | 10.05124 | 48° | 13km/h | 28019m | 6.3m/s | -47.1°C | 3.1% | 16.9hPa | 2.6V | 00:00:00 | 01:44:46 | 00:00:00 | |
| DJ8HS-15 | 2026-09-01 12:14:17 | 48.92741 | 10.05120 | 65° | 18km/h | 28014m | 5.1m/s | -47.1°C | 3.1% | 16.9hPa | 2.6V | 00:00:00 | 01:44:45 | 00:00:00 | |
| IW2NTF | 2026-09-01 12:14:16 | 48.92729 | 10.05095 | 34° | 16km/h | 27973m | 4.5m/s | -47.1°C | 3.2% | 17hPa | 2.6V | 00:00:00 | 01:44:38 | 00:00:00 | |
| HSKMA3-T | 2026-09-01 12:14:13 | 48.92736 | 10.05105 | 43° | 11km/h | 27990m | 5.4m/s | -47.2°C | 0% | 17hPa | 2.7V | 18:12:15 | 01:44:41 | 00:00:00 | |
| DL1NUX | 2026-09-01 12:14:12 | 48.92731 | 10.05099 | 42° | 13km/h | 27979m | 5.9m/s | -47.2°C | 3.2% | 17hPa | 2.6V | 08:30:00 | 01:44:39 | 00:00:00 | |
| DK7TD | 2026-09-01 12:14:03 | 48.92687 | 10.05082 | 32° | 26km/h | 27934m | 5.8m/s | -47.4°C | 0.1% | 17.1hPa | 2.6V | 18:12:15 | 01:44:31 | 00:00:00 | |
| HSKMA3-T | 2026-09-01 12:13:58 | 48.92668 | 10.05057 | 44° | 15km/h | 27905m | 5.9m/s | -47.4°C | 0% | 17.2hPa | 2.6V | 18:12:15 | 01:44:26 | 00:00:00 | |
| DK7TD | 2026-09-01 12:13:52 | 48.92645 | 10.05047 | 352° | 20km/h | 27870m | 4.3m/s | -47.4°C | 0% | 17.3hPa | 2.6V | 18:12:15 | 01:44:20 | 00:00:00 | |
| DL1NUX | 2026-09-01 12:13:52 | 48.92640 | 10.05047 | 358° | 20km/h | 27865m | 6.2m/s | -47.6°C | 3.2% | 17.3hPa | 2.6V | 08:30:00 | 01:44:19 | 00:00:00 | |
| HSKMA3-T | 2026-09-01 12:13:47 | 48.92616 | 10.05036 | 5° | 15km/h | 27831m | 5.5m/s | -47.6°C | 0.1% | 17.4hPa | 2.6V | 18:12:15 | 01:44:13 | 00:00:00 | |
| DL1NUX | 2026-09-01 12:13:46 | 48.92597 | 10.05029 | 22° | 16km/h | 27804m | 5m/s | -47.8°C | 3.3% | 17.5hPa | 2.6V | 08:30:00 | 01:44:08 | 00:00:00 | |
| DK7TD | 2026-09-01 12:13:42 | 48.92604 | 10.05034 | 20° | 15km/h | 27815m | 6.7m/s | -47.9°C | 0.1% | 17.4hPa | 2.7V | 18:12:15 | 01:44:10 | 00:00:00 | |
| DG9SBQ-11 | 2026-09-01 12:13:41 | 48.92604 | 10.05034 | 21° | 15km/h | 27815m | 6.7m/s | -47.9°C | 0.8% | 17.4hPa | 2.7V | 00:00:00 | 00:00:00 | 00:00:00 | |
| DL6DJ-15 | 2026-09-01 12:13:39 | 48.92589 | 10.05027 | 356° | 18km/h | 27792m | 6.1m/s | -47.8°C | 0.8% | 17.5hPa | 2.7V | 00:00:00 | 00:00:00 | 00:00:00 | |
| DO3MHA-12 | 2026-09-01 12:13:38 | 48.92588 | 10.05027 | 357° | 15km/h | 27792m | 6.0m/s | -47.7°C | 3.3% | 17.4hPa | 2.7V | 00:00:00 | 01:44:06 | 00:00:00 | |
| DJ8HS-15 | 2026-09-01 12:13:37 | 48.92584 | 10.05027 | 349° | 9km/h | 27786m | 5.0m/s | -47.7°C | 3.3% | 17.5hPa | 2.7V | 00:00:00 | 01:44:05 | 00:00:00 | |
| DG9SBQ-11 | 2026-09-01 12:13:36 | 48.92580 | 10.05029 | 348° | 16km/h | 27781m | 5.4m/s | -47.6°C | 0.8% | 17.5hPa | 2.7V | 00:00:00 | 00:00:00 | 00:00:00 | |
| DL1NUX | 2026-09-01 12:13:32 | 48.92561 | 10.05029 | 357° | 15km/h | 27746m | 5.2m/s | -47.9°C | 3.3% | 17.6hPa | 2.7V | 08:30:00 | 01:43:58 | 00:00:00 | |
| DK7TD | 2026-09-01 12:13:32 | 48.92564 | 10.05029 | 0° | 13km/h | 27752m | 6.1m/s | -47.8°C | 0.1% | 17.6hPa | 2.7V | 18:12:15 | 01:43:59 | 00:00:00 | |
| S52SK | 2026-09-01 12:13:32 | 48.92567 | 10.05029 | 8° | 11km/h | 27758m | 6.2m/s | 0°C | 0% | 0hPa | 2.6V | 00:00:00 | 00:00:00 | 00:00:00 | |
| DB0NH | 2026-09-01 12:13:30 | 48.92560 | 10.05029 | 358° | 7km/h | 27747m | 5.2m/s | -47.9°C | 3.3% | 17.6hPa | 2.6V | 00:00:00 | 01:43:58 | 00:00:00 | |
| IW2NTF | 2026-09-01 12:13:29 | 48.92552 | 10.05029 | 16° | 7km/h | 27729m | 6m/s | -47.8°C | 3.2% | 17.7hPa | 2.6V | 00:00:00 | 01:43:55 | 00:00:00 | |
| PG1ADW-2 | 2026-09-01 12:13:29 | 48.92557 | 10.05029 | 359° | 5km/h | 27742m | 4.9m/s | -47.8°C | 3.3% | 17.6hPa | 2.7V | 00:00:00 | 01:43:57 | 00:00:00 | |
| DK5PH-5 | 2026-09-01 12:13:28 | 48.92552 | 10.05029 | 17° | 7km/h | 27729m | 5.9m/s | -47.7°C | 3.2% | 17.6hPa | 2.7V | 00:00:00 | 01:43:55 | 00:00:00 | |
| DL1NUX | 2026-09-01 12:13:25 | 48.92544 | 10.05036 | 20° | 4km/h | 27691m | 6.1m/s | -47.9°C | 3.3% | 17.7hPa | 2.7V | 08:30:00 | 01:43:48 | 00:00:00 | |
| HSKMA3-T | 2026-09-01 12:13:22 | 48.92545 | 10.05035 | 329° | 5km/h | 27697m | 5.3m/s | -47.9°C | 0.1% | 17.8hPa | 2.6V | 18:12:15 | 01:43:49 | 00:00:00 | |
| DK7TD | 2026-09-01 12:13:20 | 48.92544 | 10.05036 | 21° | 4km/h | 27691m | 6.1m/s | -47.9°C | 0.1% | 17.8hPa | 2.7V | 18:12:15 | 01:43:48 | 00:00:00 | |
| IW2NTF | 2026-09-01 12:13:20 | 48.92543 | 10.05032 | 299° | 5km/h | 27662m | 5.6m/s | -47.8°C | 3.3% | 17.9hPa | 2.6V | 00:00:00 | 01:43:43 | 00:00:00 | |
| DO3MHA-11 | 2026-09-01 12:13:19 | 48.92543 | 10.05035 | 81° | 5km/h | 27686m | 6.0m/s | -47.9°C | 3.3% | 17.8hPa | 2.7V | 00:00:00 | 01:43:47 | 00:00:00 | |
| DO3MHA-12 | 2026-09-01 12:13:18 | 48.92543 | 10.05033 | 91° | 7km/h | 27680m | 4.9m/s | -47.9°C | 3.4% | 17.8hPa | 2.6V | 00:00:00 | 01:43:46 | 00:00:00 | |
| DJ8HS-15 | 2026-09-01 12:13:17 | 48.92543 | 10.05031 | 81° | 7km/h | 27675m | 5.4m/s | -47.8°C | 3.3% | 17.8hPa | 2.6V | 00:00:00 | 01:43:45 | 00:00:00 | |
| SONCRA | 2026-09-01 12:13:16 | 48.92543 | 10.05031 | 343° | 0km/h | 27669m | 6.6m/s | -47.8°C | 0.8% | 17.8hPa | 2.6V | 00:00:00 | 00:00:00 | 00:00:00 | |
| DG9SBQ-11 | 2026-09-01 12:13:13 | 48.92541 | 10.05036 | 287° | 7km/h | 27651m | 6.6m/s | -47.8°C | 0.8% | 17.9hPa | 2.6V | 00:00:00 | 00:00:00 | 00:00:00 | |
| DL1NUX | 2026-09-01 12:13:12 | 48.92539 | 10.05044 | 305° | 9km/h | 27634m | 5.8m/s | -48°C | 3.3% | 17.9hPa | 2.6V | 08:30:00 | 01:43:38 | 00:00:00 | |
| DK7TD | 2026-09-01 12:13:11 | 48.92539 | 10.05044 | 306° | 9km/h | 27634m | 5.8m/s | -48°C | 0.2% | 17.9hPa | 2.6V | 18:12:15 | 01:43:38 | 00:00:00 | |
| DO3MHA-11 | 2026-09-01 12:13:09 | 48.92538 | 10.05047 | 313° | 11km/h | 27628m | 6.6m/s | -47.9°C | 3.4% | 17.9hPa | 2.7V | 00:00:00 | 01:43:37 | 00:00:00 | |
| DG9SBQ-11 | 2026-09-01 12:13:08 | 48.92535 | 10.05050 | 322° | 15km/h | 27622m | 5.3m/s | -47.8°C | 0.8% | 18.0hPa | 2.7V | 00:00:00 | 00:00:00 | 00:00:00 | |
| DL6DJ-15 | 2026-09-01 12:13:07 | 48.92532 | 10.05053 | 332° | 13km/h | 27617m | 5.3m/s | -47.8°C | 0.8% | 18.0hPa | 2.7V | 00:00:00 | 00:00:00 | 00:00:00 | |
| DL1NUX | 2026-09-01 12:13:06 | 48.92518 | 10.05062 | 287° | 9km/h | 27576m | 5.3m/s | -47.8°C | 3.3% | 18.1hPa | 2.7V | 08:30:00 | 01:43:28 | 00:00:00 | |
| HSKMA3-T | 2026-09-01 12:13:04 | 48.92523 | 10.05055 | 347° | 7km/h | 27593m | 6.8m/s | -47.9°C | 0.2% | 18.1hPa | 2.6V | 18:12:15 | 01:43:31 | 00:00:00 | |
| DK7TD | 2026-09-01 12:13:00 | 48.92518 | 10.05062 | 287° | 9km/h | 27576m | 5.4m/s | -47.8°C | 0.1% | 18.1hPa | 2.7V | 18:12:15 | 01:43:28 | 00:00:00 | |
| IW2NTF | 2026-09-01 12:13:00 | 48.92520 | 10.05069 | 204° | 4km/h | 27553m | 4.3m/s | -47.7°C | 3.3% | 18.1hPa | 2.7V | 00:00:00 | 01:43:24 | 00:00:00 | |
| HSKMA3-T | 2026-09-01 12:12:52 | 48.92518 | 10.05075 | 328° | 9km/h | 27530m | 5.6m/s | -47.8°C | 0.1% | 18.2hPa | 2.6V | 18:12:15 | 01:43:20 | 00:00:00 | |
| DB0UT-7 | 2026-09-01 12:12:52 | 48.92518 | 10.05075 | 328° | 9km/h | 27530m | 5.6m/s | -47.8°C | 3.3% | 18.1hPa | 2.7V | 00:00:00 | 01:43:20 | 00:00:00 | |
| DL1NUX | 2026-09-01 12:12:51 | 48.92513 | 10.05076 | 7° | 2km/h | 27508m | 6.1m/s | -47.7°C | 3.2% | 18.3hPa | 2.7V | 08:30:00 | 01:43:16 | 00:00:00 | |
| DK7TD | 2026-09-01 12:12:49 | 48.92513 | 10.05076 | 31° | 4km/h | 27513m | 4.2m/s | -47.7°C | 0.1% | 18.3hPa | 2.7V | 18:12:15 | 01:43:17 | 00:00:00 | |
| EDDB2-11 | 2026-09-01 12:12:47 | 48.92513 | 10.05078 | 223° | 4km/h | 27497m | 5.2m/s | -47.8°C | 0.8% | 18.3hPa | 2.6V | 00:00:00 | 00:00:00 | 00:00:00 | |
| SONCRA | 2026-09-01 12:12:46 | 48.92515 | 10.05079 | 195° | 7km/h | 27491m | 5.5m/s | -47.7°C | 0.8% | 18.3hPa | 2.6V | 00:00:00 | 00:00:00 | 00:00:00 | |
| DO9HM | 2026-09-01 12:12:45 | 48.92514 | 10.05079 | 197° | 7km/h | 27491m | 5.5m/s | -47.7°C | 0.8% | 18.3hPa | 2.6V | 00:00:00 | 00:00:00 | 00:00:00 | |
| IW2NTF | 2026-09-01 12:12:43 | 48.92533 | 10.05079 | 217° | 9km/h | 27456m | 5.4m/s | -47.5°C | 3.3% | 18.4hPa | 2.6V | 00:00:00 | 01:43:07 | 00:00:00 | |
| HSKMA3-T | 2026-09-01 12:12:41 | 48.92528 | 10.05077 | 177° | 15km/h | 27468m | 6.1m/s | -47.7°C | 0.2% | 18.4hPa | 2.6V | 18:12:15 | 01:43:09 | 00:00:00 | |
| DK7TD | 2026-09-01 12:12:39 | 48.92533 | 10.05079 | 218° | 9km/h | 27457m | 5.4m/s | -47.5°C | 0.1% | 18.4hPa | 2.6V | 18:12:15 | 01:43:07 | 00:00:00 | |
| DL1NUX | 2026-09-01 12:12:39 | 48.92535 | 10.05082 | 237° | 2km/h | 27446m | 6m/s | -47.5°C | 3.3% | 18.4hPa | 2.7V | 08:30:00 | 01:43:05 | 00:00:00 | |
| DO3MHA-11 | 2026-09-01 12:12:39 | 48.92533 | 10.05079 | 218° | 5km/h | 27457m | 5.4m/s | -47.5°C | 3.3% | 18.4hPa | 2.7V | 00:00:00 | 01:43:07 | 00:00:00 | |
| DO3MHA-12 | 2026-09-01 12:12:38 | 48.92534 | 10.05081 | 235° | 7km/h | 27452m | 4.9m/s | -47.5°C | 3.3% | 18.4hPa | 2.7V | 00:00:00 | 01:43:06 | 00:00:00 | |
| DJ8HS-15 | 2026-09-01 12:12:37 | 48.92535 | 10.05082 | 238° | 11km/h | 27446m | 6.0m/s | -47.5°C | 3.3% | 18.4hPa | 2.7V | 00:00:00 | 01:43:05 | 00:00:00 | |
| DL6DJ-15 | 2026-09-01 12:12:36 | 48.92535 | 10.05082 | 82° | 2km/h | 27440m | 6.6m/s | -47.6°C | 0.7% | 18.5hPa | 2.6V | 00:00:00 | 00:00:00 | 00:00:00 | |
| IW2NTF | 2026-09-01 12:12:35 | 48.92541 | 10.05067 | 152° | 16km/h | 27398m | 5.7m/s | -47.3°C | 3.3% | 18.6hPa | 2.6V | 00:00:00 | 01:42:57 | 00:00:00 | |
| DG9SBQ-11 | 2026-09-01 12:12:35 | 48.92535 | 10.05081 | 77° | 5km/h | 27434m | 5.7m/s | -47.5°C | 0.8% | 18.5hPa | 2.7V | 00:00:00 | 00:00:00 | 00:00:00 | |
| DL8DAS-15 | 2026-09-01 12:12:33 | 48.92534 | 10.05079 | 76° | 5km/h | 27428m | 5.9m/s | -47.4°C | 0.8% | 18.5hPa | 2.7V | 00:00:00 | 00:00:00 | 00:00:00 | |
| DL1NUX | 2026-09-01 12:12:31 | 48.92556 | 10.05065 | 199° | 11km/h | 27376m | 4.6m/s | -47.3°C | 3.3% | 18.6hPa | 2.7V | 08:30:00 | 01:42:53 | 00:00:00 | |
| DK7TD | 2026-09-01 12:12:28 | 48.92545 | 10.05065 | 164° | 18km/h | 27393m | 5m/s | -47.3°C | 0.1% | 18.6hPa | 2.6V | 18:12:15 | 01:42:56 | 00:00:00 | |
| HSKMA3-T | 2026-09-01 12:12:22 | 48.92560 | 10.05063 | 82° | 9km/h | 27359m | 6.2m/s | -47.2°C | 0.1% | 18.7hPa | 2.6V | 18:12:15 | 01:42:50 | 00:00:00 | |
| DB0UT-7 | 2026-09-01 12:12:22 | 48.92560 | 10.05063 | 82° | 13km/h | 27359m | 6.2m/s | -47.2°C | 3.2% | 18.6hPa | 2.6V | 00:00:00 | 00:00:00 | 08:30:00 | |
| IW2NTF | 2026-09-01 12:12:21 | 48.92556 | 10.05049 | 66° | 13km/h | 27341m | 5.9m/s | -47.1°C | 3.1% | 18.8hPa | 2.7V | 00:00:00 | 01:42:47 | 00:00:00 | |
| DK7TD | 2026-09-01 12:12:18 | 48.92555 | 10.05044 | 81° | 11km/h | 27336m | 5m/s | -47.1°C | 0% | 18.8hPa | 2.7V | 18:12:15 | 01:42:46 | 00:00:00 | |
| DG9SBQ-11 | 2026-09-01 12:12:18 | 48.92555 | 10.05044 | 82° | 11km/h | 27336m | 5.0m/s | -47.1°C | 0.7% | 18.8hPa | 2.6V | 00:00:00 | 00:00:00 | 00:00:00 | |
| DJ8HS-15 | 2026-09-01 12:12:17 | 48.92555 | 10.05040 | 107° | 13km/h | 27331m | 5.1m/s | -47.1°C | 3.2% | 18.8hPa | 2.6V | 00:00:00 | 01:42:45 | 00:00:00 | |
| EDDB2-11 | 2026-09-01 12:12:16 | 48.92559 | 10.05030 | 130° | 16km/h | 27319m | 5.8m/s | -47.1°C | 0.7% | 18.8hPa | 2.6V | 00:00:00 | 00:00:00 | 00:00:00 | |
| IW2NTF | 2026-09-01 12:12:15 | 48.92572 | 10.05016 | 109° | 4km/h | 27286m | 6.1m/s | -47.2°C | 3.2% | 18.9hPa | 2.6V | 00:00:00 | 01:42:37 | 00:00:00 | |
| HSKMA3-T | 2026-09-01 12:12:11 | 48.92571 | 10.05018 | 167° | 7km/h | 27296m | 5m/s | -47.1°C | 0% | 18.9hPa | 2.6V | 18:12:15 | 01:42:39 | 00:00:00 | |
| DL9SK-14 | 2026-09-01 12:12:11 | 48.92572 | 10.05017 | 149° | 2km/h | 27291m | 4.6m/s | -47.2°C | 0.8% | 18.9hPa | 2.6V | 00:00:00 | 00:00:00 | 00:00:00 | |
| DL1NUX | 2026-09-01 12:12:09 | 48.92572 | 10.04993 | 87° | 11km/h | 27252m | 5m/s | -47.2°C | 3.2% | 19hPa | 2.6V | 08:30:00 | 01:42:31 | 00:00:00 | |
| DK7TD | 2026-09-01 12:12:07 | 48.92573 | 10.05010 | 91° | 11km/h | 27274m | 5.1m/s | -47°C | 0% | 19hPa | 2.7V | 18:12:15 | 01:42:35 | 00:00:00 | |
| DG9SBQ-11 | 2026-09-01 12:12:07 | 48.92573 | 10.05010 | 92° | 11km/h | 27274m | 5.1m/s | -47.0°C | 0.7% | 19.0hPa | 2.6V | 00:00:00 | 00:00:00 | 00:00:00 | |
| DO9HM | 2026-09-01 12:12:05 | 48.92572 | 10.05001 | 80° | 11km/h | 27263m | 6.8m/s | -47.1°C | 0.8% | 19.0hPa | 2.6V | 00:00:00 | 00:00:00 | 00:00:00 | |
| IW2NTF | 2026-09-01 12:12:04 | 48.92577 | 10.04972 | 124° | 18km/h | 27229m | 4.7m/s | -47.1°C | 3.1% | 19.1hPa | 2.6V | 00:00:00 | 01:42:27 | 00:00:00 | |
| DK7TD | 2026-09-01 12:11:58 | 48.92581 | 10.04964 | 138° | 9km/h | 27217m | 5.8m/s | -47.1°C | 0% | 19.1hPa | 2.6V | 18:12:15 | 01:42:25 | 00:00:00 | |
| DF3TZ-5 | 2026-09-01 12:11:56 | 48.92584 | 10.04960 | 108° | 5km/h | 27207m | 4.9m/s | -47.1°C | 0.7% | 19.1hPa | 2.6V | 00:00:00 | 00:00:00 | 00:00:00 | |
| DB0ND-19 | 2026-09-01 12:11:52 | 48.92581 | 10.04939 | 65° | 18km/h | 27185m | 5.7m/s | -47.2°C | 0.7% | 19.2hPa | 2.6V | 00:00:00 | 00:00:00 | 00:00:00 | |
| IW2NTF | 2026-09-01 12:11:51 | 48.92566 | 10.04899 | 69° | 20km/h | 27150m | 4.3m/s | -47.5°C | 3.2% | 19.3hPa | 2.6V | 00:00:00 | 01:42:13 | 00:00:00 | |
| HSKMA3-T | 2026-09-01 12:11:47 | 48.92566 | 10.04899 | 70° | 20km/h | 27150m | 4.3m/s | -47.5°C | 0% | 19.3hPa | 2.6V | 18:12:15 | 01:42:13 | 00:00:00 | |
| DK7TD | 2026-09-01 12:11:46 | 48.92568 | 10.04906 | 68° | 22km/h | 27155m | 5.6m/s | -47.4°C | 0.1% | 19.3hPa | 2.6V | 18:12:15 | 01:42:14 | 00:00:00 | |
| EDDB2-11 | 2026-09-01 12:11:45 | 48.92565 | 10.04893 | 66° | 15km/h | 27145m | 5.0m/s | -47.5°C | 0.7% | 19.4hPa | 2.6V | 00:00:00 | 00:00:00 | 00:00:00 | |
| HSKMA3-T | 2026-09-01 12:11:36 | 48.92549 | 10.04862 | 60° | 18km/h | 27097m | 5.9m/s | -47.7°C | 0.1% | 19.5hPa | 2.6V | 18:12:15 | 01:42:03 | 00:00:00 | |
| DK7TD | 2026-09-01 12:11:36 | 48.92551 | 10.04869 | 66° | 18km/h | 27103m | 4.6m/s | -47.7°C | 0.2% | 19.5hPa | 2.7V | 18:12:15 | 01:42:04 | 00:00:00 | |
| IW2NTF | 2026-09-01 12:11:35 | 48.92530 | 10.04836 | 41° | 18km/h | 27064m | 5.1m/s | -47.6°C | 3.2% | 19.6hPa | 2.6V | 00:00:00 | 01:41:57 | 00:00:00 | |
| HSKMA3-T | 2026-09-01 12:11:26 | 48.92520 | 10.04826 | 20° | 13km/h | 27048m | 6.6m/s | -47.7°C | 0.1% | 19.6hPa | 2.7V | 18:12:15 | 01:41:54 | 00:00:00 | |
| DK7TD | 2026-09-01 12:11:26 | 48.92517 | 10.04825 | 7° | 13km/h | 27042m | 5.2m/s | -47.6°C | 0.1% | 19.6hPa | 2.7V | 18:12:15 | 01:41:53 | 00:00:00 | |
| DO9HM | 2026-09-01 12:11:25 | 48.92517 | 10.04825 | 8° | 13km/h | 27042m | 5.2m/s | -47.6°C | 0.8% | 19.6hPa | 2.6V | 00:00:00 | 00:00:00 | 00:00:00 | |
| IW2NTF | 2026-09-01 12:11:22 | 48.92481 | 10.04805 | 16° | 22km/h | 26996m | 5.5m/s | -47.4°C | 3.3% | 19.8hPa | 2.6V | 00:00:00 | 01:41:45 | 00:00:00 | |
| HSKMA3-T | 2026-09-01 12:11:16 | 48.92466 | 10.04797 | 16° | 20km/h | 26980m | 4.5m/s | -47.4°C | 0% | 19.8hPa | 2.7V | 18:12:15 | 01:41:42 | 00:00:00 | |
| DK7TD | 2026-09-01 12:11:16 | 48.92471 | 10.04799 | 23° | 22km/h | 26985m | 5.1m/s | -47.4°C | 0.1% | 19.8hPa | 2.6V | 18:12:15 | 01:41:43 | 00:00:00 | |
| EDDB2-11 | 2026-09-01 12:11:15 | 48.92461 | 10.04795 | 7° | 18km/h | 26974m | 6.5m/s | -47.5°C | 0.7% | 19.8hPa | 2.6V | 00:00:00 | 00:00:00 | 00:00:00 | |
| SONCRA | 2026-09-01 12:11:12 | 48.92456 | 10.04795 | 355° | 18km/h | 26968m | 5.9m/s | -47.5°C | 0.8% | 19.9hPa | 2.6V | 00:00:00 | 00:00:00 | 00:00:00 | |
| DG9SBQ-11 | 2026-09-01 12:11:11 | 48.92452 | 10.04796 | 354° | 18km/h | 26963m | 5.0m/s | -47.6°C | 0.7% | 19.9hPa | 2.6V | 00:00:00 | 00:00:00 | 00:00:00 | |
| OE5DXL-15 | 2026-09-01 12:11:09 | 48.92442 | 10.04796 | 8° | 20km/h | 26951m | 5.8m/s | -47.6°C | 3.2% | 19.9hPa | 2.6V | 00:00:00 | 00:00:00 | 08:30:00 | |
| IW2NTF | 2026-09-01 12:11:08 | 48.92422 | 10.04793 | 357° | 20km/h | 26928m | 5.1m/s | -47.5°C | 3.2% | 20hPa | 2.6V | 00:00:00 | 01:41:33 | 00:00:00 | |
| HSKMA3-T | 2026-09-01 12:11:05 | 48.92422 | 10.04793 | 357° | 20km/h | 26928m | 5.1m/s | -47.5°C | 0.1% | 20hPa | 2.6V | 18:12:15 | 01:41:33 | 00:00:00 | |
| DK7TD | 2026-09-01 12:11:04 | 48.92417 | 10.04793 | 2° | 20km/h | 26923m | 5.1m/s | -47.6°C | 0% | 20hPa | 2.6V | 18:12:15 | 01:41:32 | 00:00:00 | |
| HSKMA3-T | 2026-09-01 12:10:55 | 48.92370 | 10.04801 | 343° | 15km/h | 26868m | 4.7m/s | -48.2°C | 0.1% | 20.2hPa | 2.7V | 18:12:15 | 01:41:22 | 00:00:00 | |
| DK7TD | 2026-09-01 12:10:53 | 48.92366 | 10.04803 | 335° | 16km/h | 26863m | 5.9m/s | -48.2°C | 0.1% | 20.2hPa | 2.7V | 18:12:15 | 01:41:21 | 00:00:00 | |
| DL1NUX | 2026-09-01 12:10:53 | 48.92354 | 10.04815 | 329° | 20km/h | 26846m | 5m/s | -48.2°C | 3.4% | 20.2hPa | 2.7V | 08:30:00 | 01:41:18 | 00:00:00 | |
| DB0ND-19 | 2026-09-01 12:10:50 | 48.92350 | 10.04818 | 336° | 16km/h | 26841m | 6.5m/s | -48.3°C | 0.8% | 20.3hPa | 2.6V | 00:00:00 | 00:00:00 | 00:00:00 | |
| DL8DAS-14 | 2026-09-01 12:10:49 | 48.92350 | 10.04818 | 336° | 16km/h | 26841m | 6.5m/s | -48.3°C | 0.8% | 20.3hPa | 2.6V | 00:00:00 | 00:00:00 | 00:00:00 | |
| SONDE2-11 | 2026-09-01 12:10:46 | 48.92330 | 10.04825 | 348° | 26km/h | 26818m | 5.6m/s | -48.3°C | 0.8% | 20.3hPa | 2.6V | 00:00:00 | 00:00:00 | 00:00:00 | |
| HSKMA3-T | 2026-09-01 12:10:44 | 48.92317 | 10.04828 | 351° | 26km/h | 26808m | 6m/s | -48.5°C | 0.2% | 20.4hPa | 2.6V | 18:12:15 | 01:41:11 | 00:00:00 | |
| DK7TD | 2026-09-01 12:10:43 | 48.92311 | 10.04829 | 356° | 24km/h | 26802m | 6.1m/s | -48.4°C | 0.1% | 20.4hPa | 2.6V | 18:12:15 | 01:41:10 | 00:00:00 | |
| DL1ZP-14 | 2026-09-01 12:10:42 | 48.92300 | 10.04831 | 352° | 18km/h | 26791m | 4.9m/s | -48.4°C | 0.8% | 20.4hPa | 2.7V | 00:00:00 | 00:00:00 | 00:00:00 | |
| DL1NUX | 2026-09-01 12:10:39 | 48.92273 | 10.04842 | 0° | 16km/h | 26757m | 4.9m/s | -48.6°C | 3.5% | 20.5hPa | 2.7V | 08:30:00 | 01:41:02 | 00:00:00 | |
| HSKMA3-T | 2026-09-01 12:10:34 | 48.92269 | 10.04842 | 1° | 18km/h | 26752m | 5.6m/s | -48.5°C | 0.2% | 20.5hPa | 2.7V | 18:12:15 | 01:41:01 | 00:00:00 | |
| DK7TD | 2026-09-01 12:10:33 | 48.92264 | 10.04842 | 359° | 22km/h | 26747m | 6m/s | -48.5°C | 0.2% | 20.5hPa | 2.6V | 18:12:15 | 01:41:00 | 00:00:00 | |
| DN1GJH-1 | 2026-09-01 12:10:32 | 48.92264 | 10.04842 | 360° | 22km/h | 26747m | 6.0m/s | -48.5°C | 0.8% | 20.5hPa | 2.7V | 00:00:00 | 00:00:00 | 00:00:00 | |
| DB0NH | 2026-09-01 12:10:30 | 48.92251 | 10.04842 | 4° | 20km/h | 26736m | 4.6m/s | -48.5°C | 3.5% | 20.5hPa | 2.7V | 00:00:00 | 01:40:58 | 00:00:00 | |
| PG1ADW-2 | 2026-09-01 12:10:29 | 48.92245 | 10.04840 | 9° | 20km/h | 26731m | 6.3m/s | -48.4°C | 3.5% | 20.6hPa | 2.7V | 00:00:00 | 00:00:00 | 00:00:00 | |
| DO3MHA-12 | 2026-09-01 12:10:28 | 48.92239 | 10.04839 | 16° | 22km/h | 26725m | 5.7m/s | -48.3°C | 3.4% | 20.6hPa | 2.7V | 00:00:00 | 01:40:56 | 00:00:00 | |
| SO1NDE-10 | 2026-09-01 12:10:27 | 48.92233 | 10.04836 | 15° | 22km/h | 26720m | 4.5m/s | -48.4°C | 3.5% | 20.6hPa | 2.7V | 00:00:00 | 01:40:55 | 00:00:00 | |
| DL1NUX | 2026-09-01 12:10:26 | 48.92211 | 10.04835 | 359° | 22km/h | 26697m | 6.4m/s | -48.3°C | 3.4% | 20.7hPa | 2.7V | 08:30:00 | 01:40:51 | 00:00:00 | |
| HSKMA3-T | 2026-09-01 12:10:24 | 48.92211 | 10.04835 | 360° | 22km/h | 26697m | 6.4m/s | -48.3°C | 0.2% | 20.7hPa | 2.7V | 18:12:15 | 01:40:51 | 00:00:00 | |
| DK7TD | 2026-09-01 12:10:22 | 48.92206 | 10.04835 | 3° | 20km/h | 26691m | 5.6m/s | -48.3°C | 0.2% | 20.7hPa | 2.7V | 18:12:15 | 01:40:50 | 00:00:00 | |
| HSKMA3-T | 2026-09-01 12:10:12 | 48.92156 | 10.04844 | 351° | 16km/h | 26637m | 6m/s | -48.2°C | 0.1% | 20.9hPa | 2.6V | 18:12:15 | 01:40:40 | 00:00:00 | |
| DK7TD | 2026-09-01 12:10:11 | 48.92151 | 10.04845 | 350° | 18km/h | 26632m | 5.1m/s | -48.1°C | 0.1% | 20.9hPa | 2.7V | 18:12:15 | 01:40:39 | 00:00:00 | |
| DG9SBQ-11 | 2026-09-01 12:10:10 | 48.92147 | 10.04846 | 357° | 18km/h | 26626m | 5.7m/s | -48.1°C | 0.8% | 20.9hPa | 2.7V | 00:00:00 | 00:00:00 | 00:00:00 | |
| OE5DXL-15 | 2026-09-01 12:10:09 | 48.92142 | 10.04847 | 3° | 15km/h | 26621m | 5.9m/s | -48.1°C | 3.3% | 20.9hPa | 2.7V | 00:00:00 | 00:00:00 | 00:00:00 | |
| DO3MHA-11 | 2026-09-01 12:10:08 | 48.92138 | 10.04846 | 2° | 15km/h | 26615m | 4.6m/s | -48.1°C | 3.3% | 20.9hPa | 2.7V | 00:00:00 | 01:40:36 | 00:00:00 | |
| DL9SK-14 | 2026-09-01 12:10:07 | 48.92129 | 10.04848 | 344° | 18km/h | 26604m | 6.3m/s | -48.1°C | 0.8% | 21.0hPa | 2.7V | 00:00:00 | 00:00:00 | 00:00:00 | |
| IW2NTF | 2026-09-01 12:10:04 | 48.92105 | 10.04857 | 7° | 11km/h | 26568m | 5.6m/s | -48.3°C | 3.3% | 21.1hPa | 2.7V | 00:00:00 | 01:40:27 | 00:00:00 | |
| HSKMA3-T | 2026-09-01 12:10:02 | 48.92113 | 10.04859 | 347° | 11km/h | 26584m | 5.8m/s | -48.2°C | 0.1% | 21.1hPa | 2.6V | 18:12:15 | 01:40:30 | 00:00:00 | |
| DK7TD | 2026-09-01 12:10:01 | 48.92110 | 10.04859 | 6° | 9km/h | 26579m | 5.2m/s | -48.2°C | 0.2% | 21.1hPa | 2.6V | 18:12:15 | 01:40:29 | 00:00:00 | |
| HSKMA3-T | 2026-09-01 12:09:52 | 48.92083 | 10.04875 | 310° | 15km/h | 26529m | 5.8m/s | -48.4°C | 0.1% | 21.2hPa | 2.6V | 18:12:15 | 01:40:20 | 00:00:00 | |
| DK7TD | 2026-09-01 12:09:50 | 48.92077 | 10.04886 | 305° | 18km/h | 26518m | 4.7m/s | -48.4°C | 0.2% | 21.3hPa | 2.7V | 18:12:15 | 01:40:18 | 00:00:00 | |
| DB0ND-19 | 2026-09-01 12:09:48 | 48.92069 | 10.04899 | 333° | 11km/h | 26502m | 5.7m/s | -48.4°C | 0.8% | 21.3hPa | 2.6V | 00:00:00 | 00:00:00 | 00:00:00 | |
| IW2NTF | 2026-09-01 12:09:47 | 48.92064 | 10.04902 | 349° | 13km/h | 26491m | 6.2m/s | -48.5°C | 3.4% | 21.4hPa | 2.6V | 00:00:00 | 01:40:13 | 00:00:00 | |
| DL8DAS-14 | 2026-09-01 12:09:47 | 48.92069 | 10.04899 | 333° | 11km/h | 26502m | 5.7m/s | -48.4°C | 0.8% | 21.3hPa | 2.6V | 00:00:00 | 00:00:00 | 00:00:00 | |
| HSKMA3-T | 2026-09-01 12:09:41 | 48.92050 | 10.04908 | 343° | 11km/h | 26469m | 6.6m/s | -48.6°C | 0.2% | 21.5hPa | 2.6V | 18:12:15 | 01:40:09 | 00:00:00 | |
| DK7TD | 2026-09-01 12:09:40 | 48.92047 | 10.04910 | 343° | 9km/h | 26463m | 5.5m/s | -48.7°C | 0.2% | 21.5hPa | 2.6V | 18:12:15 | 01:40:08 | 00:00:00 | |
| DK7TD | 2026-09-01 12:09:30 | 48.92022 | 10.04933 | 340° | 16km/h | 26408m | 5.9m/s | -48.8°C | 0.2% | 21.6hPa | 2.7V | 18:12:15 | 01:39:58 | 00:00:00 | |
| HSKMA3-T | 2026-09-01 12:09:19 | 48.91982 | 10.04944 | 359° | 15km/h | 26348m | 4.9m/s | -48.7°C | 0.2% | 21.9hPa | 2.7V | 18:12:15 | 01:39:47 | 00:00:00 | |
| DK7TD | 2026-09-01 12:09:09 | 48.91953 | 10.04956 | 357° | 13km/h | 26291m | 5.2m/s | -48.7°C | 0.2% | 22hPa | 2.6V | 18:12:15 | 01:39:37 | 00:00:00 | |
| HSKMA3-T | 2026-09-01 12:09:08 | 48.91950 | 10.04956 | 7° | 13km/h | 26285m | 6.2m/s | -48.8°C | 0.2% | 22.1hPa | 2.7V | 18:12:15 | 01:39:36 | 00:00:00 | |
| IW2NTF | 2026-09-01 12:09:08 | 48.91931 | 10.04951 | 356° | 20km/h | 26256m | 5.5m/s | -48.8°C | 3.4% | 22.2hPa | 2.6V | 00:00:00 | 01:39:31 | 00:00:00 | |
| DK7TD | 2026-09-01 12:08:59 | 48.91915 | 10.04952 | 4° | 11km/h | 26234m | 5.1m/s | -48.9°C | 0.2% | 22.3hPa | 2.6V | 18:12:15 | 01:39:27 | 00:00:00 | |
| IW2NTF | 2026-09-01 12:08:58 | 48.91896 | 10.04955 | 9° | 16km/h | 26199m | 5.5m/s | -48.9°C | 3.4% | 22.4hPa | 2.7V | 00:00:00 | 01:39:21 | 00:00:00 | |
| HSKMA3-T | 2026-09-01 12:08:57 | 48.91910 | 10.04952 | 347° | 11km/h | 26223m | 6.7m/s | -48.8°C | 0.2% | 22.3hPa | 2.7V | 18:12:15 | 01:39:25 | 00:00:00 | |
| DK7TD | 2026-09-01 12:08:49 | 48.91864 | 10.04950 | 2° | 29km/h | 26171m | 5m/s | -49°C | 0.2% | 22.4hPa | 2.6V | 18:12:15 | 01:39:16 | 00:00:00 | |
| HSKMA3-T | 2026-09-01 12:08:46 | 48.91851 | 10.04949 | 2° | 22km/h | 26160m | 5.2m/s | -49.2°C | 0.1% | 22.5hPa | 2.6V | 18:12:15 | 01:39:14 | 00:00:00 | |
| DL8DAS-14 | 2026-09-01 12:08:45 | 48.91842 | 10.04950 | 341° | 16km/h | 26150m | 6.5m/s | -49.3°C | 0.8% | 22.5hPa | 2.7V | 00:00:00 | 00:00:00 | 00:00:00 | |
| DK7TD | 2026-09-01 12:08:39 | 48.91819 | 10.04977 | 329° | 22km/h | 26116m | 4.7m/s | -49.5°C | 0.2% | 22.7hPa | 2.7V | 18:12:15 | 01:39:06 | 00:00:00 | |
| HSKMA3-T | 2026-09-01 12:08:36 | 48.91807 | 10.04986 | 339° | 31km/h | 26103m | 6m/s | -49.6°C | 0.2% | 22.7hPa | 2.6V | 18:12:15 | 01:39:04 | 00:00:00 | |
| IW2NTF | 2026-09-01 12:08:35 | 48.91782 | 10.04993 | 358° | 31km/h | 26087m | 6.6m/s | -49.4°C | 3.4% | 22.8hPa | 2.7V | 00:00:00 | 01:39:01 | 00:00:00 | |
| DK7TD | 2026-09-01 12:08:28 | 48.91751 | 10.05005 | 311° | 24km/h | 26054m | 5.4m/s | -49.6°C | 0.3% | 22.9hPa | 2.7V | 18:12:15 | 01:38:55 | 00:00:00 | |
| HSKMA3-T | 2026-09-01 12:08:25 | 48.91744 | 10.05019 | 302° | 22km/h | 26042m | 6.1m/s | -49.8°C | 0.4% | 22.9hPa | 2.7V | 18:12:15 | 01:38:53 | 00:00:00 | |
| IW2NTF | 2026-09-01 12:08:24 | 48.91714 | 10.05056 | 347° | 27km/h | 26009m | 6.5m/s | -50°C | 3.6% | 23hPa | 2.7V | 00:00:00 | 01:38:47 | 00:00:00 | |
| DK7TD | 2026-09-01 12:08:18 | 48.91697 | 10.05057 | 359° | 20km/h | 25993m | 4.5m/s | -50.1°C | 0.3% | 23.1hPa | 2.6V | 18:12:15 | 01:38:44 | 00:00:00 | |
| HSKMA3-T | 2026-09-01 12:08:15 | 48.91692 | 10.05058 | 347° | 20km/h | 25987m | 6m/s | -50.1°C | 0.3% | 23.1hPa | 2.7V | 18:12:15 | 01:38:43 | 00:00:00 | |
| DL8DAS-14 | 2026-09-01 12:08:14 | 48.91683 | 10.05065 | 321° | 22km/h | 25976m | 5.5m/s | -50.0°C | 0.9% | 23.2hPa | 2.7V | 00:00:00 | 00:00:00 | 00:00:00 | |
| IW2NTF | 2026-09-01 12:08:13 | 48.91658 | 10.05099 | 315° | 22km/h | 25941m | 5.3m/s | -50°C | 3.6% | 23.2hPa | 2.7V | 00:00:00 | 01:38:35 | 00:00:00 | |
| DK7TD | 2026-09-01 12:08:07 | 48.91650 | 10.05109 | 328° | 18km/h | 25931m | 6.2m/s | -50°C | 0.2% | 23.3hPa | 2.6V | 18:12:15 | 01:38:33 | 00:00:00 | |
| DL1NUX | 2026-09-01 12:08:06 | 48.91636 | 10.05113 | 344° | 13km/h | 25908m | 6.2m/s | -50°C | 3.6% | 23.4hPa | 2.6V | 08:30:00 | 01:38:29 | 00:00:00 | |
| HSKMA3-T | 2026-09-01 12:08:04 | 48.91646 | 10.05112 | 345° | 15km/h | 25925m | 6.5m/s | -50°C | 0.3% | 23.3hPa | 2.6V | 18:12:15 | 01:38:32 | 00:00:00 | |
| SO1NDE-10 | 2026-09-01 12:08:04 | 48.91646 | 10.05112 | 346° | 15km/h | 25925m | 6.4m/s | -49.9°C | 3.5% | 23.3hPa | 2.7V | 00:00:00 | 01:38:32 | 00:00:00 | |
| NBG1-10 | 2026-09-01 12:08:02 | 48.91639 | 10.05112 | 360° | 15km/h | 25914m | 4.9m/s | -49.9°C | 3.6% | 23.3hPa | 2.7V | 00:00:00 | 01:38:30 | 00:00:00 | |
| OE5WHR-10 | 2026-09-01 12:08:01 | 48.91636 | 10.05113 | 345° | 16km/h | 25909m | 6.1m/s | -50.0°C | 3.6% | 23.3hPa | 2.6V | 00:00:00 | 00:00:00 | 00:00:00 | |
| DB0NH | 2026-09-01 12:08:00 | 48.91633 | 10.05115 | 322° | 15km/h | 25902m | 6.2m/s | -50.0°C | 3.6% | 23.4hPa | 2.6V | 00:00:00 | 01:38:28 | 00:00:00 | |
| DL8DAS-15 | 2026-09-01 12:07:59 | 48.91633 | 10.05115 | 322° | 13km/h | 25902m | 6.3m/s | -50.0°C | 0% | 23.4hPa | 2.7V | 00:00:00 | 00:00:00 | 00:00:00 | |
| IW2NTF | 2026-09-01 12:07:57 | 48.91626 | 10.05131 | 304° | 18km/h | 25885m | 6.1m/s | -49.9°C | 3.7% | 23.5hPa | 2.7V | 00:00:00 | 01:38:25 | 00:00:00 | |
| DK7TD | 2026-09-01 12:07:55 | 48.91621 | 10.05141 | 309° | 15km/h | 25874m | 5m/s | -49.9°C | 0.4% | 23.5hPa | 2.6V | 18:12:15 | 01:38:23 | 00:00:00 | |
| HSKMA3-T | 2026-09-01 12:07:53 | 48.91616 | 10.05150 | 304° | 16km/h | 25863m | 6.5m/s | -49.8°C | 0.3% | 23.6hPa | 2.6V | 18:12:15 | 01:38:21 | 00:00:00 | |
| DL1NUX | 2026-09-01 12:07:53 | 48.91611 | 10.05159 | 321° | 16km/h | 25852m | 5.6m/s | -49.8°C | 3.5% | 23.6hPa | 2.7V | 08:30:00 | 01:38:19 | 00:00:00 | |
| IW2NTF | 2026-09-01 12:07:52 | 48.91595 | 10.05168 | 337° | 18km/h | 25829m | 6.5m/s | -49.7°C | 3.6% | 23.7hPa | 2.6V | 00:00:00 | 01:38:15 | 00:00:00 | |
| DF3TZ-5 | 2026-09-01 12:07:47 | 48.91587 | 10.05176 | 315° | 18km/h | 25818m | 5.0m/s | -49.9°C | 0.8% | 23.7hPa | 2.6V | 00:00:00 | 00:00:00 | 00:00:00 | |
| DL1NUX | 2026-09-01 12:07:46 | 48.91578 | 10.05192 | 300° | 9km/h | 25795m | 5.2m/s | -49.9°C | 3.6% | 23.8hPa | 2.6V | 08:30:00 | 01:38:09 | 00:00:00 | |
| DK7TD | 2026-09-01 12:07:44 | 48.91584 | 10.05181 | 312° | 16km/h | 25812m | 5.6m/s | -49.9°C | 0.4% | 23.7hPa | 2.7V | 18:12:15 | 01:38:12 | 00:00:00 | |
| IW2NTF | 2026-09-01 12:07:43 | 48.91574 | 10.05207 | 313° | 11km/h | 25772m | 6.1m/s | -49.9°C | 3.6% | 23.9hPa | 2.6V | 00:00:00 | 01:38:05 | 00:00:00 | |
| HSKMA3-T | 2026-09-01 12:07:43 | 48.91579 | 10.05189 | 312° | 11km/h | 25800m | 5.6m/s | -49.8°C | 0.2% | 23.8hPa | 2.6V | 18:12:15 | 01:38:10 | 00:00:00 | |
| OE5WHR-10 | 2026-09-01 12:07:40 | 48.91577 | 10.05196 | 287° | 11km/h | 25789m | 6.6m/s | -49.9°C | 3.6% | 23.7hPa | 2.7V | 00:00:00 | 01:38:08 | 00:00:00 | |
| DO9HM | 2026-09-01 12:07:39 | 48.91576 | 10.05200 | 285° | 11km/h | 25783m | 5.2m/s | -49.9°C | 0.9% | 23.9hPa | 2.7V | 00:00:00 | 00:00:00 | 00:00:00 | |
| DO3MHA-12 | 2026-09-01 12:07:38 | 48.91575 | 10.05204 | 294° | 11km/h | 25778m | 4.7m/s | -49.8°C | 3.6% | 23.8hPa | 2.7V | 00:00:00 | 01:38:06 | 00:00:00 | |
| DJ8HS-15 | 2026-09-01 12:07:37 | 48.91574 | 10.05207 | 314° | 11km/h | 25773m | 6.1m/s | -49.8°C | 3.6% | 23.9hPa | 2.6V | 00:00:00 | 01:38:05 | 00:00:00 | |
| DL1NUX | 2026-09-01 12:07:34 | 48.91558 | 10.05219 | 299° | 11km/h | 25739m | 4.9m/s | -49.9°C | 3.5% | 24hPa | 2.6V | 08:30:00 | 01:37:59 | 00:00:00 | |
| DK7TD | 2026-09-01 12:07:34 | 48.91562 | 10.05212 | 338° | 13km/h | 25751m | 5.9m/s | -50.1°C | 0.3% | 23.9hPa | 2.7V | 18:12:15 | 01:38:01 | 00:00:00 | |
| HSKMA3-T | 2026-09-01 12:07:32 | 48.91560 | 10.05215 | 316° | 13km/h | 25745m | 6m/s | -50.1°C | 0.3% | 24hPa | 2.7V | 18:12:15 | 01:38:00 | 00:00:00 | |
| DL9SK-14 | 2026-09-01 12:07:31 | 48.91558 | 10.05218 | 299° | 11km/h | 25740m | 4.9m/s | -49.9°C | 0.8% | 24.0hPa | 2.6V | 00:00:00 | 00:00:00 | 00:00:00 | |
| DB0NH | 2026-09-01 12:07:30 | 48.91557 | 10.05222 | 292° | 9km/h | 25735m | 5.4m/s | -49.9°C | 3.6% | 24.0hPa | 2.6V | 00:00:00 | 01:37:58 | 00:00:00 | |
| NBG1-10 | 2026-09-01 12:07:29 | 48.91556 | 10.05225 | 293° | 9km/h | 25728m | 6.6m/s | -49.9°C | 3.6% | 24.0hPa | 2.6V | 00:00:00 | 01:37:57 | 00:00:00 | |
| DO3MHA-11 | 2026-09-01 12:07:28 | 48.91555 | 10.05228 | 286° | 11km/h | 25722m | 5.5m/s | -50.0°C | 3.6% | 24.1hPa | 2.6V | 00:00:00 | 01:37:56 | 00:00:00 | |
| DG9SBQ-11 | 2026-09-01 12:07:27 | 48.91555 | 10.05231 | 274° | 7km/h | 25717m | 5.0m/s | -50.1°C | 0.9% | 24.1hPa | 2.6V | 00:00:00 | 00:00:00 | 00:00:00 | |
| DL1NUX | 2026-09-01 12:07:26 | 48.91548 | 10.05246 | 6° | 15km/h | 25685m | 6.2m/s | -50.1°C | 3.6% | 24.2hPa | 2.6V | 08:30:00 | 01:37:49 | 00:00:00 | |
| DK7TD | 2026-09-01 12:07:23 | 48.91553 | 10.05244 | 317° | 9km/h | 25697m | 5.4m/s | -50°C | 0.3% | 24.2hPa | 2.7V | 18:12:15 | 01:37:51 | 00:00:00 | |
| HSKMA3-T | 2026-09-01 12:07:21 | 48.91545 | 10.05245 | 11° | 15km/h | 25679m | 5.4m/s | -50.1°C | 0.2% | 24.2hPa | 2.7V | 18:12:15 | 01:37:48 | 00:00:00 | |
| DG9SBQ-11 | 2026-09-01 12:07:20 | 48.91548 | 10.05246 | 8° | 15km/h | 25685m | 6.2m/s | -50.1°C | 0.9% | 24.2hPa | 2.7V | 00:00:00 | 00:00:00 | 00:00:00 | |
| OE5WHR-10 | 2026-09-01 12:07:19 | 48.91541 | 10.05244 | 7° | 9km/h | 25673m | 6.1m/s | -50.1°C | 3.6% | 24.2hPa | 2.7V | 00:00:00 | 00:00:00 | 00:00:00 | |
| DO3MHA-11 | 2026-09-01 12:07:18 | 48.91538 | 10.05244 | 354° | 5km/h | 25668m | 5.5m/s | -50.1°C | 3.5% | 24.2hPa | 2.6V | 00:00:00 | 01:37:46 | 00:00:00 | |
| DJ8HS-15 | 2026-09-01 12:07:17 | 48.91536 | 10.05245 | 335° | 9km/h | 25663m | 4.2m/s | -50.1°C | 3.6% | 24.3hPa | 2.7V | 00:00:00 | 01:37:45 | 00:00:00 | |
| DL8DAS-15 | 2026-09-01 12:07:14 | 48.91534 | 10.05247 | 324° | 2km/h | 25652m | 6.2m/s | -50.2°C | 0% | 24.3hPa | 2.7V | 00:00:00 | 00:00:00 | 00:00:00 | |
| DL1NUX | 2026-09-01 12:07:13 | 48.91536 | 10.05250 | 241° | 9km/h | 25628m | 6.8m/s | -50.2°C | 3.6% | 24.4hPa | 2.7V | 08:30:00 | 01:37:39 | 00:00:00 | |
| DK7TD | 2026-09-01 12:07:12 | 48.91535 | 10.05248 | 226° | 5km/h | 25635m | 5.9m/s | -50.2°C | 0.3% | 24.4hPa | 2.6V | 18:12:15 | 01:37:40 | 00:00:00 | |
| HSKMA3-T | 2026-09-01 12:07:10 | 48.91537 | 10.05253 | 258° | 11km/h | 25623m | 5m/s | -50.2°C | 0.3% | 24.4hPa | 2.7V | 18:12:15 | 01:37:38 | 00:00:00 | |
| OE5DXL-15 | 2026-09-01 12:07:09 | 48.91537 | 10.05258 | 273° | 13km/h | 25618m | 5.5m/s | -50.2°C | 3.7% | 24.4hPa | 2.6V | 00:00:00 | 00:00:00 | 00:00:00 | |
| DO3MHA-11 | 2026-09-01 12:07:08 | 48.91536 | 10.05262 | 290° | 11km/h | 25612m | 6.3m/s | -50.2°C | 3.7% | 24.4hPa | 2.6V | 00:00:00 | 01:37:36 | 00:00:00 | |
| DL1NUX | 2026-09-01 12:07:07 | 48.91531 | 10.05289 | 278° | 11km/h | 25572m | 5.5m/s | -50.7°C | 3.8% | 24.6hPa | 2.6V | 08:30:00 | 01:37:29 | 00:00:00 | |
| DK7TD | 2026-09-01 12:07:02 | 48.91531 | 10.05285 | 276° | 11km/h | 25578m | 6.3m/s | -50.7°C | 0.4% | 24.6hPa | 2.6V | 18:12:15 | 01:37:30 | 00:00:00 | |
| HSKMA3-T | 2026-09-01 12:07:00 | 48.91531 | 10.05299 | 262° | 15km/h | 25561m | 6.3m/s | -50.6°C | 0.4% | 24.7hPa | 2.7V | 18:12:15 | 01:37:27 | 00:00:00 | |
| DL6DJ-15 | 2026-09-01 12:06:55 | 48.91534 | 10.05331 | 285° | 13km/h | 25533m | 5.1m/s | -50.7°C | 0.9% | 24.8hPa | 2.7V | 00:00:00 | 00:00:00 | 00:00:00 | |
| DL1NUX | 2026-09-01 12:06:53 | 48.91531 | 10.05345 | 282° | 11km/h | 25516m | 5.3m/s | -50.4°C | 3.6% | 24.8hPa | 2.7V | 08:30:00 | 01:37:19 | 00:00:00 | |
| DK7TD | 2026-09-01 12:06:52 | 48.91532 | 10.05341 | 287° | 13km/h | 25522m | 6.5m/s | -50.5°C | 0.4% | 24.8hPa | 2.7V | 18:12:15 | 01:37:20 | 00:00:00 | |
| HSKMA3-T | 2026-09-01 12:06:49 | 48.91528 | 10.05355 | 308° | 7km/h | 25500m | 6.1m/s | -50.5°C | 0.4% | 24.9hPa | 2.6V | 18:12:15 | 01:37:16 | 00:00:00 | |
| DO3MHA-12 | 2026-09-01 12:06:48 | 48.91528 | 10.05355 | 308° | 11km/h | 25500m | 6.0m/s | -50.4°C | 3.7% | 24.9hPa | 2.6V | 00:00:00 | 01:37:16 | 00:00:00 | |
| DG9SBQ-11 | 2026-09-01 12:06:47 | 48.91527 | 10.05357 | 302° | 5km/h | 25494m | 5.1m/s | -50.5°C | 0.9% | 24.9hPa | 2.6V | 00:00:00 | 00:00:00 | 00:00:00 | |
| DL1NUX | 2026-09-01 12:06:46 | 48.91534 | 10.05377 | 265° | 11km/h | 25462m | 6.2m/s | -50.5°C | 3.8% | 25.1hPa | 2.6V | 08:30:00 | 01:37:09 | 00:00:00 | |
| DK7TD | 2026-09-01 12:06:41 | 48.91534 | 10.05377 | 265° | 11km/h | 25462m | 6.2m/s | -50.5°C | 0.4% | 25.1hPa | 2.6V | 18:12:15 | 01:37:09 | 00:00:00 | |
| HSKMA3-T | 2026-09-01 12:06:37 | 48.91529 | 10.05392 | 297° | 11km/h | 25440m | 6.3m/s | -50.6°C | 0.4% | 25.1hPa | 2.6V | 18:12:15 | 01:37:05 | 00:00:00 | |
| DJ8HS-15 | 2026-09-01 12:06:37 | 48.91529 | 10.05392 | 298° | 7km/h | 25441m | 6.2m/s | -50.6°C | 3.7% | 25.1hPa | 2.6V | 00:00:00 | 01:37:05 | 00:00:00 | |
| DG9SBQ-11 | 2026-09-01 12:06:36 | 48.91528 | 10.05396 | 277° | 11km/h | 25435m | 5.2m/s | -50.6°C | 0.9% | 25.2hPa | 2.6V | 00:00:00 | 00:00:00 | 00:00:00 | |
| DO9HM | 2026-09-01 12:06:34 | 48.91528 | 10.05400 | 256° | 9km/h | 25430m | 4.3m/s | -50.5°C | 0.9% | 25.2hPa | 2.6V | 00:00:00 | 00:00:00 | 00:00:00 | |
| DL1NUX | 2026-09-01 12:06:33 | 48.91532 | 10.05413 | 233° | 9km/h | 25403m | 6.4m/s | -50.5°C | 3.7% | 25.3hPa | 2.6V | 08:30:00 | 01:36:58 | 00:00:00 | |
| DK7TD | 2026-09-01 12:06:30 | 48.91532 | 10.05413 | 234° | 9km/h | 25403m | 6.4m/s | -50.5°C | 0.4% | 25.3hPa | 2.6V | 18:12:15 | 01:36:58 | 00:00:00 | |
| HSKMA3-T | 2026-09-01 12:06:28 | 48.91537 | 10.05420 | 216° | 5km/h | 25387m | 4.8m/s | -50.4°C | 0.4% | 25.4hPa | 2.7V | 18:12:15 | 01:36:55 | 00:00:00 | |
| DK5PH-5 | 2026-09-01 12:06:27 | 48.91536 | 10.05420 | 216° | 7km/h | 25387m | 4.7m/s | -50.4°C | 3.8% | 25.3hPa | 2.7V | 00:00:00 | 01:36:55 | 00:00:00 | |
| DG9SBQ-11 | 2026-09-01 12:06:26 | 48.91537 | 10.05421 | 0° | 0km/h | 25382m | 6.6m/s | -50.4°C | 0.9% | 25.4hPa | 2.7V | 00:00:00 | 00:00:00 | 00:00:00 | |
| DL1NUX | 2026-09-01 12:06:25 | 48.91538 | 10.05418 | 186° | 5km/h | 25347m | 5.2m/s | -50.4°C | 3.7% | 25.5hPa | 2.7V | 08:30:00 | 01:36:48 | 00:00:00 | |
| DK7TD | 2026-09-01 12:06:20 | 48.91538 | 10.05418 | 187° | 5km/h | 25347m | 5.2m/s | -50.4°C | 0.4% | 25.5hPa | 2.7V | 18:12:15 | 01:36:48 | 00:00:00 | |
| HSKMA3-T | 2026-09-01 12:06:17 | 48.91544 | 10.05421 | 214° | 9km/h | 25325m | 6.8m/s | -50.3°C | 0.4% | 25.6hPa | 2.7V | 18:12:15 | 01:36:44 | 00:00:00 | |
| DK7TD | 2026-09-01 12:06:10 | 48.91550 | 10.05432 | 358° | 5km/h | 25292m | 4.2m/s | -50.3°C | 0.4% | 25.7hPa | 2.7V | 18:12:15 | 01:36:38 | 00:00:00 | |
| OE5DXL-15 | 2026-09-01 12:06:09 | 48.91549 | 10.05432 | 342° | 9km/h | 25287m | 5.9m/s | -50.3°C | 3.7% | 25.7hPa | 2.6V | 00:00:00 | 01:36:37 | 00:00:00 | |
| DL1NUX | 2026-09-01 12:06:08 | 48.91549 | 10.05435 | 241° | 7km/h | 25276m | 5m/s | -50.2°C | 3.7% | 25.8hPa | 2.6V | 08:30:00 | 01:36:35 | 00:00:00 | |
| HSKMA3-T | 2026-09-01 12:06:07 | 48.91550 | 10.05438 | 241° | 9km/h | 25271m | 4.5m/s | -50.3°C | 0.4% | 25.8hPa | 2.7V | 18:12:15 | 01:36:34 | 00:00:00 | |
| DM7RM-13 | 2026-09-01 12:06:04 | 48.91551 | 10.05441 | 246° | 9km/h | 25266m | 6.0m/s | -50.3°C | 0.9% | 25.8hPa | 2.6V | 00:00:00 | 00:00:00 | 00:00:00 | |
| SO1NDE-10 | 2026-09-01 12:06:03 | 48.91553 | 10.05447 | 241° | 9km/h | 25255m | 5.3m/s | -50.1°C | 3.6% | 25.8hPa | 2.6V | 00:00:00 | 01:36:31 | 00:00:00 | |
| DL1NUX | 2026-09-01 12:06:02 | 48.91563 | 10.05463 | 267° | 7km/h | 25221m | 5.3m/s | -50.1°C | 3.6% | 26hPa | 2.7V | 08:30:00 | 01:36:25 | 00:00:00 | |
| DK7TD | 2026-09-01 12:05:59 | 48.91561 | 10.05458 | 219° | 11km/h | 25232m | 4.5m/s | -50°C | 0.3% | 26hPa | 2.6V | 18:12:15 | 01:36:27 | 00:00:00 | |
| HSKMA3-T | 2026-09-01 12:05:57 | 48.91563 | 10.05466 | 276° | 9km/h | 25216m | 4.7m/s | -50.2°C | 0.4% | 26hPa | 2.7V | 18:12:15 | 01:36:24 | 00:00:00 | |
| DK7TD | 2026-09-01 12:05:50 | 48.91571 | 10.05489 | 202° | 7km/h | 25177m | 4.8m/s | -50.2°C | 0.4% | 26.2hPa | 2.7V | 18:12:15 | 01:36:17 | 00:00:00 | |
| PG1ADW-2 | 2026-09-01 12:05:49 | 48.91571 | 10.05488 | 202° | 9km/h | 25178m | 4.7m/s | -50.1°C | 3.7% | 26.1hPa | 2.7V | 00:00:00 | 00:00:00 | 08:30:00 | |
| DL1NUX | 2026-09-01 12:05:48 | 48.91575 | 10.05490 | 190° | 11km/h | 25167m | 6.4m/s | -50.3°C | 3.7% | 26.2hPa | 2.6V | 08:30:00 | 01:36:15 | 00:00:00 | |
| HSKMA3-T | 2026-09-01 12:05:46 | 48.91578 | 10.05491 | 192° | 13km/h | 25161m | 5.4m/s | -50.3°C | 0.3% | 26.3hPa | 2.6V | 18:12:15 | 01:36:14 | 00:00:00 | |
| DF3TZ-5 | 2026-09-01 12:05:44 | 48.91590 | 10.05494 | 212° | 5km/h | 25133m | 5.7m/s | -50.4°C | 0.9% | 26.4hPa | 2.7V | 00:00:00 | 00:00:00 | 00:00:00 | |
| DL1NUX | 2026-09-01 12:05:42 | 48.91595 | 10.05505 | 231° | 7km/h | 25111m | 6.3m/s | -50.3°C | 3.8% | 26.5hPa | 2.7V | 08:30:00 | 01:36:05 | 00:00:00 | |
| DK7TD | 2026-09-01 12:05:38 | 48.91594 | 10.05502 | 234° | 11km/h | 25116m | 4.5m/s | -50.3°C | 0.3% | 26.4hPa | 2.7V | 18:12:15 | 01:36:06 | 00:00:00 | |
| HSKMA3-T | 2026-09-01 12:05:36 | 48.91596 | 10.05507 | 219° | 5km/h | 25105m | 5.8m/s | -50.3°C | 0.4% | 26.5hPa | 2.6V | 18:12:15 | 01:36:04 | 00:00:00 | |
| DK7TD | 2026-09-01 12:05:28 | 48.91609 | 10.05501 | 213° | 4km/h | 25055m | 6.4m/s | -50.3°C | 0.4% | 26.7hPa | 2.6V | 18:12:15 | 01:35:55 | 00:00:00 | |
| HSKMA3-T | 2026-09-01 12:05:26 | 48.91612 | 10.05509 | 258° | 11km/h | 25038m | 5.8m/s | -50.3°C | 0.4% | 26.8hPa | 2.7V | 18:12:15 | 01:35:52 | 00:00:00 | |
| DK7TD | 2026-09-01 12:05:16 | 48.91618 | 10.05511 | 92° | 11km/h | 24994m | 5.9m/s | -50.3°C | 0.4% | 26.9hPa | 2.6V | 18:12:15 | 01:35:44 | 00:00:00 | |
| HSKMA3-T | 2026-09-01 12:05:11 | 48.91618 | 10.05503 | 271° | 5km/h | 24966m | 5.9m/s | -50.3°C | 0.4% | 27hPa | 2.6V | 18:12:15 | 01:35:39 | 00:00:00 | |
| DL1NUX | 2026-09-01 12:05:09 | 48.91619 | 10.05512 | 222° | 7km/h | 24944m | 6.7m/s | -50.4°C | 3.7% | 27.1hPa | 2.7V | 08:30:00 | 01:35:35 | 00:00:00 | |
| DK7TD | 2026-09-01 12:05:06 | 48.91621 | 10.05514 | 193° | 9km/h | 24938m | 5.7m/s | -50.4°C | 0.4% | 27.2hPa | 2.7V | 18:12:15 | 01:35:34 | 00:00:00 | |
| SONDE2-11 | 2026-09-01 12:05:04 | 48.91625 | 10.05512 | 142° | 9km/h | 24927m | 6.7m/s | -50.3°C | 0.9% | 27.2hPa | 2.6V | 00:00:00 | 00:00:00 | 00:00:00 | |
| DL1NUX | 2026-09-01 12:05:03 | 48.91624 | 10.05493 | 321° | 4km/h | 24877m | 6.2m/s | -50.2°C | 3.6% | 27.4hPa | 2.6V | 08:30:00 | 01:35:23 | 00:00:00 | |
| HSKMA3-T | 2026-09-01 12:05:01 | 48.91629 | 10.05502 | 110° | 9km/h | 24909m | 6.3m/s | -50.2°C | 0.4% | 27.3hPa | 2.7V | 18:12:15 | 01:35:29 | 00:00:00 | |
| DK7TD | 2026-09-01 12:04:55 | 48.91624 | 10.05493 | 322° | 4km/h | 24877m | 6.2m/s | -50.2°C | 0.3% | 27.4hPa | 2.6V | 18:12:15 | 01:35:23 | 00:00:00 | |
| DL6DJ-15 | 2026-09-01 12:04:50 | 48.91632 | 10.05492 | 127° | 9km/h | 24849m | 5.2m/s | -49.9°C | 0.9% | 27.5hPa | 2.7V | 00:00:00 | 00:00:00 | 00:00:00 | |
| DL1NUX | 2026-09-01 12:04:49 | 48.91635 | 10.05484 | 117° | 5km/h | 24833m | 5.7m/s | -50°C | 3.6% | 27.6hPa | 2.7V | 08:30:00 | 01:35:15 | 00:00:00 | |
| HSKMA3-T | 2026-09-01 12:04:49 | 48.91633 | 10.05489 | 112° | 9km/h | 24844m | 4.8m/s | -50°C | 0.4% | 27.6hPa | 2.7V | 18:12:15 | 01:35:17 | 00:00:00 | |
| DK7TD | 2026-09-01 12:04:44 | 48.91636 | 10.05480 | 98° | 4km/h | 24817m | 6.7m/s | -50.1°C | 0.3% | 27.7hPa | 2.6V | 18:12:15 | 01:35:12 | 00:00:00 | |
| HSKMA3-T | 2026-09-01 12:04:38 | 48.91637 | 10.05481 | 279° | 2km/h | 24782m | 6.4m/s | -50°C | 0.3% | 27.8hPa | 2.6V | 18:12:15 | 01:35:06 | 00:00:00 | |
| DK7TD | 2026-09-01 12:04:34 | 48.91637 | 10.05484 | 214° | 4km/h | 24761m | 4.7m/s | -50.1°C | 0.3% | 27.9hPa | 2.6V | 18:12:15 | 01:35:02 | 00:00:00 | |
| HSKMA3-T | 2026-09-01 12:04:27 | 48.91641 | 10.05479 | 285° | 5km/h | 24725m | 5.1m/s | -50.2°C | 0.4% | 28.1hPa | 2.7V | 18:12:15 | 01:34:55 | 00:00:00 | |
| DK7TD | 2026-09-01 12:04:23 | 48.91642 | 10.05488 | 260° | 7km/h | 24703m | 4.8m/s | -50.1°C | 0.3% | 28.2hPa | 2.6V | 18:12:15 | 01:34:51 | 00:00:00 | |
| DG9SBQ-11 | 2026-09-01 12:04:23 | 48.91642 | 10.05488 | 261° | 7km/h | 24704m | 4.8m/s | -50.1°C | 0.9% | 28.2hPa | 2.6V | 00:00:00 | 00:00:00 | 00:00:00 | |
| DL1NUX | 2026-09-01 12:04:22 | 48.91642 | 10.05509 | 188° | 2km/h | 24671m | 5m/s | -50.1°C | 3.8% | 28.3hPa | 2.6V | 08:30:00 | 01:34:45 | 00:00:00 | |
| HSKMA3-T | 2026-09-01 12:04:17 | 48.91642 | 10.05509 | 189° | 2km/h | 24671m | 5.1m/s | -50.1°C | 0.4% | 28.3hPa | 2.6V | 18:12:15 | 01:34:45 | 00:00:00 | |
| DK7TD | 2026-09-01 12:04:13 | 48.91638 | 10.05500 | 35° | 9km/h | 24644m | 5.2m/s | -50°C | 0.4% | 28.4hPa | 2.6V | 18:12:15 | 01:34:40 | 00:00:00 | |
| DO9HM | 2026-09-01 12:04:11 | 48.91636 | 10.05499 | 49° | 5km/h | 24639m | 6.3m/s | -50.0°C | 1.0% | 28.5hPa | 2.6V | 00:00:00 | 00:00:00 | 00:00:00 | |
| DL1NUX | 2026-09-01 12:04:10 | 48.91637 | 10.05501 | 258° | 11km/h | 24616m | 6.5m/s | -49.9°C | 3.6% | 28.6hPa | 2.6V | 08:30:00 | 01:34:35 | 00:00:00 | |
| HSKMA3-T | 2026-09-01 12:04:07 | 48.91637 | 10.05501 | 258° | 11km/h | 24617m | 6.5m/s | -49.9°C | 0.3% | 28.6hPa | 2.6V | 18:12:15 | 01:34:35 | 00:00:00 | |
| DK7TD | 2026-09-01 12:04:02 | 48.91642 | 10.05521 | 254° | 7km/h | 24588m | 5.4m/s | -49.9°C | 0.4% | 28.7hPa | 2.6V | 18:12:15 | 01:34:30 | 00:00:00 | |
| HSKMA3-T | 2026-09-01 12:03:56 | 48.91638 | 10.05531 | 297° | 5km/h | 24554m | 5.2m/s | -49.7°C | 0.2% | 28.8hPa | 2.7V | 18:12:15 | 01:34:24 | 00:00:00 | |
| DK7TD | 2026-09-01 12:03:52 | 48.91639 | 10.05549 | 246° | 15km/h | 24531m | 6.8m/s | -49.7°C | 0.3% | 28.9hPa | 2.6V | 18:12:15 | 01:34:20 | 00:00:00 | |
| HSKMA3-T | 2026-09-01 12:03:46 | 48.91643 | 10.05576 | 336° | 7km/h | 24493m | 6.7m/s | -49.8°C | 0.4% | 29.1hPa | 2.7V | 18:12:15 | 01:34:13 | 00:00:00 | |
| DK7TD | 2026-09-01 12:03:41 | 48.91635 | 10.05582 | 302° | 13km/h | 24471m | 5.7m/s | -49.9°C | 0.3% | 29.2hPa | 2.6V | 18:12:15 | 01:34:09 | 00:00:00 | |
| IW2NTF | 2026-09-01 12:03:40 | 48.91646 | 10.05629 | 242° | 27km/h | 24437m | 6.2m/s | -49.8°C | 3.7% | 29.4hPa | 2.6V | 00:00:00 | 01:34:03 | 00:00:00 | |
| DM7RM-13 | 2026-09-01 12:03:40 | 48.91634 | 10.05587 | 279° | 16km/h | 24466m | 5.4m/s | -50.0°C | 0.9% | 29.2hPa | 2.7V | 00:00:00 | 00:00:00 | 00:00:00 | |
| OE5DXL-15 | 2026-09-01 12:03:39 | 48.91634 | 10.05594 | 261° | 16km/h | 24461m | 6.1m/s | -49.8°C | 3.6% | 29.2hPa | 2.7V | 00:00:00 | 00:00:00 | 00:00:00 | |
| DL1NUX | 2026-09-01 12:03:38 | 48.91651 | 10.05645 | 247° | 18km/h | 24427m | 4.5m/s | -49.8°C | 3.7% | 29.4hPa | 2.7V | 08:30:00 | 01:34:01 | 00:00:00 | |
| HSKMA3-T | 2026-09-01 12:03:34 | 48.91649 | 10.05638 | 246° | 24km/h | 24432m | 4.4m/s | -49.8°C | 0.4% | 29.4hPa | 2.6V | 18:12:15 | 01:34:02 | 00:00:00 | |
| DK7TD | 2026-09-01 12:03:31 | 48.91653 | 10.05654 | 248° | 5km/h | 24415m | 5.9m/s | -49.7°C | 0.4% | 29.5hPa | 2.6V | 18:12:15 | 01:33:59 | 00:00:00 | |
| SONDE2-11 | 2026-09-01 12:03:31 | 48.91653 | 10.05654 | 247° | 4km/h | 24415m | 5.9m/s | -49.7°C | 0.9% | 29.5hPa | 2.7V | 00:00:00 | 00:00:00 | 00:00:00 | |
| PG1ADW-2 | 2026-09-01 12:03:29 | 48.91652 | 10.05655 | 339° | 15km/h | 24406m | 4.2m/s | -49.7°C | 3.6% | 29.4hPa | 2.7V | 00:00:00 | 00:00:00 | 00:00:00 | |
| DL1NUX | 2026-09-01 12:03:28 | 48.91659 | 10.05701 | 232° | 26km/h | 24369m | 5m/s | -49.7°C | 3.6% | 29.7hPa | 2.7V | 08:30:00 | 01:33:50 | 00:00:00 | |
| HSKMA3-T | 2026-09-01 12:03:24 | 48.91655 | 10.05693 | 236° | 27km/h | 24374m | 5m/s | -49.7°C | 0.3% | 29.7hPa | 2.7V | 18:12:15 | 01:33:51 | 00:00:00 | |
| DK7TD | 2026-09-01 12:03:20 | 48.91665 | 10.05715 | 237° | 18km/h | 24358m | 5.7m/s | -49.7°C | 0.3% | 29.7hPa | 2.6V | 18:12:15 | 01:33:48 | 00:00:00 | |
| DO3MHA-12 | 2026-09-01 12:03:18 | 48.91668 | 10.05723 | 248° | 9km/h | 24348m | 5.1m/s | -49.6°C | 3.6% | 29.7hPa | 2.7V | 00:00:00 | 01:33:46 | 00:00:00 | |
| DJ8HS-15 | 2026-09-01 12:03:17 | 48.91669 | 10.05725 | 244° | 11km/h | 24342m | 6.4m/s | -49.6°C | 3.6% | 29.8hPa | 2.7V | 00:00:00 | 01:33:45 | 00:00:00 | |
| DL1NUX | 2026-09-01 12:03:16 | 48.91669 | 10.05739 | 284° | 15km/h | 24314m | 4.8m/s | -49.8°C | 3.6% | 29.9hPa | 2.7V | 08:30:00 | 01:33:40 | 00:00:00 | |
| HSKMA3-T | 2026-09-01 12:03:13 | 48.91670 | 10.05734 | 285° | 11km/h | 24320m | 6.5m/s | -49.8°C | 0.3% | 29.9hPa | 2.6V | 18:12:15 | 01:33:41 | 00:00:00 | |
| DK7TD | 2026-09-01 12:03:10 | 48.91671 | 10.05754 | 229° | 15km/h | 24298m | 6m/s | -49.8°C | 0.4% | 30hPa | 2.6V | 18:12:15 | 01:33:37 | 00:00:00 | |
| OE5DXL-15 | 2026-09-01 12:03:10 | 48.91671 | 10.05753 | 230° | 16km/h | 24298m | 6.0m/s | -49.8°C | 3.6% | 29.9hPa | 2.7V | 00:00:00 | 00:00:00 | 00:00:00 | |
| DO3MHA-11 | 2026-09-01 12:03:08 | 48.91673 | 10.05757 | 215° | 11km/h | 24293m | 5.0m/s | -49.7°C | 3.6% | 30.0hPa | 2.7V | 00:00:00 | 01:33:36 | 00:00:00 | |
| OE5WHR-10 | 2026-09-01 12:03:05 | 48.91684 | 10.05768 | 220° | 16km/h | 24276m | 4.9m/s | -49.7°C | 3.6% | 30.1hPa | 2.7V | 00:00:00 | 00:00:00 | 08:30:00 | |
| DL1NUX | 2026-09-01 12:03:04 | 48.91692 | 10.05789 | 270° | 18km/h | 24237m | 4.2m/s | -49.8°C | 3.5% | 30.3hPa | 2.7V | 08:30:00 | 01:33:26 | 00:00:00 | |
| HSKMA3-T | 2026-09-01 12:03:03 | 48.91688 | 10.05773 | 210° | 9km/h | 24264m | 6.5m/s | -49.9°C | 0.4% | 30.1hPa | 2.6V | 18:12:15 | 01:33:31 | 00:00:00 | |
| DK7TD | 2026-09-01 12:02:59 | 48.91691 | 10.05789 | 270° | 18km/h | 24237m | 4.2m/s | -49.8°C | 0.3% | 30.3hPa | 2.7V | 18:12:15 | 01:33:26 | 00:00:00 | |
| HSKMA3-T | 2026-09-01 12:02:53 | 48.91704 | 10.05817 | 211° | 22km/h | 24210m | 6m/s | -49.8°C | 0.3% | 30.4hPa | 2.7V | 18:12:15 | 01:33:21 | 00:00:00 | |
| DB0UT-7 | 2026-09-01 12:02:52 | 48.91709 | 10.05822 | 211° | 20km/h | 24204m | 6.5m/s | -49.7°C | 3.6% | 30.4hPa | 2.6V | 00:00:00 | 01:33:20 | 00:00:00 | |
| IW2NTF | 2026-09-01 12:02:51 | 48.91719 | 10.05830 | 208° | 22km/h | 24194m | 3.9m/s | -49.7°C | 3.6% | 30.5hPa | 2.6V | 00:00:00 | 01:33:18 | 00:00:00 | |
| DK7TD | 2026-09-01 12:02:48 | 48.91729 | 10.05837 | 196° | 20km/h | 24183m | 6m/s | -49.8°C | 0.4% | 30.5hPa | 2.6V | 18:12:15 | 01:33:16 | 00:00:00 | |
| DL6DJ-15 | 2026-09-01 12:02:46 | 48.91736 | 10.05840 | 205° | 13km/h | 24172m | 5.6m/s | -49.7°C | 0.9% | 30.6hPa | 2.6V | 00:00:00 | 00:00:00 | 00:00:00 | |
| HSKMA3-T | 2026-09-01 12:02:43 | 48.91745 | 10.05856 | 223° | 15km/h | 24151m | 6m/s | -49.8°C | 0.3% | 30.7hPa | 2.6V | 18:12:15 | 01:33:10 | 00:00:00 | |
| DK7TD | 2026-09-01 12:02:38 | 48.91766 | 10.05871 | 207° | 29km/h | 24129m | 6.6m/s | -49.8°C | 0.3% | 30.8hPa | 2.6V | 18:12:15 | 01:33:06 | 00:00:00 | |
| HSKMA3-T | 2026-09-01 12:02:32 | 48.91801 | 10.05897 | 191° | 20km/h | 24096m | 4.8m/s | -49.9°C | 0.3% | 31hPa | 2.7V | 18:12:15 | 01:33:00 | 00:00:00 | |
| DK7TD | 2026-09-01 12:02:27 | 48.91817 | 10.05904 | 188° | 13km/h | 24068m | 6.4m/s | -50°C | 0.2% | 31.1hPa | 2.7V | 18:12:15 | 01:32:55 | 00:00:00 | |
| HSKMA3-T | 2026-09-01 12:02:22 | 48.91847 | 10.05915 | 192° | 27km/h | 24033m | 6.3m/s | -50.1°C | 0.4% | 31.2hPa | 2.7V | 18:12:15 | 01:32:49 | 00:00:00 | |
| IW2NTF | 2026-09-01 12:02:21 | 48.91854 | 10.05917 | 190° | 26km/h | 24028m | 4.5m/s | -50.1°C | 3.7% | 31.2hPa | 2.7V | 00:00:00 | 01:32:48 | 00:00:00 | |
| DK7TD | 2026-09-01 12:02:16 | 48.91870 | 10.05925 | 240° | 7km/h | 24006m | 4.4m/s | -50.4°C | 0.3% | 31.4hPa | 2.7V | 18:12:15 | 01:32:44 | 00:00:00 | |
| HSKMA3-T | 2026-09-01 12:02:11 | 48.91876 | 10.05932 | 209° | 9km/h | 23979m | 6.3m/s | -50.5°C | 0.3% | 31.5hPa | 2.7V | 18:12:15 | 01:32:39 | 00:00:00 | |
| DK7TD | 2026-09-01 12:02:06 | 48.91898 | 10.05948 | 204° | 29km/h | 23951m | 4.8m/s | -50.5°C | 0.4% | 31.7hPa | 2.6V | 18:12:15 | 01:32:34 | 00:00:00 | |
| HSKMA3-T | 2026-09-01 12:02:01 | 48.91929 | 10.05969 | 162° | 11km/h | 23913m | 5.1m/s | -50.7°C | 0.4% | 31.8hPa | 2.6V | 18:12:15 | 01:32:27 | 00:00:00 | |
| DK7TD | 2026-09-01 12:01:56 | 48.91935 | 10.05967 | 190° | 7km/h | 23896m | 4.2m/s | -50.7°C | 0.3% | 31.9hPa | 2.7V | 18:12:15 | 01:32:24 | 00:00:00 | |
| HSKMA3-T | 2026-09-01 12:01:49 | 48.91964 | 10.05975 | 201° | 18km/h | 23852m | 4.8m/s | -50.6°C | 0.4% | 32.1hPa | 2.6V | 18:12:15 | 01:32:16 | 00:00:00 | |
| DK7TD | 2026-09-01 12:01:45 | 48.91978 | 10.05978 | 183° | 18km/h | 23835m | 5.4m/s | -50.7°C | 0.4% | 32.2hPa | 2.6V | 18:12:15 | 01:32:13 | 00:00:00 | |
| HSKMA3-T | 2026-09-01 12:01:38 | 48.92020 | 10.05983 | 196° | 26km/h | 23791m | 4.9m/s | -50.8°C | 0.3% | 32.4hPa | 2.7V | 18:12:15 | 01:32:05 | 00:00:00 | |
| DK7TD | 2026-09-01 12:01:35 | 48.92033 | 10.05987 | 188° | 27km/h | 23780m | 6.1m/s | -50.8°C | 0.4% | 32.5hPa | 2.6V | 18:12:15 | 01:32:03 | 00:00:00 | |
| DG9SBQ-11 | 2026-09-01 12:01:34 | 48.92032 | 10.05987 | 189° | 27km/h | 23780m | 6.1m/s | -50.8°C | 0.9% | 32.5hPa | 2.7V | 00:00:00 | 00:00:00 | 00:00:00 | |
| IW2NTF | 2026-09-01 12:01:33 | 48.92058 | 10.05989 | 180° | 20km/h | 23759m | 5m/s | -50.7°C | 3.8% | 32.6hPa | 2.7V | 00:00:00 | 01:31:59 | 00:00:00 | |
| DB0ND-19 | 2026-09-01 12:01:32 | 48.92058 | 10.05989 | 180° | 18km/h | 23759m | 5.0m/s | -50.7°C | 0.9% | 32.6hPa | 2.6V | 00:00:00 | 00:00:00 | 00:00:00 | |
| DB0NH | 2026-09-01 12:01:30 | 48.92062 | 10.05988 | 173° | 16km/h | 23754m | 4.2m/s | -50.6°C | 3.8% | 32.6hPa | 2.6V | 00:00:00 | 01:31:58 | 00:00:00 | |
| PG1ADW-2 | 2026-09-01 12:01:29 | 48.92067 | 10.05987 | 162° | 15km/h | 23749m | 5.6m/s | -50.6°C | 3.8% | 32.6hPa | 2.6V | 00:00:00 | 01:31:57 | 00:00:00 | |
| DL1NUX | 2026-09-01 12:01:28 | 48.92088 | 10.05972 | 173° | 16km/h | 23715m | 5.4m/s | -50.7°C | 3.7% | 32.8hPa | 2.6V | 08:30:00 | 01:31:51 | 00:00:00 | |
| HSKMA3-T | 2026-09-01 12:01:27 | 48.92074 | 10.05981 | 142° | 16km/h | 23738m | 5.3m/s | -50.6°C | 0.4% | 32.7hPa | 2.6V | 18:12:15 | 01:31:55 | 00:00:00 | |
| DK7TD | 2026-09-01 12:01:24 | 48.92084 | 10.05973 | 170° | 15km/h | 23720m | 4.8m/s | -50.7°C | 0.3% | 32.8hPa | 2.6V | 18:12:15 | 01:31:52 | 00:00:00 | |
| HSKMA3-T | 2026-09-01 12:01:17 | 48.92113 | 10.05967 | 149° | 11km/h | 23683m | 4.8m/s | -50.8°C | 0.4% | 33hPa | 2.7V | 18:12:15 | 01:31:45 | 00:00:00 | |
| DJ8HS-15 | 2026-09-01 12:01:17 | 48.92112 | 10.05967 | 150° | 16km/h | 23684m | 4.7m/s | -50.7°C | 3.7% | 33.0hPa | 2.7V | 00:00:00 | 01:31:45 | 00:00:00 | |
| DG9SBQ-11 | 2026-09-01 12:01:16 | 48.92113 | 10.05967 | 150° | 11km/h | 23684m | 4.8m/s | -50.8°C | 0.9% | 33.0hPa | 2.7V | 00:00:00 | 00:00:00 | 00:00:00 | |
| DL1NUX | 2026-09-01 12:01:15 | 48.92119 | 10.05946 | 111° | 18km/h | 23663m | 5.2m/s | -50.6°C | 3.6% | 33.1hPa | 2.7V | 08:30:00 | 01:31:41 | 00:00:00 | |
| DK7TD | 2026-09-01 12:01:14 | 48.92118 | 10.05953 | 109° | 18km/h | 23668m | 4.1m/s | -50.6°C | 0.3% | 33.1hPa | 2.6V | 18:12:15 | 01:31:42 | 00:00:00 | |
| DL6DJ-15 | 2026-09-01 12:01:13 | 48.92121 | 10.05940 | 119° | 15km/h | 23658m | 6.3m/s | -50.6°C | 0.9% | 33.1hPa | 2.6V | 00:00:00 | 00:00:00 | 00:00:00 | |
| DG9SBQ-11 | 2026-09-01 12:01:10 | 48.92123 | 10.05936 | 131° | 11km/h | 23652m | 5.3m/s | -50.6°C | 0.9% | 33.2hPa | 2.6V | 00:00:00 | 00:00:00 | 00:00:00 | |
| OE5DXL-15 | 2026-09-01 12:01:09 | 48.92126 | 10.05931 | 129° | 16km/h | 23642m | 5.7m/s | -50.7°C | 3.6% | 33.1hPa | 2.6V | 00:00:00 | 00:00:00 | 00:00:00 | |
| DL1NUX | 2026-09-01 12:01:08 | 48.92133 | 10.05898 | 113° | 22km/h | 23607m | 4.8m/s | -51.5°C | 3.9% | 33.4hPa | 2.6V | 08:30:00 | 01:31:31 | 00:00:00 | |
| HSKMA3-T | 2026-09-01 12:01:06 | 48.92129 | 10.05912 | 105° | 18km/h | 23619m | 5m/s | -51.3°C | 0.5% | 33.3hPa | 2.7V | 18:12:15 | 01:31:33 | 00:00:00 | |
| DK7TD | 2026-09-01 12:01:04 | 48.92133 | 10.05898 | 113° | 22km/h | 23607m | 4.8m/s | -51.5°C | 0.5% | 33.4hPa | 2.6V | 18:12:15 | 01:31:31 | 00:00:00 | |
| HSKMA3-T | 2026-09-01 12:00:56 | 48.92136 | 10.05837 | 83° | 16km/h | 23569m | 4.7m/s | -51.4°C | 0.5% | 33.6hPa | 2.7V | 18:12:15 | 01:31:24 | 00:00:00 | |
| SONDE2-11 | 2026-09-01 12:00:56 | 48.92136 | 10.05831 | 77° | 16km/h | 23564m | 5.4m/s | -51.4°C | 1.0% | 33.6hPa | 2.7V | 00:00:00 | 00:00:00 | 00:00:00 | |
| DL1NUX | 2026-09-01 12:00:55 | 48.92133 | 10.05818 | 66° | 18km/h | 23553m | 4.7m/s | -51.3°C | 3.8% | 33.6hPa | 2.7V | 08:30:00 | 01:31:21 | 00:00:00 | |
| DK7TD | 2026-09-01 12:00:53 | 48.92133 | 10.05818 | 67° | 18km/h | 23553m | 4.7m/s | -51.3°C | 0.5% | 33.6hPa | 2.7V | 18:12:15 | 01:31:21 | 00:00:00 | |
| SONCRA | 2026-09-01 12:00:51 | 48.92129 | 10.05801 | 72° | 11km/h | 23538m | 4.7m/s | -51.3°C | -1.0% | -1.0hPa | 2.6V | 00:00:00 | 00:00:00 | 00:00:00 | |
| IW2NTF | 2026-09-01 12:00:50 | 48.92121 | 10.05780 | 66° | 9km/h | 23510m | 6.2m/s | -51.1°C | 3.7% | 33.9hPa | 2.6V | 00:00:00 | 01:31:13 | 00:00:00 | |
| PG1ADW-2 | 2026-09-01 12:00:49 | 48.92127 | 10.05796 | 64° | 11km/h | 23532m | 5.6m/s | -51.3°C | 3.8% | 33.7hPa | 2.6V | 00:00:00 | 00:00:00 | 00:00:00 | |
| DL1NUX | 2026-09-01 12:00:48 | 48.92120 | 10.05773 | 77° | 11km/h | 23498m | 6.2m/s | -51.2°C | 3.7% | 33.9hPa | 2.6V | 08:30:00 | 01:31:11 | 00:00:00 | |
| HSKMA3-T | 2026-09-01 12:00:46 | 48.92122 | 10.05784 | 57° | 11km/h | 23516m | 5.5m/s | -51.2°C | 0.4% | 33.9hPa | 2.7V | 18:12:15 | 01:31:14 | 00:00:00 | |
| DK7TD | 2026-09-01 12:00:43 | 48.92119 | 10.05769 | 70° | 13km/h | 23492m | 5.2m/s | -51.2°C | 0.4% | 33.9hPa | 2.7V | 18:12:15 | 01:31:10 | 00:00:00 | |
| DL6DJ-15 | 2026-09-01 12:00:42 | 48.92118 | 10.05764 | 71° | 13km/h | 23488m | 4.0m/s | -51.2°C | 0.9% | 34.0hPa | 2.6V | 00:00:00 | 00:00:00 | 00:00:00 | |
| OE5DRO-10 | 2026-09-01 12:00:41 | 48.92118 | 10.05764 | 72° | 9km/h | 23488m | 4.0m/s | -51.2°C | 3.7% | 33.9hPa | 2.6V | 00:00:00 | 00:00:00 | 00:00:00 | |
| IW2NTF | 2026-09-01 12:00:40 | 48.92109 | 10.05734 | 40° | 15km/h | 23447m | 4.2m/s | -51.6°C | 3.8% | 34.2hPa | 2.6V | 00:00:00 | 01:31:01 | 00:00:00 | |
| HSKMA3-T | 2026-09-01 12:00:36 | 48.92111 | 10.05738 | 46° | 16km/h | 23451m | 4.2m/s | -51.7°C | 0.4% | 34.2hPa | 2.6V | 18:12:15 | 01:31:02 | 00:00:00 | |
| DL1NUX | 2026-09-01 12:00:36 | 48.92109 | 10.05734 | 40° | 15km/h | 23447m | 4.2m/s | -51.6°C | 3.8% | 34.2hPa | 2.6V | 08:30:00 | 01:31:01 | 00:00:00 | |
| DK7TD | 2026-09-01 12:00:33 | 48.92106 | 10.05731 | 38° | 13km/h | 23442m | 6.2m/s | -51.6°C | 0.5% | 34.2hPa | 2.7V | 18:12:15 | 01:31:00 | 00:00:00 | |
| OE9MKV-15 | 2026-09-01 12:00:32 | 48.92106 | 10.05730 | 38° | 13km/h | 23442m | 6.2m/s | -51.6°C | 3.9% | 34.2hPa | 2.6V | 00:00:00 | 01:31:00 | 00:00:00 | |
| DG9SBQ-11 | 2026-09-01 12:00:31 | 48.92106 | 10.05730 | 39° | 13km/h | 23442m | 6.2m/s | -51.6°C | 1.0% | 34.2hPa | 2.6V | 00:00:00 | 00:00:00 | 00:00:00 | |
| DB0NH | 2026-09-01 12:00:30 | 48.92102 | 10.05727 | 23° | 9km/h | 23431m | 5.1m/s | -51.7°C | 3.9% | 34.3hPa | 2.6V | 00:00:00 | 01:30:58 | 00:00:00 | |
| PG1ADW-2 | 2026-09-01 12:00:29 | 48.92101 | 10.05726 | 31° | 9km/h | 23425m | 6.1m/s | -51.7°C | 3.9% | 34.3hPa | 2.6V | 00:00:00 | 00:00:00 | 00:00:00 | |
| DL1NUX | 2026-09-01 12:00:28 | 48.92094 | 10.05726 | 336° | 9km/h | 23393m | 5.5m/s | -52.1°C | 4% | 34.5hPa | 2.6V | 08:30:00 | 01:30:51 | 00:00:00 | |
| HSKMA3-T | 2026-09-01 12:00:23 | 48.92094 | 10.05726 | 336° | 9km/h | 23393m | 5.5m/s | -52.1°C | 0.5% | 34.5hPa | 2.6V | 18:12:15 | 01:30:51 | 00:00:00 | |
| DM7RM-13 | 2026-09-01 12:00:23 | 48.92095 | 10.05724 | 323° | 7km/h | 23399m | 4.7m/s | -52.0°C | 1.0% | 34.5hPa | 2.6V | 00:00:00 | 00:00:00 | 00:00:00 | |
| IW2NTF | 2026-09-01 12:00:22 | 48.92072 | 10.05734 | 334° | 16km/h | 23363m | 4.2m/s | -51.9°C | 3.9% | 34.7hPa | 2.6V | 00:00:00 | 01:30:45 | 00:00:00 | |
| DK7TD | 2026-09-01 12:00:21 | 48.92088 | 10.05727 | 355° | 15km/h | 23382m | 4.6m/s | -52.1°C | 0.5% | 34.6hPa | 2.7V | 18:12:15 | 01:30:49 | 00:00:00 | |
| NBG1-10 | 2026-09-01 12:00:20 | 48.92084 | 10.05728 | 353° | 11km/h | 23378m | 4.5m/s | -52.1°C | 4.0% | 34.6hPa | 2.7V | 00:00:00 | 01:30:48 | 00:00:00 | |
| DL1ZP-14 | 2026-09-01 12:00:19 | 48.92080 | 10.05730 | 344° | 16km/h | 23373m | 5.8m/s | -52.1°C | 1.0% | 34.6hPa | 2.7V | 00:00:00 | 00:00:00 | 00:00:00 | |
| OE5WHR-10 | 2026-09-01 12:00:18 | 48.92072 | 10.05734 | 335° | 9km/h | 23363m | 4.1m/s | -51.9°C | 3.9% | 34.6hPa | 2.7V | 00:00:00 | 01:30:45 | 00:00:00 | |
| DL1NUX | 2026-09-01 12:00:14 | 48.92055 | 10.05738 | 61° | 2km/h | 23326m | 5.9m/s | -51.9°C | 3.9% | 34.9hPa | 2.7V | 08:30:00 | 01:30:38 | 00:00:00 | |
| HSKMA3-T | 2026-09-01 12:00:12 | 48.92056 | 10.05739 | 350° | 5km/h | 23336m | 5.6m/s | -51.9°C | 0.4% | 34.8hPa | 2.6V | 18:12:15 | 01:30:40 | 00:00:00 | |
| DK7TD | 2026-09-01 12:00:11 | 48.92055 | 10.05739 | 4° | 2km/h | 23331m | 4.7m/s | -51.9°C | 0.5% | 34.8hPa | 2.7V | 18:12:15 | 01:30:39 | 00:00:00 | |
| DG9SBQ-11 | 2026-09-01 12:00:10 | 48.92055 | 10.05738 | 62° | 2km/h | 23326m | 5.9m/s | -51.9°C | 1.0% | 34.9hPa | 2.6V | 00:00:00 | 00:00:00 | 00:00:00 | |
| PG1ADW-2 | 2026-09-01 12:00:09 | 48.92055 | 10.05737 | 72° | 11km/h | 23320m | 5.7m/s | -51.9°C | 4.0% | 34.8hPa | 2.6V | 00:00:00 | 01:30:37 | 00:00:00 | |
| DO3MHA-12 | 2026-09-01 12:00:08 | 48.92054 | 10.05735 | 71° | 9km/h | 23315m | 4.7m/s | -51.9°C | 3.9% | 34.9hPa | 2.6V | 00:00:00 | 01:30:36 | 00:00:00 | |
| KANTATE | 2026-09-01 12:00:04 | 48.92052 | 10.05731 | 10° | 5km/h | 23300m | 4.3m/s | -52.1°C | 1.0% | 35.0hPa | 2.6V | 00:00:00 | 00:00:00 | 00:00:00 | |
| DM7RM-13 | 2026-09-01 12:00:03 | 48.92050 | 10.05730 | 8° | 9km/h | 23294m | 5.9m/s | -52.1°C | 1.0% | 35.0hPa | 2.6V | 00:00:00 | 00:00:00 | 00:00:00 | |
| IW2NTF | 2026-09-01 12:00:02 | 48.92033 | 10.05726 | 83° | 9km/h | 23260m | 5.7m/s | -52.1°C | 0% | 35.2hPa | 2.6V | 00:00:00 | 01:30:25 | 00:00:00 | |
| DL1NUX | 2026-09-01 12:00:02 | 48.92038 | 10.05729 | 355° | 11km/h | 23274m | 5.5m/s | -52.1°C | 3.9% | 35.2hPa | 2.7V | 08:30:00 | 01:30:28 | 00:00:00 | |
| HSKMA3-T | 2026-09-01 12:00:02 | 48.92044 | 10.05729 | 4° | 15km/h | 23283m | 4m/s | -52°C | 0.5% | 35.1hPa | 2.7V | 18:12:15 | 01:30:30 | 00:00:00 | |
| DK7TD | 2026-09-01 12:00:01 | 48.92037 | 10.05729 | 355° | 11km/h | 23274m | 5.5m/s | -52.1°C | 0.5% | 35.2hPa | 2.7V | 18:12:15 | 01:30:28 | 00:00:00 | |
| DB0ND-19 | 2026-09-01 11:59:58 | 48.92034 | 10.05728 | 56° | 5km/h | 23265m | 4.2m/s | -52.1°C | 1.0% | 35.2hPa | 2.7V | 00:00:00 | 00:00:00 | 00:00:00 | |
| SONDE2-11 | 2026-09-01 11:59:55 | 48.92033 | 10.05700 | 84° | 16km/h | 23239m | 5.5m/s | -52.2°C | 1.0% | 35.3hPa | 2.7V | 00:00:00 | 00:00:00 | 00:00:00 | |
| DL1NUX | 2026-09-01 11:59:54 | 48.92028 | 10.05685 | 47° | 15km/h | 23225m | 5.2m/s | -52.4°C | 4% | 35.4hPa | 2.7V | 08:30:00 | 01:30:18 | 00:00:00 | |
| HEMX73-6 | 2026-09-01 11:59:54 | 48.92032 | 10.05700 | 85° | 16km/h | 23239m | 5.5m/s | 0°C | 0% | 0hPa | 2.6V | 00:00:00 | 01:30:21 | 08:30:00 | |
| IW2NTF | 2026-09-01 11:59:53 | 48.92020 | 10.05672 | 48° | 15km/h | 23210m | 4.7m/s | -52.4°C | 0% | 35.5hPa | 2.6V | 00:00:00 | 01:30:15 | 00:00:00 | |
| HSKMA3-T | 2026-09-01 11:59:51 | 48.92031 | 10.05689 | 57° | 13km/h | 23229m | 3.9m/s | -52.4°C | 0.6% | 35.4hPa | 2.6V | 18:12:15 | 01:30:19 | 00:00:00 | |
| DK7TD | 2026-09-01 11:59:50 | 48.92026 | 10.05681 | 44° | 16km/h | 23220m | 5.6m/s | -52.4°C | 0.5% | 35.5hPa | 2.7V | 18:12:15 | 01:30:17 | 00:00:00 | |
| DL1ZP-14 | 2026-09-01 11:59:49 | 48.92023 | 10.05676 | 45° | 16km/h | 23214m | 4.7m/s | -52.5°C | 1.0% | 35.5hPa | 2.6V | 00:00:00 | 00:00:00 | 00:00:00 | |
| DL9SK-14 | 2026-09-01 11:59:46 | 48.92017 | 10.05665 | 71° | 9km/h | 23199m | 4.7m/s | -52.4°C | 1.0% | 35.6hPa | 2.6V | 00:00:00 | 00:00:00 | 00:00:00 | |
| SO1NDE-10 | 2026-09-01 11:59:44 | 48.92016 | 10.05660 | 79° | 20km/h | 23195m | 4.3m/s | -52.4°C | 4.0% | 35.6hPa | 2.6V | 00:00:00 | 01:30:12 | 00:00:00 | |
| OE5DRO-10 | 2026-09-01 11:59:43 | 48.92015 | 10.05656 | 77° | 20km/h | 23189m | 5.9m/s | -52.4°C | 4.0% | 35.6hPa | 2.6V | 00:00:00 | 00:00:00 | 00:00:00 | |
| DL1NUX | 2026-09-01 11:59:42 | 48.92009 | 10.05635 | 60° | 22km/h | 23174m | 5.4m/s | -52.5°C | 4.1% | 35.7hPa | 2.6V | 08:30:00 | 01:30:08 | 00:00:00 | |
| DK7TD | 2026-09-01 11:59:40 | 48.92009 | 10.05635 | 61° | 22km/h | 23174m | 5.4m/s | -52.5°C | 0.6% | 35.7hPa | 2.6V | 18:12:15 | 01:30:08 | 00:00:00 | |
| HSKMA3-T | 2026-09-01 11:59:30 | 48.91978 | 10.05567 | 66° | 20km/h | 23122m | 6.2m/s | -52.6°C | 0.6% | 36hPa | 2.7V | 18:12:15 | 01:29:58 | 00:00:00 | |
| DK7TD | 2026-09-01 11:59:29 | 48.91976 | 10.05560 | 67° | 22km/h | 23116m | 5.2m/s | -52.6°C | 0.6% | 36hPa | 2.7V | 18:12:15 | 01:29:57 | 00:00:00 | |
| DG9SBQ-11 | 2026-09-01 11:59:29 | 48.91976 | 10.05560 | 68° | 22km/h | 23116m | 5.2m/s | -52.6°C | 1.0% | 36.0hPa | 2.6V | 00:00:00 | 00:00:00 | 00:00:00 | |
| DO3MHA-12 | 2026-09-01 11:59:28 | 48.91973 | 10.05552 | 67° | 18km/h | 23111m | 4.8m/s | -52.6°C | 4.1% | 36.0hPa | 2.6V | 00:00:00 | 01:29:56 | 00:00:00 | |
| DL1NUX | 2026-09-01 11:59:27 | 48.91970 | 10.05540 | 57° | 16km/h | 23100m | 4.5m/s | -52.6°C | 4.1% | 36.1hPa | 2.6V | 08:30:00 | 01:29:54 | 00:00:00 | |
| HSKMA3-T | 2026-09-01 11:59:19 | 48.91946 | 10.05505 | 30° | 18km/h | 23065m | 4.7m/s | -52.5°C | 0.5% | 36.3hPa | 2.6V | 18:12:15 | 01:29:47 | 00:00:00 | |
| DK7TD | 2026-09-01 11:59:18 | 48.91942 | 10.05501 | 34° | 20km/h | 23060m | 4.5m/s | -52.6°C | 0.5% | 36.3hPa | 2.6V | 18:12:15 | 01:29:46 | 00:00:00 | |
| HSKMA3-T | 2026-09-01 11:59:09 | 48.91910 | 10.05454 | 38° | 15km/h | 23013m | 4.4m/s | -52.7°C | 0.5% | 36.6hPa | 2.7V | 18:12:15 | 01:29:37 | 00:00:00 | |
| DK7TD | 2026-09-01 11:59:07 | 48.91904 | 10.05449 | 18° | 13km/h | 23003m | 6m/s | -53°C | 0.6% | 36.7hPa | 2.6V | 18:12:15 | 01:29:35 | 00:00:00 | |
| DL1NUX | 2026-09-01 11:59:07 | 48.91889 | 10.05440 | 27° | 22km/h | 22982m | 5.2m/s | -53.1°C | 4.1% | 36.8hPa | 2.7V | 08:30:00 | 01:29:31 | 00:00:00 | |
| DG9SBQ-11 | 2026-09-01 11:59:06 | 48.91901 | 10.05448 | 15° | 15km/h | 22998m | 4.1m/s | -53.0°C | 1.0% | 36.7hPa | 2.6V | 00:00:00 | 00:00:00 | 00:00:00 | |
| OE5DRO-10 | 2026-09-01 11:59:05 | 48.91898 | 10.05446 | 19° | 22km/h | 22993m | 5.5m/s | -53.0°C | 4.1% | 36.7hPa | 2.6V | 00:00:00 | 00:00:00 | 00:00:00 | |
| IW2NTF | 2026-09-01 11:59:02 | 48.91864 | 10.05421 | 31° | 24km/h | 22955m | 5.5m/s | -53.2°C | 0% | 36.9hPa | 2.6V | 00:00:00 | 01:29:26 | 00:00:00 | |
| HSKMA3-T | 2026-09-01 11:59:00 | 48.91869 | 10.05425 | 28° | 24km/h | 22961m | 5.8m/s | -53.2°C | 0.6% | 36.9hPa | 2.7V | 18:12:15 | 01:29:27 | 00:00:00 | |
| DK7TD | 2026-09-01 11:58:57 | 48.91859 | 10.05416 | 32° | 22km/h | 22950m | 4.2m/s | -53.3°C | 0.6% | 37hPa | 2.6V | 18:12:15 | 01:29:25 | 00:00:00 | |
| DL1NUX | 2026-09-01 11:58:57 | 48.91841 | 10.05407 | 3° | 18km/h | 22929m | 5.5m/s | -53.3°C | 4.2% | 37.1hPa | 2.6V | 08:30:00 | 01:29:21 | 00:00:00 | |
| HSKMA3-T | 2026-09-01 11:58:48 | 48.91812 | 10.05409 | 353° | 22km/h | 22903m | 4.6m/s | -53.4°C | 0.6% | 37.2hPa | 2.6V | 18:12:15 | 01:29:16 | 00:00:00 | |
| DO3MHA-11 | 2026-09-01 11:58:48 | 48.91812 | 10.05409 | 353° | 22km/h | 22904m | 4.5m/s | -53.3°C | 4.2% | 37.2hPa | 2.6V | 00:00:00 | 01:29:16 | 08:30:00 | |
| DL1NUX | 2026-09-01 11:58:47 | 48.91788 | 10.05404 | 4° | 20km/h | 22878m | 5.9m/s | -53.4°C | 4.3% | 37.4hPa | 2.7V | 08:30:00 | 01:29:11 | 00:00:00 | |
| DK7TD | 2026-09-01 11:58:46 | 48.91802 | 10.05409 | 11° | 18km/h | 22893m | 5.8m/s | -53.4°C | 0.7% | 37.3hPa | 2.6V | 18:12:15 | 01:29:14 | 00:00:00 | |
| DL1ZP-14 | 2026-09-01 11:58:46 | 48.91802 | 10.05409 | 11° | 18km/h | 22893m | 5.8m/s | -53.4°C | 1.1% | 37.3hPa | 2.6V | 00:00:00 | 00:00:00 | 00:00:00 | |
| HSKMA3-T | 2026-09-01 11:58:38 | 48.91757 | 10.05410 | 351° | 24km/h | 22852m | 4.3m/s | -53.3°C | 0.6% | 37.5hPa | 2.7V | 18:12:15 | 01:29:06 | 00:00:00 | |
| DK7TD | 2026-09-01 11:58:36 | 48.91746 | 10.05415 | 337° | 20km/h | 22841m | 5.3m/s | -53.2°C | 0.6% | 37.6hPa | 2.6V | 18:12:15 | 01:29:04 | 00:00:00 | |
| HSKMA3-T | 2026-09-01 11:58:28 | 48.91707 | 10.05435 | 343° | 20km/h | 22799m | 6.2m/s | -53.1°C | 0.6% | 37.9hPa | 2.6V | 18:12:15 | 01:28:56 | 00:00:00 | |
| DO3MHA-12 | 2026-09-01 11:58:28 | 48.91707 | 10.05434 | 344° | 22km/h | 22799m | 6.1m/s | -53.0°C | 4.1% | 37.8hPa | 2.6V | 00:00:00 | 01:28:56 | 00:00:00 | |
| DL1NUX | 2026-09-01 11:58:27 | 48.91683 | 10.05447 | 332° | 20km/h | 22773m | 4.8m/s | -53.2°C | 4.2% | 38hPa | 2.6V | 08:30:00 | 01:28:51 | 00:00:00 | |
| DK7TD | 2026-09-01 11:58:25 | 48.91692 | 10.05441 | 339° | 20km/h | 22783m | 6.1m/s | -53.1°C | 0.6% | 37.9hPa | 2.7V | 18:12:15 | 01:28:53 | 00:00:00 | |
| DK5PH-5 | 2026-09-01 11:58:25 | 48.91692 | 10.05440 | 339° | 18km/h | 22783m | 6.1m/s | -53.1°C | 4.1% | 37.9hPa | 2.7V | 00:00:00 | 01:28:53 | 00:00:00 | |
| DG9SBQ-11 | 2026-09-01 11:58:22 | 48.91678 | 10.05451 | 337° | 22km/h | 22767m | 6.2m/s | -53.2°C | 1.1% | 38.0hPa | 2.7V | 00:00:00 | 00:00:00 | 00:00:00 | |
| SONDE2-11 | 2026-09-01 11:58:21 | 48.91668 | 10.05458 | 332° | 22km/h | 22757m | 4.5m/s | -53.3°C | 1.1% | 38.1hPa | 2.7V | 00:00:00 | 00:00:00 | 00:00:00 | |
| IW2NTF | 2026-09-01 11:58:18 | 48.91635 | 10.05493 | 327° | 16km/h | 22720m | 5.9m/s | -53.4°C | 0% | 38.3hPa | 2.7V | 00:00:00 | 01:28:41 | 00:00:00 | |
| HSKMA3-T | 2026-09-01 11:58:17 | 48.91653 | 10.05475 | 319° | 26km/h | 22741m | 4.6m/s | -53.4°C | 0.7% | 38.2hPa | 2.6V | 18:12:15 | 01:28:45 | 00:00:00 | |
| DK7TD | 2026-09-01 11:58:14 | 48.91639 | 10.05489 | 333° | 18km/h | 22725m | 4.1m/s | -53.4°C | 0.7% | 38.3hPa | 2.7V | 18:12:15 | 01:28:42 | 00:00:00 | |
| SO1NDE-10 | 2026-09-01 11:58:14 | 48.91639 | 10.05489 | 333° | 15km/h | 22725m | 4.0m/s | -53.4°C | 4.2% | 38.3hPa | 2.6V | 00:00:00 | 01:28:42 | 00:00:00 | |
| DN1GJH-1 | 2026-09-01 11:58:12 | 48.91635 | 10.05493 | 328° | 18km/h | 22720m | 5.9m/s | -53.4°C | 1.1% | 38.3hPa | 2.6V | 00:00:00 | 00:00:00 | 00:00:00 | |
| DG9SBQ-11 | 2026-09-01 11:58:11 | 48.91629 | 10.05500 | 316° | 15km/h | 22709m | 4.8m/s | -53.4°C | 1.1% | 38.4hPa | 2.6V | 00:00:00 | 00:00:00 | 00:00:00 | |
| PG1ADW-2 | 2026-09-01 11:58:09 | 48.91624 | 10.05507 | 328° | 13km/h | 22698m | 5.9m/s | -53.3°C | 4.3% | 38.4hPa | 2.6V | 00:00:00 | 00:00:00 | 00:00:00 | |
| DO3MHA-11 | 2026-09-01 11:58:08 | 48.91621 | 10.05509 | 330° | 16km/h | 22693m | 5.1m/s | -53.3°C | 4.3% | 38.4hPa | 2.6V | 00:00:00 | 01:28:36 | 00:00:00 | |
| DL1NUX | 2026-09-01 11:58:07 | 48.91601 | 10.05530 | 345° | 18km/h | 22661m | 4.8m/s | -53.2°C | 4.3% | 38.7hPa | 2.6V | 08:30:00 | 01:28:30 | 00:00:00 | |
| OE5DRO-10 | 2026-09-01 11:58:07 | 48.91619 | 10.05512 | 323° | 15km/h | 22687m | 5.3m/s | -53.3°C | 4.3% | 38.5hPa | 2.6V | 00:00:00 | 00:00:00 | 00:00:00 | |
| IW2NTF | 2026-09-01 11:58:06 | 48.91597 | 10.05532 | 346° | 18km/h | 22656m | 5.3m/s | 0°C | 0% | 0hPa | 2.6V | 00:00:00 | 01:28:29 | 00:00:00 | |
| HSKMA3-T | 2026-09-01 11:58:06 | 48.91616 | 10.05516 | 315° | 16km/h | 22682m | 5.5m/s | -53.3°C | 0.7% | 38.6hPa | 2.6V | 18:12:15 | 01:28:34 | 00:00:00 | |
| DK7TD | 2026-09-01 11:58:04 | 48.91609 | 10.05524 | 324° | 18km/h | 22672m | 5.4m/s | -53.3°C | 0.8% | 38.6hPa | 2.7V | 18:12:15 | 01:28:32 | 00:00:00 | |
| DF3TZ-5 | 2026-09-01 11:57:58 | 48.91583 | 10.05541 | 334° | 11km/h | 22635m | 5.9m/s | -53.3°C | 1.1% | 38.8hPa | 2.7V | 00:00:00 | 00:00:00 | 00:00:00 | |
| DL1NUX | 2026-09-01 11:57:57 | 48.91572 | 10.05550 | 328° | 9km/h | 22609m | 4.4m/s | -53.1°C | 4.3% | 39hPa | 2.7V | 08:30:00 | 01:28:20 | 00:00:00 | |
| HSKMA3-T | 2026-09-01 11:57:56 | 48.91580 | 10.05543 | 339° | 11km/h | 22630m | 5.7m/s | -53.2°C | 0.6% | 38.9hPa | 2.6V | 18:12:15 | 01:28:24 | 00:00:00 | |
| DK7TD | 2026-09-01 11:57:55 | 48.91576 | 10.05546 | 321° | 9km/h | 22619m | 6.2m/s | -53.1°C | 0.7% | 38.9hPa | 2.6V | 18:12:15 | 01:28:22 | 00:00:00 | |
| DG9SBQ-11 | 2026-09-01 11:57:54 | 48.91575 | 10.05546 | 322° | 9km/h | 22620m | 6.2m/s | -53.1°C | 1.1% | 38.9hPa | 2.6V | 00:00:00 | 00:00:00 | 00:00:00 | |
| DN1GJH-1 | 2026-09-01 11:57:52 | 48.91574 | 10.05548 | 318° | 9km/h | 22614m | 4.7m/s | -53.1°C | 1.1% | 38.9hPa | 2.6V | 00:00:00 | 00:00:00 | 00:00:00 | |
| IW2NTF | 2026-09-01 11:57:51 | 48.91570 | 10.05552 | 342° | 11km/h | 22604m | 6.1m/s | 0°C | 0% | 0hPa | 2.6V | 00:00:00 | 01:28:19 | 00:00:00 | |
| DK7TD | 2026-09-01 11:57:45 | 48.91539 | 10.05562 | 353° | 22km/h | 22567m | 5m/s | -53°C | 0.6% | 39.2hPa | 2.7V | 18:12:15 | 01:28:12 | 00:00:00 | |
| DL1NUX | 2026-09-01 11:57:42 | 48.91529 | 10.05565 | 340° | 15km/h | 22556m | 5.8m/s | -53°C | 4.1% | 39.3hPa | 2.6V | 08:30:00 | 01:28:10 | 00:00:00 | |
| DL9SK-14 | 2026-09-01 11:57:42 | 48.91526 | 10.05567 | 335° | 11km/h | 22551m | 4.2m/s | -53.0°C | 1.0% | 39.4hPa | 2.7V | 00:00:00 | 00:00:00 | 00:00:00 | |
| OE5DXL-15 | 2026-09-01 11:57:39 | 48.91521 | 10.05569 | 356° | 15km/h | 22541m | 6.1m/s | -52.8°C | 4.1% | 39.4hPa | 2.7V | 00:00:00 | 00:00:00 | 08:30:00 | |
| DG9SBQ-11 | 2026-09-01 11:57:38 | 48.91519 | 10.05569 | 5° | 11km/h | 22536m | 4.9m/s | -52.8°C | 1.0% | 39.5hPa | 2.7V | 00:00:00 | 00:00:00 | 00:00:00 | |
| DL1NUX | 2026-09-01 11:57:37 | 48.91500 | 10.05579 | 341° | 20km/h | 22503m | 5.7m/s | -52.9°C | 4.2% | 39.6hPa | 2.7V | 08:30:00 | 01:28:00 | 00:00:00 | |
| HSKMA3-T | 2026-09-01 11:57:34 | 48.91508 | 10.05573 | 330° | 15km/h | 22515m | 4.5m/s | -52.8°C | 0.7% | 39.6hPa | 2.7V | 18:12:15 | 01:28:02 | 00:00:00 | |
| DK7TD | 2026-09-01 11:57:34 | 48.91504 | 10.05576 | 335° | 16km/h | 22509m | 6m/s | -52.9°C | 0.7% | 39.6hPa | 2.7V | 18:12:15 | 01:28:01 | 00:00:00 | |
| HSKMA3-T | 2026-09-01 11:57:23 | 48.91468 | 10.05585 | 358° | 11km/h | 22458m | 5.9m/s | -52.9°C | 0.6% | 39.9hPa | 2.7V | 18:12:15 | 01:27:51 | 00:00:00 | |
| DK7TD | 2026-09-01 11:57:23 | 48.91465 | 10.05586 | 337° | 11km/h | 22452m | 5.1m/s | -52.9°C | 0.7% | 40hPa | 2.6V | 18:12:15 | 01:27:50 | 00:00:00 | |
| DL1NUX | 2026-09-01 11:57:22 | 48.91465 | 10.05586 | 337° | 11km/h | 22452m | 5.1m/s | -52.9°C | 4.2% | 40hPa | 2.6V | 08:30:00 | 01:27:50 | 00:00:00 | |
| DB0UT-7 | 2026-09-01 11:57:22 | 48.91465 | 10.05586 | 338° | 16km/h | 22452m | 5.1m/s | -52.9°C | 4.2% | 39.9hPa | 2.6V | 00:00:00 | 00:00:00 | 00:00:00 | |
| IW2NTF | 2026-09-01 11:57:21 | 48.91454 | 10.05595 | 333° | 22km/h | 22436m | 5.3m/s | 0°C | 0% | 0hPa | 2.7V | 00:00:00 | 01:27:47 | 00:00:00 | |
| DG9SBQ-11 | 2026-09-01 11:57:20 | 48.91462 | 10.05588 | 330° | 15km/h | 22447m | 4.8m/s | -52.9°C | 1.1% | 40.0hPa | 2.7V | 00:00:00 | 00:00:00 | 00:00:00 | |
| DG1MJG | 2026-09-01 11:57:19 | 48.91454 | 10.05595 | 334° | 22km/h | 22436m | 5.3m/s | -52.7°C | 1.1% | 40.1hPa | 2.7V | 00:00:00 | 00:00:00 | 00:00:00 | |
| DO3MHA-11 | 2026-09-01 11:57:18 | 48.91449 | 10.05598 | 335° | 16km/h | 22432m | 4.1m/s | -52.7°C | 4.2% | 40.0hPa | 2.7V | 00:00:00 | 01:27:46 | 08:30:00 | |
| DL1NUX | 2026-09-01 11:57:17 | 48.91425 | 10.05611 | 346° | 16km/h | 22399m | 3.8m/s | -52.6°C | 4.1% | 40.3hPa | 2.7V | 08:30:00 | 01:27:40 | 00:00:00 | |
| HSKMA3-T | 2026-09-01 11:57:13 | 48.91424 | 10.05611 | 347° | 16km/h | 22399m | 3.8m/s | -52.6°C | 0.6% | 40.3hPa | 2.7V | 18:12:15 | 01:27:40 | 00:00:00 | |
| DK7TD | 2026-09-01 11:57:13 | 48.91421 | 10.05613 | 340° | 15km/h | 22395m | 5.2m/s | -52.7°C | 0.6% | 40.3hPa | 2.7V | 18:12:15 | 01:27:39 | 00:00:00 | |
| OE5DRO-10 | 2026-09-01 11:57:10 | 48.91418 | 10.05615 | 326° | 16km/h | 22389m | 6.1m/s | -52.6°C | 4.1% | 40.3hPa | 2.7V | 00:00:00 | 00:00:00 | 00:00:00 | |
| OE5DXL-15 | 2026-09-01 11:57:09 | 48.91415 | 10.05618 | 316° | 15km/h | 22384m | 4.9m/s | -52.4°C | 4.0% | 40.3hPa | 2.7V | 00:00:00 | 00:00:00 | 00:00:00 | |
| DO3MHA-11 | 2026-09-01 11:57:08 | 48.91412 | 10.05623 | 316° | 18km/h | 22378m | 5.7m/s | -52.4°C | 4.0% | 40.4hPa | 2.7V | 00:00:00 | 01:27:36 | 00:00:00 | |
| DL1NUX | 2026-09-01 11:57:07 | 48.91389 | 10.05653 | 324° | 20km/h | 22345m | 6.4m/s | -52.5°C | 4% | 40.6hPa | 2.7V | 08:30:00 | 01:27:30 | 00:00:00 | |
| HSKMA3-T | 2026-09-01 11:57:02 | 48.91390 | 10.05653 | 324° | 20km/h | 22345m | 6.4m/s | -52.5°C | 0.6% | 40.6hPa | 2.7V | 18:12:15 | 01:27:30 | 00:00:00 | |
| DK7TD | 2026-09-01 11:57:01 | 48.91386 | 10.05657 | 329° | 18km/h | 22339m | 5.1m/s | -52.4°C | 0.5% | 40.7hPa | 2.6V | 18:12:15 | 01:27:29 | 00:00:00 | |
| DB0NH | 2026-09-01 11:57:00 | 48.91382 | 10.05661 | 331° | 11km/h | 22335m | 5.0m/s | -52.3°C | 4.0% | 40.7hPa | 2.7V | 00:00:00 | 01:27:28 | 00:00:00 | |
| DG9SBQ-11 | 2026-09-01 11:56:59 | 48.91379 | 10.05664 | 324° | 13km/h | 22329m | 6.3m/s | -52.4°C | 1.0% | 40.7hPa | 2.7V | 00:00:00 | 00:00:00 | 00:00:00 | |
| DO3MHA-12 | 2026-09-01 11:56:58 | 48.91377 | 10.05667 | 311° | 16km/h | 22324m | 4.6m/s | -52.4°C | 4.1% | 40.7hPa | 2.7V | 00:00:00 | 01:27:26 | 00:00:00 | |
| DJ8HS-15 | 2026-09-01 11:56:57 | 48.91375 | 10.05670 | 307° | 11km/h | 22319m | 4.2m/s | -52.5°C | 4.1% | 40.8hPa | 2.7V | 00:00:00 | 01:27:25 | 00:00:00 | |
| DK5PH-5 | 2026-09-01 11:56:55 | 48.91371 | 10.05677 | 316° | 11km/h | 22308m | 5.5m/s | -52.7°C | 4.1% | 40.8hPa | 2.7V | 00:00:00 | 01:27:23 | 00:00:00 | |
| DO9HM | 2026-09-01 11:56:54 | 48.91371 | 10.05677 | 317° | 16km/h | 22308m | 5.5m/s | -52.7°C | 1.1% | 40.9hPa | 2.7V | 00:00:00 | 00:00:00 | 00:00:00 | |
| DL1NUX | 2026-09-01 11:56:53 | 48.91357 | 10.05696 | 318° | 16km/h | 22288m | 4.7m/s | -52.7°C | 4% | 41hPa | 2.7V | 08:30:00 | 01:27:19 | 00:00:00 | |
| HSKMA3-T | 2026-09-01 11:56:52 | 48.91360 | 10.05692 | 316° | 18km/h | 22293m | 5.6m/s | -52.7°C | 0.5% | 41hPa | 2.7V | 18:12:15 | 01:27:20 | 00:00:00 | |
| DK7TD | 2026-09-01 11:56:51 | 48.91357 | 10.05696 | 319° | 16km/h | 22288m | 4.7m/s | -52.7°C | 0.5% | 41hPa | 2.7V | 18:12:15 | 01:27:19 | 00:00:00 | |
| SONDE2-11 | 2026-09-01 11:56:48 | 48.91343 | 10.05704 | 354° | 13km/h | 22267m | 5.0m/s | -52.9°C | 1.0% | 41.1hPa | 2.7V | 00:00:00 | 00:00:00 | 00:00:00 | |
| HSKMA3-T | 2026-09-01 11:56:41 | 48.91334 | 10.05711 | 321° | 7km/h | 22234m | 5m/s | -52.8°C | 0.6% | 41.4hPa | 2.7V | 18:12:15 | 01:27:09 | 00:00:00 | |
| DL1NUX | 2026-09-01 11:56:41 | 48.91331 | 10.05715 | 307° | 5km/h | 22223m | 4.9m/s | -52.9°C | 4.1% | 41.4hPa | 2.6V | 08:30:00 | 01:27:07 | 00:00:00 | |
| DK7TD | 2026-09-01 11:56:41 | 48.91332 | 10.05713 | 310° | 7km/h | 22228m | 6.2m/s | -52.9°C | 0.6% | 41.4hPa | 2.6V | 18:12:15 | 01:27:08 | 00:00:00 | |
| HSKMA3-T | 2026-09-01 11:56:31 | 48.91312 | 10.05716 | 4° | 7km/h | 22182m | 4.6m/s | -53.1°C | 0.6% | 41.7hPa | 2.7V | 18:12:15 | 01:26:59 | 00:00:00 | |
| DK7TD | 2026-09-01 11:56:30 | 48.91307 | 10.05716 | 3° | 11km/h | 22171m | 5.2m/s | -53.2°C | 0.6% | 41.8hPa | 2.6V | 18:12:15 | 01:26:57 | 00:00:00 | |
| DB0NH | 2026-09-01 11:56:30 | 48.91310 | 10.05716 | 4° | 16km/h | 22176m | 6.2m/s | -53.1°C | 4.1% | 41.7hPa | 2.6V | 00:00:00 | 01:26:58 | 00:00:00 | |
| NBG1-10 | 2026-09-01 11:56:29 | 48.91307 | 10.05716 | 3° | 16km/h | 22171m | 5.1m/s | -53.1°C | 4.1% | 41.7hPa | 2.6V | 00:00:00 | 01:26:57 | 00:00:00 | |
| DH7VM-15 | 2026-09-01 11:56:28 | 48.91305 | 10.05716 | 354° | 11km/h | 22166m | 4.8m/s | -53.2°C | 1.1% | 41.8hPa | 2.6V | 00:00:00 | 00:00:00 | 00:00:00 | |
| DL1NUX | 2026-09-01 11:56:27 | 48.91286 | 10.05728 | 343° | 24km/h | 22135m | 5.1m/s | -53.3°C | 4.2% | 42hPa | 2.6V | 08:30:00 | 01:26:50 | 00:00:00 | |
| HSKMA3-T | 2026-09-01 11:56:21 | 48.91280 | 10.05730 | 342° | 24km/h | 22129m | 5.6m/s | -53.3°C | 0.6% | 42hPa | 2.7V | 18:12:15 | 01:26:49 | 00:00:00 | |
| DK7TD | 2026-09-01 11:56:19 | 48.91270 | 10.05736 | 339° | 20km/h | 22118m | 5m/s | -53.1°C | 0.6% | 42.1hPa | 2.6V | 18:12:15 | 01:26:47 | 00:00:00 | |
| DG1MJG | 2026-09-01 11:56:18 | 48.91265 | 10.05739 | 344° | 20km/h | 22114m | 4.9m/s | -53.2°C | 1.1% | 42.1hPa | 2.7V | 00:00:00 | 00:00:00 | 00:00:00 | |
| DJ8HS-15 | 2026-09-01 11:56:17 | 48.91260 | 10.05740 | 350° | 16km/h | 22108m | 6.1m/s | -53.3°C | 4.2% | 42.1hPa | 2.7V | 00:00:00 | 01:26:45 | 00:00:00 | |
| SONDE2-11 | 2026-09-01 11:56:16 | 48.91254 | 10.05741 | 357° | 20km/h | 22103m | 5.0m/s | -53.4°C | 1.1% | 42.2hPa | 2.7V | 00:00:00 | 00:00:00 | 00:00:00 | |
| DG9SBQ-11 | 2026-09-01 11:56:14 | 48.91244 | 10.05742 | 1° | 18km/h | 22092m | 6.3m/s | -53.4°C | 1.1% | 42.3hPa | 2.7V | 00:00:00 | 00:00:00 | 00:00:00 | |
| DL1NUX | 2026-09-01 11:56:13 | 48.91236 | 10.05742 | 351° | 13km/h | 22081m | 4.9m/s | -53.4°C | 4.3% | 42.4hPa | 2.7V | 08:30:00 | 01:26:40 | 00:00:00 | |
| DK7TD | 2026-09-01 11:56:10 | 48.91221 | 10.05752 | 323° | 20km/h | 22061m | 5m/s | -53.4°C | 0.6% | 42.5hPa | 2.6V | 18:12:15 | 01:26:36 | 00:00:00 | |
| HSKMA3-T | 2026-09-01 11:55:58 | 48.91186 | 10.05771 | 17° | 13km/h | 22002m | 4.8m/s | -53.5°C | 0.7% | 42.9hPa | 2.6V | 18:12:15 | 01:26:25 | 00:00:00 | |
| HSKMA3-T | 2026-09-01 11:55:47 | 48.91157 | 10.05806 | 336° | 15km/h | 21949m | 6.2m/s | -53.3°C | 0.6% | 43.2hPa | 2.7V | 18:12:15 | 01:26:15 | 00:00:00 | |
| DK7TD | 2026-09-01 11:55:46 | 48.91154 | 10.05807 | 350° | 15km/h | 21943m | 5.1m/s | -53.3°C | 0.6% | 43.2hPa | 2.7V | 18:12:15 | 01:26:14 | 00:00:00 | |
| SONDE2-11 | 2026-09-01 11:55:45 | 48.91150 | 10.05808 | 1° | 11km/h | 21939m | 4.0m/s | -53.3°C | 1.1% | 43.3hPa | 2.6V | 00:00:00 | 00:00:00 | 00:00:00 | |
| DK7TD | 2026-09-01 11:55:36 | 48.91134 | 10.05819 | 306° | 13km/h | 21892m | 4.7m/s | -53.1°C | 0.7% | 43.6hPa | 2.6V | 18:12:15 | 01:26:04 | 00:00:00 | |
| DG9SBQ-11 | 2026-09-01 11:55:35 | 48.91133 | 10.05823 | 306° | 15km/h | 21887m | 5.9m/s | -53.1°C | 1.1% | 43.6hPa | 2.6V | 00:00:00 | 00:00:00 | 00:00:00 | |
| DM7RM-13 | 2026-09-01 11:55:34 | 48.91130 | 10.05827 | 310° | 15km/h | 21882m | 5.3m/s | -53.1°C | 1.1% | 43.7hPa | 2.6V | 00:00:00 | 00:00:00 | 00:00:00 | |
| DL1NUX | 2026-09-01 11:55:33 | 48.91126 | 10.05834 | 330° | 9km/h | 21872m | 6.2m/s | -53.1°C | 0% | 0hPa | 2.6V | 08:30:00 | 01:26:00 | 00:00:00 | |
| DK7TD | 2026-09-01 11:55:26 | 48.91115 | 10.05826 | 350° | 13km/h | 21841m | 4.4m/s | -53.2°C | 0.6% | 44hPa | 2.7V | 18:12:15 | 01:25:54 | 00:00:00 | |
| HSKMA3-T | 2026-09-01 11:55:25 | 48.91112 | 10.05827 | 338° | 11km/h | 21836m | 5.5m/s | -53.1°C | 0.6% | 44hPa | 2.7V | 18:12:15 | 01:25:53 | 00:00:00 | |
| DK7TD | 2026-09-01 11:55:15 | 48.91088 | 10.05842 | 53° | 11km/h | 21786m | 4.5m/s | -53°C | 0.6% | 44.4hPa | 2.6V | 18:12:15 | 01:25:43 | 00:00:00 | |
| HSKMA3-T | 2026-09-01 11:55:13 | 48.91083 | 10.05836 | 24° | 15km/h | 21775m | 5.6m/s | -53.1°C | 0.7% | 44.4hPa | 2.7V | 18:12:15 | 01:25:41 | 00:00:00 | |
| DK7TD | 2026-09-01 11:55:05 | 48.91052 | 10.05836 | 0° | 16km/h | 21737m | 4.4m/s | -53°C | 0.6% | 44.7hPa | 2.7V | 18:12:15 | 01:25:33 | 00:00:00 | |
| HSKMA3-T | 2026-09-01 11:55:02 | 48.91043 | 10.05834 | 7° | 7km/h | 21722m | 4.3m/s | -53°C | 0.6% | 44.8hPa | 2.6V | 18:12:15 | 01:25:30 | 00:00:00 | |
| DG9SBQ-11 | 2026-09-01 11:55:01 | 48.91041 | 10.05834 | 352° | 7km/h | 21717m | 5.2m/s | -53.1°C | 1.1% | 44.8hPa | 2.7V | 00:00:00 | 00:00:00 | 00:00:00 | |
| DL1NUX | 2026-09-01 11:55:00 | 48.91026 | 10.05848 | 326° | 13km/h | 21686m | 4.8m/s | -53.2°C | 0% | 0hPa | 2.7V | 08:30:00 | 01:25:23 | 00:00:00 | |
| DK7TD | 2026-09-01 11:54:55 | 48.91023 | 10.05851 | 333° | 16km/h | 21681m | 5.6m/s | -53.2°C | 0.7% | 45.1hPa | 2.7V | 18:12:15 | 01:25:22 | 00:00:00 | |
| DO9HM | 2026-09-01 11:54:52 | 48.91015 | 10.05856 | 342° | 15km/h | 21671m | 4.8m/s | -53.2°C | 1.1% | 45.1hPa | 2.6V | 00:00:00 | 00:00:00 | 00:00:00 | |
| DG9SBQ-11 | 2026-09-01 11:54:51 | 48.91012 | 10.05857 | 345° | 11km/h | 21666m | 6.0m/s | -53.2°C | 1.1% | 45.2hPa | 2.6V | 00:00:00 | 00:00:00 | 00:00:00 | |
| NBG1-10 | 2026-09-01 11:54:50 | 48.91010 | 10.05858 | 350° | 5km/h | 21660m | 4.7m/s | -53.2°C | 4.2% | 45.2hPa | 2.6V | 00:00:00 | 01:25:18 | 08:30:00 | |
| PG1ADW-2 | 2026-09-01 11:54:49 | 48.91008 | 10.05858 | 352° | 7km/h | 21655m | 5.9m/s | -53.3°C | 4.2% | 45.2hPa | 2.7V | 00:00:00 | 01:25:17 | 00:00:00 | |
| DO3MHA-11 | 2026-09-01 11:54:48 | 48.91005 | 10.05859 | 349° | 9km/h | 21650m | 5.2m/s | -53.2°C | 4.2% | 45.2hPa | 2.7V | 00:00:00 | 01:25:16 | 00:00:00 | |
| DL1NUX | 2026-09-01 11:54:47 | 48.90998 | 10.05864 | 312° | 7km/h | 21633m | 5.7m/s | -53.4°C | 0% | 0hPa | 2.7V | 08:30:00 | 01:25:13 | 00:00:00 | |
| HSKMA3-T | 2026-09-01 11:54:47 | 48.91002 | 10.05860 | 341° | 11km/h | 21644m | 4.4m/s | -53.3°C | 0.6% | 45.3hPa | 2.6V | 18:12:15 | 01:25:15 | 00:00:00 | |
| DK7TD | 2026-09-01 11:54:44 | 48.90996 | 10.05869 | 308° | 9km/h | 21623m | 6.2m/s | -53.3°C | 0.7% | 45.5hPa | 2.6V | 18:12:15 | 01:25:11 | 00:00:00 | |
| HSKMA3-T | 2026-09-01 11:54:36 | 48.90992 | 10.05880 | 3° | 2km/h | 21587m | 6.1m/s | 0°C | 0% | 45.8hPa | 2.6V | 18:12:15 | 01:25:04 | 00:00:00 | |
| DK7TD | 2026-09-01 11:54:34 | 48.90988 | 10.05879 | 22° | 5km/h | 21571m | 5.8m/s | -53.1°C | 0.6% | 45.9hPa | 2.7V | 18:12:15 | 01:25:01 | 00:00:00 | |
| HSKMA3-T | 2026-09-01 11:54:26 | 48.90987 | 10.05869 | 148° | 7km/h | 21534m | 6m/s | 0°C | 0% | 46.1hPa | 2.6V | 18:12:15 | 01:24:54 | 00:00:00 | |
| DK7TD | 2026-09-01 11:54:23 | 48.90993 | 10.05865 | 182° | 4km/h | 21512m | 5.4m/s | -53°C | 0.7% | 46.2hPa | 2.6V | 18:12:15 | 01:24:50 | 00:00:00 | |
| DL1NUX | 2026-09-01 11:54:22 | 48.90996 | 10.05866 | 187° | 4km/h | 21496m | 3.7m/s | 0°C | 0% | 0hPa | 2.7V | 08:30:00 | 01:24:47 | 00:00:00 | |
| HSKMA3-T | 2026-09-01 11:54:15 | 48.90997 | 10.05864 | 122° | 4km/h | 21477m | 4.9m/s | 0°C | 0% | 0hPa | 2.6V | 18:12:15 | 01:24:43 | 00:00:00 | |
| DK7TD | 2026-09-01 11:54:12 | 48.91001 | 10.05859 | 130° | 9km/h | 21461m | 5.4m/s | -52.8°C | 0.6% | 46.6hPa | 2.7V | 18:12:15 | 01:24:40 | 00:00:00 | |
| DL1NUX | 2026-09-01 11:54:11 | 48.91004 | 10.05845 | 115° | 9km/h | 21441m | 5.6m/s | 0°C | 0% | 0hPa | 2.6V | 08:30:00 | 01:24:36 | 00:00:00 | |
| HSKMA3-T | 2026-09-01 11:54:04 | 48.91009 | 10.05833 | 96° | 9km/h | 21420m | 5.3m/s | 0°C | 0% | 0hPa | 2.6V | 18:12:15 | 01:24:32 | 00:00:00 | |
| DK7TD | 2026-09-01 11:54:01 | 48.91010 | 10.05820 | 104° | 9km/h | 21398m | 4.8m/s | -52.6°C | 0.6% | 47.1hPa | 2.6V | 18:12:15 | 01:24:28 | 00:00:00 | |
| OE9MKV-15 | 2026-09-01 11:54:01 | 48.91010 | 10.05819 | 104° | 18km/h | 21399m | 4.8m/s | -52.5°C | 4.1% | 47.0hPa | 2.7V | 00:00:00 | 01:24:28 | 00:00:00 | |
| DB0NH | 2026-09-01 11:54:00 | 48.91010 | 10.05819 | 104° | 18km/h | 21399m | 4.8m/s | -52.5°C | 4.1% | 47.0hPa | 2.7V | 00:00:00 | 01:24:28 | 00:00:00 | |
| DL1NUX | 2026-09-01 11:53:59 | 48.91018 | 10.05793 | 127° | 15km/h | 21366m | 6.1m/s | 0°C | 0% | 0hPa | 2.7V | 08:30:00 | 01:24:22 | 00:00:00 | |
| HSKMA3-T | 2026-09-01 11:53:54 | 48.91018 | 10.05793 | 127° | 15km/h | 21366m | 6.1m/s | 0°C | 0% | 0hPa | 2.7V | 18:12:15 | 01:24:22 | 00:00:00 | |
| DK7TD | 2026-09-01 11:53:50 | 48.91025 | 10.05773 | 124° | 15km/h | 21344m | 6m/s | -52.7°C | 0.6% | 47.5hPa | 2.6V | 18:12:15 | 01:24:18 | 00:00:00 | |
| HSKMA3-T | 2026-09-01 11:53:44 | 48.91034 | 10.05737 | 108° | 18km/h | 21314m | 6m/s | 0°C | 0% | 0hPa | 2.6V | 18:12:15 | 01:24:12 | 00:00:00 | |
| DK7TD | 2026-09-01 11:53:39 | 48.91043 | 10.05705 | 107° | 18km/h | 21287m | 4.3m/s | -52.7°C | 0.6% | 47.9hPa | 2.6V | 18:12:15 | 01:24:07 | 00:00:00 | |
| DL1NUX | 2026-09-01 11:53:39 | 48.91051 | 10.05665 | 98° | 24km/h | 21260m | 5m/s | 0°C | 0% | 0hPa | 2.6V | 08:30:00 | 01:24:02 | 00:00:00 | |
| HSKMA3-T | 2026-09-01 11:53:34 | 48.91052 | 10.05656 | 99° | 24km/h | 21256m | 5m/s | 0°C | 0% | 0hPa | 2.7V | 18:12:15 | 01:24:01 | 00:00:00 | |
| DK7TD | 2026-09-01 11:53:28 | 48.91060 | 10.05616 | 103° | 18km/h | 21228m | 5.5m/s | -52.7°C | 0.6% | 48.4hPa | 2.6V | 18:12:15 | 01:23:56 | 00:00:00 | |
| HSKMA3-T | 2026-09-01 11:53:19 | 48.91065 | 10.05556 | 104° | 16km/h | 21181m | 4.8m/s | 0°C | 0% | 0hPa | 2.6V | 18:12:15 | 01:23:47 | 00:00:00 | |
| DK7TD | 2026-09-01 11:53:17 | 48.91068 | 10.05544 | 112° | 15km/h | 21173m | 5.3m/s | -52.8°C | 0.5% | 48.8hPa | 2.7V | 18:12:15 | 01:23:45 | 00:00:00 | |
| HSKMA3-T | 2026-09-01 11:53:08 | 48.91068 | 10.05501 | 77° | 16km/h | 21125m | 5.3m/s | 0°C | 0% | 0hPa | 2.7V | 18:12:15 | 01:23:36 | 00:00:00 | |
| DK7TD | 2026-09-01 11:53:07 | 48.91067 | 10.05495 | 78° | 18km/h | 21120m | 5.3m/s | -52.8°C | 0.6% | 49.2hPa | 2.7V | 18:12:15 | 01:23:35 | 00:00:00 | |
| DK7TD | 2026-09-01 11:52:57 | 48.91044 | 10.05451 | 58° | 16km/h | 21069m | 5.1m/s | -53.1°C | 0.5% | 49.6hPa | 2.6V | 18:12:15 | 01:23:25 | 00:00:00 | |
| DL6DJ-15 | 2026-09-01 11:52:56 | 48.91040 | 10.05437 | 74° | 24km/h | 21058m | 4.7m/s | -53.2°C | 1.1% | 49.7hPa | 2.6V | 00:00:00 | 00:00:00 | 00:00:00 | |
| DL1NUX | 2026-09-01 11:52:55 | 48.91029 | 10.05379 | 72° | 22km/h | 21027m | 4.8m/s | 0°C | 0% | 0hPa | 2.6V | 00:00:00 | 01:23:17 | 00:00:00 | |
| DK7TD | 2026-09-01 11:52:46 | 48.91022 | 10.05361 | 43° | 15km/h | 21013m | 4.2m/s | -53.7°C | 0.6% | 50hPa | 2.7V | 18:12:15 | 01:23:14 | 00:00:00 | |
| HSKMA3-T | 2026-09-01 11:52:44 | 48.91018 | 10.05354 | 62° | 11km/h | 21003m | 5m/s | 0°C | 0% | 0hPa | 2.6V | 18:12:15 | 01:23:12 | 00:00:00 | |
| DK7TD | 2026-09-01 11:52:36 | 48.91008 | 10.05286 | 82° | 31km/h | 20963m | 5.5m/s | -54.2°C | 0.7% | 50.4hPa | 2.6V | 18:12:15 | 01:23:04 | 00:00:00 | |
| HSKMA3-T | 2026-09-01 11:52:34 | 48.91006 | 10.05266 | 77° | 24km/h | 20953m | 4.2m/s | 0°C | 0% | 0hPa | 2.7V | 18:12:15 | 01:23:02 | 00:00:00 | |
| DK7TD | 2026-09-01 11:52:25 | 48.90996 | 10.05205 | 71° | 22km/h | 20909m | 4.4m/s | -54.4°C | 0.8% | 50.8hPa | 2.6V | 18:12:15 | 01:22:53 | 00:00:00 | |
| HSKMA3-T | 2026-09-01 11:52:23 | 48.90992 | 10.05186 | 69° | 27km/h | 20898m | 6m/s | 0°C | 0% | 0hPa | 2.6V | 18:12:15 | 01:22:51 | 00:00:00 | |
| DN1GJH-1 | 2026-09-01 11:52:23 | 48.90992 | 10.05186 | 70° | 27km/h | 20899m | 6.0m/s | -54.5°C | 1.2% | 50.9hPa | 2.6V | 00:00:00 | 00:00:00 | 00:00:00 | |
| DL1NUX | 2026-09-01 11:52:18 | 48.90979 | 10.05135 | 47° | 16km/h | 20867m | 4.7m/s | 0°C | 0% | 0hPa | 2.6V | 00:00:00 | 01:22:45 | 00:00:00 | |
| DK7TD | 2026-09-01 11:52:15 | 48.90974 | 10.05128 | 31° | 13km/h | 20856m | 5.5m/s | -54.3°C | 0.7% | 51.3hPa | 2.7V | 18:12:15 | 01:22:43 | 00:00:00 | |
| DG1MJG | 2026-09-01 11:52:14 | 48.90971 | 10.05126 | 25° | 15km/h | 20851m | 4.6m/s | -54.3°C | 1.2% | 51.3hPa | 2.6V | 00:00:00 | 00:00:00 | 00:00:00 | |
| DB0ND-19 | 2026-09-01 11:52:13 | 48.90963 | 10.05121 | 24° | 18km/h | 20841m | 4.7m/s | -54.3°C | 1.2% | 51.4hPa | 2.6V | 00:00:00 | 00:00:00 | 00:00:00 | |
| OE5WHR-10 | 2026-09-01 11:52:12 | 48.90959 | 10.05117 | 29° | 15km/h | 20836m | 4.2m/s | -54.3°C | 4.4% | 51.4hPa | 2.6V | 00:00:00 | 00:00:00 | 00:00:00 | |
| OE5DXL-15 | 2026-09-01 11:52:10 | 48.90951 | 10.05110 | 43° | 11km/h | 20826m | 5.7m/s | -54.3°C | 4.4% | 51.5hPa | 2.6V | 00:00:00 | 00:00:00 | 00:00:00 | |
| PG1ADW-2 | 2026-09-01 11:52:09 | 48.90951 | 10.05110 | 43° | 13km/h | 20826m | 5.7m/s | -54.3°C | 4.4% | 51.5hPa | 2.6V | 00:00:00 | 01:22:37 | 00:00:00 | |
| DL1NUX | 2026-09-01 11:52:08 | 48.90938 | 10.05079 | 45° | 9km/h | 20789m | 5.2m/s | 0°C | 0% | 0hPa | 2.6V | 00:00:00 | 01:22:30 | 00:00:00 | |
| DO9HM | 2026-09-01 11:52:07 | 48.90946 | 10.05100 | 56° | 16km/h | 20815m | 6.1m/s | -54.3°C | 1.2% | 51.6hPa | 2.7V | 00:00:00 | 00:00:00 | 00:00:00 | |
| IW2NTF | 2026-09-01 11:52:06 | 48.90934 | 10.05074 | 29° | 13km/h | 20779m | 4.6m/s | 0°C | 0% | 0hPa | 2.7V | 00:00:00 | 01:22:28 | 00:00:00 | |
| DK7TD | 2026-09-01 11:52:05 | 48.90942 | 10.05090 | 65° | 15km/h | 20805m | 4.5m/s | -54.4°C | 0.8% | 51.7hPa | 2.7V | 18:12:15 | 01:22:33 | 00:00:00 | |
| NBG1-10 | 2026-09-01 11:52:05 | 48.90942 | 10.05090 | 65° | 9km/h | 20805m | 4.4m/s | -54.4°C | 4.5% | 51.6hPa | 2.6V | 00:00:00 | 01:22:33 | 00:00:00 | |
| DL1ZP-14 | 2026-09-01 11:52:02 | 48.90938 | 10.05079 | 45° | 7km/h | 20789m | 5.3m/s | -54.3°C | 1.2% | 51.8hPa | 2.6V | 00:00:00 | 00:00:00 | 00:00:00 | |
| DG9SBQ-11 | 2026-09-01 11:52:00 | 48.90934 | 10.05074 | 30° | 13km/h | 20780m | 4.6m/s | -54.4°C | 1.2% | 51.9hPa | 2.6V | 00:00:00 | 00:00:00 | 00:00:00 | |
| DO3MHA-12 | 2026-09-01 11:51:58 | 48.90928 | 10.05069 | 44° | 11km/h | 20769m | 5.5m/s | -54.4°C | 4.4% | 51.9hPa | 2.6V | 00:00:00 | 01:22:26 | 00:00:00 | |
| DJ8HS-15 | 2026-09-01 11:51:57 | 48.90926 | 10.05065 | 56° | 9km/h | 20764m | 4.6m/s | -54.3°C | 4.4% | 52.0hPa | 2.6V | 00:00:00 | 01:22:25 | 00:00:00 | |
| DL1NUX | 2026-09-01 11:51:56 | 48.90916 | 10.05040 | 62° | 7km/h | 20734m | 4.1m/s | 0°C | 0% | 0hPa | 2.6V | 00:00:00 | 01:22:19 | 00:00:00 | |
| DK7TD | 2026-09-01 11:51:55 | 48.90923 | 10.05057 | 56° | 15km/h | 20754m | 5.7m/s | -54.4°C | 0.7% | 52.1hPa | 2.7V | 18:12:15 | 01:22:23 | 00:00:00 | |
| DL6DJ-15 | 2026-09-01 11:51:54 | 48.90918 | 10.05047 | 55° | 13km/h | 20744m | 4.9m/s | -54.4°C | 1.2% | 52.2hPa | 2.7V | 00:00:00 | 00:00:00 | 00:00:00 | |
| PG1ADW-2 | 2026-09-01 11:51:49 | 48.90913 | 10.05036 | 24° | 7km/h | 20725m | 5.7m/s | -54.2°C | 4.6% | 52.3hPa | 2.7V | 00:00:00 | 00:00:00 | 00:00:00 | |
| DO3MHA-12 | 2026-09-01 11:51:48 | 48.90911 | 10.05035 | 18° | 7km/h | 20719m | 4.6m/s | -54.1°C | 4.5% | 52.3hPa | 2.7V | 00:00:00 | 01:22:16 | 00:00:00 | |
| DO9HM | 2026-09-01 11:51:47 | 48.90909 | 10.05034 | 23° | 9km/h | 20714m | 5.2m/s | -54.2°C | 1.2% | 52.4hPa | 2.7V | 00:00:00 | 00:00:00 | 00:00:00 | |
| DL1NUX | 2026-09-01 11:51:46 | 48.90899 | 10.05023 | 38° | 5km/h | 20683m | 6m/s | 0°C | 0% | 0hPa | 2.7V | 00:00:00 | 01:22:09 | 00:00:00 | |
| IW2NTF | 2026-09-01 11:51:46 | 48.90898 | 10.05022 | 67° | 2km/h | 20677m | 5.4m/s | 0°C | 0% | 0hPa | 2.7V | 00:00:00 | 01:22:08 | 00:00:00 | |
| DK7TD | 2026-09-01 11:51:45 | 48.90906 | 10.05031 | 43° | 7km/h | 20703m | 4.7m/s | -54.2°C | 0.7% | 52.5hPa | 2.7V | 18:12:15 | 01:22:13 | 00:00:00 | |
| DG1MJG | 2026-09-01 11:51:44 | 48.90904 | 10.05029 | 40° | 9km/h | 20698m | 5.6m/s | -54.2°C | 0% | 0hPa | 2.6V | 00:00:00 | 00:00:00 | 00:00:00 | |
| DN1GJH-1 | 2026-09-01 11:51:42 | 48.90900 | 10.05025 | 34° | 9km/h | 20688m | 4.3m/s | -54.2°C | 1.2% | 52.6hPa | 2.6V | 00:00:00 | 00:00:00 | 00:00:00 | |
| DB0ND-19 | 2026-09-01 11:51:41 | 48.90899 | 10.05023 | 38° | 5km/h | 20683m | 6.0m/s | -54.2°C | 1.1% | 52.7hPa | 2.6V | 00:00:00 | 00:00:00 | 00:00:00 | |
| OE5DXL-15 | 2026-09-01 11:51:39 | 48.90898 | 10.05022 | 202° | 11km/h | 20673m | 4.1m/s | -54.1°C | 4.4% | 52.7hPa | 2.6V | 00:00:00 | 00:00:00 | 00:00:00 | |
| DJ8HS-15 | 2026-09-01 11:51:38 | 48.90899 | 10.05023 | 282° | 9km/h | 20662m | 5.2m/s | -54.2°C | 4.5% | 52.8hPa | 2.6V | 00:00:00 | 01:22:05 | 00:00:00 | |
| SONDE2-11 | 2026-09-01 11:51:37 | 48.90899 | 10.05024 | 87° | 2km/h | 20647m | 4.3m/s | -54.0°C | 1.2% | 53.0hPa | 2.6V | 00:00:00 | 00:00:00 | 00:00:00 | |
| DL1NUX | 2026-09-01 11:51:36 | 48.90895 | 10.05015 | 56° | 15km/h | 20632m | 4.4m/s | 0°C | 0% | 0hPa | 2.6V | 00:00:00 | 01:21:59 | 00:00:00 | |
| IW2NTF | 2026-09-01 11:51:35 | 48.90893 | 10.05009 | 63° | 16km/h | 20627m | 5m/s | 0°C | 0% | 0hPa | 2.7V | 00:00:00 | 01:21:58 | 00:00:00 | |
| DK7TD | 2026-09-01 11:51:34 | 48.90899 | 10.05024 | 87° | 4km/h | 20647m | 4.3m/s | -54°C | 0.8% | 53hPa | 2.7V | 18:12:15 | 01:22:02 | 00:00:00 | |
| DK7TD | 2026-09-01 11:51:23 | 48.90895 | 10.04978 | 129° | 11km/h | 20589m | 5.4m/s | -53.7°C | 0.7% | 53.5hPa | 2.7V | 18:12:15 | 01:21:51 | 00:00:00 | |
| DL1NUX | 2026-09-01 11:51:21 | 48.90897 | 10.04972 | 105° | 7km/h | 20579m | 6m/s | 0°C | 0% | 0hPa | 2.6V | 00:00:00 | 01:21:49 | 00:00:00 | |
| HSKMA3-T | 2026-09-01 11:51:17 | 48.90895 | 10.04957 | 81° | 13km/h | 20558m | 5.4m/s | 0°C | 0% | 0hPa | 2.6V | 18:12:15 | 01:21:45 | 00:00:00 | |
| DK7TD | 2026-09-01 11:51:13 | 48.90892 | 10.04934 | 77° | 16km/h | 20537m | 4.4m/s | -53.3°C | 0.6% | 53.9hPa | 2.6V | 18:12:15 | 01:21:41 | 00:00:00 | |
| DH7VM-15 | 2026-09-01 11:51:13 | 48.90892 | 10.04934 | 78° | 16km/h | 20538m | 4.4m/s | -53.3°C | 1.1% | 53.8hPa | 2.7V | 00:00:00 | 00:00:00 | 00:00:00 | |
| DL1NUX | 2026-09-01 11:51:11 | 48.90890 | 10.04917 | 80° | 13km/h | 20522m | 5.2m/s | 0°C | 0% | 0hPa | 2.7V | 00:00:00 | 01:21:38 | 00:00:00 | |
| DK7TD | 2026-09-01 11:51:02 | 48.90879 | 10.04883 | 51° | 13km/h | 20482m | 4.8m/s | -53.2°C | 0.6% | 54.3hPa | 2.6V | 18:12:15 | 01:21:30 | 00:00:00 | |
| DL1NUX | 2026-09-01 11:51:01 | 48.90875 | 10.04873 | 71° | 15km/h | 20471m | 4.9m/s | 0°C | 0% | 0hPa | 2.6V | 00:00:00 | 01:21:28 | 00:00:00 | |
| DK7TD | 2026-09-01 11:50:52 | 48.90863 | 10.04812 | 68° | 20km/h | 20423m | 5m/s | -53.1°C | 0.5% | 54.8hPa | 2.6V | 18:12:15 | 01:21:19 | 00:00:00 | |
| DK7TD | 2026-09-01 11:50:41 | 48.90843 | 10.04735 | 68° | 22km/h | 20372m | 4.9m/s | -53.1°C | 0.7% | 55.2hPa | 2.6V | 18:12:15 | 01:21:09 | 00:00:00 | |
| HSKMA3-T | 2026-09-01 11:50:40 | 48.90841 | 10.04727 | 63° | 24km/h | 20367m | 5.8m/s | 0°C | 0% | 0hPa | 2.6V | 18:12:15 | 01:21:08 | 00:00:00 | |
| HSKMA3-T | 2026-09-01 11:50:30 | 48.90801 | 10.04632 | 67° | 27km/h | 20315m | 4.7m/s | 0°C | 0% | 0hPa | 2.6V | 18:12:15 | 01:20:58 | 00:00:00 | |
| DK7TD | 2026-09-01 11:50:19 | 48.90750 | 10.04550 | 32° | 29km/h | 20257m | 4.5m/s | -53.2°C | 0.7% | 56.3hPa | 2.6V | 18:12:15 | 01:20:47 | 00:00:00 | |
| DK7TD | 2026-09-01 11:50:08 | 48.90698 | 10.04493 | 39° | 26km/h | 20201m | 5.5m/s | -53.5°C | 0.6% | 56.8hPa | 2.6V | 18:12:15 | 01:20:36 | 00:00:00 | |
| DK7TD | 2026-09-01 11:49:58 | 48.90664 | 10.04437 | 40° | 15km/h | 20152m | 4.9m/s | -53.3°C | 0.6% | 57.2hPa | 2.6V | 18:12:15 | 01:20:26 | 00:00:00 | |
| DK7TD | 2026-09-01 11:49:48 | 48.90638 | 10.04389 | 74° | 18km/h | 20102m | 4m/s | -53.5°C | 0.7% | 57.6hPa | 2.7V | 18:12:15 | 01:20:16 | 00:00:00 | |
| HSKMA3-T | 2026-09-01 11:49:47 | 48.90636 | 10.04382 | 69° | 18km/h | 20098m | 4m/s | 0°C | 0% | 0hPa | 2.6V | 18:12:15 | 01:20:15 | 00:00:00 | |
| DK7TD | 2026-09-01 11:49:37 | 48.90609 | 10.04314 | 75° | 15km/h | 20052m | 3.6m/s | -53.7°C | 0.7% | 58.1hPa | 2.7V | 18:12:15 | 01:20:05 | 00:00:00 | |
| DK7TD | 2026-09-01 11:49:26 | 48.90579 | 10.04236 | 47° | 18km/h | 20001m | 4.1m/s | -53.9°C | 0.7% | 58.6hPa | 2.6V | 18:12:15 | 01:19:54 | 00:00:00 | |
| DK7TD | 2026-09-01 11:49:15 | 48.90535 | 10.04160 | 56° | 26km/h | 19947m | 5.5m/s | -54.1°C | 0.7% | 59.1hPa | 2.7V | 18:12:15 | 01:19:43 | 00:00:00 | |
| DK7TD | 2026-09-01 11:49:04 | 48.90500 | 10.04090 | 57° | 26km/h | 19896m | 4.8m/s | -54.2°C | 0.6% | 59.5hPa | 2.6V | 18:12:15 | 01:19:32 | 00:00:00 | |
| DK7TD | 2026-09-01 11:48:54 | 48.90467 | 10.04006 | 47° | 27km/h | 19850m | 6.1m/s | -54.7°C | 0.7% | 60hPa | 2.7V | 18:12:15 | 01:19:22 | 00:00:00 | |
| DL9SK-14 | 2026-09-01 11:48:53 | 48.90463 | 10.03998 | 42° | 26km/h | 19846m | 4.1m/s | -54.6°C | 1.2% | 60.0hPa | 2.7V | 00:00:00 | 00:00:00 | 00:00:00 | |
| DL6DJ-15 | 2026-09-01 11:48:48 | 48.90432 | 10.03962 | 45° | 26km/h | 19817m | 2.9m/s | -54.8°C | 1.2% | 60.3hPa | 2.7V | 00:00:00 | 00:00:00 | 00:00:00 | |
| DK7TD | 2026-09-01 11:48:43 | 48.90414 | 10.03938 | 31° | 22km/h | 19800m | 4.5m/s | -55.1°C | 0.8% | 60.5hPa | 2.7V | 18:12:15 | 01:19:11 | 00:00:00 | |
| HSKMA3-T | 2026-09-01 11:48:37 | 48.90387 | 10.03912 | 44° | 16km/h | 19772m | 4m/s | 0°C | 0% | 0hPa | 2.6V | 18:12:15 | 01:19:05 | 00:00:00 | |
| DK7TD | 2026-09-01 11:48:32 | 48.90369 | 10.03892 | 18° | 16km/h | 19749m | 4.4m/s | -55°C | 0.8% | 60.9hPa | 2.6V | 18:12:15 | 01:19:00 | 00:00:00 | |
| DK7TD | 2026-09-01 11:48:21 | 48.90316 | 10.03863 | 5° | 22km/h | 19695m | 5.3m/s | -54.8°C | 0.8% | 61.4hPa | 2.6V | 18:12:15 | 01:18:49 | 00:00:00 | |
| DK7TD | 2026-09-01 11:48:11 | 48.90272 | 10.03858 | 8° | 18km/h | 19645m | 5.9m/s | -54.6°C | 0.8% | 61.9hPa | 2.6V | 18:12:15 | 01:18:39 | 00:00:00 | |
| DK7TD | 2026-09-01 11:48:00 | 48.90218 | 10.03848 | 343° | 9km/h | 19590m | 6.1m/s | -54.3°C | 0.7% | 62.5hPa | 2.7V | 18:12:15 | 01:18:28 | 00:00:00 | |
| DK7TD | 2026-09-01 11:47:50 | 48.90186 | 10.03848 | 355° | 13km/h | 19539m | 5.6m/s | -53.8°C | 0.8% | 62.9hPa | 2.6V | 18:12:15 | 01:18:18 | 00:00:00 | |
| DL6DJ-15 | 2026-09-01 11:47:46 | 48.90174 | 10.03855 | 337° | 9km/h | 19515m | 5.1m/s | -53.6°C | 1.2% | 63.2hPa | 2.6V | 00:00:00 | 00:00:00 | 00:00:00 | |
| DK7TD | 2026-09-01 11:47:39 | 48.90156 | 10.03856 | 23° | 15km/h | 19485m | 3.9m/s | -53.4°C | 0.7% | 63.5hPa | 2.6V | 18:12:15 | 01:18:07 | 00:00:00 | |
| DO9HM | 2026-09-01 11:47:39 | 48.90156 | 10.03856 | 24° | 15km/h | 19485m | 3.9m/s | -53.4°C | 1.2% | 63.5hPa | 2.6V | 00:00:00 | 00:00:00 | 00:00:00 | |
| DO3MHA-11 | 2026-09-01 11:47:38 | 48.90153 | 10.03854 | 17° | 11km/h | 19480m | 5.7m/s | -53.3°C | 4.3% | 63.5hPa | 2.6V | 00:00:00 | 01:18:06 | 00:00:00 | |
| IW2NTF | 2026-09-01 11:47:37 | 48.90132 | 10.03860 | 325° | 11km/h | 19443m | 5.3m/s | 0°C | 0% | 0hPa | 2.6V | 00:00:00 | 01:17:59 | 00:00:00 | |
| DK7TD | 2026-09-01 11:47:29 | 48.90127 | 10.03864 | 343° | 9km/h | 19428m | 5.6m/s | -52.9°C | 0.6% | 64.1hPa | 2.7V | 18:12:15 | 01:17:56 | 00:00:00 | |
| DO3MHA-12 | 2026-09-01 11:47:28 | 48.90127 | 10.03864 | 343° | 11km/h | 19428m | 5.5m/s | -52.9°C | 4.2% | 64.0hPa | 2.6V | 00:00:00 | 01:17:56 | 00:00:00 | |
| OE5DRO-10 | 2026-09-01 11:47:26 | 48.90121 | 10.03865 | 6° | 11km/h | 19418m | 4.5m/s | -52.8°C | 4.2% | 64.1hPa | 2.6V | 00:00:00 | 00:00:00 | 08:30:00 | |
| DL1ZP-14 | 2026-09-01 11:47:23 | 48.90111 | 10.03859 | 27° | 11km/h | 19397m | 6.4m/s | -52.7°C | 1.1% | 64.4hPa | 2.7V | 00:00:00 | 00:00:00 | 00:00:00 | |
| DM7RM-13 | 2026-09-01 11:47:21 | 48.90111 | 10.03858 | 29° | 11km/h | 19397m | 6.4m/s | -52.7°C | 1.2% | 64.4hPa | 2.7V | 00:00:00 | 00:00:00 | 00:00:00 | |
| DL9SK-14 | 2026-09-01 11:47:20 | 48.90106 | 10.03855 | 25° | 9km/h | 19386m | 4.9m/s | -52.6°C | 1.1% | 64.5hPa | 2.7V | 00:00:00 | 00:00:00 | 00:00:00 | |
| DO3MHA-12 | 2026-09-01 11:47:18 | 48.90102 | 10.03852 | 23° | 9km/h | 19377m | 4.0m/s | -52.5°C | 4.1% | 64.5hPa | 2.7V | 00:00:00 | 01:17:46 | 00:00:00 | |
| IW2NTF | 2026-09-01 11:47:17 | 48.90096 | 10.03851 | 0° | 9km/h | 19361m | 4.4m/s | 0°C | 0% | 0hPa | 2.7V | 00:00:00 | 01:17:43 | 00:00:00 | |
| DK7TD | 2026-09-01 11:47:17 | 48.90100 | 10.03851 | 12° | 7km/h | 19372m | 6.1m/s | -52.5°C | 0.6% | 64.6hPa | 2.7V | 18:12:15 | 01:17:45 | 00:00:00 | |
| DJ8HS-15 | 2026-09-01 11:47:17 | 48.90100 | 10.03851 | 13° | 9km/h | 19372m | 6.0m/s | -52.4°C | 4.1% | 64.6hPa | 2.6V | 00:00:00 | 01:17:45 | 00:00:00 | |
| DK5PH-5 | 2026-09-01 11:47:16 | 48.90098 | 10.03851 | 1° | 11km/h | 19366m | 5.1m/s | -52.4°C | 4.0% | 64.7hPa | 2.6V | 00:00:00 | 01:17:44 | 00:00:00 | |
| OE5WHR-10 | 2026-09-01 11:47:13 | 48.90091 | 10.03850 | 22° | 11km/h | 19351m | 4.7m/s | 0°C | 0% | 0hPa | 2.6V | 00:00:00 | 00:00:00 | 00:00:00 | |
| OE5DXL-15 | 2026-09-01 11:47:09 | 48.90084 | 10.03843 | 43° | 11km/h | 19331m | 4.7m/s | -52.3°C | 4.0% | 65.0hPa | 2.6V | 00:00:00 | 00:00:00 | 00:00:00 | |
| DO3MHA-11 | 2026-09-01 11:47:08 | 48.90082 | 10.03840 | 54° | 9km/h | 19326m | 5.2m/s | -52.3°C | 4.0% | 65.1hPa | 2.6V | 00:00:00 | 01:17:36 | 00:00:00 | |
| OE9MKV-15 | 2026-09-01 11:47:07 | 48.90080 | 10.03838 | 56° | 13km/h | 19322m | 3.9m/s | -52.2°C | 4.0% | 65.1hPa | 2.6V | 00:00:00 | 01:17:35 | 00:00:00 | |
| IW2NTF | 2026-09-01 11:47:06 | 48.90077 | 10.03833 | 29° | 11km/h | 19311m | 5.1m/s | 0°C | 0% | 0hPa | 2.6V | 00:00:00 | 01:17:33 | 00:00:00 | |
| DK7TD | 2026-09-01 11:47:06 | 48.90079 | 10.03835 | 44° | 9km/h | 19317m | 5.6m/s | -52.2°C | 0.5% | 65.2hPa | 2.7V | 18:12:15 | 01:17:34 | 00:00:00 | |
| DH7VM-15 | 2026-09-01 11:47:04 | 48.90072 | 10.03829 | 22° | 9km/h | 19302m | 5.0m/s | -52.4°C | 1.1% | 65.3hPa | 2.6V | 00:00:00 | 00:00:00 | 00:00:00 | |
| IW2NTF | 2026-09-01 11:47:00 | 48.90057 | 10.03820 | 35° | 11km/h | 19261m | 5.7m/s | 0°C | 0% | 0hPa | 2.6V | 00:00:00 | 01:17:23 | 00:00:00 | |
| DK7TD | 2026-09-01 11:46:55 | 48.90057 | 10.03820 | 35° | 11km/h | 19261m | 5.7m/s | -52.5°C | 0.6% | 65.7hPa | 2.6V | 18:12:15 | 01:17:23 | 00:00:00 | |
| DL1ZP-14 | 2026-09-01 11:46:54 | 48.90047 | 10.03808 | 44° | 13km/h | 19241m | 4.4m/s | -52.3°C | 1.1% | 66.0hPa | 2.7V | 00:00:00 | 00:00:00 | 00:00:00 | |
| DL9SK-14 | 2026-09-01 11:46:49 | 48.90041 | 10.03801 | 37° | 15km/h | 19232m | 5.2m/s | -52.3°C | 1.1% | 66.0hPa | 2.7V | 00:00:00 | 00:00:00 | 00:00:00 | |
| DO3MHA-12 | 2026-09-01 11:46:48 | 48.90038 | 10.03797 | 41° | 11km/h | 19227m | 4.3m/s | -52.2°C | 4.1% | 66.0hPa | 2.7V | 00:00:00 | 01:17:16 | 00:00:00 | |
| IW2NTF | 2026-09-01 11:46:47 | 48.90031 | 10.03785 | 55° | 11km/h | 19212m | 4.6m/s | 0°C | 0% | 0hPa | 2.7V | 00:00:00 | 01:17:13 | 00:00:00 | |
| DK7TD | 2026-09-01 11:46:45 | 48.90031 | 10.03785 | 55° | 11km/h | 19212m | 4.6m/s | -52.1°C | 0.6% | 66.3hPa | 2.7V | 18:12:15 | 01:17:13 | 00:00:00 | |
| DL6DJ-15 | 2026-09-01 11:46:43 | 48.90027 | 10.03778 | 34° | 9km/h | 19201m | 4.4m/s | -52.1°C | 1.1% | 66.4hPa | 2.7V | 00:00:00 | 00:00:00 | 00:00:00 | |
| DM7RM-13 | 2026-09-01 11:46:40 | 48.90021 | 10.03774 | 16° | 7km/h | 19187m | 4.6m/s | -51.9°C | 1.1% | 66.5hPa | 2.7V | 00:00:00 | 00:00:00 | 00:00:00 | |
| OE5DXL-15 | 2026-09-01 11:46:39 | 48.90019 | 10.03773 | 11° | 16km/h | 19183m | 4.1m/s | -51.8°C | 3.9% | 66.5hPa | 2.7V | 00:00:00 | 00:00:00 | 00:00:00 | |
| DO3MHA-11 | 2026-09-01 11:46:38 | 48.90017 | 10.03773 | 12° | 15km/h | 19178m | 5.9m/s | -51.9°C | 3.9% | 66.5hPa | 2.7V | 00:00:00 | 01:17:06 | 00:00:00 | |
| DO9HM | 2026-09-01 11:46:37 | 48.90014 | 10.03771 | 14° | 16km/h | 19173m | 4.5m/s | -51.8°C | 1.1% | 66.7hPa | 2.7V | 00:00:00 | 00:00:00 | 00:00:00 | |
| IW2NTF | 2026-09-01 11:46:36 | 48.90005 | 10.03767 | 24° | 16km/h | 19163m | 5.3m/s | 0°C | 0% | 0hPa | 2.7V | 00:00:00 | 01:17:03 | 00:00:00 | |
| DK7TD | 2026-09-01 11:46:35 | 48.90005 | 10.03767 | 25° | 16km/h | 19164m | 5.3m/s | -51.8°C | 0.5% | 66.8hPa | 2.7V | 18:12:15 | 01:17:03 | 00:00:00 | |
| Es werden nur die letzten 3500 von 3967 Frames angezeigt. GPX/KML und Diagramme bleiben verfügbar. | |||||||||||||||